<?xml version="1.0" encoding="UTF-8" standalone="no" ?>
<gpx xmlns="http://www.topografix.com/GPX/1/1" xmlns:xsi="http://www.w3.org/2001/XMLSchema-instance" xsi:schemaLocation="http://www.topografix.com/GPX/1/1 http://www.topografix.com/GPX/1/1/gpx.xsd" version="1.1" creator="VisuGPX - https://www.visugpx.com">
  <metadata>
    <name>VTTAE Dantxiara col des 3 Croix Alkurrute</name>
  </metadata>
  <trk>
    <name><![CDATA[VTTAE Dantxiara col 3 Croix Alkurrute]]></name>
    <trkseg>
      <trkpt lat="43.29044" lon="-1.50494">
        <ele>79.2</ele>
        <time>2022-09-04T06:42:01Z</time>
      </trkpt>
      <trkpt lat="43.29044" lon="-1.50493">
        <ele>79.1</ele>
        <time>2022-09-04T06:42:02Z</time>
      </trkpt>
      <trkpt lat="43.29044" lon="-1.50492">
        <ele>79</ele>
        <time>2022-09-04T06:42:03Z</time>
      </trkpt>
      <trkpt lat="43.29044" lon="-1.50491">
        <ele>79</ele>
        <time>2022-09-04T06:42:04Z</time>
      </trkpt>
      <trkpt lat="43.29044" lon="-1.5049">
        <ele>78.9</ele>
        <time>2022-09-04T06:42:05Z</time>
      </trkpt>
      <trkpt lat="43.29044" lon="-1.50489">
        <ele>78.8</ele>
        <time>2022-09-04T06:42:06Z</time>
      </trkpt>
      <trkpt lat="43.29044" lon="-1.50489">
        <ele>78.7</ele>
        <time>2022-09-04T06:42:07Z</time>
      </trkpt>
      <trkpt lat="43.29044" lon="-1.50488">
        <ele>78.7</ele>
        <time>2022-09-04T06:42:08Z</time>
      </trkpt>
      <trkpt lat="43.29044" lon="-1.50487">
        <ele>78.6</ele>
        <time>2022-09-04T06:42:09Z</time>
      </trkpt>
      <trkpt lat="43.29044" lon="-1.50486">
        <ele>78.5</ele>
        <time>2022-09-04T06:42:10Z</time>
      </trkpt>
      <trkpt lat="43.29044" lon="-1.50485">
        <ele>78.4</ele>
        <time>2022-09-04T06:42:11Z</time>
      </trkpt>
      <trkpt lat="43.29044" lon="-1.50484">
        <ele>78.4</ele>
        <time>2022-09-04T06:43:33Z</time>
      </trkpt>
      <trkpt lat="43.29044" lon="-1.50483">
        <ele>78.3</ele>
        <time>2022-09-04T06:43:34Z</time>
      </trkpt>
      <trkpt lat="43.29044" lon="-1.50482">
        <ele>78.2</ele>
        <time>2022-09-04T06:43:35Z</time>
      </trkpt>
      <trkpt lat="43.29044" lon="-1.50481">
        <ele>78.1</ele>
        <time>2022-09-04T06:43:36Z</time>
      </trkpt>
      <trkpt lat="43.29048" lon="-1.50481">
        <ele>77.7</ele>
        <time>2022-09-04T06:43:37Z</time>
      </trkpt>
      <trkpt lat="43.29049" lon="-1.50481">
        <ele>77.6</ele>
        <time>2022-09-04T06:43:38Z</time>
      </trkpt>
      <trkpt lat="43.29052" lon="-1.50481">
        <ele>77.2</ele>
        <time>2022-09-04T06:43:39Z</time>
      </trkpt>
      <trkpt lat="43.29055" lon="-1.50481">
        <ele>76.9</ele>
        <time>2022-09-04T06:43:40Z</time>
      </trkpt>
      <trkpt lat="43.29059" lon="-1.50481">
        <ele>76.5</ele>
        <time>2022-09-04T06:43:41Z</time>
      </trkpt>
      <trkpt lat="43.29062" lon="-1.50481">
        <ele>76.1</ele>
        <time>2022-09-04T06:43:42Z</time>
      </trkpt>
      <trkpt lat="43.29065" lon="-1.50478">
        <ele>75.8</ele>
        <time>2022-09-04T06:43:43Z</time>
      </trkpt>
      <trkpt lat="43.29067" lon="-1.50475">
        <ele>75.2</ele>
        <time>2022-09-04T06:43:44Z</time>
      </trkpt>
      <trkpt lat="43.29067" lon="-1.50469">
        <ele>75.1</ele>
        <time>2022-09-04T06:43:45Z</time>
      </trkpt>
      <trkpt lat="43.29067" lon="-1.50464">
        <ele>75</ele>
        <time>2022-09-04T06:43:46Z</time>
      </trkpt>
      <trkpt lat="43.29068" lon="-1.50459">
        <ele>74.9</ele>
        <time>2022-09-04T06:43:47Z</time>
      </trkpt>
      <trkpt lat="43.2907" lon="-1.50454">
        <ele>74.7</ele>
        <time>2022-09-04T06:43:48Z</time>
      </trkpt>
      <trkpt lat="43.29073" lon="-1.5045">
        <ele>74.6</ele>
        <time>2022-09-04T06:43:49Z</time>
      </trkpt>
      <trkpt lat="43.29077" lon="-1.50448">
        <ele>74.5</ele>
        <time>2022-09-04T06:43:50Z</time>
      </trkpt>
      <trkpt lat="43.29082" lon="-1.50447">
        <ele>74.4</ele>
        <time>2022-09-04T06:43:51Z</time>
      </trkpt>
      <trkpt lat="43.29086" lon="-1.50447">
        <ele>74.4</ele>
        <time>2022-09-04T06:43:52Z</time>
      </trkpt>
      <trkpt lat="43.2909" lon="-1.50446">
        <ele>74.3</ele>
        <time>2022-09-04T06:43:53Z</time>
      </trkpt>
      <trkpt lat="43.29094" lon="-1.50445">
        <ele>74.2</ele>
        <time>2022-09-04T06:43:54Z</time>
      </trkpt>
      <trkpt lat="43.29098" lon="-1.50445">
        <ele>74.1</ele>
        <time>2022-09-04T06:43:55Z</time>
      </trkpt>
      <trkpt lat="43.29102" lon="-1.50445">
        <ele>74.1</ele>
        <time>2022-09-04T06:43:56Z</time>
      </trkpt>
      <trkpt lat="43.2911" lon="-1.50447">
        <ele>74</ele>
        <time>2022-09-04T06:43:58Z</time>
      </trkpt>
      <trkpt lat="43.29114" lon="-1.50449">
        <ele>73.9</ele>
        <time>2022-09-04T06:43:59Z</time>
      </trkpt>
      <trkpt lat="43.29118" lon="-1.5045">
        <ele>73.8</ele>
        <time>2022-09-04T06:44:00Z</time>
      </trkpt>
      <trkpt lat="43.29122" lon="-1.5045">
        <ele>73.8</ele>
        <time>2022-09-04T06:44:01Z</time>
      </trkpt>
      <trkpt lat="43.29125" lon="-1.50447">
        <ele>74.5</ele>
        <time>2022-09-04T06:44:02Z</time>
      </trkpt>
      <trkpt lat="43.29128" lon="-1.50442">
        <ele>74.9</ele>
        <time>2022-09-04T06:44:03Z</time>
      </trkpt>
      <trkpt lat="43.2913" lon="-1.50435">
        <ele>75.3</ele>
        <time>2022-09-04T06:44:04Z</time>
      </trkpt>
      <trkpt lat="43.29132" lon="-1.50428">
        <ele>75.7</ele>
        <time>2022-09-04T06:44:05Z</time>
      </trkpt>
      <trkpt lat="43.29134" lon="-1.50423">
        <ele>76</ele>
        <time>2022-09-04T06:44:06Z</time>
      </trkpt>
      <trkpt lat="43.29135" lon="-1.50417">
        <ele>76.4</ele>
        <time>2022-09-04T06:44:07Z</time>
      </trkpt>
      <trkpt lat="43.29137" lon="-1.50412">
        <ele>76.7</ele>
        <time>2022-09-04T06:44:08Z</time>
      </trkpt>
      <trkpt lat="43.29138" lon="-1.50408">
        <ele>77</ele>
        <time>2022-09-04T06:44:09Z</time>
      </trkpt>
      <trkpt lat="43.2914" lon="-1.50403">
        <ele>77.2</ele>
        <time>2022-09-04T06:44:10Z</time>
      </trkpt>
      <trkpt lat="43.29142" lon="-1.50398">
        <ele>77.5</ele>
        <time>2022-09-04T06:44:11Z</time>
      </trkpt>
      <trkpt lat="43.29143" lon="-1.50394">
        <ele>77.7</ele>
        <time>2022-09-04T06:44:12Z</time>
      </trkpt>
      <trkpt lat="43.29144" lon="-1.50389">
        <ele>77.8</ele>
        <time>2022-09-04T06:44:13Z</time>
      </trkpt>
      <trkpt lat="43.29144" lon="-1.50387">
        <ele>77.8</ele>
        <time>2022-09-04T06:44:14Z</time>
      </trkpt>
      <trkpt lat="43.29143" lon="-1.50383">
        <ele>78</ele>
        <time>2022-09-04T06:44:15Z</time>
      </trkpt>
      <trkpt lat="43.29142" lon="-1.50379">
        <ele>78.3</ele>
        <time>2022-09-04T06:44:16Z</time>
      </trkpt>
      <trkpt lat="43.29142" lon="-1.50374">
        <ele>78.6</ele>
        <time>2022-09-04T06:44:17Z</time>
      </trkpt>
      <trkpt lat="43.29143" lon="-1.50368">
        <ele>78.9</ele>
        <time>2022-09-04T06:44:18Z</time>
      </trkpt>
      <trkpt lat="43.29144" lon="-1.50363">
        <ele>79.2</ele>
        <time>2022-09-04T06:44:19Z</time>
      </trkpt>
      <trkpt lat="43.29145" lon="-1.50359">
        <ele>79.5</ele>
        <time>2022-09-04T06:44:20Z</time>
      </trkpt>
      <trkpt lat="43.29145" lon="-1.50355">
        <ele>79.8</ele>
        <time>2022-09-04T06:44:21Z</time>
      </trkpt>
      <trkpt lat="43.29143" lon="-1.50352">
        <ele>79.9</ele>
        <time>2022-09-04T06:44:22Z</time>
      </trkpt>
      <trkpt lat="43.29142" lon="-1.50351">
        <ele>80</ele>
        <time>2022-09-04T06:44:23Z</time>
      </trkpt>
      <trkpt lat="43.29139" lon="-1.50349">
        <ele>80.3</ele>
        <time>2022-09-04T06:44:24Z</time>
      </trkpt>
      <trkpt lat="43.29137" lon="-1.50347">
        <ele>80.5</ele>
        <time>2022-09-04T06:44:25Z</time>
      </trkpt>
      <trkpt lat="43.29133" lon="-1.50344">
        <ele>80.8</ele>
        <time>2022-09-04T06:44:26Z</time>
      </trkpt>
      <trkpt lat="43.29132" lon="-1.50343">
        <ele>80.9</ele>
        <time>2022-09-04T06:44:27Z</time>
      </trkpt>
      <trkpt lat="43.29129" lon="-1.5034">
        <ele>81.1</ele>
        <time>2022-09-04T06:44:28Z</time>
      </trkpt>
      <trkpt lat="43.29128" lon="-1.50339">
        <ele>81.2</ele>
        <time>2022-09-04T06:44:29Z</time>
      </trkpt>
      <trkpt lat="43.29126" lon="-1.50337">
        <ele>81.3</ele>
        <time>2022-09-04T06:44:30Z</time>
      </trkpt>
      <trkpt lat="43.29123" lon="-1.50334">
        <ele>81.5</ele>
        <time>2022-09-04T06:44:31Z</time>
      </trkpt>
      <trkpt lat="43.29121" lon="-1.50333">
        <ele>81.6</ele>
        <time>2022-09-04T06:44:32Z</time>
      </trkpt>
      <trkpt lat="43.29118" lon="-1.50331">
        <ele>81.8</ele>
        <time>2022-09-04T06:44:33Z</time>
      </trkpt>
      <trkpt lat="43.29117" lon="-1.5033">
        <ele>81.8</ele>
        <time>2022-09-04T06:44:34Z</time>
      </trkpt>
      <trkpt lat="43.29114" lon="-1.50327">
        <ele>82</ele>
        <time>2022-09-04T06:44:35Z</time>
      </trkpt>
      <trkpt lat="43.29113" lon="-1.50327">
        <ele>82</ele>
        <time>2022-09-04T06:44:36Z</time>
      </trkpt>
      <trkpt lat="43.2911" lon="-1.50325">
        <ele>82.1</ele>
        <time>2022-09-04T06:44:37Z</time>
      </trkpt>
      <trkpt lat="43.29109" lon="-1.50324">
        <ele>82.2</ele>
        <time>2022-09-04T06:44:38Z</time>
      </trkpt>
      <trkpt lat="43.29106" lon="-1.50323">
        <ele>82.3</ele>
        <time>2022-09-04T06:44:39Z</time>
      </trkpt>
      <trkpt lat="43.29105" lon="-1.50322">
        <ele>82.4</ele>
        <time>2022-09-04T06:44:40Z</time>
      </trkpt>
      <trkpt lat="43.29102" lon="-1.5032">
        <ele>82.4</ele>
        <time>2022-09-04T06:44:41Z</time>
      </trkpt>
      <trkpt lat="43.29101" lon="-1.5032">
        <ele>82.5</ele>
        <time>2022-09-04T06:44:42Z</time>
      </trkpt>
      <trkpt lat="43.29098" lon="-1.50318">
        <ele>82.6</ele>
        <time>2022-09-04T06:44:43Z</time>
      </trkpt>
      <trkpt lat="43.29097" lon="-1.50317">
        <ele>82.6</ele>
        <time>2022-09-04T06:44:44Z</time>
      </trkpt>
      <trkpt lat="43.29094" lon="-1.50314">
        <ele>82.7</ele>
        <time>2022-09-04T06:44:45Z</time>
      </trkpt>
      <trkpt lat="43.29093" lon="-1.50314">
        <ele>82.7</ele>
        <time>2022-09-04T06:44:46Z</time>
      </trkpt>
      <trkpt lat="43.2909" lon="-1.50312">
        <ele>82.7</ele>
        <time>2022-09-04T06:44:47Z</time>
      </trkpt>
      <trkpt lat="43.29087" lon="-1.5031">
        <ele>82.8</ele>
        <time>2022-09-04T06:44:48Z</time>
      </trkpt>
      <trkpt lat="43.29086" lon="-1.50309">
        <ele>82.8</ele>
        <time>2022-09-04T06:44:49Z</time>
      </trkpt>
      <trkpt lat="43.29083" lon="-1.50308">
        <ele>83</ele>
        <time>2022-09-04T06:44:50Z</time>
      </trkpt>
      <trkpt lat="43.29082" lon="-1.50307">
        <ele>83</ele>
        <time>2022-09-04T06:44:51Z</time>
      </trkpt>
      <trkpt lat="43.29078" lon="-1.50305">
        <ele>83.2</ele>
        <time>2022-09-04T06:44:52Z</time>
      </trkpt>
      <trkpt lat="43.29077" lon="-1.50304">
        <ele>83.4</ele>
        <time>2022-09-04T06:44:53Z</time>
      </trkpt>
      <trkpt lat="43.29074" lon="-1.50301">
        <ele>83.7</ele>
        <time>2022-09-04T06:44:54Z</time>
      </trkpt>
      <trkpt lat="43.29073" lon="-1.503">
        <ele>83.8</ele>
        <time>2022-09-04T06:44:55Z</time>
      </trkpt>
      <trkpt lat="43.2907" lon="-1.50297">
        <ele>84.1</ele>
        <time>2022-09-04T06:44:56Z</time>
      </trkpt>
      <trkpt lat="43.29069" lon="-1.50297">
        <ele>84.2</ele>
        <time>2022-09-04T06:44:57Z</time>
      </trkpt>
      <trkpt lat="43.29068" lon="-1.50296">
        <ele>84.4</ele>
        <time>2022-09-04T06:44:58Z</time>
      </trkpt>
      <trkpt lat="43.29067" lon="-1.50294">
        <ele>84.6</ele>
        <time>2022-09-04T06:44:59Z</time>
      </trkpt>
      <trkpt lat="43.29065" lon="-1.50294">
        <ele>84.7</ele>
        <time>2022-09-04T06:45:00Z</time>
      </trkpt>
      <trkpt lat="43.29064" lon="-1.50293">
        <ele>84.9</ele>
        <time>2022-09-04T06:45:01Z</time>
      </trkpt>
      <trkpt lat="43.29063" lon="-1.50292">
        <ele>85.1</ele>
        <time>2022-09-04T06:45:02Z</time>
      </trkpt>
      <trkpt lat="43.29061" lon="-1.50291">
        <ele>85.3</ele>
        <time>2022-09-04T06:45:03Z</time>
      </trkpt>
      <trkpt lat="43.2906" lon="-1.5029">
        <ele>85.5</ele>
        <time>2022-09-04T06:45:04Z</time>
      </trkpt>
      <trkpt lat="43.29058" lon="-1.5029">
        <ele>85.8</ele>
        <time>2022-09-04T06:45:05Z</time>
      </trkpt>
      <trkpt lat="43.29056" lon="-1.5029">
        <ele>86</ele>
        <time>2022-09-04T06:45:06Z</time>
      </trkpt>
      <trkpt lat="43.29055" lon="-1.50289">
        <ele>86.2</ele>
        <time>2022-09-04T06:45:07Z</time>
      </trkpt>
      <trkpt lat="43.29053" lon="-1.50289">
        <ele>86.4</ele>
        <time>2022-09-04T06:45:08Z</time>
      </trkpt>
      <trkpt lat="43.29052" lon="-1.50289">
        <ele>86.6</ele>
        <time>2022-09-04T06:45:09Z</time>
      </trkpt>
      <trkpt lat="43.29049" lon="-1.50288">
        <ele>87</ele>
        <time>2022-09-04T06:45:10Z</time>
      </trkpt>
      <trkpt lat="43.29048" lon="-1.50288">
        <ele>87.1</ele>
        <time>2022-09-04T06:45:11Z</time>
      </trkpt>
      <trkpt lat="43.29045" lon="-1.50288">
        <ele>87.4</ele>
        <time>2022-09-04T06:45:12Z</time>
      </trkpt>
      <trkpt lat="43.29044" lon="-1.50287">
        <ele>87.5</ele>
        <time>2022-09-04T06:45:13Z</time>
      </trkpt>
      <trkpt lat="43.29041" lon="-1.50286">
        <ele>87.8</ele>
        <time>2022-09-04T06:45:14Z</time>
      </trkpt>
      <trkpt lat="43.2904" lon="-1.50286">
        <ele>87.9</ele>
        <time>2022-09-04T06:45:15Z</time>
      </trkpt>
      <trkpt lat="43.29037" lon="-1.50284">
        <ele>88.2</ele>
        <time>2022-09-04T06:45:16Z</time>
      </trkpt>
      <trkpt lat="43.29035" lon="-1.50284">
        <ele>88.3</ele>
        <time>2022-09-04T06:45:17Z</time>
      </trkpt>
      <trkpt lat="43.29032" lon="-1.50282">
        <ele>88.6</ele>
        <time>2022-09-04T06:45:18Z</time>
      </trkpt>
      <trkpt lat="43.29031" lon="-1.50281">
        <ele>88.7</ele>
        <time>2022-09-04T06:45:19Z</time>
      </trkpt>
      <trkpt lat="43.29028" lon="-1.50279">
        <ele>89</ele>
        <time>2022-09-04T06:45:20Z</time>
      </trkpt>
      <trkpt lat="43.29026" lon="-1.50277">
        <ele>89.2</ele>
        <time>2022-09-04T06:45:21Z</time>
      </trkpt>
      <trkpt lat="43.29023" lon="-1.50275">
        <ele>89.5</ele>
        <time>2022-09-04T06:45:22Z</time>
      </trkpt>
      <trkpt lat="43.29021" lon="-1.50274">
        <ele>89.7</ele>
        <time>2022-09-04T06:45:23Z</time>
      </trkpt>
      <trkpt lat="43.29017" lon="-1.50272">
        <ele>90</ele>
        <time>2022-09-04T06:45:24Z</time>
      </trkpt>
      <trkpt lat="43.29016" lon="-1.50271">
        <ele>90.1</ele>
        <time>2022-09-04T06:45:25Z</time>
      </trkpt>
      <trkpt lat="43.29013" lon="-1.5027">
        <ele>90.3</ele>
        <time>2022-09-04T06:45:26Z</time>
      </trkpt>
      <trkpt lat="43.29012" lon="-1.5027">
        <ele>90.4</ele>
        <time>2022-09-04T06:45:27Z</time>
      </trkpt>
      <trkpt lat="43.2901" lon="-1.5027">
        <ele>90.5</ele>
        <time>2022-09-04T06:45:28Z</time>
      </trkpt>
      <trkpt lat="43.29009" lon="-1.50269">
        <ele>90.6</ele>
        <time>2022-09-04T06:45:29Z</time>
      </trkpt>
      <trkpt lat="43.29006" lon="-1.50267">
        <ele>90.8</ele>
        <time>2022-09-04T06:45:30Z</time>
      </trkpt>
      <trkpt lat="43.29006" lon="-1.50266">
        <ele>90.9</ele>
        <time>2022-09-04T06:45:31Z</time>
      </trkpt>
      <trkpt lat="43.29003" lon="-1.50263">
        <ele>91.1</ele>
        <time>2022-09-04T06:45:32Z</time>
      </trkpt>
      <trkpt lat="43.29002" lon="-1.50262">
        <ele>91.2</ele>
        <time>2022-09-04T06:45:33Z</time>
      </trkpt>
      <trkpt lat="43.28999" lon="-1.50259">
        <ele>91.4</ele>
        <time>2022-09-04T06:45:34Z</time>
      </trkpt>
      <trkpt lat="43.28998" lon="-1.50258">
        <ele>91.5</ele>
        <time>2022-09-04T06:45:35Z</time>
      </trkpt>
      <trkpt lat="43.28996" lon="-1.50256">
        <ele>91.7</ele>
        <time>2022-09-04T06:45:36Z</time>
      </trkpt>
      <trkpt lat="43.28995" lon="-1.50255">
        <ele>91.8</ele>
        <time>2022-09-04T06:45:37Z</time>
      </trkpt>
      <trkpt lat="43.28992" lon="-1.50253">
        <ele>92</ele>
        <time>2022-09-04T06:45:38Z</time>
      </trkpt>
      <trkpt lat="43.28991" lon="-1.50252">
        <ele>92.1</ele>
        <time>2022-09-04T06:45:39Z</time>
      </trkpt>
      <trkpt lat="43.28988" lon="-1.50248">
        <ele>92.3</ele>
        <time>2022-09-04T06:45:40Z</time>
      </trkpt>
      <trkpt lat="43.28987" lon="-1.50247">
        <ele>92.3</ele>
        <time>2022-09-04T06:45:41Z</time>
      </trkpt>
      <trkpt lat="43.28984" lon="-1.50245">
        <ele>92.5</ele>
        <time>2022-09-04T06:45:42Z</time>
      </trkpt>
      <trkpt lat="43.28983" lon="-1.50245">
        <ele>92.5</ele>
        <time>2022-09-04T06:45:43Z</time>
      </trkpt>
      <trkpt lat="43.2898" lon="-1.50243">
        <ele>92.7</ele>
        <time>2022-09-04T06:45:44Z</time>
      </trkpt>
      <trkpt lat="43.28979" lon="-1.50243">
        <ele>92.7</ele>
        <time>2022-09-04T06:45:45Z</time>
      </trkpt>
      <trkpt lat="43.28976" lon="-1.50242">
        <ele>92.9</ele>
        <time>2022-09-04T06:45:46Z</time>
      </trkpt>
      <trkpt lat="43.28975" lon="-1.50242">
        <ele>92.9</ele>
        <time>2022-09-04T06:45:47Z</time>
      </trkpt>
      <trkpt lat="43.28972" lon="-1.50241">
        <ele>93.1</ele>
        <time>2022-09-04T06:45:48Z</time>
      </trkpt>
      <trkpt lat="43.28972" lon="-1.5024">
        <ele>93.1</ele>
        <time>2022-09-04T06:45:49Z</time>
      </trkpt>
      <trkpt lat="43.28969" lon="-1.50239">
        <ele>93.3</ele>
        <time>2022-09-04T06:45:50Z</time>
      </trkpt>
      <trkpt lat="43.28968" lon="-1.50238">
        <ele>93.3</ele>
        <time>2022-09-04T06:45:51Z</time>
      </trkpt>
      <trkpt lat="43.28967" lon="-1.50237">
        <ele>93.4</ele>
        <time>2022-09-04T06:45:52Z</time>
      </trkpt>
      <trkpt lat="43.28965" lon="-1.50237">
        <ele>93.5</ele>
        <time>2022-09-04T06:45:53Z</time>
      </trkpt>
      <trkpt lat="43.28962" lon="-1.50236">
        <ele>93.6</ele>
        <time>2022-09-04T06:45:54Z</time>
      </trkpt>
      <trkpt lat="43.28961" lon="-1.50236">
        <ele>93.7</ele>
        <time>2022-09-04T06:45:55Z</time>
      </trkpt>
      <trkpt lat="43.28958" lon="-1.50233">
        <ele>93.9</ele>
        <time>2022-09-04T06:45:56Z</time>
      </trkpt>
      <trkpt lat="43.28957" lon="-1.50232">
        <ele>94</ele>
        <time>2022-09-04T06:45:57Z</time>
      </trkpt>
      <trkpt lat="43.28954" lon="-1.5023">
        <ele>94.1</ele>
        <time>2022-09-04T06:45:58Z</time>
      </trkpt>
      <trkpt lat="43.28951" lon="-1.50228">
        <ele>94.3</ele>
        <time>2022-09-04T06:45:59Z</time>
      </trkpt>
      <trkpt lat="43.2895" lon="-1.50227">
        <ele>94.3</ele>
        <time>2022-09-04T06:46:00Z</time>
      </trkpt>
      <trkpt lat="43.28946" lon="-1.50226">
        <ele>94.4</ele>
        <time>2022-09-04T06:46:01Z</time>
      </trkpt>
      <trkpt lat="43.28945" lon="-1.50226">
        <ele>94.5</ele>
        <time>2022-09-04T06:46:02Z</time>
      </trkpt>
      <trkpt lat="43.28942" lon="-1.50224">
        <ele>94.5</ele>
        <time>2022-09-04T06:46:03Z</time>
      </trkpt>
      <trkpt lat="43.28941" lon="-1.50222">
        <ele>94.6</ele>
        <time>2022-09-04T06:46:04Z</time>
      </trkpt>
      <trkpt lat="43.28938" lon="-1.5022">
        <ele>94.6</ele>
        <time>2022-09-04T06:46:05Z</time>
      </trkpt>
      <trkpt lat="43.28935" lon="-1.50218">
        <ele>94.6</ele>
        <time>2022-09-04T06:46:06Z</time>
      </trkpt>
      <trkpt lat="43.28933" lon="-1.50216">
        <ele>94.6</ele>
        <time>2022-09-04T06:46:07Z</time>
      </trkpt>
      <trkpt lat="43.2893" lon="-1.50215">
        <ele>94.6</ele>
        <time>2022-09-04T06:46:08Z</time>
      </trkpt>
      <trkpt lat="43.28928" lon="-1.50213">
        <ele>94.5</ele>
        <time>2022-09-04T06:46:09Z</time>
      </trkpt>
      <trkpt lat="43.28925" lon="-1.50211">
        <ele>94.5</ele>
        <time>2022-09-04T06:46:10Z</time>
      </trkpt>
      <trkpt lat="43.28922" lon="-1.5021">
        <ele>94.5</ele>
        <time>2022-09-04T06:46:11Z</time>
      </trkpt>
      <trkpt lat="43.28919" lon="-1.50208">
        <ele>94.4</ele>
        <time>2022-09-04T06:46:12Z</time>
      </trkpt>
      <trkpt lat="43.28915" lon="-1.50207">
        <ele>94.3</ele>
        <time>2022-09-04T06:46:13Z</time>
      </trkpt>
      <trkpt lat="43.28908" lon="-1.50204">
        <ele>94.1</ele>
        <time>2022-09-04T06:46:14Z</time>
      </trkpt>
      <trkpt lat="43.28902" lon="-1.50201">
        <ele>93.8</ele>
        <time>2022-09-04T06:46:15Z</time>
      </trkpt>
      <trkpt lat="43.28897" lon="-1.50199">
        <ele>93.6</ele>
        <time>2022-09-04T06:46:16Z</time>
      </trkpt>
      <trkpt lat="43.28892" lon="-1.50198">
        <ele>93.5</ele>
        <time>2022-09-04T06:46:17Z</time>
      </trkpt>
      <trkpt lat="43.28887" lon="-1.50196">
        <ele>93.5</ele>
        <time>2022-09-04T06:46:18Z</time>
      </trkpt>
      <trkpt lat="43.28882" lon="-1.50195">
        <ele>93.5</ele>
        <time>2022-09-04T06:46:19Z</time>
      </trkpt>
      <trkpt lat="43.28877" lon="-1.50192">
        <ele>93.5</ele>
        <time>2022-09-04T06:46:20Z</time>
      </trkpt>
      <trkpt lat="43.28872" lon="-1.5019">
        <ele>93.6</ele>
        <time>2022-09-04T06:46:21Z</time>
      </trkpt>
      <trkpt lat="43.28868" lon="-1.50188">
        <ele>93.8</ele>
        <time>2022-09-04T06:46:22Z</time>
      </trkpt>
      <trkpt lat="43.28865" lon="-1.50187">
        <ele>93.9</ele>
        <time>2022-09-04T06:46:23Z</time>
      </trkpt>
      <trkpt lat="43.28862" lon="-1.50186">
        <ele>94</ele>
        <time>2022-09-04T06:46:24Z</time>
      </trkpt>
      <trkpt lat="43.28859" lon="-1.50185">
        <ele>94.1</ele>
        <time>2022-09-04T06:46:25Z</time>
      </trkpt>
      <trkpt lat="43.28856" lon="-1.50184">
        <ele>94.2</ele>
        <time>2022-09-04T06:46:26Z</time>
      </trkpt>
      <trkpt lat="43.28853" lon="-1.50183">
        <ele>94.4</ele>
        <time>2022-09-04T06:46:27Z</time>
      </trkpt>
      <trkpt lat="43.2885" lon="-1.50181">
        <ele>94.5</ele>
        <time>2022-09-04T06:46:28Z</time>
      </trkpt>
      <trkpt lat="43.28847" lon="-1.50178">
        <ele>94.8</ele>
        <time>2022-09-04T06:46:29Z</time>
      </trkpt>
      <trkpt lat="43.28846" lon="-1.50174">
        <ele>95.2</ele>
        <time>2022-09-04T06:46:30Z</time>
      </trkpt>
      <trkpt lat="43.28844" lon="-1.5017">
        <ele>95.5</ele>
        <time>2022-09-04T06:46:31Z</time>
      </trkpt>
      <trkpt lat="43.28843" lon="-1.50166">
        <ele>97</ele>
        <time>2022-09-04T06:46:32Z</time>
      </trkpt>
      <trkpt lat="43.28842" lon="-1.50165">
        <ele>97</ele>
        <time>2022-09-04T06:46:33Z</time>
      </trkpt>
      <trkpt lat="43.28841" lon="-1.50161">
        <ele>96.9</ele>
        <time>2022-09-04T06:46:34Z</time>
      </trkpt>
      <trkpt lat="43.28841" lon="-1.50159">
        <ele>96.9</ele>
        <time>2022-09-04T06:46:35Z</time>
      </trkpt>
      <trkpt lat="43.28841" lon="-1.50157">
        <ele>96.9</ele>
        <time>2022-09-04T06:46:36Z</time>
      </trkpt>
      <trkpt lat="43.2884" lon="-1.50155">
        <ele>96.9</ele>
        <time>2022-09-04T06:46:37Z</time>
      </trkpt>
      <trkpt lat="43.2884" lon="-1.50151">
        <ele>98.1</ele>
        <time>2022-09-04T06:46:38Z</time>
      </trkpt>
      <trkpt lat="43.2884" lon="-1.50149">
        <ele>98.1</ele>
        <time>2022-09-04T06:46:39Z</time>
      </trkpt>
      <trkpt lat="43.28839" lon="-1.50147">
        <ele>98.1</ele>
        <time>2022-09-04T06:46:40Z</time>
      </trkpt>
      <trkpt lat="43.28839" lon="-1.50145">
        <ele>98.1</ele>
        <time>2022-09-04T06:46:41Z</time>
      </trkpt>
      <trkpt lat="43.28838" lon="-1.50143">
        <ele>98</ele>
        <time>2022-09-04T06:46:42Z</time>
      </trkpt>
      <trkpt lat="43.28838" lon="-1.50141">
        <ele>98</ele>
        <time>2022-09-04T06:46:43Z</time>
      </trkpt>
      <trkpt lat="43.28838" lon="-1.50139">
        <ele>98</ele>
        <time>2022-09-04T06:46:44Z</time>
      </trkpt>
      <trkpt lat="43.28837" lon="-1.50138">
        <ele>98</ele>
        <time>2022-09-04T06:46:45Z</time>
      </trkpt>
      <trkpt lat="43.28837" lon="-1.50137">
        <ele>98</ele>
        <time>2022-09-04T06:46:46Z</time>
      </trkpt>
      <trkpt lat="43.28836" lon="-1.50136">
        <ele>97.9</ele>
        <time>2022-09-04T06:46:47Z</time>
      </trkpt>
      <trkpt lat="43.28835" lon="-1.50134">
        <ele>99</ele>
        <time>2022-09-04T06:46:48Z</time>
      </trkpt>
      <trkpt lat="43.28835" lon="-1.50131">
        <ele>99</ele>
        <time>2022-09-04T06:46:49Z</time>
      </trkpt>
      <trkpt lat="43.28834" lon="-1.50129">
        <ele>99</ele>
        <time>2022-09-04T06:46:50Z</time>
      </trkpt>
      <trkpt lat="43.28834" lon="-1.50126">
        <ele>98.9</ele>
        <time>2022-09-04T06:46:51Z</time>
      </trkpt>
      <trkpt lat="43.28833" lon="-1.50125">
        <ele>98.9</ele>
        <time>2022-09-04T06:46:52Z</time>
      </trkpt>
      <trkpt lat="43.28833" lon="-1.50124">
        <ele>98.9</ele>
        <time>2022-09-04T06:46:53Z</time>
      </trkpt>
      <trkpt lat="43.28832" lon="-1.50123">
        <ele>98.7</ele>
        <time>2022-09-04T06:46:54Z</time>
      </trkpt>
      <trkpt lat="43.28832" lon="-1.5012">
        <ele>98.7</ele>
        <time>2022-09-04T06:46:55Z</time>
      </trkpt>
      <trkpt lat="43.28831" lon="-1.50119">
        <ele>98.7</ele>
        <time>2022-09-04T06:46:56Z</time>
      </trkpt>
      <trkpt lat="43.28831" lon="-1.50117">
        <ele>99.2</ele>
        <time>2022-09-04T06:46:57Z</time>
      </trkpt>
      <trkpt lat="43.2883" lon="-1.50115">
        <ele>99.2</ele>
        <time>2022-09-04T06:46:58Z</time>
      </trkpt>
      <trkpt lat="43.2883" lon="-1.50114">
        <ele>99.2</ele>
        <time>2022-09-04T06:46:59Z</time>
      </trkpt>
      <trkpt lat="43.2883" lon="-1.50112">
        <ele>99.1</ele>
        <time>2022-09-04T06:47:00Z</time>
      </trkpt>
      <trkpt lat="43.2883" lon="-1.50112">
        <ele>99.1</ele>
        <time>2022-09-04T06:47:01Z</time>
      </trkpt>
      <trkpt lat="43.2883" lon="-1.50112">
        <ele>99.1</ele>
        <time>2022-09-04T06:47:02Z</time>
      </trkpt>
      <trkpt lat="43.2883" lon="-1.50112">
        <ele>99.1</ele>
        <time>2022-09-04T06:47:03Z</time>
      </trkpt>
      <trkpt lat="43.2883" lon="-1.50112">
        <ele>99.1</ele>
        <time>2022-09-04T06:47:04Z</time>
      </trkpt>
      <trkpt lat="43.28829" lon="-1.5011">
        <ele>99</ele>
        <time>2022-09-04T06:47:05Z</time>
      </trkpt>
      <trkpt lat="43.28829" lon="-1.50108">
        <ele>99</ele>
        <time>2022-09-04T06:47:06Z</time>
      </trkpt>
      <trkpt lat="43.28828" lon="-1.50106">
        <ele>99</ele>
        <time>2022-09-04T06:47:07Z</time>
      </trkpt>
      <trkpt lat="43.28828" lon="-1.50104">
        <ele>99</ele>
        <time>2022-09-04T06:47:08Z</time>
      </trkpt>
      <trkpt lat="43.28828" lon="-1.50102">
        <ele>99</ele>
        <time>2022-09-04T06:47:09Z</time>
      </trkpt>
      <trkpt lat="43.28827" lon="-1.50099">
        <ele>99.7</ele>
        <time>2022-09-04T06:47:10Z</time>
      </trkpt>
      <trkpt lat="43.28826" lon="-1.50096">
        <ele>99.7</ele>
        <time>2022-09-04T06:47:11Z</time>
      </trkpt>
      <trkpt lat="43.28826" lon="-1.50094">
        <ele>99.7</ele>
        <time>2022-09-04T06:47:12Z</time>
      </trkpt>
      <trkpt lat="43.28824" lon="-1.50091">
        <ele>99.7</ele>
        <time>2022-09-04T06:47:13Z</time>
      </trkpt>
      <trkpt lat="43.28824" lon="-1.5009">
        <ele>99.7</ele>
        <time>2022-09-04T06:47:14Z</time>
      </trkpt>
      <trkpt lat="43.28822" lon="-1.50086">
        <ele>99.6</ele>
        <time>2022-09-04T06:47:15Z</time>
      </trkpt>
      <trkpt lat="43.28822" lon="-1.50085">
        <ele>99.6</ele>
        <time>2022-09-04T06:47:16Z</time>
      </trkpt>
      <trkpt lat="43.2882" lon="-1.50081">
        <ele>99.6</ele>
        <time>2022-09-04T06:47:17Z</time>
      </trkpt>
      <trkpt lat="43.2882" lon="-1.5008">
        <ele>99.5</ele>
        <time>2022-09-04T06:47:18Z</time>
      </trkpt>
      <trkpt lat="43.28818" lon="-1.50077">
        <ele>99.5</ele>
        <time>2022-09-04T06:47:19Z</time>
      </trkpt>
      <trkpt lat="43.28818" lon="-1.50075">
        <ele>99.5</ele>
        <time>2022-09-04T06:47:20Z</time>
      </trkpt>
      <trkpt lat="43.28816" lon="-1.50071">
        <ele>99.5</ele>
        <time>2022-09-04T06:47:21Z</time>
      </trkpt>
      <trkpt lat="43.28815" lon="-1.50069">
        <ele>99.5</ele>
        <time>2022-09-04T06:47:22Z</time>
      </trkpt>
      <trkpt lat="43.28814" lon="-1.50065">
        <ele>101.2</ele>
        <time>2022-09-04T06:47:23Z</time>
      </trkpt>
      <trkpt lat="43.28813" lon="-1.50064">
        <ele>101.2</ele>
        <time>2022-09-04T06:47:24Z</time>
      </trkpt>
      <trkpt lat="43.28813" lon="-1.5006">
        <ele>101.1</ele>
        <time>2022-09-04T06:47:25Z</time>
      </trkpt>
      <trkpt lat="43.28812" lon="-1.50059">
        <ele>101.1</ele>
        <time>2022-09-04T06:47:26Z</time>
      </trkpt>
      <trkpt lat="43.28811" lon="-1.50057">
        <ele>101.1</ele>
        <time>2022-09-04T06:47:27Z</time>
      </trkpt>
      <trkpt lat="43.2881" lon="-1.50056">
        <ele>101.1</ele>
        <time>2022-09-04T06:47:28Z</time>
      </trkpt>
      <trkpt lat="43.28809" lon="-1.50054">
        <ele>101.1</ele>
        <time>2022-09-04T06:47:29Z</time>
      </trkpt>
      <trkpt lat="43.28808" lon="-1.50053">
        <ele>101</ele>
        <time>2022-09-04T06:47:30Z</time>
      </trkpt>
      <trkpt lat="43.28807" lon="-1.50051">
        <ele>98.3</ele>
        <time>2022-09-04T06:47:31Z</time>
      </trkpt>
      <trkpt lat="43.28806" lon="-1.5005">
        <ele>98.3</ele>
        <time>2022-09-04T06:47:32Z</time>
      </trkpt>
      <trkpt lat="43.28804" lon="-1.50047">
        <ele>100.4</ele>
        <time>2022-09-04T06:47:33Z</time>
      </trkpt>
      <trkpt lat="43.28803" lon="-1.50046">
        <ele>100.4</ele>
        <time>2022-09-04T06:47:34Z</time>
      </trkpt>
      <trkpt lat="43.28801" lon="-1.50042">
        <ele>100.4</ele>
        <time>2022-09-04T06:47:35Z</time>
      </trkpt>
      <trkpt lat="43.288" lon="-1.50041">
        <ele>100.4</ele>
        <time>2022-09-04T06:47:36Z</time>
      </trkpt>
      <trkpt lat="43.28798" lon="-1.50037">
        <ele>100.3</ele>
        <time>2022-09-04T06:47:37Z</time>
      </trkpt>
      <trkpt lat="43.28797" lon="-1.50035">
        <ele>100.3</ele>
        <time>2022-09-04T06:47:38Z</time>
      </trkpt>
      <trkpt lat="43.28795" lon="-1.50032">
        <ele>99.5</ele>
        <time>2022-09-04T06:47:39Z</time>
      </trkpt>
      <trkpt lat="43.28793" lon="-1.50028">
        <ele>99.5</ele>
        <time>2022-09-04T06:47:40Z</time>
      </trkpt>
      <trkpt lat="43.28791" lon="-1.50025">
        <ele>99.4</ele>
        <time>2022-09-04T06:47:41Z</time>
      </trkpt>
      <trkpt lat="43.28791" lon="-1.50024">
        <ele>99.4</ele>
        <time>2022-09-04T06:47:42Z</time>
      </trkpt>
      <trkpt lat="43.2879" lon="-1.5002">
        <ele>99.4</ele>
        <time>2022-09-04T06:47:43Z</time>
      </trkpt>
      <trkpt lat="43.28789" lon="-1.50019">
        <ele>99.4</ele>
        <time>2022-09-04T06:47:44Z</time>
      </trkpt>
      <trkpt lat="43.28787" lon="-1.50016">
        <ele>99.4</ele>
        <time>2022-09-04T06:47:45Z</time>
      </trkpt>
      <trkpt lat="43.28787" lon="-1.50015">
        <ele>101</ele>
        <time>2022-09-04T06:47:46Z</time>
      </trkpt>
      <trkpt lat="43.28787" lon="-1.50013">
        <ele>101</ele>
        <time>2022-09-04T06:47:47Z</time>
      </trkpt>
      <trkpt lat="43.28786" lon="-1.50011">
        <ele>101</ele>
        <time>2022-09-04T06:47:48Z</time>
      </trkpt>
      <trkpt lat="43.28786" lon="-1.50007">
        <ele>101</ele>
        <time>2022-09-04T06:47:49Z</time>
      </trkpt>
      <trkpt lat="43.28786" lon="-1.50006">
        <ele>101</ele>
        <time>2022-09-04T06:47:50Z</time>
      </trkpt>
      <trkpt lat="43.28787" lon="-1.5">
        <ele>100.9</ele>
        <time>2022-09-04T06:47:51Z</time>
      </trkpt>
      <trkpt lat="43.28788" lon="-1.49999">
        <ele>100.9</ele>
        <time>2022-09-04T06:47:52Z</time>
      </trkpt>
      <trkpt lat="43.2879" lon="-1.49994">
        <ele>102.3</ele>
        <time>2022-09-04T06:47:53Z</time>
      </trkpt>
      <trkpt lat="43.2879" lon="-1.49993">
        <ele>102.3</ele>
        <time>2022-09-04T06:47:54Z</time>
      </trkpt>
      <trkpt lat="43.28792" lon="-1.49989">
        <ele>102.3</ele>
        <time>2022-09-04T06:47:55Z</time>
      </trkpt>
      <trkpt lat="43.28792" lon="-1.49988">
        <ele>102.3</ele>
        <time>2022-09-04T06:47:56Z</time>
      </trkpt>
      <trkpt lat="43.28794" lon="-1.49985">
        <ele>102.3</ele>
        <time>2022-09-04T06:47:57Z</time>
      </trkpt>
      <trkpt lat="43.28794" lon="-1.49984">
        <ele>102.2</ele>
        <time>2022-09-04T06:47:58Z</time>
      </trkpt>
      <trkpt lat="43.28796" lon="-1.49981">
        <ele>105.5</ele>
        <time>2022-09-04T06:47:59Z</time>
      </trkpt>
      <trkpt lat="43.28797" lon="-1.4998">
        <ele>106.3</ele>
        <time>2022-09-04T06:48:00Z</time>
      </trkpt>
      <trkpt lat="43.28799" lon="-1.49977">
        <ele>106.3</ele>
        <time>2022-09-04T06:48:01Z</time>
      </trkpt>
      <trkpt lat="43.288" lon="-1.49976">
        <ele>106.3</ele>
        <time>2022-09-04T06:48:02Z</time>
      </trkpt>
      <trkpt lat="43.28802" lon="-1.49973">
        <ele>106.3</ele>
        <time>2022-09-04T06:48:03Z</time>
      </trkpt>
      <trkpt lat="43.28802" lon="-1.49972">
        <ele>106.3</ele>
        <time>2022-09-04T06:48:04Z</time>
      </trkpt>
      <trkpt lat="43.28804" lon="-1.4997">
        <ele>106.2</ele>
        <time>2022-09-04T06:48:05Z</time>
      </trkpt>
      <trkpt lat="43.28805" lon="-1.49969">
        <ele>106.2</ele>
        <time>2022-09-04T06:48:06Z</time>
      </trkpt>
      <trkpt lat="43.28807" lon="-1.49967">
        <ele>106.2</ele>
        <time>2022-09-04T06:48:07Z</time>
      </trkpt>
      <trkpt lat="43.28808" lon="-1.49966">
        <ele>109.6</ele>
        <time>2022-09-04T06:48:08Z</time>
      </trkpt>
      <trkpt lat="43.28809" lon="-1.49965">
        <ele>109.5</ele>
        <time>2022-09-04T06:48:09Z</time>
      </trkpt>
      <trkpt lat="43.28811" lon="-1.49963">
        <ele>109.7</ele>
        <time>2022-09-04T06:48:10Z</time>
      </trkpt>
      <trkpt lat="43.28813" lon="-1.49961">
        <ele>109.7</ele>
        <time>2022-09-04T06:48:11Z</time>
      </trkpt>
      <trkpt lat="43.28814" lon="-1.4996">
        <ele>109.7</ele>
        <time>2022-09-04T06:48:12Z</time>
      </trkpt>
      <trkpt lat="43.28816" lon="-1.49956">
        <ele>109.7</ele>
        <time>2022-09-04T06:48:13Z</time>
      </trkpt>
      <trkpt lat="43.28817" lon="-1.49954">
        <ele>109.7</ele>
        <time>2022-09-04T06:48:14Z</time>
      </trkpt>
      <trkpt lat="43.28818" lon="-1.4995">
        <ele>109.6</ele>
        <time>2022-09-04T06:48:15Z</time>
      </trkpt>
      <trkpt lat="43.28819" lon="-1.49946">
        <ele>109.6</ele>
        <time>2022-09-04T06:48:16Z</time>
      </trkpt>
      <trkpt lat="43.28821" lon="-1.49943">
        <ele>112</ele>
        <time>2022-09-04T06:48:17Z</time>
      </trkpt>
      <trkpt lat="43.28824" lon="-1.49938">
        <ele>111.9</ele>
        <time>2022-09-04T06:48:18Z</time>
      </trkpt>
      <trkpt lat="43.28826" lon="-1.49934">
        <ele>111.9</ele>
        <time>2022-09-04T06:48:19Z</time>
      </trkpt>
      <trkpt lat="43.28828" lon="-1.49929">
        <ele>111.9</ele>
        <time>2022-09-04T06:48:20Z</time>
      </trkpt>
      <trkpt lat="43.28831" lon="-1.49925">
        <ele>111.8</ele>
        <time>2022-09-04T06:48:21Z</time>
      </trkpt>
      <trkpt lat="43.28833" lon="-1.49921">
        <ele>114.1</ele>
        <time>2022-09-04T06:48:22Z</time>
      </trkpt>
      <trkpt lat="43.28836" lon="-1.49917">
        <ele>114</ele>
        <time>2022-09-04T06:48:23Z</time>
      </trkpt>
      <trkpt lat="43.28839" lon="-1.49913">
        <ele>114</ele>
        <time>2022-09-04T06:48:24Z</time>
      </trkpt>
      <trkpt lat="43.28841" lon="-1.49908">
        <ele>114.1</ele>
        <time>2022-09-04T06:48:25Z</time>
      </trkpt>
      <trkpt lat="43.28843" lon="-1.49904">
        <ele>114</ele>
        <time>2022-09-04T06:48:26Z</time>
      </trkpt>
      <trkpt lat="43.28846" lon="-1.499">
        <ele>115.6</ele>
        <time>2022-09-04T06:48:27Z</time>
      </trkpt>
      <trkpt lat="43.28848" lon="-1.49897">
        <ele>115.6</ele>
        <time>2022-09-04T06:48:28Z</time>
      </trkpt>
      <trkpt lat="43.28851" lon="-1.49894">
        <ele>115.6</ele>
        <time>2022-09-04T06:48:29Z</time>
      </trkpt>
      <trkpt lat="43.28852" lon="-1.49892">
        <ele>115.6</ele>
        <time>2022-09-04T06:48:30Z</time>
      </trkpt>
      <trkpt lat="43.28855" lon="-1.49889">
        <ele>115.5</ele>
        <time>2022-09-04T06:48:31Z</time>
      </trkpt>
      <trkpt lat="43.28856" lon="-1.49888">
        <ele>115.5</ele>
        <time>2022-09-04T06:48:32Z</time>
      </trkpt>
      <trkpt lat="43.28858" lon="-1.49886">
        <ele>117</ele>
        <time>2022-09-04T06:48:33Z</time>
      </trkpt>
      <trkpt lat="43.28859" lon="-1.49885">
        <ele>116.9</ele>
        <time>2022-09-04T06:48:34Z</time>
      </trkpt>
      <trkpt lat="43.28861" lon="-1.49883">
        <ele>116.9</ele>
        <time>2022-09-04T06:48:35Z</time>
      </trkpt>
      <trkpt lat="43.28862" lon="-1.49882">
        <ele>116.9</ele>
        <time>2022-09-04T06:48:36Z</time>
      </trkpt>
      <trkpt lat="43.28863" lon="-1.49881">
        <ele>116.9</ele>
        <time>2022-09-04T06:48:37Z</time>
      </trkpt>
      <trkpt lat="43.28865" lon="-1.4988">
        <ele>116.9</ele>
        <time>2022-09-04T06:48:38Z</time>
      </trkpt>
      <trkpt lat="43.28866" lon="-1.49878">
        <ele>116.8</ele>
        <time>2022-09-04T06:48:39Z</time>
      </trkpt>
      <trkpt lat="43.28868" lon="-1.49877">
        <ele>116.4</ele>
        <time>2022-09-04T06:48:40Z</time>
      </trkpt>
      <trkpt lat="43.28869" lon="-1.49876">
        <ele>116.4</ele>
        <time>2022-09-04T06:48:41Z</time>
      </trkpt>
      <trkpt lat="43.2887" lon="-1.49874">
        <ele>117.1</ele>
        <time>2022-09-04T06:48:42Z</time>
      </trkpt>
      <trkpt lat="43.28872" lon="-1.49874">
        <ele>117.1</ele>
        <time>2022-09-04T06:48:43Z</time>
      </trkpt>
      <trkpt lat="43.28873" lon="-1.49872">
        <ele>117.1</ele>
        <time>2022-09-04T06:48:44Z</time>
      </trkpt>
      <trkpt lat="43.28874" lon="-1.49871">
        <ele>117.1</ele>
        <time>2022-09-04T06:48:45Z</time>
      </trkpt>
      <trkpt lat="43.28876" lon="-1.49869">
        <ele>117</ele>
        <time>2022-09-04T06:48:46Z</time>
      </trkpt>
      <trkpt lat="43.28878" lon="-1.49867">
        <ele>117</ele>
        <time>2022-09-04T06:48:47Z</time>
      </trkpt>
      <trkpt lat="43.28879" lon="-1.49866">
        <ele>117</ele>
        <time>2022-09-04T06:48:48Z</time>
      </trkpt>
      <trkpt lat="43.2888" lon="-1.49864">
        <ele>117</ele>
        <time>2022-09-04T06:48:49Z</time>
      </trkpt>
      <trkpt lat="43.28881" lon="-1.49863">
        <ele>117</ele>
        <time>2022-09-04T06:48:50Z</time>
      </trkpt>
      <trkpt lat="43.28882" lon="-1.49861">
        <ele>116.9</ele>
        <time>2022-09-04T06:48:51Z</time>
      </trkpt>
      <trkpt lat="43.28883" lon="-1.49859">
        <ele>116.4</ele>
        <time>2022-09-04T06:48:52Z</time>
      </trkpt>
      <trkpt lat="43.28885" lon="-1.49855">
        <ele>116.4</ele>
        <time>2022-09-04T06:48:53Z</time>
      </trkpt>
      <trkpt lat="43.28885" lon="-1.49853">
        <ele>116.4</ele>
        <time>2022-09-04T06:48:54Z</time>
      </trkpt>
      <trkpt lat="43.28885" lon="-1.49851">
        <ele>116.3</ele>
        <time>2022-09-04T06:48:55Z</time>
      </trkpt>
      <trkpt lat="43.28885" lon="-1.49849">
        <ele>116.3</ele>
        <time>2022-09-04T06:48:56Z</time>
      </trkpt>
      <trkpt lat="43.28884" lon="-1.49845">
        <ele>116.3</ele>
        <time>2022-09-04T06:48:57Z</time>
      </trkpt>
      <trkpt lat="43.28883" lon="-1.49844">
        <ele>116.3</ele>
        <time>2022-09-04T06:48:58Z</time>
      </trkpt>
      <trkpt lat="43.28882" lon="-1.49841">
        <ele>114.9</ele>
        <time>2022-09-04T06:48:59Z</time>
      </trkpt>
      <trkpt lat="43.28881" lon="-1.49839">
        <ele>114.9</ele>
        <time>2022-09-04T06:49:00Z</time>
      </trkpt>
      <trkpt lat="43.2888" lon="-1.49836">
        <ele>114.9</ele>
        <time>2022-09-04T06:49:01Z</time>
      </trkpt>
      <trkpt lat="43.28879" lon="-1.49834">
        <ele>114.9</ele>
        <time>2022-09-04T06:49:02Z</time>
      </trkpt>
      <trkpt lat="43.28877" lon="-1.49831">
        <ele>114.8</ele>
        <time>2022-09-04T06:49:03Z</time>
      </trkpt>
      <trkpt lat="43.28876" lon="-1.49829">
        <ele>114.8</ele>
        <time>2022-09-04T06:49:04Z</time>
      </trkpt>
      <trkpt lat="43.28874" lon="-1.49825">
        <ele>114.5</ele>
        <time>2022-09-04T06:49:05Z</time>
      </trkpt>
      <trkpt lat="43.28873" lon="-1.49824">
        <ele>114.5</ele>
        <time>2022-09-04T06:49:06Z</time>
      </trkpt>
      <trkpt lat="43.28872" lon="-1.4982">
        <ele>114.5</ele>
        <time>2022-09-04T06:49:07Z</time>
      </trkpt>
      <trkpt lat="43.28871" lon="-1.49818">
        <ele>114.5</ele>
        <time>2022-09-04T06:49:08Z</time>
      </trkpt>
      <trkpt lat="43.28869" lon="-1.49815">
        <ele>114.6</ele>
        <time>2022-09-04T06:49:09Z</time>
      </trkpt>
      <trkpt lat="43.28868" lon="-1.49814">
        <ele>114.6</ele>
        <time>2022-09-04T06:49:10Z</time>
      </trkpt>
      <trkpt lat="43.28866" lon="-1.49811">
        <ele>114.6</ele>
        <time>2022-09-04T06:49:11Z</time>
      </trkpt>
      <trkpt lat="43.28865" lon="-1.49809">
        <ele>114.5</ele>
        <time>2022-09-04T06:49:12Z</time>
      </trkpt>
      <trkpt lat="43.28862" lon="-1.49806">
        <ele>115.3</ele>
        <time>2022-09-04T06:49:13Z</time>
      </trkpt>
      <trkpt lat="43.28862" lon="-1.49804">
        <ele>115.3</ele>
        <time>2022-09-04T06:49:14Z</time>
      </trkpt>
      <trkpt lat="43.28859" lon="-1.498">
        <ele>115.3</ele>
        <time>2022-09-04T06:49:15Z</time>
      </trkpt>
      <trkpt lat="43.28859" lon="-1.49799">
        <ele>115.3</ele>
        <time>2022-09-04T06:49:16Z</time>
      </trkpt>
      <trkpt lat="43.28857" lon="-1.49796">
        <ele>115.7</ele>
        <time>2022-09-04T06:49:17Z</time>
      </trkpt>
      <trkpt lat="43.28855" lon="-1.49792">
        <ele>115.7</ele>
        <time>2022-09-04T06:49:18Z</time>
      </trkpt>
      <trkpt lat="43.28854" lon="-1.49789">
        <ele>117.3</ele>
        <time>2022-09-04T06:49:19Z</time>
      </trkpt>
      <trkpt lat="43.28853" lon="-1.49785">
        <ele>117.2</ele>
        <time>2022-09-04T06:49:20Z</time>
      </trkpt>
      <trkpt lat="43.28852" lon="-1.49782">
        <ele>117.2</ele>
        <time>2022-09-04T06:49:21Z</time>
      </trkpt>
      <trkpt lat="43.2885" lon="-1.49778">
        <ele>117.2</ele>
        <time>2022-09-04T06:49:22Z</time>
      </trkpt>
      <trkpt lat="43.28849" lon="-1.49777">
        <ele>117.2</ele>
        <time>2022-09-04T06:49:23Z</time>
      </trkpt>
      <trkpt lat="43.28847" lon="-1.49774">
        <ele>119</ele>
        <time>2022-09-04T06:49:24Z</time>
      </trkpt>
      <trkpt lat="43.28846" lon="-1.49773">
        <ele>119</ele>
        <time>2022-09-04T06:49:25Z</time>
      </trkpt>
      <trkpt lat="43.28844" lon="-1.4977">
        <ele>119.7</ele>
        <time>2022-09-04T06:49:26Z</time>
      </trkpt>
      <trkpt lat="43.28843" lon="-1.49769">
        <ele>119.7</ele>
        <time>2022-09-04T06:49:27Z</time>
      </trkpt>
      <trkpt lat="43.28841" lon="-1.49766">
        <ele>119.7</ele>
        <time>2022-09-04T06:49:28Z</time>
      </trkpt>
      <trkpt lat="43.2884" lon="-1.49765">
        <ele>119.6</ele>
        <time>2022-09-04T06:49:29Z</time>
      </trkpt>
      <trkpt lat="43.28838" lon="-1.49763">
        <ele>119.6</ele>
        <time>2022-09-04T06:49:30Z</time>
      </trkpt>
      <trkpt lat="43.28837" lon="-1.49762">
        <ele>119.6</ele>
        <time>2022-09-04T06:49:31Z</time>
      </trkpt>
      <trkpt lat="43.28834" lon="-1.4976">
        <ele>119.6</ele>
        <time>2022-09-04T06:49:32Z</time>
      </trkpt>
      <trkpt lat="43.28833" lon="-1.4976">
        <ele>120.1</ele>
        <time>2022-09-04T06:49:33Z</time>
      </trkpt>
      <trkpt lat="43.28829" lon="-1.49758">
        <ele>120.1</ele>
        <time>2022-09-04T06:49:34Z</time>
      </trkpt>
      <trkpt lat="43.28829" lon="-1.49758">
        <ele>120.1</ele>
        <time>2022-09-04T06:49:35Z</time>
      </trkpt>
      <trkpt lat="43.28825" lon="-1.49757">
        <ele>121</ele>
        <time>2022-09-04T06:49:36Z</time>
      </trkpt>
      <trkpt lat="43.28824" lon="-1.49757">
        <ele>121</ele>
        <time>2022-09-04T06:49:37Z</time>
      </trkpt>
      <trkpt lat="43.28821" lon="-1.49756">
        <ele>121</ele>
        <time>2022-09-04T06:49:38Z</time>
      </trkpt>
      <trkpt lat="43.28819" lon="-1.49755">
        <ele>121.2</ele>
        <time>2022-09-04T06:49:39Z</time>
      </trkpt>
      <trkpt lat="43.28816" lon="-1.49754">
        <ele>121.2</ele>
        <time>2022-09-04T06:49:40Z</time>
      </trkpt>
      <trkpt lat="43.28815" lon="-1.49754">
        <ele>121.1</ele>
        <time>2022-09-04T06:49:41Z</time>
      </trkpt>
      <trkpt lat="43.28812" lon="-1.49752">
        <ele>121.1</ele>
        <time>2022-09-04T06:49:42Z</time>
      </trkpt>
      <trkpt lat="43.28811" lon="-1.49752">
        <ele>121.1</ele>
        <time>2022-09-04T06:49:43Z</time>
      </trkpt>
      <trkpt lat="43.28807" lon="-1.4975">
        <ele>121</ele>
        <time>2022-09-04T06:49:44Z</time>
      </trkpt>
      <trkpt lat="43.28806" lon="-1.4975">
        <ele>120.9</ele>
        <time>2022-09-04T06:49:45Z</time>
      </trkpt>
      <trkpt lat="43.28803" lon="-1.49748">
        <ele>120.9</ele>
        <time>2022-09-04T06:49:46Z</time>
      </trkpt>
      <trkpt lat="43.28802" lon="-1.49748">
        <ele>120.9</ele>
        <time>2022-09-04T06:49:47Z</time>
      </trkpt>
      <trkpt lat="43.28799" lon="-1.49746">
        <ele>120.9</ele>
        <time>2022-09-04T06:49:48Z</time>
      </trkpt>
      <trkpt lat="43.28798" lon="-1.49746">
        <ele>120.9</ele>
        <time>2022-09-04T06:49:49Z</time>
      </trkpt>
      <trkpt lat="43.28795" lon="-1.49744">
        <ele>120.3</ele>
        <time>2022-09-04T06:49:50Z</time>
      </trkpt>
      <trkpt lat="43.28793" lon="-1.49743">
        <ele>120.2</ele>
        <time>2022-09-04T06:49:51Z</time>
      </trkpt>
      <trkpt lat="43.2879" lon="-1.4974">
        <ele>121.2</ele>
        <time>2022-09-04T06:49:52Z</time>
      </trkpt>
      <trkpt lat="43.28789" lon="-1.49739">
        <ele>121.2</ele>
        <time>2022-09-04T06:49:53Z</time>
      </trkpt>
      <trkpt lat="43.28785" lon="-1.49736">
        <ele>121.2</ele>
        <time>2022-09-04T06:49:55Z</time>
      </trkpt>
      <trkpt lat="43.28783" lon="-1.49733">
        <ele>120</ele>
        <time>2022-09-04T06:49:56Z</time>
      </trkpt>
      <trkpt lat="43.28782" lon="-1.49732">
        <ele>120</ele>
        <time>2022-09-04T06:49:57Z</time>
      </trkpt>
      <trkpt lat="43.28779" lon="-1.49729">
        <ele>120</ele>
        <time>2022-09-04T06:49:58Z</time>
      </trkpt>
      <trkpt lat="43.28778" lon="-1.49728">
        <ele>119.9</ele>
        <time>2022-09-04T06:49:59Z</time>
      </trkpt>
      <trkpt lat="43.28776" lon="-1.49725">
        <ele>119.9</ele>
        <time>2022-09-04T06:50:00Z</time>
      </trkpt>
      <trkpt lat="43.28775" lon="-1.49724">
        <ele>119.9</ele>
        <time>2022-09-04T06:50:01Z</time>
      </trkpt>
      <trkpt lat="43.28774" lon="-1.49723">
        <ele>121.3</ele>
        <time>2022-09-04T06:50:02Z</time>
      </trkpt>
      <trkpt lat="43.28773" lon="-1.49721">
        <ele>121.3</ele>
        <time>2022-09-04T06:50:03Z</time>
      </trkpt>
      <trkpt lat="43.28772" lon="-1.4972">
        <ele>121.3</ele>
        <time>2022-09-04T06:50:04Z</time>
      </trkpt>
      <trkpt lat="43.28772" lon="-1.49717">
        <ele>121.3</ele>
        <time>2022-09-04T06:50:05Z</time>
      </trkpt>
      <trkpt lat="43.28771" lon="-1.49715">
        <ele>121.3</ele>
        <time>2022-09-04T06:50:06Z</time>
      </trkpt>
      <trkpt lat="43.28771" lon="-1.49713">
        <ele>121.2</ele>
        <time>2022-09-04T06:50:07Z</time>
      </trkpt>
      <trkpt lat="43.28771" lon="-1.49711">
        <ele>121.2</ele>
        <time>2022-09-04T06:50:08Z</time>
      </trkpt>
      <trkpt lat="43.28771" lon="-1.49708">
        <ele>121.2</ele>
        <time>2022-09-04T06:50:09Z</time>
      </trkpt>
      <trkpt lat="43.28772" lon="-1.49705">
        <ele>122.9</ele>
        <time>2022-09-04T06:50:10Z</time>
      </trkpt>
      <trkpt lat="43.28773" lon="-1.49703">
        <ele>122.9</ele>
        <time>2022-09-04T06:50:11Z</time>
      </trkpt>
      <trkpt lat="43.28774" lon="-1.497">
        <ele>122.8</ele>
        <time>2022-09-04T06:50:12Z</time>
      </trkpt>
      <trkpt lat="43.28774" lon="-1.49699">
        <ele>122.8</ele>
        <time>2022-09-04T06:50:13Z</time>
      </trkpt>
      <trkpt lat="43.28775" lon="-1.49697">
        <ele>122.8</ele>
        <time>2022-09-04T06:50:14Z</time>
      </trkpt>
      <trkpt lat="43.28776" lon="-1.49695">
        <ele>122.8</ele>
        <time>2022-09-04T06:50:15Z</time>
      </trkpt>
      <trkpt lat="43.28777" lon="-1.49693">
        <ele>122.8</ele>
        <time>2022-09-04T06:50:16Z</time>
      </trkpt>
      <trkpt lat="43.28778" lon="-1.49691">
        <ele>122.7</ele>
        <time>2022-09-04T06:50:17Z</time>
      </trkpt>
      <trkpt lat="43.28779" lon="-1.49688">
        <ele>125.6</ele>
        <time>2022-09-04T06:50:18Z</time>
      </trkpt>
      <trkpt lat="43.2878" lon="-1.49687">
        <ele>125.6</ele>
        <time>2022-09-04T06:50:19Z</time>
      </trkpt>
      <trkpt lat="43.28781" lon="-1.49685">
        <ele>125.6</ele>
        <time>2022-09-04T06:50:20Z</time>
      </trkpt>
      <trkpt lat="43.28782" lon="-1.49683">
        <ele>125.5</ele>
        <time>2022-09-04T06:50:21Z</time>
      </trkpt>
      <trkpt lat="43.28784" lon="-1.4968">
        <ele>126.6</ele>
        <time>2022-09-04T06:50:22Z</time>
      </trkpt>
      <trkpt lat="43.28785" lon="-1.49679">
        <ele>126.6</ele>
        <time>2022-09-04T06:50:23Z</time>
      </trkpt>
      <trkpt lat="43.28787" lon="-1.49676">
        <ele>126.5</ele>
        <time>2022-09-04T06:50:24Z</time>
      </trkpt>
      <trkpt lat="43.28787" lon="-1.49676">
        <ele>126.5</ele>
        <time>2022-09-04T06:50:25Z</time>
      </trkpt>
      <trkpt lat="43.28789" lon="-1.49673">
        <ele>126.5</ele>
        <time>2022-09-04T06:50:26Z</time>
      </trkpt>
      <trkpt lat="43.2879" lon="-1.49673">
        <ele>126.5</ele>
        <time>2022-09-04T06:50:27Z</time>
      </trkpt>
      <trkpt lat="43.28791" lon="-1.49671">
        <ele>130.9</ele>
        <time>2022-09-04T06:50:28Z</time>
      </trkpt>
      <trkpt lat="43.28793" lon="-1.4967">
        <ele>130.9</ele>
        <time>2022-09-04T06:50:29Z</time>
      </trkpt>
      <trkpt lat="43.28794" lon="-1.49669">
        <ele>130.9</ele>
        <time>2022-09-04T06:50:30Z</time>
      </trkpt>
      <trkpt lat="43.28795" lon="-1.49667">
        <ele>130.8</ele>
        <time>2022-09-04T06:50:31Z</time>
      </trkpt>
      <trkpt lat="43.28796" lon="-1.49665">
        <ele>130.8</ele>
        <time>2022-09-04T06:50:32Z</time>
      </trkpt>
      <trkpt lat="43.28797" lon="-1.49664">
        <ele>130.8</ele>
        <time>2022-09-04T06:50:33Z</time>
      </trkpt>
      <trkpt lat="43.28798" lon="-1.49662">
        <ele>130.8</ele>
        <time>2022-09-04T06:50:34Z</time>
      </trkpt>
      <trkpt lat="43.28799" lon="-1.49661">
        <ele>130.8</ele>
        <time>2022-09-04T06:50:35Z</time>
      </trkpt>
      <trkpt lat="43.288" lon="-1.49659">
        <ele>130.7</ele>
        <time>2022-09-04T06:50:36Z</time>
      </trkpt>
      <trkpt lat="43.28801" lon="-1.49657">
        <ele>130.7</ele>
        <time>2022-09-04T06:50:37Z</time>
      </trkpt>
      <trkpt lat="43.28802" lon="-1.49655">
        <ele>130.7</ele>
        <time>2022-09-04T06:50:38Z</time>
      </trkpt>
      <trkpt lat="43.28803" lon="-1.49653">
        <ele>134.4</ele>
        <time>2022-09-04T06:50:39Z</time>
      </trkpt>
      <trkpt lat="43.28804" lon="-1.49651">
        <ele>134.3</ele>
        <time>2022-09-04T06:50:40Z</time>
      </trkpt>
      <trkpt lat="43.28805" lon="-1.4965">
        <ele>134.3</ele>
        <time>2022-09-04T06:50:41Z</time>
      </trkpt>
      <trkpt lat="43.28806" lon="-1.49648">
        <ele>134.3</ele>
        <time>2022-09-04T06:50:42Z</time>
      </trkpt>
      <trkpt lat="43.28807" lon="-1.49646">
        <ele>134.3</ele>
        <time>2022-09-04T06:50:43Z</time>
      </trkpt>
      <trkpt lat="43.28807" lon="-1.49644">
        <ele>134.3</ele>
        <time>2022-09-04T06:50:44Z</time>
      </trkpt>
      <trkpt lat="43.28808" lon="-1.49643">
        <ele>133.5</ele>
        <time>2022-09-04T06:50:45Z</time>
      </trkpt>
      <trkpt lat="43.28809" lon="-1.49641">
        <ele>133.5</ele>
        <time>2022-09-04T06:50:46Z</time>
      </trkpt>
      <trkpt lat="43.2881" lon="-1.49638">
        <ele>133.4</ele>
        <time>2022-09-04T06:50:47Z</time>
      </trkpt>
      <trkpt lat="43.28812" lon="-1.49635">
        <ele>135.3</ele>
        <time>2022-09-04T06:50:48Z</time>
      </trkpt>
      <trkpt lat="43.28812" lon="-1.49634">
        <ele>135.3</ele>
        <time>2022-09-04T06:50:49Z</time>
      </trkpt>
      <trkpt lat="43.28814" lon="-1.4963">
        <ele>135.2</ele>
        <time>2022-09-04T06:50:50Z</time>
      </trkpt>
      <trkpt lat="43.28814" lon="-1.49629">
        <ele>135.2</ele>
        <time>2022-09-04T06:50:51Z</time>
      </trkpt>
      <trkpt lat="43.28816" lon="-1.49625">
        <ele>135.2</ele>
        <time>2022-09-04T06:50:52Z</time>
      </trkpt>
      <trkpt lat="43.28816" lon="-1.49624">
        <ele>135.2</ele>
        <time>2022-09-04T06:50:53Z</time>
      </trkpt>
      <trkpt lat="43.28817" lon="-1.4962">
        <ele>135.2</ele>
        <time>2022-09-04T06:50:54Z</time>
      </trkpt>
      <trkpt lat="43.28818" lon="-1.49619">
        <ele>135.3</ele>
        <time>2022-09-04T06:50:55Z</time>
      </trkpt>
      <trkpt lat="43.28819" lon="-1.49615">
        <ele>135.3</ele>
        <time>2022-09-04T06:50:56Z</time>
      </trkpt>
      <trkpt lat="43.28819" lon="-1.49614">
        <ele>135.3</ele>
        <time>2022-09-04T06:50:57Z</time>
      </trkpt>
      <trkpt lat="43.28821" lon="-1.4961">
        <ele>135.1</ele>
        <time>2022-09-04T06:50:58Z</time>
      </trkpt>
      <trkpt lat="43.28821" lon="-1.49609">
        <ele>135.1</ele>
        <time>2022-09-04T06:50:59Z</time>
      </trkpt>
      <trkpt lat="43.28823" lon="-1.49605">
        <ele>135.1</ele>
        <time>2022-09-04T06:51:00Z</time>
      </trkpt>
      <trkpt lat="43.28824" lon="-1.49604">
        <ele>135.1</ele>
        <time>2022-09-04T06:51:01Z</time>
      </trkpt>
      <trkpt lat="43.28826" lon="-1.49601">
        <ele>134.9</ele>
        <time>2022-09-04T06:51:02Z</time>
      </trkpt>
      <trkpt lat="43.28826" lon="-1.49599">
        <ele>134.9</ele>
        <time>2022-09-04T06:51:03Z</time>
      </trkpt>
      <trkpt lat="43.28828" lon="-1.49596">
        <ele>134.8</ele>
        <time>2022-09-04T06:51:04Z</time>
      </trkpt>
      <trkpt lat="43.28829" lon="-1.49595">
        <ele>134.8</ele>
        <time>2022-09-04T06:51:05Z</time>
      </trkpt>
      <trkpt lat="43.28831" lon="-1.49592">
        <ele>134.8</ele>
        <time>2022-09-04T06:51:06Z</time>
      </trkpt>
      <trkpt lat="43.28831" lon="-1.49591">
        <ele>134.8</ele>
        <time>2022-09-04T06:51:07Z</time>
      </trkpt>
      <trkpt lat="43.28833" lon="-1.49587">
        <ele>134.5</ele>
        <time>2022-09-04T06:51:08Z</time>
      </trkpt>
      <trkpt lat="43.28833" lon="-1.49586">
        <ele>134.5</ele>
        <time>2022-09-04T06:51:09Z</time>
      </trkpt>
      <trkpt lat="43.28836" lon="-1.49582">
        <ele>132.7</ele>
        <time>2022-09-04T06:51:10Z</time>
      </trkpt>
      <trkpt lat="43.28837" lon="-1.49581">
        <ele>132.7</ele>
        <time>2022-09-04T06:51:11Z</time>
      </trkpt>
      <trkpt lat="43.28839" lon="-1.49578">
        <ele>133.1</ele>
        <time>2022-09-04T06:51:12Z</time>
      </trkpt>
      <trkpt lat="43.2884" lon="-1.49577">
        <ele>133.2</ele>
        <time>2022-09-04T06:51:13Z</time>
      </trkpt>
      <trkpt lat="43.28842" lon="-1.49574">
        <ele>133.5</ele>
        <time>2022-09-04T06:51:14Z</time>
      </trkpt>
      <trkpt lat="43.28843" lon="-1.49574">
        <ele>133.6</ele>
        <time>2022-09-04T06:51:15Z</time>
      </trkpt>
      <trkpt lat="43.28846" lon="-1.49571">
        <ele>134</ele>
        <time>2022-09-04T06:51:16Z</time>
      </trkpt>
      <trkpt lat="43.28846" lon="-1.4957">
        <ele>134.1</ele>
        <time>2022-09-04T06:51:17Z</time>
      </trkpt>
      <trkpt lat="43.28849" lon="-1.49567">
        <ele>134.5</ele>
        <time>2022-09-04T06:51:18Z</time>
      </trkpt>
      <trkpt lat="43.2885" lon="-1.49565">
        <ele>134.7</ele>
        <time>2022-09-04T06:51:19Z</time>
      </trkpt>
      <trkpt lat="43.28853" lon="-1.49562">
        <ele>135.1</ele>
        <time>2022-09-04T06:51:20Z</time>
      </trkpt>
      <trkpt lat="43.28854" lon="-1.49561">
        <ele>135.2</ele>
        <time>2022-09-04T06:51:21Z</time>
      </trkpt>
      <trkpt lat="43.28857" lon="-1.49558">
        <ele>135.5</ele>
        <time>2022-09-04T06:51:22Z</time>
      </trkpt>
      <trkpt lat="43.28857" lon="-1.49557">
        <ele>135.6</ele>
        <time>2022-09-04T06:51:23Z</time>
      </trkpt>
      <trkpt lat="43.28859" lon="-1.49556">
        <ele>135.7</ele>
        <time>2022-09-04T06:51:24Z</time>
      </trkpt>
      <trkpt lat="43.28861" lon="-1.49555">
        <ele>135.9</ele>
        <time>2022-09-04T06:51:25Z</time>
      </trkpt>
      <trkpt lat="43.28863" lon="-1.49552">
        <ele>136</ele>
        <time>2022-09-04T06:51:26Z</time>
      </trkpt>
      <trkpt lat="43.28864" lon="-1.49551">
        <ele>136.1</ele>
        <time>2022-09-04T06:51:27Z</time>
      </trkpt>
      <trkpt lat="43.28866" lon="-1.49548">
        <ele>136.2</ele>
        <time>2022-09-04T06:51:28Z</time>
      </trkpt>
      <trkpt lat="43.28866" lon="-1.49547">
        <ele>136.3</ele>
        <time>2022-09-04T06:51:29Z</time>
      </trkpt>
      <trkpt lat="43.28868" lon="-1.49543">
        <ele>136.4</ele>
        <time>2022-09-04T06:51:30Z</time>
      </trkpt>
      <trkpt lat="43.28869" lon="-1.49541">
        <ele>136.5</ele>
        <time>2022-09-04T06:51:31Z</time>
      </trkpt>
      <trkpt lat="43.28871" lon="-1.49538">
        <ele>136.5</ele>
        <time>2022-09-04T06:51:32Z</time>
      </trkpt>
      <trkpt lat="43.28875" lon="-1.49535">
        <ele>136.6</ele>
        <time>2022-09-04T06:51:33Z</time>
      </trkpt>
      <trkpt lat="43.28876" lon="-1.49534">
        <ele>136.6</ele>
        <time>2022-09-04T06:51:34Z</time>
      </trkpt>
      <trkpt lat="43.28878" lon="-1.49531">
        <ele>136.6</ele>
        <time>2022-09-04T06:51:35Z</time>
      </trkpt>
      <trkpt lat="43.28879" lon="-1.4953">
        <ele>136.6</ele>
        <time>2022-09-04T06:51:36Z</time>
      </trkpt>
      <trkpt lat="43.28882" lon="-1.49528">
        <ele>136.6</ele>
        <time>2022-09-04T06:51:37Z</time>
      </trkpt>
      <trkpt lat="43.28886" lon="-1.49527">
        <ele>136.3</ele>
        <time>2022-09-04T06:51:38Z</time>
      </trkpt>
      <trkpt lat="43.2889" lon="-1.49526">
        <ele>135.9</ele>
        <time>2022-09-04T06:51:39Z</time>
      </trkpt>
      <trkpt lat="43.28894" lon="-1.49524">
        <ele>135.5</ele>
        <time>2022-09-04T06:51:40Z</time>
      </trkpt>
      <trkpt lat="43.28898" lon="-1.49522">
        <ele>135.2</ele>
        <time>2022-09-04T06:51:41Z</time>
      </trkpt>
      <trkpt lat="43.28901" lon="-1.4952">
        <ele>134.8</ele>
        <time>2022-09-04T06:51:42Z</time>
      </trkpt>
      <trkpt lat="43.28904" lon="-1.49516">
        <ele>134.5</ele>
        <time>2022-09-04T06:51:43Z</time>
      </trkpt>
      <trkpt lat="43.28906" lon="-1.49513">
        <ele>134.2</ele>
        <time>2022-09-04T06:51:44Z</time>
      </trkpt>
      <trkpt lat="43.28908" lon="-1.49509">
        <ele>134</ele>
        <time>2022-09-04T06:51:45Z</time>
      </trkpt>
      <trkpt lat="43.2891" lon="-1.49506">
        <ele>133.7</ele>
        <time>2022-09-04T06:51:46Z</time>
      </trkpt>
      <trkpt lat="43.28911" lon="-1.49502">
        <ele>133.5</ele>
        <time>2022-09-04T06:51:47Z</time>
      </trkpt>
      <trkpt lat="43.28913" lon="-1.49499">
        <ele>133.2</ele>
        <time>2022-09-04T06:51:48Z</time>
      </trkpt>
      <trkpt lat="43.28915" lon="-1.49494">
        <ele>133.1</ele>
        <time>2022-09-04T06:51:49Z</time>
      </trkpt>
      <trkpt lat="43.28915" lon="-1.49492">
        <ele>133.1</ele>
        <time>2022-09-04T06:51:50Z</time>
      </trkpt>
      <trkpt lat="43.28917" lon="-1.49489">
        <ele>133.1</ele>
        <time>2022-09-04T06:51:51Z</time>
      </trkpt>
      <trkpt lat="43.28919" lon="-1.49486">
        <ele>133.1</ele>
        <time>2022-09-04T06:51:52Z</time>
      </trkpt>
      <trkpt lat="43.28921" lon="-1.49484">
        <ele>133.1</ele>
        <time>2022-09-04T06:51:53Z</time>
      </trkpt>
      <trkpt lat="43.28924" lon="-1.49482">
        <ele>133.2</ele>
        <time>2022-09-04T06:51:54Z</time>
      </trkpt>
      <trkpt lat="43.28926" lon="-1.49481">
        <ele>133.2</ele>
        <time>2022-09-04T06:51:55Z</time>
      </trkpt>
      <trkpt lat="43.28928" lon="-1.4948">
        <ele>133.2</ele>
        <time>2022-09-04T06:51:56Z</time>
      </trkpt>
      <trkpt lat="43.28931" lon="-1.49479">
        <ele>133.2</ele>
        <time>2022-09-04T06:51:57Z</time>
      </trkpt>
      <trkpt lat="43.28935" lon="-1.49479">
        <ele>133.3</ele>
        <time>2022-09-04T06:51:58Z</time>
      </trkpt>
      <trkpt lat="43.28938" lon="-1.49478">
        <ele>133.3</ele>
        <time>2022-09-04T06:51:59Z</time>
      </trkpt>
      <trkpt lat="43.28941" lon="-1.49477">
        <ele>133.3</ele>
        <time>2022-09-04T06:52:00Z</time>
      </trkpt>
      <trkpt lat="43.28944" lon="-1.49476">
        <ele>133.4</ele>
        <time>2022-09-04T06:52:01Z</time>
      </trkpt>
      <trkpt lat="43.28947" lon="-1.49475">
        <ele>133.4</ele>
        <time>2022-09-04T06:52:02Z</time>
      </trkpt>
      <trkpt lat="43.2895" lon="-1.49474">
        <ele>133.5</ele>
        <time>2022-09-04T06:52:03Z</time>
      </trkpt>
      <trkpt lat="43.28953" lon="-1.49473">
        <ele>133.5</ele>
        <time>2022-09-04T06:52:04Z</time>
      </trkpt>
      <trkpt lat="43.28956" lon="-1.49471">
        <ele>133.6</ele>
        <time>2022-09-04T06:52:05Z</time>
      </trkpt>
      <trkpt lat="43.28959" lon="-1.4947">
        <ele>133.6</ele>
        <time>2022-09-04T06:52:06Z</time>
      </trkpt>
      <trkpt lat="43.28962" lon="-1.49469">
        <ele>133.7</ele>
        <time>2022-09-04T06:52:07Z</time>
      </trkpt>
      <trkpt lat="43.28965" lon="-1.49468">
        <ele>133.7</ele>
        <time>2022-09-04T06:52:08Z</time>
      </trkpt>
      <trkpt lat="43.28968" lon="-1.49467">
        <ele>133.8</ele>
        <time>2022-09-04T06:52:09Z</time>
      </trkpt>
      <trkpt lat="43.28971" lon="-1.49465">
        <ele>133.9</ele>
        <time>2022-09-04T06:52:10Z</time>
      </trkpt>
      <trkpt lat="43.28974" lon="-1.49464">
        <ele>133.9</ele>
        <time>2022-09-04T06:52:11Z</time>
      </trkpt>
      <trkpt lat="43.28977" lon="-1.49463">
        <ele>134</ele>
        <time>2022-09-04T06:52:12Z</time>
      </trkpt>
      <trkpt lat="43.2898" lon="-1.49461">
        <ele>134</ele>
        <time>2022-09-04T06:52:13Z</time>
      </trkpt>
      <trkpt lat="43.28983" lon="-1.49459">
        <ele>134.1</ele>
        <time>2022-09-04T06:52:14Z</time>
      </trkpt>
      <trkpt lat="43.28986" lon="-1.49458">
        <ele>134.1</ele>
        <time>2022-09-04T06:52:15Z</time>
      </trkpt>
      <trkpt lat="43.28989" lon="-1.49456">
        <ele>134.2</ele>
        <time>2022-09-04T06:52:16Z</time>
      </trkpt>
      <trkpt lat="43.28992" lon="-1.49456">
        <ele>134.2</ele>
        <time>2022-09-04T06:52:17Z</time>
      </trkpt>
      <trkpt lat="43.28995" lon="-1.49455">
        <ele>134.3</ele>
        <time>2022-09-04T06:52:18Z</time>
      </trkpt>
      <trkpt lat="43.28998" lon="-1.49454">
        <ele>134.3</ele>
        <time>2022-09-04T06:52:19Z</time>
      </trkpt>
      <trkpt lat="43.29" lon="-1.49453">
        <ele>134.4</ele>
        <time>2022-09-04T06:52:20Z</time>
      </trkpt>
      <trkpt lat="43.29003" lon="-1.49451">
        <ele>134.5</ele>
        <time>2022-09-04T06:52:21Z</time>
      </trkpt>
      <trkpt lat="43.29006" lon="-1.4945">
        <ele>134.5</ele>
        <time>2022-09-04T06:52:22Z</time>
      </trkpt>
      <trkpt lat="43.29009" lon="-1.49449">
        <ele>134.6</ele>
        <time>2022-09-04T06:52:23Z</time>
      </trkpt>
      <trkpt lat="43.29013" lon="-1.49449">
        <ele>134.6</ele>
        <time>2022-09-04T06:52:24Z</time>
      </trkpt>
      <trkpt lat="43.29016" lon="-1.49447">
        <ele>134.7</ele>
        <time>2022-09-04T06:52:25Z</time>
      </trkpt>
      <trkpt lat="43.29019" lon="-1.49446">
        <ele>134.8</ele>
        <time>2022-09-04T06:52:26Z</time>
      </trkpt>
      <trkpt lat="43.29021" lon="-1.49444">
        <ele>134.8</ele>
        <time>2022-09-04T06:52:27Z</time>
      </trkpt>
      <trkpt lat="43.29024" lon="-1.49441">
        <ele>134.9</ele>
        <time>2022-09-04T06:52:28Z</time>
      </trkpt>
      <trkpt lat="43.29026" lon="-1.49438">
        <ele>135</ele>
        <time>2022-09-04T06:52:29Z</time>
      </trkpt>
      <trkpt lat="43.29028" lon="-1.49435">
        <ele>135.1</ele>
        <time>2022-09-04T06:52:30Z</time>
      </trkpt>
      <trkpt lat="43.29029" lon="-1.49432">
        <ele>135.1</ele>
        <time>2022-09-04T06:52:31Z</time>
      </trkpt>
      <trkpt lat="43.29031" lon="-1.49428">
        <ele>135.2</ele>
        <time>2022-09-04T06:52:32Z</time>
      </trkpt>
      <trkpt lat="43.29031" lon="-1.49426">
        <ele>135.2</ele>
        <time>2022-09-04T06:52:33Z</time>
      </trkpt>
      <trkpt lat="43.29033" lon="-1.49423">
        <ele>135.3</ele>
        <time>2022-09-04T06:52:34Z</time>
      </trkpt>
      <trkpt lat="43.29034" lon="-1.49421">
        <ele>135.3</ele>
        <time>2022-09-04T06:52:35Z</time>
      </trkpt>
      <trkpt lat="43.29037" lon="-1.49419">
        <ele>135.1</ele>
        <time>2022-09-04T06:52:36Z</time>
      </trkpt>
      <trkpt lat="43.29039" lon="-1.49419">
        <ele>135</ele>
        <time>2022-09-04T06:52:37Z</time>
      </trkpt>
      <trkpt lat="43.29041" lon="-1.49419">
        <ele>134.7</ele>
        <time>2022-09-04T06:52:38Z</time>
      </trkpt>
      <trkpt lat="43.29044" lon="-1.4942">
        <ele>134.5</ele>
        <time>2022-09-04T06:52:39Z</time>
      </trkpt>
      <trkpt lat="43.29048" lon="-1.49421">
        <ele>134.1</ele>
        <time>2022-09-04T06:52:40Z</time>
      </trkpt>
      <trkpt lat="43.29053" lon="-1.49421">
        <ele>133.7</ele>
        <time>2022-09-04T06:52:41Z</time>
      </trkpt>
      <trkpt lat="43.29057" lon="-1.4942">
        <ele>133.2</ele>
        <time>2022-09-04T06:52:42Z</time>
      </trkpt>
      <trkpt lat="43.29063" lon="-1.49419">
        <ele>132.7</ele>
        <time>2022-09-04T06:52:43Z</time>
      </trkpt>
      <trkpt lat="43.29068" lon="-1.49418">
        <ele>132.1</ele>
        <time>2022-09-04T06:52:44Z</time>
      </trkpt>
      <trkpt lat="43.29073" lon="-1.49416">
        <ele>131.6</ele>
        <time>2022-09-04T06:52:45Z</time>
      </trkpt>
      <trkpt lat="43.29078" lon="-1.49415">
        <ele>131</ele>
        <time>2022-09-04T06:52:46Z</time>
      </trkpt>
      <trkpt lat="43.29084" lon="-1.49415">
        <ele>130.4</ele>
        <time>2022-09-04T06:52:47Z</time>
      </trkpt>
      <trkpt lat="43.2909" lon="-1.49416">
        <ele>129.8</ele>
        <time>2022-09-04T06:52:48Z</time>
      </trkpt>
      <trkpt lat="43.29096" lon="-1.49416">
        <ele>129.5</ele>
        <time>2022-09-04T06:52:49Z</time>
      </trkpt>
      <trkpt lat="43.29101" lon="-1.49415">
        <ele>129.4</ele>
        <time>2022-09-04T06:52:50Z</time>
      </trkpt>
      <trkpt lat="43.29107" lon="-1.49414">
        <ele>129.3</ele>
        <time>2022-09-04T06:52:51Z</time>
      </trkpt>
      <trkpt lat="43.29112" lon="-1.49414">
        <ele>129.3</ele>
        <time>2022-09-04T06:52:52Z</time>
      </trkpt>
      <trkpt lat="43.29118" lon="-1.49415">
        <ele>129.3</ele>
        <time>2022-09-04T06:52:53Z</time>
      </trkpt>
      <trkpt lat="43.29123" lon="-1.49415">
        <ele>129.4</ele>
        <time>2022-09-04T06:52:54Z</time>
      </trkpt>
      <trkpt lat="43.29127" lon="-1.49416">
        <ele>129.5</ele>
        <time>2022-09-04T06:52:55Z</time>
      </trkpt>
      <trkpt lat="43.29132" lon="-1.49415">
        <ele>129.6</ele>
        <time>2022-09-04T06:52:56Z</time>
      </trkpt>
      <trkpt lat="43.29136" lon="-1.49414">
        <ele>129.7</ele>
        <time>2022-09-04T06:52:57Z</time>
      </trkpt>
      <trkpt lat="43.2914" lon="-1.49411">
        <ele>129.8</ele>
        <time>2022-09-04T06:52:58Z</time>
      </trkpt>
      <trkpt lat="43.29144" lon="-1.49408">
        <ele>129.9</ele>
        <time>2022-09-04T06:52:59Z</time>
      </trkpt>
      <trkpt lat="43.29147" lon="-1.49404">
        <ele>130</ele>
        <time>2022-09-04T06:53:00Z</time>
      </trkpt>
      <trkpt lat="43.2915" lon="-1.49401">
        <ele>130.1</ele>
        <time>2022-09-04T06:53:01Z</time>
      </trkpt>
      <trkpt lat="43.29154" lon="-1.49397">
        <ele>130.2</ele>
        <time>2022-09-04T06:53:02Z</time>
      </trkpt>
      <trkpt lat="43.29158" lon="-1.49393">
        <ele>130.3</ele>
        <time>2022-09-04T06:53:03Z</time>
      </trkpt>
      <trkpt lat="43.29162" lon="-1.49389">
        <ele>130.5</ele>
        <time>2022-09-04T06:53:04Z</time>
      </trkpt>
      <trkpt lat="43.29166" lon="-1.49386">
        <ele>130.6</ele>
        <time>2022-09-04T06:53:05Z</time>
      </trkpt>
      <trkpt lat="43.29169" lon="-1.49384">
        <ele>130.8</ele>
        <time>2022-09-04T06:53:06Z</time>
      </trkpt>
      <trkpt lat="43.29174" lon="-1.49381">
        <ele>131</ele>
        <time>2022-09-04T06:53:07Z</time>
      </trkpt>
      <trkpt lat="43.29178" lon="-1.49379">
        <ele>131.1</ele>
        <time>2022-09-04T06:53:08Z</time>
      </trkpt>
      <trkpt lat="43.29183" lon="-1.49378">
        <ele>131.3</ele>
        <time>2022-09-04T06:53:09Z</time>
      </trkpt>
      <trkpt lat="43.29187" lon="-1.49377">
        <ele>131.5</ele>
        <time>2022-09-04T06:53:10Z</time>
      </trkpt>
      <trkpt lat="43.29191" lon="-1.49377">
        <ele>131.6</ele>
        <time>2022-09-04T06:53:11Z</time>
      </trkpt>
      <trkpt lat="43.29194" lon="-1.49376">
        <ele>131.7</ele>
        <time>2022-09-04T06:53:12Z</time>
      </trkpt>
      <trkpt lat="43.29197" lon="-1.49376">
        <ele>131.8</ele>
        <time>2022-09-04T06:53:13Z</time>
      </trkpt>
      <trkpt lat="43.292" lon="-1.49376">
        <ele>131.8</ele>
        <time>2022-09-04T06:53:14Z</time>
      </trkpt>
      <trkpt lat="43.29203" lon="-1.49376">
        <ele>131.9</ele>
        <time>2022-09-04T06:53:15Z</time>
      </trkpt>
      <trkpt lat="43.29206" lon="-1.49376">
        <ele>131.9</ele>
        <time>2022-09-04T06:53:16Z</time>
      </trkpt>
      <trkpt lat="43.2921" lon="-1.49376">
        <ele>132</ele>
        <time>2022-09-04T06:53:17Z</time>
      </trkpt>
      <trkpt lat="43.29214" lon="-1.49375">
        <ele>132</ele>
        <time>2022-09-04T06:53:18Z</time>
      </trkpt>
      <trkpt lat="43.29217" lon="-1.49375">
        <ele>132</ele>
        <time>2022-09-04T06:53:19Z</time>
      </trkpt>
      <trkpt lat="43.29221" lon="-1.49374">
        <ele>132.1</ele>
        <time>2022-09-04T06:53:20Z</time>
      </trkpt>
      <trkpt lat="43.29225" lon="-1.49373">
        <ele>132.1</ele>
        <time>2022-09-04T06:53:21Z</time>
      </trkpt>
      <trkpt lat="43.2923" lon="-1.49373">
        <ele>132.1</ele>
        <time>2022-09-04T06:53:22Z</time>
      </trkpt>
      <trkpt lat="43.29236" lon="-1.49372">
        <ele>132.2</ele>
        <time>2022-09-04T06:53:23Z</time>
      </trkpt>
      <trkpt lat="43.29242" lon="-1.49372">
        <ele>132.4</ele>
        <time>2022-09-04T06:53:24Z</time>
      </trkpt>
      <trkpt lat="43.29246" lon="-1.49371">
        <ele>132.5</ele>
        <time>2022-09-04T06:53:25Z</time>
      </trkpt>
      <trkpt lat="43.2925" lon="-1.4937">
        <ele>132.7</ele>
        <time>2022-09-04T06:53:26Z</time>
      </trkpt>
      <trkpt lat="43.29253" lon="-1.49369">
        <ele>132.8</ele>
        <time>2022-09-04T06:53:27Z</time>
      </trkpt>
      <trkpt lat="43.29254" lon="-1.49369">
        <ele>132.9</ele>
        <time>2022-09-04T06:53:28Z</time>
      </trkpt>
      <trkpt lat="43.29257" lon="-1.49368">
        <ele>133</ele>
        <time>2022-09-04T06:53:29Z</time>
      </trkpt>
      <trkpt lat="43.29259" lon="-1.49368">
        <ele>133.1</ele>
        <time>2022-09-04T06:53:30Z</time>
      </trkpt>
      <trkpt lat="43.29261" lon="-1.49367">
        <ele>133.3</ele>
        <time>2022-09-04T06:53:31Z</time>
      </trkpt>
      <trkpt lat="43.29264" lon="-1.49365">
        <ele>133.4</ele>
        <time>2022-09-04T06:53:32Z</time>
      </trkpt>
      <trkpt lat="43.29268" lon="-1.49365">
        <ele>133.6</ele>
        <time>2022-09-04T06:53:33Z</time>
      </trkpt>
      <trkpt lat="43.29271" lon="-1.49364">
        <ele>133.7</ele>
        <time>2022-09-04T06:53:34Z</time>
      </trkpt>
      <trkpt lat="43.29274" lon="-1.49364">
        <ele>133.9</ele>
        <time>2022-09-04T06:53:35Z</time>
      </trkpt>
      <trkpt lat="43.29277" lon="-1.49363">
        <ele>134</ele>
        <time>2022-09-04T06:53:36Z</time>
      </trkpt>
      <trkpt lat="43.29281" lon="-1.49363">
        <ele>134.2</ele>
        <time>2022-09-04T06:53:37Z</time>
      </trkpt>
      <trkpt lat="43.29284" lon="-1.49363">
        <ele>134.3</ele>
        <time>2022-09-04T06:53:38Z</time>
      </trkpt>
      <trkpt lat="43.29287" lon="-1.49363">
        <ele>134.4</ele>
        <time>2022-09-04T06:53:39Z</time>
      </trkpt>
      <trkpt lat="43.29291" lon="-1.49363">
        <ele>134.5</ele>
        <time>2022-09-04T06:53:40Z</time>
      </trkpt>
      <trkpt lat="43.29295" lon="-1.49364">
        <ele>134.7</ele>
        <time>2022-09-04T06:53:41Z</time>
      </trkpt>
      <trkpt lat="43.29299" lon="-1.49364">
        <ele>134.8</ele>
        <time>2022-09-04T06:53:42Z</time>
      </trkpt>
      <trkpt lat="43.29304" lon="-1.49364">
        <ele>135</ele>
        <time>2022-09-04T06:53:43Z</time>
      </trkpt>
      <trkpt lat="43.29308" lon="-1.49364">
        <ele>135.2</ele>
        <time>2022-09-04T06:53:44Z</time>
      </trkpt>
      <trkpt lat="43.29312" lon="-1.49363">
        <ele>135.3</ele>
        <time>2022-09-04T06:53:45Z</time>
      </trkpt>
      <trkpt lat="43.29315" lon="-1.49362">
        <ele>135.5</ele>
        <time>2022-09-04T06:53:46Z</time>
      </trkpt>
      <trkpt lat="43.29318" lon="-1.49361">
        <ele>135.6</ele>
        <time>2022-09-04T06:53:47Z</time>
      </trkpt>
      <trkpt lat="43.29322" lon="-1.49361">
        <ele>135.7</ele>
        <time>2022-09-04T06:53:48Z</time>
      </trkpt>
      <trkpt lat="43.29325" lon="-1.49361">
        <ele>135.8</ele>
        <time>2022-09-04T06:53:49Z</time>
      </trkpt>
      <trkpt lat="43.29328" lon="-1.49361">
        <ele>135.9</ele>
        <time>2022-09-04T06:53:50Z</time>
      </trkpt>
      <trkpt lat="43.29331" lon="-1.4936">
        <ele>136</ele>
        <time>2022-09-04T06:53:51Z</time>
      </trkpt>
      <trkpt lat="43.29335" lon="-1.49359">
        <ele>136.1</ele>
        <time>2022-09-04T06:53:52Z</time>
      </trkpt>
      <trkpt lat="43.29338" lon="-1.49357">
        <ele>136.2</ele>
        <time>2022-09-04T06:53:53Z</time>
      </trkpt>
      <trkpt lat="43.29343" lon="-1.49356">
        <ele>136.2</ele>
        <time>2022-09-04T06:53:54Z</time>
      </trkpt>
      <trkpt lat="43.29349" lon="-1.49356">
        <ele>136</ele>
        <time>2022-09-04T06:53:55Z</time>
      </trkpt>
      <trkpt lat="43.29353" lon="-1.49355">
        <ele>135.9</ele>
        <time>2022-09-04T06:53:56Z</time>
      </trkpt>
      <trkpt lat="43.29357" lon="-1.49355">
        <ele>135.7</ele>
        <time>2022-09-04T06:53:57Z</time>
      </trkpt>
      <trkpt lat="43.29363" lon="-1.49352">
        <ele>135.4</ele>
        <time>2022-09-04T06:53:58Z</time>
      </trkpt>
      <trkpt lat="43.29368" lon="-1.49349">
        <ele>135</ele>
        <time>2022-09-04T06:53:59Z</time>
      </trkpt>
      <trkpt lat="43.29374" lon="-1.49346">
        <ele>134.7</ele>
        <time>2022-09-04T06:54:00Z</time>
      </trkpt>
      <trkpt lat="43.29379" lon="-1.49344">
        <ele>134.4</ele>
        <time>2022-09-04T06:54:01Z</time>
      </trkpt>
      <trkpt lat="43.29385" lon="-1.49342">
        <ele>134.2</ele>
        <time>2022-09-04T06:54:02Z</time>
      </trkpt>
      <trkpt lat="43.29391" lon="-1.49341">
        <ele>134</ele>
        <time>2022-09-04T06:54:03Z</time>
      </trkpt>
      <trkpt lat="43.29398" lon="-1.49339">
        <ele>133.8</ele>
        <time>2022-09-04T06:54:04Z</time>
      </trkpt>
      <trkpt lat="43.29405" lon="-1.49338">
        <ele>133.6</ele>
        <time>2022-09-04T06:54:05Z</time>
      </trkpt>
      <trkpt lat="43.29411" lon="-1.49337">
        <ele>133.5</ele>
        <time>2022-09-04T06:54:06Z</time>
      </trkpt>
      <trkpt lat="43.29417" lon="-1.49336">
        <ele>133.4</ele>
        <time>2022-09-04T06:54:07Z</time>
      </trkpt>
      <trkpt lat="43.29422" lon="-1.49336">
        <ele>133.2</ele>
        <time>2022-09-04T06:54:08Z</time>
      </trkpt>
      <trkpt lat="43.29427" lon="-1.49336">
        <ele>132.9</ele>
        <time>2022-09-04T06:54:09Z</time>
      </trkpt>
      <trkpt lat="43.29432" lon="-1.49336">
        <ele>132.7</ele>
        <time>2022-09-04T06:54:10Z</time>
      </trkpt>
      <trkpt lat="43.29437" lon="-1.49335">
        <ele>132.4</ele>
        <time>2022-09-04T06:54:11Z</time>
      </trkpt>
      <trkpt lat="43.29442" lon="-1.49334">
        <ele>132.1</ele>
        <time>2022-09-04T06:54:12Z</time>
      </trkpt>
      <trkpt lat="43.29447" lon="-1.49334">
        <ele>131.7</ele>
        <time>2022-09-04T06:54:13Z</time>
      </trkpt>
      <trkpt lat="43.29451" lon="-1.49333">
        <ele>131.4</ele>
        <time>2022-09-04T06:54:14Z</time>
      </trkpt>
      <trkpt lat="43.29457" lon="-1.49331">
        <ele>130.9</ele>
        <time>2022-09-04T06:54:15Z</time>
      </trkpt>
      <trkpt lat="43.29462" lon="-1.49328">
        <ele>130.4</ele>
        <time>2022-09-04T06:54:16Z</time>
      </trkpt>
      <trkpt lat="43.29468" lon="-1.49327">
        <ele>129.7</ele>
        <time>2022-09-04T06:54:17Z</time>
      </trkpt>
      <trkpt lat="43.29474" lon="-1.49324">
        <ele>128.9</ele>
        <time>2022-09-04T06:54:18Z</time>
      </trkpt>
      <trkpt lat="43.29479" lon="-1.49321">
        <ele>128</ele>
        <time>2022-09-04T06:54:19Z</time>
      </trkpt>
      <trkpt lat="43.29485" lon="-1.49318">
        <ele>127</ele>
        <time>2022-09-04T06:54:20Z</time>
      </trkpt>
      <trkpt lat="43.29493" lon="-1.49315">
        <ele>125.7</ele>
        <time>2022-09-04T06:54:21Z</time>
      </trkpt>
      <trkpt lat="43.29501" lon="-1.49312">
        <ele>124.3</ele>
        <time>2022-09-04T06:54:22Z</time>
      </trkpt>
      <trkpt lat="43.29509" lon="-1.49309">
        <ele>122.9</ele>
        <time>2022-09-04T06:54:23Z</time>
      </trkpt>
      <trkpt lat="43.29518" lon="-1.49304">
        <ele>121.5</ele>
        <time>2022-09-04T06:54:24Z</time>
      </trkpt>
      <trkpt lat="43.29526" lon="-1.493">
        <ele>120.1</ele>
        <time>2022-09-04T06:54:25Z</time>
      </trkpt>
      <trkpt lat="43.29534" lon="-1.49295">
        <ele>118.8</ele>
        <time>2022-09-04T06:54:26Z</time>
      </trkpt>
      <trkpt lat="43.2954" lon="-1.4929">
        <ele>117.6</ele>
        <time>2022-09-04T06:54:27Z</time>
      </trkpt>
      <trkpt lat="43.29546" lon="-1.49282">
        <ele>116.3</ele>
        <time>2022-09-04T06:54:28Z</time>
      </trkpt>
      <trkpt lat="43.29551" lon="-1.49271">
        <ele>115.1</ele>
        <time>2022-09-04T06:54:29Z</time>
      </trkpt>
      <trkpt lat="43.29554" lon="-1.49261">
        <ele>114</ele>
        <time>2022-09-04T06:54:30Z</time>
      </trkpt>
      <trkpt lat="43.29557" lon="-1.49251">
        <ele>112.8</ele>
        <time>2022-09-04T06:54:31Z</time>
      </trkpt>
      <trkpt lat="43.29562" lon="-1.49242">
        <ele>111.6</ele>
        <time>2022-09-04T06:54:32Z</time>
      </trkpt>
      <trkpt lat="43.29568" lon="-1.49235">
        <ele>110.3</ele>
        <time>2022-09-04T06:54:33Z</time>
      </trkpt>
      <trkpt lat="43.29575" lon="-1.4923">
        <ele>109.1</ele>
        <time>2022-09-04T06:54:34Z</time>
      </trkpt>
      <trkpt lat="43.29582" lon="-1.49226">
        <ele>108.1</ele>
        <time>2022-09-04T06:54:35Z</time>
      </trkpt>
      <trkpt lat="43.29588" lon="-1.49224">
        <ele>107.4</ele>
        <time>2022-09-04T06:54:36Z</time>
      </trkpt>
      <trkpt lat="43.29593" lon="-1.49223">
        <ele>106.8</ele>
        <time>2022-09-04T06:54:37Z</time>
      </trkpt>
      <trkpt lat="43.29596" lon="-1.49221">
        <ele>106.5</ele>
        <time>2022-09-04T06:54:38Z</time>
      </trkpt>
      <trkpt lat="43.29599" lon="-1.49219">
        <ele>106.3</ele>
        <time>2022-09-04T06:54:39Z</time>
      </trkpt>
      <trkpt lat="43.29601" lon="-1.49217">
        <ele>106</ele>
        <time>2022-09-04T06:54:40Z</time>
      </trkpt>
      <trkpt lat="43.29604" lon="-1.49215">
        <ele>105.8</ele>
        <time>2022-09-04T06:54:41Z</time>
      </trkpt>
      <trkpt lat="43.29607" lon="-1.49215">
        <ele>105.7</ele>
        <time>2022-09-04T06:54:42Z</time>
      </trkpt>
      <trkpt lat="43.2961" lon="-1.49215">
        <ele>105.6</ele>
        <time>2022-09-04T06:54:43Z</time>
      </trkpt>
      <trkpt lat="43.29614" lon="-1.49215">
        <ele>105.5</ele>
        <time>2022-09-04T06:54:44Z</time>
      </trkpt>
      <trkpt lat="43.29619" lon="-1.49215">
        <ele>105.5</ele>
        <time>2022-09-04T06:54:45Z</time>
      </trkpt>
      <trkpt lat="43.29624" lon="-1.49214">
        <ele>105.6</ele>
        <time>2022-09-04T06:54:46Z</time>
      </trkpt>
      <trkpt lat="43.2963" lon="-1.49214">
        <ele>105.9</ele>
        <time>2022-09-04T06:54:47Z</time>
      </trkpt>
      <trkpt lat="43.29635" lon="-1.49213">
        <ele>106.1</ele>
        <time>2022-09-04T06:54:48Z</time>
      </trkpt>
      <trkpt lat="43.29639" lon="-1.49212">
        <ele>106.5</ele>
        <time>2022-09-04T06:54:49Z</time>
      </trkpt>
      <trkpt lat="43.29642" lon="-1.49212">
        <ele>106.7</ele>
        <time>2022-09-04T06:54:50Z</time>
      </trkpt>
      <trkpt lat="43.29645" lon="-1.49211">
        <ele>107</ele>
        <time>2022-09-04T06:54:51Z</time>
      </trkpt>
      <trkpt lat="43.29648" lon="-1.49209">
        <ele>107.3</ele>
        <time>2022-09-04T06:54:52Z</time>
      </trkpt>
      <trkpt lat="43.29649" lon="-1.49209">
        <ele>107.4</ele>
        <time>2022-09-04T06:54:53Z</time>
      </trkpt>
      <trkpt lat="43.29652" lon="-1.49208">
        <ele>107.8</ele>
        <time>2022-09-04T06:54:54Z</time>
      </trkpt>
      <trkpt lat="43.29653" lon="-1.49207">
        <ele>107.9</ele>
        <time>2022-09-04T06:54:55Z</time>
      </trkpt>
      <trkpt lat="43.29656" lon="-1.49207">
        <ele>108.3</ele>
        <time>2022-09-04T06:54:56Z</time>
      </trkpt>
      <trkpt lat="43.29657" lon="-1.49206">
        <ele>108.4</ele>
        <time>2022-09-04T06:54:57Z</time>
      </trkpt>
      <trkpt lat="43.2966" lon="-1.49205">
        <ele>108.9</ele>
        <time>2022-09-04T06:54:58Z</time>
      </trkpt>
      <trkpt lat="43.29661" lon="-1.49205">
        <ele>109.1</ele>
        <time>2022-09-04T06:54:59Z</time>
      </trkpt>
      <trkpt lat="43.29665" lon="-1.49206">
        <ele>109.6</ele>
        <time>2022-09-04T06:55:00Z</time>
      </trkpt>
      <trkpt lat="43.29666" lon="-1.49207">
        <ele>109.8</ele>
        <time>2022-09-04T06:55:01Z</time>
      </trkpt>
      <trkpt lat="43.29669" lon="-1.49208">
        <ele>110.2</ele>
        <time>2022-09-04T06:55:02Z</time>
      </trkpt>
      <trkpt lat="43.2967" lon="-1.49208">
        <ele>110.3</ele>
        <time>2022-09-04T06:55:03Z</time>
      </trkpt>
      <trkpt lat="43.29674" lon="-1.49209">
        <ele>110.8</ele>
        <time>2022-09-04T06:55:04Z</time>
      </trkpt>
      <trkpt lat="43.29675" lon="-1.4921">
        <ele>110.9</ele>
        <time>2022-09-04T06:55:05Z</time>
      </trkpt>
      <trkpt lat="43.29677" lon="-1.49211">
        <ele>111.3</ele>
        <time>2022-09-04T06:55:06Z</time>
      </trkpt>
      <trkpt lat="43.29678" lon="-1.49212">
        <ele>111.5</ele>
        <time>2022-09-04T06:55:07Z</time>
      </trkpt>
      <trkpt lat="43.29681" lon="-1.49214">
        <ele>111.9</ele>
        <time>2022-09-04T06:55:08Z</time>
      </trkpt>
      <trkpt lat="43.29682" lon="-1.49214">
        <ele>112</ele>
        <time>2022-09-04T06:55:09Z</time>
      </trkpt>
      <trkpt lat="43.29684" lon="-1.49216">
        <ele>112.4</ele>
        <time>2022-09-04T06:55:10Z</time>
      </trkpt>
      <trkpt lat="43.29685" lon="-1.49217">
        <ele>112.5</ele>
        <time>2022-09-04T06:55:11Z</time>
      </trkpt>
      <trkpt lat="43.29688" lon="-1.49219">
        <ele>112.9</ele>
        <time>2022-09-04T06:55:12Z</time>
      </trkpt>
      <trkpt lat="43.29689" lon="-1.49219">
        <ele>113.1</ele>
        <time>2022-09-04T06:55:13Z</time>
      </trkpt>
      <trkpt lat="43.2969" lon="-1.4922">
        <ele>113.3</ele>
        <time>2022-09-04T06:55:14Z</time>
      </trkpt>
      <trkpt lat="43.29692" lon="-1.4922">
        <ele>113.6</ele>
        <time>2022-09-04T06:55:15Z</time>
      </trkpt>
      <trkpt lat="43.29694" lon="-1.49221">
        <ele>113.8</ele>
        <time>2022-09-04T06:55:16Z</time>
      </trkpt>
      <trkpt lat="43.29695" lon="-1.49221">
        <ele>114</ele>
        <time>2022-09-04T06:55:17Z</time>
      </trkpt>
      <trkpt lat="43.29699" lon="-1.49223">
        <ele>114.5</ele>
        <time>2022-09-04T06:55:18Z</time>
      </trkpt>
      <trkpt lat="43.29699" lon="-1.49223">
        <ele>114.6</ele>
        <time>2022-09-04T06:55:19Z</time>
      </trkpt>
      <trkpt lat="43.29701" lon="-1.49224">
        <ele>114.9</ele>
        <time>2022-09-04T06:55:20Z</time>
      </trkpt>
      <trkpt lat="43.29702" lon="-1.49225">
        <ele>115.1</ele>
        <time>2022-09-04T06:55:21Z</time>
      </trkpt>
      <trkpt lat="43.29704" lon="-1.49226">
        <ele>115.3</ele>
        <time>2022-09-04T06:55:22Z</time>
      </trkpt>
      <trkpt lat="43.29705" lon="-1.49227">
        <ele>115.5</ele>
        <time>2022-09-04T06:55:23Z</time>
      </trkpt>
      <trkpt lat="43.29708" lon="-1.49229">
        <ele>116</ele>
        <time>2022-09-04T06:55:24Z</time>
      </trkpt>
      <trkpt lat="43.29709" lon="-1.4923">
        <ele>116.1</ele>
        <time>2022-09-04T06:55:25Z</time>
      </trkpt>
      <trkpt lat="43.2971" lon="-1.49231">
        <ele>116.4</ele>
        <time>2022-09-04T06:55:26Z</time>
      </trkpt>
      <trkpt lat="43.29712" lon="-1.49232">
        <ele>116.7</ele>
        <time>2022-09-04T06:55:27Z</time>
      </trkpt>
      <trkpt lat="43.29713" lon="-1.49233">
        <ele>116.9</ele>
        <time>2022-09-04T06:55:28Z</time>
      </trkpt>
      <trkpt lat="43.29715" lon="-1.49234">
        <ele>117.2</ele>
        <time>2022-09-04T06:55:29Z</time>
      </trkpt>
      <trkpt lat="43.29716" lon="-1.49235">
        <ele>117.5</ele>
        <time>2022-09-04T06:55:30Z</time>
      </trkpt>
      <trkpt lat="43.29718" lon="-1.49236">
        <ele>117.7</ele>
        <time>2022-09-04T06:55:31Z</time>
      </trkpt>
      <trkpt lat="43.29719" lon="-1.49237">
        <ele>117.9</ele>
        <time>2022-09-04T06:55:32Z</time>
      </trkpt>
      <trkpt lat="43.2972" lon="-1.49238">
        <ele>118.2</ele>
        <time>2022-09-04T06:55:33Z</time>
      </trkpt>
      <trkpt lat="43.29722" lon="-1.49239">
        <ele>118.5</ele>
        <time>2022-09-04T06:55:34Z</time>
      </trkpt>
      <trkpt lat="43.29723" lon="-1.4924">
        <ele>118.8</ele>
        <time>2022-09-04T06:55:35Z</time>
      </trkpt>
      <trkpt lat="43.29725" lon="-1.49241">
        <ele>119</ele>
        <time>2022-09-04T06:55:36Z</time>
      </trkpt>
      <trkpt lat="43.29726" lon="-1.49242">
        <ele>119.3</ele>
        <time>2022-09-04T06:55:37Z</time>
      </trkpt>
      <trkpt lat="43.29728" lon="-1.49243">
        <ele>119.6</ele>
        <time>2022-09-04T06:55:38Z</time>
      </trkpt>
      <trkpt lat="43.2973" lon="-1.49244">
        <ele>119.9</ele>
        <time>2022-09-04T06:55:39Z</time>
      </trkpt>
      <trkpt lat="43.29731" lon="-1.49245">
        <ele>120.1</ele>
        <time>2022-09-04T06:55:40Z</time>
      </trkpt>
      <trkpt lat="43.29732" lon="-1.49246">
        <ele>120.4</ele>
        <time>2022-09-04T06:55:41Z</time>
      </trkpt>
      <trkpt lat="43.29735" lon="-1.49248">
        <ele>120.8</ele>
        <time>2022-09-04T06:55:42Z</time>
      </trkpt>
      <trkpt lat="43.29736" lon="-1.49249">
        <ele>121</ele>
        <time>2022-09-04T06:55:43Z</time>
      </trkpt>
      <trkpt lat="43.29737" lon="-1.4925">
        <ele>121.3</ele>
        <time>2022-09-04T06:55:44Z</time>
      </trkpt>
      <trkpt lat="43.29739" lon="-1.49251">
        <ele>121.5</ele>
        <time>2022-09-04T06:55:45Z</time>
      </trkpt>
      <trkpt lat="43.2974" lon="-1.49252">
        <ele>121.8</ele>
        <time>2022-09-04T06:55:46Z</time>
      </trkpt>
      <trkpt lat="43.29742" lon="-1.49253">
        <ele>122.1</ele>
        <time>2022-09-04T06:55:47Z</time>
      </trkpt>
      <trkpt lat="43.29743" lon="-1.49254">
        <ele>122.4</ele>
        <time>2022-09-04T06:55:48Z</time>
      </trkpt>
      <trkpt lat="43.29745" lon="-1.49255">
        <ele>122.6</ele>
        <time>2022-09-04T06:55:49Z</time>
      </trkpt>
      <trkpt lat="43.29746" lon="-1.49256">
        <ele>122.9</ele>
        <time>2022-09-04T06:55:50Z</time>
      </trkpt>
      <trkpt lat="43.29747" lon="-1.49257">
        <ele>123.1</ele>
        <time>2022-09-04T06:55:51Z</time>
      </trkpt>
      <trkpt lat="43.29749" lon="-1.49257">
        <ele>123.4</ele>
        <time>2022-09-04T06:55:52Z</time>
      </trkpt>
      <trkpt lat="43.29751" lon="-1.49258">
        <ele>123.6</ele>
        <time>2022-09-04T06:55:53Z</time>
      </trkpt>
      <trkpt lat="43.29752" lon="-1.49259">
        <ele>123.9</ele>
        <time>2022-09-04T06:55:54Z</time>
      </trkpt>
      <trkpt lat="43.29753" lon="-1.4926">
        <ele>124.2</ele>
        <time>2022-09-04T06:55:55Z</time>
      </trkpt>
      <trkpt lat="43.29755" lon="-1.49261">
        <ele>124.5</ele>
        <time>2022-09-04T06:55:56Z</time>
      </trkpt>
      <trkpt lat="43.29757" lon="-1.49262">
        <ele>124.7</ele>
        <time>2022-09-04T06:55:57Z</time>
      </trkpt>
      <trkpt lat="43.29758" lon="-1.49263">
        <ele>125</ele>
        <time>2022-09-04T06:55:58Z</time>
      </trkpt>
      <trkpt lat="43.2976" lon="-1.49264">
        <ele>125.2</ele>
        <time>2022-09-04T06:55:59Z</time>
      </trkpt>
      <trkpt lat="43.29761" lon="-1.49265">
        <ele>125.5</ele>
        <time>2022-09-04T06:56:00Z</time>
      </trkpt>
      <trkpt lat="43.29762" lon="-1.49265">
        <ele>125.7</ele>
        <time>2022-09-04T06:56:01Z</time>
      </trkpt>
      <trkpt lat="43.29764" lon="-1.49266">
        <ele>125.9</ele>
        <time>2022-09-04T06:56:02Z</time>
      </trkpt>
      <trkpt lat="43.29765" lon="-1.49267">
        <ele>126.2</ele>
        <time>2022-09-04T06:56:03Z</time>
      </trkpt>
      <trkpt lat="43.29767" lon="-1.49268">
        <ele>126.4</ele>
        <time>2022-09-04T06:56:04Z</time>
      </trkpt>
      <trkpt lat="43.29768" lon="-1.49269">
        <ele>126.7</ele>
        <time>2022-09-04T06:56:05Z</time>
      </trkpt>
      <trkpt lat="43.2977" lon="-1.4927">
        <ele>126.9</ele>
        <time>2022-09-04T06:56:06Z</time>
      </trkpt>
      <trkpt lat="43.29772" lon="-1.49271">
        <ele>127.2</ele>
        <time>2022-09-04T06:56:07Z</time>
      </trkpt>
      <trkpt lat="43.29775" lon="-1.49272">
        <ele>127.5</ele>
        <time>2022-09-04T06:56:08Z</time>
      </trkpt>
      <trkpt lat="43.29775" lon="-1.49273">
        <ele>127.6</ele>
        <time>2022-09-04T06:56:09Z</time>
      </trkpt>
      <trkpt lat="43.29779" lon="-1.49273">
        <ele>127.8</ele>
        <time>2022-09-04T06:56:10Z</time>
      </trkpt>
      <trkpt lat="43.2978" lon="-1.49274">
        <ele>127.8</ele>
        <time>2022-09-04T06:56:11Z</time>
      </trkpt>
      <trkpt lat="43.29783" lon="-1.49273">
        <ele>128</ele>
        <time>2022-09-04T06:56:12Z</time>
      </trkpt>
      <trkpt lat="43.29784" lon="-1.49273">
        <ele>128</ele>
        <time>2022-09-04T06:56:13Z</time>
      </trkpt>
      <trkpt lat="43.29787" lon="-1.49273">
        <ele>128.2</ele>
        <time>2022-09-04T06:56:14Z</time>
      </trkpt>
      <trkpt lat="43.29788" lon="-1.49273">
        <ele>128.2</ele>
        <time>2022-09-04T06:56:15Z</time>
      </trkpt>
      <trkpt lat="43.29792" lon="-1.49274">
        <ele>128.3</ele>
        <time>2022-09-04T06:56:16Z</time>
      </trkpt>
      <trkpt lat="43.29793" lon="-1.49274">
        <ele>128.4</ele>
        <time>2022-09-04T06:56:17Z</time>
      </trkpt>
      <trkpt lat="43.29796" lon="-1.49274">
        <ele>128.5</ele>
        <time>2022-09-04T06:56:18Z</time>
      </trkpt>
      <trkpt lat="43.29798" lon="-1.49274">
        <ele>128.5</ele>
        <time>2022-09-04T06:56:19Z</time>
      </trkpt>
      <trkpt lat="43.29801" lon="-1.49274">
        <ele>128.7</ele>
        <time>2022-09-04T06:56:20Z</time>
      </trkpt>
      <trkpt lat="43.29802" lon="-1.49274">
        <ele>128.7</ele>
        <time>2022-09-04T06:56:21Z</time>
      </trkpt>
      <trkpt lat="43.29805" lon="-1.49275">
        <ele>128.8</ele>
        <time>2022-09-04T06:56:22Z</time>
      </trkpt>
      <trkpt lat="43.29806" lon="-1.49275">
        <ele>128.9</ele>
        <time>2022-09-04T06:56:23Z</time>
      </trkpt>
      <trkpt lat="43.2981" lon="-1.49276">
        <ele>129</ele>
        <time>2022-09-04T06:56:24Z</time>
      </trkpt>
      <trkpt lat="43.29811" lon="-1.49276">
        <ele>129</ele>
        <time>2022-09-04T06:56:25Z</time>
      </trkpt>
      <trkpt lat="43.29814" lon="-1.49278">
        <ele>129.2</ele>
        <time>2022-09-04T06:56:26Z</time>
      </trkpt>
      <trkpt lat="43.29815" lon="-1.49279">
        <ele>129.2</ele>
        <time>2022-09-04T06:56:27Z</time>
      </trkpt>
      <trkpt lat="43.29819" lon="-1.49281">
        <ele>129.4</ele>
        <time>2022-09-04T06:56:28Z</time>
      </trkpt>
      <trkpt lat="43.2982" lon="-1.49282">
        <ele>129.4</ele>
        <time>2022-09-04T06:56:29Z</time>
      </trkpt>
      <trkpt lat="43.29823" lon="-1.49284">
        <ele>129.6</ele>
        <time>2022-09-04T06:56:30Z</time>
      </trkpt>
      <trkpt lat="43.29824" lon="-1.49285">
        <ele>129.7</ele>
        <time>2022-09-04T06:56:31Z</time>
      </trkpt>
      <trkpt lat="43.29827" lon="-1.49287">
        <ele>129.8</ele>
        <time>2022-09-04T06:56:32Z</time>
      </trkpt>
      <trkpt lat="43.29828" lon="-1.49288">
        <ele>129.8</ele>
        <time>2022-09-04T06:56:33Z</time>
      </trkpt>
      <trkpt lat="43.2983" lon="-1.4929">
        <ele>130</ele>
        <time>2022-09-04T06:56:34Z</time>
      </trkpt>
      <trkpt lat="43.29831" lon="-1.49291">
        <ele>130.1</ele>
        <time>2022-09-04T06:56:35Z</time>
      </trkpt>
      <trkpt lat="43.29834" lon="-1.49292">
        <ele>130.2</ele>
        <time>2022-09-04T06:56:36Z</time>
      </trkpt>
      <trkpt lat="43.29835" lon="-1.49293">
        <ele>130.3</ele>
        <time>2022-09-04T06:56:37Z</time>
      </trkpt>
      <trkpt lat="43.29838" lon="-1.49296">
        <ele>130.4</ele>
        <time>2022-09-04T06:56:38Z</time>
      </trkpt>
      <trkpt lat="43.29839" lon="-1.49296">
        <ele>130.5</ele>
        <time>2022-09-04T06:56:39Z</time>
      </trkpt>
      <trkpt lat="43.29841" lon="-1.493">
        <ele>130.7</ele>
        <time>2022-09-04T06:56:40Z</time>
      </trkpt>
      <trkpt lat="43.29842" lon="-1.49301">
        <ele>130.7</ele>
        <time>2022-09-04T06:56:41Z</time>
      </trkpt>
      <trkpt lat="43.29844" lon="-1.49304">
        <ele>130.9</ele>
        <time>2022-09-04T06:56:42Z</time>
      </trkpt>
      <trkpt lat="43.29845" lon="-1.49306">
        <ele>131</ele>
        <time>2022-09-04T06:56:43Z</time>
      </trkpt>
      <trkpt lat="43.29847" lon="-1.49309">
        <ele>131.1</ele>
        <time>2022-09-04T06:56:44Z</time>
      </trkpt>
      <trkpt lat="43.29849" lon="-1.49312">
        <ele>131.3</ele>
        <time>2022-09-04T06:56:45Z</time>
      </trkpt>
      <trkpt lat="43.29852" lon="-1.49316">
        <ele>131.5</ele>
        <time>2022-09-04T06:56:46Z</time>
      </trkpt>
      <trkpt lat="43.29853" lon="-1.49317">
        <ele>131.6</ele>
        <time>2022-09-04T06:56:47Z</time>
      </trkpt>
      <trkpt lat="43.29855" lon="-1.4932">
        <ele>131.7</ele>
        <time>2022-09-04T06:56:48Z</time>
      </trkpt>
      <trkpt lat="43.29858" lon="-1.49324">
        <ele>131.9</ele>
        <time>2022-09-04T06:56:49Z</time>
      </trkpt>
      <trkpt lat="43.29859" lon="-1.49325">
        <ele>132</ele>
        <time>2022-09-04T06:56:50Z</time>
      </trkpt>
      <trkpt lat="43.29862" lon="-1.49328">
        <ele>132</ele>
        <time>2022-09-04T06:56:51Z</time>
      </trkpt>
      <trkpt lat="43.29863" lon="-1.49329">
        <ele>132</ele>
        <time>2022-09-04T06:56:52Z</time>
      </trkpt>
      <trkpt lat="43.29866" lon="-1.4933">
        <ele>132.8</ele>
        <time>2022-09-04T06:56:53Z</time>
      </trkpt>
      <trkpt lat="43.29869" lon="-1.4933">
        <ele>133.2</ele>
        <time>2022-09-04T06:56:54Z</time>
      </trkpt>
      <trkpt lat="43.29871" lon="-1.49331">
        <ele>133.5</ele>
        <time>2022-09-04T06:56:55Z</time>
      </trkpt>
      <trkpt lat="43.29875" lon="-1.49332">
        <ele>134</ele>
        <time>2022-09-04T06:56:56Z</time>
      </trkpt>
      <trkpt lat="43.29876" lon="-1.49333">
        <ele>134.2</ele>
        <time>2022-09-04T06:56:57Z</time>
      </trkpt>
      <trkpt lat="43.29879" lon="-1.49334">
        <ele>134.6</ele>
        <time>2022-09-04T06:56:58Z</time>
      </trkpt>
      <trkpt lat="43.29881" lon="-1.49334">
        <ele>134.8</ele>
        <time>2022-09-04T06:56:59Z</time>
      </trkpt>
      <trkpt lat="43.29884" lon="-1.49335">
        <ele>135.2</ele>
        <time>2022-09-04T06:57:00Z</time>
      </trkpt>
      <trkpt lat="43.29885" lon="-1.49336">
        <ele>135.4</ele>
        <time>2022-09-04T06:57:01Z</time>
      </trkpt>
      <trkpt lat="43.29888" lon="-1.49336">
        <ele>135.8</ele>
        <time>2022-09-04T06:57:02Z</time>
      </trkpt>
      <trkpt lat="43.29889" lon="-1.49336">
        <ele>135.9</ele>
        <time>2022-09-04T06:57:03Z</time>
      </trkpt>
      <trkpt lat="43.29892" lon="-1.49336">
        <ele>136.4</ele>
        <time>2022-09-04T06:57:04Z</time>
      </trkpt>
      <trkpt lat="43.29893" lon="-1.49335">
        <ele>136.5</ele>
        <time>2022-09-04T06:57:05Z</time>
      </trkpt>
      <trkpt lat="43.29897" lon="-1.49334">
        <ele>136.9</ele>
        <time>2022-09-04T06:57:06Z</time>
      </trkpt>
      <trkpt lat="43.29898" lon="-1.49334">
        <ele>137.1</ele>
        <time>2022-09-04T06:57:07Z</time>
      </trkpt>
      <trkpt lat="43.29901" lon="-1.49333">
        <ele>137.6</ele>
        <time>2022-09-04T06:57:08Z</time>
      </trkpt>
      <trkpt lat="43.29903" lon="-1.49332">
        <ele>137.7</ele>
        <time>2022-09-04T06:57:09Z</time>
      </trkpt>
      <trkpt lat="43.29906" lon="-1.49332">
        <ele>138.2</ele>
        <time>2022-09-04T06:57:10Z</time>
      </trkpt>
      <trkpt lat="43.29907" lon="-1.49332">
        <ele>138.4</ele>
        <time>2022-09-04T06:57:11Z</time>
      </trkpt>
      <trkpt lat="43.2991" lon="-1.49332">
        <ele>138.8</ele>
        <time>2022-09-04T06:57:12Z</time>
      </trkpt>
      <trkpt lat="43.29912" lon="-1.49331">
        <ele>139</ele>
        <time>2022-09-04T06:57:13Z</time>
      </trkpt>
      <trkpt lat="43.29915" lon="-1.49331">
        <ele>139.4</ele>
        <time>2022-09-04T06:57:14Z</time>
      </trkpt>
      <trkpt lat="43.29916" lon="-1.49331">
        <ele>139.6</ele>
        <time>2022-09-04T06:57:15Z</time>
      </trkpt>
      <trkpt lat="43.29919" lon="-1.49331">
        <ele>140</ele>
        <time>2022-09-04T06:57:16Z</time>
      </trkpt>
      <trkpt lat="43.2992" lon="-1.49332">
        <ele>140.1</ele>
        <time>2022-09-04T06:57:17Z</time>
      </trkpt>
      <trkpt lat="43.29923" lon="-1.49333">
        <ele>140.5</ele>
        <time>2022-09-04T06:57:18Z</time>
      </trkpt>
      <trkpt lat="43.29924" lon="-1.49333">
        <ele>140.6</ele>
        <time>2022-09-04T06:57:19Z</time>
      </trkpt>
      <trkpt lat="43.29927" lon="-1.49334">
        <ele>141</ele>
        <time>2022-09-04T06:57:20Z</time>
      </trkpt>
      <trkpt lat="43.29928" lon="-1.49335">
        <ele>141.1</ele>
        <time>2022-09-04T06:57:21Z</time>
      </trkpt>
      <trkpt lat="43.29931" lon="-1.49335">
        <ele>141.4</ele>
        <time>2022-09-04T06:57:22Z</time>
      </trkpt>
      <trkpt lat="43.29932" lon="-1.49335">
        <ele>141.5</ele>
        <time>2022-09-04T06:57:23Z</time>
      </trkpt>
      <trkpt lat="43.29933" lon="-1.49336">
        <ele>141.7</ele>
        <time>2022-09-04T06:57:24Z</time>
      </trkpt>
      <trkpt lat="43.29935" lon="-1.49336">
        <ele>141.9</ele>
        <time>2022-09-04T06:57:25Z</time>
      </trkpt>
      <trkpt lat="43.29938" lon="-1.49337">
        <ele>142.3</ele>
        <time>2022-09-04T06:57:26Z</time>
      </trkpt>
      <trkpt lat="43.29939" lon="-1.49337">
        <ele>142.4</ele>
        <time>2022-09-04T06:57:27Z</time>
      </trkpt>
      <trkpt lat="43.29942" lon="-1.49338">
        <ele>142.7</ele>
        <time>2022-09-04T06:57:28Z</time>
      </trkpt>
      <trkpt lat="43.29943" lon="-1.49339">
        <ele>142.8</ele>
        <time>2022-09-04T06:57:29Z</time>
      </trkpt>
      <trkpt lat="43.29946" lon="-1.49339">
        <ele>143.2</ele>
        <time>2022-09-04T06:57:30Z</time>
      </trkpt>
      <trkpt lat="43.29947" lon="-1.49339">
        <ele>143.3</ele>
        <time>2022-09-04T06:57:31Z</time>
      </trkpt>
      <trkpt lat="43.2995" lon="-1.49339">
        <ele>143.6</ele>
        <time>2022-09-04T06:57:32Z</time>
      </trkpt>
      <trkpt lat="43.29951" lon="-1.4934">
        <ele>143.7</ele>
        <time>2022-09-04T06:57:33Z</time>
      </trkpt>
      <trkpt lat="43.29954" lon="-1.4934">
        <ele>144.1</ele>
        <time>2022-09-04T06:57:34Z</time>
      </trkpt>
      <trkpt lat="43.29954" lon="-1.49341">
        <ele>144.2</ele>
        <time>2022-09-04T06:57:35Z</time>
      </trkpt>
      <trkpt lat="43.29957" lon="-1.49342">
        <ele>144.5</ele>
        <time>2022-09-04T06:57:36Z</time>
      </trkpt>
      <trkpt lat="43.29958" lon="-1.49342">
        <ele>144.6</ele>
        <time>2022-09-04T06:57:37Z</time>
      </trkpt>
      <trkpt lat="43.29961" lon="-1.49343">
        <ele>145</ele>
        <time>2022-09-04T06:57:38Z</time>
      </trkpt>
      <trkpt lat="43.29962" lon="-1.49343">
        <ele>145.1</ele>
        <time>2022-09-04T06:57:39Z</time>
      </trkpt>
      <trkpt lat="43.29965" lon="-1.49343">
        <ele>145.5</ele>
        <time>2022-09-04T06:57:40Z</time>
      </trkpt>
      <trkpt lat="43.29966" lon="-1.49343">
        <ele>145.6</ele>
        <time>2022-09-04T06:57:41Z</time>
      </trkpt>
      <trkpt lat="43.29969" lon="-1.49344">
        <ele>146</ele>
        <time>2022-09-04T06:57:42Z</time>
      </trkpt>
      <trkpt lat="43.2997" lon="-1.49344">
        <ele>146.1</ele>
        <time>2022-09-04T06:57:43Z</time>
      </trkpt>
      <trkpt lat="43.29972" lon="-1.49344">
        <ele>146.5</ele>
        <time>2022-09-04T06:57:44Z</time>
      </trkpt>
      <trkpt lat="43.29973" lon="-1.49344">
        <ele>146.6</ele>
        <time>2022-09-04T06:57:45Z</time>
      </trkpt>
      <trkpt lat="43.29976" lon="-1.49345">
        <ele>147</ele>
        <time>2022-09-04T06:57:46Z</time>
      </trkpt>
      <trkpt lat="43.29977" lon="-1.49345">
        <ele>147.1</ele>
        <time>2022-09-04T06:57:47Z</time>
      </trkpt>
      <trkpt lat="43.2998" lon="-1.49346">
        <ele>147.5</ele>
        <time>2022-09-04T06:57:48Z</time>
      </trkpt>
      <trkpt lat="43.29981" lon="-1.49346">
        <ele>147.7</ele>
        <time>2022-09-04T06:57:49Z</time>
      </trkpt>
      <trkpt lat="43.29984" lon="-1.49347">
        <ele>148</ele>
        <time>2022-09-04T06:57:50Z</time>
      </trkpt>
      <trkpt lat="43.29985" lon="-1.49347">
        <ele>148.1</ele>
        <time>2022-09-04T06:57:51Z</time>
      </trkpt>
      <trkpt lat="43.29988" lon="-1.49348">
        <ele>148.5</ele>
        <time>2022-09-04T06:57:52Z</time>
      </trkpt>
      <trkpt lat="43.29989" lon="-1.49348">
        <ele>148.6</ele>
        <time>2022-09-04T06:57:53Z</time>
      </trkpt>
      <trkpt lat="43.29991" lon="-1.49349">
        <ele>149</ele>
        <time>2022-09-04T06:57:54Z</time>
      </trkpt>
      <trkpt lat="43.29992" lon="-1.49349">
        <ele>149.1</ele>
        <time>2022-09-04T06:57:55Z</time>
      </trkpt>
      <trkpt lat="43.29995" lon="-1.4935">
        <ele>149.4</ele>
        <time>2022-09-04T06:57:56Z</time>
      </trkpt>
      <trkpt lat="43.29996" lon="-1.4935">
        <ele>149.5</ele>
        <time>2022-09-04T06:57:57Z</time>
      </trkpt>
      <trkpt lat="43.29999" lon="-1.4935">
        <ele>149.8</ele>
        <time>2022-09-04T06:57:58Z</time>
      </trkpt>
      <trkpt lat="43.3" lon="-1.4935">
        <ele>149.9</ele>
        <time>2022-09-04T06:57:59Z</time>
      </trkpt>
      <trkpt lat="43.30003" lon="-1.49351">
        <ele>150.1</ele>
        <time>2022-09-04T06:58:00Z</time>
      </trkpt>
      <trkpt lat="43.30004" lon="-1.49351">
        <ele>150.2</ele>
        <time>2022-09-04T06:58:01Z</time>
      </trkpt>
      <trkpt lat="43.30007" lon="-1.49352">
        <ele>150.4</ele>
        <time>2022-09-04T06:58:02Z</time>
      </trkpt>
      <trkpt lat="43.30008" lon="-1.49352">
        <ele>150.5</ele>
        <time>2022-09-04T06:58:03Z</time>
      </trkpt>
      <trkpt lat="43.30011" lon="-1.49352">
        <ele>150.7</ele>
        <time>2022-09-04T06:58:04Z</time>
      </trkpt>
      <trkpt lat="43.30012" lon="-1.49352">
        <ele>150.8</ele>
        <time>2022-09-04T06:58:05Z</time>
      </trkpt>
      <trkpt lat="43.30016" lon="-1.49352">
        <ele>150.9</ele>
        <time>2022-09-04T06:58:06Z</time>
      </trkpt>
      <trkpt lat="43.30017" lon="-1.49352">
        <ele>151</ele>
        <time>2022-09-04T06:58:07Z</time>
      </trkpt>
      <trkpt lat="43.3002" lon="-1.49352">
        <ele>151.1</ele>
        <time>2022-09-04T06:58:08Z</time>
      </trkpt>
      <trkpt lat="43.30021" lon="-1.49352">
        <ele>151.1</ele>
        <time>2022-09-04T06:58:09Z</time>
      </trkpt>
      <trkpt lat="43.30024" lon="-1.49352">
        <ele>151.1</ele>
        <time>2022-09-04T06:58:10Z</time>
      </trkpt>
      <trkpt lat="43.30025" lon="-1.49352">
        <ele>151.1</ele>
        <time>2022-09-04T06:58:11Z</time>
      </trkpt>
      <trkpt lat="43.30029" lon="-1.49352">
        <ele>151.1</ele>
        <time>2022-09-04T06:58:12Z</time>
      </trkpt>
      <trkpt lat="43.30031" lon="-1.49352">
        <ele>151.1</ele>
        <time>2022-09-04T06:58:13Z</time>
      </trkpt>
      <trkpt lat="43.30034" lon="-1.49351">
        <ele>151</ele>
        <time>2022-09-04T06:58:14Z</time>
      </trkpt>
      <trkpt lat="43.30037" lon="-1.49351">
        <ele>150.9</ele>
        <time>2022-09-04T06:58:15Z</time>
      </trkpt>
      <trkpt lat="43.3004" lon="-1.49351">
        <ele>150.7</ele>
        <time>2022-09-04T06:58:16Z</time>
      </trkpt>
      <trkpt lat="43.30044" lon="-1.4935">
        <ele>150.5</ele>
        <time>2022-09-04T06:58:17Z</time>
      </trkpt>
      <trkpt lat="43.30047" lon="-1.4935">
        <ele>150.3</ele>
        <time>2022-09-04T06:58:18Z</time>
      </trkpt>
      <trkpt lat="43.3005" lon="-1.49349">
        <ele>150.1</ele>
        <time>2022-09-04T06:58:19Z</time>
      </trkpt>
      <trkpt lat="43.30053" lon="-1.49348">
        <ele>149.9</ele>
        <time>2022-09-04T06:58:20Z</time>
      </trkpt>
      <trkpt lat="43.30056" lon="-1.49346">
        <ele>149.7</ele>
        <time>2022-09-04T06:58:21Z</time>
      </trkpt>
      <trkpt lat="43.30061" lon="-1.49344">
        <ele>149.3</ele>
        <time>2022-09-04T06:58:22Z</time>
      </trkpt>
      <trkpt lat="43.30066" lon="-1.49341">
        <ele>149</ele>
        <time>2022-09-04T06:58:23Z</time>
      </trkpt>
      <trkpt lat="43.30072" lon="-1.49338">
        <ele>148.6</ele>
        <time>2022-09-04T06:58:24Z</time>
      </trkpt>
      <trkpt lat="43.30077" lon="-1.49335">
        <ele>148.2</ele>
        <time>2022-09-04T06:58:25Z</time>
      </trkpt>
      <trkpt lat="43.30082" lon="-1.49332">
        <ele>147.9</ele>
        <time>2022-09-04T06:58:26Z</time>
      </trkpt>
      <trkpt lat="43.30087" lon="-1.49328">
        <ele>147.6</ele>
        <time>2022-09-04T06:58:27Z</time>
      </trkpt>
      <trkpt lat="43.30093" lon="-1.49325">
        <ele>147.3</ele>
        <time>2022-09-04T06:58:28Z</time>
      </trkpt>
      <trkpt lat="43.30099" lon="-1.49322">
        <ele>147</ele>
        <time>2022-09-04T06:58:29Z</time>
      </trkpt>
      <trkpt lat="43.30106" lon="-1.49318">
        <ele>146.7</ele>
        <time>2022-09-04T06:58:30Z</time>
      </trkpt>
      <trkpt lat="43.30112" lon="-1.49315">
        <ele>146.4</ele>
        <time>2022-09-04T06:58:31Z</time>
      </trkpt>
      <trkpt lat="43.30119" lon="-1.4931">
        <ele>146.2</ele>
        <time>2022-09-04T06:58:32Z</time>
      </trkpt>
      <trkpt lat="43.30125" lon="-1.49306">
        <ele>146</ele>
        <time>2022-09-04T06:58:33Z</time>
      </trkpt>
      <trkpt lat="43.30131" lon="-1.49302">
        <ele>145.9</ele>
        <time>2022-09-04T06:58:34Z</time>
      </trkpt>
      <trkpt lat="43.30137" lon="-1.49297">
        <ele>145.8</ele>
        <time>2022-09-04T06:58:35Z</time>
      </trkpt>
      <trkpt lat="43.30142" lon="-1.49292">
        <ele>145.7</ele>
        <time>2022-09-04T06:58:36Z</time>
      </trkpt>
      <trkpt lat="43.30147" lon="-1.49288">
        <ele>145.7</ele>
        <time>2022-09-04T06:58:37Z</time>
      </trkpt>
      <trkpt lat="43.30152" lon="-1.49284">
        <ele>145.6</ele>
        <time>2022-09-04T06:58:38Z</time>
      </trkpt>
      <trkpt lat="43.30157" lon="-1.4928">
        <ele>145.6</ele>
        <time>2022-09-04T06:58:39Z</time>
      </trkpt>
      <trkpt lat="43.3016" lon="-1.49275">
        <ele>145.7</ele>
        <time>2022-09-04T06:58:40Z</time>
      </trkpt>
      <trkpt lat="43.30164" lon="-1.49269">
        <ele>146</ele>
        <time>2022-09-04T06:58:41Z</time>
      </trkpt>
      <trkpt lat="43.30166" lon="-1.49263">
        <ele>146.3</ele>
        <time>2022-09-04T06:58:42Z</time>
      </trkpt>
      <trkpt lat="43.30168" lon="-1.49259">
        <ele>146.6</ele>
        <time>2022-09-04T06:58:43Z</time>
      </trkpt>
      <trkpt lat="43.30169" lon="-1.49255">
        <ele>146.8</ele>
        <time>2022-09-04T06:58:44Z</time>
      </trkpt>
      <trkpt lat="43.30169" lon="-1.49254">
        <ele>146.9</ele>
        <time>2022-09-04T06:58:45Z</time>
      </trkpt>
      <trkpt lat="43.3017" lon="-1.49251">
        <ele>147.1</ele>
        <time>2022-09-04T06:58:46Z</time>
      </trkpt>
      <trkpt lat="43.3017" lon="-1.49249">
        <ele>147.3</ele>
        <time>2022-09-04T06:58:47Z</time>
      </trkpt>
      <trkpt lat="43.30171" lon="-1.49244">
        <ele>147.7</ele>
        <time>2022-09-04T06:58:48Z</time>
      </trkpt>
      <trkpt lat="43.30172" lon="-1.49243">
        <ele>147.8</ele>
        <time>2022-09-04T06:58:49Z</time>
      </trkpt>
      <trkpt lat="43.30173" lon="-1.49238">
        <ele>148.3</ele>
        <time>2022-09-04T06:58:50Z</time>
      </trkpt>
      <trkpt lat="43.30174" lon="-1.49236">
        <ele>148.5</ele>
        <time>2022-09-04T06:58:51Z</time>
      </trkpt>
      <trkpt lat="43.30175" lon="-1.49232">
        <ele>148.9</ele>
        <time>2022-09-04T06:58:52Z</time>
      </trkpt>
      <trkpt lat="43.30177" lon="-1.49229">
        <ele>149.2</ele>
        <time>2022-09-04T06:58:53Z</time>
      </trkpt>
      <trkpt lat="43.30179" lon="-1.49227">
        <ele>149.6</ele>
        <time>2022-09-04T06:58:54Z</time>
      </trkpt>
      <trkpt lat="43.30181" lon="-1.49224">
        <ele>150</ele>
        <time>2022-09-04T06:58:55Z</time>
      </trkpt>
      <trkpt lat="43.30183" lon="-1.49221">
        <ele>150.4</ele>
        <time>2022-09-04T06:58:56Z</time>
      </trkpt>
      <trkpt lat="43.30184" lon="-1.4922">
        <ele>150.5</ele>
        <time>2022-09-04T06:58:57Z</time>
      </trkpt>
      <trkpt lat="43.30186" lon="-1.49217">
        <ele>150.8</ele>
        <time>2022-09-04T06:58:58Z</time>
      </trkpt>
      <trkpt lat="43.30186" lon="-1.49215">
        <ele>150.9</ele>
        <time>2022-09-04T06:58:59Z</time>
      </trkpt>
      <trkpt lat="43.30188" lon="-1.49211">
        <ele>151.2</ele>
        <time>2022-09-04T06:59:00Z</time>
      </trkpt>
      <trkpt lat="43.30188" lon="-1.4921">
        <ele>151.3</ele>
        <time>2022-09-04T06:59:01Z</time>
      </trkpt>
      <trkpt lat="43.30189" lon="-1.49205">
        <ele>151.5</ele>
        <time>2022-09-04T06:59:02Z</time>
      </trkpt>
      <trkpt lat="43.30189" lon="-1.49204">
        <ele>151.5</ele>
        <time>2022-09-04T06:59:03Z</time>
      </trkpt>
      <trkpt lat="43.30189" lon="-1.492">
        <ele>151.6</ele>
        <time>2022-09-04T06:59:04Z</time>
      </trkpt>
      <trkpt lat="43.30189" lon="-1.49198">
        <ele>151.6</ele>
        <time>2022-09-04T06:59:05Z</time>
      </trkpt>
      <trkpt lat="43.3019" lon="-1.49194">
        <ele>151.6</ele>
        <time>2022-09-04T06:59:06Z</time>
      </trkpt>
      <trkpt lat="43.30191" lon="-1.49193">
        <ele>151.5</ele>
        <time>2022-09-04T06:59:07Z</time>
      </trkpt>
      <trkpt lat="43.30193" lon="-1.49191">
        <ele>151.4</ele>
        <time>2022-09-04T06:59:08Z</time>
      </trkpt>
      <trkpt lat="43.30197" lon="-1.4919">
        <ele>151.1</ele>
        <time>2022-09-04T06:59:09Z</time>
      </trkpt>
      <trkpt lat="43.30198" lon="-1.4919">
        <ele>151</ele>
        <time>2022-09-04T06:59:10Z</time>
      </trkpt>
      <trkpt lat="43.30202" lon="-1.49192">
        <ele>150.6</ele>
        <time>2022-09-04T06:59:11Z</time>
      </trkpt>
      <trkpt lat="43.30206" lon="-1.49194">
        <ele>150.1</ele>
        <time>2022-09-04T06:59:12Z</time>
      </trkpt>
      <trkpt lat="43.30212" lon="-1.49194">
        <ele>149.4</ele>
        <time>2022-09-04T06:59:13Z</time>
      </trkpt>
      <trkpt lat="43.30217" lon="-1.49191">
        <ele>148.8</ele>
        <time>2022-09-04T06:59:14Z</time>
      </trkpt>
      <trkpt lat="43.30222" lon="-1.49188">
        <ele>148.2</ele>
        <time>2022-09-04T06:59:15Z</time>
      </trkpt>
      <trkpt lat="43.30227" lon="-1.49187">
        <ele>147.7</ele>
        <time>2022-09-04T06:59:16Z</time>
      </trkpt>
      <trkpt lat="43.30231" lon="-1.4919">
        <ele>147.4</ele>
        <time>2022-09-04T06:59:17Z</time>
      </trkpt>
      <trkpt lat="43.30234" lon="-1.49195">
        <ele>147</ele>
        <time>2022-09-04T06:59:18Z</time>
      </trkpt>
      <trkpt lat="43.30235" lon="-1.49204">
        <ele>146.7</ele>
        <time>2022-09-04T06:59:19Z</time>
      </trkpt>
      <trkpt lat="43.30235" lon="-1.49211">
        <ele>146.5</ele>
        <time>2022-09-04T06:59:20Z</time>
      </trkpt>
      <trkpt lat="43.30234" lon="-1.49215">
        <ele>146.3</ele>
        <time>2022-09-04T06:59:21Z</time>
      </trkpt>
      <trkpt lat="43.30233" lon="-1.4922">
        <ele>146.2</ele>
        <time>2022-09-04T06:59:22Z</time>
      </trkpt>
      <trkpt lat="43.30231" lon="-1.49224">
        <ele>146.1</ele>
        <time>2022-09-04T06:59:23Z</time>
      </trkpt>
      <trkpt lat="43.3023" lon="-1.49229">
        <ele>146</ele>
        <time>2022-09-04T06:59:24Z</time>
      </trkpt>
      <trkpt lat="43.30229" lon="-1.49235">
        <ele>145.9</ele>
        <time>2022-09-04T06:59:25Z</time>
      </trkpt>
      <trkpt lat="43.3023" lon="-1.49239">
        <ele>145.8</ele>
        <time>2022-09-04T06:59:26Z</time>
      </trkpt>
      <trkpt lat="43.30231" lon="-1.49243">
        <ele>145.7</ele>
        <time>2022-09-04T06:59:27Z</time>
      </trkpt>
      <trkpt lat="43.30233" lon="-1.49248">
        <ele>145.6</ele>
        <time>2022-09-04T06:59:28Z</time>
      </trkpt>
      <trkpt lat="43.30236" lon="-1.49252">
        <ele>145.5</ele>
        <time>2022-09-04T06:59:29Z</time>
      </trkpt>
      <trkpt lat="43.30239" lon="-1.49256">
        <ele>145.4</ele>
        <time>2022-09-04T06:59:30Z</time>
      </trkpt>
      <trkpt lat="43.30243" lon="-1.4926">
        <ele>145.3</ele>
        <time>2022-09-04T06:59:31Z</time>
      </trkpt>
      <trkpt lat="43.30248" lon="-1.49264">
        <ele>145.1</ele>
        <time>2022-09-04T06:59:32Z</time>
      </trkpt>
      <trkpt lat="43.30255" lon="-1.49269">
        <ele>144.9</ele>
        <time>2022-09-04T06:59:33Z</time>
      </trkpt>
      <trkpt lat="43.30261" lon="-1.49273">
        <ele>144.8</ele>
        <time>2022-09-04T06:59:34Z</time>
      </trkpt>
      <trkpt lat="43.30267" lon="-1.49277">
        <ele>144.6</ele>
        <time>2022-09-04T06:59:35Z</time>
      </trkpt>
      <trkpt lat="43.30273" lon="-1.49282">
        <ele>144.6</ele>
        <time>2022-09-04T06:59:36Z</time>
      </trkpt>
      <trkpt lat="43.30279" lon="-1.49285">
        <ele>144.5</ele>
        <time>2022-09-04T06:59:37Z</time>
      </trkpt>
      <trkpt lat="43.30285" lon="-1.49287">
        <ele>144.5</ele>
        <time>2022-09-04T06:59:38Z</time>
      </trkpt>
      <trkpt lat="43.3029" lon="-1.49289">
        <ele>144.5</ele>
        <time>2022-09-04T06:59:39Z</time>
      </trkpt>
      <trkpt lat="43.30295" lon="-1.49291">
        <ele>144.5</ele>
        <time>2022-09-04T06:59:40Z</time>
      </trkpt>
      <trkpt lat="43.303" lon="-1.49292">
        <ele>144.4</ele>
        <time>2022-09-04T06:59:41Z</time>
      </trkpt>
      <trkpt lat="43.30304" lon="-1.49294">
        <ele>144.4</ele>
        <time>2022-09-04T06:59:42Z</time>
      </trkpt>
      <trkpt lat="43.30309" lon="-1.49297">
        <ele>144.4</ele>
        <time>2022-09-04T06:59:43Z</time>
      </trkpt>
      <trkpt lat="43.30314" lon="-1.49298">
        <ele>144.4</ele>
        <time>2022-09-04T06:59:44Z</time>
      </trkpt>
      <trkpt lat="43.30318" lon="-1.493">
        <ele>144.4</ele>
        <time>2022-09-04T06:59:45Z</time>
      </trkpt>
      <trkpt lat="43.30323" lon="-1.49301">
        <ele>144.4</ele>
        <time>2022-09-04T06:59:46Z</time>
      </trkpt>
      <trkpt lat="43.30327" lon="-1.49301">
        <ele>144.4</ele>
        <time>2022-09-04T06:59:47Z</time>
      </trkpt>
      <trkpt lat="43.30332" lon="-1.49302">
        <ele>144.4</ele>
        <time>2022-09-04T06:59:48Z</time>
      </trkpt>
      <trkpt lat="43.30336" lon="-1.49303">
        <ele>144.4</ele>
        <time>2022-09-04T06:59:49Z</time>
      </trkpt>
      <trkpt lat="43.3034" lon="-1.49303">
        <ele>144.4</ele>
        <time>2022-09-04T06:59:50Z</time>
      </trkpt>
      <trkpt lat="43.30344" lon="-1.49304">
        <ele>144.4</ele>
        <time>2022-09-04T06:59:51Z</time>
      </trkpt>
      <trkpt lat="43.30348" lon="-1.49305">
        <ele>144.4</ele>
        <time>2022-09-04T06:59:52Z</time>
      </trkpt>
      <trkpt lat="43.30353" lon="-1.49306">
        <ele>144.3</ele>
        <time>2022-09-04T06:59:53Z</time>
      </trkpt>
      <trkpt lat="43.30356" lon="-1.49306">
        <ele>144.3</ele>
        <time>2022-09-04T06:59:54Z</time>
      </trkpt>
      <trkpt lat="43.3036" lon="-1.49306">
        <ele>144.3</ele>
        <time>2022-09-04T06:59:55Z</time>
      </trkpt>
      <trkpt lat="43.30364" lon="-1.49306">
        <ele>144.3</ele>
        <time>2022-09-04T06:59:56Z</time>
      </trkpt>
      <trkpt lat="43.30368" lon="-1.49305">
        <ele>144.3</ele>
        <time>2022-09-04T06:59:57Z</time>
      </trkpt>
      <trkpt lat="43.30372" lon="-1.49305">
        <ele>144.3</ele>
        <time>2022-09-04T06:59:58Z</time>
      </trkpt>
      <trkpt lat="43.30377" lon="-1.49305">
        <ele>144.3</ele>
        <time>2022-09-04T06:59:59Z</time>
      </trkpt>
      <trkpt lat="43.30381" lon="-1.49305">
        <ele>144.3</ele>
        <time>2022-09-04T07:00:00Z</time>
      </trkpt>
      <trkpt lat="43.30385" lon="-1.49305">
        <ele>144.3</ele>
        <time>2022-09-04T07:00:01Z</time>
      </trkpt>
      <trkpt lat="43.30389" lon="-1.49306">
        <ele>144.4</ele>
        <time>2022-09-04T07:00:02Z</time>
      </trkpt>
      <trkpt lat="43.30393" lon="-1.49307">
        <ele>144.4</ele>
        <time>2022-09-04T07:00:03Z</time>
      </trkpt>
      <trkpt lat="43.30396" lon="-1.49308">
        <ele>144.5</ele>
        <time>2022-09-04T07:00:04Z</time>
      </trkpt>
      <trkpt lat="43.30399" lon="-1.49308">
        <ele>144.6</ele>
        <time>2022-09-04T07:00:05Z</time>
      </trkpt>
      <trkpt lat="43.30402" lon="-1.49308">
        <ele>144.7</ele>
        <time>2022-09-04T07:00:06Z</time>
      </trkpt>
      <trkpt lat="43.30406" lon="-1.49307">
        <ele>144.9</ele>
        <time>2022-09-04T07:00:07Z</time>
      </trkpt>
      <trkpt lat="43.30407" lon="-1.49307">
        <ele>145</ele>
        <time>2022-09-04T07:00:08Z</time>
      </trkpt>
      <trkpt lat="43.3041" lon="-1.49306">
        <ele>145.3</ele>
        <time>2022-09-04T07:00:09Z</time>
      </trkpt>
      <trkpt lat="43.30413" lon="-1.49305">
        <ele>145.5</ele>
        <time>2022-09-04T07:00:10Z</time>
      </trkpt>
      <trkpt lat="43.30416" lon="-1.49306">
        <ele>145.8</ele>
        <time>2022-09-04T07:00:11Z</time>
      </trkpt>
      <trkpt lat="43.3042" lon="-1.49307">
        <ele>146.3</ele>
        <time>2022-09-04T07:00:12Z</time>
      </trkpt>
      <trkpt lat="43.30421" lon="-1.49307">
        <ele>146.5</ele>
        <time>2022-09-04T07:00:13Z</time>
      </trkpt>
      <trkpt lat="43.30424" lon="-1.49306">
        <ele>146.9</ele>
        <time>2022-09-04T07:00:14Z</time>
      </trkpt>
      <trkpt lat="43.30426" lon="-1.49306">
        <ele>147.1</ele>
        <time>2022-09-04T07:00:15Z</time>
      </trkpt>
      <trkpt lat="43.30429" lon="-1.49305">
        <ele>147.6</ele>
        <time>2022-09-04T07:00:16Z</time>
      </trkpt>
      <trkpt lat="43.3043" lon="-1.49304">
        <ele>147.8</ele>
        <time>2022-09-04T07:00:17Z</time>
      </trkpt>
      <trkpt lat="43.30433" lon="-1.49302">
        <ele>148.3</ele>
        <time>2022-09-04T07:00:18Z</time>
      </trkpt>
      <trkpt lat="43.30434" lon="-1.49301">
        <ele>148.4</ele>
        <time>2022-09-04T07:00:19Z</time>
      </trkpt>
      <trkpt lat="43.30436" lon="-1.493">
        <ele>148.9</ele>
        <time>2022-09-04T07:00:20Z</time>
      </trkpt>
      <trkpt lat="43.30437" lon="-1.493">
        <ele>149.1</ele>
        <time>2022-09-04T07:00:21Z</time>
      </trkpt>
      <trkpt lat="43.3044" lon="-1.49299">
        <ele>149.6</ele>
        <time>2022-09-04T07:00:22Z</time>
      </trkpt>
      <trkpt lat="43.30441" lon="-1.49299">
        <ele>149.7</ele>
        <time>2022-09-04T07:00:23Z</time>
      </trkpt>
      <trkpt lat="43.30444" lon="-1.49298">
        <ele>150.1</ele>
        <time>2022-09-04T07:00:24Z</time>
      </trkpt>
      <trkpt lat="43.30444" lon="-1.49297">
        <ele>150.2</ele>
        <time>2022-09-04T07:00:25Z</time>
      </trkpt>
      <trkpt lat="43.30445" lon="-1.49297">
        <ele>150.4</ele>
        <time>2022-09-04T07:00:26Z</time>
      </trkpt>
      <trkpt lat="43.30448" lon="-1.49294">
        <ele>150.9</ele>
        <time>2022-09-04T07:00:27Z</time>
      </trkpt>
      <trkpt lat="43.30449" lon="-1.49293">
        <ele>151.1</ele>
        <time>2022-09-04T07:00:28Z</time>
      </trkpt>
      <trkpt lat="43.30452" lon="-1.49291">
        <ele>151.6</ele>
        <time>2022-09-04T07:00:29Z</time>
      </trkpt>
      <trkpt lat="43.30453" lon="-1.4929">
        <ele>151.8</ele>
        <time>2022-09-04T07:00:30Z</time>
      </trkpt>
      <trkpt lat="43.30455" lon="-1.49289">
        <ele>152.2</ele>
        <time>2022-09-04T07:00:31Z</time>
      </trkpt>
      <trkpt lat="43.30456" lon="-1.49288">
        <ele>152.4</ele>
        <time>2022-09-04T07:00:32Z</time>
      </trkpt>
      <trkpt lat="43.30458" lon="-1.49288">
        <ele>152.7</ele>
        <time>2022-09-04T07:00:33Z</time>
      </trkpt>
      <trkpt lat="43.30459" lon="-1.49287">
        <ele>153</ele>
        <time>2022-09-04T07:00:34Z</time>
      </trkpt>
      <trkpt lat="43.30461" lon="-1.49286">
        <ele>153.2</ele>
        <time>2022-09-04T07:00:35Z</time>
      </trkpt>
      <trkpt lat="43.30462" lon="-1.49285">
        <ele>153.5</ele>
        <time>2022-09-04T07:00:36Z</time>
      </trkpt>
      <trkpt lat="43.30463" lon="-1.49284">
        <ele>153.7</ele>
        <time>2022-09-04T07:00:37Z</time>
      </trkpt>
      <trkpt lat="43.30464" lon="-1.49283">
        <ele>153.9</ele>
        <time>2022-09-04T07:00:38Z</time>
      </trkpt>
      <trkpt lat="43.30465" lon="-1.49282">
        <ele>154.1</ele>
        <time>2022-09-04T07:00:39Z</time>
      </trkpt>
      <trkpt lat="43.30466" lon="-1.49282">
        <ele>154.2</ele>
        <time>2022-09-04T07:00:40Z</time>
      </trkpt>
      <trkpt lat="43.30469" lon="-1.49278">
        <ele>154.8</ele>
        <time>2022-09-04T07:00:41Z</time>
      </trkpt>
      <trkpt lat="43.30469" lon="-1.49277">
        <ele>155</ele>
        <time>2022-09-04T07:00:42Z</time>
      </trkpt>
      <trkpt lat="43.30472" lon="-1.49275">
        <ele>155.5</ele>
        <time>2022-09-04T07:00:43Z</time>
      </trkpt>
      <trkpt lat="43.30473" lon="-1.49274">
        <ele>155.7</ele>
        <time>2022-09-04T07:00:44Z</time>
      </trkpt>
      <trkpt lat="43.30476" lon="-1.49272">
        <ele>156.3</ele>
        <time>2022-09-04T07:00:45Z</time>
      </trkpt>
      <trkpt lat="43.30477" lon="-1.49271">
        <ele>156.5</ele>
        <time>2022-09-04T07:00:46Z</time>
      </trkpt>
      <trkpt lat="43.3048" lon="-1.49268">
        <ele>157.1</ele>
        <time>2022-09-04T07:00:47Z</time>
      </trkpt>
      <trkpt lat="43.30481" lon="-1.49267">
        <ele>157.2</ele>
        <time>2022-09-04T07:00:48Z</time>
      </trkpt>
      <trkpt lat="43.30484" lon="-1.49265">
        <ele>157.7</ele>
        <time>2022-09-04T07:00:49Z</time>
      </trkpt>
      <trkpt lat="43.30485" lon="-1.49264">
        <ele>157.9</ele>
        <time>2022-09-04T07:00:50Z</time>
      </trkpt>
      <trkpt lat="43.30488" lon="-1.49261">
        <ele>158.4</ele>
        <time>2022-09-04T07:00:51Z</time>
      </trkpt>
      <trkpt lat="43.30489" lon="-1.4926">
        <ele>158.6</ele>
        <time>2022-09-04T07:00:52Z</time>
      </trkpt>
      <trkpt lat="43.30492" lon="-1.49259">
        <ele>159.1</ele>
        <time>2022-09-04T07:00:53Z</time>
      </trkpt>
      <trkpt lat="43.30495" lon="-1.49257">
        <ele>159.5</ele>
        <time>2022-09-04T07:00:54Z</time>
      </trkpt>
      <trkpt lat="43.30496" lon="-1.49256">
        <ele>159.7</ele>
        <time>2022-09-04T07:00:55Z</time>
      </trkpt>
      <trkpt lat="43.305" lon="-1.49254">
        <ele>160.2</ele>
        <time>2022-09-04T07:00:56Z</time>
      </trkpt>
      <trkpt lat="43.30501" lon="-1.49253">
        <ele>160.3</ele>
        <time>2022-09-04T07:00:57Z</time>
      </trkpt>
      <trkpt lat="43.30504" lon="-1.49252">
        <ele>160.7</ele>
        <time>2022-09-04T07:00:58Z</time>
      </trkpt>
      <trkpt lat="43.30507" lon="-1.4925">
        <ele>161</ele>
        <time>2022-09-04T07:00:59Z</time>
      </trkpt>
      <trkpt lat="43.30507" lon="-1.4925">
        <ele>161.1</ele>
        <time>2022-09-04T07:01:00Z</time>
      </trkpt>
      <trkpt lat="43.30508" lon="-1.49248">
        <ele>161.3</ele>
        <time>2022-09-04T07:01:01Z</time>
      </trkpt>
      <trkpt lat="43.3051" lon="-1.49246">
        <ele>161.5</ele>
        <time>2022-09-04T07:01:02Z</time>
      </trkpt>
      <trkpt lat="43.30511" lon="-1.49245">
        <ele>161.7</ele>
        <time>2022-09-04T07:01:03Z</time>
      </trkpt>
      <trkpt lat="43.30512" lon="-1.49244">
        <ele>161.8</ele>
        <time>2022-09-04T07:01:04Z</time>
      </trkpt>
      <trkpt lat="43.30512" lon="-1.49243">
        <ele>161.9</ele>
        <time>2022-09-04T07:01:05Z</time>
      </trkpt>
      <trkpt lat="43.30513" lon="-1.49243">
        <ele>161.9</ele>
        <time>2022-09-04T07:01:06Z</time>
      </trkpt>
      <trkpt lat="43.30513" lon="-1.49242">
        <ele>162</ele>
        <time>2022-09-04T07:01:07Z</time>
      </trkpt>
      <trkpt lat="43.30513" lon="-1.49242">
        <ele>162.1</ele>
        <time>2022-09-04T07:01:08Z</time>
      </trkpt>
      <trkpt lat="43.30513" lon="-1.49242">
        <ele>162.1</ele>
        <time>2022-09-04T07:01:09Z</time>
      </trkpt>
      <trkpt lat="43.30513" lon="-1.4924">
        <ele>162.2</ele>
        <time>2022-09-04T07:01:10Z</time>
      </trkpt>
      <trkpt lat="43.30513" lon="-1.49238">
        <ele>162.3</ele>
        <time>2022-09-04T07:01:11Z</time>
      </trkpt>
      <trkpt lat="43.30512" lon="-1.49237">
        <ele>162.5</ele>
        <time>2022-09-04T07:01:12Z</time>
      </trkpt>
      <trkpt lat="43.30511" lon="-1.49237">
        <ele>162.5</ele>
        <time>2022-09-04T07:01:13Z</time>
      </trkpt>
      <trkpt lat="43.30511" lon="-1.49237">
        <ele>162.5</ele>
        <time>2022-09-04T07:01:14Z</time>
      </trkpt>
      <trkpt lat="43.30511" lon="-1.49237">
        <ele>162.5</ele>
        <time>2022-09-04T07:01:15Z</time>
      </trkpt>
      <trkpt lat="43.30511" lon="-1.49237">
        <ele>162.5</ele>
        <time>2022-09-04T07:01:16Z</time>
      </trkpt>
      <trkpt lat="43.3051" lon="-1.49235">
        <ele>162.6</ele>
        <time>2022-09-04T07:01:17Z</time>
      </trkpt>
      <trkpt lat="43.3051" lon="-1.49234">
        <ele>162.7</ele>
        <time>2022-09-04T07:01:18Z</time>
      </trkpt>
      <trkpt lat="43.30511" lon="-1.49233">
        <ele>162.8</ele>
        <time>2022-09-04T07:01:19Z</time>
      </trkpt>
      <trkpt lat="43.30512" lon="-1.49232">
        <ele>162.9</ele>
        <time>2022-09-04T07:01:20Z</time>
      </trkpt>
      <trkpt lat="43.30512" lon="-1.49232">
        <ele>162.9</ele>
        <time>2022-09-04T07:01:21Z</time>
      </trkpt>
      <trkpt lat="43.30512" lon="-1.49232">
        <ele>162.9</ele>
        <time>2022-09-04T07:01:22Z</time>
      </trkpt>
      <trkpt lat="43.30512" lon="-1.49232">
        <ele>162.9</ele>
        <time>2022-09-04T07:01:23Z</time>
      </trkpt>
      <trkpt lat="43.30512" lon="-1.49232">
        <ele>162.9</ele>
        <time>2022-09-04T07:01:24Z</time>
      </trkpt>
      <trkpt lat="43.30512" lon="-1.49232">
        <ele>162.9</ele>
        <time>2022-09-04T07:01:25Z</time>
      </trkpt>
      <trkpt lat="43.30512" lon="-1.49232">
        <ele>162.9</ele>
        <time>2022-09-04T07:01:26Z</time>
      </trkpt>
      <trkpt lat="43.30512" lon="-1.49232">
        <ele>162.9</ele>
        <time>2022-09-04T07:01:27Z</time>
      </trkpt>
      <trkpt lat="43.30512" lon="-1.49232">
        <ele>162.9</ele>
        <time>2022-09-04T07:01:28Z</time>
      </trkpt>
      <trkpt lat="43.30512" lon="-1.49232">
        <ele>162.9</ele>
        <time>2022-09-04T07:01:29Z</time>
      </trkpt>
      <trkpt lat="43.30512" lon="-1.49232">
        <ele>162.9</ele>
        <time>2022-09-04T07:01:30Z</time>
      </trkpt>
      <trkpt lat="43.30516" lon="-1.49234">
        <ele>163.2</ele>
        <time>2022-09-04T07:01:39Z</time>
      </trkpt>
      <trkpt lat="43.30518" lon="-1.49236">
        <ele>163.4</ele>
        <time>2022-09-04T07:01:40Z</time>
      </trkpt>
      <trkpt lat="43.30519" lon="-1.49237">
        <ele>163.5</ele>
        <time>2022-09-04T07:01:41Z</time>
      </trkpt>
      <trkpt lat="43.3052" lon="-1.49238">
        <ele>163.6</ele>
        <time>2022-09-04T07:01:42Z</time>
      </trkpt>
      <trkpt lat="43.30521" lon="-1.49238">
        <ele>163.6</ele>
        <time>2022-09-04T07:01:43Z</time>
      </trkpt>
      <trkpt lat="43.30521" lon="-1.49238">
        <ele>163.6</ele>
        <time>2022-09-04T07:01:44Z</time>
      </trkpt>
      <trkpt lat="43.30522" lon="-1.49238">
        <ele>163.7</ele>
        <time>2022-09-04T07:01:45Z</time>
      </trkpt>
      <trkpt lat="43.30522" lon="-1.49239">
        <ele>163.7</ele>
        <time>2022-09-04T07:01:46Z</time>
      </trkpt>
      <trkpt lat="43.30523" lon="-1.49239">
        <ele>163.8</ele>
        <time>2022-09-04T07:01:47Z</time>
      </trkpt>
      <trkpt lat="43.30523" lon="-1.49239">
        <ele>163.8</ele>
        <time>2022-09-04T07:01:48Z</time>
      </trkpt>
      <trkpt lat="43.30524" lon="-1.49239">
        <ele>163.8</ele>
        <time>2022-09-04T07:01:49Z</time>
      </trkpt>
      <trkpt lat="43.30525" lon="-1.4924">
        <ele>163.7</ele>
        <time>2022-09-04T07:01:50Z</time>
      </trkpt>
      <trkpt lat="43.30525" lon="-1.4924">
        <ele>163.7</ele>
        <time>2022-09-04T07:01:51Z</time>
      </trkpt>
      <trkpt lat="43.30526" lon="-1.4924">
        <ele>163.6</ele>
        <time>2022-09-04T07:01:52Z</time>
      </trkpt>
      <trkpt lat="43.30526" lon="-1.4924">
        <ele>163.6</ele>
        <time>2022-09-04T07:01:53Z</time>
      </trkpt>
      <trkpt lat="43.30527" lon="-1.49241">
        <ele>163.6</ele>
        <time>2022-09-04T07:02:46Z</time>
      </trkpt>
      <trkpt lat="43.30527" lon="-1.49241">
        <ele>163.5</ele>
        <time>2022-09-04T07:02:47Z</time>
      </trkpt>
      <trkpt lat="43.30528" lon="-1.49241">
        <ele>163.5</ele>
        <time>2022-09-04T07:02:48Z</time>
      </trkpt>
      <trkpt lat="43.30531" lon="-1.49239">
        <ele>163.2</ele>
        <time>2022-09-04T07:02:49Z</time>
      </trkpt>
      <trkpt lat="43.30534" lon="-1.49237">
        <ele>162.9</ele>
        <time>2022-09-04T07:02:50Z</time>
      </trkpt>
      <trkpt lat="43.30538" lon="-1.49235">
        <ele>162.6</ele>
        <time>2022-09-04T07:02:51Z</time>
      </trkpt>
      <trkpt lat="43.30542" lon="-1.49233">
        <ele>162.3</ele>
        <time>2022-09-04T07:02:52Z</time>
      </trkpt>
      <trkpt lat="43.30547" lon="-1.49231">
        <ele>162</ele>
        <time>2022-09-04T07:02:53Z</time>
      </trkpt>
      <trkpt lat="43.30551" lon="-1.49229">
        <ele>161.8</ele>
        <time>2022-09-04T07:02:54Z</time>
      </trkpt>
      <trkpt lat="43.30556" lon="-1.49227">
        <ele>161.4</ele>
        <time>2022-09-04T07:02:55Z</time>
      </trkpt>
      <trkpt lat="43.30561" lon="-1.49224">
        <ele>161</ele>
        <time>2022-09-04T07:02:56Z</time>
      </trkpt>
      <trkpt lat="43.30567" lon="-1.49222">
        <ele>160.5</ele>
        <time>2022-09-04T07:02:57Z</time>
      </trkpt>
      <trkpt lat="43.30574" lon="-1.4922">
        <ele>160</ele>
        <time>2022-09-04T07:02:58Z</time>
      </trkpt>
      <trkpt lat="43.3058" lon="-1.49219">
        <ele>159.4</ele>
        <time>2022-09-04T07:02:59Z</time>
      </trkpt>
      <trkpt lat="43.30587" lon="-1.49218">
        <ele>158.9</ele>
        <time>2022-09-04T07:03:00Z</time>
      </trkpt>
      <trkpt lat="43.30595" lon="-1.49217">
        <ele>158.6</ele>
        <time>2022-09-04T07:03:01Z</time>
      </trkpt>
      <trkpt lat="43.30602" lon="-1.49217">
        <ele>158.4</ele>
        <time>2022-09-04T07:03:02Z</time>
      </trkpt>
      <trkpt lat="43.3061" lon="-1.49218">
        <ele>158.2</ele>
        <time>2022-09-04T07:03:03Z</time>
      </trkpt>
      <trkpt lat="43.30617" lon="-1.49218">
        <ele>158.7</ele>
        <time>2022-09-04T07:03:04Z</time>
      </trkpt>
      <trkpt lat="43.30623" lon="-1.49218">
        <ele>159.3</ele>
        <time>2022-09-04T07:03:05Z</time>
      </trkpt>
      <trkpt lat="43.30629" lon="-1.49217">
        <ele>159.8</ele>
        <time>2022-09-04T07:03:06Z</time>
      </trkpt>
      <trkpt lat="43.30633" lon="-1.49216">
        <ele>160.2</ele>
        <time>2022-09-04T07:03:07Z</time>
      </trkpt>
      <trkpt lat="43.30636" lon="-1.49215">
        <ele>160.5</ele>
        <time>2022-09-04T07:03:08Z</time>
      </trkpt>
      <trkpt lat="43.30639" lon="-1.49213">
        <ele>160.8</ele>
        <time>2022-09-04T07:03:09Z</time>
      </trkpt>
      <trkpt lat="43.3064" lon="-1.49212">
        <ele>160.9</ele>
        <time>2022-09-04T07:03:10Z</time>
      </trkpt>
      <trkpt lat="43.30643" lon="-1.4921">
        <ele>161.1</ele>
        <time>2022-09-04T07:03:11Z</time>
      </trkpt>
      <trkpt lat="43.30644" lon="-1.49209">
        <ele>161.2</ele>
        <time>2022-09-04T07:03:12Z</time>
      </trkpt>
      <trkpt lat="43.30647" lon="-1.49206">
        <ele>161.5</ele>
        <time>2022-09-04T07:03:13Z</time>
      </trkpt>
      <trkpt lat="43.30648" lon="-1.49204">
        <ele>161.6</ele>
        <time>2022-09-04T07:03:14Z</time>
      </trkpt>
      <trkpt lat="43.30648" lon="-1.49201">
        <ele>161.6</ele>
        <time>2022-09-04T07:03:15Z</time>
      </trkpt>
      <trkpt lat="43.30648" lon="-1.49196">
        <ele>161.7</ele>
        <time>2022-09-04T07:03:16Z</time>
      </trkpt>
      <trkpt lat="43.30647" lon="-1.49192">
        <ele>161.7</ele>
        <time>2022-09-04T07:03:17Z</time>
      </trkpt>
      <trkpt lat="43.30647" lon="-1.49187">
        <ele>161.8</ele>
        <time>2022-09-04T07:03:18Z</time>
      </trkpt>
      <trkpt lat="43.30646" lon="-1.49182">
        <ele>161.8</ele>
        <time>2022-09-04T07:03:19Z</time>
      </trkpt>
      <trkpt lat="43.30646" lon="-1.49178">
        <ele>161.8</ele>
        <time>2022-09-04T07:03:20Z</time>
      </trkpt>
      <trkpt lat="43.30646" lon="-1.49174">
        <ele>161.9</ele>
        <time>2022-09-04T07:03:21Z</time>
      </trkpt>
      <trkpt lat="43.30645" lon="-1.49169">
        <ele>161.9</ele>
        <time>2022-09-04T07:03:22Z</time>
      </trkpt>
      <trkpt lat="43.30645" lon="-1.49165">
        <ele>162</ele>
        <time>2022-09-04T07:03:23Z</time>
      </trkpt>
      <trkpt lat="43.30645" lon="-1.49161">
        <ele>162</ele>
        <time>2022-09-04T07:03:24Z</time>
      </trkpt>
      <trkpt lat="43.30645" lon="-1.49157">
        <ele>162</ele>
        <time>2022-09-04T07:03:25Z</time>
      </trkpt>
      <trkpt lat="43.30644" lon="-1.49153">
        <ele>162.1</ele>
        <time>2022-09-04T07:03:26Z</time>
      </trkpt>
      <trkpt lat="43.30644" lon="-1.49149">
        <ele>162.1</ele>
        <time>2022-09-04T07:03:27Z</time>
      </trkpt>
      <trkpt lat="43.30643" lon="-1.49144">
        <ele>162.1</ele>
        <time>2022-09-04T07:03:28Z</time>
      </trkpt>
      <trkpt lat="43.30643" lon="-1.4914">
        <ele>162.1</ele>
        <time>2022-09-04T07:03:29Z</time>
      </trkpt>
      <trkpt lat="43.30642" lon="-1.49136">
        <ele>162</ele>
        <time>2022-09-04T07:03:30Z</time>
      </trkpt>
      <trkpt lat="43.30641" lon="-1.49132">
        <ele>162</ele>
        <time>2022-09-04T07:03:31Z</time>
      </trkpt>
      <trkpt lat="43.3064" lon="-1.49127">
        <ele>161.9</ele>
        <time>2022-09-04T07:03:32Z</time>
      </trkpt>
      <trkpt lat="43.30639" lon="-1.49123">
        <ele>161.9</ele>
        <time>2022-09-04T07:03:33Z</time>
      </trkpt>
      <trkpt lat="43.30638" lon="-1.49118">
        <ele>161.8</ele>
        <time>2022-09-04T07:03:34Z</time>
      </trkpt>
      <trkpt lat="43.30637" lon="-1.49113">
        <ele>161.8</ele>
        <time>2022-09-04T07:03:35Z</time>
      </trkpt>
      <trkpt lat="43.30637" lon="-1.49109">
        <ele>161.7</ele>
        <time>2022-09-04T07:03:36Z</time>
      </trkpt>
      <trkpt lat="43.30636" lon="-1.49104">
        <ele>161.7</ele>
        <time>2022-09-04T07:03:37Z</time>
      </trkpt>
      <trkpt lat="43.30635" lon="-1.491">
        <ele>161.7</ele>
        <time>2022-09-04T07:03:38Z</time>
      </trkpt>
      <trkpt lat="43.30635" lon="-1.49096">
        <ele>161.7</ele>
        <time>2022-09-04T07:03:39Z</time>
      </trkpt>
      <trkpt lat="43.30635" lon="-1.49092">
        <ele>161.7</ele>
        <time>2022-09-04T07:03:40Z</time>
      </trkpt>
      <trkpt lat="43.30635" lon="-1.49088">
        <ele>161.7</ele>
        <time>2022-09-04T07:03:41Z</time>
      </trkpt>
      <trkpt lat="43.30635" lon="-1.49083">
        <ele>161.7</ele>
        <time>2022-09-04T07:03:42Z</time>
      </trkpt>
      <trkpt lat="43.30635" lon="-1.49081">
        <ele>161.7</ele>
        <time>2022-09-04T07:03:43Z</time>
      </trkpt>
      <trkpt lat="43.30635" lon="-1.49075">
        <ele>161.8</ele>
        <time>2022-09-04T07:03:44Z</time>
      </trkpt>
      <trkpt lat="43.30635" lon="-1.49074">
        <ele>161.8</ele>
        <time>2022-09-04T07:03:45Z</time>
      </trkpt>
      <trkpt lat="43.30635" lon="-1.49069">
        <ele>161.9</ele>
        <time>2022-09-04T07:03:46Z</time>
      </trkpt>
      <trkpt lat="43.30636" lon="-1.49068">
        <ele>161.9</ele>
        <time>2022-09-04T07:03:47Z</time>
      </trkpt>
      <trkpt lat="43.30636" lon="-1.49064">
        <ele>162</ele>
        <time>2022-09-04T07:03:48Z</time>
      </trkpt>
      <trkpt lat="43.30636" lon="-1.49062">
        <ele>162</ele>
        <time>2022-09-04T07:03:49Z</time>
      </trkpt>
      <trkpt lat="43.30636" lon="-1.49059">
        <ele>162.1</ele>
        <time>2022-09-04T07:03:50Z</time>
      </trkpt>
      <trkpt lat="43.30636" lon="-1.49057">
        <ele>162.2</ele>
        <time>2022-09-04T07:03:51Z</time>
      </trkpt>
      <trkpt lat="43.30635" lon="-1.49053">
        <ele>162.3</ele>
        <time>2022-09-04T07:03:52Z</time>
      </trkpt>
      <trkpt lat="43.30634" lon="-1.49052">
        <ele>162.4</ele>
        <time>2022-09-04T07:03:53Z</time>
      </trkpt>
      <trkpt lat="43.30633" lon="-1.49047">
        <ele>162.6</ele>
        <time>2022-09-04T07:03:54Z</time>
      </trkpt>
      <trkpt lat="43.30633" lon="-1.49046">
        <ele>162.7</ele>
        <time>2022-09-04T07:03:55Z</time>
      </trkpt>
      <trkpt lat="43.30632" lon="-1.49041">
        <ele>163</ele>
        <time>2022-09-04T07:03:56Z</time>
      </trkpt>
      <trkpt lat="43.30631" lon="-1.4904">
        <ele>163.1</ele>
        <time>2022-09-04T07:03:57Z</time>
      </trkpt>
      <trkpt lat="43.3063" lon="-1.49035">
        <ele>163.5</ele>
        <time>2022-09-04T07:03:58Z</time>
      </trkpt>
      <trkpt lat="43.3063" lon="-1.49033">
        <ele>163.6</ele>
        <time>2022-09-04T07:03:59Z</time>
      </trkpt>
      <trkpt lat="43.30631" lon="-1.4903">
        <ele>163.8</ele>
        <time>2022-09-04T07:04:00Z</time>
      </trkpt>
      <trkpt lat="43.30631" lon="-1.49029">
        <ele>164</ele>
        <time>2022-09-04T07:04:01Z</time>
      </trkpt>
      <trkpt lat="43.30633" lon="-1.49026">
        <ele>164.3</ele>
        <time>2022-09-04T07:04:02Z</time>
      </trkpt>
      <trkpt lat="43.30634" lon="-1.49025">
        <ele>164.5</ele>
        <time>2022-09-04T07:04:03Z</time>
      </trkpt>
      <trkpt lat="43.30637" lon="-1.49022">
        <ele>164.9</ele>
        <time>2022-09-04T07:04:04Z</time>
      </trkpt>
      <trkpt lat="43.30638" lon="-1.49021">
        <ele>165</ele>
        <time>2022-09-04T07:04:05Z</time>
      </trkpt>
      <trkpt lat="43.30641" lon="-1.49018">
        <ele>165.5</ele>
        <time>2022-09-04T07:04:06Z</time>
      </trkpt>
      <trkpt lat="43.30642" lon="-1.49017">
        <ele>165.6</ele>
        <time>2022-09-04T07:04:07Z</time>
      </trkpt>
      <trkpt lat="43.30644" lon="-1.49016">
        <ele>165.8</ele>
        <time>2022-09-04T07:04:08Z</time>
      </trkpt>
      <trkpt lat="43.30645" lon="-1.49015">
        <ele>166.1</ele>
        <time>2022-09-04T07:04:09Z</time>
      </trkpt>
      <trkpt lat="43.30646" lon="-1.49013">
        <ele>166.3</ele>
        <time>2022-09-04T07:04:10Z</time>
      </trkpt>
      <trkpt lat="43.30648" lon="-1.49012">
        <ele>166.5</ele>
        <time>2022-09-04T07:04:11Z</time>
      </trkpt>
      <trkpt lat="43.3065" lon="-1.49009">
        <ele>166.9</ele>
        <time>2022-09-04T07:04:12Z</time>
      </trkpt>
      <trkpt lat="43.30651" lon="-1.49008">
        <ele>167.1</ele>
        <time>2022-09-04T07:04:13Z</time>
      </trkpt>
      <trkpt lat="43.30653" lon="-1.49005">
        <ele>167.5</ele>
        <time>2022-09-04T07:04:14Z</time>
      </trkpt>
      <trkpt lat="43.30653" lon="-1.49004">
        <ele>167.6</ele>
        <time>2022-09-04T07:04:15Z</time>
      </trkpt>
      <trkpt lat="43.30655" lon="-1.49">
        <ele>168</ele>
        <time>2022-09-04T07:04:16Z</time>
      </trkpt>
      <trkpt lat="43.30656" lon="-1.48999">
        <ele>168.2</ele>
        <time>2022-09-04T07:04:17Z</time>
      </trkpt>
      <trkpt lat="43.30658" lon="-1.48997">
        <ele>168.6</ele>
        <time>2022-09-04T07:04:18Z</time>
      </trkpt>
      <trkpt lat="43.3066" lon="-1.48994">
        <ele>169.1</ele>
        <time>2022-09-04T07:04:19Z</time>
      </trkpt>
      <trkpt lat="43.30663" lon="-1.48991">
        <ele>169.6</ele>
        <time>2022-09-04T07:04:20Z</time>
      </trkpt>
      <trkpt lat="43.30664" lon="-1.4899">
        <ele>169.8</ele>
        <time>2022-09-04T07:04:21Z</time>
      </trkpt>
      <trkpt lat="43.30666" lon="-1.48989">
        <ele>170.2</ele>
        <time>2022-09-04T07:04:22Z</time>
      </trkpt>
      <trkpt lat="43.30667" lon="-1.48988">
        <ele>170.3</ele>
        <time>2022-09-04T07:04:23Z</time>
      </trkpt>
      <trkpt lat="43.3067" lon="-1.48986">
        <ele>170.8</ele>
        <time>2022-09-04T07:04:24Z</time>
      </trkpt>
      <trkpt lat="43.3067" lon="-1.48985">
        <ele>171</ele>
        <time>2022-09-04T07:04:25Z</time>
      </trkpt>
      <trkpt lat="43.30672" lon="-1.48982">
        <ele>171.4</ele>
        <time>2022-09-04T07:04:26Z</time>
      </trkpt>
      <trkpt lat="43.30673" lon="-1.48981">
        <ele>171.6</ele>
        <time>2022-09-04T07:04:27Z</time>
      </trkpt>
      <trkpt lat="43.30674" lon="-1.48977">
        <ele>172.1</ele>
        <time>2022-09-04T07:04:28Z</time>
      </trkpt>
      <trkpt lat="43.30675" lon="-1.48976">
        <ele>172.2</ele>
        <time>2022-09-04T07:04:29Z</time>
      </trkpt>
      <trkpt lat="43.30676" lon="-1.48972">
        <ele>172.7</ele>
        <time>2022-09-04T07:04:30Z</time>
      </trkpt>
      <trkpt lat="43.30676" lon="-1.48971">
        <ele>172.9</ele>
        <time>2022-09-04T07:04:31Z</time>
      </trkpt>
      <trkpt lat="43.30677" lon="-1.48967">
        <ele>173.4</ele>
        <time>2022-09-04T07:04:32Z</time>
      </trkpt>
      <trkpt lat="43.30677" lon="-1.48966">
        <ele>173.6</ele>
        <time>2022-09-04T07:04:33Z</time>
      </trkpt>
      <trkpt lat="43.30677" lon="-1.48961">
        <ele>174.1</ele>
        <time>2022-09-04T07:04:34Z</time>
      </trkpt>
      <trkpt lat="43.30678" lon="-1.4896">
        <ele>174.3</ele>
        <time>2022-09-04T07:04:35Z</time>
      </trkpt>
      <trkpt lat="43.30678" lon="-1.48955">
        <ele>174.8</ele>
        <time>2022-09-04T07:04:36Z</time>
      </trkpt>
      <trkpt lat="43.30678" lon="-1.48954">
        <ele>174.9</ele>
        <time>2022-09-04T07:04:37Z</time>
      </trkpt>
      <trkpt lat="43.30679" lon="-1.4895">
        <ele>175.4</ele>
        <time>2022-09-04T07:04:38Z</time>
      </trkpt>
      <trkpt lat="43.30679" lon="-1.48948">
        <ele>175.6</ele>
        <time>2022-09-04T07:04:39Z</time>
      </trkpt>
      <trkpt lat="43.3068" lon="-1.48944">
        <ele>176</ele>
        <time>2022-09-04T07:04:40Z</time>
      </trkpt>
      <trkpt lat="43.3068" lon="-1.48943">
        <ele>176.2</ele>
        <time>2022-09-04T07:04:41Z</time>
      </trkpt>
      <trkpt lat="43.30681" lon="-1.48939">
        <ele>176.6</ele>
        <time>2022-09-04T07:04:42Z</time>
      </trkpt>
      <trkpt lat="43.30682" lon="-1.48938">
        <ele>176.7</ele>
        <time>2022-09-04T07:04:43Z</time>
      </trkpt>
      <trkpt lat="43.30683" lon="-1.48934">
        <ele>177.2</ele>
        <time>2022-09-04T07:04:44Z</time>
      </trkpt>
      <trkpt lat="43.30683" lon="-1.48933">
        <ele>177.3</ele>
        <time>2022-09-04T07:04:45Z</time>
      </trkpt>
      <trkpt lat="43.30684" lon="-1.48929">
        <ele>177.8</ele>
        <time>2022-09-04T07:04:46Z</time>
      </trkpt>
      <trkpt lat="43.30684" lon="-1.48928">
        <ele>177.9</ele>
        <time>2022-09-04T07:04:47Z</time>
      </trkpt>
      <trkpt lat="43.30684" lon="-1.48926">
        <ele>178.1</ele>
        <time>2022-09-04T07:04:48Z</time>
      </trkpt>
      <trkpt lat="43.30685" lon="-1.48923">
        <ele>178.4</ele>
        <time>2022-09-04T07:04:49Z</time>
      </trkpt>
      <trkpt lat="43.30685" lon="-1.48921">
        <ele>178.6</ele>
        <time>2022-09-04T07:04:50Z</time>
      </trkpt>
      <trkpt lat="43.30686" lon="-1.48919">
        <ele>178.8</ele>
        <time>2022-09-04T07:04:51Z</time>
      </trkpt>
      <trkpt lat="43.30687" lon="-1.48916">
        <ele>179.2</ele>
        <time>2022-09-04T07:04:52Z</time>
      </trkpt>
      <trkpt lat="43.30687" lon="-1.48915">
        <ele>179.4</ele>
        <time>2022-09-04T07:04:53Z</time>
      </trkpt>
      <trkpt lat="43.30688" lon="-1.48912">
        <ele>179.6</ele>
        <time>2022-09-04T07:04:54Z</time>
      </trkpt>
      <trkpt lat="43.30688" lon="-1.48911">
        <ele>179.8</ele>
        <time>2022-09-04T07:04:55Z</time>
      </trkpt>
      <trkpt lat="43.30689" lon="-1.4891">
        <ele>179.9</ele>
        <time>2022-09-04T07:04:56Z</time>
      </trkpt>
      <trkpt lat="43.30689" lon="-1.48909">
        <ele>180</ele>
        <time>2022-09-04T07:04:57Z</time>
      </trkpt>
      <trkpt lat="43.30691" lon="-1.48905">
        <ele>180.4</ele>
        <time>2022-09-04T07:04:58Z</time>
      </trkpt>
      <trkpt lat="43.30691" lon="-1.48904">
        <ele>180.5</ele>
        <time>2022-09-04T07:04:59Z</time>
      </trkpt>
      <trkpt lat="43.30692" lon="-1.48901">
        <ele>180.8</ele>
        <time>2022-09-04T07:05:00Z</time>
      </trkpt>
      <trkpt lat="43.30693" lon="-1.489">
        <ele>181</ele>
        <time>2022-09-04T07:05:01Z</time>
      </trkpt>
      <trkpt lat="43.30694" lon="-1.48899">
        <ele>181.1</ele>
        <time>2022-09-04T07:05:02Z</time>
      </trkpt>
      <trkpt lat="43.30694" lon="-1.48898">
        <ele>181.2</ele>
        <time>2022-09-04T07:05:03Z</time>
      </trkpt>
      <trkpt lat="43.30696" lon="-1.48894">
        <ele>181.6</ele>
        <time>2022-09-04T07:05:04Z</time>
      </trkpt>
      <trkpt lat="43.30698" lon="-1.4889">
        <ele>182</ele>
        <time>2022-09-04T07:05:05Z</time>
      </trkpt>
      <trkpt lat="43.30698" lon="-1.48889">
        <ele>182.1</ele>
        <time>2022-09-04T07:05:06Z</time>
      </trkpt>
      <trkpt lat="43.30702" lon="-1.48887">
        <ele>182.4</ele>
        <time>2022-09-04T07:05:07Z</time>
      </trkpt>
      <trkpt lat="43.30704" lon="-1.48886">
        <ele>182.6</ele>
        <time>2022-09-04T07:05:08Z</time>
      </trkpt>
      <trkpt lat="43.30706" lon="-1.48884">
        <ele>182.8</ele>
        <time>2022-09-04T07:05:09Z</time>
      </trkpt>
      <trkpt lat="43.3071" lon="-1.48882">
        <ele>183.1</ele>
        <time>2022-09-04T07:05:10Z</time>
      </trkpt>
      <trkpt lat="43.30711" lon="-1.48881">
        <ele>183.2</ele>
        <time>2022-09-04T07:05:11Z</time>
      </trkpt>
      <trkpt lat="43.30714" lon="-1.4888">
        <ele>183.4</ele>
        <time>2022-09-04T07:05:12Z</time>
      </trkpt>
      <trkpt lat="43.30717" lon="-1.48878">
        <ele>183.6</ele>
        <time>2022-09-04T07:05:13Z</time>
      </trkpt>
      <trkpt lat="43.30719" lon="-1.48875">
        <ele>183.8</ele>
        <time>2022-09-04T07:05:14Z</time>
      </trkpt>
      <trkpt lat="43.3072" lon="-1.48875">
        <ele>183.9</ele>
        <time>2022-09-04T07:05:15Z</time>
      </trkpt>
      <trkpt lat="43.30723" lon="-1.48871">
        <ele>184.2</ele>
        <time>2022-09-04T07:05:16Z</time>
      </trkpt>
      <trkpt lat="43.30724" lon="-1.48869">
        <ele>184.3</ele>
        <time>2022-09-04T07:05:17Z</time>
      </trkpt>
      <trkpt lat="43.30727" lon="-1.48864">
        <ele>184.8</ele>
        <time>2022-09-04T07:05:19Z</time>
      </trkpt>
      <trkpt lat="43.3073" lon="-1.48861">
        <ele>185.2</ele>
        <time>2022-09-04T07:05:20Z</time>
      </trkpt>
      <trkpt lat="43.30731" lon="-1.4886">
        <ele>185.4</ele>
        <time>2022-09-04T07:05:21Z</time>
      </trkpt>
      <trkpt lat="43.30733" lon="-1.48857">
        <ele>185.8</ele>
        <time>2022-09-04T07:05:22Z</time>
      </trkpt>
      <trkpt lat="43.30734" lon="-1.48856">
        <ele>186</ele>
        <time>2022-09-04T07:05:23Z</time>
      </trkpt>
      <trkpt lat="43.30738" lon="-1.48854">
        <ele>186.5</ele>
        <time>2022-09-04T07:05:24Z</time>
      </trkpt>
      <trkpt lat="43.30739" lon="-1.48853">
        <ele>186.6</ele>
        <time>2022-09-04T07:05:25Z</time>
      </trkpt>
      <trkpt lat="43.30742" lon="-1.48851">
        <ele>187.1</ele>
        <time>2022-09-04T07:05:26Z</time>
      </trkpt>
      <trkpt lat="43.30743" lon="-1.48851">
        <ele>187.3</ele>
        <time>2022-09-04T07:05:27Z</time>
      </trkpt>
      <trkpt lat="43.30746" lon="-1.48849">
        <ele>187.7</ele>
        <time>2022-09-04T07:05:28Z</time>
      </trkpt>
      <trkpt lat="43.30747" lon="-1.48848">
        <ele>187.9</ele>
        <time>2022-09-04T07:05:29Z</time>
      </trkpt>
      <trkpt lat="43.3075" lon="-1.48845">
        <ele>188.4</ele>
        <time>2022-09-04T07:05:30Z</time>
      </trkpt>
      <trkpt lat="43.30751" lon="-1.48845">
        <ele>188.5</ele>
        <time>2022-09-04T07:05:31Z</time>
      </trkpt>
      <trkpt lat="43.30754" lon="-1.48843">
        <ele>189</ele>
        <time>2022-09-04T07:05:32Z</time>
      </trkpt>
      <trkpt lat="43.30755" lon="-1.48842">
        <ele>189.2</ele>
        <time>2022-09-04T07:05:33Z</time>
      </trkpt>
      <trkpt lat="43.30759" lon="-1.4884">
        <ele>189.6</ele>
        <time>2022-09-04T07:05:34Z</time>
      </trkpt>
      <trkpt lat="43.3076" lon="-1.4884">
        <ele>189.8</ele>
        <time>2022-09-04T07:05:35Z</time>
      </trkpt>
      <trkpt lat="43.30763" lon="-1.48838">
        <ele>190.1</ele>
        <time>2022-09-04T07:05:36Z</time>
      </trkpt>
      <trkpt lat="43.30766" lon="-1.48837">
        <ele>190.4</ele>
        <time>2022-09-04T07:05:37Z</time>
      </trkpt>
      <trkpt lat="43.30768" lon="-1.48835">
        <ele>190.6</ele>
        <time>2022-09-04T07:05:38Z</time>
      </trkpt>
      <trkpt lat="43.3077" lon="-1.48833">
        <ele>190.9</ele>
        <time>2022-09-04T07:05:39Z</time>
      </trkpt>
      <trkpt lat="43.30773" lon="-1.48831">
        <ele>191.1</ele>
        <time>2022-09-04T07:05:40Z</time>
      </trkpt>
      <trkpt lat="43.30776" lon="-1.48828">
        <ele>191.4</ele>
        <time>2022-09-04T07:05:41Z</time>
      </trkpt>
      <trkpt lat="43.30777" lon="-1.48827">
        <ele>191.5</ele>
        <time>2022-09-04T07:05:42Z</time>
      </trkpt>
      <trkpt lat="43.3078" lon="-1.48825">
        <ele>191.7</ele>
        <time>2022-09-04T07:05:43Z</time>
      </trkpt>
      <trkpt lat="43.30781" lon="-1.48825">
        <ele>191.8</ele>
        <time>2022-09-04T07:05:44Z</time>
      </trkpt>
      <trkpt lat="43.30785" lon="-1.48821">
        <ele>192.1</ele>
        <time>2022-09-04T07:05:45Z</time>
      </trkpt>
      <trkpt lat="43.30786" lon="-1.4882">
        <ele>192.3</ele>
        <time>2022-09-04T07:05:46Z</time>
      </trkpt>
      <trkpt lat="43.30788" lon="-1.48818">
        <ele>192.5</ele>
        <time>2022-09-04T07:05:47Z</time>
      </trkpt>
      <trkpt lat="43.30791" lon="-1.48816">
        <ele>192.7</ele>
        <time>2022-09-04T07:05:48Z</time>
      </trkpt>
      <trkpt lat="43.30794" lon="-1.48814">
        <ele>193</ele>
        <time>2022-09-04T07:05:49Z</time>
      </trkpt>
      <trkpt lat="43.30797" lon="-1.48812">
        <ele>193.2</ele>
        <time>2022-09-04T07:05:50Z</time>
      </trkpt>
      <trkpt lat="43.30799" lon="-1.4881">
        <ele>193.5</ele>
        <time>2022-09-04T07:05:51Z</time>
      </trkpt>
      <trkpt lat="43.30803" lon="-1.48809">
        <ele>193.8</ele>
        <time>2022-09-04T07:05:52Z</time>
      </trkpt>
      <trkpt lat="43.30806" lon="-1.48806">
        <ele>194.1</ele>
        <time>2022-09-04T07:05:53Z</time>
      </trkpt>
      <trkpt lat="43.30807" lon="-1.48805">
        <ele>194.3</ele>
        <time>2022-09-04T07:05:54Z</time>
      </trkpt>
      <trkpt lat="43.3081" lon="-1.48802">
        <ele>194.7</ele>
        <time>2022-09-04T07:05:55Z</time>
      </trkpt>
      <trkpt lat="43.30811" lon="-1.48801">
        <ele>194.8</ele>
        <time>2022-09-04T07:05:56Z</time>
      </trkpt>
      <trkpt lat="43.30813" lon="-1.48799">
        <ele>195.1</ele>
        <time>2022-09-04T07:05:57Z</time>
      </trkpt>
      <trkpt lat="43.30816" lon="-1.48796">
        <ele>195.5</ele>
        <time>2022-09-04T07:05:58Z</time>
      </trkpt>
      <trkpt lat="43.30819" lon="-1.48793">
        <ele>195.9</ele>
        <time>2022-09-04T07:05:59Z</time>
      </trkpt>
      <trkpt lat="43.30822" lon="-1.48791">
        <ele>196.4</ele>
        <time>2022-09-04T07:06:00Z</time>
      </trkpt>
      <trkpt lat="43.30824" lon="-1.48788">
        <ele>196.8</ele>
        <time>2022-09-04T07:06:01Z</time>
      </trkpt>
      <trkpt lat="43.30827" lon="-1.48786">
        <ele>197.3</ele>
        <time>2022-09-04T07:06:02Z</time>
      </trkpt>
      <trkpt lat="43.30829" lon="-1.48784">
        <ele>197.7</ele>
        <time>2022-09-04T07:06:03Z</time>
      </trkpt>
      <trkpt lat="43.30831" lon="-1.48781">
        <ele>198.1</ele>
        <time>2022-09-04T07:06:04Z</time>
      </trkpt>
      <trkpt lat="43.30834" lon="-1.48778">
        <ele>198.7</ele>
        <time>2022-09-04T07:06:05Z</time>
      </trkpt>
      <trkpt lat="43.30834" lon="-1.48776">
        <ele>198.9</ele>
        <time>2022-09-04T07:06:06Z</time>
      </trkpt>
      <trkpt lat="43.30837" lon="-1.48772">
        <ele>199.5</ele>
        <time>2022-09-04T07:06:07Z</time>
      </trkpt>
      <trkpt lat="43.30838" lon="-1.48771">
        <ele>199.7</ele>
        <time>2022-09-04T07:06:08Z</time>
      </trkpt>
      <trkpt lat="43.3084" lon="-1.48768">
        <ele>200.2</ele>
        <time>2022-09-04T07:06:09Z</time>
      </trkpt>
      <trkpt lat="43.30841" lon="-1.48767">
        <ele>200.4</ele>
        <time>2022-09-04T07:06:10Z</time>
      </trkpt>
      <trkpt lat="43.30842" lon="-1.48763">
        <ele>201</ele>
        <time>2022-09-04T07:06:11Z</time>
      </trkpt>
      <trkpt lat="43.30843" lon="-1.48761">
        <ele>201.2</ele>
        <time>2022-09-04T07:06:12Z</time>
      </trkpt>
      <trkpt lat="43.30843" lon="-1.48759">
        <ele>201.6</ele>
        <time>2022-09-04T07:06:13Z</time>
      </trkpt>
      <trkpt lat="43.30842" lon="-1.48757">
        <ele>201.9</ele>
        <time>2022-09-04T07:06:14Z</time>
      </trkpt>
      <trkpt lat="43.30842" lon="-1.48755">
        <ele>202.1</ele>
        <time>2022-09-04T07:06:15Z</time>
      </trkpt>
      <trkpt lat="43.30841" lon="-1.48753">
        <ele>202.4</ele>
        <time>2022-09-04T07:06:16Z</time>
      </trkpt>
      <trkpt lat="43.3084" lon="-1.48753">
        <ele>202.7</ele>
        <time>2022-09-04T07:06:17Z</time>
      </trkpt>
      <trkpt lat="43.30838" lon="-1.48753">
        <ele>203.1</ele>
        <time>2022-09-04T07:06:18Z</time>
      </trkpt>
      <trkpt lat="43.30836" lon="-1.48753">
        <ele>203.5</ele>
        <time>2022-09-04T07:06:19Z</time>
      </trkpt>
      <trkpt lat="43.30835" lon="-1.48753">
        <ele>203.8</ele>
        <time>2022-09-04T07:06:20Z</time>
      </trkpt>
      <trkpt lat="43.30833" lon="-1.48753">
        <ele>204.1</ele>
        <time>2022-09-04T07:06:21Z</time>
      </trkpt>
      <trkpt lat="43.30832" lon="-1.48753">
        <ele>204.4</ele>
        <time>2022-09-04T07:06:22Z</time>
      </trkpt>
      <trkpt lat="43.3083" lon="-1.48753">
        <ele>204.8</ele>
        <time>2022-09-04T07:06:23Z</time>
      </trkpt>
      <trkpt lat="43.30829" lon="-1.48753">
        <ele>205.1</ele>
        <time>2022-09-04T07:06:24Z</time>
      </trkpt>
      <trkpt lat="43.30827" lon="-1.48752">
        <ele>205.5</ele>
        <time>2022-09-04T07:06:25Z</time>
      </trkpt>
      <trkpt lat="43.30825" lon="-1.48752">
        <ele>206</ele>
        <time>2022-09-04T07:06:26Z</time>
      </trkpt>
      <trkpt lat="43.30822" lon="-1.48752">
        <ele>206.5</ele>
        <time>2022-09-04T07:06:27Z</time>
      </trkpt>
      <trkpt lat="43.30821" lon="-1.48752">
        <ele>206.8</ele>
        <time>2022-09-04T07:06:28Z</time>
      </trkpt>
      <trkpt lat="43.30818" lon="-1.4875">
        <ele>207.4</ele>
        <time>2022-09-04T07:06:29Z</time>
      </trkpt>
      <trkpt lat="43.30817" lon="-1.4875">
        <ele>207.6</ele>
        <time>2022-09-04T07:06:30Z</time>
      </trkpt>
      <trkpt lat="43.30814" lon="-1.4875">
        <ele>208.3</ele>
        <time>2022-09-04T07:06:31Z</time>
      </trkpt>
      <trkpt lat="43.30813" lon="-1.48749">
        <ele>208.5</ele>
        <time>2022-09-04T07:06:32Z</time>
      </trkpt>
      <trkpt lat="43.3081" lon="-1.48749">
        <ele>209.2</ele>
        <time>2022-09-04T07:06:33Z</time>
      </trkpt>
      <trkpt lat="43.30809" lon="-1.48749">
        <ele>209.4</ele>
        <time>2022-09-04T07:06:34Z</time>
      </trkpt>
      <trkpt lat="43.30806" lon="-1.48749">
        <ele>210.1</ele>
        <time>2022-09-04T07:06:35Z</time>
      </trkpt>
      <trkpt lat="43.30805" lon="-1.48749">
        <ele>210.3</ele>
        <time>2022-09-04T07:06:36Z</time>
      </trkpt>
      <trkpt lat="43.30803" lon="-1.48749">
        <ele>210.6</ele>
        <time>2022-09-04T07:06:37Z</time>
      </trkpt>
      <trkpt lat="43.30802" lon="-1.48749">
        <ele>211</ele>
        <time>2022-09-04T07:06:38Z</time>
      </trkpt>
      <trkpt lat="43.308" lon="-1.48749">
        <ele>211.4</ele>
        <time>2022-09-04T07:06:39Z</time>
      </trkpt>
      <trkpt lat="43.30799" lon="-1.48749">
        <ele>211.7</ele>
        <time>2022-09-04T07:06:40Z</time>
      </trkpt>
      <trkpt lat="43.30798" lon="-1.48749">
        <ele>212</ele>
        <time>2022-09-04T07:06:41Z</time>
      </trkpt>
      <trkpt lat="43.30796" lon="-1.48748">
        <ele>212.2</ele>
        <time>2022-09-04T07:06:42Z</time>
      </trkpt>
      <trkpt lat="43.30796" lon="-1.48747">
        <ele>212.5</ele>
        <time>2022-09-04T07:06:43Z</time>
      </trkpt>
      <trkpt lat="43.30797" lon="-1.48743">
        <ele>212.6</ele>
        <time>2022-09-04T07:06:44Z</time>
      </trkpt>
      <trkpt lat="43.30797" lon="-1.48741">
        <ele>212.7</ele>
        <time>2022-09-04T07:06:45Z</time>
      </trkpt>
      <trkpt lat="43.30799" lon="-1.48737">
        <ele>212.9</ele>
        <time>2022-09-04T07:06:46Z</time>
      </trkpt>
      <trkpt lat="43.30799" lon="-1.48736">
        <ele>213</ele>
        <time>2022-09-04T07:06:47Z</time>
      </trkpt>
      <trkpt lat="43.30802" lon="-1.48734">
        <ele>213.2</ele>
        <time>2022-09-04T07:06:48Z</time>
      </trkpt>
      <trkpt lat="43.30802" lon="-1.48733">
        <ele>213.3</ele>
        <time>2022-09-04T07:06:49Z</time>
      </trkpt>
      <trkpt lat="43.30804" lon="-1.4873">
        <ele>213.4</ele>
        <time>2022-09-04T07:06:50Z</time>
      </trkpt>
      <trkpt lat="43.30805" lon="-1.48729">
        <ele>213.5</ele>
        <time>2022-09-04T07:06:51Z</time>
      </trkpt>
      <trkpt lat="43.30806" lon="-1.48728">
        <ele>213.6</ele>
        <time>2022-09-04T07:06:52Z</time>
      </trkpt>
      <trkpt lat="43.30807" lon="-1.48726">
        <ele>213.7</ele>
        <time>2022-09-04T07:06:53Z</time>
      </trkpt>
      <trkpt lat="43.30808" lon="-1.48724">
        <ele>213.9</ele>
        <time>2022-09-04T07:06:54Z</time>
      </trkpt>
      <trkpt lat="43.30809" lon="-1.48723">
        <ele>214</ele>
        <time>2022-09-04T07:06:55Z</time>
      </trkpt>
      <trkpt lat="43.30811" lon="-1.48719">
        <ele>214.2</ele>
        <time>2022-09-04T07:06:56Z</time>
      </trkpt>
      <trkpt lat="43.30812" lon="-1.48718">
        <ele>214.3</ele>
        <time>2022-09-04T07:06:57Z</time>
      </trkpt>
      <trkpt lat="43.30814" lon="-1.48716">
        <ele>214.5</ele>
        <time>2022-09-04T07:06:58Z</time>
      </trkpt>
      <trkpt lat="43.30815" lon="-1.48715">
        <ele>214.6</ele>
        <time>2022-09-04T07:06:59Z</time>
      </trkpt>
      <trkpt lat="43.30817" lon="-1.48713">
        <ele>214.9</ele>
        <time>2022-09-04T07:07:00Z</time>
      </trkpt>
      <trkpt lat="43.30818" lon="-1.48712">
        <ele>215</ele>
        <time>2022-09-04T07:07:01Z</time>
      </trkpt>
      <trkpt lat="43.30821" lon="-1.4871">
        <ele>215.2</ele>
        <time>2022-09-04T07:07:02Z</time>
      </trkpt>
      <trkpt lat="43.30822" lon="-1.4871">
        <ele>215.3</ele>
        <time>2022-09-04T07:07:03Z</time>
      </trkpt>
      <trkpt lat="43.30823" lon="-1.48709">
        <ele>215.5</ele>
        <time>2022-09-04T07:07:04Z</time>
      </trkpt>
      <trkpt lat="43.30824" lon="-1.48708">
        <ele>215.6</ele>
        <time>2022-09-04T07:07:05Z</time>
      </trkpt>
      <trkpt lat="43.30825" lon="-1.48706">
        <ele>215.8</ele>
        <time>2022-09-04T07:07:06Z</time>
      </trkpt>
      <trkpt lat="43.30826" lon="-1.48704">
        <ele>216</ele>
        <time>2022-09-04T07:07:07Z</time>
      </trkpt>
      <trkpt lat="43.30826" lon="-1.48701">
        <ele>216.1</ele>
        <time>2022-09-04T07:07:08Z</time>
      </trkpt>
      <trkpt lat="43.30826" lon="-1.48697">
        <ele>216.6</ele>
        <time>2022-09-04T07:07:10Z</time>
      </trkpt>
      <trkpt lat="43.30825" lon="-1.48693">
        <ele>216.9</ele>
        <time>2022-09-04T07:07:11Z</time>
      </trkpt>
      <trkpt lat="43.30825" lon="-1.48692">
        <ele>217.1</ele>
        <time>2022-09-04T07:07:12Z</time>
      </trkpt>
      <trkpt lat="43.30824" lon="-1.48688">
        <ele>217.4</ele>
        <time>2022-09-04T07:07:13Z</time>
      </trkpt>
      <trkpt lat="43.30824" lon="-1.48687">
        <ele>217.6</ele>
        <time>2022-09-04T07:07:14Z</time>
      </trkpt>
      <trkpt lat="43.30823" lon="-1.48683">
        <ele>218.1</ele>
        <time>2022-09-04T07:07:15Z</time>
      </trkpt>
      <trkpt lat="43.30823" lon="-1.48682">
        <ele>218.3</ele>
        <time>2022-09-04T07:07:16Z</time>
      </trkpt>
      <trkpt lat="43.30823" lon="-1.48677">
        <ele>218.8</ele>
        <time>2022-09-04T07:07:17Z</time>
      </trkpt>
      <trkpt lat="43.30823" lon="-1.48676">
        <ele>219</ele>
        <time>2022-09-04T07:07:18Z</time>
      </trkpt>
      <trkpt lat="43.30823" lon="-1.48673">
        <ele>219.4</ele>
        <time>2022-09-04T07:07:19Z</time>
      </trkpt>
      <trkpt lat="43.30823" lon="-1.48671">
        <ele>219.7</ele>
        <time>2022-09-04T07:07:20Z</time>
      </trkpt>
      <trkpt lat="43.30822" lon="-1.48669">
        <ele>220</ele>
        <time>2022-09-04T07:07:21Z</time>
      </trkpt>
      <trkpt lat="43.30822" lon="-1.48667">
        <ele>220.3</ele>
        <time>2022-09-04T07:07:22Z</time>
      </trkpt>
      <trkpt lat="43.30823" lon="-1.48662">
        <ele>220.9</ele>
        <time>2022-09-04T07:07:23Z</time>
      </trkpt>
      <trkpt lat="43.30823" lon="-1.48661">
        <ele>221.1</ele>
        <time>2022-09-04T07:07:24Z</time>
      </trkpt>
      <trkpt lat="43.30824" lon="-1.48657">
        <ele>221.7</ele>
        <time>2022-09-04T07:07:25Z</time>
      </trkpt>
      <trkpt lat="43.30825" lon="-1.48655">
        <ele>221.9</ele>
        <time>2022-09-04T07:07:26Z</time>
      </trkpt>
      <trkpt lat="43.30825" lon="-1.48651">
        <ele>222.4</ele>
        <time>2022-09-04T07:07:27Z</time>
      </trkpt>
      <trkpt lat="43.30825" lon="-1.4865">
        <ele>222.6</ele>
        <time>2022-09-04T07:07:28Z</time>
      </trkpt>
      <trkpt lat="43.30824" lon="-1.48646">
        <ele>223.4</ele>
        <time>2022-09-04T07:07:29Z</time>
      </trkpt>
      <trkpt lat="43.30824" lon="-1.48645">
        <ele>223.5</ele>
        <time>2022-09-04T07:07:30Z</time>
      </trkpt>
      <trkpt lat="43.30824" lon="-1.48641">
        <ele>223.9</ele>
        <time>2022-09-04T07:07:31Z</time>
      </trkpt>
      <trkpt lat="43.30823" lon="-1.48639">
        <ele>224.1</ele>
        <time>2022-09-04T07:07:32Z</time>
      </trkpt>
      <trkpt lat="43.30822" lon="-1.48635">
        <ele>224.5</ele>
        <time>2022-09-04T07:07:33Z</time>
      </trkpt>
      <trkpt lat="43.30822" lon="-1.48634">
        <ele>224.6</ele>
        <time>2022-09-04T07:07:34Z</time>
      </trkpt>
      <trkpt lat="43.30822" lon="-1.48631">
        <ele>224.9</ele>
        <time>2022-09-04T07:07:35Z</time>
      </trkpt>
      <trkpt lat="43.30821" lon="-1.4863">
        <ele>225</ele>
        <time>2022-09-04T07:07:36Z</time>
      </trkpt>
      <trkpt lat="43.30821" lon="-1.48629">
        <ele>225.2</ele>
        <time>2022-09-04T07:07:37Z</time>
      </trkpt>
      <trkpt lat="43.30821" lon="-1.48626">
        <ele>225.5</ele>
        <time>2022-09-04T07:07:38Z</time>
      </trkpt>
      <trkpt lat="43.30821" lon="-1.48625">
        <ele>225.6</ele>
        <time>2022-09-04T07:07:39Z</time>
      </trkpt>
      <trkpt lat="43.30821" lon="-1.48624">
        <ele>225.7</ele>
        <time>2022-09-04T07:07:40Z</time>
      </trkpt>
      <trkpt lat="43.3082" lon="-1.48622">
        <ele>225.8</ele>
        <time>2022-09-04T07:07:41Z</time>
      </trkpt>
      <trkpt lat="43.30821" lon="-1.48621">
        <ele>226</ele>
        <time>2022-09-04T07:07:42Z</time>
      </trkpt>
      <trkpt lat="43.30821" lon="-1.48619">
        <ele>226.2</ele>
        <time>2022-09-04T07:07:43Z</time>
      </trkpt>
      <trkpt lat="43.30821" lon="-1.48617">
        <ele>226.4</ele>
        <time>2022-09-04T07:07:44Z</time>
      </trkpt>
      <trkpt lat="43.30821" lon="-1.48614">
        <ele>226.7</ele>
        <time>2022-09-04T07:07:45Z</time>
      </trkpt>
      <trkpt lat="43.30821" lon="-1.4861">
        <ele>227.2</ele>
        <time>2022-09-04T07:07:46Z</time>
      </trkpt>
      <trkpt lat="43.30821" lon="-1.48609">
        <ele>227.3</ele>
        <time>2022-09-04T07:07:47Z</time>
      </trkpt>
      <trkpt lat="43.30821" lon="-1.48605">
        <ele>227.8</ele>
        <time>2022-09-04T07:07:48Z</time>
      </trkpt>
      <trkpt lat="43.30821" lon="-1.48604">
        <ele>227.9</ele>
        <time>2022-09-04T07:07:49Z</time>
      </trkpt>
      <trkpt lat="43.3082" lon="-1.48602">
        <ele>228.2</ele>
        <time>2022-09-04T07:07:50Z</time>
      </trkpt>
      <trkpt lat="43.3082" lon="-1.48599">
        <ele>228.5</ele>
        <time>2022-09-04T07:07:51Z</time>
      </trkpt>
      <trkpt lat="43.30819" lon="-1.48595">
        <ele>228.9</ele>
        <time>2022-09-04T07:07:52Z</time>
      </trkpt>
      <trkpt lat="43.30819" lon="-1.48594">
        <ele>229.1</ele>
        <time>2022-09-04T07:07:53Z</time>
      </trkpt>
      <trkpt lat="43.30818" lon="-1.48591">
        <ele>229.5</ele>
        <time>2022-09-04T07:07:54Z</time>
      </trkpt>
      <trkpt lat="43.30818" lon="-1.48589">
        <ele>229.7</ele>
        <time>2022-09-04T07:07:55Z</time>
      </trkpt>
      <trkpt lat="43.30818" lon="-1.48587">
        <ele>229.9</ele>
        <time>2022-09-04T07:07:56Z</time>
      </trkpt>
      <trkpt lat="43.30818" lon="-1.48586">
        <ele>230.1</ele>
        <time>2022-09-04T07:07:57Z</time>
      </trkpt>
      <trkpt lat="43.30818" lon="-1.48583">
        <ele>230.4</ele>
        <time>2022-09-04T07:07:58Z</time>
      </trkpt>
      <trkpt lat="43.30817" lon="-1.48582">
        <ele>230.6</ele>
        <time>2022-09-04T07:07:59Z</time>
      </trkpt>
      <trkpt lat="43.30816" lon="-1.48579">
        <ele>230.9</ele>
        <time>2022-09-04T07:08:00Z</time>
      </trkpt>
      <trkpt lat="43.30816" lon="-1.48578">
        <ele>231.1</ele>
        <time>2022-09-04T07:08:01Z</time>
      </trkpt>
      <trkpt lat="43.30815" lon="-1.48577">
        <ele>231.2</ele>
        <time>2022-09-04T07:08:02Z</time>
      </trkpt>
      <trkpt lat="43.30814" lon="-1.48575">
        <ele>231.5</ele>
        <time>2022-09-04T07:08:03Z</time>
      </trkpt>
      <trkpt lat="43.30814" lon="-1.48573">
        <ele>231.8</ele>
        <time>2022-09-04T07:08:04Z</time>
      </trkpt>
      <trkpt lat="43.30814" lon="-1.48571">
        <ele>232</ele>
        <time>2022-09-04T07:08:05Z</time>
      </trkpt>
      <trkpt lat="43.30814" lon="-1.48569">
        <ele>232.3</ele>
        <time>2022-09-04T07:08:06Z</time>
      </trkpt>
      <trkpt lat="43.30815" lon="-1.48566">
        <ele>232.5</ele>
        <time>2022-09-04T07:08:07Z</time>
      </trkpt>
      <trkpt lat="43.30816" lon="-1.48565">
        <ele>232.8</ele>
        <time>2022-09-04T07:08:08Z</time>
      </trkpt>
      <trkpt lat="43.30817" lon="-1.48563">
        <ele>233.1</ele>
        <time>2022-09-04T07:08:09Z</time>
      </trkpt>
      <trkpt lat="43.30817" lon="-1.48561">
        <ele>233.3</ele>
        <time>2022-09-04T07:08:10Z</time>
      </trkpt>
      <trkpt lat="43.30818" lon="-1.48559">
        <ele>233.6</ele>
        <time>2022-09-04T07:08:11Z</time>
      </trkpt>
      <trkpt lat="43.30819" lon="-1.48557">
        <ele>233.8</ele>
        <time>2022-09-04T07:08:12Z</time>
      </trkpt>
      <trkpt lat="43.3082" lon="-1.48555">
        <ele>234.2</ele>
        <time>2022-09-04T07:08:13Z</time>
      </trkpt>
      <trkpt lat="43.3082" lon="-1.48553">
        <ele>234.3</ele>
        <time>2022-09-04T07:08:14Z</time>
      </trkpt>
      <trkpt lat="43.3082" lon="-1.48552">
        <ele>234.5</ele>
        <time>2022-09-04T07:08:15Z</time>
      </trkpt>
      <trkpt lat="43.30821" lon="-1.4855">
        <ele>234.9</ele>
        <time>2022-09-04T07:08:16Z</time>
      </trkpt>
      <trkpt lat="43.30821" lon="-1.48548">
        <ele>235.1</ele>
        <time>2022-09-04T07:08:17Z</time>
      </trkpt>
      <trkpt lat="43.30821" lon="-1.48547">
        <ele>235.2</ele>
        <time>2022-09-04T07:08:18Z</time>
      </trkpt>
      <trkpt lat="43.3082" lon="-1.48543">
        <ele>235.8</ele>
        <time>2022-09-04T07:08:19Z</time>
      </trkpt>
      <trkpt lat="43.3082" lon="-1.48542">
        <ele>236</ele>
        <time>2022-09-04T07:08:20Z</time>
      </trkpt>
      <trkpt lat="43.3082" lon="-1.48539">
        <ele>236.5</ele>
        <time>2022-09-04T07:08:21Z</time>
      </trkpt>
      <trkpt lat="43.3082" lon="-1.48538">
        <ele>236.6</ele>
        <time>2022-09-04T07:08:22Z</time>
      </trkpt>
      <trkpt lat="43.3082" lon="-1.48537">
        <ele>236.8</ele>
        <time>2022-09-04T07:08:23Z</time>
      </trkpt>
      <trkpt lat="43.30819" lon="-1.48535">
        <ele>237.2</ele>
        <time>2022-09-04T07:08:24Z</time>
      </trkpt>
      <trkpt lat="43.30819" lon="-1.48534">
        <ele>237.5</ele>
        <time>2022-09-04T07:08:25Z</time>
      </trkpt>
      <trkpt lat="43.30818" lon="-1.48532">
        <ele>237.8</ele>
        <time>2022-09-04T07:08:26Z</time>
      </trkpt>
      <trkpt lat="43.30817" lon="-1.4853">
        <ele>238.2</ele>
        <time>2022-09-04T07:08:27Z</time>
      </trkpt>
      <trkpt lat="43.30815" lon="-1.48526">
        <ele>239</ele>
        <time>2022-09-04T07:08:28Z</time>
      </trkpt>
      <trkpt lat="43.30815" lon="-1.48526">
        <ele>239.2</ele>
        <time>2022-09-04T07:08:29Z</time>
      </trkpt>
      <trkpt lat="43.30813" lon="-1.48524">
        <ele>239.7</ele>
        <time>2022-09-04T07:08:30Z</time>
      </trkpt>
      <trkpt lat="43.30813" lon="-1.48521">
        <ele>240.1</ele>
        <time>2022-09-04T07:08:31Z</time>
      </trkpt>
      <trkpt lat="43.30812" lon="-1.48519">
        <ele>240.4</ele>
        <time>2022-09-04T07:08:32Z</time>
      </trkpt>
      <trkpt lat="43.30812" lon="-1.48518">
        <ele>240.7</ele>
        <time>2022-09-04T07:08:33Z</time>
      </trkpt>
      <trkpt lat="43.30812" lon="-1.48515">
        <ele>241.1</ele>
        <time>2022-09-04T07:08:34Z</time>
      </trkpt>
      <trkpt lat="43.30812" lon="-1.48513">
        <ele>241.3</ele>
        <time>2022-09-04T07:08:35Z</time>
      </trkpt>
      <trkpt lat="43.30811" lon="-1.48511">
        <ele>241.5</ele>
        <time>2022-09-04T07:08:36Z</time>
      </trkpt>
      <trkpt lat="43.3081" lon="-1.48509">
        <ele>241.8</ele>
        <time>2022-09-04T07:08:37Z</time>
      </trkpt>
      <trkpt lat="43.3081" lon="-1.48507">
        <ele>242</ele>
        <time>2022-09-04T07:08:38Z</time>
      </trkpt>
      <trkpt lat="43.3081" lon="-1.48505">
        <ele>242.3</ele>
        <time>2022-09-04T07:08:39Z</time>
      </trkpt>
      <trkpt lat="43.3081" lon="-1.48503">
        <ele>242.5</ele>
        <time>2022-09-04T07:08:40Z</time>
      </trkpt>
      <trkpt lat="43.30809" lon="-1.48501">
        <ele>242.7</ele>
        <time>2022-09-04T07:08:41Z</time>
      </trkpt>
      <trkpt lat="43.30808" lon="-1.48499">
        <ele>242.9</ele>
        <time>2022-09-04T07:08:42Z</time>
      </trkpt>
      <trkpt lat="43.30807" lon="-1.48498">
        <ele>243</ele>
        <time>2022-09-04T07:08:43Z</time>
      </trkpt>
      <trkpt lat="43.30807" lon="-1.48497">
        <ele>243.1</ele>
        <time>2022-09-04T07:08:44Z</time>
      </trkpt>
      <trkpt lat="43.30807" lon="-1.48495">
        <ele>243.3</ele>
        <time>2022-09-04T07:08:45Z</time>
      </trkpt>
      <trkpt lat="43.30807" lon="-1.48494">
        <ele>243.4</ele>
        <time>2022-09-04T07:08:46Z</time>
      </trkpt>
      <trkpt lat="43.30808" lon="-1.48493">
        <ele>243.4</ele>
        <time>2022-09-04T07:08:47Z</time>
      </trkpt>
      <trkpt lat="43.30808" lon="-1.48493">
        <ele>243.5</ele>
        <time>2022-09-04T07:08:48Z</time>
      </trkpt>
      <trkpt lat="43.30808" lon="-1.48491">
        <ele>243.6</ele>
        <time>2022-09-04T07:08:49Z</time>
      </trkpt>
      <trkpt lat="43.30808" lon="-1.4849">
        <ele>243.8</ele>
        <time>2022-09-04T07:08:50Z</time>
      </trkpt>
      <trkpt lat="43.30809" lon="-1.48487">
        <ele>244</ele>
        <time>2022-09-04T07:08:51Z</time>
      </trkpt>
      <trkpt lat="43.30809" lon="-1.48485">
        <ele>244.2</ele>
        <time>2022-09-04T07:08:52Z</time>
      </trkpt>
      <trkpt lat="43.30809" lon="-1.48482">
        <ele>244.5</ele>
        <time>2022-09-04T07:08:53Z</time>
      </trkpt>
      <trkpt lat="43.30809" lon="-1.48478">
        <ele>244.9</ele>
        <time>2022-09-04T07:08:54Z</time>
      </trkpt>
      <trkpt lat="43.30809" lon="-1.48477">
        <ele>245</ele>
        <time>2022-09-04T07:08:55Z</time>
      </trkpt>
      <trkpt lat="43.30809" lon="-1.48474">
        <ele>245.5</ele>
        <time>2022-09-04T07:08:56Z</time>
      </trkpt>
      <trkpt lat="43.3081" lon="-1.48472">
        <ele>245.6</ele>
        <time>2022-09-04T07:08:57Z</time>
      </trkpt>
      <trkpt lat="43.30811" lon="-1.48468">
        <ele>246.2</ele>
        <time>2022-09-04T07:08:58Z</time>
      </trkpt>
      <trkpt lat="43.30811" lon="-1.48467">
        <ele>246.4</ele>
        <time>2022-09-04T07:08:59Z</time>
      </trkpt>
      <trkpt lat="43.30811" lon="-1.48462">
        <ele>247</ele>
        <time>2022-09-04T07:09:00Z</time>
      </trkpt>
      <trkpt lat="43.30811" lon="-1.48461">
        <ele>247.2</ele>
        <time>2022-09-04T07:09:01Z</time>
      </trkpt>
      <trkpt lat="43.30811" lon="-1.48457">
        <ele>247.8</ele>
        <time>2022-09-04T07:09:02Z</time>
      </trkpt>
      <trkpt lat="43.30811" lon="-1.48456">
        <ele>248.1</ele>
        <time>2022-09-04T07:09:03Z</time>
      </trkpt>
      <trkpt lat="43.30811" lon="-1.48454">
        <ele>248.5</ele>
        <time>2022-09-04T07:09:04Z</time>
      </trkpt>
      <trkpt lat="43.30811" lon="-1.48452">
        <ele>248.7</ele>
        <time>2022-09-04T07:09:05Z</time>
      </trkpt>
      <trkpt lat="43.30811" lon="-1.48452">
        <ele>248.8</ele>
        <time>2022-09-04T07:09:06Z</time>
      </trkpt>
      <trkpt lat="43.30811" lon="-1.48451">
        <ele>248.9</ele>
        <time>2022-09-04T07:09:07Z</time>
      </trkpt>
      <trkpt lat="43.30811" lon="-1.48451">
        <ele>249</ele>
        <time>2022-09-04T07:09:08Z</time>
      </trkpt>
      <trkpt lat="43.30811" lon="-1.4845">
        <ele>249.1</ele>
        <time>2022-09-04T07:09:09Z</time>
      </trkpt>
      <trkpt lat="43.30811" lon="-1.4845">
        <ele>249.1</ele>
        <time>2022-09-04T07:09:10Z</time>
      </trkpt>
      <trkpt lat="43.3081" lon="-1.48448">
        <ele>249.5</ele>
        <time>2022-09-04T07:09:11Z</time>
      </trkpt>
      <trkpt lat="43.3081" lon="-1.48446">
        <ele>249.8</ele>
        <time>2022-09-04T07:09:12Z</time>
      </trkpt>
      <trkpt lat="43.3081" lon="-1.48446">
        <ele>249.9</ele>
        <time>2022-09-04T07:09:13Z</time>
      </trkpt>
      <trkpt lat="43.3081" lon="-1.48445">
        <ele>250</ele>
        <time>2022-09-04T07:09:14Z</time>
      </trkpt>
      <trkpt lat="43.30809" lon="-1.48445">
        <ele>250.1</ele>
        <time>2022-09-04T07:09:15Z</time>
      </trkpt>
      <trkpt lat="43.30809" lon="-1.48444">
        <ele>250.2</ele>
        <time>2022-09-04T07:09:16Z</time>
      </trkpt>
      <trkpt lat="43.30809" lon="-1.48443">
        <ele>250.3</ele>
        <time>2022-09-04T07:09:17Z</time>
      </trkpt>
      <trkpt lat="43.3081" lon="-1.48442">
        <ele>250.6</ele>
        <time>2022-09-04T07:09:18Z</time>
      </trkpt>
      <trkpt lat="43.3081" lon="-1.48442">
        <ele>250.7</ele>
        <time>2022-09-04T07:09:19Z</time>
      </trkpt>
      <trkpt lat="43.3081" lon="-1.48441">
        <ele>250.8</ele>
        <time>2022-09-04T07:09:20Z</time>
      </trkpt>
      <trkpt lat="43.3081" lon="-1.48441">
        <ele>250.8</ele>
        <time>2022-09-04T07:09:21Z</time>
      </trkpt>
      <trkpt lat="43.30811" lon="-1.48441">
        <ele>250.9</ele>
        <time>2022-09-04T07:09:22Z</time>
      </trkpt>
      <trkpt lat="43.30811" lon="-1.4844">
        <ele>251</ele>
        <time>2022-09-04T07:09:23Z</time>
      </trkpt>
      <trkpt lat="43.30811" lon="-1.4844">
        <ele>251</ele>
        <time>2022-09-04T07:09:24Z</time>
      </trkpt>
      <trkpt lat="43.30811" lon="-1.4844">
        <ele>251.1</ele>
        <time>2022-09-04T07:09:25Z</time>
      </trkpt>
      <trkpt lat="43.30811" lon="-1.48439">
        <ele>251.2</ele>
        <time>2022-09-04T07:09:26Z</time>
      </trkpt>
      <trkpt lat="43.30811" lon="-1.48439">
        <ele>251.2</ele>
        <time>2022-09-04T07:09:27Z</time>
      </trkpt>
      <trkpt lat="43.30811" lon="-1.48439">
        <ele>251.3</ele>
        <time>2022-09-04T07:09:28Z</time>
      </trkpt>
      <trkpt lat="43.30811" lon="-1.48437">
        <ele>251.6</ele>
        <time>2022-09-04T07:09:29Z</time>
      </trkpt>
      <trkpt lat="43.30811" lon="-1.48436">
        <ele>251.7</ele>
        <time>2022-09-04T07:09:30Z</time>
      </trkpt>
      <trkpt lat="43.3081" lon="-1.48436">
        <ele>251.8</ele>
        <time>2022-09-04T07:09:31Z</time>
      </trkpt>
      <trkpt lat="43.3081" lon="-1.48435">
        <ele>252</ele>
        <time>2022-09-04T07:09:32Z</time>
      </trkpt>
      <trkpt lat="43.3081" lon="-1.48434">
        <ele>252.1</ele>
        <time>2022-09-04T07:09:33Z</time>
      </trkpt>
      <trkpt lat="43.3081" lon="-1.48433">
        <ele>252.3</ele>
        <time>2022-09-04T07:09:34Z</time>
      </trkpt>
      <trkpt lat="43.3081" lon="-1.48432">
        <ele>252.4</ele>
        <time>2022-09-04T07:09:35Z</time>
      </trkpt>
      <trkpt lat="43.3081" lon="-1.4843">
        <ele>252.6</ele>
        <time>2022-09-04T07:09:36Z</time>
      </trkpt>
      <trkpt lat="43.30809" lon="-1.4843">
        <ele>252.7</ele>
        <time>2022-09-04T07:09:37Z</time>
      </trkpt>
      <trkpt lat="43.30809" lon="-1.48429">
        <ele>252.8</ele>
        <time>2022-09-04T07:09:38Z</time>
      </trkpt>
      <trkpt lat="43.30809" lon="-1.48429">
        <ele>252.8</ele>
        <time>2022-09-04T07:09:39Z</time>
      </trkpt>
      <trkpt lat="43.30809" lon="-1.48428">
        <ele>253</ele>
        <time>2022-09-04T07:09:40Z</time>
      </trkpt>
      <trkpt lat="43.30808" lon="-1.48427">
        <ele>253.1</ele>
        <time>2022-09-04T07:09:41Z</time>
      </trkpt>
      <trkpt lat="43.30808" lon="-1.48426">
        <ele>253.2</ele>
        <time>2022-09-04T07:09:42Z</time>
      </trkpt>
      <trkpt lat="43.30807" lon="-1.48425">
        <ele>253.4</ele>
        <time>2022-09-04T07:09:43Z</time>
      </trkpt>
      <trkpt lat="43.30808" lon="-1.48424">
        <ele>253.5</ele>
        <time>2022-09-04T07:09:44Z</time>
      </trkpt>
      <trkpt lat="43.30808" lon="-1.48423">
        <ele>253.6</ele>
        <time>2022-09-04T07:09:45Z</time>
      </trkpt>
      <trkpt lat="43.30808" lon="-1.48421">
        <ele>253.8</ele>
        <time>2022-09-04T07:09:46Z</time>
      </trkpt>
      <trkpt lat="43.30808" lon="-1.48419">
        <ele>254</ele>
        <time>2022-09-04T07:09:47Z</time>
      </trkpt>
      <trkpt lat="43.30809" lon="-1.48418">
        <ele>254.1</ele>
        <time>2022-09-04T07:09:48Z</time>
      </trkpt>
      <trkpt lat="43.30809" lon="-1.48415">
        <ele>254.3</ele>
        <time>2022-09-04T07:09:49Z</time>
      </trkpt>
      <trkpt lat="43.30809" lon="-1.48414">
        <ele>254.4</ele>
        <time>2022-09-04T07:09:50Z</time>
      </trkpt>
      <trkpt lat="43.3081" lon="-1.48413">
        <ele>254.5</ele>
        <time>2022-09-04T07:09:51Z</time>
      </trkpt>
      <trkpt lat="43.3081" lon="-1.48411">
        <ele>254.7</ele>
        <time>2022-09-04T07:09:52Z</time>
      </trkpt>
      <trkpt lat="43.3081" lon="-1.48409">
        <ele>254.8</ele>
        <time>2022-09-04T07:09:53Z</time>
      </trkpt>
      <trkpt lat="43.3081" lon="-1.48406">
        <ele>255.1</ele>
        <time>2022-09-04T07:09:54Z</time>
      </trkpt>
      <trkpt lat="43.3081" lon="-1.48405">
        <ele>255.2</ele>
        <time>2022-09-04T07:09:55Z</time>
      </trkpt>
      <trkpt lat="43.30809" lon="-1.48404">
        <ele>255.3</ele>
        <time>2022-09-04T07:09:56Z</time>
      </trkpt>
      <trkpt lat="43.30808" lon="-1.484">
        <ele>255.6</ele>
        <time>2022-09-04T07:09:57Z</time>
      </trkpt>
      <trkpt lat="43.30808" lon="-1.48399">
        <ele>255.7</ele>
        <time>2022-09-04T07:09:58Z</time>
      </trkpt>
      <trkpt lat="43.30806" lon="-1.48395">
        <ele>256</ele>
        <time>2022-09-04T07:09:59Z</time>
      </trkpt>
      <trkpt lat="43.30806" lon="-1.48394">
        <ele>256.1</ele>
        <time>2022-09-04T07:10:00Z</time>
      </trkpt>
      <trkpt lat="43.30804" lon="-1.48389">
        <ele>256.4</ele>
        <time>2022-09-04T07:10:01Z</time>
      </trkpt>
      <trkpt lat="43.30804" lon="-1.48388">
        <ele>256.6</ele>
        <time>2022-09-04T07:10:02Z</time>
      </trkpt>
      <trkpt lat="43.30803" lon="-1.48386">
        <ele>256.7</ele>
        <time>2022-09-04T07:10:03Z</time>
      </trkpt>
      <trkpt lat="43.30802" lon="-1.48384">
        <ele>256.9</ele>
        <time>2022-09-04T07:10:04Z</time>
      </trkpt>
      <trkpt lat="43.30801" lon="-1.4838">
        <ele>257.2</ele>
        <time>2022-09-04T07:10:05Z</time>
      </trkpt>
      <trkpt lat="43.308" lon="-1.48379">
        <ele>257.3</ele>
        <time>2022-09-04T07:10:06Z</time>
      </trkpt>
      <trkpt lat="43.30799" lon="-1.48375">
        <ele>257.7</ele>
        <time>2022-09-04T07:10:07Z</time>
      </trkpt>
      <trkpt lat="43.30798" lon="-1.48374">
        <ele>257.8</ele>
        <time>2022-09-04T07:10:08Z</time>
      </trkpt>
      <trkpt lat="43.30795" lon="-1.4837">
        <ele>258.2</ele>
        <time>2022-09-04T07:10:09Z</time>
      </trkpt>
      <trkpt lat="43.30794" lon="-1.48369">
        <ele>258.3</ele>
        <time>2022-09-04T07:10:10Z</time>
      </trkpt>
      <trkpt lat="43.30792" lon="-1.48365">
        <ele>258.7</ele>
        <time>2022-09-04T07:10:11Z</time>
      </trkpt>
      <trkpt lat="43.30791" lon="-1.48364">
        <ele>258.8</ele>
        <time>2022-09-04T07:10:12Z</time>
      </trkpt>
      <trkpt lat="43.3079" lon="-1.4836">
        <ele>259.2</ele>
        <time>2022-09-04T07:10:13Z</time>
      </trkpt>
      <trkpt lat="43.30789" lon="-1.48359">
        <ele>259.3</ele>
        <time>2022-09-04T07:10:14Z</time>
      </trkpt>
      <trkpt lat="43.30788" lon="-1.48354">
        <ele>259.7</ele>
        <time>2022-09-04T07:10:15Z</time>
      </trkpt>
      <trkpt lat="43.30788" lon="-1.48353">
        <ele>259.8</ele>
        <time>2022-09-04T07:10:16Z</time>
      </trkpt>
      <trkpt lat="43.30786" lon="-1.48349">
        <ele>260.2</ele>
        <time>2022-09-04T07:10:17Z</time>
      </trkpt>
      <trkpt lat="43.30786" lon="-1.48348">
        <ele>260.3</ele>
        <time>2022-09-04T07:10:18Z</time>
      </trkpt>
      <trkpt lat="43.30784" lon="-1.48345">
        <ele>260.7</ele>
        <time>2022-09-04T07:10:19Z</time>
      </trkpt>
      <trkpt lat="43.30783" lon="-1.48344">
        <ele>260.8</ele>
        <time>2022-09-04T07:10:20Z</time>
      </trkpt>
      <trkpt lat="43.30782" lon="-1.48343">
        <ele>261</ele>
        <time>2022-09-04T07:10:21Z</time>
      </trkpt>
      <trkpt lat="43.30781" lon="-1.48341">
        <ele>261.1</ele>
        <time>2022-09-04T07:10:22Z</time>
      </trkpt>
      <trkpt lat="43.3078" lon="-1.48338">
        <ele>261.4</ele>
        <time>2022-09-04T07:10:23Z</time>
      </trkpt>
      <trkpt lat="43.30779" lon="-1.48337">
        <ele>261.5</ele>
        <time>2022-09-04T07:10:24Z</time>
      </trkpt>
      <trkpt lat="43.30779" lon="-1.48336">
        <ele>261.7</ele>
        <time>2022-09-04T07:10:25Z</time>
      </trkpt>
      <trkpt lat="43.30777" lon="-1.48336">
        <ele>261.9</ele>
        <time>2022-09-04T07:10:26Z</time>
      </trkpt>
      <trkpt lat="43.30776" lon="-1.48335">
        <ele>262.1</ele>
        <time>2022-09-04T07:10:27Z</time>
      </trkpt>
      <trkpt lat="43.30774" lon="-1.48334">
        <ele>262.4</ele>
        <time>2022-09-04T07:10:28Z</time>
      </trkpt>
      <trkpt lat="43.30773" lon="-1.48333">
        <ele>262.5</ele>
        <time>2022-09-04T07:10:29Z</time>
      </trkpt>
      <trkpt lat="43.30772" lon="-1.48332">
        <ele>262.7</ele>
        <time>2022-09-04T07:10:30Z</time>
      </trkpt>
      <trkpt lat="43.3077" lon="-1.48331">
        <ele>263</ele>
        <time>2022-09-04T07:10:31Z</time>
      </trkpt>
      <trkpt lat="43.30769" lon="-1.4833">
        <ele>263.2</ele>
        <time>2022-09-04T07:10:32Z</time>
      </trkpt>
      <trkpt lat="43.30768" lon="-1.48329">
        <ele>263.3</ele>
        <time>2022-09-04T07:10:33Z</time>
      </trkpt>
      <trkpt lat="43.30767" lon="-1.48328">
        <ele>263.5</ele>
        <time>2022-09-04T07:10:34Z</time>
      </trkpt>
      <trkpt lat="43.30767" lon="-1.48327">
        <ele>263.7</ele>
        <time>2022-09-04T07:10:35Z</time>
      </trkpt>
      <trkpt lat="43.30766" lon="-1.48326">
        <ele>263.8</ele>
        <time>2022-09-04T07:10:36Z</time>
      </trkpt>
      <trkpt lat="43.30765" lon="-1.48325">
        <ele>264</ele>
        <time>2022-09-04T07:10:37Z</time>
      </trkpt>
      <trkpt lat="43.30763" lon="-1.48323">
        <ele>264.4</ele>
        <time>2022-09-04T07:10:38Z</time>
      </trkpt>
      <trkpt lat="43.30762" lon="-1.48322">
        <ele>264.6</ele>
        <time>2022-09-04T07:10:39Z</time>
      </trkpt>
      <trkpt lat="43.30761" lon="-1.48321">
        <ele>264.8</ele>
        <time>2022-09-04T07:10:40Z</time>
      </trkpt>
      <trkpt lat="43.3076" lon="-1.48319">
        <ele>265</ele>
        <time>2022-09-04T07:10:41Z</time>
      </trkpt>
      <trkpt lat="43.30759" lon="-1.48317">
        <ele>265.2</ele>
        <time>2022-09-04T07:10:42Z</time>
      </trkpt>
      <trkpt lat="43.30758" lon="-1.48315">
        <ele>265.5</ele>
        <time>2022-09-04T07:10:43Z</time>
      </trkpt>
      <trkpt lat="43.30757" lon="-1.48314">
        <ele>265.7</ele>
        <time>2022-09-04T07:10:44Z</time>
      </trkpt>
      <trkpt lat="43.30756" lon="-1.48312">
        <ele>266</ele>
        <time>2022-09-04T07:10:45Z</time>
      </trkpt>
      <trkpt lat="43.30754" lon="-1.48309">
        <ele>266.3</ele>
        <time>2022-09-04T07:10:46Z</time>
      </trkpt>
      <trkpt lat="43.30754" lon="-1.48308">
        <ele>266.5</ele>
        <time>2022-09-04T07:10:47Z</time>
      </trkpt>
      <trkpt lat="43.30752" lon="-1.48304">
        <ele>266.9</ele>
        <time>2022-09-04T07:10:48Z</time>
      </trkpt>
      <trkpt lat="43.30752" lon="-1.48303">
        <ele>267</ele>
        <time>2022-09-04T07:10:49Z</time>
      </trkpt>
      <trkpt lat="43.3075" lon="-1.48299">
        <ele>267.5</ele>
        <time>2022-09-04T07:10:50Z</time>
      </trkpt>
      <trkpt lat="43.3075" lon="-1.48298">
        <ele>267.6</ele>
        <time>2022-09-04T07:10:51Z</time>
      </trkpt>
      <trkpt lat="43.30748" lon="-1.48294">
        <ele>268.1</ele>
        <time>2022-09-04T07:10:52Z</time>
      </trkpt>
      <trkpt lat="43.30748" lon="-1.48292">
        <ele>268.3</ele>
        <time>2022-09-04T07:10:53Z</time>
      </trkpt>
      <trkpt lat="43.30749" lon="-1.48288">
        <ele>268.7</ele>
        <time>2022-09-04T07:10:54Z</time>
      </trkpt>
      <trkpt lat="43.30749" lon="-1.48287">
        <ele>268.9</ele>
        <time>2022-09-04T07:10:55Z</time>
      </trkpt>
      <trkpt lat="43.3075" lon="-1.48283">
        <ele>269.3</ele>
        <time>2022-09-04T07:10:56Z</time>
      </trkpt>
      <trkpt lat="43.3075" lon="-1.48282">
        <ele>269.5</ele>
        <time>2022-09-04T07:10:57Z</time>
      </trkpt>
      <trkpt lat="43.30753" lon="-1.4828">
        <ele>269.9</ele>
        <time>2022-09-04T07:10:58Z</time>
      </trkpt>
      <trkpt lat="43.30754" lon="-1.48279">
        <ele>270.1</ele>
        <time>2022-09-04T07:10:59Z</time>
      </trkpt>
      <trkpt lat="43.30756" lon="-1.48278">
        <ele>270.4</ele>
        <time>2022-09-04T07:11:00Z</time>
      </trkpt>
      <trkpt lat="43.30757" lon="-1.48278">
        <ele>270.6</ele>
        <time>2022-09-04T07:11:01Z</time>
      </trkpt>
      <trkpt lat="43.30758" lon="-1.48277">
        <ele>270.9</ele>
        <time>2022-09-04T07:11:02Z</time>
      </trkpt>
      <trkpt lat="43.30759" lon="-1.48276">
        <ele>271.1</ele>
        <time>2022-09-04T07:11:03Z</time>
      </trkpt>
      <trkpt lat="43.3076" lon="-1.48275">
        <ele>271.2</ele>
        <time>2022-09-04T07:11:04Z</time>
      </trkpt>
      <trkpt lat="43.30762" lon="-1.48274">
        <ele>271.5</ele>
        <time>2022-09-04T07:11:05Z</time>
      </trkpt>
      <trkpt lat="43.30763" lon="-1.48274">
        <ele>271.7</ele>
        <time>2022-09-04T07:11:06Z</time>
      </trkpt>
      <trkpt lat="43.30764" lon="-1.48273">
        <ele>271.8</ele>
        <time>2022-09-04T07:11:07Z</time>
      </trkpt>
      <trkpt lat="43.30765" lon="-1.48272">
        <ele>272.2</ele>
        <time>2022-09-04T07:11:08Z</time>
      </trkpt>
      <trkpt lat="43.30766" lon="-1.4827">
        <ele>272.4</ele>
        <time>2022-09-04T07:11:09Z</time>
      </trkpt>
      <trkpt lat="43.30768" lon="-1.48268">
        <ele>272.8</ele>
        <time>2022-09-04T07:11:10Z</time>
      </trkpt>
      <trkpt lat="43.30768" lon="-1.48267">
        <ele>272.9</ele>
        <time>2022-09-04T07:11:11Z</time>
      </trkpt>
      <trkpt lat="43.30769" lon="-1.48266">
        <ele>273.1</ele>
        <time>2022-09-04T07:11:12Z</time>
      </trkpt>
      <trkpt lat="43.30771" lon="-1.48264">
        <ele>273.4</ele>
        <time>2022-09-04T07:11:13Z</time>
      </trkpt>
      <trkpt lat="43.30772" lon="-1.48263">
        <ele>273.6</ele>
        <time>2022-09-04T07:11:14Z</time>
      </trkpt>
      <trkpt lat="43.30772" lon="-1.48263">
        <ele>273.7</ele>
        <time>2022-09-04T07:11:15Z</time>
      </trkpt>
      <trkpt lat="43.30775" lon="-1.48261">
        <ele>274.2</ele>
        <time>2022-09-04T07:11:16Z</time>
      </trkpt>
      <trkpt lat="43.30776" lon="-1.4826">
        <ele>274.4</ele>
        <time>2022-09-04T07:11:17Z</time>
      </trkpt>
      <trkpt lat="43.30779" lon="-1.48258">
        <ele>275</ele>
        <time>2022-09-04T07:11:18Z</time>
      </trkpt>
      <trkpt lat="43.3078" lon="-1.48257">
        <ele>275.1</ele>
        <time>2022-09-04T07:11:19Z</time>
      </trkpt>
      <trkpt lat="43.30781" lon="-1.48256">
        <ele>275.5</ele>
        <time>2022-09-04T07:11:20Z</time>
      </trkpt>
      <trkpt lat="43.30783" lon="-1.48255">
        <ele>275.8</ele>
        <time>2022-09-04T07:11:21Z</time>
      </trkpt>
      <trkpt lat="43.30784" lon="-1.48254">
        <ele>276.1</ele>
        <time>2022-09-04T07:11:22Z</time>
      </trkpt>
      <trkpt lat="43.30786" lon="-1.48253">
        <ele>276.4</ele>
        <time>2022-09-04T07:11:23Z</time>
      </trkpt>
      <trkpt lat="43.30789" lon="-1.48252">
        <ele>277</ele>
        <time>2022-09-04T07:11:24Z</time>
      </trkpt>
      <trkpt lat="43.3079" lon="-1.48251">
        <ele>277.2</ele>
        <time>2022-09-04T07:11:25Z</time>
      </trkpt>
      <trkpt lat="43.30791" lon="-1.4825">
        <ele>277.5</ele>
        <time>2022-09-04T07:11:26Z</time>
      </trkpt>
      <trkpt lat="43.30793" lon="-1.4825">
        <ele>277.9</ele>
        <time>2022-09-04T07:11:27Z</time>
      </trkpt>
      <trkpt lat="43.30794" lon="-1.48249">
        <ele>278.2</ele>
        <time>2022-09-04T07:11:28Z</time>
      </trkpt>
      <trkpt lat="43.30796" lon="-1.48249">
        <ele>278.5</ele>
        <time>2022-09-04T07:11:29Z</time>
      </trkpt>
      <trkpt lat="43.30797" lon="-1.48248">
        <ele>278.7</ele>
        <time>2022-09-04T07:11:30Z</time>
      </trkpt>
      <trkpt lat="43.30798" lon="-1.48247">
        <ele>279</ele>
        <time>2022-09-04T07:11:31Z</time>
      </trkpt>
      <trkpt lat="43.30799" lon="-1.48246">
        <ele>279.2</ele>
        <time>2022-09-04T07:11:32Z</time>
      </trkpt>
      <trkpt lat="43.308" lon="-1.48245">
        <ele>279.6</ele>
        <time>2022-09-04T07:11:33Z</time>
      </trkpt>
      <trkpt lat="43.30802" lon="-1.48244">
        <ele>279.9</ele>
        <time>2022-09-04T07:11:34Z</time>
      </trkpt>
      <trkpt lat="43.30803" lon="-1.48243">
        <ele>280.3</ele>
        <time>2022-09-04T07:11:35Z</time>
      </trkpt>
      <trkpt lat="43.30805" lon="-1.48242">
        <ele>280.7</ele>
        <time>2022-09-04T07:11:36Z</time>
      </trkpt>
      <trkpt lat="43.30806" lon="-1.48241">
        <ele>281</ele>
        <time>2022-09-04T07:11:37Z</time>
      </trkpt>
      <trkpt lat="43.30808" lon="-1.4824">
        <ele>281.4</ele>
        <time>2022-09-04T07:11:38Z</time>
      </trkpt>
      <trkpt lat="43.30811" lon="-1.4824">
        <ele>282</ele>
        <time>2022-09-04T07:11:39Z</time>
      </trkpt>
      <trkpt lat="43.30812" lon="-1.48239">
        <ele>282.2</ele>
        <time>2022-09-04T07:11:40Z</time>
      </trkpt>
      <trkpt lat="43.30813" lon="-1.48239">
        <ele>282.6</ele>
        <time>2022-09-04T07:11:41Z</time>
      </trkpt>
      <trkpt lat="43.30815" lon="-1.48239">
        <ele>283</ele>
        <time>2022-09-04T07:11:42Z</time>
      </trkpt>
      <trkpt lat="43.30818" lon="-1.48239">
        <ele>283.6</ele>
        <time>2022-09-04T07:11:43Z</time>
      </trkpt>
      <trkpt lat="43.30819" lon="-1.48239">
        <ele>283.8</ele>
        <time>2022-09-04T07:11:44Z</time>
      </trkpt>
      <trkpt lat="43.30822" lon="-1.48238">
        <ele>284.5</ele>
        <time>2022-09-04T07:11:45Z</time>
      </trkpt>
      <trkpt lat="43.30823" lon="-1.48238">
        <ele>284.7</ele>
        <time>2022-09-04T07:11:46Z</time>
      </trkpt>
      <trkpt lat="43.30825" lon="-1.48237">
        <ele>285.1</ele>
        <time>2022-09-04T07:11:47Z</time>
      </trkpt>
      <trkpt lat="43.30826" lon="-1.48236">
        <ele>285.4</ele>
        <time>2022-09-04T07:11:48Z</time>
      </trkpt>
      <trkpt lat="43.30828" lon="-1.48236">
        <ele>285.8</ele>
        <time>2022-09-04T07:11:49Z</time>
      </trkpt>
      <trkpt lat="43.3083" lon="-1.48236">
        <ele>286.1</ele>
        <time>2022-09-04T07:11:50Z</time>
      </trkpt>
      <trkpt lat="43.30831" lon="-1.48236">
        <ele>286.4</ele>
        <time>2022-09-04T07:11:51Z</time>
      </trkpt>
      <trkpt lat="43.30833" lon="-1.48236">
        <ele>286.7</ele>
        <time>2022-09-04T07:11:52Z</time>
      </trkpt>
      <trkpt lat="43.30836" lon="-1.48236">
        <ele>287.3</ele>
        <time>2022-09-04T07:11:53Z</time>
      </trkpt>
      <trkpt lat="43.30837" lon="-1.48236">
        <ele>287.5</ele>
        <time>2022-09-04T07:11:54Z</time>
      </trkpt>
      <trkpt lat="43.30839" lon="-1.48236">
        <ele>287.8</ele>
        <time>2022-09-04T07:11:55Z</time>
      </trkpt>
      <trkpt lat="43.3084" lon="-1.48236">
        <ele>288.1</ele>
        <time>2022-09-04T07:11:56Z</time>
      </trkpt>
      <trkpt lat="43.30844" lon="-1.48236">
        <ele>288.6</ele>
        <time>2022-09-04T07:11:57Z</time>
      </trkpt>
      <trkpt lat="43.30845" lon="-1.48236">
        <ele>288.8</ele>
        <time>2022-09-04T07:11:58Z</time>
      </trkpt>
      <trkpt lat="43.30848" lon="-1.48236">
        <ele>289.3</ele>
        <time>2022-09-04T07:11:59Z</time>
      </trkpt>
      <trkpt lat="43.30849" lon="-1.48236">
        <ele>289.5</ele>
        <time>2022-09-04T07:12:00Z</time>
      </trkpt>
      <trkpt lat="43.30852" lon="-1.48236">
        <ele>289.9</ele>
        <time>2022-09-04T07:12:01Z</time>
      </trkpt>
      <trkpt lat="43.30853" lon="-1.48237">
        <ele>290</ele>
        <time>2022-09-04T07:12:02Z</time>
      </trkpt>
      <trkpt lat="43.30856" lon="-1.48237">
        <ele>290.4</ele>
        <time>2022-09-04T07:12:03Z</time>
      </trkpt>
      <trkpt lat="43.30857" lon="-1.48237">
        <ele>290.5</ele>
        <time>2022-09-04T07:12:04Z</time>
      </trkpt>
      <trkpt lat="43.3086" lon="-1.48237">
        <ele>290.9</ele>
        <time>2022-09-04T07:12:05Z</time>
      </trkpt>
      <trkpt lat="43.30861" lon="-1.48238">
        <ele>291.1</ele>
        <time>2022-09-04T07:12:06Z</time>
      </trkpt>
      <trkpt lat="43.30865" lon="-1.48238">
        <ele>291.5</ele>
        <time>2022-09-04T07:12:07Z</time>
      </trkpt>
      <trkpt lat="43.30866" lon="-1.48238">
        <ele>291.7</ele>
        <time>2022-09-04T07:12:08Z</time>
      </trkpt>
      <trkpt lat="43.30869" lon="-1.48238">
        <ele>292.1</ele>
        <time>2022-09-04T07:12:09Z</time>
      </trkpt>
      <trkpt lat="43.3087" lon="-1.48238">
        <ele>292.3</ele>
        <time>2022-09-04T07:12:10Z</time>
      </trkpt>
      <trkpt lat="43.30873" lon="-1.48239">
        <ele>292.6</ele>
        <time>2022-09-04T07:12:11Z</time>
      </trkpt>
      <trkpt lat="43.30874" lon="-1.48239">
        <ele>292.7</ele>
        <time>2022-09-04T07:12:12Z</time>
      </trkpt>
      <trkpt lat="43.30877" lon="-1.4824">
        <ele>293.1</ele>
        <time>2022-09-04T07:12:13Z</time>
      </trkpt>
      <trkpt lat="43.30878" lon="-1.4824">
        <ele>293.2</ele>
        <time>2022-09-04T07:12:14Z</time>
      </trkpt>
      <trkpt lat="43.30881" lon="-1.48241">
        <ele>293.5</ele>
        <time>2022-09-04T07:12:15Z</time>
      </trkpt>
      <trkpt lat="43.30882" lon="-1.48241">
        <ele>293.6</ele>
        <time>2022-09-04T07:12:16Z</time>
      </trkpt>
      <trkpt lat="43.30885" lon="-1.48242">
        <ele>293.9</ele>
        <time>2022-09-04T07:12:17Z</time>
      </trkpt>
      <trkpt lat="43.30886" lon="-1.48242">
        <ele>294</ele>
        <time>2022-09-04T07:12:18Z</time>
      </trkpt>
      <trkpt lat="43.30889" lon="-1.48242">
        <ele>294.3</ele>
        <time>2022-09-04T07:12:19Z</time>
      </trkpt>
      <trkpt lat="43.3089" lon="-1.48242">
        <ele>294.3</ele>
        <time>2022-09-04T07:12:20Z</time>
      </trkpt>
      <trkpt lat="43.30893" lon="-1.48243">
        <ele>294.5</ele>
        <time>2022-09-04T07:12:21Z</time>
      </trkpt>
      <trkpt lat="43.30894" lon="-1.48244">
        <ele>294.6</ele>
        <time>2022-09-04T07:12:22Z</time>
      </trkpt>
      <trkpt lat="43.30897" lon="-1.48246">
        <ele>294.8</ele>
        <time>2022-09-04T07:12:23Z</time>
      </trkpt>
      <trkpt lat="43.30898" lon="-1.48247">
        <ele>294.8</ele>
        <time>2022-09-04T07:12:24Z</time>
      </trkpt>
      <trkpt lat="43.30901" lon="-1.4825">
        <ele>294.8</ele>
        <time>2022-09-04T07:12:25Z</time>
      </trkpt>
      <trkpt lat="43.30902" lon="-1.48251">
        <ele>294.8</ele>
        <time>2022-09-04T07:12:26Z</time>
      </trkpt>
      <trkpt lat="43.30905" lon="-1.48254">
        <ele>294.8</ele>
        <time>2022-09-04T07:12:27Z</time>
      </trkpt>
      <trkpt lat="43.30908" lon="-1.48257">
        <ele>294.7</ele>
        <time>2022-09-04T07:12:28Z</time>
      </trkpt>
      <trkpt lat="43.30912" lon="-1.4826">
        <ele>294.5</ele>
        <time>2022-09-04T07:12:29Z</time>
      </trkpt>
      <trkpt lat="43.30915" lon="-1.48264">
        <ele>294.2</ele>
        <time>2022-09-04T07:12:30Z</time>
      </trkpt>
      <trkpt lat="43.30917" lon="-1.48266">
        <ele>294.1</ele>
        <time>2022-09-04T07:12:31Z</time>
      </trkpt>
      <trkpt lat="43.30918" lon="-1.48266">
        <ele>294</ele>
        <time>2022-09-04T07:12:32Z</time>
      </trkpt>
      <trkpt lat="43.30919" lon="-1.48265">
        <ele>293.9</ele>
        <time>2022-09-04T07:12:33Z</time>
      </trkpt>
      <trkpt lat="43.30918" lon="-1.48263">
        <ele>293.8</ele>
        <time>2022-09-04T07:12:34Z</time>
      </trkpt>
      <trkpt lat="43.30917" lon="-1.48262">
        <ele>293.7</ele>
        <time>2022-09-04T07:12:35Z</time>
      </trkpt>
      <trkpt lat="43.30913" lon="-1.48263">
        <ele>293.5</ele>
        <time>2022-09-04T07:12:36Z</time>
      </trkpt>
      <trkpt lat="43.30912" lon="-1.48264">
        <ele>293.4</ele>
        <time>2022-09-04T07:12:37Z</time>
      </trkpt>
      <trkpt lat="43.3091" lon="-1.48267">
        <ele>293.3</ele>
        <time>2022-09-04T07:12:38Z</time>
      </trkpt>
      <trkpt lat="43.30908" lon="-1.48269">
        <ele>293.2</ele>
        <time>2022-09-04T07:12:39Z</time>
      </trkpt>
      <trkpt lat="43.30908" lon="-1.4827">
        <ele>293.1</ele>
        <time>2022-09-04T07:12:40Z</time>
      </trkpt>
      <trkpt lat="43.30908" lon="-1.48269">
        <ele>293.1</ele>
        <time>2022-09-04T07:12:41Z</time>
      </trkpt>
      <trkpt lat="43.30908" lon="-1.48269">
        <ele>293.1</ele>
        <time>2022-09-04T07:12:42Z</time>
      </trkpt>
      <trkpt lat="43.30908" lon="-1.48268">
        <ele>293.1</ele>
        <time>2022-09-04T07:12:43Z</time>
      </trkpt>
      <trkpt lat="43.30907" lon="-1.48268">
        <ele>293.1</ele>
        <time>2022-09-04T07:12:44Z</time>
      </trkpt>
      <trkpt lat="43.30907" lon="-1.48268">
        <ele>293.1</ele>
        <time>2022-09-04T07:12:45Z</time>
      </trkpt>
      <trkpt lat="43.30908" lon="-1.48268">
        <ele>293.1</ele>
        <time>2022-09-04T07:12:46Z</time>
      </trkpt>
      <trkpt lat="43.30908" lon="-1.48268">
        <ele>293.1</ele>
        <time>2022-09-04T07:12:47Z</time>
      </trkpt>
      <trkpt lat="43.30907" lon="-1.48268">
        <ele>293.1</ele>
        <time>2022-09-04T07:12:48Z</time>
      </trkpt>
      <trkpt lat="43.30908" lon="-1.48268">
        <ele>293.1</ele>
        <time>2022-09-04T07:12:49Z</time>
      </trkpt>
      <trkpt lat="43.30908" lon="-1.48269">
        <ele>293</ele>
        <time>2022-09-04T07:12:50Z</time>
      </trkpt>
      <trkpt lat="43.30913" lon="-1.48267">
        <ele>292.8</ele>
        <time>2022-09-04T07:12:56Z</time>
      </trkpt>
      <trkpt lat="43.30914" lon="-1.48267">
        <ele>292.8</ele>
        <time>2022-09-04T07:12:57Z</time>
      </trkpt>
      <trkpt lat="43.30915" lon="-1.48267">
        <ele>292.7</ele>
        <time>2022-09-04T07:12:58Z</time>
      </trkpt>
      <trkpt lat="43.30915" lon="-1.48266">
        <ele>292.7</ele>
        <time>2022-09-04T07:12:59Z</time>
      </trkpt>
      <trkpt lat="43.30915" lon="-1.48266">
        <ele>292.7</ele>
        <time>2022-09-04T07:13:00Z</time>
      </trkpt>
      <trkpt lat="43.30915" lon="-1.48265">
        <ele>292.7</ele>
        <time>2022-09-04T07:13:01Z</time>
      </trkpt>
      <trkpt lat="43.30915" lon="-1.48265">
        <ele>292.7</ele>
        <time>2022-09-04T07:13:02Z</time>
      </trkpt>
      <trkpt lat="43.30915" lon="-1.48265">
        <ele>292.7</ele>
        <time>2022-09-04T07:13:03Z</time>
      </trkpt>
      <trkpt lat="43.30915" lon="-1.48265">
        <ele>292.7</ele>
        <time>2022-09-04T07:13:04Z</time>
      </trkpt>
      <trkpt lat="43.30916" lon="-1.48264">
        <ele>292.6</ele>
        <time>2022-09-04T07:13:05Z</time>
      </trkpt>
      <trkpt lat="43.30917" lon="-1.48264">
        <ele>292.6</ele>
        <time>2022-09-04T07:13:06Z</time>
      </trkpt>
      <trkpt lat="43.30917" lon="-1.48264">
        <ele>292.6</ele>
        <time>2022-09-04T07:13:08Z</time>
      </trkpt>
      <trkpt lat="43.30918" lon="-1.48264">
        <ele>292.6</ele>
        <time>2022-09-04T07:15:19Z</time>
      </trkpt>
      <trkpt lat="43.30919" lon="-1.48263">
        <ele>292.6</ele>
        <time>2022-09-04T07:15:20Z</time>
      </trkpt>
      <trkpt lat="43.30919" lon="-1.48263">
        <ele>292.5</ele>
        <time>2022-09-04T07:15:21Z</time>
      </trkpt>
      <trkpt lat="43.30923" lon="-1.48261">
        <ele>292.4</ele>
        <time>2022-09-04T07:15:22Z</time>
      </trkpt>
      <trkpt lat="43.30924" lon="-1.4826">
        <ele>292.4</ele>
        <time>2022-09-04T07:15:23Z</time>
      </trkpt>
      <trkpt lat="43.30926" lon="-1.48256">
        <ele>292.4</ele>
        <time>2022-09-04T07:15:24Z</time>
      </trkpt>
      <trkpt lat="43.30927" lon="-1.48255">
        <ele>292.4</ele>
        <time>2022-09-04T07:15:25Z</time>
      </trkpt>
      <trkpt lat="43.30929" lon="-1.48251">
        <ele>292.4</ele>
        <time>2022-09-04T07:15:26Z</time>
      </trkpt>
      <trkpt lat="43.3093" lon="-1.48247">
        <ele>292.4</ele>
        <time>2022-09-04T07:15:27Z</time>
      </trkpt>
      <trkpt lat="43.30932" lon="-1.48242">
        <ele>292.5</ele>
        <time>2022-09-04T07:15:28Z</time>
      </trkpt>
      <trkpt lat="43.30934" lon="-1.48238">
        <ele>292.6</ele>
        <time>2022-09-04T07:15:29Z</time>
      </trkpt>
      <trkpt lat="43.30936" lon="-1.48233">
        <ele>292.7</ele>
        <time>2022-09-04T07:15:30Z</time>
      </trkpt>
      <trkpt lat="43.30939" lon="-1.48229">
        <ele>292.9</ele>
        <time>2022-09-04T07:15:31Z</time>
      </trkpt>
      <trkpt lat="43.30941" lon="-1.48226">
        <ele>293</ele>
        <time>2022-09-04T07:15:32Z</time>
      </trkpt>
      <trkpt lat="43.30942" lon="-1.48223">
        <ele>293.2</ele>
        <time>2022-09-04T07:15:33Z</time>
      </trkpt>
      <trkpt lat="43.30944" lon="-1.48219">
        <ele>293.4</ele>
        <time>2022-09-04T07:15:34Z</time>
      </trkpt>
      <trkpt lat="43.30947" lon="-1.48215">
        <ele>293.7</ele>
        <time>2022-09-04T07:15:35Z</time>
      </trkpt>
      <trkpt lat="43.30948" lon="-1.48214">
        <ele>293.8</ele>
        <time>2022-09-04T07:15:36Z</time>
      </trkpt>
      <trkpt lat="43.3095" lon="-1.48211">
        <ele>294</ele>
        <time>2022-09-04T07:15:37Z</time>
      </trkpt>
      <trkpt lat="43.30953" lon="-1.48207">
        <ele>294.2</ele>
        <time>2022-09-04T07:15:38Z</time>
      </trkpt>
      <trkpt lat="43.30955" lon="-1.48204">
        <ele>294.4</ele>
        <time>2022-09-04T07:15:39Z</time>
      </trkpt>
      <trkpt lat="43.30957" lon="-1.482">
        <ele>294.5</ele>
        <time>2022-09-04T07:15:40Z</time>
      </trkpt>
      <trkpt lat="43.30959" lon="-1.48197">
        <ele>294.7</ele>
        <time>2022-09-04T07:15:41Z</time>
      </trkpt>
      <trkpt lat="43.30961" lon="-1.48194">
        <ele>294.8</ele>
        <time>2022-09-04T07:15:42Z</time>
      </trkpt>
      <trkpt lat="43.30962" lon="-1.48191">
        <ele>295</ele>
        <time>2022-09-04T07:15:43Z</time>
      </trkpt>
      <trkpt lat="43.30965" lon="-1.48188">
        <ele>295.1</ele>
        <time>2022-09-04T07:15:44Z</time>
      </trkpt>
      <trkpt lat="43.30966" lon="-1.48187">
        <ele>295.2</ele>
        <time>2022-09-04T07:15:45Z</time>
      </trkpt>
      <trkpt lat="43.30969" lon="-1.48186">
        <ele>295.4</ele>
        <time>2022-09-04T07:15:46Z</time>
      </trkpt>
      <trkpt lat="43.3097" lon="-1.48186">
        <ele>295.5</ele>
        <time>2022-09-04T07:15:47Z</time>
      </trkpt>
      <trkpt lat="43.30973" lon="-1.48186">
        <ele>295.7</ele>
        <time>2022-09-04T07:15:48Z</time>
      </trkpt>
      <trkpt lat="43.30974" lon="-1.48187">
        <ele>295.8</ele>
        <time>2022-09-04T07:15:49Z</time>
      </trkpt>
      <trkpt lat="43.30977" lon="-1.4819">
        <ele>296.2</ele>
        <time>2022-09-04T07:15:50Z</time>
      </trkpt>
      <trkpt lat="43.30978" lon="-1.48191">
        <ele>296.3</ele>
        <time>2022-09-04T07:15:51Z</time>
      </trkpt>
      <trkpt lat="43.30981" lon="-1.48194">
        <ele>296.7</ele>
        <time>2022-09-04T07:15:52Z</time>
      </trkpt>
      <trkpt lat="43.30982" lon="-1.48196">
        <ele>297</ele>
        <time>2022-09-04T07:15:53Z</time>
      </trkpt>
      <trkpt lat="43.30985" lon="-1.48199">
        <ele>297.4</ele>
        <time>2022-09-04T07:15:54Z</time>
      </trkpt>
      <trkpt lat="43.30988" lon="-1.482">
        <ele>297.8</ele>
        <time>2022-09-04T07:15:55Z</time>
      </trkpt>
      <trkpt lat="43.30991" lon="-1.48202">
        <ele>298.3</ele>
        <time>2022-09-04T07:15:56Z</time>
      </trkpt>
      <trkpt lat="43.30994" lon="-1.48202">
        <ele>298.8</ele>
        <time>2022-09-04T07:15:57Z</time>
      </trkpt>
      <trkpt lat="43.30997" lon="-1.48203">
        <ele>299.2</ele>
        <time>2022-09-04T07:15:58Z</time>
      </trkpt>
      <trkpt lat="43.31001" lon="-1.48202">
        <ele>299.8</ele>
        <time>2022-09-04T07:15:59Z</time>
      </trkpt>
      <trkpt lat="43.31002" lon="-1.48201">
        <ele>300</ele>
        <time>2022-09-04T07:16:00Z</time>
      </trkpt>
      <trkpt lat="43.31004" lon="-1.48199">
        <ele>300.4</ele>
        <time>2022-09-04T07:16:01Z</time>
      </trkpt>
      <trkpt lat="43.31005" lon="-1.48198">
        <ele>300.6</ele>
        <time>2022-09-04T07:16:02Z</time>
      </trkpt>
      <trkpt lat="43.31008" lon="-1.48197">
        <ele>301.1</ele>
        <time>2022-09-04T07:16:03Z</time>
      </trkpt>
      <trkpt lat="43.31011" lon="-1.48197">
        <ele>301.5</ele>
        <time>2022-09-04T07:16:04Z</time>
      </trkpt>
      <trkpt lat="43.31015" lon="-1.48197">
        <ele>302.1</ele>
        <time>2022-09-04T07:16:05Z</time>
      </trkpt>
      <trkpt lat="43.31016" lon="-1.48196">
        <ele>302.3</ele>
        <time>2022-09-04T07:16:06Z</time>
      </trkpt>
      <trkpt lat="43.31019" lon="-1.48195">
        <ele>302.7</ele>
        <time>2022-09-04T07:16:07Z</time>
      </trkpt>
      <trkpt lat="43.3102" lon="-1.48194">
        <ele>302.8</ele>
        <time>2022-09-04T07:16:08Z</time>
      </trkpt>
      <trkpt lat="43.31023" lon="-1.48192">
        <ele>303.2</ele>
        <time>2022-09-04T07:16:09Z</time>
      </trkpt>
      <trkpt lat="43.31024" lon="-1.48192">
        <ele>303.3</ele>
        <time>2022-09-04T07:16:10Z</time>
      </trkpt>
      <trkpt lat="43.31026" lon="-1.48188">
        <ele>303.7</ele>
        <time>2022-09-04T07:16:11Z</time>
      </trkpt>
      <trkpt lat="43.31027" lon="-1.48187">
        <ele>303.8</ele>
        <time>2022-09-04T07:16:12Z</time>
      </trkpt>
      <trkpt lat="43.31028" lon="-1.48183">
        <ele>304</ele>
        <time>2022-09-04T07:16:13Z</time>
      </trkpt>
      <trkpt lat="43.31028" lon="-1.48182">
        <ele>304.1</ele>
        <time>2022-09-04T07:16:14Z</time>
      </trkpt>
      <trkpt lat="43.31028" lon="-1.48178">
        <ele>304.3</ele>
        <time>2022-09-04T07:16:15Z</time>
      </trkpt>
      <trkpt lat="43.31028" lon="-1.48176">
        <ele>304.4</ele>
        <time>2022-09-04T07:16:16Z</time>
      </trkpt>
      <trkpt lat="43.31028" lon="-1.48172">
        <ele>304.5</ele>
        <time>2022-09-04T07:16:17Z</time>
      </trkpt>
      <trkpt lat="43.31029" lon="-1.4817">
        <ele>304.5</ele>
        <time>2022-09-04T07:16:18Z</time>
      </trkpt>
      <trkpt lat="43.3103" lon="-1.48166">
        <ele>304.6</ele>
        <time>2022-09-04T07:16:19Z</time>
      </trkpt>
      <trkpt lat="43.31031" lon="-1.48165">
        <ele>304.6</ele>
        <time>2022-09-04T07:16:20Z</time>
      </trkpt>
      <trkpt lat="43.31034" lon="-1.48162">
        <ele>304.5</ele>
        <time>2022-09-04T07:16:21Z</time>
      </trkpt>
      <trkpt lat="43.31035" lon="-1.48161">
        <ele>304.4</ele>
        <time>2022-09-04T07:16:22Z</time>
      </trkpt>
      <trkpt lat="43.31037" lon="-1.48159">
        <ele>304.2</ele>
        <time>2022-09-04T07:16:23Z</time>
      </trkpt>
      <trkpt lat="43.31038" lon="-1.48158">
        <ele>304.2</ele>
        <time>2022-09-04T07:16:24Z</time>
      </trkpt>
      <trkpt lat="43.31042" lon="-1.48157">
        <ele>303.9</ele>
        <time>2022-09-04T07:16:25Z</time>
      </trkpt>
      <trkpt lat="43.31043" lon="-1.48157">
        <ele>303.7</ele>
        <time>2022-09-04T07:16:26Z</time>
      </trkpt>
      <trkpt lat="43.31046" lon="-1.48157">
        <ele>303.4</ele>
        <time>2022-09-04T07:16:27Z</time>
      </trkpt>
      <trkpt lat="43.31049" lon="-1.48156">
        <ele>303.1</ele>
        <time>2022-09-04T07:16:28Z</time>
      </trkpt>
      <trkpt lat="43.31052" lon="-1.48157">
        <ele>302.6</ele>
        <time>2022-09-04T07:16:29Z</time>
      </trkpt>
      <trkpt lat="43.31055" lon="-1.48157">
        <ele>302.1</ele>
        <time>2022-09-04T07:16:30Z</time>
      </trkpt>
      <trkpt lat="43.31059" lon="-1.48158">
        <ele>301.5</ele>
        <time>2022-09-04T07:16:31Z</time>
      </trkpt>
      <trkpt lat="43.31063" lon="-1.48157">
        <ele>301</ele>
        <time>2022-09-04T07:16:32Z</time>
      </trkpt>
      <trkpt lat="43.31066" lon="-1.48157">
        <ele>300.4</ele>
        <time>2022-09-04T07:16:33Z</time>
      </trkpt>
      <trkpt lat="43.3107" lon="-1.48156">
        <ele>299.8</ele>
        <time>2022-09-04T07:16:34Z</time>
      </trkpt>
      <trkpt lat="43.31073" lon="-1.48155">
        <ele>299.1</ele>
        <time>2022-09-04T07:16:35Z</time>
      </trkpt>
      <trkpt lat="43.31077" lon="-1.48155">
        <ele>298.4</ele>
        <time>2022-09-04T07:16:36Z</time>
      </trkpt>
      <trkpt lat="43.3108" lon="-1.48153">
        <ele>297.7</ele>
        <time>2022-09-04T07:16:37Z</time>
      </trkpt>
      <trkpt lat="43.31083" lon="-1.48153">
        <ele>297.1</ele>
        <time>2022-09-04T07:16:38Z</time>
      </trkpt>
      <trkpt lat="43.31086" lon="-1.48153">
        <ele>296.5</ele>
        <time>2022-09-04T07:16:39Z</time>
      </trkpt>
      <trkpt lat="43.31089" lon="-1.48154">
        <ele>295.9</ele>
        <time>2022-09-04T07:16:40Z</time>
      </trkpt>
      <trkpt lat="43.31092" lon="-1.48158">
        <ele>295</ele>
        <time>2022-09-04T07:16:41Z</time>
      </trkpt>
      <trkpt lat="43.31094" lon="-1.48163">
        <ele>294.1</ele>
        <time>2022-09-04T07:16:42Z</time>
      </trkpt>
      <trkpt lat="43.31096" lon="-1.48167">
        <ele>293.3</ele>
        <time>2022-09-04T07:16:43Z</time>
      </trkpt>
      <trkpt lat="43.31098" lon="-1.48172">
        <ele>292.5</ele>
        <time>2022-09-04T07:16:44Z</time>
      </trkpt>
      <trkpt lat="43.311" lon="-1.48175">
        <ele>291.9</ele>
        <time>2022-09-04T07:16:45Z</time>
      </trkpt>
      <trkpt lat="43.31102" lon="-1.4818">
        <ele>291.1</ele>
        <time>2022-09-04T07:16:46Z</time>
      </trkpt>
      <trkpt lat="43.31105" lon="-1.48185">
        <ele>290.4</ele>
        <time>2022-09-04T07:16:47Z</time>
      </trkpt>
      <trkpt lat="43.31109" lon="-1.4819">
        <ele>289.6</ele>
        <time>2022-09-04T07:16:48Z</time>
      </trkpt>
      <trkpt lat="43.31113" lon="-1.48195">
        <ele>289</ele>
        <time>2022-09-04T07:16:49Z</time>
      </trkpt>
      <trkpt lat="43.31117" lon="-1.48202">
        <ele>288.4</ele>
        <time>2022-09-04T07:16:50Z</time>
      </trkpt>
      <trkpt lat="43.31119" lon="-1.48208">
        <ele>287.8</ele>
        <time>2022-09-04T07:16:51Z</time>
      </trkpt>
      <trkpt lat="43.31122" lon="-1.48215">
        <ele>287.2</ele>
        <time>2022-09-04T07:16:52Z</time>
      </trkpt>
      <trkpt lat="43.31125" lon="-1.48222">
        <ele>286.5</ele>
        <time>2022-09-04T07:16:53Z</time>
      </trkpt>
      <trkpt lat="43.31128" lon="-1.48227">
        <ele>285.9</ele>
        <time>2022-09-04T07:16:54Z</time>
      </trkpt>
      <trkpt lat="43.31133" lon="-1.48232">
        <ele>285.2</ele>
        <time>2022-09-04T07:16:55Z</time>
      </trkpt>
      <trkpt lat="43.31138" lon="-1.48238">
        <ele>284.4</ele>
        <time>2022-09-04T07:16:56Z</time>
      </trkpt>
      <trkpt lat="43.31143" lon="-1.48246">
        <ele>283.5</ele>
        <time>2022-09-04T07:16:57Z</time>
      </trkpt>
      <trkpt lat="43.31147" lon="-1.48253">
        <ele>282.8</ele>
        <time>2022-09-04T07:16:58Z</time>
      </trkpt>
      <trkpt lat="43.3115" lon="-1.4826">
        <ele>282.1</ele>
        <time>2022-09-04T07:16:59Z</time>
      </trkpt>
      <trkpt lat="43.31153" lon="-1.48266">
        <ele>281.4</ele>
        <time>2022-09-04T07:17:00Z</time>
      </trkpt>
      <trkpt lat="43.31157" lon="-1.48271">
        <ele>280.6</ele>
        <time>2022-09-04T07:17:01Z</time>
      </trkpt>
      <trkpt lat="43.31161" lon="-1.48275">
        <ele>279.9</ele>
        <time>2022-09-04T07:17:02Z</time>
      </trkpt>
      <trkpt lat="43.31165" lon="-1.4828">
        <ele>279.1</ele>
        <time>2022-09-04T07:17:03Z</time>
      </trkpt>
      <trkpt lat="43.31169" lon="-1.48286">
        <ele>278.3</ele>
        <time>2022-09-04T07:17:04Z</time>
      </trkpt>
      <trkpt lat="43.31175" lon="-1.48293">
        <ele>277.4</ele>
        <time>2022-09-04T07:17:05Z</time>
      </trkpt>
      <trkpt lat="43.31181" lon="-1.483">
        <ele>276.5</ele>
        <time>2022-09-04T07:17:06Z</time>
      </trkpt>
      <trkpt lat="43.31187" lon="-1.48307">
        <ele>275.8</ele>
        <time>2022-09-04T07:17:07Z</time>
      </trkpt>
      <trkpt lat="43.31193" lon="-1.48316">
        <ele>275.1</ele>
        <time>2022-09-04T07:17:08Z</time>
      </trkpt>
      <trkpt lat="43.31198" lon="-1.48325">
        <ele>274.4</ele>
        <time>2022-09-04T07:17:09Z</time>
      </trkpt>
      <trkpt lat="43.31203" lon="-1.48335">
        <ele>273.7</ele>
        <time>2022-09-04T07:17:10Z</time>
      </trkpt>
      <trkpt lat="43.31206" lon="-1.48345">
        <ele>273.2</ele>
        <time>2022-09-04T07:17:11Z</time>
      </trkpt>
      <trkpt lat="43.31209" lon="-1.48352">
        <ele>272.8</ele>
        <time>2022-09-04T07:17:12Z</time>
      </trkpt>
      <trkpt lat="43.31211" lon="-1.4836">
        <ele>272.3</ele>
        <time>2022-09-04T07:17:13Z</time>
      </trkpt>
      <trkpt lat="43.31215" lon="-1.48367">
        <ele>271.8</ele>
        <time>2022-09-04T07:17:14Z</time>
      </trkpt>
      <trkpt lat="43.31218" lon="-1.48374">
        <ele>271.3</ele>
        <time>2022-09-04T07:17:15Z</time>
      </trkpt>
      <trkpt lat="43.31221" lon="-1.48381">
        <ele>270.7</ele>
        <time>2022-09-04T07:17:16Z</time>
      </trkpt>
      <trkpt lat="43.31224" lon="-1.48388">
        <ele>270.1</ele>
        <time>2022-09-04T07:17:17Z</time>
      </trkpt>
      <trkpt lat="43.31228" lon="-1.48396">
        <ele>269.4</ele>
        <time>2022-09-04T07:17:18Z</time>
      </trkpt>
      <trkpt lat="43.31232" lon="-1.48404">
        <ele>268.8</ele>
        <time>2022-09-04T07:17:19Z</time>
      </trkpt>
      <trkpt lat="43.31236" lon="-1.4841">
        <ele>268.4</ele>
        <time>2022-09-04T07:17:20Z</time>
      </trkpt>
      <trkpt lat="43.31241" lon="-1.48414">
        <ele>267.9</ele>
        <time>2022-09-04T07:17:21Z</time>
      </trkpt>
      <trkpt lat="43.31244" lon="-1.48418">
        <ele>267.4</ele>
        <time>2022-09-04T07:17:22Z</time>
      </trkpt>
      <trkpt lat="43.31248" lon="-1.48423">
        <ele>266.9</ele>
        <time>2022-09-04T07:17:23Z</time>
      </trkpt>
      <trkpt lat="43.31251" lon="-1.48428">
        <ele>266.4</ele>
        <time>2022-09-04T07:17:24Z</time>
      </trkpt>
      <trkpt lat="43.31254" lon="-1.48432">
        <ele>265.9</ele>
        <time>2022-09-04T07:17:25Z</time>
      </trkpt>
      <trkpt lat="43.31257" lon="-1.48436">
        <ele>265.4</ele>
        <time>2022-09-04T07:17:26Z</time>
      </trkpt>
      <trkpt lat="43.3126" lon="-1.48441">
        <ele>264.7</ele>
        <time>2022-09-04T07:17:27Z</time>
      </trkpt>
      <trkpt lat="43.31262" lon="-1.48446">
        <ele>264</ele>
        <time>2022-09-04T07:17:28Z</time>
      </trkpt>
      <trkpt lat="43.31263" lon="-1.48451">
        <ele>263.3</ele>
        <time>2022-09-04T07:17:29Z</time>
      </trkpt>
      <trkpt lat="43.31265" lon="-1.48456">
        <ele>261.8</ele>
        <time>2022-09-04T07:17:30Z</time>
      </trkpt>
      <trkpt lat="43.31266" lon="-1.48461">
        <ele>262.2</ele>
        <time>2022-09-04T07:17:31Z</time>
      </trkpt>
      <trkpt lat="43.31267" lon="-1.48462">
        <ele>262.3</ele>
        <time>2022-09-04T07:17:32Z</time>
      </trkpt>
      <trkpt lat="43.31267" lon="-1.48461">
        <ele>262.4</ele>
        <time>2022-09-04T07:17:33Z</time>
      </trkpt>
      <trkpt lat="43.31267" lon="-1.4846">
        <ele>262.5</ele>
        <time>2022-09-04T07:17:34Z</time>
      </trkpt>
      <trkpt lat="43.31267" lon="-1.48459">
        <ele>262.6</ele>
        <time>2022-09-04T07:17:35Z</time>
      </trkpt>
      <trkpt lat="43.31267" lon="-1.48458">
        <ele>262.7</ele>
        <time>2022-09-04T07:17:36Z</time>
      </trkpt>
      <trkpt lat="43.31267" lon="-1.48456">
        <ele>262.8</ele>
        <time>2022-09-04T07:17:37Z</time>
      </trkpt>
      <trkpt lat="43.31267" lon="-1.48455">
        <ele>262.9</ele>
        <time>2022-09-04T07:17:38Z</time>
      </trkpt>
      <trkpt lat="43.31268" lon="-1.4845">
        <ele>263.3</ele>
        <time>2022-09-04T07:17:39Z</time>
      </trkpt>
      <trkpt lat="43.31269" lon="-1.48446">
        <ele>263.7</ele>
        <time>2022-09-04T07:17:40Z</time>
      </trkpt>
      <trkpt lat="43.31269" lon="-1.48442">
        <ele>264.1</ele>
        <time>2022-09-04T07:17:41Z</time>
      </trkpt>
      <trkpt lat="43.31268" lon="-1.48437">
        <ele>264.5</ele>
        <time>2022-09-04T07:17:42Z</time>
      </trkpt>
      <trkpt lat="43.31268" lon="-1.48433">
        <ele>264.9</ele>
        <time>2022-09-04T07:17:43Z</time>
      </trkpt>
      <trkpt lat="43.31268" lon="-1.48429">
        <ele>265.3</ele>
        <time>2022-09-04T07:17:44Z</time>
      </trkpt>
      <trkpt lat="43.31268" lon="-1.48425">
        <ele>265.7</ele>
        <time>2022-09-04T07:17:45Z</time>
      </trkpt>
      <trkpt lat="43.31269" lon="-1.48421">
        <ele>266.2</ele>
        <time>2022-09-04T07:17:46Z</time>
      </trkpt>
      <trkpt lat="43.31269" lon="-1.48416">
        <ele>266.7</ele>
        <time>2022-09-04T07:17:47Z</time>
      </trkpt>
      <trkpt lat="43.31271" lon="-1.48412">
        <ele>267.1</ele>
        <time>2022-09-04T07:17:48Z</time>
      </trkpt>
      <trkpt lat="43.31272" lon="-1.48408">
        <ele>267.6</ele>
        <time>2022-09-04T07:17:49Z</time>
      </trkpt>
      <trkpt lat="43.31274" lon="-1.48404">
        <ele>268</ele>
        <time>2022-09-04T07:17:50Z</time>
      </trkpt>
      <trkpt lat="43.31275" lon="-1.48401">
        <ele>268.3</ele>
        <time>2022-09-04T07:17:51Z</time>
      </trkpt>
      <trkpt lat="43.31276" lon="-1.48397">
        <ele>268.7</ele>
        <time>2022-09-04T07:17:52Z</time>
      </trkpt>
      <trkpt lat="43.31278" lon="-1.48394">
        <ele>269.1</ele>
        <time>2022-09-04T07:17:53Z</time>
      </trkpt>
      <trkpt lat="43.31279" lon="-1.4839">
        <ele>269.4</ele>
        <time>2022-09-04T07:17:54Z</time>
      </trkpt>
      <trkpt lat="43.31281" lon="-1.48387">
        <ele>269.7</ele>
        <time>2022-09-04T07:17:55Z</time>
      </trkpt>
      <trkpt lat="43.31282" lon="-1.48382">
        <ele>270.1</ele>
        <time>2022-09-04T07:17:56Z</time>
      </trkpt>
      <trkpt lat="43.31283" lon="-1.48381">
        <ele>270.2</ele>
        <time>2022-09-04T07:17:57Z</time>
      </trkpt>
      <trkpt lat="43.31285" lon="-1.48375">
        <ele>270.7</ele>
        <time>2022-09-04T07:17:58Z</time>
      </trkpt>
      <trkpt lat="43.31285" lon="-1.48373">
        <ele>270.9</ele>
        <time>2022-09-04T07:17:59Z</time>
      </trkpt>
      <trkpt lat="43.31287" lon="-1.48369">
        <ele>271.2</ele>
        <time>2022-09-04T07:18:00Z</time>
      </trkpt>
      <trkpt lat="43.3129" lon="-1.48365">
        <ele>271.5</ele>
        <time>2022-09-04T07:18:01Z</time>
      </trkpt>
      <trkpt lat="43.31293" lon="-1.48362">
        <ele>271.8</ele>
        <time>2022-09-04T07:18:02Z</time>
      </trkpt>
      <trkpt lat="43.31295" lon="-1.48358">
        <ele>272.2</ele>
        <time>2022-09-04T07:18:03Z</time>
      </trkpt>
      <trkpt lat="43.31297" lon="-1.48354">
        <ele>272.5</ele>
        <time>2022-09-04T07:18:04Z</time>
      </trkpt>
      <trkpt lat="43.31299" lon="-1.4835">
        <ele>272.9</ele>
        <time>2022-09-04T07:18:05Z</time>
      </trkpt>
      <trkpt lat="43.313" lon="-1.48347">
        <ele>273.2</ele>
        <time>2022-09-04T07:18:06Z</time>
      </trkpt>
      <trkpt lat="43.31302" lon="-1.48343">
        <ele>273.6</ele>
        <time>2022-09-04T07:18:07Z</time>
      </trkpt>
      <trkpt lat="43.31305" lon="-1.4834">
        <ele>274</ele>
        <time>2022-09-04T07:18:08Z</time>
      </trkpt>
      <trkpt lat="43.31307" lon="-1.48337">
        <ele>274.3</ele>
        <time>2022-09-04T07:18:09Z</time>
      </trkpt>
      <trkpt lat="43.31309" lon="-1.48334">
        <ele>274.7</ele>
        <time>2022-09-04T07:18:10Z</time>
      </trkpt>
      <trkpt lat="43.31312" lon="-1.48331">
        <ele>275</ele>
        <time>2022-09-04T07:18:11Z</time>
      </trkpt>
      <trkpt lat="43.31315" lon="-1.48328">
        <ele>275.4</ele>
        <time>2022-09-04T07:18:12Z</time>
      </trkpt>
      <trkpt lat="43.31317" lon="-1.48324">
        <ele>275.7</ele>
        <time>2022-09-04T07:18:13Z</time>
      </trkpt>
      <trkpt lat="43.31319" lon="-1.48321">
        <ele>276</ele>
        <time>2022-09-04T07:18:14Z</time>
      </trkpt>
      <trkpt lat="43.31321" lon="-1.48318">
        <ele>276.3</ele>
        <time>2022-09-04T07:18:15Z</time>
      </trkpt>
      <trkpt lat="43.31324" lon="-1.48316">
        <ele>276.5</ele>
        <time>2022-09-04T07:18:16Z</time>
      </trkpt>
      <trkpt lat="43.31326" lon="-1.48313">
        <ele>276.8</ele>
        <time>2022-09-04T07:18:17Z</time>
      </trkpt>
      <trkpt lat="43.31328" lon="-1.48311">
        <ele>277</ele>
        <time>2022-09-04T07:18:18Z</time>
      </trkpt>
      <trkpt lat="43.3133" lon="-1.48308">
        <ele>277.2</ele>
        <time>2022-09-04T07:18:19Z</time>
      </trkpt>
      <trkpt lat="43.31332" lon="-1.48305">
        <ele>277.4</ele>
        <time>2022-09-04T07:18:20Z</time>
      </trkpt>
      <trkpt lat="43.31335" lon="-1.48303">
        <ele>277.6</ele>
        <time>2022-09-04T07:18:21Z</time>
      </trkpt>
      <trkpt lat="43.31338" lon="-1.483">
        <ele>277.8</ele>
        <time>2022-09-04T07:18:22Z</time>
      </trkpt>
      <trkpt lat="43.3134" lon="-1.48298">
        <ele>278</ele>
        <time>2022-09-04T07:18:23Z</time>
      </trkpt>
      <trkpt lat="43.31343" lon="-1.48295">
        <ele>278.2</ele>
        <time>2022-09-04T07:18:24Z</time>
      </trkpt>
      <trkpt lat="43.31346" lon="-1.48293">
        <ele>278.3</ele>
        <time>2022-09-04T07:18:25Z</time>
      </trkpt>
      <trkpt lat="43.31348" lon="-1.48291">
        <ele>278.5</ele>
        <time>2022-09-04T07:18:26Z</time>
      </trkpt>
      <trkpt lat="43.3135" lon="-1.48288">
        <ele>278.7</ele>
        <time>2022-09-04T07:18:27Z</time>
      </trkpt>
      <trkpt lat="43.31352" lon="-1.48286">
        <ele>278.8</ele>
        <time>2022-09-04T07:18:28Z</time>
      </trkpt>
      <trkpt lat="43.31354" lon="-1.48283">
        <ele>279</ele>
        <time>2022-09-04T07:18:29Z</time>
      </trkpt>
      <trkpt lat="43.31356" lon="-1.4828">
        <ele>279.2</ele>
        <time>2022-09-04T07:18:30Z</time>
      </trkpt>
      <trkpt lat="43.31358" lon="-1.48276">
        <ele>279.5</ele>
        <time>2022-09-04T07:18:31Z</time>
      </trkpt>
      <trkpt lat="43.3136" lon="-1.48272">
        <ele>279.8</ele>
        <time>2022-09-04T07:18:32Z</time>
      </trkpt>
      <trkpt lat="43.31361" lon="-1.48268">
        <ele>280</ele>
        <time>2022-09-04T07:18:33Z</time>
      </trkpt>
      <trkpt lat="43.31363" lon="-1.48265">
        <ele>280.3</ele>
        <time>2022-09-04T07:18:34Z</time>
      </trkpt>
      <trkpt lat="43.31365" lon="-1.48263">
        <ele>280.7</ele>
        <time>2022-09-04T07:18:35Z</time>
      </trkpt>
      <trkpt lat="43.31367" lon="-1.4826">
        <ele>281</ele>
        <time>2022-09-04T07:18:36Z</time>
      </trkpt>
      <trkpt lat="43.31369" lon="-1.48257">
        <ele>281.4</ele>
        <time>2022-09-04T07:18:37Z</time>
      </trkpt>
      <trkpt lat="43.31372" lon="-1.48253">
        <ele>282</ele>
        <time>2022-09-04T07:18:38Z</time>
      </trkpt>
      <trkpt lat="43.31373" lon="-1.48249">
        <ele>282.4</ele>
        <time>2022-09-04T07:18:39Z</time>
      </trkpt>
      <trkpt lat="43.31375" lon="-1.48246">
        <ele>282.9</ele>
        <time>2022-09-04T07:18:40Z</time>
      </trkpt>
      <trkpt lat="43.31377" lon="-1.48242">
        <ele>283.3</ele>
        <time>2022-09-04T07:18:41Z</time>
      </trkpt>
      <trkpt lat="43.31379" lon="-1.48239">
        <ele>283.8</ele>
        <time>2022-09-04T07:18:42Z</time>
      </trkpt>
      <trkpt lat="43.31381" lon="-1.48237">
        <ele>284.2</ele>
        <time>2022-09-04T07:18:43Z</time>
      </trkpt>
      <trkpt lat="43.31383" lon="-1.48234">
        <ele>284.6</ele>
        <time>2022-09-04T07:18:44Z</time>
      </trkpt>
      <trkpt lat="43.31385" lon="-1.48231">
        <ele>285</ele>
        <time>2022-09-04T07:18:45Z</time>
      </trkpt>
      <trkpt lat="43.31386" lon="-1.48227">
        <ele>285.4</ele>
        <time>2022-09-04T07:18:46Z</time>
      </trkpt>
      <trkpt lat="43.31386" lon="-1.48223">
        <ele>285.7</ele>
        <time>2022-09-04T07:18:47Z</time>
      </trkpt>
      <trkpt lat="43.31386" lon="-1.4822">
        <ele>286</ele>
        <time>2022-09-04T07:18:48Z</time>
      </trkpt>
      <trkpt lat="43.31387" lon="-1.48216">
        <ele>286.3</ele>
        <time>2022-09-04T07:18:49Z</time>
      </trkpt>
      <trkpt lat="43.31389" lon="-1.48213">
        <ele>286.4</ele>
        <time>2022-09-04T07:18:50Z</time>
      </trkpt>
      <trkpt lat="43.31391" lon="-1.48209">
        <ele>286.5</ele>
        <time>2022-09-04T07:18:51Z</time>
      </trkpt>
      <trkpt lat="43.31394" lon="-1.48206">
        <ele>286.5</ele>
        <time>2022-09-04T07:18:52Z</time>
      </trkpt>
      <trkpt lat="43.31397" lon="-1.48201">
        <ele>286.4</ele>
        <time>2022-09-04T07:18:53Z</time>
      </trkpt>
      <trkpt lat="43.31401" lon="-1.48197">
        <ele>286.2</ele>
        <time>2022-09-04T07:18:54Z</time>
      </trkpt>
      <trkpt lat="43.31404" lon="-1.48193">
        <ele>285.9</ele>
        <time>2022-09-04T07:18:55Z</time>
      </trkpt>
      <trkpt lat="43.31407" lon="-1.48189">
        <ele>285.6</ele>
        <time>2022-09-04T07:18:56Z</time>
      </trkpt>
      <trkpt lat="43.31409" lon="-1.48184">
        <ele>285.3</ele>
        <time>2022-09-04T07:18:57Z</time>
      </trkpt>
      <trkpt lat="43.3141" lon="-1.48179">
        <ele>285</ele>
        <time>2022-09-04T07:18:58Z</time>
      </trkpt>
      <trkpt lat="43.31412" lon="-1.48173">
        <ele>284.7</ele>
        <time>2022-09-04T07:18:59Z</time>
      </trkpt>
      <trkpt lat="43.31412" lon="-1.48167">
        <ele>284.3</ele>
        <time>2022-09-04T07:19:00Z</time>
      </trkpt>
      <trkpt lat="43.31412" lon="-1.4816">
        <ele>284</ele>
        <time>2022-09-04T07:19:01Z</time>
      </trkpt>
      <trkpt lat="43.31413" lon="-1.48154">
        <ele>283.8</ele>
        <time>2022-09-04T07:19:02Z</time>
      </trkpt>
      <trkpt lat="43.31414" lon="-1.48148">
        <ele>283.7</ele>
        <time>2022-09-04T07:19:03Z</time>
      </trkpt>
      <trkpt lat="43.31416" lon="-1.48142">
        <ele>283.7</ele>
        <time>2022-09-04T07:19:04Z</time>
      </trkpt>
      <trkpt lat="43.31418" lon="-1.48138">
        <ele>283.7</ele>
        <time>2022-09-04T07:19:05Z</time>
      </trkpt>
      <trkpt lat="43.3142" lon="-1.48134">
        <ele>283.7</ele>
        <time>2022-09-04T07:19:06Z</time>
      </trkpt>
      <trkpt lat="43.31423" lon="-1.4813">
        <ele>283.8</ele>
        <time>2022-09-04T07:19:07Z</time>
      </trkpt>
      <trkpt lat="43.31426" lon="-1.48127">
        <ele>283.9</ele>
        <time>2022-09-04T07:19:08Z</time>
      </trkpt>
      <trkpt lat="43.3143" lon="-1.48123">
        <ele>284</ele>
        <time>2022-09-04T07:19:09Z</time>
      </trkpt>
      <trkpt lat="43.31434" lon="-1.4812">
        <ele>284.2</ele>
        <time>2022-09-04T07:19:10Z</time>
      </trkpt>
      <trkpt lat="43.31438" lon="-1.48116">
        <ele>284.4</ele>
        <time>2022-09-04T07:19:11Z</time>
      </trkpt>
      <trkpt lat="43.31442" lon="-1.48111">
        <ele>284.6</ele>
        <time>2022-09-04T07:19:12Z</time>
      </trkpt>
      <trkpt lat="43.31444" lon="-1.48106">
        <ele>284.8</ele>
        <time>2022-09-04T07:19:13Z</time>
      </trkpt>
      <trkpt lat="43.31445" lon="-1.48101">
        <ele>285</ele>
        <time>2022-09-04T07:19:14Z</time>
      </trkpt>
      <trkpt lat="43.31445" lon="-1.48096">
        <ele>285.2</ele>
        <time>2022-09-04T07:19:15Z</time>
      </trkpt>
      <trkpt lat="43.31445" lon="-1.48091">
        <ele>285.3</ele>
        <time>2022-09-04T07:19:16Z</time>
      </trkpt>
      <trkpt lat="43.31446" lon="-1.4809">
        <ele>285.3</ele>
        <time>2022-09-04T07:19:17Z</time>
      </trkpt>
      <trkpt lat="43.31446" lon="-1.48088">
        <ele>285.3</ele>
        <time>2022-09-04T07:19:18Z</time>
      </trkpt>
      <trkpt lat="43.31446" lon="-1.48088">
        <ele>285.3</ele>
        <time>2022-09-04T07:19:19Z</time>
      </trkpt>
      <trkpt lat="43.31447" lon="-1.48087">
        <ele>285.2</ele>
        <time>2022-09-04T07:19:20Z</time>
      </trkpt>
      <trkpt lat="43.31447" lon="-1.48087">
        <ele>285.2</ele>
        <time>2022-09-04T07:19:21Z</time>
      </trkpt>
      <trkpt lat="43.31447" lon="-1.48086">
        <ele>285.2</ele>
        <time>2022-09-04T07:19:22Z</time>
      </trkpt>
      <trkpt lat="43.31447" lon="-1.48086">
        <ele>285.2</ele>
        <time>2022-09-04T07:19:23Z</time>
      </trkpt>
      <trkpt lat="43.31448" lon="-1.48085">
        <ele>285.2</ele>
        <time>2022-09-04T07:19:24Z</time>
      </trkpt>
      <trkpt lat="43.31448" lon="-1.48085">
        <ele>285.2</ele>
        <time>2022-09-04T07:19:25Z</time>
      </trkpt>
      <trkpt lat="43.31448" lon="-1.48084">
        <ele>285.2</ele>
        <time>2022-09-04T07:19:26Z</time>
      </trkpt>
      <trkpt lat="43.31448" lon="-1.48084">
        <ele>285.2</ele>
        <time>2022-09-04T07:19:27Z</time>
      </trkpt>
      <trkpt lat="43.31449" lon="-1.48083">
        <ele>285.2</ele>
        <time>2022-09-04T07:19:28Z</time>
      </trkpt>
      <trkpt lat="43.31449" lon="-1.48082">
        <ele>285.2</ele>
        <time>2022-09-04T07:19:29Z</time>
      </trkpt>
      <trkpt lat="43.31449" lon="-1.48082">
        <ele>285.2</ele>
        <time>2022-09-04T07:19:37Z</time>
      </trkpt>
      <trkpt lat="43.31449" lon="-1.48081">
        <ele>285.2</ele>
        <time>2022-09-04T07:19:38Z</time>
      </trkpt>
      <trkpt lat="43.31449" lon="-1.48081">
        <ele>285.2</ele>
        <time>2022-09-04T07:19:39Z</time>
      </trkpt>
      <trkpt lat="43.31451" lon="-1.48077">
        <ele>285.2</ele>
        <time>2022-09-04T07:19:40Z</time>
      </trkpt>
      <trkpt lat="43.31452" lon="-1.48073">
        <ele>285.2</ele>
        <time>2022-09-04T07:19:41Z</time>
      </trkpt>
      <trkpt lat="43.31452" lon="-1.48069">
        <ele>285.2</ele>
        <time>2022-09-04T07:19:42Z</time>
      </trkpt>
      <trkpt lat="43.31453" lon="-1.48065">
        <ele>285.2</ele>
        <time>2022-09-04T07:19:43Z</time>
      </trkpt>
      <trkpt lat="43.31453" lon="-1.48061">
        <ele>285.2</ele>
        <time>2022-09-04T07:19:44Z</time>
      </trkpt>
      <trkpt lat="43.31453" lon="-1.48057">
        <ele>285.2</ele>
        <time>2022-09-04T07:19:45Z</time>
      </trkpt>
      <trkpt lat="43.31452" lon="-1.48053">
        <ele>285.1</ele>
        <time>2022-09-04T07:19:46Z</time>
      </trkpt>
      <trkpt lat="43.31451" lon="-1.48048">
        <ele>285.1</ele>
        <time>2022-09-04T07:19:47Z</time>
      </trkpt>
      <trkpt lat="43.31449" lon="-1.48044">
        <ele>285.1</ele>
        <time>2022-09-04T07:19:48Z</time>
      </trkpt>
      <trkpt lat="43.31448" lon="-1.48039">
        <ele>285</ele>
        <time>2022-09-04T07:19:49Z</time>
      </trkpt>
      <trkpt lat="43.31446" lon="-1.48034">
        <ele>285</ele>
        <time>2022-09-04T07:19:50Z</time>
      </trkpt>
      <trkpt lat="43.31443" lon="-1.4803">
        <ele>284.9</ele>
        <time>2022-09-04T07:19:51Z</time>
      </trkpt>
      <trkpt lat="43.31441" lon="-1.48025">
        <ele>284.8</ele>
        <time>2022-09-04T07:19:52Z</time>
      </trkpt>
      <trkpt lat="43.31439" lon="-1.48019">
        <ele>284.7</ele>
        <time>2022-09-04T07:19:53Z</time>
      </trkpt>
      <trkpt lat="43.31437" lon="-1.48014">
        <ele>284.7</ele>
        <time>2022-09-04T07:19:54Z</time>
      </trkpt>
      <trkpt lat="43.31436" lon="-1.48009">
        <ele>284.6</ele>
        <time>2022-09-04T07:19:55Z</time>
      </trkpt>
      <trkpt lat="43.31435" lon="-1.48005">
        <ele>284.6</ele>
        <time>2022-09-04T07:19:56Z</time>
      </trkpt>
      <trkpt lat="43.31434" lon="-1.48001">
        <ele>284.5</ele>
        <time>2022-09-04T07:19:57Z</time>
      </trkpt>
      <trkpt lat="43.31434" lon="-1.47999">
        <ele>284.5</ele>
        <time>2022-09-04T07:19:58Z</time>
      </trkpt>
      <trkpt lat="43.31434" lon="-1.47994">
        <ele>284.4</ele>
        <time>2022-09-04T07:19:59Z</time>
      </trkpt>
      <trkpt lat="43.31434" lon="-1.47992">
        <ele>284.4</ele>
        <time>2022-09-04T07:20:00Z</time>
      </trkpt>
      <trkpt lat="43.31433" lon="-1.47987">
        <ele>284.3</ele>
        <time>2022-09-04T07:20:01Z</time>
      </trkpt>
      <trkpt lat="43.31433" lon="-1.47983">
        <ele>284.2</ele>
        <time>2022-09-04T07:20:02Z</time>
      </trkpt>
      <trkpt lat="43.31433" lon="-1.47978">
        <ele>284.2</ele>
        <time>2022-09-04T07:20:03Z</time>
      </trkpt>
      <trkpt lat="43.31432" lon="-1.47973">
        <ele>284.2</ele>
        <time>2022-09-04T07:20:04Z</time>
      </trkpt>
      <trkpt lat="43.31432" lon="-1.47967">
        <ele>284.2</ele>
        <time>2022-09-04T07:20:05Z</time>
      </trkpt>
      <trkpt lat="43.31432" lon="-1.47961">
        <ele>284.2</ele>
        <time>2022-09-04T07:20:06Z</time>
      </trkpt>
      <trkpt lat="43.31432" lon="-1.47956">
        <ele>284.3</ele>
        <time>2022-09-04T07:20:07Z</time>
      </trkpt>
      <trkpt lat="43.31431" lon="-1.4795">
        <ele>284.4</ele>
        <time>2022-09-04T07:20:08Z</time>
      </trkpt>
      <trkpt lat="43.3143" lon="-1.47945">
        <ele>284.5</ele>
        <time>2022-09-04T07:20:09Z</time>
      </trkpt>
      <trkpt lat="43.31429" lon="-1.4794">
        <ele>284.6</ele>
        <time>2022-09-04T07:20:10Z</time>
      </trkpt>
      <trkpt lat="43.31428" lon="-1.47936">
        <ele>284.8</ele>
        <time>2022-09-04T07:20:11Z</time>
      </trkpt>
      <trkpt lat="43.31427" lon="-1.47932">
        <ele>284.9</ele>
        <time>2022-09-04T07:20:12Z</time>
      </trkpt>
      <trkpt lat="43.31426" lon="-1.47927">
        <ele>285.1</ele>
        <time>2022-09-04T07:20:13Z</time>
      </trkpt>
      <trkpt lat="43.31426" lon="-1.47925">
        <ele>285.1</ele>
        <time>2022-09-04T07:20:14Z</time>
      </trkpt>
      <trkpt lat="43.31427" lon="-1.47922">
        <ele>285.2</ele>
        <time>2022-09-04T07:20:15Z</time>
      </trkpt>
      <trkpt lat="43.3143" lon="-1.47914">
        <ele>285.5</ele>
        <time>2022-09-04T07:20:17Z</time>
      </trkpt>
      <trkpt lat="43.31432" lon="-1.4791">
        <ele>285.7</ele>
        <time>2022-09-04T07:20:18Z</time>
      </trkpt>
      <trkpt lat="43.31435" lon="-1.47908">
        <ele>285.8</ele>
        <time>2022-09-04T07:20:19Z</time>
      </trkpt>
      <trkpt lat="43.31439" lon="-1.47906">
        <ele>286</ele>
        <time>2022-09-04T07:20:20Z</time>
      </trkpt>
      <trkpt lat="43.31442" lon="-1.47905">
        <ele>286.2</ele>
        <time>2022-09-04T07:20:21Z</time>
      </trkpt>
      <trkpt lat="43.31446" lon="-1.47903">
        <ele>286.4</ele>
        <time>2022-09-04T07:20:22Z</time>
      </trkpt>
      <trkpt lat="43.3145" lon="-1.47902">
        <ele>286.6</ele>
        <time>2022-09-04T07:20:23Z</time>
      </trkpt>
      <trkpt lat="43.31454" lon="-1.47901">
        <ele>286.8</ele>
        <time>2022-09-04T07:20:24Z</time>
      </trkpt>
      <trkpt lat="43.31458" lon="-1.47899">
        <ele>287</ele>
        <time>2022-09-04T07:20:25Z</time>
      </trkpt>
      <trkpt lat="43.31461" lon="-1.47897">
        <ele>287.2</ele>
        <time>2022-09-04T07:20:26Z</time>
      </trkpt>
      <trkpt lat="43.31465" lon="-1.47894">
        <ele>287.7</ele>
        <time>2022-09-04T07:20:27Z</time>
      </trkpt>
      <trkpt lat="43.31469" lon="-1.47892">
        <ele>288.2</ele>
        <time>2022-09-04T07:20:28Z</time>
      </trkpt>
      <trkpt lat="43.31473" lon="-1.47891">
        <ele>288.7</ele>
        <time>2022-09-04T07:20:29Z</time>
      </trkpt>
      <trkpt lat="43.31478" lon="-1.47891">
        <ele>289.3</ele>
        <time>2022-09-04T07:20:30Z</time>
      </trkpt>
      <trkpt lat="43.31481" lon="-1.47891">
        <ele>289.8</ele>
        <time>2022-09-04T07:20:31Z</time>
      </trkpt>
      <trkpt lat="43.31485" lon="-1.4789">
        <ele>290.3</ele>
        <time>2022-09-04T07:20:32Z</time>
      </trkpt>
      <trkpt lat="43.31488" lon="-1.47888">
        <ele>290.6</ele>
        <time>2022-09-04T07:20:33Z</time>
      </trkpt>
      <trkpt lat="43.3149" lon="-1.47887">
        <ele>291</ele>
        <time>2022-09-04T07:20:34Z</time>
      </trkpt>
      <trkpt lat="43.31496" lon="-1.47886">
        <ele>291.7</ele>
        <time>2022-09-04T07:20:36Z</time>
      </trkpt>
      <trkpt lat="43.31499" lon="-1.47884">
        <ele>292</ele>
        <time>2022-09-04T07:20:37Z</time>
      </trkpt>
      <trkpt lat="43.31502" lon="-1.47883">
        <ele>292.3</ele>
        <time>2022-09-04T07:20:38Z</time>
      </trkpt>
      <trkpt lat="43.31505" lon="-1.47881">
        <ele>292.7</ele>
        <time>2022-09-04T07:20:39Z</time>
      </trkpt>
      <trkpt lat="43.31507" lon="-1.4788">
        <ele>293</ele>
        <time>2022-09-04T07:20:40Z</time>
      </trkpt>
      <trkpt lat="43.3151" lon="-1.47878">
        <ele>293.3</ele>
        <time>2022-09-04T07:20:41Z</time>
      </trkpt>
      <trkpt lat="43.31513" lon="-1.47877">
        <ele>293.6</ele>
        <time>2022-09-04T07:20:42Z</time>
      </trkpt>
      <trkpt lat="43.31516" lon="-1.47876">
        <ele>294</ele>
        <time>2022-09-04T07:20:43Z</time>
      </trkpt>
      <trkpt lat="43.31519" lon="-1.47874">
        <ele>294.4</ele>
        <time>2022-09-04T07:20:44Z</time>
      </trkpt>
      <trkpt lat="43.31521" lon="-1.47872">
        <ele>294.7</ele>
        <time>2022-09-04T07:20:45Z</time>
      </trkpt>
      <trkpt lat="43.31525" lon="-1.4787">
        <ele>295.3</ele>
        <time>2022-09-04T07:20:46Z</time>
      </trkpt>
      <trkpt lat="43.31526" lon="-1.47869">
        <ele>295.5</ele>
        <time>2022-09-04T07:20:47Z</time>
      </trkpt>
      <trkpt lat="43.31528" lon="-1.47867">
        <ele>295.9</ele>
        <time>2022-09-04T07:20:48Z</time>
      </trkpt>
      <trkpt lat="43.31531" lon="-1.47865">
        <ele>296.2</ele>
        <time>2022-09-04T07:20:49Z</time>
      </trkpt>
      <trkpt lat="43.31533" lon="-1.47863">
        <ele>296.6</ele>
        <time>2022-09-04T07:20:50Z</time>
      </trkpt>
      <trkpt lat="43.31536" lon="-1.4786">
        <ele>297.1</ele>
        <time>2022-09-04T07:20:51Z</time>
      </trkpt>
      <trkpt lat="43.31537" lon="-1.47859">
        <ele>297.3</ele>
        <time>2022-09-04T07:20:52Z</time>
      </trkpt>
      <trkpt lat="43.3154" lon="-1.47856">
        <ele>297.7</ele>
        <time>2022-09-04T07:20:53Z</time>
      </trkpt>
      <trkpt lat="43.31541" lon="-1.47854">
        <ele>297.8</ele>
        <time>2022-09-04T07:20:54Z</time>
      </trkpt>
      <trkpt lat="43.31543" lon="-1.47852">
        <ele>298.1</ele>
        <time>2022-09-04T07:20:55Z</time>
      </trkpt>
      <trkpt lat="43.31545" lon="-1.47849">
        <ele>298.4</ele>
        <time>2022-09-04T07:20:56Z</time>
      </trkpt>
      <trkpt lat="43.31547" lon="-1.47846">
        <ele>298.7</ele>
        <time>2022-09-04T07:20:57Z</time>
      </trkpt>
      <trkpt lat="43.31549" lon="-1.47843">
        <ele>299</ele>
        <time>2022-09-04T07:20:58Z</time>
      </trkpt>
      <trkpt lat="43.31552" lon="-1.47841">
        <ele>299.2</ele>
        <time>2022-09-04T07:20:59Z</time>
      </trkpt>
      <trkpt lat="43.31554" lon="-1.47838">
        <ele>299.5</ele>
        <time>2022-09-04T07:21:00Z</time>
      </trkpt>
      <trkpt lat="43.31555" lon="-1.47834">
        <ele>299.7</ele>
        <time>2022-09-04T07:21:01Z</time>
      </trkpt>
      <trkpt lat="43.31557" lon="-1.47831">
        <ele>300</ele>
        <time>2022-09-04T07:21:02Z</time>
      </trkpt>
      <trkpt lat="43.31559" lon="-1.47828">
        <ele>300.2</ele>
        <time>2022-09-04T07:21:03Z</time>
      </trkpt>
      <trkpt lat="43.31561" lon="-1.47825">
        <ele>300.4</ele>
        <time>2022-09-04T07:21:04Z</time>
      </trkpt>
      <trkpt lat="43.31564" lon="-1.47822">
        <ele>300.6</ele>
        <time>2022-09-04T07:21:05Z</time>
      </trkpt>
      <trkpt lat="43.31565" lon="-1.47819">
        <ele>300.8</ele>
        <time>2022-09-04T07:21:06Z</time>
      </trkpt>
      <trkpt lat="43.31567" lon="-1.47816">
        <ele>300.9</ele>
        <time>2022-09-04T07:21:07Z</time>
      </trkpt>
      <trkpt lat="43.31569" lon="-1.47813">
        <ele>301.1</ele>
        <time>2022-09-04T07:21:08Z</time>
      </trkpt>
      <trkpt lat="43.3157" lon="-1.4781">
        <ele>301.2</ele>
        <time>2022-09-04T07:21:09Z</time>
      </trkpt>
      <trkpt lat="43.31572" lon="-1.47806">
        <ele>301.3</ele>
        <time>2022-09-04T07:21:10Z</time>
      </trkpt>
      <trkpt lat="43.31573" lon="-1.47803">
        <ele>301.5</ele>
        <time>2022-09-04T07:21:11Z</time>
      </trkpt>
      <trkpt lat="43.31574" lon="-1.47799">
        <ele>301.6</ele>
        <time>2022-09-04T07:21:12Z</time>
      </trkpt>
      <trkpt lat="43.31575" lon="-1.47795">
        <ele>301.7</ele>
        <time>2022-09-04T07:21:13Z</time>
      </trkpt>
      <trkpt lat="43.31575" lon="-1.4779">
        <ele>301.9</ele>
        <time>2022-09-04T07:21:14Z</time>
      </trkpt>
      <trkpt lat="43.31575" lon="-1.47786">
        <ele>302</ele>
        <time>2022-09-04T07:21:15Z</time>
      </trkpt>
      <trkpt lat="43.31576" lon="-1.47782">
        <ele>302.1</ele>
        <time>2022-09-04T07:21:16Z</time>
      </trkpt>
      <trkpt lat="43.31576" lon="-1.47778">
        <ele>302.3</ele>
        <time>2022-09-04T07:21:17Z</time>
      </trkpt>
      <trkpt lat="43.31576" lon="-1.47774">
        <ele>302.4</ele>
        <time>2022-09-04T07:21:18Z</time>
      </trkpt>
      <trkpt lat="43.31576" lon="-1.4777">
        <ele>302.6</ele>
        <time>2022-09-04T07:21:19Z</time>
      </trkpt>
      <trkpt lat="43.31577" lon="-1.47765">
        <ele>302.8</ele>
        <time>2022-09-04T07:21:20Z</time>
      </trkpt>
      <trkpt lat="43.31577" lon="-1.47761">
        <ele>303</ele>
        <time>2022-09-04T07:21:21Z</time>
      </trkpt>
      <trkpt lat="43.31578" lon="-1.47757">
        <ele>303.2</ele>
        <time>2022-09-04T07:21:22Z</time>
      </trkpt>
      <trkpt lat="43.31579" lon="-1.47753">
        <ele>303.4</ele>
        <time>2022-09-04T07:21:23Z</time>
      </trkpt>
      <trkpt lat="43.3158" lon="-1.47749">
        <ele>303.6</ele>
        <time>2022-09-04T07:21:24Z</time>
      </trkpt>
      <trkpt lat="43.31582" lon="-1.47744">
        <ele>303.9</ele>
        <time>2022-09-04T07:21:25Z</time>
      </trkpt>
      <trkpt lat="43.31582" lon="-1.47743">
        <ele>304</ele>
        <time>2022-09-04T07:21:26Z</time>
      </trkpt>
      <trkpt lat="43.31584" lon="-1.47738">
        <ele>304.3</ele>
        <time>2022-09-04T07:21:27Z</time>
      </trkpt>
      <trkpt lat="43.31585" lon="-1.47736">
        <ele>304.4</ele>
        <time>2022-09-04T07:21:28Z</time>
      </trkpt>
      <trkpt lat="43.31586" lon="-1.47733">
        <ele>304.7</ele>
        <time>2022-09-04T07:21:29Z</time>
      </trkpt>
      <trkpt lat="43.31587" lon="-1.47729">
        <ele>305</ele>
        <time>2022-09-04T07:21:30Z</time>
      </trkpt>
      <trkpt lat="43.31589" lon="-1.47725">
        <ele>305.3</ele>
        <time>2022-09-04T07:21:31Z</time>
      </trkpt>
      <trkpt lat="43.3159" lon="-1.4772">
        <ele>305.7</ele>
        <time>2022-09-04T07:21:32Z</time>
      </trkpt>
      <trkpt lat="43.3159" lon="-1.47716">
        <ele>306.1</ele>
        <time>2022-09-04T07:21:33Z</time>
      </trkpt>
      <trkpt lat="43.31591" lon="-1.47712">
        <ele>306.4</ele>
        <time>2022-09-04T07:21:34Z</time>
      </trkpt>
      <trkpt lat="43.31592" lon="-1.47708">
        <ele>306.8</ele>
        <time>2022-09-04T07:21:35Z</time>
      </trkpt>
      <trkpt lat="43.31592" lon="-1.47705">
        <ele>307.1</ele>
        <time>2022-09-04T07:21:36Z</time>
      </trkpt>
      <trkpt lat="43.31593" lon="-1.477">
        <ele>307.6</ele>
        <time>2022-09-04T07:21:37Z</time>
      </trkpt>
      <trkpt lat="43.31593" lon="-1.47698">
        <ele>307.8</ele>
        <time>2022-09-04T07:21:38Z</time>
      </trkpt>
      <trkpt lat="43.31594" lon="-1.47693">
        <ele>308.3</ele>
        <time>2022-09-04T07:21:39Z</time>
      </trkpt>
      <trkpt lat="43.31595" lon="-1.47691">
        <ele>308.5</ele>
        <time>2022-09-04T07:21:40Z</time>
      </trkpt>
      <trkpt lat="43.31596" lon="-1.47686">
        <ele>308.9</ele>
        <time>2022-09-04T07:21:41Z</time>
      </trkpt>
      <trkpt lat="43.31596" lon="-1.47685">
        <ele>309</ele>
        <time>2022-09-04T07:21:42Z</time>
      </trkpt>
      <trkpt lat="43.31596" lon="-1.47681">
        <ele>309.4</ele>
        <time>2022-09-04T07:21:43Z</time>
      </trkpt>
      <trkpt lat="43.31596" lon="-1.47679">
        <ele>309.4</ele>
        <time>2022-09-04T07:21:44Z</time>
      </trkpt>
      <trkpt lat="43.31596" lon="-1.47675">
        <ele>309.7</ele>
        <time>2022-09-04T07:21:45Z</time>
      </trkpt>
      <trkpt lat="43.31596" lon="-1.47674">
        <ele>309.8</ele>
        <time>2022-09-04T07:21:46Z</time>
      </trkpt>
      <trkpt lat="43.31595" lon="-1.47672">
        <ele>309.9</ele>
        <time>2022-09-04T07:21:47Z</time>
      </trkpt>
      <trkpt lat="43.31595" lon="-1.4767">
        <ele>310</ele>
        <time>2022-09-04T07:21:48Z</time>
      </trkpt>
      <trkpt lat="43.31595" lon="-1.47668">
        <ele>310</ele>
        <time>2022-09-04T07:21:49Z</time>
      </trkpt>
      <trkpt lat="43.31595" lon="-1.47666">
        <ele>310.1</ele>
        <time>2022-09-04T07:21:50Z</time>
      </trkpt>
      <trkpt lat="43.31594" lon="-1.47662">
        <ele>310.1</ele>
        <time>2022-09-04T07:21:51Z</time>
      </trkpt>
      <trkpt lat="43.31594" lon="-1.47661">
        <ele>310.1</ele>
        <time>2022-09-04T07:21:52Z</time>
      </trkpt>
      <trkpt lat="43.31592" lon="-1.47657">
        <ele>309.9</ele>
        <time>2022-09-04T07:21:53Z</time>
      </trkpt>
      <trkpt lat="43.31591" lon="-1.47655">
        <ele>309.9</ele>
        <time>2022-09-04T07:21:54Z</time>
      </trkpt>
      <trkpt lat="43.31589" lon="-1.47651">
        <ele>309.6</ele>
        <time>2022-09-04T07:21:55Z</time>
      </trkpt>
      <trkpt lat="43.31587" lon="-1.47648">
        <ele>309.3</ele>
        <time>2022-09-04T07:21:56Z</time>
      </trkpt>
      <trkpt lat="43.31584" lon="-1.47644">
        <ele>308.5</ele>
        <time>2022-09-04T07:21:57Z</time>
      </trkpt>
      <trkpt lat="43.3158" lon="-1.4764">
        <ele>307.8</ele>
        <time>2022-09-04T07:21:58Z</time>
      </trkpt>
      <trkpt lat="43.31575" lon="-1.47635">
        <ele>307</ele>
        <time>2022-09-04T07:21:59Z</time>
      </trkpt>
      <trkpt lat="43.31571" lon="-1.4763">
        <ele>306.3</ele>
        <time>2022-09-04T07:22:00Z</time>
      </trkpt>
      <trkpt lat="43.31567" lon="-1.47626">
        <ele>305.8</ele>
        <time>2022-09-04T07:22:01Z</time>
      </trkpt>
      <trkpt lat="43.31564" lon="-1.47623">
        <ele>305.5</ele>
        <time>2022-09-04T07:22:02Z</time>
      </trkpt>
      <trkpt lat="43.31561" lon="-1.47619">
        <ele>305.2</ele>
        <time>2022-09-04T07:22:03Z</time>
      </trkpt>
      <trkpt lat="43.3156" lon="-1.47615">
        <ele>305</ele>
        <time>2022-09-04T07:22:04Z</time>
      </trkpt>
      <trkpt lat="43.31559" lon="-1.4761">
        <ele>304.8</ele>
        <time>2022-09-04T07:22:05Z</time>
      </trkpt>
      <trkpt lat="43.3156" lon="-1.47606">
        <ele>304.7</ele>
        <time>2022-09-04T07:22:06Z</time>
      </trkpt>
      <trkpt lat="43.31561" lon="-1.47603">
        <ele>304.5</ele>
        <time>2022-09-04T07:22:07Z</time>
      </trkpt>
      <trkpt lat="43.31564" lon="-1.476">
        <ele>304.5</ele>
        <time>2022-09-04T07:22:08Z</time>
      </trkpt>
      <trkpt lat="43.31566" lon="-1.47596">
        <ele>304.5</ele>
        <time>2022-09-04T07:22:09Z</time>
      </trkpt>
      <trkpt lat="43.31568" lon="-1.47593">
        <ele>304.5</ele>
        <time>2022-09-04T07:22:10Z</time>
      </trkpt>
      <trkpt lat="43.3157" lon="-1.47589">
        <ele>304.4</ele>
        <time>2022-09-04T07:22:11Z</time>
      </trkpt>
      <trkpt lat="43.31572" lon="-1.47585">
        <ele>304.3</ele>
        <time>2022-09-04T07:22:12Z</time>
      </trkpt>
      <trkpt lat="43.31573" lon="-1.4758">
        <ele>304.2</ele>
        <time>2022-09-04T07:22:13Z</time>
      </trkpt>
      <trkpt lat="43.31575" lon="-1.47573">
        <ele>304.1</ele>
        <time>2022-09-04T07:22:14Z</time>
      </trkpt>
      <trkpt lat="43.31576" lon="-1.47566">
        <ele>303.9</ele>
        <time>2022-09-04T07:22:15Z</time>
      </trkpt>
      <trkpt lat="43.31578" lon="-1.47558">
        <ele>303.7</ele>
        <time>2022-09-04T07:22:16Z</time>
      </trkpt>
      <trkpt lat="43.31578" lon="-1.4755">
        <ele>303.5</ele>
        <time>2022-09-04T07:22:17Z</time>
      </trkpt>
      <trkpt lat="43.31578" lon="-1.47542">
        <ele>303.4</ele>
        <time>2022-09-04T07:22:18Z</time>
      </trkpt>
      <trkpt lat="43.31578" lon="-1.47534">
        <ele>303.2</ele>
        <time>2022-09-04T07:22:19Z</time>
      </trkpt>
      <trkpt lat="43.31577" lon="-1.47526">
        <ele>303.1</ele>
        <time>2022-09-04T07:22:20Z</time>
      </trkpt>
      <trkpt lat="43.31577" lon="-1.47517">
        <ele>303</ele>
        <time>2022-09-04T07:22:21Z</time>
      </trkpt>
      <trkpt lat="43.31578" lon="-1.4751">
        <ele>303</ele>
        <time>2022-09-04T07:22:22Z</time>
      </trkpt>
      <trkpt lat="43.3158" lon="-1.47502">
        <ele>302.9</ele>
        <time>2022-09-04T07:22:23Z</time>
      </trkpt>
      <trkpt lat="43.31582" lon="-1.47495">
        <ele>302.9</ele>
        <time>2022-09-04T07:22:24Z</time>
      </trkpt>
      <trkpt lat="43.31584" lon="-1.47488">
        <ele>302.9</ele>
        <time>2022-09-04T07:22:25Z</time>
      </trkpt>
      <trkpt lat="43.31586" lon="-1.47481">
        <ele>302.8</ele>
        <time>2022-09-04T07:22:26Z</time>
      </trkpt>
      <trkpt lat="43.31588" lon="-1.47475">
        <ele>302.8</ele>
        <time>2022-09-04T07:22:27Z</time>
      </trkpt>
      <trkpt lat="43.3159" lon="-1.47468">
        <ele>302.8</ele>
        <time>2022-09-04T07:22:28Z</time>
      </trkpt>
      <trkpt lat="43.31592" lon="-1.47462">
        <ele>302.7</ele>
        <time>2022-09-04T07:22:29Z</time>
      </trkpt>
      <trkpt lat="43.31594" lon="-1.47456">
        <ele>302.6</ele>
        <time>2022-09-04T07:22:30Z</time>
      </trkpt>
      <trkpt lat="43.31597" lon="-1.47449">
        <ele>302.5</ele>
        <time>2022-09-04T07:22:31Z</time>
      </trkpt>
      <trkpt lat="43.31599" lon="-1.47442">
        <ele>302.4</ele>
        <time>2022-09-04T07:22:32Z</time>
      </trkpt>
      <trkpt lat="43.31601" lon="-1.47434">
        <ele>302.3</ele>
        <time>2022-09-04T07:22:33Z</time>
      </trkpt>
      <trkpt lat="43.31603" lon="-1.47427">
        <ele>302.2</ele>
        <time>2022-09-04T07:22:34Z</time>
      </trkpt>
      <trkpt lat="43.31605" lon="-1.47419">
        <ele>302.1</ele>
        <time>2022-09-04T07:22:35Z</time>
      </trkpt>
      <trkpt lat="43.31607" lon="-1.47413">
        <ele>302</ele>
        <time>2022-09-04T07:22:36Z</time>
      </trkpt>
      <trkpt lat="43.31609" lon="-1.47406">
        <ele>301.9</ele>
        <time>2022-09-04T07:22:37Z</time>
      </trkpt>
      <trkpt lat="43.3161" lon="-1.47399">
        <ele>301.9</ele>
        <time>2022-09-04T07:22:38Z</time>
      </trkpt>
      <trkpt lat="43.31611" lon="-1.47392">
        <ele>301.8</ele>
        <time>2022-09-04T07:22:39Z</time>
      </trkpt>
      <trkpt lat="43.31613" lon="-1.47385">
        <ele>301.7</ele>
        <time>2022-09-04T07:22:40Z</time>
      </trkpt>
      <trkpt lat="43.31614" lon="-1.47377">
        <ele>301.6</ele>
        <time>2022-09-04T07:22:41Z</time>
      </trkpt>
      <trkpt lat="43.31615" lon="-1.47369">
        <ele>301.5</ele>
        <time>2022-09-04T07:22:42Z</time>
      </trkpt>
      <trkpt lat="43.31616" lon="-1.47361">
        <ele>301.4</ele>
        <time>2022-09-04T07:22:43Z</time>
      </trkpt>
      <trkpt lat="43.31618" lon="-1.47353">
        <ele>301.3</ele>
        <time>2022-09-04T07:22:44Z</time>
      </trkpt>
      <trkpt lat="43.31619" lon="-1.47345">
        <ele>301.2</ele>
        <time>2022-09-04T07:22:45Z</time>
      </trkpt>
      <trkpt lat="43.31621" lon="-1.47338">
        <ele>301.1</ele>
        <time>2022-09-04T07:22:46Z</time>
      </trkpt>
      <trkpt lat="43.31623" lon="-1.4733">
        <ele>301</ele>
        <time>2022-09-04T07:22:47Z</time>
      </trkpt>
      <trkpt lat="43.31626" lon="-1.47323">
        <ele>300.9</ele>
        <time>2022-09-04T07:22:48Z</time>
      </trkpt>
      <trkpt lat="43.31628" lon="-1.47316">
        <ele>300.9</ele>
        <time>2022-09-04T07:22:49Z</time>
      </trkpt>
      <trkpt lat="43.3163" lon="-1.47309">
        <ele>300.8</ele>
        <time>2022-09-04T07:22:50Z</time>
      </trkpt>
      <trkpt lat="43.31633" lon="-1.47303">
        <ele>300.7</ele>
        <time>2022-09-04T07:22:51Z</time>
      </trkpt>
      <trkpt lat="43.31635" lon="-1.47296">
        <ele>300.6</ele>
        <time>2022-09-04T07:22:52Z</time>
      </trkpt>
      <trkpt lat="43.31638" lon="-1.4729">
        <ele>300.5</ele>
        <time>2022-09-04T07:22:53Z</time>
      </trkpt>
      <trkpt lat="43.31641" lon="-1.47283">
        <ele>300.4</ele>
        <time>2022-09-04T07:22:54Z</time>
      </trkpt>
      <trkpt lat="43.31643" lon="-1.47277">
        <ele>300.3</ele>
        <time>2022-09-04T07:22:55Z</time>
      </trkpt>
      <trkpt lat="43.31645" lon="-1.4727">
        <ele>300.1</ele>
        <time>2022-09-04T07:22:56Z</time>
      </trkpt>
      <trkpt lat="43.31647" lon="-1.47263">
        <ele>299.8</ele>
        <time>2022-09-04T07:22:57Z</time>
      </trkpt>
      <trkpt lat="43.3165" lon="-1.47255">
        <ele>299.5</ele>
        <time>2022-09-04T07:22:58Z</time>
      </trkpt>
      <trkpt lat="43.31652" lon="-1.47248">
        <ele>299.2</ele>
        <time>2022-09-04T07:22:59Z</time>
      </trkpt>
      <trkpt lat="43.31654" lon="-1.4724">
        <ele>298.8</ele>
        <time>2022-09-04T07:23:00Z</time>
      </trkpt>
      <trkpt lat="43.31657" lon="-1.47232">
        <ele>298.4</ele>
        <time>2022-09-04T07:23:01Z</time>
      </trkpt>
      <trkpt lat="43.31661" lon="-1.47223">
        <ele>298</ele>
        <time>2022-09-04T07:23:02Z</time>
      </trkpt>
      <trkpt lat="43.31665" lon="-1.47214">
        <ele>297.6</ele>
        <time>2022-09-04T07:23:03Z</time>
      </trkpt>
      <trkpt lat="43.31668" lon="-1.47206">
        <ele>297.3</ele>
        <time>2022-09-04T07:23:04Z</time>
      </trkpt>
      <trkpt lat="43.31672" lon="-1.47198">
        <ele>297</ele>
        <time>2022-09-04T07:23:05Z</time>
      </trkpt>
      <trkpt lat="43.31675" lon="-1.47189">
        <ele>296.6</ele>
        <time>2022-09-04T07:23:06Z</time>
      </trkpt>
      <trkpt lat="43.3168" lon="-1.47181">
        <ele>296.3</ele>
        <time>2022-09-04T07:23:07Z</time>
      </trkpt>
      <trkpt lat="43.31684" lon="-1.47173">
        <ele>296</ele>
        <time>2022-09-04T07:23:08Z</time>
      </trkpt>
      <trkpt lat="43.31688" lon="-1.47165">
        <ele>295.7</ele>
        <time>2022-09-04T07:23:09Z</time>
      </trkpt>
      <trkpt lat="43.31691" lon="-1.47157">
        <ele>295.4</ele>
        <time>2022-09-04T07:23:10Z</time>
      </trkpt>
      <trkpt lat="43.31695" lon="-1.47148">
        <ele>295.2</ele>
        <time>2022-09-04T07:23:11Z</time>
      </trkpt>
      <trkpt lat="43.31698" lon="-1.47141">
        <ele>295</ele>
        <time>2022-09-04T07:23:12Z</time>
      </trkpt>
      <trkpt lat="43.31701" lon="-1.47133">
        <ele>294.9</ele>
        <time>2022-09-04T07:23:13Z</time>
      </trkpt>
      <trkpt lat="43.31704" lon="-1.47125">
        <ele>294.7</ele>
        <time>2022-09-04T07:23:14Z</time>
      </trkpt>
      <trkpt lat="43.31707" lon="-1.47117">
        <ele>294.6</ele>
        <time>2022-09-04T07:23:15Z</time>
      </trkpt>
      <trkpt lat="43.31709" lon="-1.4711">
        <ele>294.4</ele>
        <time>2022-09-04T07:23:16Z</time>
      </trkpt>
      <trkpt lat="43.31712" lon="-1.47104">
        <ele>294.3</ele>
        <time>2022-09-04T07:23:17Z</time>
      </trkpt>
      <trkpt lat="43.31713" lon="-1.47099">
        <ele>294.2</ele>
        <time>2022-09-04T07:23:18Z</time>
      </trkpt>
      <trkpt lat="43.31714" lon="-1.47095">
        <ele>294.1</ele>
        <time>2022-09-04T07:23:19Z</time>
      </trkpt>
      <trkpt lat="43.31715" lon="-1.4709">
        <ele>294</ele>
        <time>2022-09-04T07:23:20Z</time>
      </trkpt>
      <trkpt lat="43.31715" lon="-1.47084">
        <ele>293.9</ele>
        <time>2022-09-04T07:23:21Z</time>
      </trkpt>
      <trkpt lat="43.31714" lon="-1.47079">
        <ele>293.7</ele>
        <time>2022-09-04T07:23:22Z</time>
      </trkpt>
      <trkpt lat="43.31713" lon="-1.47073">
        <ele>293.6</ele>
        <time>2022-09-04T07:23:23Z</time>
      </trkpt>
      <trkpt lat="43.31713" lon="-1.47068">
        <ele>293.4</ele>
        <time>2022-09-04T07:23:24Z</time>
      </trkpt>
      <trkpt lat="43.31713" lon="-1.47066">
        <ele>293.4</ele>
        <time>2022-09-04T07:23:25Z</time>
      </trkpt>
      <trkpt lat="43.31714" lon="-1.47061">
        <ele>293.2</ele>
        <time>2022-09-04T07:23:26Z</time>
      </trkpt>
      <trkpt lat="43.31714" lon="-1.4706">
        <ele>293.2</ele>
        <time>2022-09-04T07:23:27Z</time>
      </trkpt>
      <trkpt lat="43.31714" lon="-1.47055">
        <ele>293</ele>
        <time>2022-09-04T07:23:28Z</time>
      </trkpt>
      <trkpt lat="43.31714" lon="-1.47054">
        <ele>293</ele>
        <time>2022-09-04T07:23:29Z</time>
      </trkpt>
      <trkpt lat="43.31714" lon="-1.4705">
        <ele>292.9</ele>
        <time>2022-09-04T07:23:30Z</time>
      </trkpt>
      <trkpt lat="43.31714" lon="-1.47048">
        <ele>292.8</ele>
        <time>2022-09-04T07:23:31Z</time>
      </trkpt>
      <trkpt lat="43.31714" lon="-1.47047">
        <ele>292.8</ele>
        <time>2022-09-04T07:23:32Z</time>
      </trkpt>
      <trkpt lat="43.31712" lon="-1.47046">
        <ele>292.9</ele>
        <time>2022-09-04T07:23:33Z</time>
      </trkpt>
      <trkpt lat="43.31709" lon="-1.47045">
        <ele>292.9</ele>
        <time>2022-09-04T07:23:34Z</time>
      </trkpt>
      <trkpt lat="43.31708" lon="-1.47045">
        <ele>293</ele>
        <time>2022-09-04T07:23:35Z</time>
      </trkpt>
      <trkpt lat="43.31704" lon="-1.47045">
        <ele>293.1</ele>
        <time>2022-09-04T07:23:36Z</time>
      </trkpt>
      <trkpt lat="43.31702" lon="-1.47045">
        <ele>293.1</ele>
        <time>2022-09-04T07:23:37Z</time>
      </trkpt>
      <trkpt lat="43.31699" lon="-1.47045">
        <ele>293.2</ele>
        <time>2022-09-04T07:23:38Z</time>
      </trkpt>
      <trkpt lat="43.31698" lon="-1.47045">
        <ele>293.3</ele>
        <time>2022-09-04T07:23:39Z</time>
      </trkpt>
      <trkpt lat="43.31695" lon="-1.47044">
        <ele>293.4</ele>
        <time>2022-09-04T07:23:40Z</time>
      </trkpt>
      <trkpt lat="43.31694" lon="-1.47043">
        <ele>293.4</ele>
        <time>2022-09-04T07:23:41Z</time>
      </trkpt>
      <trkpt lat="43.3169" lon="-1.47043">
        <ele>293.6</ele>
        <time>2022-09-04T07:23:42Z</time>
      </trkpt>
      <trkpt lat="43.31689" lon="-1.47043">
        <ele>293.6</ele>
        <time>2022-09-04T07:23:43Z</time>
      </trkpt>
      <trkpt lat="43.31686" lon="-1.47045">
        <ele>293.7</ele>
        <time>2022-09-04T07:23:44Z</time>
      </trkpt>
      <trkpt lat="43.31683" lon="-1.47046">
        <ele>293.8</ele>
        <time>2022-09-04T07:23:45Z</time>
      </trkpt>
      <trkpt lat="43.3168" lon="-1.47047">
        <ele>293.9</ele>
        <time>2022-09-04T07:23:46Z</time>
      </trkpt>
      <trkpt lat="43.31677" lon="-1.47047">
        <ele>294</ele>
        <time>2022-09-04T07:23:47Z</time>
      </trkpt>
      <trkpt lat="43.31674" lon="-1.47048">
        <ele>294.1</ele>
        <time>2022-09-04T07:23:48Z</time>
      </trkpt>
      <trkpt lat="43.3167" lon="-1.47049">
        <ele>294.2</ele>
        <time>2022-09-04T07:23:49Z</time>
      </trkpt>
      <trkpt lat="43.31667" lon="-1.47051">
        <ele>294.3</ele>
        <time>2022-09-04T07:23:50Z</time>
      </trkpt>
      <trkpt lat="43.31664" lon="-1.47053">
        <ele>294.5</ele>
        <time>2022-09-04T07:23:51Z</time>
      </trkpt>
      <trkpt lat="43.3166" lon="-1.47055">
        <ele>294.8</ele>
        <time>2022-09-04T07:23:52Z</time>
      </trkpt>
      <trkpt lat="43.31659" lon="-1.47056">
        <ele>294.9</ele>
        <time>2022-09-04T07:23:53Z</time>
      </trkpt>
      <trkpt lat="43.31657" lon="-1.47058">
        <ele>295.2</ele>
        <time>2022-09-04T07:23:54Z</time>
      </trkpt>
      <trkpt lat="43.31654" lon="-1.47061">
        <ele>295.4</ele>
        <time>2022-09-04T07:23:55Z</time>
      </trkpt>
      <trkpt lat="43.31652" lon="-1.47063">
        <ele>295.7</ele>
        <time>2022-09-04T07:23:56Z</time>
      </trkpt>
      <trkpt lat="43.31649" lon="-1.47066">
        <ele>296</ele>
        <time>2022-09-04T07:23:57Z</time>
      </trkpt>
      <trkpt lat="43.31647" lon="-1.4707">
        <ele>296.3</ele>
        <time>2022-09-04T07:23:58Z</time>
      </trkpt>
      <trkpt lat="43.31645" lon="-1.47074">
        <ele>296.7</ele>
        <time>2022-09-04T07:23:59Z</time>
      </trkpt>
      <trkpt lat="43.31644" lon="-1.47078">
        <ele>297</ele>
        <time>2022-09-04T07:24:00Z</time>
      </trkpt>
      <trkpt lat="43.31643" lon="-1.47082">
        <ele>297.4</ele>
        <time>2022-09-04T07:24:01Z</time>
      </trkpt>
      <trkpt lat="43.31641" lon="-1.47086">
        <ele>297.8</ele>
        <time>2022-09-04T07:24:02Z</time>
      </trkpt>
      <trkpt lat="43.3164" lon="-1.47091">
        <ele>298.2</ele>
        <time>2022-09-04T07:24:03Z</time>
      </trkpt>
      <trkpt lat="43.31639" lon="-1.47095">
        <ele>298.5</ele>
        <time>2022-09-04T07:24:04Z</time>
      </trkpt>
      <trkpt lat="43.31638" lon="-1.47099">
        <ele>298.9</ele>
        <time>2022-09-04T07:24:05Z</time>
      </trkpt>
      <trkpt lat="43.31636" lon="-1.47103">
        <ele>299.2</ele>
        <time>2022-09-04T07:24:06Z</time>
      </trkpt>
      <trkpt lat="43.31635" lon="-1.47107">
        <ele>299.6</ele>
        <time>2022-09-04T07:24:07Z</time>
      </trkpt>
      <trkpt lat="43.31634" lon="-1.47111">
        <ele>300</ele>
        <time>2022-09-04T07:24:08Z</time>
      </trkpt>
      <trkpt lat="43.31633" lon="-1.47115">
        <ele>300.4</ele>
        <time>2022-09-04T07:24:09Z</time>
      </trkpt>
      <trkpt lat="43.31632" lon="-1.47119">
        <ele>300.8</ele>
        <time>2022-09-04T07:24:10Z</time>
      </trkpt>
      <trkpt lat="43.31631" lon="-1.47123">
        <ele>301.1</ele>
        <time>2022-09-04T07:24:11Z</time>
      </trkpt>
      <trkpt lat="43.31629" lon="-1.47127">
        <ele>301.5</ele>
        <time>2022-09-04T07:24:12Z</time>
      </trkpt>
      <trkpt lat="43.31628" lon="-1.47131">
        <ele>301.9</ele>
        <time>2022-09-04T07:24:13Z</time>
      </trkpt>
      <trkpt lat="43.31626" lon="-1.47135">
        <ele>302.3</ele>
        <time>2022-09-04T07:24:14Z</time>
      </trkpt>
      <trkpt lat="43.31625" lon="-1.47139">
        <ele>302.6</ele>
        <time>2022-09-04T07:24:15Z</time>
      </trkpt>
      <trkpt lat="43.31624" lon="-1.47143">
        <ele>303</ele>
        <time>2022-09-04T07:24:16Z</time>
      </trkpt>
      <trkpt lat="43.31623" lon="-1.47147">
        <ele>303.4</ele>
        <time>2022-09-04T07:24:17Z</time>
      </trkpt>
      <trkpt lat="43.31622" lon="-1.47151">
        <ele>303.8</ele>
        <time>2022-09-04T07:24:18Z</time>
      </trkpt>
      <trkpt lat="43.31621" lon="-1.47156">
        <ele>304.3</ele>
        <time>2022-09-04T07:24:19Z</time>
      </trkpt>
      <trkpt lat="43.3162" lon="-1.4716">
        <ele>304.6</ele>
        <time>2022-09-04T07:24:20Z</time>
      </trkpt>
      <trkpt lat="43.31619" lon="-1.47163">
        <ele>305</ele>
        <time>2022-09-04T07:24:21Z</time>
      </trkpt>
      <trkpt lat="43.31618" lon="-1.47167">
        <ele>305.4</ele>
        <time>2022-09-04T07:24:22Z</time>
      </trkpt>
      <trkpt lat="43.31616" lon="-1.47171">
        <ele>305.8</ele>
        <time>2022-09-04T07:24:23Z</time>
      </trkpt>
      <trkpt lat="43.31615" lon="-1.47174">
        <ele>306.1</ele>
        <time>2022-09-04T07:24:24Z</time>
      </trkpt>
      <trkpt lat="43.31613" lon="-1.47178">
        <ele>306.5</ele>
        <time>2022-09-04T07:24:25Z</time>
      </trkpt>
      <trkpt lat="43.31612" lon="-1.47181">
        <ele>306.9</ele>
        <time>2022-09-04T07:24:26Z</time>
      </trkpt>
      <trkpt lat="43.3161" lon="-1.47184">
        <ele>307.2</ele>
        <time>2022-09-04T07:24:27Z</time>
      </trkpt>
      <trkpt lat="43.31608" lon="-1.47188">
        <ele>307.7</ele>
        <time>2022-09-04T07:24:28Z</time>
      </trkpt>
      <trkpt lat="43.31607" lon="-1.4719">
        <ele>307.9</ele>
        <time>2022-09-04T07:24:29Z</time>
      </trkpt>
      <trkpt lat="43.31605" lon="-1.47193">
        <ele>308.2</ele>
        <time>2022-09-04T07:24:30Z</time>
      </trkpt>
      <trkpt lat="43.31603" lon="-1.47198">
        <ele>308.7</ele>
        <time>2022-09-04T07:24:31Z</time>
      </trkpt>
      <trkpt lat="43.31602" lon="-1.47199">
        <ele>308.9</ele>
        <time>2022-09-04T07:24:32Z</time>
      </trkpt>
      <trkpt lat="43.316" lon="-1.47202">
        <ele>309.2</ele>
        <time>2022-09-04T07:24:33Z</time>
      </trkpt>
      <trkpt lat="43.31598" lon="-1.47205">
        <ele>309.6</ele>
        <time>2022-09-04T07:24:34Z</time>
      </trkpt>
      <trkpt lat="43.31596" lon="-1.47207">
        <ele>309.9</ele>
        <time>2022-09-04T07:24:35Z</time>
      </trkpt>
      <trkpt lat="43.31594" lon="-1.4721">
        <ele>310.3</ele>
        <time>2022-09-04T07:24:36Z</time>
      </trkpt>
      <trkpt lat="43.31592" lon="-1.47213">
        <ele>310.7</ele>
        <time>2022-09-04T07:24:37Z</time>
      </trkpt>
      <trkpt lat="43.3159" lon="-1.47217">
        <ele>311.1</ele>
        <time>2022-09-04T07:24:38Z</time>
      </trkpt>
      <trkpt lat="43.31589" lon="-1.47218">
        <ele>311.3</ele>
        <time>2022-09-04T07:24:39Z</time>
      </trkpt>
      <trkpt lat="43.31587" lon="-1.47221">
        <ele>311.6</ele>
        <time>2022-09-04T07:24:40Z</time>
      </trkpt>
      <trkpt lat="43.31584" lon="-1.47225">
        <ele>312.1</ele>
        <time>2022-09-04T07:24:41Z</time>
      </trkpt>
      <trkpt lat="43.31584" lon="-1.47226">
        <ele>312.3</ele>
        <time>2022-09-04T07:24:42Z</time>
      </trkpt>
      <trkpt lat="43.31581" lon="-1.4723">
        <ele>312.8</ele>
        <time>2022-09-04T07:24:43Z</time>
      </trkpt>
      <trkpt lat="43.3158" lon="-1.47231">
        <ele>312.9</ele>
        <time>2022-09-04T07:24:44Z</time>
      </trkpt>
      <trkpt lat="43.31578" lon="-1.47235">
        <ele>313.4</ele>
        <time>2022-09-04T07:24:45Z</time>
      </trkpt>
      <trkpt lat="43.31577" lon="-1.47236">
        <ele>313.6</ele>
        <time>2022-09-04T07:24:46Z</time>
      </trkpt>
      <trkpt lat="43.31575" lon="-1.4724">
        <ele>314</ele>
        <time>2022-09-04T07:24:47Z</time>
      </trkpt>
      <trkpt lat="43.31574" lon="-1.47241">
        <ele>314.2</ele>
        <time>2022-09-04T07:24:48Z</time>
      </trkpt>
      <trkpt lat="43.31571" lon="-1.47244">
        <ele>314.7</ele>
        <time>2022-09-04T07:24:49Z</time>
      </trkpt>
      <trkpt lat="43.3157" lon="-1.47246">
        <ele>314.8</ele>
        <time>2022-09-04T07:24:50Z</time>
      </trkpt>
      <trkpt lat="43.31568" lon="-1.47248">
        <ele>315.2</ele>
        <time>2022-09-04T07:24:51Z</time>
      </trkpt>
      <trkpt lat="43.31566" lon="-1.47251">
        <ele>315.5</ele>
        <time>2022-09-04T07:24:52Z</time>
      </trkpt>
      <trkpt lat="43.31564" lon="-1.47254">
        <ele>315.8</ele>
        <time>2022-09-04T07:24:53Z</time>
      </trkpt>
      <trkpt lat="43.31562" lon="-1.47256">
        <ele>316.2</ele>
        <time>2022-09-04T07:24:54Z</time>
      </trkpt>
      <trkpt lat="43.3156" lon="-1.47259">
        <ele>316.5</ele>
        <time>2022-09-04T07:24:55Z</time>
      </trkpt>
      <trkpt lat="43.31558" lon="-1.47262">
        <ele>316.8</ele>
        <time>2022-09-04T07:24:56Z</time>
      </trkpt>
      <trkpt lat="43.31556" lon="-1.47265">
        <ele>317.1</ele>
        <time>2022-09-04T07:24:57Z</time>
      </trkpt>
      <trkpt lat="43.31554" lon="-1.47269">
        <ele>317.5</ele>
        <time>2022-09-04T07:24:58Z</time>
      </trkpt>
      <trkpt lat="43.31553" lon="-1.47273">
        <ele>317.9</ele>
        <time>2022-09-04T07:24:59Z</time>
      </trkpt>
      <trkpt lat="43.3155" lon="-1.47277">
        <ele>318.4</ele>
        <time>2022-09-04T07:25:00Z</time>
      </trkpt>
      <trkpt lat="43.31549" lon="-1.47279">
        <ele>318.6</ele>
        <time>2022-09-04T07:25:01Z</time>
      </trkpt>
      <trkpt lat="43.31547" lon="-1.47283">
        <ele>319</ele>
        <time>2022-09-04T07:25:02Z</time>
      </trkpt>
      <trkpt lat="43.31547" lon="-1.47284">
        <ele>319.2</ele>
        <time>2022-09-04T07:25:03Z</time>
      </trkpt>
      <trkpt lat="43.31545" lon="-1.47288">
        <ele>319.7</ele>
        <time>2022-09-04T07:25:04Z</time>
      </trkpt>
      <trkpt lat="43.31544" lon="-1.4729">
        <ele>320</ele>
        <time>2022-09-04T07:25:05Z</time>
      </trkpt>
      <trkpt lat="43.31542" lon="-1.47294">
        <ele>320.5</ele>
        <time>2022-09-04T07:25:06Z</time>
      </trkpt>
      <trkpt lat="43.31541" lon="-1.47296">
        <ele>320.7</ele>
        <time>2022-09-04T07:25:07Z</time>
      </trkpt>
      <trkpt lat="43.31539" lon="-1.473">
        <ele>321.2</ele>
        <time>2022-09-04T07:25:08Z</time>
      </trkpt>
      <trkpt lat="43.31539" lon="-1.47301">
        <ele>321.4</ele>
        <time>2022-09-04T07:25:09Z</time>
      </trkpt>
      <trkpt lat="43.31537" lon="-1.47306">
        <ele>322.1</ele>
        <time>2022-09-04T07:25:10Z</time>
      </trkpt>
      <trkpt lat="43.31536" lon="-1.47307">
        <ele>322.3</ele>
        <time>2022-09-04T07:25:11Z</time>
      </trkpt>
      <trkpt lat="43.31533" lon="-1.47311">
        <ele>322.9</ele>
        <time>2022-09-04T07:25:12Z</time>
      </trkpt>
      <trkpt lat="43.31533" lon="-1.47312">
        <ele>323.1</ele>
        <time>2022-09-04T07:25:13Z</time>
      </trkpt>
      <trkpt lat="43.3153" lon="-1.47316">
        <ele>323.7</ele>
        <time>2022-09-04T07:25:14Z</time>
      </trkpt>
      <trkpt lat="43.31529" lon="-1.47317">
        <ele>323.9</ele>
        <time>2022-09-04T07:25:15Z</time>
      </trkpt>
      <trkpt lat="43.31527" lon="-1.47321">
        <ele>324.6</ele>
        <time>2022-09-04T07:25:16Z</time>
      </trkpt>
      <trkpt lat="43.31526" lon="-1.47322">
        <ele>324.8</ele>
        <time>2022-09-04T07:25:17Z</time>
      </trkpt>
      <trkpt lat="43.31524" lon="-1.47327">
        <ele>325.5</ele>
        <time>2022-09-04T07:25:18Z</time>
      </trkpt>
      <trkpt lat="43.31523" lon="-1.47328">
        <ele>325.7</ele>
        <time>2022-09-04T07:25:19Z</time>
      </trkpt>
      <trkpt lat="43.3152" lon="-1.47332">
        <ele>326.4</ele>
        <time>2022-09-04T07:25:20Z</time>
      </trkpt>
      <trkpt lat="43.31519" lon="-1.47333">
        <ele>326.7</ele>
        <time>2022-09-04T07:25:21Z</time>
      </trkpt>
      <trkpt lat="43.31517" lon="-1.47337">
        <ele>327.2</ele>
        <time>2022-09-04T07:25:22Z</time>
      </trkpt>
      <trkpt lat="43.31516" lon="-1.47338">
        <ele>327.4</ele>
        <time>2022-09-04T07:25:23Z</time>
      </trkpt>
      <trkpt lat="43.31514" lon="-1.47341">
        <ele>328</ele>
        <time>2022-09-04T07:25:24Z</time>
      </trkpt>
      <trkpt lat="43.31513" lon="-1.47342">
        <ele>328.2</ele>
        <time>2022-09-04T07:25:25Z</time>
      </trkpt>
      <trkpt lat="43.31511" lon="-1.47345">
        <ele>328.8</ele>
        <time>2022-09-04T07:25:26Z</time>
      </trkpt>
      <trkpt lat="43.31511" lon="-1.47346">
        <ele>329</ele>
        <time>2022-09-04T07:25:27Z</time>
      </trkpt>
      <trkpt lat="43.31508" lon="-1.4735">
        <ele>329.7</ele>
        <time>2022-09-04T07:25:28Z</time>
      </trkpt>
      <trkpt lat="43.31507" lon="-1.47352">
        <ele>329.9</ele>
        <time>2022-09-04T07:25:29Z</time>
      </trkpt>
      <trkpt lat="43.31506" lon="-1.47355">
        <ele>330.5</ele>
        <time>2022-09-04T07:25:30Z</time>
      </trkpt>
      <trkpt lat="43.31503" lon="-1.47358">
        <ele>331.1</ele>
        <time>2022-09-04T07:25:31Z</time>
      </trkpt>
      <trkpt lat="43.31502" lon="-1.4736">
        <ele>331.4</ele>
        <time>2022-09-04T07:25:32Z</time>
      </trkpt>
      <trkpt lat="43.31501" lon="-1.47363">
        <ele>332</ele>
        <time>2022-09-04T07:25:33Z</time>
      </trkpt>
      <trkpt lat="43.315" lon="-1.47364">
        <ele>332.2</ele>
        <time>2022-09-04T07:25:34Z</time>
      </trkpt>
      <trkpt lat="43.31498" lon="-1.47369">
        <ele>332.8</ele>
        <time>2022-09-04T07:25:35Z</time>
      </trkpt>
      <trkpt lat="43.31497" lon="-1.4737">
        <ele>333</ele>
        <time>2022-09-04T07:25:36Z</time>
      </trkpt>
      <trkpt lat="43.31495" lon="-1.47374">
        <ele>333.7</ele>
        <time>2022-09-04T07:25:37Z</time>
      </trkpt>
      <trkpt lat="43.31494" lon="-1.47375">
        <ele>333.9</ele>
        <time>2022-09-04T07:25:38Z</time>
      </trkpt>
      <trkpt lat="43.31492" lon="-1.47379">
        <ele>334.5</ele>
        <time>2022-09-04T07:25:39Z</time>
      </trkpt>
      <trkpt lat="43.31491" lon="-1.47379">
        <ele>334.6</ele>
        <time>2022-09-04T07:25:40Z</time>
      </trkpt>
      <trkpt lat="43.31489" lon="-1.47382">
        <ele>335.1</ele>
        <time>2022-09-04T07:25:41Z</time>
      </trkpt>
      <trkpt lat="43.31488" lon="-1.47383">
        <ele>335.2</ele>
        <time>2022-09-04T07:25:42Z</time>
      </trkpt>
      <trkpt lat="43.31487" lon="-1.47384">
        <ele>335.5</ele>
        <time>2022-09-04T07:25:43Z</time>
      </trkpt>
      <trkpt lat="43.31487" lon="-1.47386">
        <ele>335.8</ele>
        <time>2022-09-04T07:25:44Z</time>
      </trkpt>
      <trkpt lat="43.31486" lon="-1.47388">
        <ele>336</ele>
        <time>2022-09-04T07:25:45Z</time>
      </trkpt>
      <trkpt lat="43.31484" lon="-1.4739">
        <ele>336.3</ele>
        <time>2022-09-04T07:25:46Z</time>
      </trkpt>
      <trkpt lat="43.31483" lon="-1.47394">
        <ele>336.8</ele>
        <time>2022-09-04T07:25:47Z</time>
      </trkpt>
      <trkpt lat="43.31483" lon="-1.47395">
        <ele>336.9</ele>
        <time>2022-09-04T07:25:48Z</time>
      </trkpt>
      <trkpt lat="43.31482" lon="-1.47397">
        <ele>337.1</ele>
        <time>2022-09-04T07:25:49Z</time>
      </trkpt>
      <trkpt lat="43.31481" lon="-1.47399">
        <ele>337.4</ele>
        <time>2022-09-04T07:25:50Z</time>
      </trkpt>
      <trkpt lat="43.31479" lon="-1.47402">
        <ele>337.8</ele>
        <time>2022-09-04T07:25:51Z</time>
      </trkpt>
      <trkpt lat="43.31479" lon="-1.47404">
        <ele>338</ele>
        <time>2022-09-04T07:25:52Z</time>
      </trkpt>
      <trkpt lat="43.31477" lon="-1.47408">
        <ele>338.6</ele>
        <time>2022-09-04T07:25:53Z</time>
      </trkpt>
      <trkpt lat="43.31476" lon="-1.4741">
        <ele>338.8</ele>
        <time>2022-09-04T07:25:54Z</time>
      </trkpt>
      <trkpt lat="43.31474" lon="-1.47413">
        <ele>339.2</ele>
        <time>2022-09-04T07:25:55Z</time>
      </trkpt>
      <trkpt lat="43.31471" lon="-1.47416">
        <ele>339.7</ele>
        <time>2022-09-04T07:25:56Z</time>
      </trkpt>
      <trkpt lat="43.3147" lon="-1.47417">
        <ele>339.9</ele>
        <time>2022-09-04T07:25:57Z</time>
      </trkpt>
      <trkpt lat="43.31467" lon="-1.47419">
        <ele>340.4</ele>
        <time>2022-09-04T07:25:58Z</time>
      </trkpt>
      <trkpt lat="43.31466" lon="-1.4742">
        <ele>340.9</ele>
        <time>2022-09-04T07:25:59Z</time>
      </trkpt>
      <trkpt lat="43.31463" lon="-1.47422">
        <ele>341.3</ele>
        <time>2022-09-04T07:26:00Z</time>
      </trkpt>
      <trkpt lat="43.31462" lon="-1.47422">
        <ele>341.5</ele>
        <time>2022-09-04T07:26:01Z</time>
      </trkpt>
      <trkpt lat="43.31459" lon="-1.47424">
        <ele>342</ele>
        <time>2022-09-04T07:26:02Z</time>
      </trkpt>
      <trkpt lat="43.31458" lon="-1.47425">
        <ele>342.2</ele>
        <time>2022-09-04T07:26:03Z</time>
      </trkpt>
      <trkpt lat="43.31455" lon="-1.47427">
        <ele>342.7</ele>
        <time>2022-09-04T07:26:04Z</time>
      </trkpt>
      <trkpt lat="43.31455" lon="-1.47427">
        <ele>342.8</ele>
        <time>2022-09-04T07:26:05Z</time>
      </trkpt>
      <trkpt lat="43.31453" lon="-1.47428">
        <ele>343.2</ele>
        <time>2022-09-04T07:26:06Z</time>
      </trkpt>
      <trkpt lat="43.31451" lon="-1.47429">
        <ele>343.4</ele>
        <time>2022-09-04T07:26:07Z</time>
      </trkpt>
      <trkpt lat="43.31449" lon="-1.47431">
        <ele>343.9</ele>
        <time>2022-09-04T07:26:08Z</time>
      </trkpt>
      <trkpt lat="43.31448" lon="-1.47431">
        <ele>344.1</ele>
        <time>2022-09-04T07:26:09Z</time>
      </trkpt>
      <trkpt lat="43.31444" lon="-1.47432">
        <ele>344.8</ele>
        <time>2022-09-04T07:26:10Z</time>
      </trkpt>
      <trkpt lat="43.31443" lon="-1.47432">
        <ele>345</ele>
        <time>2022-09-04T07:26:11Z</time>
      </trkpt>
      <trkpt lat="43.31441" lon="-1.47433">
        <ele>345.3</ele>
        <time>2022-09-04T07:26:12Z</time>
      </trkpt>
      <trkpt lat="43.3144" lon="-1.47434">
        <ele>345.6</ele>
        <time>2022-09-04T07:26:13Z</time>
      </trkpt>
      <trkpt lat="43.31438" lon="-1.47434">
        <ele>345.9</ele>
        <time>2022-09-04T07:26:14Z</time>
      </trkpt>
      <trkpt lat="43.31436" lon="-1.47435">
        <ele>346.2</ele>
        <time>2022-09-04T07:26:15Z</time>
      </trkpt>
      <trkpt lat="43.31435" lon="-1.47437">
        <ele>346.6</ele>
        <time>2022-09-04T07:26:16Z</time>
      </trkpt>
      <trkpt lat="43.31433" lon="-1.47437">
        <ele>346.8</ele>
        <time>2022-09-04T07:26:17Z</time>
      </trkpt>
      <trkpt lat="43.31432" lon="-1.47439">
        <ele>347.1</ele>
        <time>2022-09-04T07:26:18Z</time>
      </trkpt>
      <trkpt lat="43.31431" lon="-1.47441">
        <ele>347.4</ele>
        <time>2022-09-04T07:26:19Z</time>
      </trkpt>
      <trkpt lat="43.31429" lon="-1.47445">
        <ele>348</ele>
        <time>2022-09-04T07:26:20Z</time>
      </trkpt>
      <trkpt lat="43.31428" lon="-1.47446">
        <ele>348.2</ele>
        <time>2022-09-04T07:26:21Z</time>
      </trkpt>
      <trkpt lat="43.31425" lon="-1.4745">
        <ele>348.8</ele>
        <time>2022-09-04T07:26:22Z</time>
      </trkpt>
      <trkpt lat="43.31424" lon="-1.47451">
        <ele>349</ele>
        <time>2022-09-04T07:26:23Z</time>
      </trkpt>
      <trkpt lat="43.31422" lon="-1.47455">
        <ele>349.3</ele>
        <time>2022-09-04T07:26:24Z</time>
      </trkpt>
      <trkpt lat="43.31421" lon="-1.47458">
        <ele>349.6</ele>
        <time>2022-09-04T07:26:25Z</time>
      </trkpt>
      <trkpt lat="43.3142" lon="-1.47461">
        <ele>349.9</ele>
        <time>2022-09-04T07:26:26Z</time>
      </trkpt>
      <trkpt lat="43.31418" lon="-1.47465">
        <ele>350.1</ele>
        <time>2022-09-04T07:26:27Z</time>
      </trkpt>
      <trkpt lat="43.31417" lon="-1.47469">
        <ele>350.3</ele>
        <time>2022-09-04T07:26:28Z</time>
      </trkpt>
      <trkpt lat="43.31417" lon="-1.47473">
        <ele>350.5</ele>
        <time>2022-09-04T07:26:29Z</time>
      </trkpt>
      <trkpt lat="43.31416" lon="-1.47478">
        <ele>350.7</ele>
        <time>2022-09-04T07:26:30Z</time>
      </trkpt>
      <trkpt lat="43.31415" lon="-1.4748">
        <ele>350.8</ele>
        <time>2022-09-04T07:26:31Z</time>
      </trkpt>
      <trkpt lat="43.31415" lon="-1.47484">
        <ele>350.9</ele>
        <time>2022-09-04T07:26:32Z</time>
      </trkpt>
      <trkpt lat="43.31413" lon="-1.47487">
        <ele>351</ele>
        <time>2022-09-04T07:26:33Z</time>
      </trkpt>
      <trkpt lat="43.31412" lon="-1.47491">
        <ele>351.2</ele>
        <time>2022-09-04T07:26:34Z</time>
      </trkpt>
      <trkpt lat="43.3141" lon="-1.47494">
        <ele>351.3</ele>
        <time>2022-09-04T07:26:35Z</time>
      </trkpt>
      <trkpt lat="43.31408" lon="-1.47499">
        <ele>351.5</ele>
        <time>2022-09-04T07:26:36Z</time>
      </trkpt>
      <trkpt lat="43.31408" lon="-1.47501">
        <ele>351.6</ele>
        <time>2022-09-04T07:26:37Z</time>
      </trkpt>
      <trkpt lat="43.31405" lon="-1.47505">
        <ele>351.9</ele>
        <time>2022-09-04T07:26:38Z</time>
      </trkpt>
      <trkpt lat="43.31404" lon="-1.47506">
        <ele>352</ele>
        <time>2022-09-04T07:26:39Z</time>
      </trkpt>
      <trkpt lat="43.31401" lon="-1.4751">
        <ele>352.3</ele>
        <time>2022-09-04T07:26:40Z</time>
      </trkpt>
      <trkpt lat="43.314" lon="-1.47511">
        <ele>352.4</ele>
        <time>2022-09-04T07:26:41Z</time>
      </trkpt>
      <trkpt lat="43.31398" lon="-1.47513">
        <ele>352.7</ele>
        <time>2022-09-04T07:26:42Z</time>
      </trkpt>
      <trkpt lat="43.31396" lon="-1.47516">
        <ele>353</ele>
        <time>2022-09-04T07:26:43Z</time>
      </trkpt>
      <trkpt lat="43.31393" lon="-1.47518">
        <ele>353.3</ele>
        <time>2022-09-04T07:26:44Z</time>
      </trkpt>
      <trkpt lat="43.31391" lon="-1.47521">
        <ele>353.6</ele>
        <time>2022-09-04T07:26:45Z</time>
      </trkpt>
      <trkpt lat="43.31388" lon="-1.47524">
        <ele>354.1</ele>
        <time>2022-09-04T07:26:46Z</time>
      </trkpt>
      <trkpt lat="43.31387" lon="-1.47525">
        <ele>354.3</ele>
        <time>2022-09-04T07:26:47Z</time>
      </trkpt>
      <trkpt lat="43.31385" lon="-1.47528">
        <ele>354.6</ele>
        <time>2022-09-04T07:26:48Z</time>
      </trkpt>
      <trkpt lat="43.31382" lon="-1.47531">
        <ele>355.1</ele>
        <time>2022-09-04T07:26:49Z</time>
      </trkpt>
      <trkpt lat="43.31381" lon="-1.47533">
        <ele>355.3</ele>
        <time>2022-09-04T07:26:50Z</time>
      </trkpt>
      <trkpt lat="43.31379" lon="-1.47536">
        <ele>355.8</ele>
        <time>2022-09-04T07:26:51Z</time>
      </trkpt>
      <trkpt lat="43.31378" lon="-1.47538">
        <ele>355.9</ele>
        <time>2022-09-04T07:26:52Z</time>
      </trkpt>
      <trkpt lat="43.31377" lon="-1.47542">
        <ele>356.4</ele>
        <time>2022-09-04T07:26:53Z</time>
      </trkpt>
      <trkpt lat="43.31377" lon="-1.47543">
        <ele>356.5</ele>
        <time>2022-09-04T07:26:54Z</time>
      </trkpt>
      <trkpt lat="43.31375" lon="-1.47547">
        <ele>357</ele>
        <time>2022-09-04T07:26:55Z</time>
      </trkpt>
      <trkpt lat="43.31375" lon="-1.47548">
        <ele>357.1</ele>
        <time>2022-09-04T07:26:56Z</time>
      </trkpt>
      <trkpt lat="43.31373" lon="-1.47552">
        <ele>357.6</ele>
        <time>2022-09-04T07:26:57Z</time>
      </trkpt>
      <trkpt lat="43.31373" lon="-1.47553">
        <ele>357.7</ele>
        <time>2022-09-04T07:26:58Z</time>
      </trkpt>
      <trkpt lat="43.31371" lon="-1.47557">
        <ele>358.2</ele>
        <time>2022-09-04T07:26:59Z</time>
      </trkpt>
      <trkpt lat="43.31371" lon="-1.47558">
        <ele>358.3</ele>
        <time>2022-09-04T07:27:00Z</time>
      </trkpt>
      <trkpt lat="43.31369" lon="-1.47563">
        <ele>358.9</ele>
        <time>2022-09-04T07:27:01Z</time>
      </trkpt>
      <trkpt lat="43.31368" lon="-1.47564">
        <ele>359.1</ele>
        <time>2022-09-04T07:27:02Z</time>
      </trkpt>
      <trkpt lat="43.31366" lon="-1.47568">
        <ele>359.6</ele>
        <time>2022-09-04T07:27:03Z</time>
      </trkpt>
      <trkpt lat="43.31366" lon="-1.47569">
        <ele>359.8</ele>
        <time>2022-09-04T07:27:04Z</time>
      </trkpt>
      <trkpt lat="43.31364" lon="-1.47573">
        <ele>360.3</ele>
        <time>2022-09-04T07:27:05Z</time>
      </trkpt>
      <trkpt lat="43.31363" lon="-1.47574">
        <ele>360.5</ele>
        <time>2022-09-04T07:27:06Z</time>
      </trkpt>
      <trkpt lat="43.31361" lon="-1.47577">
        <ele>360.9</ele>
        <time>2022-09-04T07:27:07Z</time>
      </trkpt>
      <trkpt lat="43.31361" lon="-1.47578">
        <ele>361.1</ele>
        <time>2022-09-04T07:27:08Z</time>
      </trkpt>
      <trkpt lat="43.31358" lon="-1.4758">
        <ele>361.6</ele>
        <time>2022-09-04T07:27:09Z</time>
      </trkpt>
      <trkpt lat="43.31357" lon="-1.47581">
        <ele>361.7</ele>
        <time>2022-09-04T07:27:10Z</time>
      </trkpt>
      <trkpt lat="43.31354" lon="-1.47583">
        <ele>362.3</ele>
        <time>2022-09-04T07:27:11Z</time>
      </trkpt>
      <trkpt lat="43.31353" lon="-1.47584">
        <ele>362.4</ele>
        <time>2022-09-04T07:27:12Z</time>
      </trkpt>
      <trkpt lat="43.3135" lon="-1.47585">
        <ele>363</ele>
        <time>2022-09-04T07:27:13Z</time>
      </trkpt>
      <trkpt lat="43.31349" lon="-1.47586">
        <ele>363.2</ele>
        <time>2022-09-04T07:27:14Z</time>
      </trkpt>
      <trkpt lat="43.31345" lon="-1.47587">
        <ele>363.8</ele>
        <time>2022-09-04T07:27:15Z</time>
      </trkpt>
      <trkpt lat="43.31344" lon="-1.47587">
        <ele>364</ele>
        <time>2022-09-04T07:27:16Z</time>
      </trkpt>
      <trkpt lat="43.3134" lon="-1.47588">
        <ele>364.5</ele>
        <time>2022-09-04T07:27:17Z</time>
      </trkpt>
      <trkpt lat="43.31339" lon="-1.47588">
        <ele>364.7</ele>
        <time>2022-09-04T07:27:18Z</time>
      </trkpt>
      <trkpt lat="43.31336" lon="-1.47588">
        <ele>365.3</ele>
        <time>2022-09-04T07:27:19Z</time>
      </trkpt>
      <trkpt lat="43.31334" lon="-1.47588">
        <ele>365.4</ele>
        <time>2022-09-04T07:27:20Z</time>
      </trkpt>
      <trkpt lat="43.31331" lon="-1.47588">
        <ele>366</ele>
        <time>2022-09-04T07:27:21Z</time>
      </trkpt>
      <trkpt lat="43.31329" lon="-1.47588">
        <ele>366.2</ele>
        <time>2022-09-04T07:27:22Z</time>
      </trkpt>
      <trkpt lat="43.31326" lon="-1.47588">
        <ele>366.7</ele>
        <time>2022-09-04T07:27:23Z</time>
      </trkpt>
      <trkpt lat="43.31324" lon="-1.47588">
        <ele>366.9</ele>
        <time>2022-09-04T07:27:24Z</time>
      </trkpt>
      <trkpt lat="43.31321" lon="-1.47589">
        <ele>367.4</ele>
        <time>2022-09-04T07:27:25Z</time>
      </trkpt>
      <trkpt lat="43.3132" lon="-1.4759">
        <ele>367.6</ele>
        <time>2022-09-04T07:27:26Z</time>
      </trkpt>
      <trkpt lat="43.31317" lon="-1.47591">
        <ele>368.1</ele>
        <time>2022-09-04T07:27:27Z</time>
      </trkpt>
      <trkpt lat="43.31315" lon="-1.47592">
        <ele>368.3</ele>
        <time>2022-09-04T07:27:28Z</time>
      </trkpt>
      <trkpt lat="43.31313" lon="-1.47593">
        <ele>368.6</ele>
        <time>2022-09-04T07:27:29Z</time>
      </trkpt>
      <trkpt lat="43.31309" lon="-1.47594">
        <ele>369.1</ele>
        <time>2022-09-04T07:27:30Z</time>
      </trkpt>
      <trkpt lat="43.31308" lon="-1.47595">
        <ele>369.3</ele>
        <time>2022-09-04T07:27:31Z</time>
      </trkpt>
      <trkpt lat="43.31305" lon="-1.47596">
        <ele>369.8</ele>
        <time>2022-09-04T07:27:32Z</time>
      </trkpt>
      <trkpt lat="43.31304" lon="-1.47597">
        <ele>369.9</ele>
        <time>2022-09-04T07:27:33Z</time>
      </trkpt>
      <trkpt lat="43.31301" lon="-1.47597">
        <ele>370.4</ele>
        <time>2022-09-04T07:27:34Z</time>
      </trkpt>
      <trkpt lat="43.313" lon="-1.47596">
        <ele>370.6</ele>
        <time>2022-09-04T07:27:35Z</time>
      </trkpt>
      <trkpt lat="43.31296" lon="-1.47597">
        <ele>371.1</ele>
        <time>2022-09-04T07:27:36Z</time>
      </trkpt>
      <trkpt lat="43.31295" lon="-1.47598">
        <ele>371.3</ele>
        <time>2022-09-04T07:27:37Z</time>
      </trkpt>
      <trkpt lat="43.31292" lon="-1.47598">
        <ele>371.7</ele>
        <time>2022-09-04T07:27:38Z</time>
      </trkpt>
      <trkpt lat="43.31291" lon="-1.47599">
        <ele>371.9</ele>
        <time>2022-09-04T07:27:39Z</time>
      </trkpt>
      <trkpt lat="43.31288" lon="-1.47599">
        <ele>372.4</ele>
        <time>2022-09-04T07:27:40Z</time>
      </trkpt>
      <trkpt lat="43.31287" lon="-1.47599">
        <ele>372.6</ele>
        <time>2022-09-04T07:27:41Z</time>
      </trkpt>
      <trkpt lat="43.31284" lon="-1.476">
        <ele>373.2</ele>
        <time>2022-09-04T07:27:42Z</time>
      </trkpt>
      <trkpt lat="43.31283" lon="-1.476">
        <ele>373.4</ele>
        <time>2022-09-04T07:27:43Z</time>
      </trkpt>
      <trkpt lat="43.3128" lon="-1.47602">
        <ele>374.1</ele>
        <time>2022-09-04T07:27:44Z</time>
      </trkpt>
      <trkpt lat="43.31279" lon="-1.47602">
        <ele>374.3</ele>
        <time>2022-09-04T07:27:45Z</time>
      </trkpt>
      <trkpt lat="43.31275" lon="-1.47603">
        <ele>375</ele>
        <time>2022-09-04T07:27:46Z</time>
      </trkpt>
      <trkpt lat="43.31274" lon="-1.47603">
        <ele>375.3</ele>
        <time>2022-09-04T07:27:47Z</time>
      </trkpt>
      <trkpt lat="43.3127" lon="-1.47604">
        <ele>376</ele>
        <time>2022-09-04T07:27:48Z</time>
      </trkpt>
      <trkpt lat="43.31269" lon="-1.47604">
        <ele>376.3</ele>
        <time>2022-09-04T07:27:49Z</time>
      </trkpt>
      <trkpt lat="43.31266" lon="-1.47604">
        <ele>377.1</ele>
        <time>2022-09-04T07:27:50Z</time>
      </trkpt>
      <trkpt lat="43.31264" lon="-1.47604">
        <ele>377.4</ele>
        <time>2022-09-04T07:27:51Z</time>
      </trkpt>
      <trkpt lat="43.31261" lon="-1.47604">
        <ele>378.2</ele>
        <time>2022-09-04T07:27:52Z</time>
      </trkpt>
      <trkpt lat="43.3126" lon="-1.47604">
        <ele>378.5</ele>
        <time>2022-09-04T07:27:53Z</time>
      </trkpt>
      <trkpt lat="43.31256" lon="-1.47605">
        <ele>379.3</ele>
        <time>2022-09-04T07:27:54Z</time>
      </trkpt>
      <trkpt lat="43.31255" lon="-1.47605">
        <ele>379.6</ele>
        <time>2022-09-04T07:27:55Z</time>
      </trkpt>
      <trkpt lat="43.31252" lon="-1.47605">
        <ele>380.5</ele>
        <time>2022-09-04T07:27:56Z</time>
      </trkpt>
      <trkpt lat="43.31251" lon="-1.47605">
        <ele>380.8</ele>
        <time>2022-09-04T07:27:57Z</time>
      </trkpt>
      <trkpt lat="43.31248" lon="-1.47604">
        <ele>381.6</ele>
        <time>2022-09-04T07:27:58Z</time>
      </trkpt>
      <trkpt lat="43.31247" lon="-1.47604">
        <ele>381.8</ele>
        <time>2022-09-04T07:27:59Z</time>
      </trkpt>
      <trkpt lat="43.31243" lon="-1.47605">
        <ele>382.7</ele>
        <time>2022-09-04T07:28:00Z</time>
      </trkpt>
      <trkpt lat="43.31242" lon="-1.47605">
        <ele>383</ele>
        <time>2022-09-04T07:28:01Z</time>
      </trkpt>
      <trkpt lat="43.31239" lon="-1.47605">
        <ele>383.8</ele>
        <time>2022-09-04T07:28:02Z</time>
      </trkpt>
      <trkpt lat="43.31238" lon="-1.47604">
        <ele>384.1</ele>
        <time>2022-09-04T07:28:03Z</time>
      </trkpt>
      <trkpt lat="43.31236" lon="-1.47604">
        <ele>384.6</ele>
        <time>2022-09-04T07:28:04Z</time>
      </trkpt>
      <trkpt lat="43.31235" lon="-1.47605">
        <ele>385</ele>
        <time>2022-09-04T07:28:05Z</time>
      </trkpt>
      <trkpt lat="43.31231" lon="-1.47605">
        <ele>385.9</ele>
        <time>2022-09-04T07:28:06Z</time>
      </trkpt>
      <trkpt lat="43.3123" lon="-1.47605">
        <ele>386.2</ele>
        <time>2022-09-04T07:28:07Z</time>
      </trkpt>
      <trkpt lat="43.31227" lon="-1.47605">
        <ele>387</ele>
        <time>2022-09-04T07:28:08Z</time>
      </trkpt>
      <trkpt lat="43.31226" lon="-1.47605">
        <ele>387.3</ele>
        <time>2022-09-04T07:28:09Z</time>
      </trkpt>
      <trkpt lat="43.31223" lon="-1.47605">
        <ele>388.1</ele>
        <time>2022-09-04T07:28:10Z</time>
      </trkpt>
      <trkpt lat="43.31222" lon="-1.47605">
        <ele>388.4</ele>
        <time>2022-09-04T07:28:11Z</time>
      </trkpt>
      <trkpt lat="43.31219" lon="-1.47605">
        <ele>389.1</ele>
        <time>2022-09-04T07:28:12Z</time>
      </trkpt>
      <trkpt lat="43.31218" lon="-1.47605">
        <ele>389.4</ele>
        <time>2022-09-04T07:28:13Z</time>
      </trkpt>
      <trkpt lat="43.31215" lon="-1.47605">
        <ele>390.2</ele>
        <time>2022-09-04T07:28:14Z</time>
      </trkpt>
      <trkpt lat="43.31215" lon="-1.47604">
        <ele>390.4</ele>
        <time>2022-09-04T07:28:15Z</time>
      </trkpt>
      <trkpt lat="43.31212" lon="-1.47604">
        <ele>391.2</ele>
        <time>2022-09-04T07:28:16Z</time>
      </trkpt>
      <trkpt lat="43.31211" lon="-1.47604">
        <ele>391.4</ele>
        <time>2022-09-04T07:28:17Z</time>
      </trkpt>
      <trkpt lat="43.31209" lon="-1.47604">
        <ele>391.8</ele>
        <time>2022-09-04T07:28:18Z</time>
      </trkpt>
      <trkpt lat="43.31208" lon="-1.47604">
        <ele>392.3</ele>
        <time>2022-09-04T07:28:19Z</time>
      </trkpt>
      <trkpt lat="43.31205" lon="-1.47603">
        <ele>393.1</ele>
        <time>2022-09-04T07:28:20Z</time>
      </trkpt>
      <trkpt lat="43.31204" lon="-1.47603">
        <ele>393.4</ele>
        <time>2022-09-04T07:28:21Z</time>
      </trkpt>
      <trkpt lat="43.31202" lon="-1.47602">
        <ele>393.8</ele>
        <time>2022-09-04T07:28:22Z</time>
      </trkpt>
      <trkpt lat="43.31201" lon="-1.47602">
        <ele>394.3</ele>
        <time>2022-09-04T07:28:23Z</time>
      </trkpt>
      <trkpt lat="43.31199" lon="-1.47601">
        <ele>394.7</ele>
        <time>2022-09-04T07:28:24Z</time>
      </trkpt>
      <trkpt lat="43.31198" lon="-1.476">
        <ele>395.1</ele>
        <time>2022-09-04T07:28:25Z</time>
      </trkpt>
      <trkpt lat="43.31196" lon="-1.476">
        <ele>395.6</ele>
        <time>2022-09-04T07:28:26Z</time>
      </trkpt>
      <trkpt lat="43.31194" lon="-1.47601">
        <ele>396.1</ele>
        <time>2022-09-04T07:28:27Z</time>
      </trkpt>
      <trkpt lat="43.31192" lon="-1.47602">
        <ele>396.8</ele>
        <time>2022-09-04T07:28:28Z</time>
      </trkpt>
      <trkpt lat="43.31191" lon="-1.47603">
        <ele>397.1</ele>
        <time>2022-09-04T07:28:29Z</time>
      </trkpt>
      <trkpt lat="43.31187" lon="-1.47603">
        <ele>398.1</ele>
        <time>2022-09-04T07:28:30Z</time>
      </trkpt>
      <trkpt lat="43.31186" lon="-1.47603">
        <ele>398.4</ele>
        <time>2022-09-04T07:28:31Z</time>
      </trkpt>
      <trkpt lat="43.31183" lon="-1.47603">
        <ele>399.3</ele>
        <time>2022-09-04T07:28:32Z</time>
      </trkpt>
      <trkpt lat="43.31182" lon="-1.47603">
        <ele>399.6</ele>
        <time>2022-09-04T07:28:33Z</time>
      </trkpt>
      <trkpt lat="43.31179" lon="-1.47602">
        <ele>400.3</ele>
        <time>2022-09-04T07:28:34Z</time>
      </trkpt>
      <trkpt lat="43.31178" lon="-1.47602">
        <ele>400.6</ele>
        <time>2022-09-04T07:28:35Z</time>
      </trkpt>
      <trkpt lat="43.31175" lon="-1.47602">
        <ele>401.4</ele>
        <time>2022-09-04T07:28:36Z</time>
      </trkpt>
      <trkpt lat="43.31174" lon="-1.47601">
        <ele>401.7</ele>
        <time>2022-09-04T07:28:37Z</time>
      </trkpt>
      <trkpt lat="43.3117" lon="-1.476">
        <ele>402.5</ele>
        <time>2022-09-04T07:28:38Z</time>
      </trkpt>
      <trkpt lat="43.31169" lon="-1.476">
        <ele>402.7</ele>
        <time>2022-09-04T07:28:39Z</time>
      </trkpt>
      <trkpt lat="43.31166" lon="-1.47599">
        <ele>403.4</ele>
        <time>2022-09-04T07:28:40Z</time>
      </trkpt>
      <trkpt lat="43.31165" lon="-1.47599">
        <ele>403.6</ele>
        <time>2022-09-04T07:28:41Z</time>
      </trkpt>
      <trkpt lat="43.31162" lon="-1.47599">
        <ele>404.3</ele>
        <time>2022-09-04T07:28:42Z</time>
      </trkpt>
      <trkpt lat="43.31161" lon="-1.47598">
        <ele>404.5</ele>
        <time>2022-09-04T07:28:43Z</time>
      </trkpt>
      <trkpt lat="43.31158" lon="-1.47597">
        <ele>405.1</ele>
        <time>2022-09-04T07:28:44Z</time>
      </trkpt>
      <trkpt lat="43.31157" lon="-1.47597">
        <ele>405.3</ele>
        <time>2022-09-04T07:28:45Z</time>
      </trkpt>
      <trkpt lat="43.31154" lon="-1.47596">
        <ele>405.8</ele>
        <time>2022-09-04T07:28:46Z</time>
      </trkpt>
      <trkpt lat="43.31153" lon="-1.47595">
        <ele>406</ele>
        <time>2022-09-04T07:28:47Z</time>
      </trkpt>
      <trkpt lat="43.31152" lon="-1.47595">
        <ele>406.3</ele>
        <time>2022-09-04T07:28:48Z</time>
      </trkpt>
      <trkpt lat="43.3115" lon="-1.47595">
        <ele>406.6</ele>
        <time>2022-09-04T07:28:49Z</time>
      </trkpt>
      <trkpt lat="43.31147" lon="-1.47595">
        <ele>407.1</ele>
        <time>2022-09-04T07:28:50Z</time>
      </trkpt>
      <trkpt lat="43.31146" lon="-1.47595">
        <ele>407.2</ele>
        <time>2022-09-04T07:28:51Z</time>
      </trkpt>
      <trkpt lat="43.31143" lon="-1.47595">
        <ele>407.6</ele>
        <time>2022-09-04T07:28:52Z</time>
      </trkpt>
      <trkpt lat="43.31142" lon="-1.47594">
        <ele>407.8</ele>
        <time>2022-09-04T07:28:53Z</time>
      </trkpt>
      <trkpt lat="43.31139" lon="-1.47594">
        <ele>408.2</ele>
        <time>2022-09-04T07:28:54Z</time>
      </trkpt>
      <trkpt lat="43.31138" lon="-1.47594">
        <ele>408.4</ele>
        <time>2022-09-04T07:28:55Z</time>
      </trkpt>
      <trkpt lat="43.31136" lon="-1.47594">
        <ele>408.8</ele>
        <time>2022-09-04T07:28:56Z</time>
      </trkpt>
      <trkpt lat="43.31135" lon="-1.47593">
        <ele>408.9</ele>
        <time>2022-09-04T07:28:57Z</time>
      </trkpt>
      <trkpt lat="43.31132" lon="-1.47593">
        <ele>409.3</ele>
        <time>2022-09-04T07:28:58Z</time>
      </trkpt>
      <trkpt lat="43.31131" lon="-1.47593">
        <ele>409.4</ele>
        <time>2022-09-04T07:28:59Z</time>
      </trkpt>
      <trkpt lat="43.3113" lon="-1.47593">
        <ele>409.6</ele>
        <time>2022-09-04T07:29:00Z</time>
      </trkpt>
      <trkpt lat="43.31128" lon="-1.47592">
        <ele>409.9</ele>
        <time>2022-09-04T07:29:01Z</time>
      </trkpt>
      <trkpt lat="43.31125" lon="-1.47592">
        <ele>410.4</ele>
        <time>2022-09-04T07:29:02Z</time>
      </trkpt>
      <trkpt lat="43.31124" lon="-1.47591">
        <ele>410.5</ele>
        <time>2022-09-04T07:29:03Z</time>
      </trkpt>
      <trkpt lat="43.31122" lon="-1.47592">
        <ele>410.7</ele>
        <time>2022-09-04T07:29:04Z</time>
      </trkpt>
      <trkpt lat="43.3112" lon="-1.47591">
        <ele>411</ele>
        <time>2022-09-04T07:29:05Z</time>
      </trkpt>
      <trkpt lat="43.31118" lon="-1.47591">
        <ele>411.3</ele>
        <time>2022-09-04T07:29:06Z</time>
      </trkpt>
      <trkpt lat="43.31117" lon="-1.47591">
        <ele>411.5</ele>
        <time>2022-09-04T07:29:07Z</time>
      </trkpt>
      <trkpt lat="43.31114" lon="-1.4759">
        <ele>411.9</ele>
        <time>2022-09-04T07:29:08Z</time>
      </trkpt>
      <trkpt lat="43.31113" lon="-1.47589">
        <ele>412.1</ele>
        <time>2022-09-04T07:29:09Z</time>
      </trkpt>
      <trkpt lat="43.31111" lon="-1.47588">
        <ele>412.5</ele>
        <time>2022-09-04T07:29:10Z</time>
      </trkpt>
      <trkpt lat="43.3111" lon="-1.47587">
        <ele>412.6</ele>
        <time>2022-09-04T07:29:11Z</time>
      </trkpt>
      <trkpt lat="43.31107" lon="-1.47586">
        <ele>413.1</ele>
        <time>2022-09-04T07:29:12Z</time>
      </trkpt>
      <trkpt lat="43.31106" lon="-1.47586">
        <ele>413.2</ele>
        <time>2022-09-04T07:29:13Z</time>
      </trkpt>
      <trkpt lat="43.31103" lon="-1.47586">
        <ele>413.6</ele>
        <time>2022-09-04T07:29:14Z</time>
      </trkpt>
      <trkpt lat="43.31102" lon="-1.47585">
        <ele>413.8</ele>
        <time>2022-09-04T07:29:15Z</time>
      </trkpt>
      <trkpt lat="43.311" lon="-1.47584">
        <ele>414.3</ele>
        <time>2022-09-04T07:29:16Z</time>
      </trkpt>
      <trkpt lat="43.31099" lon="-1.47583">
        <ele>414.5</ele>
        <time>2022-09-04T07:29:17Z</time>
      </trkpt>
      <trkpt lat="43.31097" lon="-1.47583">
        <ele>414.7</ele>
        <time>2022-09-04T07:29:18Z</time>
      </trkpt>
      <trkpt lat="43.31096" lon="-1.47583">
        <ele>415</ele>
        <time>2022-09-04T07:29:19Z</time>
      </trkpt>
      <trkpt lat="43.31094" lon="-1.47583">
        <ele>415.3</ele>
        <time>2022-09-04T07:29:20Z</time>
      </trkpt>
      <trkpt lat="43.31093" lon="-1.47582">
        <ele>415.6</ele>
        <time>2022-09-04T07:29:21Z</time>
      </trkpt>
      <trkpt lat="43.3109" lon="-1.47581">
        <ele>416.1</ele>
        <time>2022-09-04T07:29:22Z</time>
      </trkpt>
      <trkpt lat="43.31089" lon="-1.47581">
        <ele>416.3</ele>
        <time>2022-09-04T07:29:23Z</time>
      </trkpt>
      <trkpt lat="43.31088" lon="-1.47581">
        <ele>416.6</ele>
        <time>2022-09-04T07:29:24Z</time>
      </trkpt>
      <trkpt lat="43.31086" lon="-1.47581">
        <ele>417</ele>
        <time>2022-09-04T07:29:25Z</time>
      </trkpt>
      <trkpt lat="43.31083" lon="-1.47581">
        <ele>417.5</ele>
        <time>2022-09-04T07:29:26Z</time>
      </trkpt>
      <trkpt lat="43.31082" lon="-1.47581">
        <ele>417.7</ele>
        <time>2022-09-04T07:29:27Z</time>
      </trkpt>
      <trkpt lat="43.31079" lon="-1.4758">
        <ele>418.3</ele>
        <time>2022-09-04T07:29:28Z</time>
      </trkpt>
      <trkpt lat="43.31078" lon="-1.4758">
        <ele>418.5</ele>
        <time>2022-09-04T07:29:29Z</time>
      </trkpt>
      <trkpt lat="43.31076" lon="-1.4758">
        <ele>418.8</ele>
        <time>2022-09-04T07:29:30Z</time>
      </trkpt>
      <trkpt lat="43.31075" lon="-1.47579">
        <ele>419.1</ele>
        <time>2022-09-04T07:29:31Z</time>
      </trkpt>
      <trkpt lat="43.31073" lon="-1.47579">
        <ele>419.4</ele>
        <time>2022-09-04T07:29:32Z</time>
      </trkpt>
      <trkpt lat="43.31071" lon="-1.47579">
        <ele>419.8</ele>
        <time>2022-09-04T07:29:33Z</time>
      </trkpt>
      <trkpt lat="43.31069" lon="-1.4758">
        <ele>420.3</ele>
        <time>2022-09-04T07:29:34Z</time>
      </trkpt>
      <trkpt lat="43.31068" lon="-1.47581">
        <ele>420.5</ele>
        <time>2022-09-04T07:29:35Z</time>
      </trkpt>
      <trkpt lat="43.31066" lon="-1.47582">
        <ele>420.9</ele>
        <time>2022-09-04T07:29:36Z</time>
      </trkpt>
      <trkpt lat="43.31065" lon="-1.47583">
        <ele>421.1</ele>
        <time>2022-09-04T07:29:37Z</time>
      </trkpt>
      <trkpt lat="43.31064" lon="-1.47583">
        <ele>421.3</ele>
        <time>2022-09-04T07:29:38Z</time>
      </trkpt>
      <trkpt lat="43.31063" lon="-1.47583">
        <ele>421.6</ele>
        <time>2022-09-04T07:29:39Z</time>
      </trkpt>
      <trkpt lat="43.31061" lon="-1.47582">
        <ele>421.9</ele>
        <time>2022-09-04T07:29:40Z</time>
      </trkpt>
      <trkpt lat="43.3106" lon="-1.4758">
        <ele>422.2</ele>
        <time>2022-09-04T07:29:41Z</time>
      </trkpt>
      <trkpt lat="43.31059" lon="-1.47578">
        <ele>422.5</ele>
        <time>2022-09-04T07:29:42Z</time>
      </trkpt>
      <trkpt lat="43.31058" lon="-1.47576">
        <ele>422.9</ele>
        <time>2022-09-04T07:29:43Z</time>
      </trkpt>
      <trkpt lat="43.31057" lon="-1.47575">
        <ele>423.1</ele>
        <time>2022-09-04T07:29:44Z</time>
      </trkpt>
      <trkpt lat="43.31057" lon="-1.47574">
        <ele>423.2</ele>
        <time>2022-09-04T07:29:45Z</time>
      </trkpt>
      <trkpt lat="43.31055" lon="-1.47572">
        <ele>423.6</ele>
        <time>2022-09-04T07:29:46Z</time>
      </trkpt>
      <trkpt lat="43.31055" lon="-1.47571">
        <ele>423.8</ele>
        <time>2022-09-04T07:29:47Z</time>
      </trkpt>
      <trkpt lat="43.31055" lon="-1.4757">
        <ele>423.9</ele>
        <time>2022-09-04T07:29:48Z</time>
      </trkpt>
      <trkpt lat="43.31054" lon="-1.47569">
        <ele>424.1</ele>
        <time>2022-09-04T07:29:49Z</time>
      </trkpt>
      <trkpt lat="43.31054" lon="-1.4757">
        <ele>424.1</ele>
        <time>2022-09-04T07:29:50Z</time>
      </trkpt>
      <trkpt lat="43.31054" lon="-1.4757">
        <ele>424.1</ele>
        <time>2022-09-04T07:29:51Z</time>
      </trkpt>
      <trkpt lat="43.31054" lon="-1.4757">
        <ele>424.1</ele>
        <time>2022-09-04T07:29:52Z</time>
      </trkpt>
      <trkpt lat="43.31054" lon="-1.4757">
        <ele>424.2</ele>
        <time>2022-09-04T07:29:53Z</time>
      </trkpt>
      <trkpt lat="43.31054" lon="-1.4757">
        <ele>424.2</ele>
        <time>2022-09-04T07:29:54Z</time>
      </trkpt>
      <trkpt lat="43.31054" lon="-1.4757">
        <ele>424.2</ele>
        <time>2022-09-04T07:29:55Z</time>
      </trkpt>
      <trkpt lat="43.31054" lon="-1.4757">
        <ele>424.3</ele>
        <time>2022-09-04T07:29:56Z</time>
      </trkpt>
      <trkpt lat="43.31053" lon="-1.47569">
        <ele>424.5</ele>
        <time>2022-09-04T07:29:57Z</time>
      </trkpt>
      <trkpt lat="43.31052" lon="-1.47567">
        <ele>424.8</ele>
        <time>2022-09-04T07:29:58Z</time>
      </trkpt>
      <trkpt lat="43.3105" lon="-1.47563">
        <ele>425.4</ele>
        <time>2022-09-04T07:29:59Z</time>
      </trkpt>
      <trkpt lat="43.31049" lon="-1.47562">
        <ele>425.6</ele>
        <time>2022-09-04T07:30:00Z</time>
      </trkpt>
      <trkpt lat="43.31047" lon="-1.4756">
        <ele>426.2</ele>
        <time>2022-09-04T07:30:01Z</time>
      </trkpt>
      <trkpt lat="43.31046" lon="-1.47559">
        <ele>426.4</ele>
        <time>2022-09-04T07:30:02Z</time>
      </trkpt>
      <trkpt lat="43.31042" lon="-1.47557">
        <ele>427</ele>
        <time>2022-09-04T07:30:03Z</time>
      </trkpt>
      <trkpt lat="43.31041" lon="-1.47557">
        <ele>427.2</ele>
        <time>2022-09-04T07:30:04Z</time>
      </trkpt>
      <trkpt lat="43.31038" lon="-1.47555">
        <ele>427.7</ele>
        <time>2022-09-04T07:30:05Z</time>
      </trkpt>
      <trkpt lat="43.31038" lon="-1.47554">
        <ele>427.9</ele>
        <time>2022-09-04T07:30:06Z</time>
      </trkpt>
      <trkpt lat="43.31034" lon="-1.47552">
        <ele>428.6</ele>
        <time>2022-09-04T07:30:07Z</time>
      </trkpt>
      <trkpt lat="43.31033" lon="-1.47551">
        <ele>428.8</ele>
        <time>2022-09-04T07:30:08Z</time>
      </trkpt>
      <trkpt lat="43.3103" lon="-1.47548">
        <ele>429.3</ele>
        <time>2022-09-04T07:30:09Z</time>
      </trkpt>
      <trkpt lat="43.31029" lon="-1.47547">
        <ele>429.5</ele>
        <time>2022-09-04T07:30:10Z</time>
      </trkpt>
      <trkpt lat="43.31027" lon="-1.47544">
        <ele>430</ele>
        <time>2022-09-04T07:30:11Z</time>
      </trkpt>
      <trkpt lat="43.31026" lon="-1.47544">
        <ele>430.2</ele>
        <time>2022-09-04T07:30:12Z</time>
      </trkpt>
      <trkpt lat="43.31023" lon="-1.47541">
        <ele>430.5</ele>
        <time>2022-09-04T07:30:13Z</time>
      </trkpt>
      <trkpt lat="43.31022" lon="-1.4754">
        <ele>430.6</ele>
        <time>2022-09-04T07:30:14Z</time>
      </trkpt>
      <trkpt lat="43.3102" lon="-1.47537">
        <ele>430.8</ele>
        <time>2022-09-04T07:30:15Z</time>
      </trkpt>
      <trkpt lat="43.31018" lon="-1.47534">
        <ele>431.1</ele>
        <time>2022-09-04T07:30:16Z</time>
      </trkpt>
      <trkpt lat="43.31017" lon="-1.47533">
        <ele>431.2</ele>
        <time>2022-09-04T07:30:17Z</time>
      </trkpt>
      <trkpt lat="43.31015" lon="-1.4753">
        <ele>431.5</ele>
        <time>2022-09-04T07:30:18Z</time>
      </trkpt>
      <trkpt lat="43.31014" lon="-1.47529">
        <ele>431.6</ele>
        <time>2022-09-04T07:30:19Z</time>
      </trkpt>
      <trkpt lat="43.31012" lon="-1.47526">
        <ele>431.8</ele>
        <time>2022-09-04T07:30:20Z</time>
      </trkpt>
      <trkpt lat="43.3101" lon="-1.47523">
        <ele>432.1</ele>
        <time>2022-09-04T07:30:21Z</time>
      </trkpt>
      <trkpt lat="43.31009" lon="-1.47522">
        <ele>432.2</ele>
        <time>2022-09-04T07:30:22Z</time>
      </trkpt>
      <trkpt lat="43.31006" lon="-1.47519">
        <ele>432.5</ele>
        <time>2022-09-04T07:30:23Z</time>
      </trkpt>
      <trkpt lat="43.31006" lon="-1.47518">
        <ele>432.6</ele>
        <time>2022-09-04T07:30:24Z</time>
      </trkpt>
      <trkpt lat="43.31005" lon="-1.47516">
        <ele>432.8</ele>
        <time>2022-09-04T07:30:25Z</time>
      </trkpt>
      <trkpt lat="43.31003" lon="-1.47515">
        <ele>433</ele>
        <time>2022-09-04T07:30:26Z</time>
      </trkpt>
      <trkpt lat="43.31" lon="-1.47512">
        <ele>433.3</ele>
        <time>2022-09-04T07:30:27Z</time>
      </trkpt>
      <trkpt lat="43.31" lon="-1.47511">
        <ele>433.4</ele>
        <time>2022-09-04T07:30:28Z</time>
      </trkpt>
      <trkpt lat="43.30997" lon="-1.47508">
        <ele>433.6</ele>
        <time>2022-09-04T07:30:29Z</time>
      </trkpt>
      <trkpt lat="43.30996" lon="-1.47507">
        <ele>433.7</ele>
        <time>2022-09-04T07:30:30Z</time>
      </trkpt>
      <trkpt lat="43.30995" lon="-1.47504">
        <ele>434</ele>
        <time>2022-09-04T07:30:31Z</time>
      </trkpt>
      <trkpt lat="43.30994" lon="-1.47502">
        <ele>434</ele>
        <time>2022-09-04T07:30:32Z</time>
      </trkpt>
      <trkpt lat="43.30992" lon="-1.47499">
        <ele>434.3</ele>
        <time>2022-09-04T07:30:33Z</time>
      </trkpt>
      <trkpt lat="43.30992" lon="-1.47497">
        <ele>434.3</ele>
        <time>2022-09-04T07:30:34Z</time>
      </trkpt>
      <trkpt lat="43.3099" lon="-1.47495">
        <ele>434.5</ele>
        <time>2022-09-04T07:30:35Z</time>
      </trkpt>
      <trkpt lat="43.30988" lon="-1.47492">
        <ele>434.7</ele>
        <time>2022-09-04T07:30:36Z</time>
      </trkpt>
      <trkpt lat="43.30986" lon="-1.47489">
        <ele>434.8</ele>
        <time>2022-09-04T07:30:37Z</time>
      </trkpt>
      <trkpt lat="43.30983" lon="-1.47485">
        <ele>435.1</ele>
        <time>2022-09-04T07:30:38Z</time>
      </trkpt>
      <trkpt lat="43.30982" lon="-1.47484">
        <ele>435.2</ele>
        <time>2022-09-04T07:30:39Z</time>
      </trkpt>
      <trkpt lat="43.3098" lon="-1.47481">
        <ele>435.4</ele>
        <time>2022-09-04T07:30:40Z</time>
      </trkpt>
      <trkpt lat="43.30978" lon="-1.47476">
        <ele>435.6</ele>
        <time>2022-09-04T07:30:41Z</time>
      </trkpt>
      <trkpt lat="43.30977" lon="-1.47474">
        <ele>435.7</ele>
        <time>2022-09-04T07:30:42Z</time>
      </trkpt>
      <trkpt lat="43.30976" lon="-1.4747">
        <ele>435.9</ele>
        <time>2022-09-04T07:30:43Z</time>
      </trkpt>
      <trkpt lat="43.30975" lon="-1.47467">
        <ele>436.1</ele>
        <time>2022-09-04T07:30:44Z</time>
      </trkpt>
      <trkpt lat="43.30974" lon="-1.47462">
        <ele>436.4</ele>
        <time>2022-09-04T07:30:45Z</time>
      </trkpt>
      <trkpt lat="43.30973" lon="-1.4746">
        <ele>436.5</ele>
        <time>2022-09-04T07:30:46Z</time>
      </trkpt>
      <trkpt lat="43.30972" lon="-1.47457">
        <ele>436.7</ele>
        <time>2022-09-04T07:30:47Z</time>
      </trkpt>
      <trkpt lat="43.3097" lon="-1.47452">
        <ele>437</ele>
        <time>2022-09-04T07:30:48Z</time>
      </trkpt>
      <trkpt lat="43.3097" lon="-1.47451">
        <ele>437</ele>
        <time>2022-09-04T07:30:49Z</time>
      </trkpt>
      <trkpt lat="43.30968" lon="-1.47447">
        <ele>437.3</ele>
        <time>2022-09-04T07:30:50Z</time>
      </trkpt>
      <trkpt lat="43.30968" lon="-1.47446">
        <ele>437.3</ele>
        <time>2022-09-04T07:30:51Z</time>
      </trkpt>
      <trkpt lat="43.30965" lon="-1.47442">
        <ele>437.5</ele>
        <time>2022-09-04T07:30:52Z</time>
      </trkpt>
      <trkpt lat="43.30964" lon="-1.4744">
        <ele>437.6</ele>
        <time>2022-09-04T07:30:53Z</time>
      </trkpt>
      <trkpt lat="43.30962" lon="-1.47436">
        <ele>437.8</ele>
        <time>2022-09-04T07:30:54Z</time>
      </trkpt>
      <trkpt lat="43.30961" lon="-1.47434">
        <ele>437.9</ele>
        <time>2022-09-04T07:30:55Z</time>
      </trkpt>
      <trkpt lat="43.30959" lon="-1.4743">
        <ele>438.1</ele>
        <time>2022-09-04T07:30:56Z</time>
      </trkpt>
      <trkpt lat="43.30958" lon="-1.47429">
        <ele>438.2</ele>
        <time>2022-09-04T07:30:57Z</time>
      </trkpt>
      <trkpt lat="43.30956" lon="-1.47425">
        <ele>438.3</ele>
        <time>2022-09-04T07:30:58Z</time>
      </trkpt>
      <trkpt lat="43.30956" lon="-1.47424">
        <ele>438.4</ele>
        <time>2022-09-04T07:30:59Z</time>
      </trkpt>
      <trkpt lat="43.30954" lon="-1.47421">
        <ele>438.5</ele>
        <time>2022-09-04T07:31:00Z</time>
      </trkpt>
      <trkpt lat="43.30953" lon="-1.4742">
        <ele>438.6</ele>
        <time>2022-09-04T07:31:01Z</time>
      </trkpt>
      <trkpt lat="43.30951" lon="-1.47417">
        <ele>438.7</ele>
        <time>2022-09-04T07:31:02Z</time>
      </trkpt>
      <trkpt lat="43.3095" lon="-1.47416">
        <ele>438.7</ele>
        <time>2022-09-04T07:31:03Z</time>
      </trkpt>
      <trkpt lat="43.30948" lon="-1.47412">
        <ele>438.8</ele>
        <time>2022-09-04T07:31:04Z</time>
      </trkpt>
      <trkpt lat="43.30948" lon="-1.4741">
        <ele>438.8</ele>
        <time>2022-09-04T07:31:05Z</time>
      </trkpt>
      <trkpt lat="43.30947" lon="-1.47405">
        <ele>438.8</ele>
        <time>2022-09-04T07:31:06Z</time>
      </trkpt>
      <trkpt lat="43.30947" lon="-1.47403">
        <ele>438.8</ele>
        <time>2022-09-04T07:31:07Z</time>
      </trkpt>
      <trkpt lat="43.30947" lon="-1.47399">
        <ele>438.7</ele>
        <time>2022-09-04T07:31:08Z</time>
      </trkpt>
      <trkpt lat="43.30948" lon="-1.47396">
        <ele>438.7</ele>
        <time>2022-09-04T07:31:09Z</time>
      </trkpt>
      <trkpt lat="43.3095" lon="-1.47392">
        <ele>438.5</ele>
        <time>2022-09-04T07:31:10Z</time>
      </trkpt>
      <trkpt lat="43.30952" lon="-1.47387">
        <ele>438.4</ele>
        <time>2022-09-04T07:31:11Z</time>
      </trkpt>
      <trkpt lat="43.30953" lon="-1.47381">
        <ele>438.1</ele>
        <time>2022-09-04T07:31:12Z</time>
      </trkpt>
      <trkpt lat="43.30954" lon="-1.47374">
        <ele>437.9</ele>
        <time>2022-09-04T07:31:13Z</time>
      </trkpt>
      <trkpt lat="43.30955" lon="-1.47367">
        <ele>437.6</ele>
        <time>2022-09-04T07:31:14Z</time>
      </trkpt>
      <trkpt lat="43.30953" lon="-1.47361">
        <ele>437.3</ele>
        <time>2022-09-04T07:31:15Z</time>
      </trkpt>
      <trkpt lat="43.30951" lon="-1.47355">
        <ele>437</ele>
        <time>2022-09-04T07:31:16Z</time>
      </trkpt>
      <trkpt lat="43.30948" lon="-1.47349">
        <ele>436.7</ele>
        <time>2022-09-04T07:31:17Z</time>
      </trkpt>
      <trkpt lat="43.30945" lon="-1.47343">
        <ele>436.4</ele>
        <time>2022-09-04T07:31:18Z</time>
      </trkpt>
      <trkpt lat="43.30942" lon="-1.47337">
        <ele>436.1</ele>
        <time>2022-09-04T07:31:19Z</time>
      </trkpt>
      <trkpt lat="43.30939" lon="-1.47331">
        <ele>435.9</ele>
        <time>2022-09-04T07:31:20Z</time>
      </trkpt>
      <trkpt lat="43.30938" lon="-1.47323">
        <ele>435.6</ele>
        <time>2022-09-04T07:31:21Z</time>
      </trkpt>
      <trkpt lat="43.30937" lon="-1.47315">
        <ele>435.5</ele>
        <time>2022-09-04T07:31:22Z</time>
      </trkpt>
      <trkpt lat="43.30936" lon="-1.47307">
        <ele>435.3</ele>
        <time>2022-09-04T07:31:23Z</time>
      </trkpt>
      <trkpt lat="43.30935" lon="-1.473">
        <ele>435.2</ele>
        <time>2022-09-04T07:31:24Z</time>
      </trkpt>
      <trkpt lat="43.30934" lon="-1.47293">
        <ele>435.1</ele>
        <time>2022-09-04T07:31:25Z</time>
      </trkpt>
      <trkpt lat="43.30932" lon="-1.47289">
        <ele>435.1</ele>
        <time>2022-09-04T07:31:26Z</time>
      </trkpt>
      <trkpt lat="43.30929" lon="-1.47284">
        <ele>435.1</ele>
        <time>2022-09-04T07:31:27Z</time>
      </trkpt>
      <trkpt lat="43.30926" lon="-1.47279">
        <ele>435.2</ele>
        <time>2022-09-04T07:31:28Z</time>
      </trkpt>
      <trkpt lat="43.30923" lon="-1.47274">
        <ele>435.3</ele>
        <time>2022-09-04T07:31:29Z</time>
      </trkpt>
      <trkpt lat="43.30921" lon="-1.4727">
        <ele>435.5</ele>
        <time>2022-09-04T07:31:30Z</time>
      </trkpt>
      <trkpt lat="43.30919" lon="-1.47262">
        <ele>435.8</ele>
        <time>2022-09-04T07:31:32Z</time>
      </trkpt>
      <trkpt lat="43.30919" lon="-1.47258">
        <ele>436</ele>
        <time>2022-09-04T07:31:33Z</time>
      </trkpt>
      <trkpt lat="43.30917" lon="-1.47254">
        <ele>436.3</ele>
        <time>2022-09-04T07:31:34Z</time>
      </trkpt>
      <trkpt lat="43.30916" lon="-1.47251">
        <ele>436.5</ele>
        <time>2022-09-04T07:31:35Z</time>
      </trkpt>
      <trkpt lat="43.30913" lon="-1.47248">
        <ele>436.9</ele>
        <time>2022-09-04T07:31:36Z</time>
      </trkpt>
      <trkpt lat="43.30911" lon="-1.47245">
        <ele>437.2</ele>
        <time>2022-09-04T07:31:37Z</time>
      </trkpt>
      <trkpt lat="43.30909" lon="-1.47243">
        <ele>437.5</ele>
        <time>2022-09-04T07:31:38Z</time>
      </trkpt>
      <trkpt lat="43.30906" lon="-1.47241">
        <ele>437.8</ele>
        <time>2022-09-04T07:31:39Z</time>
      </trkpt>
      <trkpt lat="43.30904" lon="-1.47238">
        <ele>438.1</ele>
        <time>2022-09-04T07:31:40Z</time>
      </trkpt>
      <trkpt lat="43.30902" lon="-1.47235">
        <ele>438.4</ele>
        <time>2022-09-04T07:31:41Z</time>
      </trkpt>
      <trkpt lat="43.30899" lon="-1.47232">
        <ele>438.9</ele>
        <time>2022-09-04T07:31:42Z</time>
      </trkpt>
      <trkpt lat="43.30898" lon="-1.4723">
        <ele>439.1</ele>
        <time>2022-09-04T07:31:43Z</time>
      </trkpt>
      <trkpt lat="43.30896" lon="-1.47228">
        <ele>439.4</ele>
        <time>2022-09-04T07:31:44Z</time>
      </trkpt>
      <trkpt lat="43.30894" lon="-1.47224">
        <ele>439.9</ele>
        <time>2022-09-04T07:31:45Z</time>
      </trkpt>
      <trkpt lat="43.30893" lon="-1.47223">
        <ele>440.1</ele>
        <time>2022-09-04T07:31:46Z</time>
      </trkpt>
      <trkpt lat="43.30891" lon="-1.4722">
        <ele>440.4</ele>
        <time>2022-09-04T07:31:47Z</time>
      </trkpt>
      <trkpt lat="43.30888" lon="-1.47216">
        <ele>440.9</ele>
        <time>2022-09-04T07:31:48Z</time>
      </trkpt>
      <trkpt lat="43.30887" lon="-1.47215">
        <ele>441.1</ele>
        <time>2022-09-04T07:31:49Z</time>
      </trkpt>
      <trkpt lat="43.30885" lon="-1.47211">
        <ele>441.6</ele>
        <time>2022-09-04T07:31:50Z</time>
      </trkpt>
      <trkpt lat="43.30884" lon="-1.4721">
        <ele>441.7</ele>
        <time>2022-09-04T07:31:51Z</time>
      </trkpt>
      <trkpt lat="43.30881" lon="-1.47207">
        <ele>442.2</ele>
        <time>2022-09-04T07:31:52Z</time>
      </trkpt>
      <trkpt lat="43.3088" lon="-1.47206">
        <ele>442.4</ele>
        <time>2022-09-04T07:31:53Z</time>
      </trkpt>
      <trkpt lat="43.30877" lon="-1.47203">
        <ele>443</ele>
        <time>2022-09-04T07:31:54Z</time>
      </trkpt>
      <trkpt lat="43.30876" lon="-1.47201">
        <ele>443.3</ele>
        <time>2022-09-04T07:31:55Z</time>
      </trkpt>
      <trkpt lat="43.30874" lon="-1.47199">
        <ele>443.7</ele>
        <time>2022-09-04T07:31:56Z</time>
      </trkpt>
      <trkpt lat="43.30871" lon="-1.47196">
        <ele>444.3</ele>
        <time>2022-09-04T07:31:57Z</time>
      </trkpt>
      <trkpt lat="43.3087" lon="-1.47196">
        <ele>444.5</ele>
        <time>2022-09-04T07:31:58Z</time>
      </trkpt>
      <trkpt lat="43.30867" lon="-1.47194">
        <ele>445</ele>
        <time>2022-09-04T07:31:59Z</time>
      </trkpt>
      <trkpt lat="43.30866" lon="-1.47193">
        <ele>445.2</ele>
        <time>2022-09-04T07:32:00Z</time>
      </trkpt>
      <trkpt lat="43.30862" lon="-1.47192">
        <ele>445.8</ele>
        <time>2022-09-04T07:32:01Z</time>
      </trkpt>
      <trkpt lat="43.30861" lon="-1.47191">
        <ele>446</ele>
        <time>2022-09-04T07:32:02Z</time>
      </trkpt>
      <trkpt lat="43.30857" lon="-1.47189">
        <ele>446.6</ele>
        <time>2022-09-04T07:32:03Z</time>
      </trkpt>
      <trkpt lat="43.30856" lon="-1.47188">
        <ele>446.7</ele>
        <time>2022-09-04T07:32:04Z</time>
      </trkpt>
      <trkpt lat="43.30854" lon="-1.47186">
        <ele>447.2</ele>
        <time>2022-09-04T07:32:05Z</time>
      </trkpt>
      <trkpt lat="43.30853" lon="-1.47185">
        <ele>447.3</ele>
        <time>2022-09-04T07:32:06Z</time>
      </trkpt>
      <trkpt lat="43.3085" lon="-1.47182">
        <ele>447.7</ele>
        <time>2022-09-04T07:32:07Z</time>
      </trkpt>
      <trkpt lat="43.30849" lon="-1.47182">
        <ele>447.8</ele>
        <time>2022-09-04T07:32:08Z</time>
      </trkpt>
      <trkpt lat="43.30846" lon="-1.47179">
        <ele>448.2</ele>
        <time>2022-09-04T07:32:09Z</time>
      </trkpt>
      <trkpt lat="43.30845" lon="-1.47178">
        <ele>448.3</ele>
        <time>2022-09-04T07:32:10Z</time>
      </trkpt>
      <trkpt lat="43.30842" lon="-1.47174">
        <ele>448.7</ele>
        <time>2022-09-04T07:32:11Z</time>
      </trkpt>
      <trkpt lat="43.30842" lon="-1.47172">
        <ele>448.8</ele>
        <time>2022-09-04T07:32:12Z</time>
      </trkpt>
      <trkpt lat="43.30842" lon="-1.47168">
        <ele>449.1</ele>
        <time>2022-09-04T07:32:13Z</time>
      </trkpt>
      <trkpt lat="43.30843" lon="-1.47166">
        <ele>449.3</ele>
        <time>2022-09-04T07:32:14Z</time>
      </trkpt>
      <trkpt lat="43.30845" lon="-1.47164">
        <ele>449.6</ele>
        <time>2022-09-04T07:32:15Z</time>
      </trkpt>
      <trkpt lat="43.30847" lon="-1.47162">
        <ele>449.9</ele>
        <time>2022-09-04T07:32:16Z</time>
      </trkpt>
      <trkpt lat="43.30851" lon="-1.4716">
        <ele>450.4</ele>
        <time>2022-09-04T07:32:17Z</time>
      </trkpt>
      <trkpt lat="43.30852" lon="-1.47159">
        <ele>450.6</ele>
        <time>2022-09-04T07:32:18Z</time>
      </trkpt>
      <trkpt lat="43.30855" lon="-1.47156">
        <ele>451.2</ele>
        <time>2022-09-04T07:32:19Z</time>
      </trkpt>
      <trkpt lat="43.30856" lon="-1.47155">
        <ele>451.4</ele>
        <time>2022-09-04T07:32:20Z</time>
      </trkpt>
      <trkpt lat="43.30857" lon="-1.4715">
        <ele>452.1</ele>
        <time>2022-09-04T07:32:21Z</time>
      </trkpt>
      <trkpt lat="43.30858" lon="-1.47148">
        <ele>452.3</ele>
        <time>2022-09-04T07:32:22Z</time>
      </trkpt>
      <trkpt lat="43.30858" lon="-1.47143">
        <ele>453.1</ele>
        <time>2022-09-04T07:32:23Z</time>
      </trkpt>
      <trkpt lat="43.30858" lon="-1.47141">
        <ele>453.3</ele>
        <time>2022-09-04T07:32:24Z</time>
      </trkpt>
      <trkpt lat="43.30859" lon="-1.47137">
        <ele>454.1</ele>
        <time>2022-09-04T07:32:25Z</time>
      </trkpt>
      <trkpt lat="43.30859" lon="-1.47136">
        <ele>454.4</ele>
        <time>2022-09-04T07:32:26Z</time>
      </trkpt>
      <trkpt lat="43.3086" lon="-1.47131">
        <ele>455.2</ele>
        <time>2022-09-04T07:32:27Z</time>
      </trkpt>
      <trkpt lat="43.3086" lon="-1.47129">
        <ele>455.5</ele>
        <time>2022-09-04T07:32:28Z</time>
      </trkpt>
      <trkpt lat="43.30859" lon="-1.47124">
        <ele>456.4</ele>
        <time>2022-09-04T07:32:29Z</time>
      </trkpt>
      <trkpt lat="43.30859" lon="-1.47123">
        <ele>456.8</ele>
        <time>2022-09-04T07:32:30Z</time>
      </trkpt>
      <trkpt lat="43.30858" lon="-1.47118">
        <ele>457.6</ele>
        <time>2022-09-04T07:32:31Z</time>
      </trkpt>
      <trkpt lat="43.30857" lon="-1.47117">
        <ele>457.9</ele>
        <time>2022-09-04T07:32:32Z</time>
      </trkpt>
      <trkpt lat="43.30856" lon="-1.47113">
        <ele>458.7</ele>
        <time>2022-09-04T07:32:33Z</time>
      </trkpt>
      <trkpt lat="43.30856" lon="-1.47112">
        <ele>458.9</ele>
        <time>2022-09-04T07:32:34Z</time>
      </trkpt>
      <trkpt lat="43.30854" lon="-1.47108">
        <ele>459.8</ele>
        <time>2022-09-04T07:32:35Z</time>
      </trkpt>
      <trkpt lat="43.30853" lon="-1.47106">
        <ele>460.1</ele>
        <time>2022-09-04T07:32:36Z</time>
      </trkpt>
      <trkpt lat="43.3085" lon="-1.47103">
        <ele>461</ele>
        <time>2022-09-04T07:32:37Z</time>
      </trkpt>
      <trkpt lat="43.30849" lon="-1.47102">
        <ele>461.3</ele>
        <time>2022-09-04T07:32:38Z</time>
      </trkpt>
      <trkpt lat="43.30846" lon="-1.47099">
        <ele>462.1</ele>
        <time>2022-09-04T07:32:39Z</time>
      </trkpt>
      <trkpt lat="43.30845" lon="-1.47098">
        <ele>462.3</ele>
        <time>2022-09-04T07:32:40Z</time>
      </trkpt>
      <trkpt lat="43.30844" lon="-1.47095">
        <ele>462.9</ele>
        <time>2022-09-04T07:32:41Z</time>
      </trkpt>
      <trkpt lat="43.30842" lon="-1.47092">
        <ele>463.5</ele>
        <time>2022-09-04T07:32:42Z</time>
      </trkpt>
      <trkpt lat="43.30839" lon="-1.4709">
        <ele>464.4</ele>
        <time>2022-09-04T07:32:43Z</time>
      </trkpt>
      <trkpt lat="43.30837" lon="-1.47086">
        <ele>465.4</ele>
        <time>2022-09-04T07:32:44Z</time>
      </trkpt>
      <trkpt lat="43.30836" lon="-1.47085">
        <ele>465.6</ele>
        <time>2022-09-04T07:32:45Z</time>
      </trkpt>
      <trkpt lat="43.30833" lon="-1.47083">
        <ele>466.7</ele>
        <time>2022-09-04T07:32:46Z</time>
      </trkpt>
      <trkpt lat="43.3083" lon="-1.47081">
        <ele>467.7</ele>
        <time>2022-09-04T07:32:47Z</time>
      </trkpt>
      <trkpt lat="43.30829" lon="-1.4708">
        <ele>467.9</ele>
        <time>2022-09-04T07:32:48Z</time>
      </trkpt>
      <trkpt lat="43.30826" lon="-1.47077">
        <ele>469</ele>
        <time>2022-09-04T07:32:49Z</time>
      </trkpt>
      <trkpt lat="43.30826" lon="-1.47076">
        <ele>469.2</ele>
        <time>2022-09-04T07:32:50Z</time>
      </trkpt>
      <trkpt lat="43.30823" lon="-1.47072">
        <ele>470.2</ele>
        <time>2022-09-04T07:32:51Z</time>
      </trkpt>
      <trkpt lat="43.30822" lon="-1.47071">
        <ele>471.1</ele>
        <time>2022-09-04T07:32:52Z</time>
      </trkpt>
      <trkpt lat="43.3082" lon="-1.47068">
        <ele>471.4</ele>
        <time>2022-09-04T07:32:53Z</time>
      </trkpt>
      <trkpt lat="43.30819" lon="-1.47067">
        <ele>472.2</ele>
        <time>2022-09-04T07:32:54Z</time>
      </trkpt>
      <trkpt lat="43.30817" lon="-1.47063">
        <ele>472.5</ele>
        <time>2022-09-04T07:32:55Z</time>
      </trkpt>
      <trkpt lat="43.30817" lon="-1.47062">
        <ele>472.8</ele>
        <time>2022-09-04T07:32:56Z</time>
      </trkpt>
      <trkpt lat="43.30815" lon="-1.47058">
        <ele>473.6</ele>
        <time>2022-09-04T07:32:57Z</time>
      </trkpt>
      <trkpt lat="43.30814" lon="-1.47056">
        <ele>473.8</ele>
        <time>2022-09-04T07:32:58Z</time>
      </trkpt>
      <trkpt lat="43.30813" lon="-1.47052">
        <ele>474.7</ele>
        <time>2022-09-04T07:32:59Z</time>
      </trkpt>
      <trkpt lat="43.30812" lon="-1.4705">
        <ele>474.8</ele>
        <time>2022-09-04T07:33:00Z</time>
      </trkpt>
      <trkpt lat="43.30811" lon="-1.47047">
        <ele>475</ele>
        <time>2022-09-04T07:33:01Z</time>
      </trkpt>
      <trkpt lat="43.3081" lon="-1.47043">
        <ele>475.1</ele>
        <time>2022-09-04T07:33:02Z</time>
      </trkpt>
      <trkpt lat="43.30808" lon="-1.47039">
        <ele>475.3</ele>
        <time>2022-09-04T07:33:03Z</time>
      </trkpt>
      <trkpt lat="43.30808" lon="-1.47037">
        <ele>475.4</ele>
        <time>2022-09-04T07:33:04Z</time>
      </trkpt>
      <trkpt lat="43.30807" lon="-1.47033">
        <ele>475.6</ele>
        <time>2022-09-04T07:33:05Z</time>
      </trkpt>
      <trkpt lat="43.30806" lon="-1.47032">
        <ele>475.7</ele>
        <time>2022-09-04T07:33:06Z</time>
      </trkpt>
      <trkpt lat="43.30805" lon="-1.47029">
        <ele>475.8</ele>
        <time>2022-09-04T07:33:07Z</time>
      </trkpt>
      <trkpt lat="43.30805" lon="-1.47027">
        <ele>475.9</ele>
        <time>2022-09-04T07:33:08Z</time>
      </trkpt>
      <trkpt lat="43.30805" lon="-1.47025">
        <ele>476</ele>
        <time>2022-09-04T07:33:09Z</time>
      </trkpt>
      <trkpt lat="43.30805" lon="-1.47023">
        <ele>476</ele>
        <time>2022-09-04T07:33:10Z</time>
      </trkpt>
      <trkpt lat="43.30804" lon="-1.47021">
        <ele>476.1</ele>
        <time>2022-09-04T07:33:11Z</time>
      </trkpt>
      <trkpt lat="43.30804" lon="-1.47019">
        <ele>476.2</ele>
        <time>2022-09-04T07:33:12Z</time>
      </trkpt>
      <trkpt lat="43.30803" lon="-1.47017">
        <ele>476.3</ele>
        <time>2022-09-04T07:33:13Z</time>
      </trkpt>
      <trkpt lat="43.30803" lon="-1.47016">
        <ele>476.3</ele>
        <time>2022-09-04T07:33:14Z</time>
      </trkpt>
      <trkpt lat="43.30802" lon="-1.47013">
        <ele>476.4</ele>
        <time>2022-09-04T07:33:15Z</time>
      </trkpt>
      <trkpt lat="43.30801" lon="-1.47012">
        <ele>476.5</ele>
        <time>2022-09-04T07:33:16Z</time>
      </trkpt>
      <trkpt lat="43.30801" lon="-1.47011">
        <ele>476.5</ele>
        <time>2022-09-04T07:33:17Z</time>
      </trkpt>
      <trkpt lat="43.30801" lon="-1.4701">
        <ele>476.6</ele>
        <time>2022-09-04T07:33:18Z</time>
      </trkpt>
      <trkpt lat="43.30801" lon="-1.47008">
        <ele>476.6</ele>
        <time>2022-09-04T07:33:19Z</time>
      </trkpt>
      <trkpt lat="43.30801" lon="-1.47008">
        <ele>476.6</ele>
        <time>2022-09-04T07:33:20Z</time>
      </trkpt>
      <trkpt lat="43.30801" lon="-1.47007">
        <ele>476.7</ele>
        <time>2022-09-04T07:33:21Z</time>
      </trkpt>
      <trkpt lat="43.30801" lon="-1.47007">
        <ele>476.7</ele>
        <time>2022-09-04T07:33:22Z</time>
      </trkpt>
      <trkpt lat="43.30801" lon="-1.47007">
        <ele>476.7</ele>
        <time>2022-09-04T07:33:23Z</time>
      </trkpt>
      <trkpt lat="43.30801" lon="-1.47006">
        <ele>476.7</ele>
        <time>2022-09-04T07:33:24Z</time>
      </trkpt>
      <trkpt lat="43.30802" lon="-1.47006">
        <ele>476.7</ele>
        <time>2022-09-04T07:33:25Z</time>
      </trkpt>
      <trkpt lat="43.30802" lon="-1.47006">
        <ele>476.7</ele>
        <time>2022-09-04T07:33:26Z</time>
      </trkpt>
      <trkpt lat="43.30802" lon="-1.47005">
        <ele>476.7</ele>
        <time>2022-09-04T07:33:27Z</time>
      </trkpt>
      <trkpt lat="43.30801" lon="-1.47004">
        <ele>476.7</ele>
        <time>2022-09-04T07:33:28Z</time>
      </trkpt>
      <trkpt lat="43.30802" lon="-1.47003">
        <ele>476.7</ele>
        <time>2022-09-04T07:33:29Z</time>
      </trkpt>
      <trkpt lat="43.30802" lon="-1.47002">
        <ele>476.7</ele>
        <time>2022-09-04T07:33:30Z</time>
      </trkpt>
      <trkpt lat="43.30802" lon="-1.47002">
        <ele>476.7</ele>
        <time>2022-09-04T07:33:31Z</time>
      </trkpt>
      <trkpt lat="43.30803" lon="-1.47001">
        <ele>476.6</ele>
        <time>2022-09-04T07:33:32Z</time>
      </trkpt>
      <trkpt lat="43.30804" lon="-1.47">
        <ele>476.6</ele>
        <time>2022-09-04T07:33:33Z</time>
      </trkpt>
      <trkpt lat="43.30804" lon="-1.47">
        <ele>476.6</ele>
        <time>2022-09-04T07:33:34Z</time>
      </trkpt>
      <trkpt lat="43.30804" lon="-1.47">
        <ele>476.6</ele>
        <time>2022-09-04T07:33:35Z</time>
      </trkpt>
      <trkpt lat="43.30804" lon="-1.46999">
        <ele>476.6</ele>
        <time>2022-09-04T07:33:36Z</time>
      </trkpt>
      <trkpt lat="43.30804" lon="-1.47">
        <ele>476.6</ele>
        <time>2022-09-04T07:33:37Z</time>
      </trkpt>
      <trkpt lat="43.30804" lon="-1.47">
        <ele>476.6</ele>
        <time>2022-09-04T07:33:38Z</time>
      </trkpt>
      <trkpt lat="43.30804" lon="-1.47">
        <ele>476.6</ele>
        <time>2022-09-04T07:33:39Z</time>
      </trkpt>
      <trkpt lat="43.30804" lon="-1.47">
        <ele>476.6</ele>
        <time>2022-09-04T07:33:40Z</time>
      </trkpt>
      <trkpt lat="43.30804" lon="-1.47">
        <ele>476.6</ele>
        <time>2022-09-04T07:33:41Z</time>
      </trkpt>
      <trkpt lat="43.30804" lon="-1.47">
        <ele>476.6</ele>
        <time>2022-09-04T07:33:42Z</time>
      </trkpt>
      <trkpt lat="43.30804" lon="-1.47">
        <ele>476.6</ele>
        <time>2022-09-04T07:33:43Z</time>
      </trkpt>
      <trkpt lat="43.30804" lon="-1.47">
        <ele>476.6</ele>
        <time>2022-09-04T07:33:44Z</time>
      </trkpt>
      <trkpt lat="43.30805" lon="-1.47004">
        <ele>476.5</ele>
        <time>2022-09-04T07:33:59Z</time>
      </trkpt>
      <trkpt lat="43.30806" lon="-1.47004">
        <ele>476.5</ele>
        <time>2022-09-04T07:34:00Z</time>
      </trkpt>
      <trkpt lat="43.30805" lon="-1.47005">
        <ele>476.5</ele>
        <time>2022-09-04T07:34:01Z</time>
      </trkpt>
      <trkpt lat="43.30805" lon="-1.47005">
        <ele>476.5</ele>
        <time>2022-09-04T07:34:02Z</time>
      </trkpt>
      <trkpt lat="43.30805" lon="-1.47006">
        <ele>476.4</ele>
        <time>2022-09-04T07:34:03Z</time>
      </trkpt>
      <trkpt lat="43.30804" lon="-1.47007">
        <ele>476.4</ele>
        <time>2022-09-04T07:34:04Z</time>
      </trkpt>
      <trkpt lat="43.30803" lon="-1.47007">
        <ele>476.3</ele>
        <time>2022-09-04T07:34:06Z</time>
      </trkpt>
      <trkpt lat="43.30802" lon="-1.47006">
        <ele>476.3</ele>
        <time>2022-09-04T07:34:07Z</time>
      </trkpt>
      <trkpt lat="43.30802" lon="-1.47006">
        <ele>476.3</ele>
        <time>2022-09-04T07:34:08Z</time>
      </trkpt>
      <trkpt lat="43.30801" lon="-1.47005">
        <ele>476.3</ele>
        <time>2022-09-04T07:34:09Z</time>
      </trkpt>
      <trkpt lat="43.30801" lon="-1.47005">
        <ele>476.3</ele>
        <time>2022-09-04T07:34:10Z</time>
      </trkpt>
      <trkpt lat="43.30801" lon="-1.47004">
        <ele>476.2</ele>
        <time>2022-09-04T07:34:11Z</time>
      </trkpt>
      <trkpt lat="43.30801" lon="-1.47004">
        <ele>476.2</ele>
        <time>2022-09-04T07:34:12Z</time>
      </trkpt>
      <trkpt lat="43.308" lon="-1.47002">
        <ele>476.2</ele>
        <time>2022-09-04T07:34:13Z</time>
      </trkpt>
      <trkpt lat="43.308" lon="-1.47001">
        <ele>476.1</ele>
        <time>2022-09-04T07:34:14Z</time>
      </trkpt>
      <trkpt lat="43.308" lon="-1.47">
        <ele>476.1</ele>
        <time>2022-09-04T07:34:15Z</time>
      </trkpt>
      <trkpt lat="43.308" lon="-1.47">
        <ele>476.1</ele>
        <time>2022-09-04T07:34:16Z</time>
      </trkpt>
      <trkpt lat="43.30799" lon="-1.46999">
        <ele>476.1</ele>
        <time>2022-09-04T07:34:17Z</time>
      </trkpt>
      <trkpt lat="43.30799" lon="-1.46997">
        <ele>476</ele>
        <time>2022-09-04T07:34:18Z</time>
      </trkpt>
      <trkpt lat="43.30798" lon="-1.46996">
        <ele>475.9</ele>
        <time>2022-09-04T07:34:19Z</time>
      </trkpt>
      <trkpt lat="43.30797" lon="-1.46995">
        <ele>475.9</ele>
        <time>2022-09-04T07:34:20Z</time>
      </trkpt>
      <trkpt lat="43.30797" lon="-1.46994">
        <ele>475.8</ele>
        <time>2022-09-04T07:34:21Z</time>
      </trkpt>
      <trkpt lat="43.30796" lon="-1.46994">
        <ele>475.8</ele>
        <time>2022-09-04T07:34:22Z</time>
      </trkpt>
      <trkpt lat="43.30796" lon="-1.46994">
        <ele>475.8</ele>
        <time>2022-09-04T07:34:23Z</time>
      </trkpt>
      <trkpt lat="43.30795" lon="-1.46993">
        <ele>475.8</ele>
        <time>2022-09-04T07:34:24Z</time>
      </trkpt>
      <trkpt lat="43.30795" lon="-1.46992">
        <ele>475.7</ele>
        <time>2022-09-04T07:34:25Z</time>
      </trkpt>
      <trkpt lat="43.30794" lon="-1.46991">
        <ele>475.7</ele>
        <time>2022-09-04T07:34:26Z</time>
      </trkpt>
      <trkpt lat="43.30794" lon="-1.46991">
        <ele>475.6</ele>
        <time>2022-09-04T07:34:27Z</time>
      </trkpt>
      <trkpt lat="43.30793" lon="-1.4699">
        <ele>475.6</ele>
        <time>2022-09-04T07:34:28Z</time>
      </trkpt>
      <trkpt lat="43.30793" lon="-1.4699">
        <ele>475.6</ele>
        <time>2022-09-04T07:34:29Z</time>
      </trkpt>
      <trkpt lat="43.30793" lon="-1.4699">
        <ele>475.6</ele>
        <time>2022-09-04T07:34:30Z</time>
      </trkpt>
      <trkpt lat="43.30793" lon="-1.4699">
        <ele>475.6</ele>
        <time>2022-09-04T07:34:31Z</time>
      </trkpt>
      <trkpt lat="43.30793" lon="-1.4699">
        <ele>475.6</ele>
        <time>2022-09-04T07:34:32Z</time>
      </trkpt>
      <trkpt lat="43.30794" lon="-1.4699">
        <ele>475.6</ele>
        <time>2022-09-04T07:34:33Z</time>
      </trkpt>
      <trkpt lat="43.30794" lon="-1.4699">
        <ele>475.6</ele>
        <time>2022-09-04T07:34:34Z</time>
      </trkpt>
      <trkpt lat="43.30794" lon="-1.4699">
        <ele>475.6</ele>
        <time>2022-09-04T07:34:35Z</time>
      </trkpt>
      <trkpt lat="43.30794" lon="-1.4699">
        <ele>475.6</ele>
        <time>2022-09-04T07:34:36Z</time>
      </trkpt>
      <trkpt lat="43.30794" lon="-1.4699">
        <ele>475.6</ele>
        <time>2022-09-04T07:34:37Z</time>
      </trkpt>
      <trkpt lat="43.30794" lon="-1.4699">
        <ele>475.6</ele>
        <time>2022-09-04T07:34:38Z</time>
      </trkpt>
      <trkpt lat="43.30794" lon="-1.4699">
        <ele>475.6</ele>
        <time>2022-09-04T07:34:39Z</time>
      </trkpt>
      <trkpt lat="43.30793" lon="-1.46988">
        <ele>475.5</ele>
        <time>2022-09-04T07:36:29Z</time>
      </trkpt>
      <trkpt lat="43.30793" lon="-1.46987">
        <ele>475.5</ele>
        <time>2022-09-04T07:36:30Z</time>
      </trkpt>
      <trkpt lat="43.30793" lon="-1.46986">
        <ele>475.4</ele>
        <time>2022-09-04T07:36:31Z</time>
      </trkpt>
      <trkpt lat="43.30792" lon="-1.46985">
        <ele>475.4</ele>
        <time>2022-09-04T07:36:32Z</time>
      </trkpt>
      <trkpt lat="43.3079" lon="-1.46984">
        <ele>475.3</ele>
        <time>2022-09-04T07:36:33Z</time>
      </trkpt>
      <trkpt lat="43.30789" lon="-1.46981">
        <ele>475.2</ele>
        <time>2022-09-04T07:36:34Z</time>
      </trkpt>
      <trkpt lat="43.30787" lon="-1.46977">
        <ele>475</ele>
        <time>2022-09-04T07:36:35Z</time>
      </trkpt>
      <trkpt lat="43.30786" lon="-1.46976">
        <ele>474.9</ele>
        <time>2022-09-04T07:36:36Z</time>
      </trkpt>
      <trkpt lat="43.30784" lon="-1.46974">
        <ele>474.7</ele>
        <time>2022-09-04T07:36:37Z</time>
      </trkpt>
      <trkpt lat="43.30781" lon="-1.46973">
        <ele>474.6</ele>
        <time>2022-09-04T07:36:38Z</time>
      </trkpt>
      <trkpt lat="43.30778" lon="-1.46972">
        <ele>474.3</ele>
        <time>2022-09-04T07:36:39Z</time>
      </trkpt>
      <trkpt lat="43.30775" lon="-1.4697">
        <ele>474.1</ele>
        <time>2022-09-04T07:36:40Z</time>
      </trkpt>
      <trkpt lat="43.30772" lon="-1.46967">
        <ele>473.9</ele>
        <time>2022-09-04T07:36:41Z</time>
      </trkpt>
      <trkpt lat="43.30769" lon="-1.46963">
        <ele>473.6</ele>
        <time>2022-09-04T07:36:42Z</time>
      </trkpt>
      <trkpt lat="43.30765" lon="-1.4696">
        <ele>473.4</ele>
        <time>2022-09-04T07:36:43Z</time>
      </trkpt>
      <trkpt lat="43.30761" lon="-1.46958">
        <ele>473.1</ele>
        <time>2022-09-04T07:36:44Z</time>
      </trkpt>
      <trkpt lat="43.30757" lon="-1.46955">
        <ele>472.8</ele>
        <time>2022-09-04T07:36:45Z</time>
      </trkpt>
      <trkpt lat="43.30752" lon="-1.46953">
        <ele>472.5</ele>
        <time>2022-09-04T07:36:46Z</time>
      </trkpt>
      <trkpt lat="43.30747" lon="-1.46951">
        <ele>472.2</ele>
        <time>2022-09-04T07:36:47Z</time>
      </trkpt>
      <trkpt lat="43.30741" lon="-1.46949">
        <ele>471.9</ele>
        <time>2022-09-04T07:36:48Z</time>
      </trkpt>
      <trkpt lat="43.30735" lon="-1.46948">
        <ele>471.7</ele>
        <time>2022-09-04T07:36:49Z</time>
      </trkpt>
      <trkpt lat="43.30729" lon="-1.46947">
        <ele>471.4</ele>
        <time>2022-09-04T07:36:50Z</time>
      </trkpt>
      <trkpt lat="43.30723" lon="-1.46947">
        <ele>471.2</ele>
        <time>2022-09-04T07:36:51Z</time>
      </trkpt>
      <trkpt lat="43.30716" lon="-1.46946">
        <ele>471</ele>
        <time>2022-09-04T07:36:52Z</time>
      </trkpt>
      <trkpt lat="43.3071" lon="-1.46946">
        <ele>470.9</ele>
        <time>2022-09-04T07:36:53Z</time>
      </trkpt>
      <trkpt lat="43.30704" lon="-1.46946">
        <ele>470.7</ele>
        <time>2022-09-04T07:36:54Z</time>
      </trkpt>
      <trkpt lat="43.30698" lon="-1.46947">
        <ele>470.6</ele>
        <time>2022-09-04T07:36:55Z</time>
      </trkpt>
      <trkpt lat="43.30691" lon="-1.46949">
        <ele>470.5</ele>
        <time>2022-09-04T07:36:56Z</time>
      </trkpt>
      <trkpt lat="43.30685" lon="-1.46951">
        <ele>470.4</ele>
        <time>2022-09-04T07:36:57Z</time>
      </trkpt>
      <trkpt lat="43.30679" lon="-1.46953">
        <ele>470.3</ele>
        <time>2022-09-04T07:36:58Z</time>
      </trkpt>
      <trkpt lat="43.30674" lon="-1.46954">
        <ele>470.1</ele>
        <time>2022-09-04T07:36:59Z</time>
      </trkpt>
      <trkpt lat="43.30669" lon="-1.46955">
        <ele>470</ele>
        <time>2022-09-04T07:37:00Z</time>
      </trkpt>
      <trkpt lat="43.30664" lon="-1.46955">
        <ele>469.8</ele>
        <time>2022-09-04T07:37:01Z</time>
      </trkpt>
      <trkpt lat="43.30659" lon="-1.46956">
        <ele>469.6</ele>
        <time>2022-09-04T07:37:02Z</time>
      </trkpt>
      <trkpt lat="43.30654" lon="-1.46956">
        <ele>469.4</ele>
        <time>2022-09-04T07:37:03Z</time>
      </trkpt>
      <trkpt lat="43.30649" lon="-1.46957">
        <ele>469.2</ele>
        <time>2022-09-04T07:37:04Z</time>
      </trkpt>
      <trkpt lat="43.30643" lon="-1.46958">
        <ele>469</ele>
        <time>2022-09-04T07:37:05Z</time>
      </trkpt>
      <trkpt lat="43.30637" lon="-1.4696">
        <ele>468.9</ele>
        <time>2022-09-04T07:37:06Z</time>
      </trkpt>
      <trkpt lat="43.30631" lon="-1.46961">
        <ele>468.8</ele>
        <time>2022-09-04T07:37:07Z</time>
      </trkpt>
      <trkpt lat="43.30625" lon="-1.46961">
        <ele>468.9</ele>
        <time>2022-09-04T07:37:08Z</time>
      </trkpt>
      <trkpt lat="43.30619" lon="-1.4696">
        <ele>469</ele>
        <time>2022-09-04T07:37:09Z</time>
      </trkpt>
      <trkpt lat="43.30613" lon="-1.46959">
        <ele>469.1</ele>
        <time>2022-09-04T07:37:10Z</time>
      </trkpt>
      <trkpt lat="43.30607" lon="-1.46958">
        <ele>469.2</ele>
        <time>2022-09-04T07:37:11Z</time>
      </trkpt>
      <trkpt lat="43.30601" lon="-1.46958">
        <ele>469.5</ele>
        <time>2022-09-04T07:37:12Z</time>
      </trkpt>
      <trkpt lat="43.30595" lon="-1.46957">
        <ele>469.7</ele>
        <time>2022-09-04T07:37:13Z</time>
      </trkpt>
      <trkpt lat="43.3059" lon="-1.46957">
        <ele>470.1</ele>
        <time>2022-09-04T07:37:14Z</time>
      </trkpt>
      <trkpt lat="43.30585" lon="-1.46957">
        <ele>470.5</ele>
        <time>2022-09-04T07:37:15Z</time>
      </trkpt>
      <trkpt lat="43.3058" lon="-1.46956">
        <ele>470.9</ele>
        <time>2022-09-04T07:37:16Z</time>
      </trkpt>
      <trkpt lat="43.30575" lon="-1.46955">
        <ele>471.4</ele>
        <time>2022-09-04T07:37:17Z</time>
      </trkpt>
      <trkpt lat="43.3057" lon="-1.46953">
        <ele>472</ele>
        <time>2022-09-04T07:37:18Z</time>
      </trkpt>
      <trkpt lat="43.30564" lon="-1.46952">
        <ele>472.7</ele>
        <time>2022-09-04T07:37:19Z</time>
      </trkpt>
      <trkpt lat="43.3056" lon="-1.4695">
        <ele>473.2</ele>
        <time>2022-09-04T07:37:20Z</time>
      </trkpt>
      <trkpt lat="43.30556" lon="-1.4695">
        <ele>473.8</ele>
        <time>2022-09-04T07:37:21Z</time>
      </trkpt>
      <trkpt lat="43.30551" lon="-1.4695">
        <ele>474.3</ele>
        <time>2022-09-04T07:37:22Z</time>
      </trkpt>
      <trkpt lat="43.30547" lon="-1.46949">
        <ele>474.8</ele>
        <time>2022-09-04T07:37:23Z</time>
      </trkpt>
      <trkpt lat="43.30544" lon="-1.46949">
        <ele>475.2</ele>
        <time>2022-09-04T07:37:24Z</time>
      </trkpt>
      <trkpt lat="43.30541" lon="-1.46948">
        <ele>475.6</ele>
        <time>2022-09-04T07:37:25Z</time>
      </trkpt>
      <trkpt lat="43.30538" lon="-1.46946">
        <ele>475.9</ele>
        <time>2022-09-04T07:37:26Z</time>
      </trkpt>
      <trkpt lat="43.30535" lon="-1.46944">
        <ele>476.3</ele>
        <time>2022-09-04T07:37:27Z</time>
      </trkpt>
      <trkpt lat="43.30533" lon="-1.46941">
        <ele>476.6</ele>
        <time>2022-09-04T07:37:28Z</time>
      </trkpt>
      <trkpt lat="43.30531" lon="-1.46938">
        <ele>476.9</ele>
        <time>2022-09-04T07:37:29Z</time>
      </trkpt>
      <trkpt lat="43.30529" lon="-1.46935">
        <ele>477.2</ele>
        <time>2022-09-04T07:37:30Z</time>
      </trkpt>
      <trkpt lat="43.30526" lon="-1.46932">
        <ele>477.6</ele>
        <time>2022-09-04T07:37:31Z</time>
      </trkpt>
      <trkpt lat="43.30523" lon="-1.46929">
        <ele>478</ele>
        <time>2022-09-04T07:37:32Z</time>
      </trkpt>
      <trkpt lat="43.3052" lon="-1.46925">
        <ele>478.5</ele>
        <time>2022-09-04T07:37:33Z</time>
      </trkpt>
      <trkpt lat="43.30517" lon="-1.46922">
        <ele>479</ele>
        <time>2022-09-04T07:37:34Z</time>
      </trkpt>
      <trkpt lat="43.30514" lon="-1.4692">
        <ele>479.4</ele>
        <time>2022-09-04T07:37:35Z</time>
      </trkpt>
      <trkpt lat="43.3051" lon="-1.46917">
        <ele>480</ele>
        <time>2022-09-04T07:37:36Z</time>
      </trkpt>
      <trkpt lat="43.30507" lon="-1.46914">
        <ele>480.5</ele>
        <time>2022-09-04T07:37:37Z</time>
      </trkpt>
      <trkpt lat="43.30504" lon="-1.46912">
        <ele>481</ele>
        <time>2022-09-04T07:37:38Z</time>
      </trkpt>
      <trkpt lat="43.305" lon="-1.46909">
        <ele>481.6</ele>
        <time>2022-09-04T07:37:39Z</time>
      </trkpt>
      <trkpt lat="43.30497" lon="-1.46906">
        <ele>482.1</ele>
        <time>2022-09-04T07:37:40Z</time>
      </trkpt>
      <trkpt lat="43.30494" lon="-1.46902">
        <ele>482.6</ele>
        <time>2022-09-04T07:37:41Z</time>
      </trkpt>
      <trkpt lat="43.30492" lon="-1.46898">
        <ele>483.1</ele>
        <time>2022-09-04T07:37:42Z</time>
      </trkpt>
      <trkpt lat="43.30489" lon="-1.46894">
        <ele>483.5</ele>
        <time>2022-09-04T07:37:43Z</time>
      </trkpt>
      <trkpt lat="43.30486" lon="-1.46891">
        <ele>484</ele>
        <time>2022-09-04T07:37:44Z</time>
      </trkpt>
      <trkpt lat="43.30483" lon="-1.46888">
        <ele>484.4</ele>
        <time>2022-09-04T07:37:45Z</time>
      </trkpt>
      <trkpt lat="43.3048" lon="-1.46885">
        <ele>484.8</ele>
        <time>2022-09-04T07:37:46Z</time>
      </trkpt>
      <trkpt lat="43.30476" lon="-1.46881">
        <ele>485.2</ele>
        <time>2022-09-04T07:37:47Z</time>
      </trkpt>
      <trkpt lat="43.30473" lon="-1.46878">
        <ele>485.6</ele>
        <time>2022-09-04T07:37:48Z</time>
      </trkpt>
      <trkpt lat="43.3047" lon="-1.46875">
        <ele>485.8</ele>
        <time>2022-09-04T07:37:49Z</time>
      </trkpt>
      <trkpt lat="43.30468" lon="-1.46873">
        <ele>486.1</ele>
        <time>2022-09-04T07:37:50Z</time>
      </trkpt>
      <trkpt lat="43.30466" lon="-1.46871">
        <ele>486.3</ele>
        <time>2022-09-04T07:37:51Z</time>
      </trkpt>
      <trkpt lat="43.30463" lon="-1.46868">
        <ele>486.6</ele>
        <time>2022-09-04T07:37:52Z</time>
      </trkpt>
      <trkpt lat="43.3046" lon="-1.46866">
        <ele>486.8</ele>
        <time>2022-09-04T07:37:53Z</time>
      </trkpt>
      <trkpt lat="43.30457" lon="-1.46864">
        <ele>487</ele>
        <time>2022-09-04T07:37:54Z</time>
      </trkpt>
      <trkpt lat="43.30455" lon="-1.46862">
        <ele>487.3</ele>
        <time>2022-09-04T07:37:55Z</time>
      </trkpt>
      <trkpt lat="43.30452" lon="-1.46859">
        <ele>487.5</ele>
        <time>2022-09-04T07:37:56Z</time>
      </trkpt>
      <trkpt lat="43.30449" lon="-1.46857">
        <ele>487.8</ele>
        <time>2022-09-04T07:37:57Z</time>
      </trkpt>
      <trkpt lat="43.30446" lon="-1.46854">
        <ele>488</ele>
        <time>2022-09-04T07:37:58Z</time>
      </trkpt>
      <trkpt lat="43.30443" lon="-1.46852">
        <ele>488.3</ele>
        <time>2022-09-04T07:37:59Z</time>
      </trkpt>
      <trkpt lat="43.30441" lon="-1.46849">
        <ele>488.6</ele>
        <time>2022-09-04T07:38:00Z</time>
      </trkpt>
      <trkpt lat="43.30437" lon="-1.46846">
        <ele>488.9</ele>
        <time>2022-09-04T07:38:01Z</time>
      </trkpt>
      <trkpt lat="43.30435" lon="-1.46843">
        <ele>489.2</ele>
        <time>2022-09-04T07:38:02Z</time>
      </trkpt>
      <trkpt lat="43.30432" lon="-1.4684">
        <ele>489.5</ele>
        <time>2022-09-04T07:38:03Z</time>
      </trkpt>
      <trkpt lat="43.3043" lon="-1.46838">
        <ele>489.7</ele>
        <time>2022-09-04T07:38:04Z</time>
      </trkpt>
      <trkpt lat="43.30428" lon="-1.46836">
        <ele>490</ele>
        <time>2022-09-04T07:38:05Z</time>
      </trkpt>
      <trkpt lat="43.30425" lon="-1.46834">
        <ele>490.3</ele>
        <time>2022-09-04T07:38:06Z</time>
      </trkpt>
      <trkpt lat="43.30423" lon="-1.46832">
        <ele>490.5</ele>
        <time>2022-09-04T07:38:07Z</time>
      </trkpt>
      <trkpt lat="43.3042" lon="-1.4683">
        <ele>490.8</ele>
        <time>2022-09-04T07:38:08Z</time>
      </trkpt>
      <trkpt lat="43.30418" lon="-1.46828">
        <ele>491.1</ele>
        <time>2022-09-04T07:38:09Z</time>
      </trkpt>
      <trkpt lat="43.30414" lon="-1.46826">
        <ele>491.4</ele>
        <time>2022-09-04T07:38:10Z</time>
      </trkpt>
      <trkpt lat="43.30413" lon="-1.46825">
        <ele>491.5</ele>
        <time>2022-09-04T07:38:11Z</time>
      </trkpt>
      <trkpt lat="43.30409" lon="-1.46823">
        <ele>491.9</ele>
        <time>2022-09-04T07:38:12Z</time>
      </trkpt>
      <trkpt lat="43.30408" lon="-1.46822">
        <ele>492</ele>
        <time>2022-09-04T07:38:13Z</time>
      </trkpt>
      <trkpt lat="43.30405" lon="-1.46821">
        <ele>492.2</ele>
        <time>2022-09-04T07:38:14Z</time>
      </trkpt>
      <trkpt lat="43.30403" lon="-1.46818">
        <ele>492.4</ele>
        <time>2022-09-04T07:38:15Z</time>
      </trkpt>
      <trkpt lat="43.304" lon="-1.46816">
        <ele>492.7</ele>
        <time>2022-09-04T07:38:16Z</time>
      </trkpt>
      <trkpt lat="43.30398" lon="-1.46813">
        <ele>492.9</ele>
        <time>2022-09-04T07:38:17Z</time>
      </trkpt>
      <trkpt lat="43.30396" lon="-1.46811">
        <ele>493.1</ele>
        <time>2022-09-04T07:38:18Z</time>
      </trkpt>
      <trkpt lat="43.30393" lon="-1.46809">
        <ele>493.3</ele>
        <time>2022-09-04T07:38:19Z</time>
      </trkpt>
      <trkpt lat="43.3039" lon="-1.46806">
        <ele>493.6</ele>
        <time>2022-09-04T07:38:20Z</time>
      </trkpt>
      <trkpt lat="43.30387" lon="-1.46804">
        <ele>493.8</ele>
        <time>2022-09-04T07:38:21Z</time>
      </trkpt>
      <trkpt lat="43.30385" lon="-1.46801">
        <ele>494.1</ele>
        <time>2022-09-04T07:38:22Z</time>
      </trkpt>
      <trkpt lat="43.30382" lon="-1.46799">
        <ele>494.3</ele>
        <time>2022-09-04T07:38:23Z</time>
      </trkpt>
      <trkpt lat="43.3038" lon="-1.46798">
        <ele>494.5</ele>
        <time>2022-09-04T07:38:24Z</time>
      </trkpt>
      <trkpt lat="43.30377" lon="-1.46798">
        <ele>494.7</ele>
        <time>2022-09-04T07:38:25Z</time>
      </trkpt>
      <trkpt lat="43.30374" lon="-1.46797">
        <ele>494.9</ele>
        <time>2022-09-04T07:38:26Z</time>
      </trkpt>
      <trkpt lat="43.30371" lon="-1.46796">
        <ele>495.1</ele>
        <time>2022-09-04T07:38:27Z</time>
      </trkpt>
      <trkpt lat="43.30368" lon="-1.46796">
        <ele>495.3</ele>
        <time>2022-09-04T07:38:28Z</time>
      </trkpt>
      <trkpt lat="43.30365" lon="-1.46796">
        <ele>495.5</ele>
        <time>2022-09-04T07:38:29Z</time>
      </trkpt>
      <trkpt lat="43.30362" lon="-1.46795">
        <ele>495.8</ele>
        <time>2022-09-04T07:38:30Z</time>
      </trkpt>
      <trkpt lat="43.3036" lon="-1.46794">
        <ele>495.9</ele>
        <time>2022-09-04T07:38:31Z</time>
      </trkpt>
      <trkpt lat="43.30357" lon="-1.46792">
        <ele>496.1</ele>
        <time>2022-09-04T07:38:32Z</time>
      </trkpt>
      <trkpt lat="43.30355" lon="-1.46791">
        <ele>496.4</ele>
        <time>2022-09-04T07:38:33Z</time>
      </trkpt>
      <trkpt lat="43.30352" lon="-1.46788">
        <ele>496.6</ele>
        <time>2022-09-04T07:38:34Z</time>
      </trkpt>
      <trkpt lat="43.3035" lon="-1.46785">
        <ele>496.9</ele>
        <time>2022-09-04T07:38:35Z</time>
      </trkpt>
      <trkpt lat="43.30348" lon="-1.46782">
        <ele>497.1</ele>
        <time>2022-09-04T07:38:36Z</time>
      </trkpt>
      <trkpt lat="43.30346" lon="-1.46778">
        <ele>497.4</ele>
        <time>2022-09-04T07:38:37Z</time>
      </trkpt>
      <trkpt lat="43.30345" lon="-1.46775">
        <ele>497.7</ele>
        <time>2022-09-04T07:38:38Z</time>
      </trkpt>
      <trkpt lat="43.30344" lon="-1.46771">
        <ele>497.9</ele>
        <time>2022-09-04T07:38:39Z</time>
      </trkpt>
      <trkpt lat="43.30343" lon="-1.46767">
        <ele>498.2</ele>
        <time>2022-09-04T07:38:40Z</time>
      </trkpt>
      <trkpt lat="43.30342" lon="-1.46763">
        <ele>498.5</ele>
        <time>2022-09-04T07:38:41Z</time>
      </trkpt>
      <trkpt lat="43.30342" lon="-1.46759">
        <ele>498.7</ele>
        <time>2022-09-04T07:38:42Z</time>
      </trkpt>
      <trkpt lat="43.30341" lon="-1.46755">
        <ele>499</ele>
        <time>2022-09-04T07:38:43Z</time>
      </trkpt>
      <trkpt lat="43.30341" lon="-1.46751">
        <ele>499.2</ele>
        <time>2022-09-04T07:38:44Z</time>
      </trkpt>
      <trkpt lat="43.3034" lon="-1.46747">
        <ele>499.5</ele>
        <time>2022-09-04T07:38:45Z</time>
      </trkpt>
      <trkpt lat="43.3034" lon="-1.46743">
        <ele>499.7</ele>
        <time>2022-09-04T07:38:46Z</time>
      </trkpt>
      <trkpt lat="43.30339" lon="-1.4674">
        <ele>500</ele>
        <time>2022-09-04T07:38:47Z</time>
      </trkpt>
      <trkpt lat="43.30338" lon="-1.46736">
        <ele>500.2</ele>
        <time>2022-09-04T07:38:48Z</time>
      </trkpt>
      <trkpt lat="43.30338" lon="-1.46732">
        <ele>500.4</ele>
        <time>2022-09-04T07:38:49Z</time>
      </trkpt>
      <trkpt lat="43.30337" lon="-1.46728">
        <ele>500.6</ele>
        <time>2022-09-04T07:38:50Z</time>
      </trkpt>
      <trkpt lat="43.30336" lon="-1.46723">
        <ele>500.8</ele>
        <time>2022-09-04T07:38:51Z</time>
      </trkpt>
      <trkpt lat="43.30336" lon="-1.46721">
        <ele>500.9</ele>
        <time>2022-09-04T07:38:52Z</time>
      </trkpt>
      <trkpt lat="43.30335" lon="-1.46716">
        <ele>501.1</ele>
        <time>2022-09-04T07:38:53Z</time>
      </trkpt>
      <trkpt lat="43.30334" lon="-1.46712">
        <ele>501.3</ele>
        <time>2022-09-04T07:38:54Z</time>
      </trkpt>
      <trkpt lat="43.30333" lon="-1.46707">
        <ele>501.5</ele>
        <time>2022-09-04T07:38:55Z</time>
      </trkpt>
      <trkpt lat="43.30332" lon="-1.46703">
        <ele>501.7</ele>
        <time>2022-09-04T07:38:56Z</time>
      </trkpt>
      <trkpt lat="43.3033" lon="-1.46698">
        <ele>501.9</ele>
        <time>2022-09-04T07:38:57Z</time>
      </trkpt>
      <trkpt lat="43.30329" lon="-1.46694">
        <ele>502.1</ele>
        <time>2022-09-04T07:38:58Z</time>
      </trkpt>
      <trkpt lat="43.30327" lon="-1.4669">
        <ele>502.3</ele>
        <time>2022-09-04T07:38:59Z</time>
      </trkpt>
      <trkpt lat="43.30326" lon="-1.46686">
        <ele>502.5</ele>
        <time>2022-09-04T07:39:00Z</time>
      </trkpt>
      <trkpt lat="43.30325" lon="-1.46681">
        <ele>502.7</ele>
        <time>2022-09-04T07:39:01Z</time>
      </trkpt>
      <trkpt lat="43.30325" lon="-1.46676">
        <ele>503</ele>
        <time>2022-09-04T07:39:02Z</time>
      </trkpt>
      <trkpt lat="43.30325" lon="-1.46672">
        <ele>503.2</ele>
        <time>2022-09-04T07:39:03Z</time>
      </trkpt>
      <trkpt lat="43.30325" lon="-1.46667">
        <ele>503.4</ele>
        <time>2022-09-04T07:39:04Z</time>
      </trkpt>
      <trkpt lat="43.30324" lon="-1.46663">
        <ele>503.6</ele>
        <time>2022-09-04T07:39:05Z</time>
      </trkpt>
      <trkpt lat="43.30324" lon="-1.46659">
        <ele>503.9</ele>
        <time>2022-09-04T07:39:06Z</time>
      </trkpt>
      <trkpt lat="43.30323" lon="-1.46655">
        <ele>504.1</ele>
        <time>2022-09-04T07:39:07Z</time>
      </trkpt>
      <trkpt lat="43.30323" lon="-1.4665">
        <ele>504.4</ele>
        <time>2022-09-04T07:39:08Z</time>
      </trkpt>
      <trkpt lat="43.30323" lon="-1.46646">
        <ele>504.6</ele>
        <time>2022-09-04T07:39:09Z</time>
      </trkpt>
      <trkpt lat="43.30323" lon="-1.46641">
        <ele>504.9</ele>
        <time>2022-09-04T07:39:10Z</time>
      </trkpt>
      <trkpt lat="43.30322" lon="-1.46637">
        <ele>505.1</ele>
        <time>2022-09-04T07:39:11Z</time>
      </trkpt>
      <trkpt lat="43.30321" lon="-1.46633">
        <ele>505.4</ele>
        <time>2022-09-04T07:39:12Z</time>
      </trkpt>
      <trkpt lat="43.30319" lon="-1.46626">
        <ele>505.7</ele>
        <time>2022-09-04T07:39:14Z</time>
      </trkpt>
      <trkpt lat="43.30318" lon="-1.46622">
        <ele>505.9</ele>
        <time>2022-09-04T07:39:15Z</time>
      </trkpt>
      <trkpt lat="43.30317" lon="-1.4662">
        <ele>506</ele>
        <time>2022-09-04T07:39:16Z</time>
      </trkpt>
      <trkpt lat="43.30314" lon="-1.46616">
        <ele>506.1</ele>
        <time>2022-09-04T07:39:17Z</time>
      </trkpt>
      <trkpt lat="43.30314" lon="-1.46614">
        <ele>506.2</ele>
        <time>2022-09-04T07:39:18Z</time>
      </trkpt>
      <trkpt lat="43.30312" lon="-1.4661">
        <ele>506.3</ele>
        <time>2022-09-04T07:39:19Z</time>
      </trkpt>
      <trkpt lat="43.30311" lon="-1.46607">
        <ele>506.3</ele>
        <time>2022-09-04T07:39:20Z</time>
      </trkpt>
      <trkpt lat="43.30309" lon="-1.46603">
        <ele>506.3</ele>
        <time>2022-09-04T07:39:21Z</time>
      </trkpt>
      <trkpt lat="43.30307" lon="-1.46599">
        <ele>506.3</ele>
        <time>2022-09-04T07:39:22Z</time>
      </trkpt>
      <trkpt lat="43.30306" lon="-1.46598">
        <ele>506.3</ele>
        <time>2022-09-04T07:39:23Z</time>
      </trkpt>
      <trkpt lat="43.30304" lon="-1.46595">
        <ele>506.3</ele>
        <time>2022-09-04T07:39:24Z</time>
      </trkpt>
      <trkpt lat="43.30301" lon="-1.46592">
        <ele>506.3</ele>
        <time>2022-09-04T07:39:25Z</time>
      </trkpt>
      <trkpt lat="43.30299" lon="-1.4659">
        <ele>506.3</ele>
        <time>2022-09-04T07:39:26Z</time>
      </trkpt>
      <trkpt lat="43.30296" lon="-1.46587">
        <ele>506.4</ele>
        <time>2022-09-04T07:39:27Z</time>
      </trkpt>
      <trkpt lat="43.30294" lon="-1.46584">
        <ele>506.4</ele>
        <time>2022-09-04T07:39:28Z</time>
      </trkpt>
      <trkpt lat="43.30292" lon="-1.46581">
        <ele>506.4</ele>
        <time>2022-09-04T07:39:29Z</time>
      </trkpt>
      <trkpt lat="43.30289" lon="-1.46578">
        <ele>506.4</ele>
        <time>2022-09-04T07:39:30Z</time>
      </trkpt>
      <trkpt lat="43.30288" lon="-1.46577">
        <ele>506.5</ele>
        <time>2022-09-04T07:39:31Z</time>
      </trkpt>
      <trkpt lat="43.30286" lon="-1.46575">
        <ele>506.5</ele>
        <time>2022-09-04T07:39:32Z</time>
      </trkpt>
      <trkpt lat="43.30283" lon="-1.46572">
        <ele>506.6</ele>
        <time>2022-09-04T07:39:33Z</time>
      </trkpt>
      <trkpt lat="43.30282" lon="-1.46571">
        <ele>506.6</ele>
        <time>2022-09-04T07:39:34Z</time>
      </trkpt>
      <trkpt lat="43.30279" lon="-1.46568">
        <ele>506.7</ele>
        <time>2022-09-04T07:39:35Z</time>
      </trkpt>
      <trkpt lat="43.30278" lon="-1.46567">
        <ele>506.7</ele>
        <time>2022-09-04T07:39:36Z</time>
      </trkpt>
      <trkpt lat="43.30275" lon="-1.46566">
        <ele>506.8</ele>
        <time>2022-09-04T07:39:37Z</time>
      </trkpt>
      <trkpt lat="43.30274" lon="-1.46565">
        <ele>506.8</ele>
        <time>2022-09-04T07:39:38Z</time>
      </trkpt>
      <trkpt lat="43.30271" lon="-1.46564">
        <ele>506.8</ele>
        <time>2022-09-04T07:39:39Z</time>
      </trkpt>
      <trkpt lat="43.30271" lon="-1.46563">
        <ele>506.8</ele>
        <time>2022-09-04T07:39:40Z</time>
      </trkpt>
      <trkpt lat="43.30268" lon="-1.46561">
        <ele>506.9</ele>
        <time>2022-09-04T07:39:41Z</time>
      </trkpt>
      <trkpt lat="43.30267" lon="-1.4656">
        <ele>506.9</ele>
        <time>2022-09-04T07:39:42Z</time>
      </trkpt>
      <trkpt lat="43.30264" lon="-1.46557">
        <ele>507</ele>
        <time>2022-09-04T07:39:43Z</time>
      </trkpt>
      <trkpt lat="43.30263" lon="-1.46556">
        <ele>507</ele>
        <time>2022-09-04T07:39:44Z</time>
      </trkpt>
      <trkpt lat="43.30261" lon="-1.46553">
        <ele>507.1</ele>
        <time>2022-09-04T07:39:45Z</time>
      </trkpt>
      <trkpt lat="43.30257" lon="-1.46551">
        <ele>507.1</ele>
        <time>2022-09-04T07:39:46Z</time>
      </trkpt>
      <trkpt lat="43.30257" lon="-1.46551">
        <ele>507.2</ele>
        <time>2022-09-04T07:39:47Z</time>
      </trkpt>
      <trkpt lat="43.30256" lon="-1.4655">
        <ele>507.2</ele>
        <time>2022-09-04T07:39:48Z</time>
      </trkpt>
      <trkpt lat="43.30256" lon="-1.4655">
        <ele>507.2</ele>
        <time>2022-09-04T07:39:49Z</time>
      </trkpt>
      <trkpt lat="43.30256" lon="-1.4655">
        <ele>507.2</ele>
        <time>2022-09-04T07:39:50Z</time>
      </trkpt>
      <trkpt lat="43.30256" lon="-1.4655">
        <ele>507.2</ele>
        <time>2022-09-04T07:39:51Z</time>
      </trkpt>
      <trkpt lat="43.30256" lon="-1.4655">
        <ele>507.2</ele>
        <time>2022-09-04T07:39:52Z</time>
      </trkpt>
      <trkpt lat="43.30256" lon="-1.4655">
        <ele>507.2</ele>
        <time>2022-09-04T07:39:53Z</time>
      </trkpt>
      <trkpt lat="43.30256" lon="-1.4655">
        <ele>507.2</ele>
        <time>2022-09-04T07:39:54Z</time>
      </trkpt>
      <trkpt lat="43.30256" lon="-1.4655">
        <ele>507.2</ele>
        <time>2022-09-04T07:39:55Z</time>
      </trkpt>
      <trkpt lat="43.30256" lon="-1.4655">
        <ele>507.2</ele>
        <time>2022-09-04T07:39:56Z</time>
      </trkpt>
      <trkpt lat="43.30256" lon="-1.4655">
        <ele>507.2</ele>
        <time>2022-09-04T07:39:57Z</time>
      </trkpt>
      <trkpt lat="43.30256" lon="-1.46549">
        <ele>507.2</ele>
        <time>2022-09-04T07:39:58Z</time>
      </trkpt>
      <trkpt lat="43.30257" lon="-1.46549">
        <ele>507.2</ele>
        <time>2022-09-04T07:39:59Z</time>
      </trkpt>
      <trkpt lat="43.30254" lon="-1.4655">
        <ele>507.3</ele>
        <time>2022-09-04T07:40:11Z</time>
      </trkpt>
      <trkpt lat="43.30253" lon="-1.4655">
        <ele>507.3</ele>
        <time>2022-09-04T07:40:12Z</time>
      </trkpt>
      <trkpt lat="43.30253" lon="-1.46549">
        <ele>507.3</ele>
        <time>2022-09-04T07:40:13Z</time>
      </trkpt>
      <trkpt lat="43.30252" lon="-1.46549">
        <ele>507.4</ele>
        <time>2022-09-04T07:40:14Z</time>
      </trkpt>
      <trkpt lat="43.30252" lon="-1.4655">
        <ele>507.4</ele>
        <time>2022-09-04T07:40:15Z</time>
      </trkpt>
      <trkpt lat="43.30252" lon="-1.4655">
        <ele>507.4</ele>
        <time>2022-09-04T07:40:16Z</time>
      </trkpt>
      <trkpt lat="43.30252" lon="-1.4655">
        <ele>507.4</ele>
        <time>2022-09-04T07:40:17Z</time>
      </trkpt>
      <trkpt lat="43.30252" lon="-1.4655">
        <ele>507.4</ele>
        <time>2022-09-04T07:40:18Z</time>
      </trkpt>
      <trkpt lat="43.30252" lon="-1.4655">
        <ele>507.4</ele>
        <time>2022-09-04T07:40:19Z</time>
      </trkpt>
      <trkpt lat="43.30252" lon="-1.4655">
        <ele>507.4</ele>
        <time>2022-09-04T07:40:20Z</time>
      </trkpt>
      <trkpt lat="43.30252" lon="-1.4655">
        <ele>507.4</ele>
        <time>2022-09-04T07:40:21Z</time>
      </trkpt>
      <trkpt lat="43.30252" lon="-1.4655">
        <ele>507.4</ele>
        <time>2022-09-04T07:40:22Z</time>
      </trkpt>
      <trkpt lat="43.30252" lon="-1.4655">
        <ele>507.4</ele>
        <time>2022-09-04T07:40:23Z</time>
      </trkpt>
      <trkpt lat="43.30252" lon="-1.4655">
        <ele>507.4</ele>
        <time>2022-09-04T07:40:24Z</time>
      </trkpt>
      <trkpt lat="43.30252" lon="-1.4655">
        <ele>507.4</ele>
        <time>2022-09-04T07:40:25Z</time>
      </trkpt>
      <trkpt lat="43.3025" lon="-1.46548">
        <ele>507.4</ele>
        <time>2022-09-04T07:42:09Z</time>
      </trkpt>
      <trkpt lat="43.3025" lon="-1.46548">
        <ele>507.4</ele>
        <time>2022-09-04T07:42:10Z</time>
      </trkpt>
      <trkpt lat="43.3025" lon="-1.46547">
        <ele>507.4</ele>
        <time>2022-09-04T07:42:11Z</time>
      </trkpt>
      <trkpt lat="43.30249" lon="-1.46545">
        <ele>507.5</ele>
        <time>2022-09-04T07:42:12Z</time>
      </trkpt>
      <trkpt lat="43.30249" lon="-1.46543">
        <ele>507.5</ele>
        <time>2022-09-04T07:42:13Z</time>
      </trkpt>
      <trkpt lat="43.30249" lon="-1.46542">
        <ele>507.5</ele>
        <time>2022-09-04T07:42:14Z</time>
      </trkpt>
      <trkpt lat="43.30249" lon="-1.46541">
        <ele>507.5</ele>
        <time>2022-09-04T07:42:15Z</time>
      </trkpt>
      <trkpt lat="43.30249" lon="-1.46541">
        <ele>507.5</ele>
        <time>2022-09-04T07:42:16Z</time>
      </trkpt>
      <trkpt lat="43.30249" lon="-1.46541">
        <ele>507.6</ele>
        <time>2022-09-04T07:42:17Z</time>
      </trkpt>
      <trkpt lat="43.30249" lon="-1.46539">
        <ele>507.6</ele>
        <time>2022-09-04T07:42:18Z</time>
      </trkpt>
      <trkpt lat="43.30249" lon="-1.46538">
        <ele>507.5</ele>
        <time>2022-09-04T07:42:19Z</time>
      </trkpt>
      <trkpt lat="43.30249" lon="-1.46537">
        <ele>507.5</ele>
        <time>2022-09-04T07:42:20Z</time>
      </trkpt>
      <trkpt lat="43.30249" lon="-1.46537">
        <ele>507.5</ele>
        <time>2022-09-04T07:42:21Z</time>
      </trkpt>
      <trkpt lat="43.30249" lon="-1.46537">
        <ele>507.5</ele>
        <time>2022-09-04T07:42:22Z</time>
      </trkpt>
      <trkpt lat="43.30249" lon="-1.46537">
        <ele>507.5</ele>
        <time>2022-09-04T07:42:23Z</time>
      </trkpt>
      <trkpt lat="43.30249" lon="-1.46537">
        <ele>507.5</ele>
        <time>2022-09-04T07:42:24Z</time>
      </trkpt>
      <trkpt lat="43.30249" lon="-1.46537">
        <ele>507.5</ele>
        <time>2022-09-04T07:42:25Z</time>
      </trkpt>
      <trkpt lat="43.30249" lon="-1.46537">
        <ele>507.5</ele>
        <time>2022-09-04T07:42:26Z</time>
      </trkpt>
      <trkpt lat="43.30249" lon="-1.46537">
        <ele>507.5</ele>
        <time>2022-09-04T07:42:27Z</time>
      </trkpt>
      <trkpt lat="43.30249" lon="-1.46537">
        <ele>507.5</ele>
        <time>2022-09-04T07:42:28Z</time>
      </trkpt>
      <trkpt lat="43.30249" lon="-1.46537">
        <ele>507.5</ele>
        <time>2022-09-04T07:42:29Z</time>
      </trkpt>
      <trkpt lat="43.30257" lon="-1.46551">
        <ele>507.3</ele>
        <time>2022-09-04T07:44:18Z</time>
      </trkpt>
      <trkpt lat="43.30258" lon="-1.46551">
        <ele>507.3</ele>
        <time>2022-09-04T07:44:19Z</time>
      </trkpt>
      <trkpt lat="43.30259" lon="-1.46551">
        <ele>507.3</ele>
        <time>2022-09-04T07:44:20Z</time>
      </trkpt>
      <trkpt lat="43.3026" lon="-1.46551">
        <ele>507.3</ele>
        <time>2022-09-04T07:44:21Z</time>
      </trkpt>
      <trkpt lat="43.3026" lon="-1.46551">
        <ele>507.3</ele>
        <time>2022-09-04T07:44:22Z</time>
      </trkpt>
      <trkpt lat="43.3026" lon="-1.46551">
        <ele>507.3</ele>
        <time>2022-09-04T07:44:23Z</time>
      </trkpt>
      <trkpt lat="43.3026" lon="-1.46551">
        <ele>507.3</ele>
        <time>2022-09-04T07:44:24Z</time>
      </trkpt>
      <trkpt lat="43.3026" lon="-1.46551">
        <ele>507.3</ele>
        <time>2022-09-04T07:44:25Z</time>
      </trkpt>
      <trkpt lat="43.30259" lon="-1.46551">
        <ele>507.3</ele>
        <time>2022-09-04T07:44:26Z</time>
      </trkpt>
      <trkpt lat="43.30258" lon="-1.46551">
        <ele>507.2</ele>
        <time>2022-09-04T07:44:27Z</time>
      </trkpt>
      <trkpt lat="43.30258" lon="-1.46551">
        <ele>507.2</ele>
        <time>2022-09-04T07:44:28Z</time>
      </trkpt>
      <trkpt lat="43.30257" lon="-1.4655">
        <ele>507.2</ele>
        <time>2022-09-04T07:44:29Z</time>
      </trkpt>
      <trkpt lat="43.30256" lon="-1.4655">
        <ele>507.2</ele>
        <time>2022-09-04T07:44:30Z</time>
      </trkpt>
      <trkpt lat="43.30256" lon="-1.46551">
        <ele>507.2</ele>
        <time>2022-09-04T07:44:31Z</time>
      </trkpt>
      <trkpt lat="43.30257" lon="-1.46551">
        <ele>507.2</ele>
        <time>2022-09-04T07:44:32Z</time>
      </trkpt>
      <trkpt lat="43.30257" lon="-1.46551">
        <ele>507.2</ele>
        <time>2022-09-04T07:44:33Z</time>
      </trkpt>
      <trkpt lat="43.30257" lon="-1.46552">
        <ele>507.2</ele>
        <time>2022-09-04T07:44:34Z</time>
      </trkpt>
      <trkpt lat="43.30256" lon="-1.46553">
        <ele>507.2</ele>
        <time>2022-09-04T07:44:35Z</time>
      </trkpt>
      <trkpt lat="43.30256" lon="-1.46553">
        <ele>507.2</ele>
        <time>2022-09-04T07:44:36Z</time>
      </trkpt>
      <trkpt lat="43.30256" lon="-1.46553">
        <ele>507.2</ele>
        <time>2022-09-04T07:44:37Z</time>
      </trkpt>
      <trkpt lat="43.30256" lon="-1.46553">
        <ele>507.2</ele>
        <time>2022-09-04T07:44:38Z</time>
      </trkpt>
      <trkpt lat="43.30256" lon="-1.46555">
        <ele>507.1</ele>
        <time>2022-09-04T07:44:39Z</time>
      </trkpt>
      <trkpt lat="43.30256" lon="-1.46556">
        <ele>507.1</ele>
        <time>2022-09-04T07:44:40Z</time>
      </trkpt>
      <trkpt lat="43.30256" lon="-1.46557">
        <ele>507.1</ele>
        <time>2022-09-04T07:44:41Z</time>
      </trkpt>
      <trkpt lat="43.30256" lon="-1.46558">
        <ele>507.1</ele>
        <time>2022-09-04T07:44:42Z</time>
      </trkpt>
      <trkpt lat="43.30256" lon="-1.46559">
        <ele>507.1</ele>
        <time>2022-09-04T07:44:43Z</time>
      </trkpt>
      <trkpt lat="43.30256" lon="-1.4656">
        <ele>507.1</ele>
        <time>2022-09-04T07:44:44Z</time>
      </trkpt>
      <trkpt lat="43.30256" lon="-1.46561">
        <ele>507.1</ele>
        <time>2022-09-04T07:44:45Z</time>
      </trkpt>
      <trkpt lat="43.30256" lon="-1.46562">
        <ele>507.1</ele>
        <time>2022-09-04T07:44:46Z</time>
      </trkpt>
      <trkpt lat="43.30256" lon="-1.46563">
        <ele>507.1</ele>
        <time>2022-09-04T07:45:00Z</time>
      </trkpt>
      <trkpt lat="43.30256" lon="-1.46564">
        <ele>507.1</ele>
        <time>2022-09-04T07:45:01Z</time>
      </trkpt>
      <trkpt lat="43.30256" lon="-1.46565">
        <ele>506.3</ele>
        <time>2022-09-04T07:45:02Z</time>
      </trkpt>
      <trkpt lat="43.30256" lon="-1.46569">
        <ele>505.7</ele>
        <time>2022-09-04T07:45:03Z</time>
      </trkpt>
      <trkpt lat="43.30255" lon="-1.46573">
        <ele>505.3</ele>
        <time>2022-09-04T07:45:04Z</time>
      </trkpt>
      <trkpt lat="43.30253" lon="-1.46577">
        <ele>504.7</ele>
        <time>2022-09-04T07:45:05Z</time>
      </trkpt>
      <trkpt lat="43.30252" lon="-1.46579">
        <ele>504.2</ele>
        <time>2022-09-04T07:45:06Z</time>
      </trkpt>
      <trkpt lat="43.30249" lon="-1.46581">
        <ele>503.8</ele>
        <time>2022-09-04T07:45:07Z</time>
      </trkpt>
      <trkpt lat="43.30248" lon="-1.46582">
        <ele>503.4</ele>
        <time>2022-09-04T07:45:08Z</time>
      </trkpt>
      <trkpt lat="43.30245" lon="-1.46582">
        <ele>503.1</ele>
        <time>2022-09-04T07:45:09Z</time>
      </trkpt>
      <trkpt lat="43.30242" lon="-1.4658">
        <ele>502.7</ele>
        <time>2022-09-04T07:45:10Z</time>
      </trkpt>
      <trkpt lat="43.3024" lon="-1.46578">
        <ele>502.2</ele>
        <time>2022-09-04T07:45:11Z</time>
      </trkpt>
      <trkpt lat="43.30237" lon="-1.46577">
        <ele>501.8</ele>
        <time>2022-09-04T07:45:12Z</time>
      </trkpt>
      <trkpt lat="43.30233" lon="-1.46576">
        <ele>501.2</ele>
        <time>2022-09-04T07:45:13Z</time>
      </trkpt>
      <trkpt lat="43.30229" lon="-1.46575">
        <ele>500.5</ele>
        <time>2022-09-04T07:45:14Z</time>
      </trkpt>
      <trkpt lat="43.30226" lon="-1.46575">
        <ele>499.2</ele>
        <time>2022-09-04T07:45:15Z</time>
      </trkpt>
      <trkpt lat="43.30222" lon="-1.46574">
        <ele>498</ele>
        <time>2022-09-04T07:45:16Z</time>
      </trkpt>
      <trkpt lat="43.30218" lon="-1.46574">
        <ele>496.8</ele>
        <time>2022-09-04T07:45:17Z</time>
      </trkpt>
      <trkpt lat="43.30213" lon="-1.46572">
        <ele>495</ele>
        <time>2022-09-04T07:45:18Z</time>
      </trkpt>
      <trkpt lat="43.30209" lon="-1.46571">
        <ele>493.8</ele>
        <time>2022-09-04T07:45:19Z</time>
      </trkpt>
      <trkpt lat="43.30206" lon="-1.46569">
        <ele>493.5</ele>
        <time>2022-09-04T07:45:20Z</time>
      </trkpt>
      <trkpt lat="43.30203" lon="-1.46567">
        <ele>493.1</ele>
        <time>2022-09-04T07:45:21Z</time>
      </trkpt>
      <trkpt lat="43.302" lon="-1.46564">
        <ele>492.8</ele>
        <time>2022-09-04T07:45:22Z</time>
      </trkpt>
      <trkpt lat="43.30198" lon="-1.46561">
        <ele>492.4</ele>
        <time>2022-09-04T07:45:23Z</time>
      </trkpt>
      <trkpt lat="43.30195" lon="-1.46559">
        <ele>492</ele>
        <time>2022-09-04T07:45:24Z</time>
      </trkpt>
      <trkpt lat="43.30192" lon="-1.46557">
        <ele>491.6</ele>
        <time>2022-09-04T07:45:25Z</time>
      </trkpt>
      <trkpt lat="43.30189" lon="-1.46555">
        <ele>491.3</ele>
        <time>2022-09-04T07:45:26Z</time>
      </trkpt>
      <trkpt lat="43.30186" lon="-1.46552">
        <ele>490.9</ele>
        <time>2022-09-04T07:45:27Z</time>
      </trkpt>
      <trkpt lat="43.30184" lon="-1.46549">
        <ele>490.6</ele>
        <time>2022-09-04T07:45:28Z</time>
      </trkpt>
      <trkpt lat="43.30181" lon="-1.46546">
        <ele>490.3</ele>
        <time>2022-09-04T07:45:29Z</time>
      </trkpt>
      <trkpt lat="43.30178" lon="-1.46542">
        <ele>489.9</ele>
        <time>2022-09-04T07:45:30Z</time>
      </trkpt>
      <trkpt lat="43.30177" lon="-1.46541">
        <ele>489.7</ele>
        <time>2022-09-04T07:45:31Z</time>
      </trkpt>
      <trkpt lat="43.30175" lon="-1.46538">
        <ele>489.2</ele>
        <time>2022-09-04T07:45:32Z</time>
      </trkpt>
      <trkpt lat="43.30174" lon="-1.46537">
        <ele>489.1</ele>
        <time>2022-09-04T07:45:33Z</time>
      </trkpt>
      <trkpt lat="43.30172" lon="-1.46535">
        <ele>488.7</ele>
        <time>2022-09-04T07:45:34Z</time>
      </trkpt>
      <trkpt lat="43.30171" lon="-1.46535">
        <ele>488.6</ele>
        <time>2022-09-04T07:45:35Z</time>
      </trkpt>
      <trkpt lat="43.30171" lon="-1.46534">
        <ele>488.4</ele>
        <time>2022-09-04T07:45:36Z</time>
      </trkpt>
      <trkpt lat="43.3017" lon="-1.46533">
        <ele>488.2</ele>
        <time>2022-09-04T07:45:37Z</time>
      </trkpt>
      <trkpt lat="43.30169" lon="-1.46533">
        <ele>488.1</ele>
        <time>2022-09-04T07:45:38Z</time>
      </trkpt>
      <trkpt lat="43.30169" lon="-1.46533">
        <ele>488.1</ele>
        <time>2022-09-04T07:45:39Z</time>
      </trkpt>
      <trkpt lat="43.30169" lon="-1.46533">
        <ele>488</ele>
        <time>2022-09-04T07:45:40Z</time>
      </trkpt>
      <trkpt lat="43.30168" lon="-1.46533">
        <ele>487.8</ele>
        <time>2022-09-04T07:45:41Z</time>
      </trkpt>
      <trkpt lat="43.30166" lon="-1.46532">
        <ele>487.4</ele>
        <time>2022-09-04T07:45:42Z</time>
      </trkpt>
      <trkpt lat="43.30165" lon="-1.46532">
        <ele>487.2</ele>
        <time>2022-09-04T07:45:43Z</time>
      </trkpt>
      <trkpt lat="43.30164" lon="-1.46531">
        <ele>487.1</ele>
        <time>2022-09-04T07:45:44Z</time>
      </trkpt>
      <trkpt lat="43.30162" lon="-1.46529">
        <ele>486.6</ele>
        <time>2022-09-04T07:45:45Z</time>
      </trkpt>
      <trkpt lat="43.30162" lon="-1.46528">
        <ele>486.4</ele>
        <time>2022-09-04T07:45:46Z</time>
      </trkpt>
      <trkpt lat="43.30161" lon="-1.46527">
        <ele>486.2</ele>
        <time>2022-09-04T07:45:47Z</time>
      </trkpt>
      <trkpt lat="43.3016" lon="-1.46524">
        <ele>485.7</ele>
        <time>2022-09-04T07:45:48Z</time>
      </trkpt>
      <trkpt lat="43.30159" lon="-1.46524">
        <ele>485.6</ele>
        <time>2022-09-04T07:45:49Z</time>
      </trkpt>
      <trkpt lat="43.30159" lon="-1.46523">
        <ele>485.4</ele>
        <time>2022-09-04T07:45:50Z</time>
      </trkpt>
      <trkpt lat="43.30158" lon="-1.46522">
        <ele>485.2</ele>
        <time>2022-09-04T07:45:51Z</time>
      </trkpt>
      <trkpt lat="43.30157" lon="-1.4652">
        <ele>484.9</ele>
        <time>2022-09-04T07:45:52Z</time>
      </trkpt>
      <trkpt lat="43.30157" lon="-1.46519">
        <ele>484.6</ele>
        <time>2022-09-04T07:45:53Z</time>
      </trkpt>
      <trkpt lat="43.30156" lon="-1.46518">
        <ele>484.3</ele>
        <time>2022-09-04T07:45:54Z</time>
      </trkpt>
      <trkpt lat="43.30156" lon="-1.46517">
        <ele>484.1</ele>
        <time>2022-09-04T07:45:55Z</time>
      </trkpt>
      <trkpt lat="43.30155" lon="-1.46515">
        <ele>483.8</ele>
        <time>2022-09-04T07:45:56Z</time>
      </trkpt>
      <trkpt lat="43.30153" lon="-1.46512">
        <ele>483.1</ele>
        <time>2022-09-04T07:45:57Z</time>
      </trkpt>
      <trkpt lat="43.30153" lon="-1.46511">
        <ele>482.9</ele>
        <time>2022-09-04T07:45:58Z</time>
      </trkpt>
      <trkpt lat="43.30151" lon="-1.46508">
        <ele>482.2</ele>
        <time>2022-09-04T07:45:59Z</time>
      </trkpt>
      <trkpt lat="43.3015" lon="-1.46507">
        <ele>482</ele>
        <time>2022-09-04T07:46:00Z</time>
      </trkpt>
      <trkpt lat="43.30148" lon="-1.46503">
        <ele>481.1</ele>
        <time>2022-09-04T07:46:01Z</time>
      </trkpt>
      <trkpt lat="43.30147" lon="-1.46502">
        <ele>480.9</ele>
        <time>2022-09-04T07:46:02Z</time>
      </trkpt>
      <trkpt lat="43.30146" lon="-1.46499">
        <ele>480.3</ele>
        <time>2022-09-04T07:46:03Z</time>
      </trkpt>
      <trkpt lat="43.30144" lon="-1.46495">
        <ele>479.8</ele>
        <time>2022-09-04T07:46:04Z</time>
      </trkpt>
      <trkpt lat="43.30142" lon="-1.46492">
        <ele>479.4</ele>
        <time>2022-09-04T07:46:05Z</time>
      </trkpt>
      <trkpt lat="43.30141" lon="-1.46489">
        <ele>478.9</ele>
        <time>2022-09-04T07:46:06Z</time>
      </trkpt>
      <trkpt lat="43.30139" lon="-1.46485">
        <ele>478.6</ele>
        <time>2022-09-04T07:46:07Z</time>
      </trkpt>
      <trkpt lat="43.30138" lon="-1.46481">
        <ele>478.2</ele>
        <time>2022-09-04T07:46:08Z</time>
      </trkpt>
      <trkpt lat="43.30137" lon="-1.4648">
        <ele>478</ele>
        <time>2022-09-04T07:46:09Z</time>
      </trkpt>
      <trkpt lat="43.30135" lon="-1.46477">
        <ele>477.7</ele>
        <time>2022-09-04T07:46:10Z</time>
      </trkpt>
      <trkpt lat="43.30134" lon="-1.46476">
        <ele>477.6</ele>
        <time>2022-09-04T07:46:11Z</time>
      </trkpt>
      <trkpt lat="43.30133" lon="-1.46473">
        <ele>477.3</ele>
        <time>2022-09-04T07:46:12Z</time>
      </trkpt>
      <trkpt lat="43.30132" lon="-1.46471">
        <ele>477.2</ele>
        <time>2022-09-04T07:46:13Z</time>
      </trkpt>
      <trkpt lat="43.30129" lon="-1.46469">
        <ele>476.9</ele>
        <time>2022-09-04T07:46:14Z</time>
      </trkpt>
      <trkpt lat="43.30128" lon="-1.46468">
        <ele>476.8</ele>
        <time>2022-09-04T07:46:15Z</time>
      </trkpt>
      <trkpt lat="43.30125" lon="-1.46464">
        <ele>476.4</ele>
        <time>2022-09-04T07:46:16Z</time>
      </trkpt>
      <trkpt lat="43.30124" lon="-1.46463">
        <ele>476.2</ele>
        <time>2022-09-04T07:46:17Z</time>
      </trkpt>
      <trkpt lat="43.30121" lon="-1.46461">
        <ele>476</ele>
        <time>2022-09-04T07:46:18Z</time>
      </trkpt>
      <trkpt lat="43.30118" lon="-1.46459">
        <ele>475.7</ele>
        <time>2022-09-04T07:46:19Z</time>
      </trkpt>
      <trkpt lat="43.30117" lon="-1.46458">
        <ele>475.6</ele>
        <time>2022-09-04T07:46:20Z</time>
      </trkpt>
      <trkpt lat="43.30115" lon="-1.46457">
        <ele>475.4</ele>
        <time>2022-09-04T07:46:21Z</time>
      </trkpt>
      <trkpt lat="43.30114" lon="-1.46456">
        <ele>475.3</ele>
        <time>2022-09-04T07:46:22Z</time>
      </trkpt>
      <trkpt lat="43.30111" lon="-1.46457">
        <ele>475</ele>
        <time>2022-09-04T07:46:23Z</time>
      </trkpt>
      <trkpt lat="43.3011" lon="-1.46457">
        <ele>474.9</ele>
        <time>2022-09-04T07:46:24Z</time>
      </trkpt>
      <trkpt lat="43.30106" lon="-1.46457">
        <ele>474.6</ele>
        <time>2022-09-04T07:46:26Z</time>
      </trkpt>
      <trkpt lat="43.30104" lon="-1.46456">
        <ele>474.5</ele>
        <time>2022-09-04T07:46:27Z</time>
      </trkpt>
      <trkpt lat="43.30103" lon="-1.46456">
        <ele>474.3</ele>
        <time>2022-09-04T07:46:28Z</time>
      </trkpt>
      <trkpt lat="43.301" lon="-1.46455">
        <ele>474</ele>
        <time>2022-09-04T07:46:29Z</time>
      </trkpt>
      <trkpt lat="43.30098" lon="-1.46454">
        <ele>473.9</ele>
        <time>2022-09-04T07:46:30Z</time>
      </trkpt>
      <trkpt lat="43.30095" lon="-1.46453">
        <ele>473.6</ele>
        <time>2022-09-04T07:46:31Z</time>
      </trkpt>
      <trkpt lat="43.30093" lon="-1.46453">
        <ele>473.5</ele>
        <time>2022-09-04T07:46:32Z</time>
      </trkpt>
      <trkpt lat="43.30091" lon="-1.46452">
        <ele>473.3</ele>
        <time>2022-09-04T07:46:33Z</time>
      </trkpt>
      <trkpt lat="43.30085" lon="-1.46449">
        <ele>472.8</ele>
        <time>2022-09-04T07:46:35Z</time>
      </trkpt>
      <trkpt lat="43.30083" lon="-1.46447">
        <ele>472.5</ele>
        <time>2022-09-04T07:46:36Z</time>
      </trkpt>
      <trkpt lat="43.3008" lon="-1.46445">
        <ele>472.2</ele>
        <time>2022-09-04T07:46:37Z</time>
      </trkpt>
      <trkpt lat="43.30078" lon="-1.46443">
        <ele>472</ele>
        <time>2022-09-04T07:46:38Z</time>
      </trkpt>
      <trkpt lat="43.30075" lon="-1.46441">
        <ele>471.7</ele>
        <time>2022-09-04T07:46:39Z</time>
      </trkpt>
      <trkpt lat="43.30072" lon="-1.46439">
        <ele>471.4</ele>
        <time>2022-09-04T07:46:40Z</time>
      </trkpt>
      <trkpt lat="43.30069" lon="-1.46437">
        <ele>471.1</ele>
        <time>2022-09-04T07:46:41Z</time>
      </trkpt>
      <trkpt lat="43.30066" lon="-1.46436">
        <ele>470.9</ele>
        <time>2022-09-04T07:46:42Z</time>
      </trkpt>
      <trkpt lat="43.30063" lon="-1.46434">
        <ele>470.6</ele>
        <time>2022-09-04T07:46:43Z</time>
      </trkpt>
      <trkpt lat="43.30061" lon="-1.46432">
        <ele>470.3</ele>
        <time>2022-09-04T07:46:44Z</time>
      </trkpt>
      <trkpt lat="43.30058" lon="-1.4643">
        <ele>470.1</ele>
        <time>2022-09-04T07:46:45Z</time>
      </trkpt>
      <trkpt lat="43.30055" lon="-1.46428">
        <ele>469.7</ele>
        <time>2022-09-04T07:46:46Z</time>
      </trkpt>
      <trkpt lat="43.30054" lon="-1.46427">
        <ele>469.6</ele>
        <time>2022-09-04T07:46:47Z</time>
      </trkpt>
      <trkpt lat="43.30054" lon="-1.46426">
        <ele>469.5</ele>
        <time>2022-09-04T07:46:48Z</time>
      </trkpt>
      <trkpt lat="43.30053" lon="-1.46425">
        <ele>469.4</ele>
        <time>2022-09-04T07:46:49Z</time>
      </trkpt>
      <trkpt lat="43.30053" lon="-1.46424">
        <ele>469.3</ele>
        <time>2022-09-04T07:46:50Z</time>
      </trkpt>
      <trkpt lat="43.30052" lon="-1.46424">
        <ele>469.2</ele>
        <time>2022-09-04T07:46:51Z</time>
      </trkpt>
      <trkpt lat="43.30051" lon="-1.46423">
        <ele>469</ele>
        <time>2022-09-04T07:46:52Z</time>
      </trkpt>
      <trkpt lat="43.3005" lon="-1.46422">
        <ele>468.9</ele>
        <time>2022-09-04T07:46:53Z</time>
      </trkpt>
      <trkpt lat="43.30048" lon="-1.46421">
        <ele>468.6</ele>
        <time>2022-09-04T07:46:54Z</time>
      </trkpt>
      <trkpt lat="43.30047" lon="-1.4642">
        <ele>468.5</ele>
        <time>2022-09-04T07:46:55Z</time>
      </trkpt>
      <trkpt lat="43.30046" lon="-1.46419">
        <ele>468.4</ele>
        <time>2022-09-04T07:46:56Z</time>
      </trkpt>
      <trkpt lat="43.30043" lon="-1.46417">
        <ele>468</ele>
        <time>2022-09-04T07:46:57Z</time>
      </trkpt>
      <trkpt lat="43.30042" lon="-1.46417">
        <ele>467.9</ele>
        <time>2022-09-04T07:46:58Z</time>
      </trkpt>
      <trkpt lat="43.30039" lon="-1.46415">
        <ele>467.4</ele>
        <time>2022-09-04T07:46:59Z</time>
      </trkpt>
      <trkpt lat="43.30038" lon="-1.46414">
        <ele>467.3</ele>
        <time>2022-09-04T07:47:00Z</time>
      </trkpt>
      <trkpt lat="43.30035" lon="-1.46413">
        <ele>466.9</ele>
        <time>2022-09-04T07:47:01Z</time>
      </trkpt>
      <trkpt lat="43.30034" lon="-1.46413">
        <ele>466.8</ele>
        <time>2022-09-04T07:47:02Z</time>
      </trkpt>
      <trkpt lat="43.30033" lon="-1.46412">
        <ele>466.6</ele>
        <time>2022-09-04T07:47:03Z</time>
      </trkpt>
      <trkpt lat="43.30033" lon="-1.46412">
        <ele>466.6</ele>
        <time>2022-09-04T07:47:04Z</time>
      </trkpt>
      <trkpt lat="43.30033" lon="-1.46412">
        <ele>466.6</ele>
        <time>2022-09-04T07:47:05Z</time>
      </trkpt>
      <trkpt lat="43.30033" lon="-1.46412">
        <ele>466.6</ele>
        <time>2022-09-04T07:47:06Z</time>
      </trkpt>
      <trkpt lat="43.30033" lon="-1.46412">
        <ele>466.6</ele>
        <time>2022-09-04T07:47:07Z</time>
      </trkpt>
      <trkpt lat="43.30032" lon="-1.4641">
        <ele>466.4</ele>
        <time>2022-09-04T07:47:08Z</time>
      </trkpt>
      <trkpt lat="43.30031" lon="-1.46409">
        <ele>466.2</ele>
        <time>2022-09-04T07:47:09Z</time>
      </trkpt>
      <trkpt lat="43.30031" lon="-1.46409">
        <ele>466.1</ele>
        <time>2022-09-04T07:47:10Z</time>
      </trkpt>
      <trkpt lat="43.3003" lon="-1.46409">
        <ele>466.1</ele>
        <time>2022-09-04T07:47:11Z</time>
      </trkpt>
      <trkpt lat="43.3003" lon="-1.46409">
        <ele>466.1</ele>
        <time>2022-09-04T07:47:12Z</time>
      </trkpt>
      <trkpt lat="43.3003" lon="-1.46409">
        <ele>466</ele>
        <time>2022-09-04T07:47:13Z</time>
      </trkpt>
      <trkpt lat="43.3003" lon="-1.46408">
        <ele>466</ele>
        <time>2022-09-04T07:47:14Z</time>
      </trkpt>
      <trkpt lat="43.30029" lon="-1.46408">
        <ele>466</ele>
        <time>2022-09-04T07:47:15Z</time>
      </trkpt>
      <trkpt lat="43.30029" lon="-1.46408">
        <ele>465.9</ele>
        <time>2022-09-04T07:47:16Z</time>
      </trkpt>
      <trkpt lat="43.30029" lon="-1.46408">
        <ele>465.9</ele>
        <time>2022-09-04T07:47:17Z</time>
      </trkpt>
      <trkpt lat="43.30028" lon="-1.46408">
        <ele>465.7</ele>
        <time>2022-09-04T07:47:18Z</time>
      </trkpt>
      <trkpt lat="43.30027" lon="-1.46408">
        <ele>465.7</ele>
        <time>2022-09-04T07:47:19Z</time>
      </trkpt>
      <trkpt lat="43.30027" lon="-1.46407">
        <ele>465.6</ele>
        <time>2022-09-04T07:47:20Z</time>
      </trkpt>
      <trkpt lat="43.30026" lon="-1.46407">
        <ele>465.5</ele>
        <time>2022-09-04T07:47:21Z</time>
      </trkpt>
      <trkpt lat="43.30026" lon="-1.46407">
        <ele>465.5</ele>
        <time>2022-09-04T07:47:22Z</time>
      </trkpt>
      <trkpt lat="43.30026" lon="-1.46407">
        <ele>465.4</ele>
        <time>2022-09-04T07:47:23Z</time>
      </trkpt>
      <trkpt lat="43.30025" lon="-1.46407">
        <ele>465.4</ele>
        <time>2022-09-04T07:47:24Z</time>
      </trkpt>
      <trkpt lat="43.30023" lon="-1.46406">
        <ele>465</ele>
        <time>2022-09-04T07:47:25Z</time>
      </trkpt>
      <trkpt lat="43.30022" lon="-1.46405">
        <ele>464.9</ele>
        <time>2022-09-04T07:47:26Z</time>
      </trkpt>
      <trkpt lat="43.30019" lon="-1.46405">
        <ele>464.5</ele>
        <time>2022-09-04T07:47:27Z</time>
      </trkpt>
      <trkpt lat="43.30018" lon="-1.46404">
        <ele>464.3</ele>
        <time>2022-09-04T07:47:28Z</time>
      </trkpt>
      <trkpt lat="43.30016" lon="-1.46404">
        <ele>464.1</ele>
        <time>2022-09-04T07:47:29Z</time>
      </trkpt>
      <trkpt lat="43.30015" lon="-1.46404">
        <ele>463.9</ele>
        <time>2022-09-04T07:47:30Z</time>
      </trkpt>
      <trkpt lat="43.30012" lon="-1.46405">
        <ele>463.5</ele>
        <time>2022-09-04T07:47:31Z</time>
      </trkpt>
      <trkpt lat="43.30011" lon="-1.46405">
        <ele>463.3</ele>
        <time>2022-09-04T07:47:32Z</time>
      </trkpt>
      <trkpt lat="43.30008" lon="-1.46405">
        <ele>462.9</ele>
        <time>2022-09-04T07:47:33Z</time>
      </trkpt>
      <trkpt lat="43.30007" lon="-1.46405">
        <ele>462.7</ele>
        <time>2022-09-04T07:47:34Z</time>
      </trkpt>
      <trkpt lat="43.30005" lon="-1.46405">
        <ele>462.5</ele>
        <time>2022-09-04T07:47:35Z</time>
      </trkpt>
      <trkpt lat="43.30004" lon="-1.46405">
        <ele>462.3</ele>
        <time>2022-09-04T07:47:36Z</time>
      </trkpt>
      <trkpt lat="43.3" lon="-1.46405">
        <ele>461.7</ele>
        <time>2022-09-04T07:47:37Z</time>
      </trkpt>
      <trkpt lat="43.29999" lon="-1.46405">
        <ele>461.6</ele>
        <time>2022-09-04T07:47:38Z</time>
      </trkpt>
      <trkpt lat="43.29996" lon="-1.46404">
        <ele>461.1</ele>
        <time>2022-09-04T07:47:39Z</time>
      </trkpt>
      <trkpt lat="43.29995" lon="-1.46404">
        <ele>460.9</ele>
        <time>2022-09-04T07:47:40Z</time>
      </trkpt>
      <trkpt lat="43.29994" lon="-1.46403">
        <ele>460.5</ele>
        <time>2022-09-04T07:47:41Z</time>
      </trkpt>
      <trkpt lat="43.29992" lon="-1.46401">
        <ele>460.2</ele>
        <time>2022-09-04T07:47:42Z</time>
      </trkpt>
      <trkpt lat="43.29991" lon="-1.464">
        <ele>460</ele>
        <time>2022-09-04T07:47:43Z</time>
      </trkpt>
      <trkpt lat="43.29991" lon="-1.464">
        <ele>459.8</ele>
        <time>2022-09-04T07:47:44Z</time>
      </trkpt>
      <trkpt lat="43.29991" lon="-1.464">
        <ele>459.8</ele>
        <time>2022-09-04T07:47:45Z</time>
      </trkpt>
      <trkpt lat="43.29991" lon="-1.464">
        <ele>459.7</ele>
        <time>2022-09-04T07:47:46Z</time>
      </trkpt>
      <trkpt lat="43.29991" lon="-1.464">
        <ele>459.7</ele>
        <time>2022-09-04T07:47:47Z</time>
      </trkpt>
      <trkpt lat="43.2999" lon="-1.464">
        <ele>459.7</ele>
        <time>2022-09-04T07:47:48Z</time>
      </trkpt>
      <trkpt lat="43.2999" lon="-1.464">
        <ele>459.7</ele>
        <time>2022-09-04T07:47:49Z</time>
      </trkpt>
      <trkpt lat="43.2999" lon="-1.464">
        <ele>459.7</ele>
        <time>2022-09-04T07:47:50Z</time>
      </trkpt>
      <trkpt lat="43.2999" lon="-1.464">
        <ele>459.6</ele>
        <time>2022-09-04T07:47:51Z</time>
      </trkpt>
      <trkpt lat="43.29991" lon="-1.464">
        <ele>459.6</ele>
        <time>2022-09-04T07:47:52Z</time>
      </trkpt>
      <trkpt lat="43.2999" lon="-1.464">
        <ele>459.4</ele>
        <time>2022-09-04T07:47:53Z</time>
      </trkpt>
      <trkpt lat="43.29989" lon="-1.464">
        <ele>459.2</ele>
        <time>2022-09-04T07:47:54Z</time>
      </trkpt>
      <trkpt lat="43.29988" lon="-1.464">
        <ele>459</ele>
        <time>2022-09-04T07:47:55Z</time>
      </trkpt>
      <trkpt lat="43.29987" lon="-1.46399">
        <ele>458.8</ele>
        <time>2022-09-04T07:47:56Z</time>
      </trkpt>
      <trkpt lat="43.29987" lon="-1.46399">
        <ele>458.8</ele>
        <time>2022-09-04T07:47:57Z</time>
      </trkpt>
      <trkpt lat="43.29987" lon="-1.46399">
        <ele>458.7</ele>
        <time>2022-09-04T07:47:58Z</time>
      </trkpt>
      <trkpt lat="43.29987" lon="-1.464">
        <ele>458.7</ele>
        <time>2022-09-04T07:47:59Z</time>
      </trkpt>
      <trkpt lat="43.29987" lon="-1.464">
        <ele>458.6</ele>
        <time>2022-09-04T07:48:00Z</time>
      </trkpt>
      <trkpt lat="43.29986" lon="-1.464">
        <ele>458.5</ele>
        <time>2022-09-04T07:48:01Z</time>
      </trkpt>
      <trkpt lat="43.29986" lon="-1.46401">
        <ele>458.5</ele>
        <time>2022-09-04T07:48:02Z</time>
      </trkpt>
      <trkpt lat="43.29986" lon="-1.46401">
        <ele>458.4</ele>
        <time>2022-09-04T07:48:03Z</time>
      </trkpt>
      <trkpt lat="43.29986" lon="-1.46401">
        <ele>458.3</ele>
        <time>2022-09-04T07:48:04Z</time>
      </trkpt>
      <trkpt lat="43.29986" lon="-1.46401">
        <ele>458.2</ele>
        <time>2022-09-04T07:48:05Z</time>
      </trkpt>
      <trkpt lat="43.29986" lon="-1.46402">
        <ele>458.2</ele>
        <time>2022-09-04T07:48:06Z</time>
      </trkpt>
      <trkpt lat="43.29985" lon="-1.46402">
        <ele>458.1</ele>
        <time>2022-09-04T07:48:07Z</time>
      </trkpt>
      <trkpt lat="43.29985" lon="-1.46402">
        <ele>458</ele>
        <time>2022-09-04T07:48:08Z</time>
      </trkpt>
      <trkpt lat="43.29985" lon="-1.46402">
        <ele>458</ele>
        <time>2022-09-04T07:48:09Z</time>
      </trkpt>
      <trkpt lat="43.29985" lon="-1.46403">
        <ele>457.9</ele>
        <time>2022-09-04T07:48:10Z</time>
      </trkpt>
      <trkpt lat="43.29985" lon="-1.46403">
        <ele>457.8</ele>
        <time>2022-09-04T07:48:11Z</time>
      </trkpt>
      <trkpt lat="43.29984" lon="-1.46403">
        <ele>457.7</ele>
        <time>2022-09-04T07:48:12Z</time>
      </trkpt>
      <trkpt lat="43.29982" lon="-1.46405">
        <ele>456.8</ele>
        <time>2022-09-04T07:48:13Z</time>
      </trkpt>
      <trkpt lat="43.29981" lon="-1.46405">
        <ele>456.5</ele>
        <time>2022-09-04T07:48:14Z</time>
      </trkpt>
      <trkpt lat="43.29977" lon="-1.46405">
        <ele>455.3</ele>
        <time>2022-09-04T07:48:15Z</time>
      </trkpt>
      <trkpt lat="43.29976" lon="-1.46405">
        <ele>455</ele>
        <time>2022-09-04T07:48:16Z</time>
      </trkpt>
      <trkpt lat="43.29973" lon="-1.46405">
        <ele>453.8</ele>
        <time>2022-09-04T07:48:17Z</time>
      </trkpt>
      <trkpt lat="43.29971" lon="-1.46406">
        <ele>453.3</ele>
        <time>2022-09-04T07:48:18Z</time>
      </trkpt>
      <trkpt lat="43.2997" lon="-1.46406">
        <ele>452.7</ele>
        <time>2022-09-04T07:48:19Z</time>
      </trkpt>
      <trkpt lat="43.29969" lon="-1.46407">
        <ele>452.3</ele>
        <time>2022-09-04T07:48:20Z</time>
      </trkpt>
      <trkpt lat="43.29969" lon="-1.46407">
        <ele>452.3</ele>
        <time>2022-09-04T07:48:21Z</time>
      </trkpt>
      <trkpt lat="43.29969" lon="-1.46407">
        <ele>452.2</ele>
        <time>2022-09-04T07:48:22Z</time>
      </trkpt>
      <trkpt lat="43.29969" lon="-1.46407">
        <ele>452</ele>
        <time>2022-09-04T07:48:23Z</time>
      </trkpt>
      <trkpt lat="43.29968" lon="-1.46408">
        <ele>452</ele>
        <time>2022-09-04T07:48:24Z</time>
      </trkpt>
      <trkpt lat="43.29968" lon="-1.46408">
        <ele>452</ele>
        <time>2022-09-04T07:48:25Z</time>
      </trkpt>
      <trkpt lat="43.29967" lon="-1.46408">
        <ele>451.6</ele>
        <time>2022-09-04T07:48:26Z</time>
      </trkpt>
      <trkpt lat="43.29966" lon="-1.46408">
        <ele>451.2</ele>
        <time>2022-09-04T07:48:27Z</time>
      </trkpt>
      <trkpt lat="43.29966" lon="-1.46409">
        <ele>450.9</ele>
        <time>2022-09-04T07:48:28Z</time>
      </trkpt>
      <trkpt lat="43.29964" lon="-1.46409">
        <ele>450.3</ele>
        <time>2022-09-04T07:48:29Z</time>
      </trkpt>
      <trkpt lat="43.29963" lon="-1.46409">
        <ele>449.9</ele>
        <time>2022-09-04T07:48:30Z</time>
      </trkpt>
      <trkpt lat="43.29961" lon="-1.46409">
        <ele>449.5</ele>
        <time>2022-09-04T07:48:31Z</time>
      </trkpt>
      <trkpt lat="43.29959" lon="-1.4641">
        <ele>448.6</ele>
        <time>2022-09-04T07:48:32Z</time>
      </trkpt>
      <trkpt lat="43.29958" lon="-1.4641">
        <ele>448.3</ele>
        <time>2022-09-04T07:48:33Z</time>
      </trkpt>
      <trkpt lat="43.29957" lon="-1.4641">
        <ele>448</ele>
        <time>2022-09-04T07:48:34Z</time>
      </trkpt>
      <trkpt lat="43.29957" lon="-1.46409">
        <ele>447.7</ele>
        <time>2022-09-04T07:48:35Z</time>
      </trkpt>
      <trkpt lat="43.29956" lon="-1.46409">
        <ele>447.5</ele>
        <time>2022-09-04T07:48:36Z</time>
      </trkpt>
      <trkpt lat="43.29956" lon="-1.46408">
        <ele>447.3</ele>
        <time>2022-09-04T07:48:37Z</time>
      </trkpt>
      <trkpt lat="43.29956" lon="-1.46407">
        <ele>447.1</ele>
        <time>2022-09-04T07:48:38Z</time>
      </trkpt>
      <trkpt lat="43.29956" lon="-1.46406">
        <ele>446.9</ele>
        <time>2022-09-04T07:48:39Z</time>
      </trkpt>
      <trkpt lat="43.29955" lon="-1.46405">
        <ele>446.7</ele>
        <time>2022-09-04T07:48:40Z</time>
      </trkpt>
      <trkpt lat="43.29955" lon="-1.46405">
        <ele>446.7</ele>
        <time>2022-09-04T07:48:41Z</time>
      </trkpt>
      <trkpt lat="43.29955" lon="-1.46405">
        <ele>446.5</ele>
        <time>2022-09-04T07:48:42Z</time>
      </trkpt>
      <trkpt lat="43.29954" lon="-1.46405">
        <ele>446.3</ele>
        <time>2022-09-04T07:48:43Z</time>
      </trkpt>
      <trkpt lat="43.29954" lon="-1.46404">
        <ele>446.2</ele>
        <time>2022-09-04T07:48:44Z</time>
      </trkpt>
      <trkpt lat="43.29954" lon="-1.46403">
        <ele>445.9</ele>
        <time>2022-09-04T07:48:45Z</time>
      </trkpt>
      <trkpt lat="43.29954" lon="-1.46401">
        <ele>445.4</ele>
        <time>2022-09-04T07:48:46Z</time>
      </trkpt>
      <trkpt lat="43.29955" lon="-1.46395">
        <ele>444</ele>
        <time>2022-09-04T07:48:48Z</time>
      </trkpt>
      <trkpt lat="43.29956" lon="-1.46391">
        <ele>443.1</ele>
        <time>2022-09-04T07:48:49Z</time>
      </trkpt>
      <trkpt lat="43.29957" lon="-1.4639">
        <ele>442.9</ele>
        <time>2022-09-04T07:48:50Z</time>
      </trkpt>
      <trkpt lat="43.29958" lon="-1.46386">
        <ele>442.2</ele>
        <time>2022-09-04T07:48:51Z</time>
      </trkpt>
      <trkpt lat="43.29958" lon="-1.46385">
        <ele>441.9</ele>
        <time>2022-09-04T07:48:52Z</time>
      </trkpt>
      <trkpt lat="43.29959" lon="-1.46381">
        <ele>441.1</ele>
        <time>2022-09-04T07:48:53Z</time>
      </trkpt>
      <trkpt lat="43.2996" lon="-1.4638">
        <ele>440.9</ele>
        <time>2022-09-04T07:48:54Z</time>
      </trkpt>
      <trkpt lat="43.2996" lon="-1.46379">
        <ele>440.7</ele>
        <time>2022-09-04T07:48:55Z</time>
      </trkpt>
      <trkpt lat="43.2996" lon="-1.46378">
        <ele>440.5</ele>
        <time>2022-09-04T07:48:56Z</time>
      </trkpt>
      <trkpt lat="43.29961" lon="-1.46376">
        <ele>440.2</ele>
        <time>2022-09-04T07:48:57Z</time>
      </trkpt>
      <trkpt lat="43.29962" lon="-1.46374">
        <ele>439.7</ele>
        <time>2022-09-04T07:48:58Z</time>
      </trkpt>
      <trkpt lat="43.29963" lon="-1.46374">
        <ele>439.5</ele>
        <time>2022-09-04T07:48:59Z</time>
      </trkpt>
      <trkpt lat="43.29964" lon="-1.46373">
        <ele>439.3</ele>
        <time>2022-09-04T07:49:00Z</time>
      </trkpt>
      <trkpt lat="43.29964" lon="-1.46372">
        <ele>439.1</ele>
        <time>2022-09-04T07:49:01Z</time>
      </trkpt>
      <trkpt lat="43.29964" lon="-1.46372">
        <ele>439</ele>
        <time>2022-09-04T07:49:02Z</time>
      </trkpt>
      <trkpt lat="43.29963" lon="-1.46372">
        <ele>439</ele>
        <time>2022-09-04T07:49:03Z</time>
      </trkpt>
      <trkpt lat="43.29963" lon="-1.46372">
        <ele>438.9</ele>
        <time>2022-09-04T07:49:04Z</time>
      </trkpt>
      <trkpt lat="43.29963" lon="-1.46372">
        <ele>438.9</ele>
        <time>2022-09-04T07:49:05Z</time>
      </trkpt>
      <trkpt lat="43.29963" lon="-1.46372">
        <ele>438.9</ele>
        <time>2022-09-04T07:49:06Z</time>
      </trkpt>
      <trkpt lat="43.29963" lon="-1.46372">
        <ele>438.9</ele>
        <time>2022-09-04T07:49:07Z</time>
      </trkpt>
      <trkpt lat="43.29963" lon="-1.46372">
        <ele>438.9</ele>
        <time>2022-09-04T07:49:08Z</time>
      </trkpt>
      <trkpt lat="43.29963" lon="-1.46372">
        <ele>438.9</ele>
        <time>2022-09-04T07:49:09Z</time>
      </trkpt>
      <trkpt lat="43.29963" lon="-1.46372">
        <ele>438.9</ele>
        <time>2022-09-04T07:49:10Z</time>
      </trkpt>
      <trkpt lat="43.29963" lon="-1.46372">
        <ele>438.9</ele>
        <time>2022-09-04T07:49:11Z</time>
      </trkpt>
      <trkpt lat="43.29963" lon="-1.46372">
        <ele>438.9</ele>
        <time>2022-09-04T07:49:12Z</time>
      </trkpt>
      <trkpt lat="43.29962" lon="-1.4637">
        <ele>438.5</ele>
        <time>2022-09-04T07:49:18Z</time>
      </trkpt>
      <trkpt lat="43.29962" lon="-1.46369">
        <ele>438.4</ele>
        <time>2022-09-04T07:49:19Z</time>
      </trkpt>
      <trkpt lat="43.29961" lon="-1.46369">
        <ele>438.1</ele>
        <time>2022-09-04T07:49:20Z</time>
      </trkpt>
      <trkpt lat="43.2996" lon="-1.46368">
        <ele>437.8</ele>
        <time>2022-09-04T07:49:21Z</time>
      </trkpt>
      <trkpt lat="43.29958" lon="-1.46366">
        <ele>437.3</ele>
        <time>2022-09-04T07:49:23Z</time>
      </trkpt>
      <trkpt lat="43.29957" lon="-1.46364">
        <ele>436.7</ele>
        <time>2022-09-04T07:49:24Z</time>
      </trkpt>
      <trkpt lat="43.29956" lon="-1.46363">
        <ele>436.5</ele>
        <time>2022-09-04T07:49:25Z</time>
      </trkpt>
      <trkpt lat="43.29956" lon="-1.46362">
        <ele>436.3</ele>
        <time>2022-09-04T07:49:26Z</time>
      </trkpt>
      <trkpt lat="43.29954" lon="-1.46361">
        <ele>435.9</ele>
        <time>2022-09-04T07:49:27Z</time>
      </trkpt>
      <trkpt lat="43.29953" lon="-1.4636">
        <ele>435.4</ele>
        <time>2022-09-04T07:49:28Z</time>
      </trkpt>
      <trkpt lat="43.29951" lon="-1.46359">
        <ele>434.8</ele>
        <time>2022-09-04T07:49:29Z</time>
      </trkpt>
      <trkpt lat="43.2995" lon="-1.46359">
        <ele>434.5</ele>
        <time>2022-09-04T07:49:30Z</time>
      </trkpt>
      <trkpt lat="43.29949" lon="-1.46358">
        <ele>434.2</ele>
        <time>2022-09-04T07:49:31Z</time>
      </trkpt>
      <trkpt lat="43.29947" lon="-1.46357">
        <ele>433.6</ele>
        <time>2022-09-04T07:49:32Z</time>
      </trkpt>
      <trkpt lat="43.2994" lon="-1.46354">
        <ele>431.6</ele>
        <time>2022-09-04T07:49:35Z</time>
      </trkpt>
      <trkpt lat="43.29937" lon="-1.46354">
        <ele>430.7</ele>
        <time>2022-09-04T07:49:36Z</time>
      </trkpt>
      <trkpt lat="43.29934" lon="-1.46351">
        <ele>429.7</ele>
        <time>2022-09-04T07:49:37Z</time>
      </trkpt>
      <trkpt lat="43.29933" lon="-1.46351">
        <ele>429.4</ele>
        <time>2022-09-04T07:49:38Z</time>
      </trkpt>
      <trkpt lat="43.2993" lon="-1.46348">
        <ele>428.5</ele>
        <time>2022-09-04T07:49:39Z</time>
      </trkpt>
      <trkpt lat="43.29929" lon="-1.46347">
        <ele>428.2</ele>
        <time>2022-09-04T07:49:40Z</time>
      </trkpt>
      <trkpt lat="43.29926" lon="-1.46343">
        <ele>427.4</ele>
        <time>2022-09-04T07:49:41Z</time>
      </trkpt>
      <trkpt lat="43.29925" lon="-1.46342">
        <ele>427.1</ele>
        <time>2022-09-04T07:49:42Z</time>
      </trkpt>
      <trkpt lat="43.29924" lon="-1.4634">
        <ele>426.6</ele>
        <time>2022-09-04T07:49:43Z</time>
      </trkpt>
      <trkpt lat="43.29922" lon="-1.46335">
        <ele>425.7</ele>
        <time>2022-09-04T07:49:45Z</time>
      </trkpt>
      <trkpt lat="43.2992" lon="-1.46331">
        <ele>424.9</ele>
        <time>2022-09-04T07:49:46Z</time>
      </trkpt>
      <trkpt lat="43.2992" lon="-1.46329">
        <ele>424.6</ele>
        <time>2022-09-04T07:49:47Z</time>
      </trkpt>
      <trkpt lat="43.29919" lon="-1.46324">
        <ele>423.9</ele>
        <time>2022-09-04T07:49:48Z</time>
      </trkpt>
      <trkpt lat="43.29919" lon="-1.46323">
        <ele>423.6</ele>
        <time>2022-09-04T07:49:49Z</time>
      </trkpt>
      <trkpt lat="43.29918" lon="-1.46318">
        <ele>422.9</ele>
        <time>2022-09-04T07:49:50Z</time>
      </trkpt>
      <trkpt lat="43.29917" lon="-1.46316">
        <ele>422.7</ele>
        <time>2022-09-04T07:49:51Z</time>
      </trkpt>
      <trkpt lat="43.29916" lon="-1.46314">
        <ele>422.4</ele>
        <time>2022-09-04T07:49:52Z</time>
      </trkpt>
      <trkpt lat="43.29915" lon="-1.46312">
        <ele>422.2</ele>
        <time>2022-09-04T07:49:53Z</time>
      </trkpt>
      <trkpt lat="43.29915" lon="-1.46311">
        <ele>422</ele>
        <time>2022-09-04T07:49:54Z</time>
      </trkpt>
      <trkpt lat="43.29915" lon="-1.46311">
        <ele>422</ele>
        <time>2022-09-04T07:49:55Z</time>
      </trkpt>
      <trkpt lat="43.29914" lon="-1.46311">
        <ele>422</ele>
        <time>2022-09-04T07:49:56Z</time>
      </trkpt>
      <trkpt lat="43.29914" lon="-1.46311">
        <ele>422</ele>
        <time>2022-09-04T07:49:57Z</time>
      </trkpt>
      <trkpt lat="43.29914" lon="-1.46311">
        <ele>422</ele>
        <time>2022-09-04T07:49:58Z</time>
      </trkpt>
      <trkpt lat="43.29915" lon="-1.46311">
        <ele>422</ele>
        <time>2022-09-04T07:49:59Z</time>
      </trkpt>
      <trkpt lat="43.29915" lon="-1.46311">
        <ele>422</ele>
        <time>2022-09-04T07:50:00Z</time>
      </trkpt>
      <trkpt lat="43.29915" lon="-1.46311">
        <ele>422</ele>
        <time>2022-09-04T07:50:01Z</time>
      </trkpt>
      <trkpt lat="43.29915" lon="-1.46311">
        <ele>422</ele>
        <time>2022-09-04T07:50:02Z</time>
      </trkpt>
      <trkpt lat="43.29915" lon="-1.46311">
        <ele>422</ele>
        <time>2022-09-04T07:50:03Z</time>
      </trkpt>
      <trkpt lat="43.29915" lon="-1.46311">
        <ele>422</ele>
        <time>2022-09-04T07:50:04Z</time>
      </trkpt>
      <trkpt lat="43.29914" lon="-1.46307">
        <ele>421.6</ele>
        <time>2022-09-04T07:50:35Z</time>
      </trkpt>
      <trkpt lat="43.29913" lon="-1.46305">
        <ele>421.4</ele>
        <time>2022-09-04T07:50:36Z</time>
      </trkpt>
      <trkpt lat="43.29913" lon="-1.46303">
        <ele>421.2</ele>
        <time>2022-09-04T07:50:37Z</time>
      </trkpt>
      <trkpt lat="43.29913" lon="-1.46302">
        <ele>421.2</ele>
        <time>2022-09-04T07:50:38Z</time>
      </trkpt>
      <trkpt lat="43.29913" lon="-1.46302">
        <ele>421.2</ele>
        <time>2022-09-04T07:50:39Z</time>
      </trkpt>
      <trkpt lat="43.29912" lon="-1.46299">
        <ele>420.9</ele>
        <time>2022-09-04T07:50:40Z</time>
      </trkpt>
      <trkpt lat="43.29911" lon="-1.46297">
        <ele>420.8</ele>
        <time>2022-09-04T07:50:41Z</time>
      </trkpt>
      <trkpt lat="43.2991" lon="-1.46295">
        <ele>420.6</ele>
        <time>2022-09-04T07:50:42Z</time>
      </trkpt>
      <trkpt lat="43.2991" lon="-1.46296">
        <ele>420.6</ele>
        <time>2022-09-04T07:50:43Z</time>
      </trkpt>
      <trkpt lat="43.2991" lon="-1.46295">
        <ele>420.6</ele>
        <time>2022-09-04T07:50:44Z</time>
      </trkpt>
      <trkpt lat="43.2991" lon="-1.46295">
        <ele>420.6</ele>
        <time>2022-09-04T07:50:45Z</time>
      </trkpt>
      <trkpt lat="43.2991" lon="-1.46295">
        <ele>420.6</ele>
        <time>2022-09-04T07:50:46Z</time>
      </trkpt>
      <trkpt lat="43.2991" lon="-1.46295">
        <ele>420.6</ele>
        <time>2022-09-04T07:50:47Z</time>
      </trkpt>
      <trkpt lat="43.2991" lon="-1.46295">
        <ele>420.6</ele>
        <time>2022-09-04T07:50:48Z</time>
      </trkpt>
      <trkpt lat="43.2991" lon="-1.46295">
        <ele>420.6</ele>
        <time>2022-09-04T07:50:49Z</time>
      </trkpt>
      <trkpt lat="43.2991" lon="-1.46295">
        <ele>420.6</ele>
        <time>2022-09-04T07:50:50Z</time>
      </trkpt>
      <trkpt lat="43.2991" lon="-1.46295">
        <ele>420.6</ele>
        <time>2022-09-04T07:50:51Z</time>
      </trkpt>
      <trkpt lat="43.29908" lon="-1.46294">
        <ele>420.4</ele>
        <time>2022-09-04T07:50:52Z</time>
      </trkpt>
      <trkpt lat="43.29907" lon="-1.46293">
        <ele>420.3</ele>
        <time>2022-09-04T07:50:53Z</time>
      </trkpt>
      <trkpt lat="43.29907" lon="-1.46292">
        <ele>420.3</ele>
        <time>2022-09-04T07:50:54Z</time>
      </trkpt>
      <trkpt lat="43.29907" lon="-1.46292">
        <ele>420.3</ele>
        <time>2022-09-04T07:50:55Z</time>
      </trkpt>
      <trkpt lat="43.29907" lon="-1.46291">
        <ele>420.2</ele>
        <time>2022-09-04T07:50:56Z</time>
      </trkpt>
      <trkpt lat="43.29907" lon="-1.46291">
        <ele>420.2</ele>
        <time>2022-09-04T07:50:57Z</time>
      </trkpt>
      <trkpt lat="43.29907" lon="-1.46291">
        <ele>420.2</ele>
        <time>2022-09-04T07:50:58Z</time>
      </trkpt>
      <trkpt lat="43.29907" lon="-1.46291">
        <ele>420.2</ele>
        <time>2022-09-04T07:50:59Z</time>
      </trkpt>
      <trkpt lat="43.29907" lon="-1.46292">
        <ele>420.2</ele>
        <time>2022-09-04T07:51:00Z</time>
      </trkpt>
      <trkpt lat="43.29907" lon="-1.46292">
        <ele>420.2</ele>
        <time>2022-09-04T07:51:01Z</time>
      </trkpt>
      <trkpt lat="43.29907" lon="-1.46292">
        <ele>420.2</ele>
        <time>2022-09-04T07:51:02Z</time>
      </trkpt>
      <trkpt lat="43.29907" lon="-1.46292">
        <ele>420.2</ele>
        <time>2022-09-04T07:51:03Z</time>
      </trkpt>
      <trkpt lat="43.29907" lon="-1.46292">
        <ele>420.2</ele>
        <time>2022-09-04T07:51:04Z</time>
      </trkpt>
      <trkpt lat="43.29907" lon="-1.46292">
        <ele>420.2</ele>
        <time>2022-09-04T07:51:05Z</time>
      </trkpt>
      <trkpt lat="43.29904" lon="-1.46284">
        <ele>419.9</ele>
        <time>2022-09-04T07:51:19Z</time>
      </trkpt>
      <trkpt lat="43.29904" lon="-1.46283">
        <ele>419.9</ele>
        <time>2022-09-04T07:51:20Z</time>
      </trkpt>
      <trkpt lat="43.29904" lon="-1.46283">
        <ele>419.9</ele>
        <time>2022-09-04T07:51:21Z</time>
      </trkpt>
      <trkpt lat="43.29904" lon="-1.46282">
        <ele>419.8</ele>
        <time>2022-09-04T07:51:22Z</time>
      </trkpt>
      <trkpt lat="43.29904" lon="-1.46281">
        <ele>419.8</ele>
        <time>2022-09-04T07:51:23Z</time>
      </trkpt>
      <trkpt lat="43.29904" lon="-1.46281">
        <ele>419.8</ele>
        <time>2022-09-04T07:51:24Z</time>
      </trkpt>
      <trkpt lat="43.29903" lon="-1.46281">
        <ele>419.8</ele>
        <time>2022-09-04T07:51:25Z</time>
      </trkpt>
      <trkpt lat="43.29902" lon="-1.4628">
        <ele>419.8</ele>
        <time>2022-09-04T07:51:26Z</time>
      </trkpt>
      <trkpt lat="43.29902" lon="-1.4628">
        <ele>419.7</ele>
        <time>2022-09-04T07:51:27Z</time>
      </trkpt>
      <trkpt lat="43.29902" lon="-1.4628">
        <ele>419.7</ele>
        <time>2022-09-04T07:51:28Z</time>
      </trkpt>
      <trkpt lat="43.29902" lon="-1.4628">
        <ele>419.7</ele>
        <time>2022-09-04T07:51:29Z</time>
      </trkpt>
      <trkpt lat="43.29901" lon="-1.46278">
        <ele>419.7</ele>
        <time>2022-09-04T07:51:30Z</time>
      </trkpt>
      <trkpt lat="43.299" lon="-1.46278">
        <ele>419.7</ele>
        <time>2022-09-04T07:51:31Z</time>
      </trkpt>
      <trkpt lat="43.299" lon="-1.46277">
        <ele>419.6</ele>
        <time>2022-09-04T07:51:32Z</time>
      </trkpt>
      <trkpt lat="43.29899" lon="-1.46276">
        <ele>419.6</ele>
        <time>2022-09-04T07:51:33Z</time>
      </trkpt>
      <trkpt lat="43.29899" lon="-1.46275">
        <ele>419.6</ele>
        <time>2022-09-04T07:51:34Z</time>
      </trkpt>
      <trkpt lat="43.29899" lon="-1.46275">
        <ele>419.6</ele>
        <time>2022-09-04T07:51:35Z</time>
      </trkpt>
      <trkpt lat="43.299" lon="-1.46274">
        <ele>419.6</ele>
        <time>2022-09-04T07:51:36Z</time>
      </trkpt>
      <trkpt lat="43.29901" lon="-1.46273">
        <ele>419.5</ele>
        <time>2022-09-04T07:51:37Z</time>
      </trkpt>
      <trkpt lat="43.29901" lon="-1.46272">
        <ele>419.5</ele>
        <time>2022-09-04T07:51:38Z</time>
      </trkpt>
      <trkpt lat="43.29902" lon="-1.46271">
        <ele>419.5</ele>
        <time>2022-09-04T07:51:39Z</time>
      </trkpt>
      <trkpt lat="43.29901" lon="-1.46271">
        <ele>419.4</ele>
        <time>2022-09-04T07:51:40Z</time>
      </trkpt>
      <trkpt lat="43.29901" lon="-1.46271">
        <ele>419.4</ele>
        <time>2022-09-04T07:51:41Z</time>
      </trkpt>
      <trkpt lat="43.29901" lon="-1.46271">
        <ele>419.4</ele>
        <time>2022-09-04T07:51:42Z</time>
      </trkpt>
      <trkpt lat="43.29901" lon="-1.46271">
        <ele>419.4</ele>
        <time>2022-09-04T07:51:43Z</time>
      </trkpt>
      <trkpt lat="43.29901" lon="-1.4627">
        <ele>419.4</ele>
        <time>2022-09-04T07:51:44Z</time>
      </trkpt>
      <trkpt lat="43.299" lon="-1.4627">
        <ele>419.3</ele>
        <time>2022-09-04T07:51:45Z</time>
      </trkpt>
      <trkpt lat="43.299" lon="-1.4627">
        <ele>419.3</ele>
        <time>2022-09-04T07:51:46Z</time>
      </trkpt>
      <trkpt lat="43.29899" lon="-1.46271">
        <ele>419.2</ele>
        <time>2022-09-04T07:51:47Z</time>
      </trkpt>
      <trkpt lat="43.29898" lon="-1.46271">
        <ele>419.2</ele>
        <time>2022-09-04T07:51:48Z</time>
      </trkpt>
      <trkpt lat="43.29898" lon="-1.46272">
        <ele>419.1</ele>
        <time>2022-09-04T07:51:49Z</time>
      </trkpt>
      <trkpt lat="43.29898" lon="-1.46272">
        <ele>419.1</ele>
        <time>2022-09-04T07:51:50Z</time>
      </trkpt>
      <trkpt lat="43.29897" lon="-1.46273">
        <ele>419.1</ele>
        <time>2022-09-04T07:51:51Z</time>
      </trkpt>
      <trkpt lat="43.29897" lon="-1.46274">
        <ele>419</ele>
        <time>2022-09-04T07:51:52Z</time>
      </trkpt>
      <trkpt lat="43.29897" lon="-1.46274">
        <ele>419</ele>
        <time>2022-09-04T07:51:53Z</time>
      </trkpt>
      <trkpt lat="43.29897" lon="-1.46275">
        <ele>419</ele>
        <time>2022-09-04T07:51:54Z</time>
      </trkpt>
      <trkpt lat="43.29897" lon="-1.46276">
        <ele>418.9</ele>
        <time>2022-09-04T07:51:55Z</time>
      </trkpt>
      <trkpt lat="43.29897" lon="-1.46276">
        <ele>418.9</ele>
        <time>2022-09-04T07:51:56Z</time>
      </trkpt>
      <trkpt lat="43.29896" lon="-1.46278">
        <ele>418.8</ele>
        <time>2022-09-04T07:51:57Z</time>
      </trkpt>
      <trkpt lat="43.29895" lon="-1.46278">
        <ele>418.7</ele>
        <time>2022-09-04T07:51:58Z</time>
      </trkpt>
      <trkpt lat="43.29894" lon="-1.46279">
        <ele>418.6</ele>
        <time>2022-09-04T07:51:59Z</time>
      </trkpt>
      <trkpt lat="43.29893" lon="-1.4628">
        <ele>418.5</ele>
        <time>2022-09-04T07:52:00Z</time>
      </trkpt>
      <trkpt lat="43.29891" lon="-1.46282">
        <ele>418.2</ele>
        <time>2022-09-04T07:52:01Z</time>
      </trkpt>
      <trkpt lat="43.29889" lon="-1.46284">
        <ele>418</ele>
        <time>2022-09-04T07:52:02Z</time>
      </trkpt>
      <trkpt lat="43.29886" lon="-1.46286">
        <ele>417.7</ele>
        <time>2022-09-04T07:52:03Z</time>
      </trkpt>
      <trkpt lat="43.29882" lon="-1.46288">
        <ele>417.4</ele>
        <time>2022-09-04T07:52:04Z</time>
      </trkpt>
      <trkpt lat="43.29881" lon="-1.46288">
        <ele>417.3</ele>
        <time>2022-09-04T07:52:05Z</time>
      </trkpt>
      <trkpt lat="43.29879" lon="-1.46289">
        <ele>417.2</ele>
        <time>2022-09-04T07:52:06Z</time>
      </trkpt>
      <trkpt lat="43.29878" lon="-1.46289">
        <ele>417.1</ele>
        <time>2022-09-04T07:52:07Z</time>
      </trkpt>
      <trkpt lat="43.29875" lon="-1.46289">
        <ele>417</ele>
        <time>2022-09-04T07:52:08Z</time>
      </trkpt>
      <trkpt lat="43.29873" lon="-1.46289">
        <ele>416.9</ele>
        <time>2022-09-04T07:52:09Z</time>
      </trkpt>
      <trkpt lat="43.2987" lon="-1.46289">
        <ele>416.7</ele>
        <time>2022-09-04T07:52:10Z</time>
      </trkpt>
      <trkpt lat="43.29868" lon="-1.46289">
        <ele>416.7</ele>
        <time>2022-09-04T07:52:11Z</time>
      </trkpt>
      <trkpt lat="43.29866" lon="-1.46289">
        <ele>416.5</ele>
        <time>2022-09-04T07:52:12Z</time>
      </trkpt>
      <trkpt lat="43.29863" lon="-1.46289">
        <ele>416.3</ele>
        <time>2022-09-04T07:52:13Z</time>
      </trkpt>
      <trkpt lat="43.29861" lon="-1.46289">
        <ele>416.2</ele>
        <time>2022-09-04T07:52:14Z</time>
      </trkpt>
      <trkpt lat="43.2986" lon="-1.46288">
        <ele>416.1</ele>
        <time>2022-09-04T07:52:15Z</time>
      </trkpt>
      <trkpt lat="43.29859" lon="-1.46287">
        <ele>416</ele>
        <time>2022-09-04T07:52:16Z</time>
      </trkpt>
      <trkpt lat="43.29859" lon="-1.46288">
        <ele>416</ele>
        <time>2022-09-04T07:52:17Z</time>
      </trkpt>
      <trkpt lat="43.29859" lon="-1.46288">
        <ele>416</ele>
        <time>2022-09-04T07:52:18Z</time>
      </trkpt>
      <trkpt lat="43.29859" lon="-1.46288">
        <ele>416</ele>
        <time>2022-09-04T07:52:19Z</time>
      </trkpt>
      <trkpt lat="43.29859" lon="-1.46288">
        <ele>416</ele>
        <time>2022-09-04T07:52:20Z</time>
      </trkpt>
      <trkpt lat="43.29856" lon="-1.46288">
        <ele>415.8</ele>
        <time>2022-09-04T07:52:21Z</time>
      </trkpt>
      <trkpt lat="43.29854" lon="-1.46287">
        <ele>415.6</ele>
        <time>2022-09-04T07:52:22Z</time>
      </trkpt>
      <trkpt lat="43.29853" lon="-1.46287">
        <ele>415.6</ele>
        <time>2022-09-04T07:52:23Z</time>
      </trkpt>
      <trkpt lat="43.29853" lon="-1.46286">
        <ele>415.6</ele>
        <time>2022-09-04T07:52:24Z</time>
      </trkpt>
      <trkpt lat="43.29853" lon="-1.46286">
        <ele>415.5</ele>
        <time>2022-09-04T07:52:25Z</time>
      </trkpt>
      <trkpt lat="43.29853" lon="-1.46286">
        <ele>415.5</ele>
        <time>2022-09-04T07:52:26Z</time>
      </trkpt>
      <trkpt lat="43.29851" lon="-1.46285">
        <ele>415.4</ele>
        <time>2022-09-04T07:52:27Z</time>
      </trkpt>
      <trkpt lat="43.2985" lon="-1.46284">
        <ele>415.4</ele>
        <time>2022-09-04T07:52:28Z</time>
      </trkpt>
      <trkpt lat="43.29849" lon="-1.46284">
        <ele>415.3</ele>
        <time>2022-09-04T07:52:29Z</time>
      </trkpt>
      <trkpt lat="43.29849" lon="-1.46284">
        <ele>415.3</ele>
        <time>2022-09-04T07:52:30Z</time>
      </trkpt>
      <trkpt lat="43.29848" lon="-1.46283">
        <ele>415.3</ele>
        <time>2022-09-04T07:52:31Z</time>
      </trkpt>
      <trkpt lat="43.29848" lon="-1.46283">
        <ele>415.2</ele>
        <time>2022-09-04T07:52:32Z</time>
      </trkpt>
      <trkpt lat="43.29847" lon="-1.46283">
        <ele>415.2</ele>
        <time>2022-09-04T07:52:33Z</time>
      </trkpt>
      <trkpt lat="43.29847" lon="-1.46283">
        <ele>415.2</ele>
        <time>2022-09-04T07:52:34Z</time>
      </trkpt>
      <trkpt lat="43.29846" lon="-1.46283">
        <ele>415.2</ele>
        <time>2022-09-04T07:52:35Z</time>
      </trkpt>
      <trkpt lat="43.29846" lon="-1.46283">
        <ele>415.2</ele>
        <time>2022-09-04T07:52:36Z</time>
      </trkpt>
      <trkpt lat="43.29845" lon="-1.46282">
        <ele>415.1</ele>
        <time>2022-09-04T07:52:37Z</time>
      </trkpt>
      <trkpt lat="43.29845" lon="-1.46282">
        <ele>415.1</ele>
        <time>2022-09-04T07:52:38Z</time>
      </trkpt>
      <trkpt lat="43.29844" lon="-1.46282">
        <ele>415.1</ele>
        <time>2022-09-04T07:52:39Z</time>
      </trkpt>
      <trkpt lat="43.29844" lon="-1.46282">
        <ele>415.1</ele>
        <time>2022-09-04T07:52:40Z</time>
      </trkpt>
      <trkpt lat="43.29843" lon="-1.46282">
        <ele>415.1</ele>
        <time>2022-09-04T07:52:41Z</time>
      </trkpt>
      <trkpt lat="43.29842" lon="-1.46282">
        <ele>415</ele>
        <time>2022-09-04T07:52:42Z</time>
      </trkpt>
      <trkpt lat="43.2984" lon="-1.46281">
        <ele>415</ele>
        <time>2022-09-04T07:52:43Z</time>
      </trkpt>
      <trkpt lat="43.29836" lon="-1.46281">
        <ele>414.9</ele>
        <time>2022-09-04T07:52:44Z</time>
      </trkpt>
      <trkpt lat="43.29835" lon="-1.46281">
        <ele>414.9</ele>
        <time>2022-09-04T07:52:45Z</time>
      </trkpt>
      <trkpt lat="43.29834" lon="-1.4628">
        <ele>414.8</ele>
        <time>2022-09-04T07:52:46Z</time>
      </trkpt>
      <trkpt lat="43.29833" lon="-1.4628">
        <ele>414.8</ele>
        <time>2022-09-04T07:52:47Z</time>
      </trkpt>
      <trkpt lat="43.29832" lon="-1.46279">
        <ele>414.8</ele>
        <time>2022-09-04T07:52:48Z</time>
      </trkpt>
      <trkpt lat="43.29831" lon="-1.46279">
        <ele>414.7</ele>
        <time>2022-09-04T07:52:49Z</time>
      </trkpt>
      <trkpt lat="43.29831" lon="-1.46279">
        <ele>414.7</ele>
        <time>2022-09-04T07:52:50Z</time>
      </trkpt>
      <trkpt lat="43.2983" lon="-1.46279">
        <ele>414.7</ele>
        <time>2022-09-04T07:52:51Z</time>
      </trkpt>
      <trkpt lat="43.29829" lon="-1.46279">
        <ele>414.7</ele>
        <time>2022-09-04T07:52:52Z</time>
      </trkpt>
      <trkpt lat="43.29828" lon="-1.46278">
        <ele>414.6</ele>
        <time>2022-09-04T07:52:53Z</time>
      </trkpt>
      <trkpt lat="43.29828" lon="-1.46278">
        <ele>414.6</ele>
        <time>2022-09-04T07:52:54Z</time>
      </trkpt>
      <trkpt lat="43.29827" lon="-1.46278">
        <ele>414.6</ele>
        <time>2022-09-04T07:52:55Z</time>
      </trkpt>
      <trkpt lat="43.29826" lon="-1.46277">
        <ele>414.6</ele>
        <time>2022-09-04T07:52:56Z</time>
      </trkpt>
      <trkpt lat="43.29825" lon="-1.46276">
        <ele>414.5</ele>
        <time>2022-09-04T07:52:57Z</time>
      </trkpt>
      <trkpt lat="43.29824" lon="-1.46276">
        <ele>414.4</ele>
        <time>2022-09-04T07:52:58Z</time>
      </trkpt>
      <trkpt lat="43.29822" lon="-1.46277">
        <ele>414.4</ele>
        <time>2022-09-04T07:52:59Z</time>
      </trkpt>
      <trkpt lat="43.2982" lon="-1.46277">
        <ele>414.3</ele>
        <time>2022-09-04T07:53:00Z</time>
      </trkpt>
      <trkpt lat="43.29816" lon="-1.46277">
        <ele>414</ele>
        <time>2022-09-04T07:53:02Z</time>
      </trkpt>
      <trkpt lat="43.29814" lon="-1.46277">
        <ele>413.8</ele>
        <time>2022-09-04T07:53:03Z</time>
      </trkpt>
      <trkpt lat="43.29812" lon="-1.46276">
        <ele>413.7</ele>
        <time>2022-09-04T07:53:04Z</time>
      </trkpt>
      <trkpt lat="43.29812" lon="-1.46276">
        <ele>413.7</ele>
        <time>2022-09-04T07:53:06Z</time>
      </trkpt>
      <trkpt lat="43.29812" lon="-1.46275">
        <ele>413.6</ele>
        <time>2022-09-04T07:53:07Z</time>
      </trkpt>
      <trkpt lat="43.29812" lon="-1.46275">
        <ele>413.6</ele>
        <time>2022-09-04T07:53:08Z</time>
      </trkpt>
      <trkpt lat="43.29813" lon="-1.46275">
        <ele>413.6</ele>
        <time>2022-09-04T07:53:09Z</time>
      </trkpt>
      <trkpt lat="43.29813" lon="-1.46275">
        <ele>413.6</ele>
        <time>2022-09-04T07:53:10Z</time>
      </trkpt>
      <trkpt lat="43.29813" lon="-1.46275">
        <ele>413.6</ele>
        <time>2022-09-04T07:53:11Z</time>
      </trkpt>
      <trkpt lat="43.29812" lon="-1.46275">
        <ele>413.6</ele>
        <time>2022-09-04T07:53:13Z</time>
      </trkpt>
      <trkpt lat="43.29812" lon="-1.46275">
        <ele>413.5</ele>
        <time>2022-09-04T07:53:14Z</time>
      </trkpt>
      <trkpt lat="43.29812" lon="-1.46276">
        <ele>413.5</ele>
        <time>2022-09-04T07:53:15Z</time>
      </trkpt>
      <trkpt lat="43.29812" lon="-1.46275">
        <ele>413.5</ele>
        <time>2022-09-04T07:53:16Z</time>
      </trkpt>
      <trkpt lat="43.29811" lon="-1.46275">
        <ele>413.4</ele>
        <time>2022-09-04T07:53:17Z</time>
      </trkpt>
      <trkpt lat="43.2981" lon="-1.46275">
        <ele>413.3</ele>
        <time>2022-09-04T07:53:18Z</time>
      </trkpt>
      <trkpt lat="43.29809" lon="-1.46275">
        <ele>413.3</ele>
        <time>2022-09-04T07:53:19Z</time>
      </trkpt>
      <trkpt lat="43.29809" lon="-1.46275">
        <ele>413.2</ele>
        <time>2022-09-04T07:53:20Z</time>
      </trkpt>
      <trkpt lat="43.29808" lon="-1.46275">
        <ele>413.2</ele>
        <time>2022-09-04T07:53:21Z</time>
      </trkpt>
      <trkpt lat="43.29808" lon="-1.46274">
        <ele>413.1</ele>
        <time>2022-09-04T07:53:22Z</time>
      </trkpt>
      <trkpt lat="43.29807" lon="-1.46273">
        <ele>413</ele>
        <time>2022-09-04T07:53:23Z</time>
      </trkpt>
      <trkpt lat="43.29805" lon="-1.46273">
        <ele>412.9</ele>
        <time>2022-09-04T07:53:24Z</time>
      </trkpt>
      <trkpt lat="43.29803" lon="-1.46272">
        <ele>412.7</ele>
        <time>2022-09-04T07:53:25Z</time>
      </trkpt>
      <trkpt lat="43.29802" lon="-1.46271">
        <ele>412.6</ele>
        <time>2022-09-04T07:53:26Z</time>
      </trkpt>
      <trkpt lat="43.29801" lon="-1.46271">
        <ele>412.5</ele>
        <time>2022-09-04T07:53:27Z</time>
      </trkpt>
      <trkpt lat="43.298" lon="-1.46271">
        <ele>412.5</ele>
        <time>2022-09-04T07:53:28Z</time>
      </trkpt>
      <trkpt lat="43.29801" lon="-1.4627">
        <ele>412.5</ele>
        <time>2022-09-04T07:53:29Z</time>
      </trkpt>
      <trkpt lat="43.29801" lon="-1.4627">
        <ele>412.5</ele>
        <time>2022-09-04T07:53:30Z</time>
      </trkpt>
      <trkpt lat="43.298" lon="-1.46271">
        <ele>412.4</ele>
        <time>2022-09-04T07:53:31Z</time>
      </trkpt>
      <trkpt lat="43.298" lon="-1.4627">
        <ele>412.4</ele>
        <time>2022-09-04T07:53:32Z</time>
      </trkpt>
      <trkpt lat="43.298" lon="-1.4627">
        <ele>412.4</ele>
        <time>2022-09-04T07:53:33Z</time>
      </trkpt>
      <trkpt lat="43.29799" lon="-1.4627">
        <ele>412.3</ele>
        <time>2022-09-04T07:53:34Z</time>
      </trkpt>
      <trkpt lat="43.29798" lon="-1.4627">
        <ele>412.2</ele>
        <time>2022-09-04T07:53:35Z</time>
      </trkpt>
      <trkpt lat="43.29798" lon="-1.46269">
        <ele>412.2</ele>
        <time>2022-09-04T07:53:36Z</time>
      </trkpt>
      <trkpt lat="43.29797" lon="-1.46269">
        <ele>412.1</ele>
        <time>2022-09-04T07:53:37Z</time>
      </trkpt>
      <trkpt lat="43.29797" lon="-1.46269">
        <ele>412.1</ele>
        <time>2022-09-04T07:53:38Z</time>
      </trkpt>
      <trkpt lat="43.29796" lon="-1.46269">
        <ele>412.1</ele>
        <time>2022-09-04T07:53:39Z</time>
      </trkpt>
      <trkpt lat="43.29796" lon="-1.46269">
        <ele>412</ele>
        <time>2022-09-04T07:53:40Z</time>
      </trkpt>
      <trkpt lat="43.29795" lon="-1.46268">
        <ele>412</ele>
        <time>2022-09-04T07:53:41Z</time>
      </trkpt>
      <trkpt lat="43.29795" lon="-1.46268">
        <ele>412</ele>
        <time>2022-09-04T07:53:42Z</time>
      </trkpt>
      <trkpt lat="43.29792" lon="-1.46267">
        <ele>411.7</ele>
        <time>2022-09-04T07:53:43Z</time>
      </trkpt>
      <trkpt lat="43.29792" lon="-1.46266">
        <ele>411.7</ele>
        <time>2022-09-04T07:53:44Z</time>
      </trkpt>
      <trkpt lat="43.2979" lon="-1.46266">
        <ele>411.5</ele>
        <time>2022-09-04T07:53:45Z</time>
      </trkpt>
      <trkpt lat="43.29789" lon="-1.46265">
        <ele>411.4</ele>
        <time>2022-09-04T07:53:46Z</time>
      </trkpt>
      <trkpt lat="43.29788" lon="-1.46265">
        <ele>411.3</ele>
        <time>2022-09-04T07:53:47Z</time>
      </trkpt>
      <trkpt lat="43.29787" lon="-1.46264">
        <ele>411.3</ele>
        <time>2022-09-04T07:53:49Z</time>
      </trkpt>
      <trkpt lat="43.29787" lon="-1.46264">
        <ele>411.2</ele>
        <time>2022-09-04T07:53:51Z</time>
      </trkpt>
      <trkpt lat="43.29786" lon="-1.46263">
        <ele>411.1</ele>
        <time>2022-09-04T07:53:52Z</time>
      </trkpt>
      <trkpt lat="43.29786" lon="-1.46262">
        <ele>411.1</ele>
        <time>2022-09-04T07:53:53Z</time>
      </trkpt>
      <trkpt lat="43.29786" lon="-1.46262">
        <ele>411</ele>
        <time>2022-09-04T07:53:54Z</time>
      </trkpt>
      <trkpt lat="43.29785" lon="-1.46261">
        <ele>410.9</ele>
        <time>2022-09-04T07:53:55Z</time>
      </trkpt>
      <trkpt lat="43.29784" lon="-1.46261">
        <ele>410.9</ele>
        <time>2022-09-04T07:53:56Z</time>
      </trkpt>
      <trkpt lat="43.29785" lon="-1.46261">
        <ele>410.9</ele>
        <time>2022-09-04T07:53:57Z</time>
      </trkpt>
      <trkpt lat="43.29785" lon="-1.46261">
        <ele>410.9</ele>
        <time>2022-09-04T07:53:58Z</time>
      </trkpt>
      <trkpt lat="43.29784" lon="-1.46261">
        <ele>410.8</ele>
        <time>2022-09-04T07:53:59Z</time>
      </trkpt>
      <trkpt lat="43.29783" lon="-1.4626">
        <ele>410.8</ele>
        <time>2022-09-04T07:54:00Z</time>
      </trkpt>
      <trkpt lat="43.29783" lon="-1.4626">
        <ele>410.7</ele>
        <time>2022-09-04T07:54:01Z</time>
      </trkpt>
      <trkpt lat="43.29783" lon="-1.4626">
        <ele>410.7</ele>
        <time>2022-09-04T07:54:02Z</time>
      </trkpt>
      <trkpt lat="43.29783" lon="-1.4626">
        <ele>410.7</ele>
        <time>2022-09-04T07:54:03Z</time>
      </trkpt>
      <trkpt lat="43.29782" lon="-1.46259">
        <ele>410.6</ele>
        <time>2022-09-04T07:54:04Z</time>
      </trkpt>
      <trkpt lat="43.29781" lon="-1.46259">
        <ele>410.5</ele>
        <time>2022-09-04T07:54:05Z</time>
      </trkpt>
      <trkpt lat="43.2978" lon="-1.46258">
        <ele>410.4</ele>
        <time>2022-09-04T07:54:06Z</time>
      </trkpt>
      <trkpt lat="43.29779" lon="-1.46257">
        <ele>410.3</ele>
        <time>2022-09-04T07:54:07Z</time>
      </trkpt>
      <trkpt lat="43.29778" lon="-1.46256">
        <ele>410.2</ele>
        <time>2022-09-04T07:54:08Z</time>
      </trkpt>
      <trkpt lat="43.29777" lon="-1.46256">
        <ele>410.1</ele>
        <time>2022-09-04T07:54:09Z</time>
      </trkpt>
      <trkpt lat="43.29777" lon="-1.46255">
        <ele>410</ele>
        <time>2022-09-04T07:54:10Z</time>
      </trkpt>
      <trkpt lat="43.29776" lon="-1.46255">
        <ele>410</ele>
        <time>2022-09-04T07:54:11Z</time>
      </trkpt>
      <trkpt lat="43.29776" lon="-1.46255">
        <ele>409.9</ele>
        <time>2022-09-04T07:54:12Z</time>
      </trkpt>
      <trkpt lat="43.29775" lon="-1.46254">
        <ele>409.9</ele>
        <time>2022-09-04T07:54:13Z</time>
      </trkpt>
      <trkpt lat="43.29775" lon="-1.46254">
        <ele>409.8</ele>
        <time>2022-09-04T07:54:14Z</time>
      </trkpt>
      <trkpt lat="43.29774" lon="-1.46254">
        <ele>409.8</ele>
        <time>2022-09-04T07:54:16Z</time>
      </trkpt>
      <trkpt lat="43.29774" lon="-1.46253">
        <ele>409.7</ele>
        <time>2022-09-04T07:54:17Z</time>
      </trkpt>
      <trkpt lat="43.29773" lon="-1.46253">
        <ele>409.7</ele>
        <time>2022-09-04T07:54:18Z</time>
      </trkpt>
      <trkpt lat="43.29773" lon="-1.46253">
        <ele>409.6</ele>
        <time>2022-09-04T07:54:19Z</time>
      </trkpt>
      <trkpt lat="43.2977" lon="-1.46251">
        <ele>409.3</ele>
        <time>2022-09-04T07:54:20Z</time>
      </trkpt>
      <trkpt lat="43.29769" lon="-1.4625">
        <ele>409.2</ele>
        <time>2022-09-04T07:54:21Z</time>
      </trkpt>
      <trkpt lat="43.29767" lon="-1.46249">
        <ele>409</ele>
        <time>2022-09-04T07:54:22Z</time>
      </trkpt>
      <trkpt lat="43.29766" lon="-1.46249">
        <ele>408.9</ele>
        <time>2022-09-04T07:54:23Z</time>
      </trkpt>
      <trkpt lat="43.29765" lon="-1.46249">
        <ele>408.8</ele>
        <time>2022-09-04T07:54:24Z</time>
      </trkpt>
      <trkpt lat="43.29763" lon="-1.46249">
        <ele>408.6</ele>
        <time>2022-09-04T07:54:25Z</time>
      </trkpt>
      <trkpt lat="43.29762" lon="-1.46249">
        <ele>408.4</ele>
        <time>2022-09-04T07:54:26Z</time>
      </trkpt>
      <trkpt lat="43.2976" lon="-1.46249">
        <ele>408.3</ele>
        <time>2022-09-04T07:54:27Z</time>
      </trkpt>
      <trkpt lat="43.29759" lon="-1.46248">
        <ele>408.2</ele>
        <time>2022-09-04T07:54:28Z</time>
      </trkpt>
      <trkpt lat="43.29758" lon="-1.46248">
        <ele>408.1</ele>
        <time>2022-09-04T07:54:29Z</time>
      </trkpt>
      <trkpt lat="43.29757" lon="-1.46248">
        <ele>408</ele>
        <time>2022-09-04T07:54:30Z</time>
      </trkpt>
      <trkpt lat="43.29754" lon="-1.46249">
        <ele>407.8</ele>
        <time>2022-09-04T07:54:31Z</time>
      </trkpt>
      <trkpt lat="43.29753" lon="-1.46249">
        <ele>407.7</ele>
        <time>2022-09-04T07:54:32Z</time>
      </trkpt>
      <trkpt lat="43.2975" lon="-1.46249">
        <ele>407.6</ele>
        <time>2022-09-04T07:54:33Z</time>
      </trkpt>
      <trkpt lat="43.29749" lon="-1.4625">
        <ele>407.5</ele>
        <time>2022-09-04T07:54:34Z</time>
      </trkpt>
      <trkpt lat="43.29745" lon="-1.4625">
        <ele>407.3</ele>
        <time>2022-09-04T07:54:35Z</time>
      </trkpt>
      <trkpt lat="43.29744" lon="-1.4625">
        <ele>407.2</ele>
        <time>2022-09-04T07:54:36Z</time>
      </trkpt>
      <trkpt lat="43.29741" lon="-1.46249">
        <ele>407.1</ele>
        <time>2022-09-04T07:54:37Z</time>
      </trkpt>
      <trkpt lat="43.2974" lon="-1.4625">
        <ele>407.1</ele>
        <time>2022-09-04T07:54:38Z</time>
      </trkpt>
      <trkpt lat="43.29736" lon="-1.46251">
        <ele>406.9</ele>
        <time>2022-09-04T07:54:39Z</time>
      </trkpt>
      <trkpt lat="43.29734" lon="-1.46251">
        <ele>406.8</ele>
        <time>2022-09-04T07:54:40Z</time>
      </trkpt>
      <trkpt lat="43.29731" lon="-1.46251">
        <ele>406.7</ele>
        <time>2022-09-04T07:54:41Z</time>
      </trkpt>
      <trkpt lat="43.29727" lon="-1.46251">
        <ele>406.6</ele>
        <time>2022-09-04T07:54:42Z</time>
      </trkpt>
      <trkpt lat="43.29726" lon="-1.46251">
        <ele>406.5</ele>
        <time>2022-09-04T07:54:43Z</time>
      </trkpt>
      <trkpt lat="43.29724" lon="-1.4625">
        <ele>406.5</ele>
        <time>2022-09-04T07:54:44Z</time>
      </trkpt>
      <trkpt lat="43.29724" lon="-1.4625">
        <ele>406.4</ele>
        <time>2022-09-04T07:54:45Z</time>
      </trkpt>
      <trkpt lat="43.29723" lon="-1.4625">
        <ele>406.4</ele>
        <time>2022-09-04T07:54:46Z</time>
      </trkpt>
      <trkpt lat="43.29723" lon="-1.4625">
        <ele>406.4</ele>
        <time>2022-09-04T07:54:47Z</time>
      </trkpt>
      <trkpt lat="43.29722" lon="-1.4625">
        <ele>406.4</ele>
        <time>2022-09-04T07:54:48Z</time>
      </trkpt>
      <trkpt lat="43.29719" lon="-1.4625">
        <ele>406.3</ele>
        <time>2022-09-04T07:54:49Z</time>
      </trkpt>
      <trkpt lat="43.29718" lon="-1.4625">
        <ele>406.3</ele>
        <time>2022-09-04T07:54:50Z</time>
      </trkpt>
      <trkpt lat="43.29714" lon="-1.46251">
        <ele>406.1</ele>
        <time>2022-09-04T07:54:51Z</time>
      </trkpt>
      <trkpt lat="43.29713" lon="-1.46251">
        <ele>406.1</ele>
        <time>2022-09-04T07:54:52Z</time>
      </trkpt>
      <trkpt lat="43.29709" lon="-1.46251">
        <ele>406</ele>
        <time>2022-09-04T07:54:53Z</time>
      </trkpt>
      <trkpt lat="43.29708" lon="-1.4625">
        <ele>405.9</ele>
        <time>2022-09-04T07:54:54Z</time>
      </trkpt>
      <trkpt lat="43.29705" lon="-1.46249">
        <ele>405.9</ele>
        <time>2022-09-04T07:54:55Z</time>
      </trkpt>
      <trkpt lat="43.29702" lon="-1.46248">
        <ele>405.8</ele>
        <time>2022-09-04T07:54:56Z</time>
      </trkpt>
      <trkpt lat="43.29701" lon="-1.46248">
        <ele>405.8</ele>
        <time>2022-09-04T07:54:57Z</time>
      </trkpt>
      <trkpt lat="43.29698" lon="-1.46247">
        <ele>405.8</ele>
        <time>2022-09-04T07:54:58Z</time>
      </trkpt>
      <trkpt lat="43.29697" lon="-1.46247">
        <ele>405.8</ele>
        <time>2022-09-04T07:54:59Z</time>
      </trkpt>
      <trkpt lat="43.29694" lon="-1.46246">
        <ele>405.8</ele>
        <time>2022-09-04T07:55:00Z</time>
      </trkpt>
      <trkpt lat="43.29692" lon="-1.46246">
        <ele>405.8</ele>
        <time>2022-09-04T07:55:01Z</time>
      </trkpt>
      <trkpt lat="43.2969" lon="-1.46245">
        <ele>405.8</ele>
        <time>2022-09-04T07:55:02Z</time>
      </trkpt>
      <trkpt lat="43.29688" lon="-1.46244">
        <ele>405.9</ele>
        <time>2022-09-04T07:55:03Z</time>
      </trkpt>
      <trkpt lat="43.29688" lon="-1.46244">
        <ele>405.9</ele>
        <time>2022-09-04T07:55:04Z</time>
      </trkpt>
      <trkpt lat="43.29689" lon="-1.46243">
        <ele>405.9</ele>
        <time>2022-09-04T07:55:05Z</time>
      </trkpt>
      <trkpt lat="43.29689" lon="-1.46244">
        <ele>405.9</ele>
        <time>2022-09-04T07:55:06Z</time>
      </trkpt>
      <trkpt lat="43.29689" lon="-1.46244">
        <ele>405.9</ele>
        <time>2022-09-04T07:55:07Z</time>
      </trkpt>
      <trkpt lat="43.29688" lon="-1.46243">
        <ele>405.9</ele>
        <time>2022-09-04T07:55:08Z</time>
      </trkpt>
      <trkpt lat="43.29687" lon="-1.46243">
        <ele>405.9</ele>
        <time>2022-09-04T07:55:09Z</time>
      </trkpt>
      <trkpt lat="43.29686" lon="-1.46243">
        <ele>405.9</ele>
        <time>2022-09-04T07:55:10Z</time>
      </trkpt>
      <trkpt lat="43.29686" lon="-1.46243">
        <ele>405.9</ele>
        <time>2022-09-04T07:55:11Z</time>
      </trkpt>
      <trkpt lat="43.29686" lon="-1.46243">
        <ele>405.9</ele>
        <time>2022-09-04T07:55:12Z</time>
      </trkpt>
      <trkpt lat="43.29686" lon="-1.46243">
        <ele>405.9</ele>
        <time>2022-09-04T07:55:13Z</time>
      </trkpt>
      <trkpt lat="43.29684" lon="-1.46242">
        <ele>405.9</ele>
        <time>2022-09-04T07:55:14Z</time>
      </trkpt>
      <trkpt lat="43.29681" lon="-1.4624">
        <ele>406</ele>
        <time>2022-09-04T07:55:15Z</time>
      </trkpt>
      <trkpt lat="43.29681" lon="-1.4624">
        <ele>406</ele>
        <time>2022-09-04T07:55:16Z</time>
      </trkpt>
      <trkpt lat="43.29679" lon="-1.46239">
        <ele>406</ele>
        <time>2022-09-04T07:55:17Z</time>
      </trkpt>
      <trkpt lat="43.29677" lon="-1.46239">
        <ele>406.1</ele>
        <time>2022-09-04T07:55:18Z</time>
      </trkpt>
      <trkpt lat="43.29675" lon="-1.46237">
        <ele>406.1</ele>
        <time>2022-09-04T07:55:19Z</time>
      </trkpt>
      <trkpt lat="43.29674" lon="-1.46237">
        <ele>406.1</ele>
        <time>2022-09-04T07:55:20Z</time>
      </trkpt>
      <trkpt lat="43.29672" lon="-1.46236">
        <ele>406.2</ele>
        <time>2022-09-04T07:55:21Z</time>
      </trkpt>
      <trkpt lat="43.29671" lon="-1.46235">
        <ele>406.2</ele>
        <time>2022-09-04T07:55:22Z</time>
      </trkpt>
      <trkpt lat="43.29668" lon="-1.46233">
        <ele>406.2</ele>
        <time>2022-09-04T07:55:23Z</time>
      </trkpt>
      <trkpt lat="43.29667" lon="-1.46232">
        <ele>406.2</ele>
        <time>2022-09-04T07:55:24Z</time>
      </trkpt>
      <trkpt lat="43.29664" lon="-1.4623">
        <ele>406.3</ele>
        <time>2022-09-04T07:55:25Z</time>
      </trkpt>
      <trkpt lat="43.29663" lon="-1.46229">
        <ele>406.3</ele>
        <time>2022-09-04T07:55:26Z</time>
      </trkpt>
      <trkpt lat="43.2966" lon="-1.46227">
        <ele>406.3</ele>
        <time>2022-09-04T07:55:27Z</time>
      </trkpt>
      <trkpt lat="43.29658" lon="-1.46227">
        <ele>406.3</ele>
        <time>2022-09-04T07:55:28Z</time>
      </trkpt>
      <trkpt lat="43.29655" lon="-1.46224">
        <ele>406.3</ele>
        <time>2022-09-04T07:55:29Z</time>
      </trkpt>
      <trkpt lat="43.29654" lon="-1.46223">
        <ele>406.3</ele>
        <time>2022-09-04T07:55:30Z</time>
      </trkpt>
      <trkpt lat="43.29652" lon="-1.46221">
        <ele>406.3</ele>
        <time>2022-09-04T07:55:31Z</time>
      </trkpt>
      <trkpt lat="43.29651" lon="-1.46221">
        <ele>406.3</ele>
        <time>2022-09-04T07:55:32Z</time>
      </trkpt>
      <trkpt lat="43.29649" lon="-1.46219">
        <ele>406.3</ele>
        <time>2022-09-04T07:55:33Z</time>
      </trkpt>
      <trkpt lat="43.29648" lon="-1.46218">
        <ele>406.3</ele>
        <time>2022-09-04T07:55:34Z</time>
      </trkpt>
      <trkpt lat="43.29647" lon="-1.46217">
        <ele>406.3</ele>
        <time>2022-09-04T07:55:35Z</time>
      </trkpt>
      <trkpt lat="43.29645" lon="-1.46216">
        <ele>406.3</ele>
        <time>2022-09-04T07:55:36Z</time>
      </trkpt>
      <trkpt lat="43.29643" lon="-1.46214">
        <ele>406.3</ele>
        <time>2022-09-04T07:55:37Z</time>
      </trkpt>
      <trkpt lat="43.29642" lon="-1.46213">
        <ele>406.3</ele>
        <time>2022-09-04T07:55:38Z</time>
      </trkpt>
      <trkpt lat="43.29641" lon="-1.46212">
        <ele>406.3</ele>
        <time>2022-09-04T07:55:39Z</time>
      </trkpt>
      <trkpt lat="43.29639" lon="-1.4621">
        <ele>406.3</ele>
        <time>2022-09-04T07:55:40Z</time>
      </trkpt>
      <trkpt lat="43.29637" lon="-1.46208">
        <ele>406.3</ele>
        <time>2022-09-04T07:55:41Z</time>
      </trkpt>
      <trkpt lat="43.29636" lon="-1.46208">
        <ele>406.3</ele>
        <time>2022-09-04T07:55:42Z</time>
      </trkpt>
      <trkpt lat="43.29635" lon="-1.46206">
        <ele>406.3</ele>
        <time>2022-09-04T07:55:43Z</time>
      </trkpt>
      <trkpt lat="43.29634" lon="-1.46204">
        <ele>406.3</ele>
        <time>2022-09-04T07:55:44Z</time>
      </trkpt>
      <trkpt lat="43.29632" lon="-1.46201">
        <ele>406.4</ele>
        <time>2022-09-04T07:55:45Z</time>
      </trkpt>
      <trkpt lat="43.29631" lon="-1.46201">
        <ele>406.4</ele>
        <time>2022-09-04T07:55:46Z</time>
      </trkpt>
      <trkpt lat="43.29629" lon="-1.46198">
        <ele>406.4</ele>
        <time>2022-09-04T07:55:47Z</time>
      </trkpt>
      <trkpt lat="43.29628" lon="-1.46197">
        <ele>406.4</ele>
        <time>2022-09-04T07:55:48Z</time>
      </trkpt>
      <trkpt lat="43.29626" lon="-1.46195">
        <ele>406.6</ele>
        <time>2022-09-04T07:55:49Z</time>
      </trkpt>
      <trkpt lat="43.29625" lon="-1.46194">
        <ele>406.6</ele>
        <time>2022-09-04T07:55:50Z</time>
      </trkpt>
      <trkpt lat="43.29623" lon="-1.46191">
        <ele>406.8</ele>
        <time>2022-09-04T07:55:51Z</time>
      </trkpt>
      <trkpt lat="43.29622" lon="-1.4619">
        <ele>406.8</ele>
        <time>2022-09-04T07:55:52Z</time>
      </trkpt>
      <trkpt lat="43.2962" lon="-1.46186">
        <ele>406.9</ele>
        <time>2022-09-04T07:55:53Z</time>
      </trkpt>
      <trkpt lat="43.29619" lon="-1.46185">
        <ele>406.9</ele>
        <time>2022-09-04T07:55:54Z</time>
      </trkpt>
      <trkpt lat="43.29617" lon="-1.46183">
        <ele>406.9</ele>
        <time>2022-09-04T07:55:55Z</time>
      </trkpt>
      <trkpt lat="43.29616" lon="-1.46182">
        <ele>407</ele>
        <time>2022-09-04T07:55:56Z</time>
      </trkpt>
      <trkpt lat="43.29615" lon="-1.46179">
        <ele>406.9</ele>
        <time>2022-09-04T07:55:57Z</time>
      </trkpt>
      <trkpt lat="43.29615" lon="-1.46178">
        <ele>406.9</ele>
        <time>2022-09-04T07:55:58Z</time>
      </trkpt>
      <trkpt lat="43.29615" lon="-1.46177">
        <ele>406.9</ele>
        <time>2022-09-04T07:55:59Z</time>
      </trkpt>
      <trkpt lat="43.29616" lon="-1.46177">
        <ele>406.9</ele>
        <time>2022-09-04T07:56:00Z</time>
      </trkpt>
      <trkpt lat="43.29616" lon="-1.46177">
        <ele>406.9</ele>
        <time>2022-09-04T07:56:01Z</time>
      </trkpt>
      <trkpt lat="43.29616" lon="-1.46177">
        <ele>406.9</ele>
        <time>2022-09-04T07:56:02Z</time>
      </trkpt>
      <trkpt lat="43.29616" lon="-1.46177">
        <ele>406.9</ele>
        <time>2022-09-04T07:56:03Z</time>
      </trkpt>
      <trkpt lat="43.29616" lon="-1.46177">
        <ele>406.9</ele>
        <time>2022-09-04T07:56:04Z</time>
      </trkpt>
      <trkpt lat="43.29616" lon="-1.46177">
        <ele>406.9</ele>
        <time>2022-09-04T07:56:05Z</time>
      </trkpt>
      <trkpt lat="43.29616" lon="-1.46177">
        <ele>406.9</ele>
        <time>2022-09-04T07:56:06Z</time>
      </trkpt>
      <trkpt lat="43.29616" lon="-1.46177">
        <ele>406.9</ele>
        <time>2022-09-04T07:56:07Z</time>
      </trkpt>
      <trkpt lat="43.29616" lon="-1.46177">
        <ele>406.9</ele>
        <time>2022-09-04T07:56:08Z</time>
      </trkpt>
      <trkpt lat="43.29616" lon="-1.46177">
        <ele>406.9</ele>
        <time>2022-09-04T07:56:09Z</time>
      </trkpt>
      <trkpt lat="43.29615" lon="-1.46173">
        <ele>406.9</ele>
        <time>2022-09-04T07:57:01Z</time>
      </trkpt>
      <trkpt lat="43.29616" lon="-1.46171">
        <ele>406.8</ele>
        <time>2022-09-04T07:57:02Z</time>
      </trkpt>
      <trkpt lat="43.29616" lon="-1.46169">
        <ele>406.8</ele>
        <time>2022-09-04T07:57:03Z</time>
      </trkpt>
      <trkpt lat="43.29616" lon="-1.46167">
        <ele>406.8</ele>
        <time>2022-09-04T07:57:04Z</time>
      </trkpt>
      <trkpt lat="43.29615" lon="-1.46165">
        <ele>406.7</ele>
        <time>2022-09-04T07:57:05Z</time>
      </trkpt>
      <trkpt lat="43.29614" lon="-1.46161">
        <ele>406.7</ele>
        <time>2022-09-04T07:57:06Z</time>
      </trkpt>
      <trkpt lat="43.29613" lon="-1.46156">
        <ele>406.6</ele>
        <time>2022-09-04T07:57:07Z</time>
      </trkpt>
      <trkpt lat="43.29612" lon="-1.46152">
        <ele>406.6</ele>
        <time>2022-09-04T07:57:08Z</time>
      </trkpt>
      <trkpt lat="43.29613" lon="-1.46148">
        <ele>406.6</ele>
        <time>2022-09-04T07:57:09Z</time>
      </trkpt>
      <trkpt lat="43.29614" lon="-1.46143">
        <ele>406.7</ele>
        <time>2022-09-04T07:57:10Z</time>
      </trkpt>
      <trkpt lat="43.29614" lon="-1.46141">
        <ele>406.7</ele>
        <time>2022-09-04T07:57:11Z</time>
      </trkpt>
      <trkpt lat="43.29616" lon="-1.46136">
        <ele>406.8</ele>
        <time>2022-09-04T07:57:12Z</time>
      </trkpt>
      <trkpt lat="43.29616" lon="-1.46135">
        <ele>406.9</ele>
        <time>2022-09-04T07:57:13Z</time>
      </trkpt>
      <trkpt lat="43.29617" lon="-1.4613">
        <ele>407.1</ele>
        <time>2022-09-04T07:57:14Z</time>
      </trkpt>
      <trkpt lat="43.29617" lon="-1.46128">
        <ele>407.1</ele>
        <time>2022-09-04T07:57:15Z</time>
      </trkpt>
      <trkpt lat="43.29619" lon="-1.46124">
        <ele>407.4</ele>
        <time>2022-09-04T07:57:16Z</time>
      </trkpt>
      <trkpt lat="43.2962" lon="-1.46122">
        <ele>407.5</ele>
        <time>2022-09-04T07:57:17Z</time>
      </trkpt>
      <trkpt lat="43.29622" lon="-1.4612">
        <ele>407.8</ele>
        <time>2022-09-04T07:57:18Z</time>
      </trkpt>
      <trkpt lat="43.29623" lon="-1.46117">
        <ele>408</ele>
        <time>2022-09-04T07:57:19Z</time>
      </trkpt>
      <trkpt lat="43.29625" lon="-1.46112">
        <ele>408.5</ele>
        <time>2022-09-04T07:57:20Z</time>
      </trkpt>
      <trkpt lat="43.29626" lon="-1.4611">
        <ele>408.6</ele>
        <time>2022-09-04T07:57:21Z</time>
      </trkpt>
      <trkpt lat="43.29627" lon="-1.46107">
        <ele>409</ele>
        <time>2022-09-04T07:57:22Z</time>
      </trkpt>
      <trkpt lat="43.29628" lon="-1.46103">
        <ele>409.3</ele>
        <time>2022-09-04T07:57:23Z</time>
      </trkpt>
      <trkpt lat="43.2963" lon="-1.46099">
        <ele>409.7</ele>
        <time>2022-09-04T07:57:24Z</time>
      </trkpt>
      <trkpt lat="43.2963" lon="-1.46097">
        <ele>409.9</ele>
        <time>2022-09-04T07:57:25Z</time>
      </trkpt>
      <trkpt lat="43.29632" lon="-1.46093">
        <ele>410.3</ele>
        <time>2022-09-04T07:57:26Z</time>
      </trkpt>
      <trkpt lat="43.29632" lon="-1.46091">
        <ele>410.4</ele>
        <time>2022-09-04T07:57:27Z</time>
      </trkpt>
      <trkpt lat="43.29634" lon="-1.46088">
        <ele>410.8</ele>
        <time>2022-09-04T07:57:28Z</time>
      </trkpt>
      <trkpt lat="43.29634" lon="-1.46087">
        <ele>410.9</ele>
        <time>2022-09-04T07:57:29Z</time>
      </trkpt>
      <trkpt lat="43.29635" lon="-1.46086">
        <ele>411</ele>
        <time>2022-09-04T07:57:30Z</time>
      </trkpt>
      <trkpt lat="43.29635" lon="-1.46086">
        <ele>411</ele>
        <time>2022-09-04T07:57:31Z</time>
      </trkpt>
      <trkpt lat="43.29636" lon="-1.46086">
        <ele>411</ele>
        <time>2022-09-04T07:57:32Z</time>
      </trkpt>
      <trkpt lat="43.29636" lon="-1.46085">
        <ele>411.1</ele>
        <time>2022-09-04T07:57:33Z</time>
      </trkpt>
      <trkpt lat="43.29636" lon="-1.46085">
        <ele>411.1</ele>
        <time>2022-09-04T07:57:34Z</time>
      </trkpt>
      <trkpt lat="43.29636" lon="-1.46085">
        <ele>411.2</ele>
        <time>2022-09-04T07:57:35Z</time>
      </trkpt>
      <trkpt lat="43.29637" lon="-1.46084">
        <ele>411.2</ele>
        <time>2022-09-04T07:57:36Z</time>
      </trkpt>
      <trkpt lat="43.29637" lon="-1.46083">
        <ele>411.3</ele>
        <time>2022-09-04T07:57:37Z</time>
      </trkpt>
      <trkpt lat="43.29637" lon="-1.46082">
        <ele>411.4</ele>
        <time>2022-09-04T07:57:38Z</time>
      </trkpt>
      <trkpt lat="43.29637" lon="-1.46081">
        <ele>411.5</ele>
        <time>2022-09-04T07:57:39Z</time>
      </trkpt>
      <trkpt lat="43.29637" lon="-1.4608">
        <ele>411.6</ele>
        <time>2022-09-04T07:57:40Z</time>
      </trkpt>
      <trkpt lat="43.29637" lon="-1.46079">
        <ele>411.6</ele>
        <time>2022-09-04T07:57:41Z</time>
      </trkpt>
      <trkpt lat="43.29637" lon="-1.46077">
        <ele>411.8</ele>
        <time>2022-09-04T07:57:42Z</time>
      </trkpt>
      <trkpt lat="43.29638" lon="-1.46073">
        <ele>412</ele>
        <time>2022-09-04T07:57:43Z</time>
      </trkpt>
      <trkpt lat="43.29638" lon="-1.46072">
        <ele>412.1</ele>
        <time>2022-09-04T07:57:44Z</time>
      </trkpt>
      <trkpt lat="43.29639" lon="-1.46068">
        <ele>412.4</ele>
        <time>2022-09-04T07:57:45Z</time>
      </trkpt>
      <trkpt lat="43.29639" lon="-1.46066">
        <ele>412.5</ele>
        <time>2022-09-04T07:57:46Z</time>
      </trkpt>
      <trkpt lat="43.29639" lon="-1.46064">
        <ele>412.6</ele>
        <time>2022-09-04T07:57:47Z</time>
      </trkpt>
      <trkpt lat="43.29639" lon="-1.46061">
        <ele>412.8</ele>
        <time>2022-09-04T07:57:48Z</time>
      </trkpt>
      <trkpt lat="43.29639" lon="-1.46059">
        <ele>412.9</ele>
        <time>2022-09-04T07:57:49Z</time>
      </trkpt>
      <trkpt lat="43.29638" lon="-1.46057">
        <ele>413.1</ele>
        <time>2022-09-04T07:57:50Z</time>
      </trkpt>
      <trkpt lat="43.29638" lon="-1.46054">
        <ele>413.3</ele>
        <time>2022-09-04T07:57:51Z</time>
      </trkpt>
      <trkpt lat="43.29638" lon="-1.46053">
        <ele>413.3</ele>
        <time>2022-09-04T07:57:52Z</time>
      </trkpt>
      <trkpt lat="43.29638" lon="-1.46051">
        <ele>413.4</ele>
        <time>2022-09-04T07:57:53Z</time>
      </trkpt>
      <trkpt lat="43.29637" lon="-1.46048">
        <ele>413.6</ele>
        <time>2022-09-04T07:57:54Z</time>
      </trkpt>
      <trkpt lat="43.29636" lon="-1.46046">
        <ele>413.7</ele>
        <time>2022-09-04T07:57:55Z</time>
      </trkpt>
      <trkpt lat="43.29635" lon="-1.46043">
        <ele>413.9</ele>
        <time>2022-09-04T07:57:56Z</time>
      </trkpt>
      <trkpt lat="43.29634" lon="-1.46042">
        <ele>414</ele>
        <time>2022-09-04T07:57:57Z</time>
      </trkpt>
      <trkpt lat="43.29633" lon="-1.46038">
        <ele>414.2</ele>
        <time>2022-09-04T07:57:58Z</time>
      </trkpt>
      <trkpt lat="43.29632" lon="-1.46034">
        <ele>414.4</ele>
        <time>2022-09-04T07:57:59Z</time>
      </trkpt>
      <trkpt lat="43.2963" lon="-1.4603">
        <ele>414.7</ele>
        <time>2022-09-04T07:58:00Z</time>
      </trkpt>
      <trkpt lat="43.29628" lon="-1.46025">
        <ele>414.9</ele>
        <time>2022-09-04T07:58:01Z</time>
      </trkpt>
      <trkpt lat="43.29627" lon="-1.46021">
        <ele>415.1</ele>
        <time>2022-09-04T07:58:02Z</time>
      </trkpt>
      <trkpt lat="43.29625" lon="-1.46017">
        <ele>415.2</ele>
        <time>2022-09-04T07:58:03Z</time>
      </trkpt>
      <trkpt lat="43.29624" lon="-1.46013">
        <ele>415.4</ele>
        <time>2022-09-04T07:58:04Z</time>
      </trkpt>
      <trkpt lat="43.29623" lon="-1.46009">
        <ele>415.5</ele>
        <time>2022-09-04T07:58:05Z</time>
      </trkpt>
      <trkpt lat="43.29622" lon="-1.46004">
        <ele>415.7</ele>
        <time>2022-09-04T07:58:06Z</time>
      </trkpt>
      <trkpt lat="43.29622" lon="-1.46003">
        <ele>415.7</ele>
        <time>2022-09-04T07:58:07Z</time>
      </trkpt>
      <trkpt lat="43.29621" lon="-1.45999">
        <ele>415.8</ele>
        <time>2022-09-04T07:58:08Z</time>
      </trkpt>
      <trkpt lat="43.2962" lon="-1.45997">
        <ele>415.9</ele>
        <time>2022-09-04T07:58:09Z</time>
      </trkpt>
      <trkpt lat="43.29619" lon="-1.45994">
        <ele>416</ele>
        <time>2022-09-04T07:58:10Z</time>
      </trkpt>
      <trkpt lat="43.29619" lon="-1.45993">
        <ele>416</ele>
        <time>2022-09-04T07:58:11Z</time>
      </trkpt>
      <trkpt lat="43.29618" lon="-1.45988">
        <ele>416.1</ele>
        <time>2022-09-04T07:58:12Z</time>
      </trkpt>
      <trkpt lat="43.29618" lon="-1.45987">
        <ele>416.2</ele>
        <time>2022-09-04T07:58:13Z</time>
      </trkpt>
      <trkpt lat="43.29618" lon="-1.45984">
        <ele>416.3</ele>
        <time>2022-09-04T07:58:14Z</time>
      </trkpt>
      <trkpt lat="43.29618" lon="-1.45982">
        <ele>416.3</ele>
        <time>2022-09-04T07:58:15Z</time>
      </trkpt>
      <trkpt lat="43.29618" lon="-1.4598">
        <ele>416.4</ele>
        <time>2022-09-04T07:58:16Z</time>
      </trkpt>
      <trkpt lat="43.29617" lon="-1.45978">
        <ele>416.4</ele>
        <time>2022-09-04T07:58:17Z</time>
      </trkpt>
      <trkpt lat="43.29616" lon="-1.45974">
        <ele>416.6</ele>
        <time>2022-09-04T07:58:18Z</time>
      </trkpt>
      <trkpt lat="43.29616" lon="-1.45972">
        <ele>416.6</ele>
        <time>2022-09-04T07:58:19Z</time>
      </trkpt>
      <trkpt lat="43.29614" lon="-1.45967">
        <ele>416.8</ele>
        <time>2022-09-04T07:58:20Z</time>
      </trkpt>
      <trkpt lat="43.29614" lon="-1.45966">
        <ele>416.8</ele>
        <time>2022-09-04T07:58:21Z</time>
      </trkpt>
      <trkpt lat="43.29612" lon="-1.45961">
        <ele>417</ele>
        <time>2022-09-04T07:58:22Z</time>
      </trkpt>
      <trkpt lat="43.29612" lon="-1.45959">
        <ele>417</ele>
        <time>2022-09-04T07:58:23Z</time>
      </trkpt>
      <trkpt lat="43.2961" lon="-1.45955">
        <ele>417.2</ele>
        <time>2022-09-04T07:58:24Z</time>
      </trkpt>
      <trkpt lat="43.29609" lon="-1.45952">
        <ele>417.3</ele>
        <time>2022-09-04T07:58:25Z</time>
      </trkpt>
      <trkpt lat="43.29608" lon="-1.45947">
        <ele>417.5</ele>
        <time>2022-09-04T07:58:26Z</time>
      </trkpt>
      <trkpt lat="43.29607" lon="-1.45943">
        <ele>417.6</ele>
        <time>2022-09-04T07:58:27Z</time>
      </trkpt>
      <trkpt lat="43.29606" lon="-1.4594">
        <ele>417.8</ele>
        <time>2022-09-04T07:58:28Z</time>
      </trkpt>
      <trkpt lat="43.29605" lon="-1.45936">
        <ele>418</ele>
        <time>2022-09-04T07:58:29Z</time>
      </trkpt>
      <trkpt lat="43.29603" lon="-1.45932">
        <ele>418.2</ele>
        <time>2022-09-04T07:58:30Z</time>
      </trkpt>
      <trkpt lat="43.29602" lon="-1.45931">
        <ele>418.3</ele>
        <time>2022-09-04T07:58:31Z</time>
      </trkpt>
      <trkpt lat="43.29601" lon="-1.45927">
        <ele>418.5</ele>
        <time>2022-09-04T07:58:32Z</time>
      </trkpt>
      <trkpt lat="43.296" lon="-1.45926">
        <ele>418.6</ele>
        <time>2022-09-04T07:58:33Z</time>
      </trkpt>
      <trkpt lat="43.29599" lon="-1.45922">
        <ele>418.8</ele>
        <time>2022-09-04T07:58:34Z</time>
      </trkpt>
      <trkpt lat="43.29598" lon="-1.4592">
        <ele>418.9</ele>
        <time>2022-09-04T07:58:35Z</time>
      </trkpt>
      <trkpt lat="43.29597" lon="-1.45916">
        <ele>419.1</ele>
        <time>2022-09-04T07:58:36Z</time>
      </trkpt>
      <trkpt lat="43.29597" lon="-1.45915">
        <ele>419.2</ele>
        <time>2022-09-04T07:58:37Z</time>
      </trkpt>
      <trkpt lat="43.29597" lon="-1.45911">
        <ele>419.4</ele>
        <time>2022-09-04T07:58:38Z</time>
      </trkpt>
      <trkpt lat="43.29597" lon="-1.4591">
        <ele>419.5</ele>
        <time>2022-09-04T07:58:39Z</time>
      </trkpt>
      <trkpt lat="43.29597" lon="-1.45908">
        <ele>419.6</ele>
        <time>2022-09-04T07:58:40Z</time>
      </trkpt>
      <trkpt lat="43.29598" lon="-1.45906">
        <ele>419.7</ele>
        <time>2022-09-04T07:58:41Z</time>
      </trkpt>
      <trkpt lat="43.29599" lon="-1.45904">
        <ele>419.8</ele>
        <time>2022-09-04T07:58:42Z</time>
      </trkpt>
      <trkpt lat="43.296" lon="-1.45903">
        <ele>419.8</ele>
        <time>2022-09-04T07:58:43Z</time>
      </trkpt>
      <trkpt lat="43.296" lon="-1.45902">
        <ele>419.8</ele>
        <time>2022-09-04T07:58:44Z</time>
      </trkpt>
      <trkpt lat="43.29601" lon="-1.45902">
        <ele>419.9</ele>
        <time>2022-09-04T07:58:45Z</time>
      </trkpt>
      <trkpt lat="43.29601" lon="-1.45901">
        <ele>419.9</ele>
        <time>2022-09-04T07:58:46Z</time>
      </trkpt>
      <trkpt lat="43.29602" lon="-1.45901">
        <ele>419.9</ele>
        <time>2022-09-04T07:58:47Z</time>
      </trkpt>
      <trkpt lat="43.29602" lon="-1.45901">
        <ele>419.9</ele>
        <time>2022-09-04T07:58:48Z</time>
      </trkpt>
      <trkpt lat="43.29602" lon="-1.45901">
        <ele>419.9</ele>
        <time>2022-09-04T07:58:49Z</time>
      </trkpt>
      <trkpt lat="43.29603" lon="-1.459">
        <ele>420</ele>
        <time>2022-09-04T07:58:50Z</time>
      </trkpt>
      <trkpt lat="43.29604" lon="-1.45897">
        <ele>420</ele>
        <time>2022-09-04T07:58:51Z</time>
      </trkpt>
      <trkpt lat="43.29605" lon="-1.45896">
        <ele>420</ele>
        <time>2022-09-04T07:58:52Z</time>
      </trkpt>
      <trkpt lat="43.29606" lon="-1.45895">
        <ele>420.1</ele>
        <time>2022-09-04T07:58:53Z</time>
      </trkpt>
      <trkpt lat="43.29608" lon="-1.45892">
        <ele>420.1</ele>
        <time>2022-09-04T07:58:54Z</time>
      </trkpt>
      <trkpt lat="43.29609" lon="-1.45891">
        <ele>420.1</ele>
        <time>2022-09-04T07:58:55Z</time>
      </trkpt>
      <trkpt lat="43.29611" lon="-1.45887">
        <ele>420.2</ele>
        <time>2022-09-04T07:58:56Z</time>
      </trkpt>
      <trkpt lat="43.29612" lon="-1.45886">
        <ele>420.2</ele>
        <time>2022-09-04T07:58:57Z</time>
      </trkpt>
      <trkpt lat="43.29614" lon="-1.45883">
        <ele>420.2</ele>
        <time>2022-09-04T07:58:58Z</time>
      </trkpt>
      <trkpt lat="43.29615" lon="-1.45881">
        <ele>420.3</ele>
        <time>2022-09-04T07:58:59Z</time>
      </trkpt>
      <trkpt lat="43.29617" lon="-1.45879">
        <ele>420.3</ele>
        <time>2022-09-04T07:59:00Z</time>
      </trkpt>
      <trkpt lat="43.2962" lon="-1.45876">
        <ele>420.3</ele>
        <time>2022-09-04T07:59:01Z</time>
      </trkpt>
      <trkpt lat="43.29622" lon="-1.45872">
        <ele>420.4</ele>
        <time>2022-09-04T07:59:02Z</time>
      </trkpt>
      <trkpt lat="43.29625" lon="-1.45869">
        <ele>420.4</ele>
        <time>2022-09-04T07:59:03Z</time>
      </trkpt>
      <trkpt lat="43.29628" lon="-1.45866">
        <ele>420.6</ele>
        <time>2022-09-04T07:59:04Z</time>
      </trkpt>
      <trkpt lat="43.29631" lon="-1.45862">
        <ele>420.7</ele>
        <time>2022-09-04T07:59:05Z</time>
      </trkpt>
      <trkpt lat="43.29634" lon="-1.45859">
        <ele>420.9</ele>
        <time>2022-09-04T07:59:06Z</time>
      </trkpt>
      <trkpt lat="43.29636" lon="-1.45856">
        <ele>421</ele>
        <time>2022-09-04T07:59:07Z</time>
      </trkpt>
      <trkpt lat="43.29639" lon="-1.45853">
        <ele>421.2</ele>
        <time>2022-09-04T07:59:08Z</time>
      </trkpt>
      <trkpt lat="43.29642" lon="-1.45849">
        <ele>421.3</ele>
        <time>2022-09-04T07:59:09Z</time>
      </trkpt>
      <trkpt lat="43.29646" lon="-1.45844">
        <ele>421.5</ele>
        <time>2022-09-04T07:59:10Z</time>
      </trkpt>
      <trkpt lat="43.29649" lon="-1.4584">
        <ele>421.6</ele>
        <time>2022-09-04T07:59:11Z</time>
      </trkpt>
      <trkpt lat="43.29652" lon="-1.45836">
        <ele>421.7</ele>
        <time>2022-09-04T07:59:12Z</time>
      </trkpt>
      <trkpt lat="43.29657" lon="-1.4583">
        <ele>421.8</ele>
        <time>2022-09-04T07:59:13Z</time>
      </trkpt>
      <trkpt lat="43.29661" lon="-1.45824">
        <ele>421.9</ele>
        <time>2022-09-04T07:59:14Z</time>
      </trkpt>
      <trkpt lat="43.29667" lon="-1.45818">
        <ele>422</ele>
        <time>2022-09-04T07:59:15Z</time>
      </trkpt>
      <trkpt lat="43.29673" lon="-1.45814">
        <ele>422</ele>
        <time>2022-09-04T07:59:16Z</time>
      </trkpt>
      <trkpt lat="43.29678" lon="-1.4581">
        <ele>422</ele>
        <time>2022-09-04T07:59:17Z</time>
      </trkpt>
      <trkpt lat="43.29685" lon="-1.45806">
        <ele>422</ele>
        <time>2022-09-04T07:59:18Z</time>
      </trkpt>
      <trkpt lat="43.29691" lon="-1.45804">
        <ele>422</ele>
        <time>2022-09-04T07:59:19Z</time>
      </trkpt>
      <trkpt lat="43.29697" lon="-1.45802">
        <ele>422.1</ele>
        <time>2022-09-04T07:59:20Z</time>
      </trkpt>
      <trkpt lat="43.29704" lon="-1.458">
        <ele>422.2</ele>
        <time>2022-09-04T07:59:21Z</time>
      </trkpt>
      <trkpt lat="43.29708" lon="-1.45798">
        <ele>422.3</ele>
        <time>2022-09-04T07:59:22Z</time>
      </trkpt>
      <trkpt lat="43.2971" lon="-1.45796">
        <ele>422.4</ele>
        <time>2022-09-04T07:59:23Z</time>
      </trkpt>
      <trkpt lat="43.29711" lon="-1.45792">
        <ele>422.5</ele>
        <time>2022-09-04T07:59:24Z</time>
      </trkpt>
      <trkpt lat="43.29711" lon="-1.4579">
        <ele>422.6</ele>
        <time>2022-09-04T07:59:25Z</time>
      </trkpt>
      <trkpt lat="43.2971" lon="-1.45785">
        <ele>422.8</ele>
        <time>2022-09-04T07:59:26Z</time>
      </trkpt>
      <trkpt lat="43.2971" lon="-1.45783">
        <ele>422.8</ele>
        <time>2022-09-04T07:59:27Z</time>
      </trkpt>
      <trkpt lat="43.29709" lon="-1.45778">
        <ele>423.1</ele>
        <time>2022-09-04T07:59:28Z</time>
      </trkpt>
      <trkpt lat="43.29709" lon="-1.45776">
        <ele>423.1</ele>
        <time>2022-09-04T07:59:29Z</time>
      </trkpt>
      <trkpt lat="43.2971" lon="-1.45772">
        <ele>423.4</ele>
        <time>2022-09-04T07:59:30Z</time>
      </trkpt>
      <trkpt lat="43.2971" lon="-1.4577">
        <ele>423.5</ele>
        <time>2022-09-04T07:59:31Z</time>
      </trkpt>
      <trkpt lat="43.29711" lon="-1.45765">
        <ele>423.8</ele>
        <time>2022-09-04T07:59:32Z</time>
      </trkpt>
      <trkpt lat="43.29712" lon="-1.45764">
        <ele>423.9</ele>
        <time>2022-09-04T07:59:33Z</time>
      </trkpt>
      <trkpt lat="43.29712" lon="-1.4576">
        <ele>424.2</ele>
        <time>2022-09-04T07:59:34Z</time>
      </trkpt>
      <trkpt lat="43.29713" lon="-1.45756">
        <ele>424.6</ele>
        <time>2022-09-04T07:59:35Z</time>
      </trkpt>
      <trkpt lat="43.29715" lon="-1.45751">
        <ele>424.9</ele>
        <time>2022-09-04T07:59:36Z</time>
      </trkpt>
      <trkpt lat="43.29715" lon="-1.4575">
        <ele>425.1</ele>
        <time>2022-09-04T07:59:37Z</time>
      </trkpt>
      <trkpt lat="43.29716" lon="-1.45745">
        <ele>425.4</ele>
        <time>2022-09-04T07:59:38Z</time>
      </trkpt>
      <trkpt lat="43.29717" lon="-1.45743">
        <ele>425.6</ele>
        <time>2022-09-04T07:59:39Z</time>
      </trkpt>
      <trkpt lat="43.29719" lon="-1.45738">
        <ele>426</ele>
        <time>2022-09-04T07:59:40Z</time>
      </trkpt>
      <trkpt lat="43.29719" lon="-1.45736">
        <ele>426.2</ele>
        <time>2022-09-04T07:59:41Z</time>
      </trkpt>
      <trkpt lat="43.29721" lon="-1.45733">
        <ele>426.5</ele>
        <time>2022-09-04T07:59:42Z</time>
      </trkpt>
      <trkpt lat="43.29722" lon="-1.45729">
        <ele>426.8</ele>
        <time>2022-09-04T07:59:43Z</time>
      </trkpt>
      <trkpt lat="43.29722" lon="-1.45724">
        <ele>427.1</ele>
        <time>2022-09-04T07:59:44Z</time>
      </trkpt>
      <trkpt lat="43.29722" lon="-1.45719">
        <ele>427.4</ele>
        <time>2022-09-04T07:59:45Z</time>
      </trkpt>
      <trkpt lat="43.29722" lon="-1.45713">
        <ele>427.7</ele>
        <time>2022-09-04T07:59:46Z</time>
      </trkpt>
      <trkpt lat="43.29723" lon="-1.45706">
        <ele>428</ele>
        <time>2022-09-04T07:59:47Z</time>
      </trkpt>
      <trkpt lat="43.29725" lon="-1.45698">
        <ele>428.3</ele>
        <time>2022-09-04T07:59:48Z</time>
      </trkpt>
      <trkpt lat="43.29725" lon="-1.45691">
        <ele>428.6</ele>
        <time>2022-09-04T07:59:49Z</time>
      </trkpt>
      <trkpt lat="43.29725" lon="-1.45685">
        <ele>428.8</ele>
        <time>2022-09-04T07:59:50Z</time>
      </trkpt>
      <trkpt lat="43.29724" lon="-1.45679">
        <ele>428.9</ele>
        <time>2022-09-04T07:59:51Z</time>
      </trkpt>
      <trkpt lat="43.29721" lon="-1.45675">
        <ele>429</ele>
        <time>2022-09-04T07:59:52Z</time>
      </trkpt>
      <trkpt lat="43.29718" lon="-1.45671">
        <ele>429.2</ele>
        <time>2022-09-04T07:59:53Z</time>
      </trkpt>
      <trkpt lat="43.29715" lon="-1.45668">
        <ele>429.3</ele>
        <time>2022-09-04T07:59:54Z</time>
      </trkpt>
      <trkpt lat="43.29712" lon="-1.45666">
        <ele>429.4</ele>
        <time>2022-09-04T07:59:55Z</time>
      </trkpt>
      <trkpt lat="43.29708" lon="-1.45663">
        <ele>429.6</ele>
        <time>2022-09-04T07:59:56Z</time>
      </trkpt>
      <trkpt lat="43.29704" lon="-1.45659">
        <ele>429.7</ele>
        <time>2022-09-04T07:59:57Z</time>
      </trkpt>
      <trkpt lat="43.297" lon="-1.45655">
        <ele>429.8</ele>
        <time>2022-09-04T07:59:58Z</time>
      </trkpt>
      <trkpt lat="43.29696" lon="-1.45652">
        <ele>429.9</ele>
        <time>2022-09-04T07:59:59Z</time>
      </trkpt>
      <trkpt lat="43.29692" lon="-1.45648">
        <ele>429.9</ele>
        <time>2022-09-04T08:00:00Z</time>
      </trkpt>
      <trkpt lat="43.29688" lon="-1.45644">
        <ele>430</ele>
        <time>2022-09-04T08:00:01Z</time>
      </trkpt>
      <trkpt lat="43.29686" lon="-1.45638">
        <ele>429.9</ele>
        <time>2022-09-04T08:00:02Z</time>
      </trkpt>
      <trkpt lat="43.29687" lon="-1.45633">
        <ele>429.9</ele>
        <time>2022-09-04T08:00:03Z</time>
      </trkpt>
      <trkpt lat="43.29687" lon="-1.45629">
        <ele>429.8</ele>
        <time>2022-09-04T08:00:04Z</time>
      </trkpt>
      <trkpt lat="43.29688" lon="-1.45625">
        <ele>429.7</ele>
        <time>2022-09-04T08:00:05Z</time>
      </trkpt>
      <trkpt lat="43.2969" lon="-1.4562">
        <ele>429.6</ele>
        <time>2022-09-04T08:00:06Z</time>
      </trkpt>
      <trkpt lat="43.29694" lon="-1.45616">
        <ele>429.5</ele>
        <time>2022-09-04T08:00:07Z</time>
      </trkpt>
      <trkpt lat="43.29698" lon="-1.45613">
        <ele>429.4</ele>
        <time>2022-09-04T08:00:08Z</time>
      </trkpt>
      <trkpt lat="43.29702" lon="-1.4561">
        <ele>429.3</ele>
        <time>2022-09-04T08:00:09Z</time>
      </trkpt>
      <trkpt lat="43.29712" lon="-1.45607">
        <ele>429.2</ele>
        <time>2022-09-04T08:00:11Z</time>
      </trkpt>
      <trkpt lat="43.29719" lon="-1.45606">
        <ele>429</ele>
        <time>2022-09-04T08:00:12Z</time>
      </trkpt>
      <trkpt lat="43.29721" lon="-1.45606">
        <ele>429</ele>
        <time>2022-09-04T08:00:13Z</time>
      </trkpt>
      <trkpt lat="43.29724" lon="-1.45605">
        <ele>428.9</ele>
        <time>2022-09-04T08:00:14Z</time>
      </trkpt>
      <trkpt lat="43.29726" lon="-1.456">
        <ele>428.9</ele>
        <time>2022-09-04T08:00:15Z</time>
      </trkpt>
      <trkpt lat="43.29726" lon="-1.45598">
        <ele>428.8</ele>
        <time>2022-09-04T08:00:16Z</time>
      </trkpt>
      <trkpt lat="43.29725" lon="-1.45593">
        <ele>428.6</ele>
        <time>2022-09-04T08:00:17Z</time>
      </trkpt>
      <trkpt lat="43.29724" lon="-1.45588">
        <ele>428.2</ele>
        <time>2022-09-04T08:00:18Z</time>
      </trkpt>
      <trkpt lat="43.29725" lon="-1.45582">
        <ele>427.7</ele>
        <time>2022-09-04T08:00:19Z</time>
      </trkpt>
      <trkpt lat="43.29726" lon="-1.45576">
        <ele>427.2</ele>
        <time>2022-09-04T08:00:20Z</time>
      </trkpt>
      <trkpt lat="43.29726" lon="-1.4557">
        <ele>426.8</ele>
        <time>2022-09-04T08:00:22Z</time>
      </trkpt>
      <trkpt lat="43.29725" lon="-1.45559">
        <ele>426.2</ele>
        <time>2022-09-04T08:00:23Z</time>
      </trkpt>
      <trkpt lat="43.29724" lon="-1.45553">
        <ele>426</ele>
        <time>2022-09-04T08:00:25Z</time>
      </trkpt>
      <trkpt lat="43.2972" lon="-1.45541">
        <ele>425.8</ele>
        <time>2022-09-04T08:00:26Z</time>
      </trkpt>
      <trkpt lat="43.29719" lon="-1.45535">
        <ele>425.7</ele>
        <time>2022-09-04T08:00:27Z</time>
      </trkpt>
      <trkpt lat="43.29717" lon="-1.45529">
        <ele>425.7</ele>
        <time>2022-09-04T08:00:28Z</time>
      </trkpt>
      <trkpt lat="43.29717" lon="-1.45525">
        <ele>425.6</ele>
        <time>2022-09-04T08:00:29Z</time>
      </trkpt>
      <trkpt lat="43.29717" lon="-1.45523">
        <ele>425.6</ele>
        <time>2022-09-04T08:00:30Z</time>
      </trkpt>
      <trkpt lat="43.29718" lon="-1.45522">
        <ele>425.6</ele>
        <time>2022-09-04T08:00:31Z</time>
      </trkpt>
      <trkpt lat="43.29718" lon="-1.45522">
        <ele>425.6</ele>
        <time>2022-09-04T08:00:32Z</time>
      </trkpt>
      <trkpt lat="43.29718" lon="-1.45521">
        <ele>425.6</ele>
        <time>2022-09-04T08:00:33Z</time>
      </trkpt>
      <trkpt lat="43.29718" lon="-1.4552">
        <ele>425.5</ele>
        <time>2022-09-04T08:00:34Z</time>
      </trkpt>
      <trkpt lat="43.29719" lon="-1.4552">
        <ele>425.5</ele>
        <time>2022-09-04T08:00:35Z</time>
      </trkpt>
      <trkpt lat="43.29719" lon="-1.45519">
        <ele>425.5</ele>
        <time>2022-09-04T08:00:36Z</time>
      </trkpt>
      <trkpt lat="43.29719" lon="-1.45518">
        <ele>425.5</ele>
        <time>2022-09-04T08:00:37Z</time>
      </trkpt>
      <trkpt lat="43.29719" lon="-1.45518">
        <ele>425.5</ele>
        <time>2022-09-04T08:00:38Z</time>
      </trkpt>
      <trkpt lat="43.2972" lon="-1.45517">
        <ele>425.5</ele>
        <time>2022-09-04T08:00:39Z</time>
      </trkpt>
      <trkpt lat="43.2972" lon="-1.45516">
        <ele>425.5</ele>
        <time>2022-09-04T08:00:40Z</time>
      </trkpt>
      <trkpt lat="43.2972" lon="-1.45516">
        <ele>425.5</ele>
        <time>2022-09-04T08:00:41Z</time>
      </trkpt>
      <trkpt lat="43.29721" lon="-1.45515">
        <ele>425.4</ele>
        <time>2022-09-04T08:01:03Z</time>
      </trkpt>
      <trkpt lat="43.29721" lon="-1.45514">
        <ele>425.4</ele>
        <time>2022-09-04T08:01:04Z</time>
      </trkpt>
      <trkpt lat="43.29721" lon="-1.45514">
        <ele>425.4</ele>
        <time>2022-09-04T08:01:05Z</time>
      </trkpt>
      <trkpt lat="43.29722" lon="-1.45509">
        <ele>425.3</ele>
        <time>2022-09-04T08:01:06Z</time>
      </trkpt>
      <trkpt lat="43.29723" lon="-1.45502">
        <ele>425.1</ele>
        <time>2022-09-04T08:01:07Z</time>
      </trkpt>
      <trkpt lat="43.29725" lon="-1.45496">
        <ele>425</ele>
        <time>2022-09-04T08:01:08Z</time>
      </trkpt>
      <trkpt lat="43.29726" lon="-1.45491">
        <ele>424.8</ele>
        <time>2022-09-04T08:01:09Z</time>
      </trkpt>
      <trkpt lat="43.29727" lon="-1.45486">
        <ele>424.7</ele>
        <time>2022-09-04T08:01:10Z</time>
      </trkpt>
      <trkpt lat="43.29727" lon="-1.45482">
        <ele>424.6</ele>
        <time>2022-09-04T08:01:11Z</time>
      </trkpt>
      <trkpt lat="43.29728" lon="-1.45477">
        <ele>424.5</ele>
        <time>2022-09-04T08:01:12Z</time>
      </trkpt>
      <trkpt lat="43.29729" lon="-1.45473">
        <ele>424.3</ele>
        <time>2022-09-04T08:01:13Z</time>
      </trkpt>
      <trkpt lat="43.2973" lon="-1.45468">
        <ele>424.2</ele>
        <time>2022-09-04T08:01:14Z</time>
      </trkpt>
      <trkpt lat="43.29731" lon="-1.45463">
        <ele>424.1</ele>
        <time>2022-09-04T08:01:15Z</time>
      </trkpt>
      <trkpt lat="43.29731" lon="-1.45458">
        <ele>423.9</ele>
        <time>2022-09-04T08:01:16Z</time>
      </trkpt>
      <trkpt lat="43.29732" lon="-1.45454">
        <ele>423.8</ele>
        <time>2022-09-04T08:01:17Z</time>
      </trkpt>
      <trkpt lat="43.29731" lon="-1.45449">
        <ele>423.7</ele>
        <time>2022-09-04T08:01:18Z</time>
      </trkpt>
      <trkpt lat="43.29731" lon="-1.45447">
        <ele>423.7</ele>
        <time>2022-09-04T08:01:19Z</time>
      </trkpt>
      <trkpt lat="43.2973" lon="-1.45443">
        <ele>423.5</ele>
        <time>2022-09-04T08:01:20Z</time>
      </trkpt>
      <trkpt lat="43.29728" lon="-1.4544">
        <ele>423.4</ele>
        <time>2022-09-04T08:01:21Z</time>
      </trkpt>
      <trkpt lat="43.29726" lon="-1.45436">
        <ele>423.3</ele>
        <time>2022-09-04T08:01:22Z</time>
      </trkpt>
      <trkpt lat="43.29724" lon="-1.45432">
        <ele>423.2</ele>
        <time>2022-09-04T08:01:23Z</time>
      </trkpt>
      <trkpt lat="43.29722" lon="-1.45428">
        <ele>423</ele>
        <time>2022-09-04T08:01:24Z</time>
      </trkpt>
      <trkpt lat="43.2972" lon="-1.45424">
        <ele>422.8</ele>
        <time>2022-09-04T08:01:25Z</time>
      </trkpt>
      <trkpt lat="43.29718" lon="-1.4542">
        <ele>422.6</ele>
        <time>2022-09-04T08:01:26Z</time>
      </trkpt>
      <trkpt lat="43.29716" lon="-1.45416">
        <ele>422.4</ele>
        <time>2022-09-04T08:01:27Z</time>
      </trkpt>
      <trkpt lat="43.29715" lon="-1.45411">
        <ele>422.2</ele>
        <time>2022-09-04T08:01:28Z</time>
      </trkpt>
      <trkpt lat="43.29713" lon="-1.45407">
        <ele>421.9</ele>
        <time>2022-09-04T08:01:29Z</time>
      </trkpt>
      <trkpt lat="43.29712" lon="-1.45402">
        <ele>421.7</ele>
        <time>2022-09-04T08:01:30Z</time>
      </trkpt>
      <trkpt lat="43.29711" lon="-1.45397">
        <ele>421.4</ele>
        <time>2022-09-04T08:01:31Z</time>
      </trkpt>
      <trkpt lat="43.29711" lon="-1.45391">
        <ele>421.1</ele>
        <time>2022-09-04T08:01:32Z</time>
      </trkpt>
      <trkpt lat="43.29712" lon="-1.45386">
        <ele>420.7</ele>
        <time>2022-09-04T08:01:33Z</time>
      </trkpt>
      <trkpt lat="43.29712" lon="-1.4538">
        <ele>420.4</ele>
        <time>2022-09-04T08:01:34Z</time>
      </trkpt>
      <trkpt lat="43.29713" lon="-1.45374">
        <ele>420</ele>
        <time>2022-09-04T08:01:35Z</time>
      </trkpt>
      <trkpt lat="43.29714" lon="-1.45368">
        <ele>419.6</ele>
        <time>2022-09-04T08:01:36Z</time>
      </trkpt>
      <trkpt lat="43.29716" lon="-1.45362">
        <ele>419.2</ele>
        <time>2022-09-04T08:01:37Z</time>
      </trkpt>
      <trkpt lat="43.29718" lon="-1.45355">
        <ele>418.7</ele>
        <time>2022-09-04T08:01:38Z</time>
      </trkpt>
      <trkpt lat="43.2972" lon="-1.45348">
        <ele>418.3</ele>
        <time>2022-09-04T08:01:39Z</time>
      </trkpt>
      <trkpt lat="43.29722" lon="-1.45342">
        <ele>417.9</ele>
        <time>2022-09-04T08:01:40Z</time>
      </trkpt>
      <trkpt lat="43.29724" lon="-1.45336">
        <ele>417.6</ele>
        <time>2022-09-04T08:01:41Z</time>
      </trkpt>
      <trkpt lat="43.29726" lon="-1.4533">
        <ele>417.2</ele>
        <time>2022-09-04T08:01:42Z</time>
      </trkpt>
      <trkpt lat="43.29728" lon="-1.45324">
        <ele>416.9</ele>
        <time>2022-09-04T08:01:43Z</time>
      </trkpt>
      <trkpt lat="43.2973" lon="-1.45319">
        <ele>416.5</ele>
        <time>2022-09-04T08:01:44Z</time>
      </trkpt>
      <trkpt lat="43.29733" lon="-1.45313">
        <ele>416.2</ele>
        <time>2022-09-04T08:01:45Z</time>
      </trkpt>
      <trkpt lat="43.29736" lon="-1.45307">
        <ele>415.8</ele>
        <time>2022-09-04T08:01:46Z</time>
      </trkpt>
      <trkpt lat="43.29739" lon="-1.45303">
        <ele>415.5</ele>
        <time>2022-09-04T08:01:47Z</time>
      </trkpt>
      <trkpt lat="43.29742" lon="-1.45298">
        <ele>415.1</ele>
        <time>2022-09-04T08:01:48Z</time>
      </trkpt>
      <trkpt lat="43.29745" lon="-1.45293">
        <ele>414.6</ele>
        <time>2022-09-04T08:01:49Z</time>
      </trkpt>
      <trkpt lat="43.29749" lon="-1.45288">
        <ele>414.2</ele>
        <time>2022-09-04T08:01:50Z</time>
      </trkpt>
      <trkpt lat="43.29751" lon="-1.45281">
        <ele>413.7</ele>
        <time>2022-09-04T08:01:51Z</time>
      </trkpt>
      <trkpt lat="43.29754" lon="-1.45275">
        <ele>413.2</ele>
        <time>2022-09-04T08:01:52Z</time>
      </trkpt>
      <trkpt lat="43.29756" lon="-1.45269">
        <ele>412.8</ele>
        <time>2022-09-04T08:01:53Z</time>
      </trkpt>
      <trkpt lat="43.29759" lon="-1.45263">
        <ele>412.3</ele>
        <time>2022-09-04T08:01:54Z</time>
      </trkpt>
      <trkpt lat="43.29762" lon="-1.45257">
        <ele>411.9</ele>
        <time>2022-09-04T08:01:55Z</time>
      </trkpt>
      <trkpt lat="43.29766" lon="-1.45251">
        <ele>411.5</ele>
        <time>2022-09-04T08:01:56Z</time>
      </trkpt>
      <trkpt lat="43.2977" lon="-1.45246">
        <ele>411.1</ele>
        <time>2022-09-04T08:01:57Z</time>
      </trkpt>
      <trkpt lat="43.29774" lon="-1.45242">
        <ele>410.7</ele>
        <time>2022-09-04T08:01:58Z</time>
      </trkpt>
      <trkpt lat="43.29778" lon="-1.45239">
        <ele>410.3</ele>
        <time>2022-09-04T08:01:59Z</time>
      </trkpt>
      <trkpt lat="43.29783" lon="-1.45236">
        <ele>409.8</ele>
        <time>2022-09-04T08:02:00Z</time>
      </trkpt>
      <trkpt lat="43.29787" lon="-1.45233">
        <ele>409.3</ele>
        <time>2022-09-04T08:02:01Z</time>
      </trkpt>
      <trkpt lat="43.29792" lon="-1.4523">
        <ele>408.9</ele>
        <time>2022-09-04T08:02:02Z</time>
      </trkpt>
      <trkpt lat="43.29797" lon="-1.45227">
        <ele>408.3</ele>
        <time>2022-09-04T08:02:03Z</time>
      </trkpt>
      <trkpt lat="43.29802" lon="-1.45223">
        <ele>407.7</ele>
        <time>2022-09-04T08:02:04Z</time>
      </trkpt>
      <trkpt lat="43.29808" lon="-1.4522">
        <ele>407.1</ele>
        <time>2022-09-04T08:02:05Z</time>
      </trkpt>
      <trkpt lat="43.29813" lon="-1.45216">
        <ele>406.4</ele>
        <time>2022-09-04T08:02:06Z</time>
      </trkpt>
      <trkpt lat="43.29819" lon="-1.45212">
        <ele>405.7</ele>
        <time>2022-09-04T08:02:07Z</time>
      </trkpt>
      <trkpt lat="43.29825" lon="-1.45207">
        <ele>405.2</ele>
        <time>2022-09-04T08:02:08Z</time>
      </trkpt>
      <trkpt lat="43.29829" lon="-1.45203">
        <ele>404.8</ele>
        <time>2022-09-04T08:02:09Z</time>
      </trkpt>
      <trkpt lat="43.29834" lon="-1.45199">
        <ele>404.5</ele>
        <time>2022-09-04T08:02:10Z</time>
      </trkpt>
      <trkpt lat="43.29838" lon="-1.45196">
        <ele>404.2</ele>
        <time>2022-09-04T08:02:11Z</time>
      </trkpt>
      <trkpt lat="43.29841" lon="-1.45193">
        <ele>404</ele>
        <time>2022-09-04T08:02:12Z</time>
      </trkpt>
      <trkpt lat="43.29843" lon="-1.4519">
        <ele>403.9</ele>
        <time>2022-09-04T08:02:13Z</time>
      </trkpt>
      <trkpt lat="43.29844" lon="-1.45185">
        <ele>403.7</ele>
        <time>2022-09-04T08:02:14Z</time>
      </trkpt>
      <trkpt lat="43.29844" lon="-1.45184">
        <ele>403.7</ele>
        <time>2022-09-04T08:02:15Z</time>
      </trkpt>
      <trkpt lat="43.29843" lon="-1.4518">
        <ele>403.5</ele>
        <time>2022-09-04T08:02:16Z</time>
      </trkpt>
      <trkpt lat="43.29842" lon="-1.45179">
        <ele>403.5</ele>
        <time>2022-09-04T08:02:17Z</time>
      </trkpt>
      <trkpt lat="43.29839" lon="-1.45176">
        <ele>403.4</ele>
        <time>2022-09-04T08:02:18Z</time>
      </trkpt>
      <trkpt lat="43.29835" lon="-1.45173">
        <ele>403.2</ele>
        <time>2022-09-04T08:02:19Z</time>
      </trkpt>
      <trkpt lat="43.2983" lon="-1.45169">
        <ele>402.9</ele>
        <time>2022-09-04T08:02:20Z</time>
      </trkpt>
      <trkpt lat="43.29825" lon="-1.45165">
        <ele>402.6</ele>
        <time>2022-09-04T08:02:21Z</time>
      </trkpt>
      <trkpt lat="43.29821" lon="-1.45162">
        <ele>402.4</ele>
        <time>2022-09-04T08:02:22Z</time>
      </trkpt>
      <trkpt lat="43.29817" lon="-1.45159">
        <ele>402.1</ele>
        <time>2022-09-04T08:02:23Z</time>
      </trkpt>
      <trkpt lat="43.29813" lon="-1.45156">
        <ele>401.8</ele>
        <time>2022-09-04T08:02:24Z</time>
      </trkpt>
      <trkpt lat="43.29809" lon="-1.45153">
        <ele>401.6</ele>
        <time>2022-09-04T08:02:25Z</time>
      </trkpt>
      <trkpt lat="43.29804" lon="-1.4515">
        <ele>401.3</ele>
        <time>2022-09-04T08:02:26Z</time>
      </trkpt>
      <trkpt lat="43.298" lon="-1.45148">
        <ele>400.9</ele>
        <time>2022-09-04T08:02:27Z</time>
      </trkpt>
      <trkpt lat="43.29795" lon="-1.45145">
        <ele>400.6</ele>
        <time>2022-09-04T08:02:28Z</time>
      </trkpt>
      <trkpt lat="43.29789" lon="-1.45141">
        <ele>400.2</ele>
        <time>2022-09-04T08:02:29Z</time>
      </trkpt>
      <trkpt lat="43.29784" lon="-1.45136">
        <ele>399.8</ele>
        <time>2022-09-04T08:02:30Z</time>
      </trkpt>
      <trkpt lat="43.29779" lon="-1.45131">
        <ele>400.1</ele>
        <time>2022-09-04T08:02:31Z</time>
      </trkpt>
      <trkpt lat="43.29774" lon="-1.45127">
        <ele>400.7</ele>
        <time>2022-09-04T08:02:32Z</time>
      </trkpt>
      <trkpt lat="43.2977" lon="-1.45124">
        <ele>401.2</ele>
        <time>2022-09-04T08:02:33Z</time>
      </trkpt>
      <trkpt lat="43.29767" lon="-1.4512">
        <ele>401.6</ele>
        <time>2022-09-04T08:02:34Z</time>
      </trkpt>
      <trkpt lat="43.29765" lon="-1.45117">
        <ele>402</ele>
        <time>2022-09-04T08:02:35Z</time>
      </trkpt>
      <trkpt lat="43.29762" lon="-1.45113">
        <ele>402.5</ele>
        <time>2022-09-04T08:02:36Z</time>
      </trkpt>
      <trkpt lat="43.2976" lon="-1.45108">
        <ele>402.9</ele>
        <time>2022-09-04T08:02:37Z</time>
      </trkpt>
      <trkpt lat="43.29758" lon="-1.45103">
        <ele>403.3</ele>
        <time>2022-09-04T08:02:38Z</time>
      </trkpt>
      <trkpt lat="43.29759" lon="-1.45096">
        <ele>403.7</ele>
        <time>2022-09-04T08:02:39Z</time>
      </trkpt>
      <trkpt lat="43.29761" lon="-1.45091">
        <ele>404</ele>
        <time>2022-09-04T08:02:40Z</time>
      </trkpt>
      <trkpt lat="43.29764" lon="-1.45086">
        <ele>404.4</ele>
        <time>2022-09-04T08:02:41Z</time>
      </trkpt>
      <trkpt lat="43.29768" lon="-1.45081">
        <ele>404.8</ele>
        <time>2022-09-04T08:02:42Z</time>
      </trkpt>
      <trkpt lat="43.29771" lon="-1.45075">
        <ele>405.2</ele>
        <time>2022-09-04T08:02:43Z</time>
      </trkpt>
      <trkpt lat="43.29774" lon="-1.4507">
        <ele>405.5</ele>
        <time>2022-09-04T08:02:44Z</time>
      </trkpt>
      <trkpt lat="43.29776" lon="-1.45064">
        <ele>405.8</ele>
        <time>2022-09-04T08:02:45Z</time>
      </trkpt>
      <trkpt lat="43.29778" lon="-1.4506">
        <ele>406.1</ele>
        <time>2022-09-04T08:02:46Z</time>
      </trkpt>
      <trkpt lat="43.2978" lon="-1.45055">
        <ele>406.3</ele>
        <time>2022-09-04T08:02:47Z</time>
      </trkpt>
      <trkpt lat="43.29782" lon="-1.4505">
        <ele>406.6</ele>
        <time>2022-09-04T08:02:48Z</time>
      </trkpt>
      <trkpt lat="43.29783" lon="-1.45045">
        <ele>406.8</ele>
        <time>2022-09-04T08:02:49Z</time>
      </trkpt>
      <trkpt lat="43.29785" lon="-1.4504">
        <ele>407</ele>
        <time>2022-09-04T08:02:50Z</time>
      </trkpt>
      <trkpt lat="43.29787" lon="-1.45035">
        <ele>407.2</ele>
        <time>2022-09-04T08:02:51Z</time>
      </trkpt>
      <trkpt lat="43.29789" lon="-1.4503">
        <ele>407.3</ele>
        <time>2022-09-04T08:02:52Z</time>
      </trkpt>
      <trkpt lat="43.29791" lon="-1.45024">
        <ele>407.4</ele>
        <time>2022-09-04T08:02:53Z</time>
      </trkpt>
      <trkpt lat="43.29794" lon="-1.45018">
        <ele>407.5</ele>
        <time>2022-09-04T08:02:54Z</time>
      </trkpt>
      <trkpt lat="43.29796" lon="-1.45013">
        <ele>407.6</ele>
        <time>2022-09-04T08:02:55Z</time>
      </trkpt>
      <trkpt lat="43.29799" lon="-1.45008">
        <ele>407.7</ele>
        <time>2022-09-04T08:02:56Z</time>
      </trkpt>
      <trkpt lat="43.29801" lon="-1.45002">
        <ele>407.8</ele>
        <time>2022-09-04T08:02:57Z</time>
      </trkpt>
      <trkpt lat="43.29804" lon="-1.44997">
        <ele>407.9</ele>
        <time>2022-09-04T08:02:58Z</time>
      </trkpt>
      <trkpt lat="43.29806" lon="-1.44993">
        <ele>408</ele>
        <time>2022-09-04T08:02:59Z</time>
      </trkpt>
      <trkpt lat="43.29808" lon="-1.44988">
        <ele>408.1</ele>
        <time>2022-09-04T08:03:00Z</time>
      </trkpt>
      <trkpt lat="43.29811" lon="-1.44984">
        <ele>408.3</ele>
        <time>2022-09-04T08:03:01Z</time>
      </trkpt>
      <trkpt lat="43.29814" lon="-1.4498">
        <ele>408.4</ele>
        <time>2022-09-04T08:03:02Z</time>
      </trkpt>
      <trkpt lat="43.29817" lon="-1.44975">
        <ele>408.6</ele>
        <time>2022-09-04T08:03:03Z</time>
      </trkpt>
      <trkpt lat="43.2982" lon="-1.44971">
        <ele>408.9</ele>
        <time>2022-09-04T08:03:04Z</time>
      </trkpt>
      <trkpt lat="43.29823" lon="-1.44967">
        <ele>409.2</ele>
        <time>2022-09-04T08:03:05Z</time>
      </trkpt>
      <trkpt lat="43.29826" lon="-1.44963">
        <ele>409.4</ele>
        <time>2022-09-04T08:03:06Z</time>
      </trkpt>
      <trkpt lat="43.29829" lon="-1.4496">
        <ele>409.8</ele>
        <time>2022-09-04T08:03:07Z</time>
      </trkpt>
      <trkpt lat="43.29833" lon="-1.44958">
        <ele>410.1</ele>
        <time>2022-09-04T08:03:08Z</time>
      </trkpt>
      <trkpt lat="43.29837" lon="-1.44955">
        <ele>410.6</ele>
        <time>2022-09-04T08:03:09Z</time>
      </trkpt>
      <trkpt lat="43.29841" lon="-1.44952">
        <ele>411.2</ele>
        <time>2022-09-04T08:03:10Z</time>
      </trkpt>
      <trkpt lat="43.29844" lon="-1.44949">
        <ele>411.7</ele>
        <time>2022-09-04T08:03:11Z</time>
      </trkpt>
      <trkpt lat="43.29847" lon="-1.44947">
        <ele>412.3</ele>
        <time>2022-09-04T08:03:12Z</time>
      </trkpt>
      <trkpt lat="43.2985" lon="-1.44944">
        <ele>412.8</ele>
        <time>2022-09-04T08:03:13Z</time>
      </trkpt>
      <trkpt lat="43.29853" lon="-1.44942">
        <ele>413.4</ele>
        <time>2022-09-04T08:03:14Z</time>
      </trkpt>
      <trkpt lat="43.29856" lon="-1.44939">
        <ele>414</ele>
        <time>2022-09-04T08:03:15Z</time>
      </trkpt>
      <trkpt lat="43.29859" lon="-1.44938">
        <ele>414.5</ele>
        <time>2022-09-04T08:03:16Z</time>
      </trkpt>
      <trkpt lat="43.29861" lon="-1.44936">
        <ele>415</ele>
        <time>2022-09-04T08:03:17Z</time>
      </trkpt>
      <trkpt lat="43.29864" lon="-1.44933">
        <ele>415.6</ele>
        <time>2022-09-04T08:03:18Z</time>
      </trkpt>
      <trkpt lat="43.29866" lon="-1.44931">
        <ele>416.1</ele>
        <time>2022-09-04T08:03:19Z</time>
      </trkpt>
      <trkpt lat="43.29869" lon="-1.44929">
        <ele>416.6</ele>
        <time>2022-09-04T08:03:20Z</time>
      </trkpt>
      <trkpt lat="43.29872" lon="-1.44927">
        <ele>417.3</ele>
        <time>2022-09-04T08:03:21Z</time>
      </trkpt>
      <trkpt lat="43.29873" lon="-1.44926">
        <ele>417.6</ele>
        <time>2022-09-04T08:03:22Z</time>
      </trkpt>
      <trkpt lat="43.29876" lon="-1.44924">
        <ele>418.2</ele>
        <time>2022-09-04T08:03:23Z</time>
      </trkpt>
      <trkpt lat="43.29877" lon="-1.44923">
        <ele>418.4</ele>
        <time>2022-09-04T08:03:24Z</time>
      </trkpt>
      <trkpt lat="43.29881" lon="-1.44921">
        <ele>419</ele>
        <time>2022-09-04T08:03:25Z</time>
      </trkpt>
      <trkpt lat="43.29882" lon="-1.44921">
        <ele>419.2</ele>
        <time>2022-09-04T08:03:26Z</time>
      </trkpt>
      <trkpt lat="43.29885" lon="-1.44919">
        <ele>419.7</ele>
        <time>2022-09-04T08:03:27Z</time>
      </trkpt>
      <trkpt lat="43.29887" lon="-1.44919">
        <ele>419.9</ele>
        <time>2022-09-04T08:03:28Z</time>
      </trkpt>
      <trkpt lat="43.29889" lon="-1.44917">
        <ele>420.2</ele>
        <time>2022-09-04T08:03:29Z</time>
      </trkpt>
      <trkpt lat="43.29892" lon="-1.44914">
        <ele>420.7</ele>
        <time>2022-09-04T08:03:30Z</time>
      </trkpt>
      <trkpt lat="43.29893" lon="-1.44913">
        <ele>420.8</ele>
        <time>2022-09-04T08:03:31Z</time>
      </trkpt>
      <trkpt lat="43.29895" lon="-1.4491">
        <ele>421.1</ele>
        <time>2022-09-04T08:03:32Z</time>
      </trkpt>
      <trkpt lat="43.29896" lon="-1.44906">
        <ele>421.4</ele>
        <time>2022-09-04T08:03:33Z</time>
      </trkpt>
      <trkpt lat="43.29897" lon="-1.44903">
        <ele>421.6</ele>
        <time>2022-09-04T08:03:34Z</time>
      </trkpt>
      <trkpt lat="43.29898" lon="-1.44897">
        <ele>422</ele>
        <time>2022-09-04T08:03:35Z</time>
      </trkpt>
      <trkpt lat="43.29898" lon="-1.44896">
        <ele>422.1</ele>
        <time>2022-09-04T08:03:36Z</time>
      </trkpt>
      <trkpt lat="43.29899" lon="-1.44892">
        <ele>422.4</ele>
        <time>2022-09-04T08:03:37Z</time>
      </trkpt>
      <trkpt lat="43.29899" lon="-1.44886">
        <ele>422.7</ele>
        <time>2022-09-04T08:03:38Z</time>
      </trkpt>
      <trkpt lat="43.29899" lon="-1.44885">
        <ele>422.8</ele>
        <time>2022-09-04T08:03:39Z</time>
      </trkpt>
      <trkpt lat="43.299" lon="-1.44881">
        <ele>423.1</ele>
        <time>2022-09-04T08:03:40Z</time>
      </trkpt>
      <trkpt lat="43.299" lon="-1.44877">
        <ele>423.3</ele>
        <time>2022-09-04T08:03:41Z</time>
      </trkpt>
      <trkpt lat="43.299" lon="-1.44872">
        <ele>423.6</ele>
        <time>2022-09-04T08:03:42Z</time>
      </trkpt>
      <trkpt lat="43.299" lon="-1.44866">
        <ele>424</ele>
        <time>2022-09-04T08:03:43Z</time>
      </trkpt>
      <trkpt lat="43.299" lon="-1.44861">
        <ele>424.3</ele>
        <time>2022-09-04T08:03:44Z</time>
      </trkpt>
      <trkpt lat="43.299" lon="-1.44856">
        <ele>424.6</ele>
        <time>2022-09-04T08:03:45Z</time>
      </trkpt>
      <trkpt lat="43.299" lon="-1.44851">
        <ele>424.9</ele>
        <time>2022-09-04T08:03:46Z</time>
      </trkpt>
      <trkpt lat="43.299" lon="-1.44847">
        <ele>425.2</ele>
        <time>2022-09-04T08:03:47Z</time>
      </trkpt>
      <trkpt lat="43.299" lon="-1.44842">
        <ele>425.5</ele>
        <time>2022-09-04T08:03:48Z</time>
      </trkpt>
      <trkpt lat="43.29899" lon="-1.44836">
        <ele>425.8</ele>
        <time>2022-09-04T08:03:49Z</time>
      </trkpt>
      <trkpt lat="43.29899" lon="-1.44832">
        <ele>426</ele>
        <time>2022-09-04T08:03:50Z</time>
      </trkpt>
      <trkpt lat="43.29899" lon="-1.44827">
        <ele>426.3</ele>
        <time>2022-09-04T08:03:51Z</time>
      </trkpt>
      <trkpt lat="43.29899" lon="-1.44823">
        <ele>426.5</ele>
        <time>2022-09-04T08:03:52Z</time>
      </trkpt>
      <trkpt lat="43.299" lon="-1.44818">
        <ele>426.7</ele>
        <time>2022-09-04T08:03:53Z</time>
      </trkpt>
      <trkpt lat="43.299" lon="-1.44814">
        <ele>427</ele>
        <time>2022-09-04T08:03:54Z</time>
      </trkpt>
      <trkpt lat="43.299" lon="-1.4481">
        <ele>427.2</ele>
        <time>2022-09-04T08:03:55Z</time>
      </trkpt>
      <trkpt lat="43.299" lon="-1.44805">
        <ele>427.5</ele>
        <time>2022-09-04T08:03:56Z</time>
      </trkpt>
      <trkpt lat="43.299" lon="-1.44801">
        <ele>427.7</ele>
        <time>2022-09-04T08:03:57Z</time>
      </trkpt>
      <trkpt lat="43.299" lon="-1.44797">
        <ele>427.9</ele>
        <time>2022-09-04T08:03:58Z</time>
      </trkpt>
      <trkpt lat="43.29901" lon="-1.44792">
        <ele>428.2</ele>
        <time>2022-09-04T08:03:59Z</time>
      </trkpt>
      <trkpt lat="43.29902" lon="-1.44789">
        <ele>428.7</ele>
        <time>2022-09-04T08:04:00Z</time>
      </trkpt>
      <trkpt lat="43.29905" lon="-1.44786">
        <ele>429</ele>
        <time>2022-09-04T08:04:01Z</time>
      </trkpt>
      <trkpt lat="43.29908" lon="-1.44784">
        <ele>429.2</ele>
        <time>2022-09-04T08:04:02Z</time>
      </trkpt>
      <trkpt lat="43.29912" lon="-1.44784">
        <ele>429.4</ele>
        <time>2022-09-04T08:04:03Z</time>
      </trkpt>
      <trkpt lat="43.29915" lon="-1.44783">
        <ele>429.6</ele>
        <time>2022-09-04T08:04:04Z</time>
      </trkpt>
      <trkpt lat="43.29919" lon="-1.44782">
        <ele>429.9</ele>
        <time>2022-09-04T08:04:05Z</time>
      </trkpt>
      <trkpt lat="43.29919" lon="-1.44781">
        <ele>430.3</ele>
        <time>2022-09-04T08:04:06Z</time>
      </trkpt>
      <trkpt lat="43.29919" lon="-1.44776">
        <ele>430.3</ele>
        <time>2022-09-04T08:04:07Z</time>
      </trkpt>
      <trkpt lat="43.29918" lon="-1.44774">
        <ele>430.3</ele>
        <time>2022-09-04T08:04:08Z</time>
      </trkpt>
      <trkpt lat="43.29915" lon="-1.4477">
        <ele>430.4</ele>
        <time>2022-09-04T08:04:09Z</time>
      </trkpt>
      <trkpt lat="43.29911" lon="-1.44766">
        <ele>430.5</ele>
        <time>2022-09-04T08:04:10Z</time>
      </trkpt>
      <trkpt lat="43.29907" lon="-1.44761">
        <ele>430.6</ele>
        <time>2022-09-04T08:04:11Z</time>
      </trkpt>
      <trkpt lat="43.29904" lon="-1.44757">
        <ele>430.7</ele>
        <time>2022-09-04T08:04:12Z</time>
      </trkpt>
      <trkpt lat="43.29901" lon="-1.44753">
        <ele>430.9</ele>
        <time>2022-09-04T08:04:13Z</time>
      </trkpt>
      <trkpt lat="43.29899" lon="-1.44749">
        <ele>431.2</ele>
        <time>2022-09-04T08:04:14Z</time>
      </trkpt>
      <trkpt lat="43.29897" lon="-1.44745">
        <ele>431.4</ele>
        <time>2022-09-04T08:04:15Z</time>
      </trkpt>
      <trkpt lat="43.29894" lon="-1.44742">
        <ele>431.6</ele>
        <time>2022-09-04T08:04:16Z</time>
      </trkpt>
      <trkpt lat="43.29892" lon="-1.44739">
        <ele>431.9</ele>
        <time>2022-09-04T08:04:17Z</time>
      </trkpt>
      <trkpt lat="43.2989" lon="-1.44737">
        <ele>432.1</ele>
        <time>2022-09-04T08:04:18Z</time>
      </trkpt>
      <trkpt lat="43.29887" lon="-1.44734">
        <ele>432.4</ele>
        <time>2022-09-04T08:04:19Z</time>
      </trkpt>
      <trkpt lat="43.29887" lon="-1.44733">
        <ele>432.5</ele>
        <time>2022-09-04T08:04:20Z</time>
      </trkpt>
      <trkpt lat="43.29885" lon="-1.44728">
        <ele>432.8</ele>
        <time>2022-09-04T08:04:21Z</time>
      </trkpt>
      <trkpt lat="43.29884" lon="-1.44727">
        <ele>432.9</ele>
        <time>2022-09-04T08:04:22Z</time>
      </trkpt>
      <trkpt lat="43.29884" lon="-1.44722">
        <ele>433.3</ele>
        <time>2022-09-04T08:04:23Z</time>
      </trkpt>
      <trkpt lat="43.29884" lon="-1.4472">
        <ele>433.4</ele>
        <time>2022-09-04T08:04:24Z</time>
      </trkpt>
      <trkpt lat="43.29884" lon="-1.44716">
        <ele>433.6</ele>
        <time>2022-09-04T08:04:25Z</time>
      </trkpt>
      <trkpt lat="43.29883" lon="-1.44711">
        <ele>434</ele>
        <time>2022-09-04T08:04:26Z</time>
      </trkpt>
      <trkpt lat="43.29883" lon="-1.44707">
        <ele>434.2</ele>
        <time>2022-09-04T08:04:27Z</time>
      </trkpt>
      <trkpt lat="43.29882" lon="-1.44702">
        <ele>434.4</ele>
        <time>2022-09-04T08:04:28Z</time>
      </trkpt>
      <trkpt lat="43.2988" lon="-1.44697">
        <ele>434.5</ele>
        <time>2022-09-04T08:04:29Z</time>
      </trkpt>
      <trkpt lat="43.29879" lon="-1.44692">
        <ele>434.6</ele>
        <time>2022-09-04T08:04:30Z</time>
      </trkpt>
      <trkpt lat="43.29877" lon="-1.44688">
        <ele>434.7</ele>
        <time>2022-09-04T08:04:31Z</time>
      </trkpt>
      <trkpt lat="43.29875" lon="-1.44684">
        <ele>434.7</ele>
        <time>2022-09-04T08:04:32Z</time>
      </trkpt>
      <trkpt lat="43.29872" lon="-1.44681">
        <ele>434.8</ele>
        <time>2022-09-04T08:04:33Z</time>
      </trkpt>
      <trkpt lat="43.2987" lon="-1.4468">
        <ele>434.8</ele>
        <time>2022-09-04T08:04:34Z</time>
      </trkpt>
      <trkpt lat="43.29867" lon="-1.44678">
        <ele>434.9</ele>
        <time>2022-09-04T08:04:35Z</time>
      </trkpt>
      <trkpt lat="43.29867" lon="-1.44677">
        <ele>434.9</ele>
        <time>2022-09-04T08:04:36Z</time>
      </trkpt>
      <trkpt lat="43.29865" lon="-1.44676">
        <ele>435</ele>
        <time>2022-09-04T08:04:37Z</time>
      </trkpt>
      <trkpt lat="43.29864" lon="-1.44674">
        <ele>435.1</ele>
        <time>2022-09-04T08:04:38Z</time>
      </trkpt>
      <trkpt lat="43.29862" lon="-1.44671">
        <ele>435.2</ele>
        <time>2022-09-04T08:04:39Z</time>
      </trkpt>
      <trkpt lat="43.29861" lon="-1.4467">
        <ele>435.3</ele>
        <time>2022-09-04T08:04:40Z</time>
      </trkpt>
      <trkpt lat="43.2986" lon="-1.44669">
        <ele>435.4</ele>
        <time>2022-09-04T08:04:41Z</time>
      </trkpt>
      <trkpt lat="43.29859" lon="-1.44668">
        <ele>435.5</ele>
        <time>2022-09-04T08:04:42Z</time>
      </trkpt>
      <trkpt lat="43.29858" lon="-1.44668">
        <ele>435.5</ele>
        <time>2022-09-04T08:04:43Z</time>
      </trkpt>
      <trkpt lat="43.29858" lon="-1.44668">
        <ele>435.5</ele>
        <time>2022-09-04T08:04:44Z</time>
      </trkpt>
      <trkpt lat="43.29858" lon="-1.44667">
        <ele>435.6</ele>
        <time>2022-09-04T08:04:46Z</time>
      </trkpt>
      <trkpt lat="43.29858" lon="-1.44667">
        <ele>435.6</ele>
        <time>2022-09-04T08:04:47Z</time>
      </trkpt>
      <trkpt lat="43.29858" lon="-1.44667">
        <ele>435.6</ele>
        <time>2022-09-04T08:04:48Z</time>
      </trkpt>
      <trkpt lat="43.29858" lon="-1.44667">
        <ele>435.6</ele>
        <time>2022-09-04T08:04:49Z</time>
      </trkpt>
      <trkpt lat="43.29858" lon="-1.44667">
        <ele>435.6</ele>
        <time>2022-09-04T08:04:50Z</time>
      </trkpt>
      <trkpt lat="43.29858" lon="-1.44667">
        <ele>435.6</ele>
        <time>2022-09-04T08:04:51Z</time>
      </trkpt>
      <trkpt lat="43.29858" lon="-1.44667">
        <ele>435.6</ele>
        <time>2022-09-04T08:04:52Z</time>
      </trkpt>
      <trkpt lat="43.29858" lon="-1.44667">
        <ele>435.6</ele>
        <time>2022-09-04T08:04:53Z</time>
      </trkpt>
      <trkpt lat="43.29858" lon="-1.44667">
        <ele>435.6</ele>
        <time>2022-09-04T08:04:54Z</time>
      </trkpt>
      <trkpt lat="43.29856" lon="-1.44668">
        <ele>435.7</ele>
        <time>2022-09-04T08:05:02Z</time>
      </trkpt>
      <trkpt lat="43.29856" lon="-1.4467">
        <ele>435.8</ele>
        <time>2022-09-04T08:05:03Z</time>
      </trkpt>
      <trkpt lat="43.29855" lon="-1.44672">
        <ele>435.9</ele>
        <time>2022-09-04T08:05:04Z</time>
      </trkpt>
      <trkpt lat="43.29854" lon="-1.44674">
        <ele>436</ele>
        <time>2022-09-04T08:05:05Z</time>
      </trkpt>
      <trkpt lat="43.29854" lon="-1.44676">
        <ele>436.1</ele>
        <time>2022-09-04T08:05:06Z</time>
      </trkpt>
      <trkpt lat="43.29852" lon="-1.44677">
        <ele>436.1</ele>
        <time>2022-09-04T08:05:07Z</time>
      </trkpt>
      <trkpt lat="43.29851" lon="-1.44677">
        <ele>436.2</ele>
        <time>2022-09-04T08:05:08Z</time>
      </trkpt>
      <trkpt lat="43.29847" lon="-1.44677">
        <ele>436.3</ele>
        <time>2022-09-04T08:05:09Z</time>
      </trkpt>
      <trkpt lat="43.29845" lon="-1.44676">
        <ele>436.3</ele>
        <time>2022-09-04T08:05:10Z</time>
      </trkpt>
      <trkpt lat="43.29842" lon="-1.44675">
        <ele>436.3</ele>
        <time>2022-09-04T08:05:11Z</time>
      </trkpt>
      <trkpt lat="43.29839" lon="-1.44672">
        <ele>436.2</ele>
        <time>2022-09-04T08:05:12Z</time>
      </trkpt>
      <trkpt lat="43.29837" lon="-1.4467">
        <ele>436.1</ele>
        <time>2022-09-04T08:05:13Z</time>
      </trkpt>
      <trkpt lat="43.29835" lon="-1.44667">
        <ele>435.9</ele>
        <time>2022-09-04T08:05:14Z</time>
      </trkpt>
      <trkpt lat="43.29835" lon="-1.44665">
        <ele>435.8</ele>
        <time>2022-09-04T08:05:15Z</time>
      </trkpt>
      <trkpt lat="43.29834" lon="-1.44664">
        <ele>435.8</ele>
        <time>2022-09-04T08:05:16Z</time>
      </trkpt>
      <trkpt lat="43.29834" lon="-1.44664">
        <ele>435.7</ele>
        <time>2022-09-04T08:05:17Z</time>
      </trkpt>
      <trkpt lat="43.29833" lon="-1.44663">
        <ele>435.7</ele>
        <time>2022-09-04T08:05:18Z</time>
      </trkpt>
      <trkpt lat="43.29833" lon="-1.44663">
        <ele>435.6</ele>
        <time>2022-09-04T08:05:19Z</time>
      </trkpt>
      <trkpt lat="43.29832" lon="-1.44663">
        <ele>435.6</ele>
        <time>2022-09-04T08:05:20Z</time>
      </trkpt>
      <trkpt lat="43.29831" lon="-1.44662">
        <ele>435.5</ele>
        <time>2022-09-04T08:05:21Z</time>
      </trkpt>
      <trkpt lat="43.2983" lon="-1.44661">
        <ele>435.4</ele>
        <time>2022-09-04T08:05:22Z</time>
      </trkpt>
      <trkpt lat="43.29828" lon="-1.44658">
        <ele>435.2</ele>
        <time>2022-09-04T08:05:23Z</time>
      </trkpt>
      <trkpt lat="43.29827" lon="-1.44656">
        <ele>435.1</ele>
        <time>2022-09-04T08:05:24Z</time>
      </trkpt>
      <trkpt lat="43.29826" lon="-1.44653">
        <ele>434.9</ele>
        <time>2022-09-04T08:05:25Z</time>
      </trkpt>
      <trkpt lat="43.29826" lon="-1.44652">
        <ele>434.8</ele>
        <time>2022-09-04T08:05:26Z</time>
      </trkpt>
      <trkpt lat="43.29825" lon="-1.4465">
        <ele>434.7</ele>
        <time>2022-09-04T08:05:27Z</time>
      </trkpt>
      <trkpt lat="43.29825" lon="-1.44649">
        <ele>434.7</ele>
        <time>2022-09-04T08:05:28Z</time>
      </trkpt>
      <trkpt lat="43.29824" lon="-1.44648">
        <ele>434.6</ele>
        <time>2022-09-04T08:05:29Z</time>
      </trkpt>
      <trkpt lat="43.29824" lon="-1.44648">
        <ele>434.6</ele>
        <time>2022-09-04T08:05:30Z</time>
      </trkpt>
      <trkpt lat="43.29824" lon="-1.44648">
        <ele>434.6</ele>
        <time>2022-09-04T08:05:31Z</time>
      </trkpt>
      <trkpt lat="43.29824" lon="-1.44646">
        <ele>434.5</ele>
        <time>2022-09-04T08:05:32Z</time>
      </trkpt>
      <trkpt lat="43.29823" lon="-1.44644">
        <ele>434.5</ele>
        <time>2022-09-04T08:05:33Z</time>
      </trkpt>
      <trkpt lat="43.29821" lon="-1.44639">
        <ele>434.3</ele>
        <time>2022-09-04T08:05:34Z</time>
      </trkpt>
      <trkpt lat="43.29819" lon="-1.44637">
        <ele>434.3</ele>
        <time>2022-09-04T08:05:35Z</time>
      </trkpt>
      <trkpt lat="43.29817" lon="-1.44631">
        <ele>434.3</ele>
        <time>2022-09-04T08:05:36Z</time>
      </trkpt>
      <trkpt lat="43.29814" lon="-1.44627">
        <ele>434.3</ele>
        <time>2022-09-04T08:05:37Z</time>
      </trkpt>
      <trkpt lat="43.29812" lon="-1.44624">
        <ele>434.5</ele>
        <time>2022-09-04T08:05:38Z</time>
      </trkpt>
      <trkpt lat="43.29809" lon="-1.44621">
        <ele>434.6</ele>
        <time>2022-09-04T08:05:39Z</time>
      </trkpt>
      <trkpt lat="43.29807" lon="-1.44619">
        <ele>434.8</ele>
        <time>2022-09-04T08:05:40Z</time>
      </trkpt>
      <trkpt lat="43.29804" lon="-1.44616">
        <ele>435</ele>
        <time>2022-09-04T08:05:41Z</time>
      </trkpt>
      <trkpt lat="43.29801" lon="-1.44613">
        <ele>435.3</ele>
        <time>2022-09-04T08:05:42Z</time>
      </trkpt>
      <trkpt lat="43.29798" lon="-1.44609">
        <ele>435.7</ele>
        <time>2022-09-04T08:05:43Z</time>
      </trkpt>
      <trkpt lat="43.29796" lon="-1.44606">
        <ele>436</ele>
        <time>2022-09-04T08:05:44Z</time>
      </trkpt>
      <trkpt lat="43.29793" lon="-1.44604">
        <ele>436.4</ele>
        <time>2022-09-04T08:05:45Z</time>
      </trkpt>
      <trkpt lat="43.2979" lon="-1.44601">
        <ele>436.8</ele>
        <time>2022-09-04T08:05:46Z</time>
      </trkpt>
      <trkpt lat="43.29788" lon="-1.44599">
        <ele>437.2</ele>
        <time>2022-09-04T08:05:47Z</time>
      </trkpt>
      <trkpt lat="43.29786" lon="-1.44596">
        <ele>437.6</ele>
        <time>2022-09-04T08:05:48Z</time>
      </trkpt>
      <trkpt lat="43.29784" lon="-1.44592">
        <ele>438.1</ele>
        <time>2022-09-04T08:05:49Z</time>
      </trkpt>
      <trkpt lat="43.29781" lon="-1.4459">
        <ele>438.5</ele>
        <time>2022-09-04T08:05:50Z</time>
      </trkpt>
      <trkpt lat="43.29778" lon="-1.44587">
        <ele>439.1</ele>
        <time>2022-09-04T08:05:51Z</time>
      </trkpt>
      <trkpt lat="43.29775" lon="-1.44585">
        <ele>439.5</ele>
        <time>2022-09-04T08:05:52Z</time>
      </trkpt>
      <trkpt lat="43.29772" lon="-1.44583">
        <ele>439.9</ele>
        <time>2022-09-04T08:05:53Z</time>
      </trkpt>
      <trkpt lat="43.29769" lon="-1.44581">
        <ele>440.3</ele>
        <time>2022-09-04T08:05:54Z</time>
      </trkpt>
      <trkpt lat="43.29768" lon="-1.4458">
        <ele>440.4</ele>
        <time>2022-09-04T08:05:55Z</time>
      </trkpt>
      <trkpt lat="43.29765" lon="-1.44577">
        <ele>440.8</ele>
        <time>2022-09-04T08:05:56Z</time>
      </trkpt>
      <trkpt lat="43.29764" lon="-1.44575">
        <ele>441</ele>
        <time>2022-09-04T08:05:57Z</time>
      </trkpt>
      <trkpt lat="43.29762" lon="-1.44572">
        <ele>441.2</ele>
        <time>2022-09-04T08:05:58Z</time>
      </trkpt>
      <trkpt lat="43.2976" lon="-1.44569">
        <ele>441.4</ele>
        <time>2022-09-04T08:05:59Z</time>
      </trkpt>
      <trkpt lat="43.29758" lon="-1.44566">
        <ele>441.6</ele>
        <time>2022-09-04T08:06:00Z</time>
      </trkpt>
      <trkpt lat="43.29756" lon="-1.44562">
        <ele>441.9</ele>
        <time>2022-09-04T08:06:01Z</time>
      </trkpt>
      <trkpt lat="43.29754" lon="-1.44559">
        <ele>442</ele>
        <time>2022-09-04T08:06:02Z</time>
      </trkpt>
      <trkpt lat="43.29752" lon="-1.44556">
        <ele>442.2</ele>
        <time>2022-09-04T08:06:03Z</time>
      </trkpt>
      <trkpt lat="43.29749" lon="-1.44554">
        <ele>442.4</ele>
        <time>2022-09-04T08:06:04Z</time>
      </trkpt>
      <trkpt lat="43.29747" lon="-1.44551">
        <ele>442.5</ele>
        <time>2022-09-04T08:06:05Z</time>
      </trkpt>
      <trkpt lat="43.29744" lon="-1.44549">
        <ele>442.6</ele>
        <time>2022-09-04T08:06:06Z</time>
      </trkpt>
      <trkpt lat="43.29742" lon="-1.44546">
        <ele>442.7</ele>
        <time>2022-09-04T08:06:07Z</time>
      </trkpt>
      <trkpt lat="43.29739" lon="-1.44544">
        <ele>442.7</ele>
        <time>2022-09-04T08:06:08Z</time>
      </trkpt>
      <trkpt lat="43.29737" lon="-1.44541">
        <ele>442.7</ele>
        <time>2022-09-04T08:06:09Z</time>
      </trkpt>
      <trkpt lat="43.29735" lon="-1.44538">
        <ele>442.7</ele>
        <time>2022-09-04T08:06:10Z</time>
      </trkpt>
      <trkpt lat="43.29733" lon="-1.44534">
        <ele>442.7</ele>
        <time>2022-09-04T08:06:11Z</time>
      </trkpt>
      <trkpt lat="43.2973" lon="-1.4453">
        <ele>442.5</ele>
        <time>2022-09-04T08:06:12Z</time>
      </trkpt>
      <trkpt lat="43.29728" lon="-1.44527">
        <ele>442.4</ele>
        <time>2022-09-04T08:06:13Z</time>
      </trkpt>
      <trkpt lat="43.29726" lon="-1.44522">
        <ele>442.2</ele>
        <time>2022-09-04T08:06:14Z</time>
      </trkpt>
      <trkpt lat="43.29723" lon="-1.44517">
        <ele>441.9</ele>
        <time>2022-09-04T08:06:15Z</time>
      </trkpt>
      <trkpt lat="43.2972" lon="-1.44513">
        <ele>441.6</ele>
        <time>2022-09-04T08:06:16Z</time>
      </trkpt>
      <trkpt lat="43.29718" lon="-1.44508">
        <ele>441.3</ele>
        <time>2022-09-04T08:06:17Z</time>
      </trkpt>
      <trkpt lat="43.29716" lon="-1.44504">
        <ele>441</ele>
        <time>2022-09-04T08:06:18Z</time>
      </trkpt>
      <trkpt lat="43.29713" lon="-1.44499">
        <ele>440.6</ele>
        <time>2022-09-04T08:06:19Z</time>
      </trkpt>
      <trkpt lat="43.29711" lon="-1.44494">
        <ele>440.3</ele>
        <time>2022-09-04T08:06:20Z</time>
      </trkpt>
      <trkpt lat="43.29709" lon="-1.44489">
        <ele>439.9</ele>
        <time>2022-09-04T08:06:21Z</time>
      </trkpt>
      <trkpt lat="43.29706" lon="-1.44483">
        <ele>439.4</ele>
        <time>2022-09-04T08:06:22Z</time>
      </trkpt>
      <trkpt lat="43.29703" lon="-1.44476">
        <ele>438.9</ele>
        <time>2022-09-04T08:06:23Z</time>
      </trkpt>
      <trkpt lat="43.29699" lon="-1.44469">
        <ele>438.5</ele>
        <time>2022-09-04T08:06:24Z</time>
      </trkpt>
      <trkpt lat="43.29696" lon="-1.44462">
        <ele>438.4</ele>
        <time>2022-09-04T08:06:25Z</time>
      </trkpt>
      <trkpt lat="43.29693" lon="-1.44456">
        <ele>438.3</ele>
        <time>2022-09-04T08:06:26Z</time>
      </trkpt>
      <trkpt lat="43.2969" lon="-1.44451">
        <ele>438.2</ele>
        <time>2022-09-04T08:06:27Z</time>
      </trkpt>
      <trkpt lat="43.29687" lon="-1.44448">
        <ele>438.1</ele>
        <time>2022-09-04T08:06:28Z</time>
      </trkpt>
      <trkpt lat="43.29684" lon="-1.44443">
        <ele>438</ele>
        <time>2022-09-04T08:06:29Z</time>
      </trkpt>
      <trkpt lat="43.29681" lon="-1.44439">
        <ele>437.8</ele>
        <time>2022-09-04T08:06:30Z</time>
      </trkpt>
      <trkpt lat="43.29679" lon="-1.44434">
        <ele>437.7</ele>
        <time>2022-09-04T08:06:31Z</time>
      </trkpt>
      <trkpt lat="43.29677" lon="-1.44429">
        <ele>437.5</ele>
        <time>2022-09-04T08:06:32Z</time>
      </trkpt>
      <trkpt lat="43.29675" lon="-1.44425">
        <ele>437.4</ele>
        <time>2022-09-04T08:06:33Z</time>
      </trkpt>
      <trkpt lat="43.29672" lon="-1.4442">
        <ele>437.2</ele>
        <time>2022-09-04T08:06:34Z</time>
      </trkpt>
      <trkpt lat="43.2967" lon="-1.44415">
        <ele>437.1</ele>
        <time>2022-09-04T08:06:35Z</time>
      </trkpt>
      <trkpt lat="43.29667" lon="-1.44409">
        <ele>436.9</ele>
        <time>2022-09-04T08:06:36Z</time>
      </trkpt>
      <trkpt lat="43.29663" lon="-1.44403">
        <ele>436.8</ele>
        <time>2022-09-04T08:06:37Z</time>
      </trkpt>
      <trkpt lat="43.2966" lon="-1.44396">
        <ele>436.7</ele>
        <time>2022-09-04T08:06:38Z</time>
      </trkpt>
      <trkpt lat="43.29653" lon="-1.44382">
        <ele>437</ele>
        <time>2022-09-04T08:06:40Z</time>
      </trkpt>
      <trkpt lat="43.2965" lon="-1.44376">
        <ele>437.3</ele>
        <time>2022-09-04T08:06:41Z</time>
      </trkpt>
      <trkpt lat="43.29646" lon="-1.4437">
        <ele>437.7</ele>
        <time>2022-09-04T08:06:42Z</time>
      </trkpt>
      <trkpt lat="43.29643" lon="-1.44365">
        <ele>438.3</ele>
        <time>2022-09-04T08:06:43Z</time>
      </trkpt>
      <trkpt lat="43.29639" lon="-1.44359">
        <ele>438.9</ele>
        <time>2022-09-04T08:06:44Z</time>
      </trkpt>
      <trkpt lat="43.29635" lon="-1.44355">
        <ele>439.5</ele>
        <time>2022-09-04T08:06:45Z</time>
      </trkpt>
      <trkpt lat="43.29632" lon="-1.44352">
        <ele>440.1</ele>
        <time>2022-09-04T08:06:46Z</time>
      </trkpt>
      <trkpt lat="43.29628" lon="-1.4435">
        <ele>440.7</ele>
        <time>2022-09-04T08:06:47Z</time>
      </trkpt>
      <trkpt lat="43.29625" lon="-1.44347">
        <ele>441.3</ele>
        <time>2022-09-04T08:06:48Z</time>
      </trkpt>
      <trkpt lat="43.29621" lon="-1.44344">
        <ele>442</ele>
        <time>2022-09-04T08:06:49Z</time>
      </trkpt>
      <trkpt lat="43.29618" lon="-1.44341">
        <ele>442.6</ele>
        <time>2022-09-04T08:06:50Z</time>
      </trkpt>
      <trkpt lat="43.29614" lon="-1.44337">
        <ele>443.3</ele>
        <time>2022-09-04T08:06:51Z</time>
      </trkpt>
      <trkpt lat="43.29612" lon="-1.44333">
        <ele>443.9</ele>
        <time>2022-09-04T08:06:52Z</time>
      </trkpt>
      <trkpt lat="43.29609" lon="-1.4433">
        <ele>444.4</ele>
        <time>2022-09-04T08:06:53Z</time>
      </trkpt>
      <trkpt lat="43.29606" lon="-1.44327">
        <ele>445</ele>
        <time>2022-09-04T08:06:54Z</time>
      </trkpt>
      <trkpt lat="43.29603" lon="-1.44325">
        <ele>445.5</ele>
        <time>2022-09-04T08:06:55Z</time>
      </trkpt>
      <trkpt lat="43.296" lon="-1.44322">
        <ele>446</ele>
        <time>2022-09-04T08:06:56Z</time>
      </trkpt>
      <trkpt lat="43.29597" lon="-1.4432">
        <ele>446.5</ele>
        <time>2022-09-04T08:06:57Z</time>
      </trkpt>
      <trkpt lat="43.29594" lon="-1.44317">
        <ele>446.9</ele>
        <time>2022-09-04T08:06:58Z</time>
      </trkpt>
      <trkpt lat="43.29591" lon="-1.44315">
        <ele>447.4</ele>
        <time>2022-09-04T08:06:59Z</time>
      </trkpt>
      <trkpt lat="43.29588" lon="-1.44312">
        <ele>447.8</ele>
        <time>2022-09-04T08:07:00Z</time>
      </trkpt>
      <trkpt lat="43.29585" lon="-1.44309">
        <ele>448.2</ele>
        <time>2022-09-04T08:07:01Z</time>
      </trkpt>
      <trkpt lat="43.29583" lon="-1.44307">
        <ele>448.7</ele>
        <time>2022-09-04T08:07:02Z</time>
      </trkpt>
      <trkpt lat="43.29579" lon="-1.44305">
        <ele>449.1</ele>
        <time>2022-09-04T08:07:03Z</time>
      </trkpt>
      <trkpt lat="43.29576" lon="-1.44302">
        <ele>449.7</ele>
        <time>2022-09-04T08:07:04Z</time>
      </trkpt>
      <trkpt lat="43.29573" lon="-1.44298">
        <ele>450.3</ele>
        <time>2022-09-04T08:07:05Z</time>
      </trkpt>
      <trkpt lat="43.29571" lon="-1.44294">
        <ele>450.9</ele>
        <time>2022-09-04T08:07:06Z</time>
      </trkpt>
      <trkpt lat="43.29569" lon="-1.4429">
        <ele>451.5</ele>
        <time>2022-09-04T08:07:07Z</time>
      </trkpt>
      <trkpt lat="43.29566" lon="-1.44288">
        <ele>452</ele>
        <time>2022-09-04T08:07:08Z</time>
      </trkpt>
      <trkpt lat="43.29564" lon="-1.44285">
        <ele>452.5</ele>
        <time>2022-09-04T08:07:09Z</time>
      </trkpt>
      <trkpt lat="43.29561" lon="-1.44282">
        <ele>453</ele>
        <time>2022-09-04T08:07:10Z</time>
      </trkpt>
      <trkpt lat="43.29558" lon="-1.44279">
        <ele>453.6</ele>
        <time>2022-09-04T08:07:11Z</time>
      </trkpt>
      <trkpt lat="43.29556" lon="-1.44276">
        <ele>454.1</ele>
        <time>2022-09-04T08:07:12Z</time>
      </trkpt>
      <trkpt lat="43.29553" lon="-1.44272">
        <ele>454.6</ele>
        <time>2022-09-04T08:07:13Z</time>
      </trkpt>
      <trkpt lat="43.29551" lon="-1.44269">
        <ele>455</ele>
        <time>2022-09-04T08:07:14Z</time>
      </trkpt>
      <trkpt lat="43.29548" lon="-1.44267">
        <ele>455.4</ele>
        <time>2022-09-04T08:07:15Z</time>
      </trkpt>
      <trkpt lat="43.29545" lon="-1.44264">
        <ele>455.8</ele>
        <time>2022-09-04T08:07:16Z</time>
      </trkpt>
      <trkpt lat="43.29543" lon="-1.44261">
        <ele>456.2</ele>
        <time>2022-09-04T08:07:17Z</time>
      </trkpt>
      <trkpt lat="43.29541" lon="-1.44257">
        <ele>456.6</ele>
        <time>2022-09-04T08:07:18Z</time>
      </trkpt>
      <trkpt lat="43.29539" lon="-1.44254">
        <ele>456.9</ele>
        <time>2022-09-04T08:07:19Z</time>
      </trkpt>
      <trkpt lat="43.29537" lon="-1.44251">
        <ele>457.2</ele>
        <time>2022-09-04T08:07:20Z</time>
      </trkpt>
      <trkpt lat="43.29534" lon="-1.44249">
        <ele>457.5</ele>
        <time>2022-09-04T08:07:21Z</time>
      </trkpt>
      <trkpt lat="43.29532" lon="-1.44247">
        <ele>457.7</ele>
        <time>2022-09-04T08:07:22Z</time>
      </trkpt>
      <trkpt lat="43.29529" lon="-1.44244">
        <ele>458</ele>
        <time>2022-09-04T08:07:23Z</time>
      </trkpt>
      <trkpt lat="43.29527" lon="-1.44241">
        <ele>458.2</ele>
        <time>2022-09-04T08:07:24Z</time>
      </trkpt>
      <trkpt lat="43.29525" lon="-1.44239">
        <ele>458.4</ele>
        <time>2022-09-04T08:07:25Z</time>
      </trkpt>
      <trkpt lat="43.29523" lon="-1.44236">
        <ele>458.6</ele>
        <time>2022-09-04T08:07:26Z</time>
      </trkpt>
      <trkpt lat="43.2952" lon="-1.44234">
        <ele>458.7</ele>
        <time>2022-09-04T08:07:27Z</time>
      </trkpt>
      <trkpt lat="43.29518" lon="-1.44231">
        <ele>458.9</ele>
        <time>2022-09-04T08:07:28Z</time>
      </trkpt>
      <trkpt lat="43.29516" lon="-1.44228">
        <ele>459</ele>
        <time>2022-09-04T08:07:29Z</time>
      </trkpt>
      <trkpt lat="43.29513" lon="-1.44226">
        <ele>459.1</ele>
        <time>2022-09-04T08:07:30Z</time>
      </trkpt>
      <trkpt lat="43.29511" lon="-1.44223">
        <ele>459.2</ele>
        <time>2022-09-04T08:07:31Z</time>
      </trkpt>
      <trkpt lat="43.29508" lon="-1.4422">
        <ele>459.2</ele>
        <time>2022-09-04T08:07:32Z</time>
      </trkpt>
      <trkpt lat="43.29506" lon="-1.44217">
        <ele>459.3</ele>
        <time>2022-09-04T08:07:33Z</time>
      </trkpt>
      <trkpt lat="43.29503" lon="-1.44214">
        <ele>459.3</ele>
        <time>2022-09-04T08:07:34Z</time>
      </trkpt>
      <trkpt lat="43.29501" lon="-1.4421">
        <ele>459.3</ele>
        <time>2022-09-04T08:07:35Z</time>
      </trkpt>
      <trkpt lat="43.29498" lon="-1.44207">
        <ele>459.3</ele>
        <time>2022-09-04T08:07:36Z</time>
      </trkpt>
      <trkpt lat="43.29496" lon="-1.44204">
        <ele>459.3</ele>
        <time>2022-09-04T08:07:37Z</time>
      </trkpt>
      <trkpt lat="43.29493" lon="-1.442">
        <ele>459.3</ele>
        <time>2022-09-04T08:07:38Z</time>
      </trkpt>
      <trkpt lat="43.29491" lon="-1.44196">
        <ele>459.3</ele>
        <time>2022-09-04T08:07:39Z</time>
      </trkpt>
      <trkpt lat="43.29489" lon="-1.44192">
        <ele>459.3</ele>
        <time>2022-09-04T08:07:40Z</time>
      </trkpt>
      <trkpt lat="43.29487" lon="-1.44188">
        <ele>459.4</ele>
        <time>2022-09-04T08:07:41Z</time>
      </trkpt>
      <trkpt lat="43.29486" lon="-1.44183">
        <ele>459.4</ele>
        <time>2022-09-04T08:07:42Z</time>
      </trkpt>
      <trkpt lat="43.29484" lon="-1.44177">
        <ele>459.5</ele>
        <time>2022-09-04T08:07:43Z</time>
      </trkpt>
      <trkpt lat="43.29482" lon="-1.44172">
        <ele>459.7</ele>
        <time>2022-09-04T08:07:44Z</time>
      </trkpt>
      <trkpt lat="43.2948" lon="-1.44168">
        <ele>459.9</ele>
        <time>2022-09-04T08:07:45Z</time>
      </trkpt>
      <trkpt lat="43.29477" lon="-1.44164">
        <ele>460.1</ele>
        <time>2022-09-04T08:07:46Z</time>
      </trkpt>
      <trkpt lat="43.29474" lon="-1.44161">
        <ele>460.5</ele>
        <time>2022-09-04T08:07:47Z</time>
      </trkpt>
      <trkpt lat="43.29472" lon="-1.44158">
        <ele>460.9</ele>
        <time>2022-09-04T08:07:48Z</time>
      </trkpt>
      <trkpt lat="43.29469" lon="-1.44155">
        <ele>461.2</ele>
        <time>2022-09-04T08:07:49Z</time>
      </trkpt>
      <trkpt lat="43.29467" lon="-1.44152">
        <ele>461.6</ele>
        <time>2022-09-04T08:07:50Z</time>
      </trkpt>
      <trkpt lat="43.29465" lon="-1.44149">
        <ele>462.1</ele>
        <time>2022-09-04T08:07:51Z</time>
      </trkpt>
      <trkpt lat="43.29463" lon="-1.44144">
        <ele>462.7</ele>
        <time>2022-09-04T08:07:52Z</time>
      </trkpt>
      <trkpt lat="43.29461" lon="-1.4414">
        <ele>463.2</ele>
        <time>2022-09-04T08:07:53Z</time>
      </trkpt>
      <trkpt lat="43.29459" lon="-1.44135">
        <ele>463.7</ele>
        <time>2022-09-04T08:07:54Z</time>
      </trkpt>
      <trkpt lat="43.29457" lon="-1.44131">
        <ele>464</ele>
        <time>2022-09-04T08:07:55Z</time>
      </trkpt>
      <trkpt lat="43.29455" lon="-1.44128">
        <ele>464.3</ele>
        <time>2022-09-04T08:07:56Z</time>
      </trkpt>
      <trkpt lat="43.29452" lon="-1.44125">
        <ele>464.5</ele>
        <time>2022-09-04T08:07:57Z</time>
      </trkpt>
      <trkpt lat="43.29451" lon="-1.44124">
        <ele>464.5</ele>
        <time>2022-09-04T08:07:58Z</time>
      </trkpt>
      <trkpt lat="43.29448" lon="-1.44122">
        <ele>464.5</ele>
        <time>2022-09-04T08:07:59Z</time>
      </trkpt>
      <trkpt lat="43.29447" lon="-1.44121">
        <ele>464.5</ele>
        <time>2022-09-04T08:08:00Z</time>
      </trkpt>
      <trkpt lat="43.29443" lon="-1.44119">
        <ele>464.5</ele>
        <time>2022-09-04T08:08:01Z</time>
      </trkpt>
      <trkpt lat="43.29442" lon="-1.44119">
        <ele>464.4</ele>
        <time>2022-09-04T08:08:02Z</time>
      </trkpt>
      <trkpt lat="43.29439" lon="-1.44117">
        <ele>464.3</ele>
        <time>2022-09-04T08:08:03Z</time>
      </trkpt>
      <trkpt lat="43.29436" lon="-1.44116">
        <ele>464.3</ele>
        <time>2022-09-04T08:08:04Z</time>
      </trkpt>
      <trkpt lat="43.29432" lon="-1.44115">
        <ele>464.3</ele>
        <time>2022-09-04T08:08:05Z</time>
      </trkpt>
      <trkpt lat="43.29428" lon="-1.44114">
        <ele>464.3</ele>
        <time>2022-09-04T08:08:06Z</time>
      </trkpt>
      <trkpt lat="43.29423" lon="-1.44114">
        <ele>464.5</ele>
        <time>2022-09-04T08:08:07Z</time>
      </trkpt>
      <trkpt lat="43.29417" lon="-1.44115">
        <ele>464.9</ele>
        <time>2022-09-04T08:08:08Z</time>
      </trkpt>
      <trkpt lat="43.29405" lon="-1.44115">
        <ele>465.9</ele>
        <time>2022-09-04T08:08:10Z</time>
      </trkpt>
      <trkpt lat="43.29401" lon="-1.44113">
        <ele>466.3</ele>
        <time>2022-09-04T08:08:11Z</time>
      </trkpt>
      <trkpt lat="43.29398" lon="-1.4411">
        <ele>466.5</ele>
        <time>2022-09-04T08:08:12Z</time>
      </trkpt>
      <trkpt lat="43.29395" lon="-1.44107">
        <ele>466.8</ele>
        <time>2022-09-04T08:08:13Z</time>
      </trkpt>
      <trkpt lat="43.29392" lon="-1.44104">
        <ele>467.1</ele>
        <time>2022-09-04T08:08:14Z</time>
      </trkpt>
      <trkpt lat="43.2939" lon="-1.44101">
        <ele>467.3</ele>
        <time>2022-09-04T08:08:15Z</time>
      </trkpt>
      <trkpt lat="43.29382" lon="-1.4409">
        <ele>467.8</ele>
        <time>2022-09-04T08:08:18Z</time>
      </trkpt>
      <trkpt lat="43.29381" lon="-1.44088">
        <ele>467.9</ele>
        <time>2022-09-04T08:08:19Z</time>
      </trkpt>
      <trkpt lat="43.29379" lon="-1.44085">
        <ele>468.1</ele>
        <time>2022-09-04T08:08:20Z</time>
      </trkpt>
      <trkpt lat="43.29377" lon="-1.44083">
        <ele>468.2</ele>
        <time>2022-09-04T08:08:21Z</time>
      </trkpt>
      <trkpt lat="43.29375" lon="-1.4408">
        <ele>468.3</ele>
        <time>2022-09-04T08:08:22Z</time>
      </trkpt>
      <trkpt lat="43.29373" lon="-1.44075">
        <ele>468.4</ele>
        <time>2022-09-04T08:08:23Z</time>
      </trkpt>
      <trkpt lat="43.29372" lon="-1.44074">
        <ele>468.4</ele>
        <time>2022-09-04T08:08:24Z</time>
      </trkpt>
      <trkpt lat="43.29371" lon="-1.44071">
        <ele>468.5</ele>
        <time>2022-09-04T08:08:25Z</time>
      </trkpt>
      <trkpt lat="43.2937" lon="-1.44067">
        <ele>468.5</ele>
        <time>2022-09-04T08:08:26Z</time>
      </trkpt>
      <trkpt lat="43.29368" lon="-1.44063">
        <ele>468.6</ele>
        <time>2022-09-04T08:08:27Z</time>
      </trkpt>
      <trkpt lat="43.29366" lon="-1.44058">
        <ele>468.7</ele>
        <time>2022-09-04T08:08:28Z</time>
      </trkpt>
      <trkpt lat="43.29364" lon="-1.44054">
        <ele>468.7</ele>
        <time>2022-09-04T08:08:29Z</time>
      </trkpt>
      <trkpt lat="43.29361" lon="-1.4405">
        <ele>468.8</ele>
        <time>2022-09-04T08:08:30Z</time>
      </trkpt>
      <trkpt lat="43.29359" lon="-1.44045">
        <ele>468.9</ele>
        <time>2022-09-04T08:08:31Z</time>
      </trkpt>
      <trkpt lat="43.29357" lon="-1.4404">
        <ele>469</ele>
        <time>2022-09-04T08:08:32Z</time>
      </trkpt>
      <trkpt lat="43.29354" lon="-1.44035">
        <ele>469.2</ele>
        <time>2022-09-04T08:08:33Z</time>
      </trkpt>
      <trkpt lat="43.29351" lon="-1.44031">
        <ele>469.3</ele>
        <time>2022-09-04T08:08:34Z</time>
      </trkpt>
      <trkpt lat="43.29349" lon="-1.44027">
        <ele>469.3</ele>
        <time>2022-09-04T08:08:35Z</time>
      </trkpt>
      <trkpt lat="43.29346" lon="-1.44022">
        <ele>469.3</ele>
        <time>2022-09-04T08:08:36Z</time>
      </trkpt>
      <trkpt lat="43.29344" lon="-1.44018">
        <ele>469.2</ele>
        <time>2022-09-04T08:08:38Z</time>
      </trkpt>
      <trkpt lat="43.29339" lon="-1.44012">
        <ele>469.1</ele>
        <time>2022-09-04T08:08:39Z</time>
      </trkpt>
      <trkpt lat="43.29336" lon="-1.44004">
        <ele>469</ele>
        <time>2022-09-04T08:08:41Z</time>
      </trkpt>
      <trkpt lat="43.29334" lon="-1.43999">
        <ele>468.9</ele>
        <time>2022-09-04T08:08:42Z</time>
      </trkpt>
      <trkpt lat="43.29332" lon="-1.43995">
        <ele>469</ele>
        <time>2022-09-04T08:08:43Z</time>
      </trkpt>
      <trkpt lat="43.2933" lon="-1.43991">
        <ele>469</ele>
        <time>2022-09-04T08:08:44Z</time>
      </trkpt>
      <trkpt lat="43.29329" lon="-1.43986">
        <ele>469.1</ele>
        <time>2022-09-04T08:08:45Z</time>
      </trkpt>
      <trkpt lat="43.29329" lon="-1.43985">
        <ele>469.2</ele>
        <time>2022-09-04T08:08:46Z</time>
      </trkpt>
      <trkpt lat="43.29328" lon="-1.43981">
        <ele>469.3</ele>
        <time>2022-09-04T08:08:47Z</time>
      </trkpt>
      <trkpt lat="43.29328" lon="-1.4398">
        <ele>469.3</ele>
        <time>2022-09-04T08:08:48Z</time>
      </trkpt>
      <trkpt lat="43.29325" lon="-1.43976">
        <ele>469.5</ele>
        <time>2022-09-04T08:08:49Z</time>
      </trkpt>
      <trkpt lat="43.29324" lon="-1.43975">
        <ele>469.5</ele>
        <time>2022-09-04T08:08:50Z</time>
      </trkpt>
      <trkpt lat="43.29321" lon="-1.43974">
        <ele>469.7</ele>
        <time>2022-09-04T08:08:51Z</time>
      </trkpt>
      <trkpt lat="43.29318" lon="-1.43973">
        <ele>469.8</ele>
        <time>2022-09-04T08:08:52Z</time>
      </trkpt>
      <trkpt lat="43.29315" lon="-1.43973">
        <ele>470</ele>
        <time>2022-09-04T08:08:53Z</time>
      </trkpt>
      <trkpt lat="43.29311" lon="-1.43972">
        <ele>470.3</ele>
        <time>2022-09-04T08:08:54Z</time>
      </trkpt>
      <trkpt lat="43.2931" lon="-1.43972">
        <ele>470.5</ele>
        <time>2022-09-04T08:08:55Z</time>
      </trkpt>
      <trkpt lat="43.29307" lon="-1.43971">
        <ele>470.8</ele>
        <time>2022-09-04T08:08:56Z</time>
      </trkpt>
      <trkpt lat="43.29305" lon="-1.43971">
        <ele>470.9</ele>
        <time>2022-09-04T08:08:57Z</time>
      </trkpt>
      <trkpt lat="43.29303" lon="-1.43971">
        <ele>471.3</ele>
        <time>2022-09-04T08:08:58Z</time>
      </trkpt>
      <trkpt lat="43.29299" lon="-1.4397">
        <ele>471.8</ele>
        <time>2022-09-04T08:08:59Z</time>
      </trkpt>
      <trkpt lat="43.29296" lon="-1.43969">
        <ele>472.3</ele>
        <time>2022-09-04T08:09:00Z</time>
      </trkpt>
      <trkpt lat="43.29292" lon="-1.43968">
        <ele>472.9</ele>
        <time>2022-09-04T08:09:01Z</time>
      </trkpt>
      <trkpt lat="43.29289" lon="-1.43967">
        <ele>473.6</ele>
        <time>2022-09-04T08:09:02Z</time>
      </trkpt>
      <trkpt lat="43.29286" lon="-1.43967">
        <ele>474.2</ele>
        <time>2022-09-04T08:09:03Z</time>
      </trkpt>
      <trkpt lat="43.29283" lon="-1.43966">
        <ele>474.8</ele>
        <time>2022-09-04T08:09:04Z</time>
      </trkpt>
      <trkpt lat="43.2928" lon="-1.43966">
        <ele>475.3</ele>
        <time>2022-09-04T08:09:05Z</time>
      </trkpt>
      <trkpt lat="43.29277" lon="-1.43965">
        <ele>476.1</ele>
        <time>2022-09-04T08:09:06Z</time>
      </trkpt>
      <trkpt lat="43.29273" lon="-1.43965">
        <ele>476.7</ele>
        <time>2022-09-04T08:09:07Z</time>
      </trkpt>
      <trkpt lat="43.2927" lon="-1.43964">
        <ele>477.4</ele>
        <time>2022-09-04T08:09:08Z</time>
      </trkpt>
      <trkpt lat="43.29266" lon="-1.43962">
        <ele>478.2</ele>
        <time>2022-09-04T08:09:09Z</time>
      </trkpt>
      <trkpt lat="43.29262" lon="-1.43961">
        <ele>478.9</ele>
        <time>2022-09-04T08:09:10Z</time>
      </trkpt>
      <trkpt lat="43.29258" lon="-1.43959">
        <ele>479.6</ele>
        <time>2022-09-04T08:09:11Z</time>
      </trkpt>
      <trkpt lat="43.29254" lon="-1.43956">
        <ele>480.3</ele>
        <time>2022-09-04T08:09:12Z</time>
      </trkpt>
      <trkpt lat="43.29251" lon="-1.43954">
        <ele>480.9</ele>
        <time>2022-09-04T08:09:13Z</time>
      </trkpt>
      <trkpt lat="43.29248" lon="-1.43953">
        <ele>481.4</ele>
        <time>2022-09-04T08:09:14Z</time>
      </trkpt>
      <trkpt lat="43.29244" lon="-1.43951">
        <ele>481.9</ele>
        <time>2022-09-04T08:09:15Z</time>
      </trkpt>
      <trkpt lat="43.29241" lon="-1.43948">
        <ele>482.5</ele>
        <time>2022-09-04T08:09:16Z</time>
      </trkpt>
      <trkpt lat="43.29238" lon="-1.43945">
        <ele>483</ele>
        <time>2022-09-04T08:09:17Z</time>
      </trkpt>
      <trkpt lat="43.29235" lon="-1.43941">
        <ele>483.6</ele>
        <time>2022-09-04T08:09:18Z</time>
      </trkpt>
      <trkpt lat="43.29232" lon="-1.43937">
        <ele>484.2</ele>
        <time>2022-09-04T08:09:19Z</time>
      </trkpt>
      <trkpt lat="43.29228" lon="-1.43933">
        <ele>484.9</ele>
        <time>2022-09-04T08:09:20Z</time>
      </trkpt>
      <trkpt lat="43.29225" lon="-1.43929">
        <ele>485.5</ele>
        <time>2022-09-04T08:09:21Z</time>
      </trkpt>
      <trkpt lat="43.29222" lon="-1.43925">
        <ele>486.1</ele>
        <time>2022-09-04T08:09:22Z</time>
      </trkpt>
      <trkpt lat="43.2922" lon="-1.43921">
        <ele>486.7</ele>
        <time>2022-09-04T08:09:23Z</time>
      </trkpt>
      <trkpt lat="43.29218" lon="-1.43917">
        <ele>487.3</ele>
        <time>2022-09-04T08:09:24Z</time>
      </trkpt>
      <trkpt lat="43.29216" lon="-1.43912">
        <ele>487.9</ele>
        <time>2022-09-04T08:09:25Z</time>
      </trkpt>
      <trkpt lat="43.29215" lon="-1.43908">
        <ele>488.5</ele>
        <time>2022-09-04T08:09:26Z</time>
      </trkpt>
      <trkpt lat="43.29213" lon="-1.43904">
        <ele>489</ele>
        <time>2022-09-04T08:09:27Z</time>
      </trkpt>
      <trkpt lat="43.29211" lon="-1.43899">
        <ele>489.5</ele>
        <time>2022-09-04T08:09:28Z</time>
      </trkpt>
      <trkpt lat="43.29209" lon="-1.43895">
        <ele>490</ele>
        <time>2022-09-04T08:09:29Z</time>
      </trkpt>
      <trkpt lat="43.29208" lon="-1.43891">
        <ele>490.5</ele>
        <time>2022-09-04T08:09:30Z</time>
      </trkpt>
      <trkpt lat="43.29206" lon="-1.43887">
        <ele>491</ele>
        <time>2022-09-04T08:09:31Z</time>
      </trkpt>
      <trkpt lat="43.29205" lon="-1.43883">
        <ele>491.5</ele>
        <time>2022-09-04T08:09:32Z</time>
      </trkpt>
      <trkpt lat="43.29204" lon="-1.43877">
        <ele>492.1</ele>
        <time>2022-09-04T08:09:33Z</time>
      </trkpt>
      <trkpt lat="43.29204" lon="-1.43875">
        <ele>492.3</ele>
        <time>2022-09-04T08:09:34Z</time>
      </trkpt>
      <trkpt lat="43.29203" lon="-1.43871">
        <ele>492.8</ele>
        <time>2022-09-04T08:09:35Z</time>
      </trkpt>
      <trkpt lat="43.29202" lon="-1.43867">
        <ele>493.3</ele>
        <time>2022-09-04T08:09:36Z</time>
      </trkpt>
      <trkpt lat="43.29202" lon="-1.43863">
        <ele>493.8</ele>
        <time>2022-09-04T08:09:37Z</time>
      </trkpt>
      <trkpt lat="43.29202" lon="-1.43858">
        <ele>494.4</ele>
        <time>2022-09-04T08:09:38Z</time>
      </trkpt>
      <trkpt lat="43.29202" lon="-1.43856">
        <ele>494.7</ele>
        <time>2022-09-04T08:09:39Z</time>
      </trkpt>
      <trkpt lat="43.29201" lon="-1.43852">
        <ele>495.2</ele>
        <time>2022-09-04T08:09:40Z</time>
      </trkpt>
      <trkpt lat="43.29199" lon="-1.43849">
        <ele>495.7</ele>
        <time>2022-09-04T08:09:41Z</time>
      </trkpt>
      <trkpt lat="43.29197" lon="-1.43846">
        <ele>496.2</ele>
        <time>2022-09-04T08:09:42Z</time>
      </trkpt>
      <trkpt lat="43.29194" lon="-1.43842">
        <ele>497</ele>
        <time>2022-09-04T08:09:43Z</time>
      </trkpt>
      <trkpt lat="43.29194" lon="-1.4384">
        <ele>497.2</ele>
        <time>2022-09-04T08:09:44Z</time>
      </trkpt>
      <trkpt lat="43.2919" lon="-1.43837">
        <ele>498</ele>
        <time>2022-09-04T08:09:45Z</time>
      </trkpt>
      <trkpt lat="43.29189" lon="-1.43836">
        <ele>498.3</ele>
        <time>2022-09-04T08:09:46Z</time>
      </trkpt>
      <trkpt lat="43.29186" lon="-1.43834">
        <ele>498.9</ele>
        <time>2022-09-04T08:09:47Z</time>
      </trkpt>
      <trkpt lat="43.29183" lon="-1.43833">
        <ele>499.6</ele>
        <time>2022-09-04T08:09:48Z</time>
      </trkpt>
      <trkpt lat="43.2918" lon="-1.43832">
        <ele>500.3</ele>
        <time>2022-09-04T08:09:49Z</time>
      </trkpt>
      <trkpt lat="43.29176" lon="-1.43831">
        <ele>501.1</ele>
        <time>2022-09-04T08:09:50Z</time>
      </trkpt>
      <trkpt lat="43.29175" lon="-1.43831">
        <ele>501.3</ele>
        <time>2022-09-04T08:09:51Z</time>
      </trkpt>
      <trkpt lat="43.29171" lon="-1.4383">
        <ele>502.2</ele>
        <time>2022-09-04T08:09:52Z</time>
      </trkpt>
      <trkpt lat="43.2917" lon="-1.43829">
        <ele>502.5</ele>
        <time>2022-09-04T08:09:53Z</time>
      </trkpt>
      <trkpt lat="43.29166" lon="-1.43827">
        <ele>503.2</ele>
        <time>2022-09-04T08:09:54Z</time>
      </trkpt>
      <trkpt lat="43.29165" lon="-1.43825">
        <ele>503.5</ele>
        <time>2022-09-04T08:09:55Z</time>
      </trkpt>
      <trkpt lat="43.29163" lon="-1.43822">
        <ele>504.2</ele>
        <time>2022-09-04T08:09:56Z</time>
      </trkpt>
      <trkpt lat="43.29162" lon="-1.43821">
        <ele>504.5</ele>
        <time>2022-09-04T08:09:57Z</time>
      </trkpt>
      <trkpt lat="43.2916" lon="-1.43818">
        <ele>505</ele>
        <time>2022-09-04T08:09:58Z</time>
      </trkpt>
      <trkpt lat="43.29158" lon="-1.43815">
        <ele>505.6</ele>
        <time>2022-09-04T08:09:59Z</time>
      </trkpt>
      <trkpt lat="43.29156" lon="-1.43812">
        <ele>506.2</ele>
        <time>2022-09-04T08:10:00Z</time>
      </trkpt>
      <trkpt lat="43.29154" lon="-1.4381">
        <ele>506.7</ele>
        <time>2022-09-04T08:10:01Z</time>
      </trkpt>
      <trkpt lat="43.29152" lon="-1.43807">
        <ele>507.3</ele>
        <time>2022-09-04T08:10:02Z</time>
      </trkpt>
      <trkpt lat="43.29149" lon="-1.43804">
        <ele>508</ele>
        <time>2022-09-04T08:10:03Z</time>
      </trkpt>
      <trkpt lat="43.29148" lon="-1.43803">
        <ele>508.3</ele>
        <time>2022-09-04T08:10:04Z</time>
      </trkpt>
      <trkpt lat="43.29146" lon="-1.438">
        <ele>508.8</ele>
        <time>2022-09-04T08:10:05Z</time>
      </trkpt>
      <trkpt lat="43.29143" lon="-1.43796">
        <ele>509.6</ele>
        <time>2022-09-04T08:10:06Z</time>
      </trkpt>
      <trkpt lat="43.29141" lon="-1.43795">
        <ele>509.9</ele>
        <time>2022-09-04T08:10:07Z</time>
      </trkpt>
      <trkpt lat="43.29139" lon="-1.43792">
        <ele>510.5</ele>
        <time>2022-09-04T08:10:08Z</time>
      </trkpt>
      <trkpt lat="43.29137" lon="-1.4379">
        <ele>511.1</ele>
        <time>2022-09-04T08:10:09Z</time>
      </trkpt>
      <trkpt lat="43.29135" lon="-1.43786">
        <ele>511.7</ele>
        <time>2022-09-04T08:10:10Z</time>
      </trkpt>
      <trkpt lat="43.29133" lon="-1.43782">
        <ele>512.5</ele>
        <time>2022-09-04T08:10:11Z</time>
      </trkpt>
      <trkpt lat="43.29132" lon="-1.43781">
        <ele>512.7</ele>
        <time>2022-09-04T08:10:12Z</time>
      </trkpt>
      <trkpt lat="43.29131" lon="-1.43778">
        <ele>513.3</ele>
        <time>2022-09-04T08:10:13Z</time>
      </trkpt>
      <trkpt lat="43.2913" lon="-1.43776">
        <ele>513.6</ele>
        <time>2022-09-04T08:10:14Z</time>
      </trkpt>
      <trkpt lat="43.29129" lon="-1.43773">
        <ele>514.2</ele>
        <time>2022-09-04T08:10:15Z</time>
      </trkpt>
      <trkpt lat="43.29129" lon="-1.43772">
        <ele>514.4</ele>
        <time>2022-09-04T08:10:16Z</time>
      </trkpt>
      <trkpt lat="43.29126" lon="-1.43771">
        <ele>515</ele>
        <time>2022-09-04T08:10:17Z</time>
      </trkpt>
      <trkpt lat="43.29125" lon="-1.4377">
        <ele>515.2</ele>
        <time>2022-09-04T08:10:18Z</time>
      </trkpt>
      <trkpt lat="43.29124" lon="-1.43771">
        <ele>515.5</ele>
        <time>2022-09-04T08:10:19Z</time>
      </trkpt>
      <trkpt lat="43.29123" lon="-1.43772">
        <ele>515.6</ele>
        <time>2022-09-04T08:10:20Z</time>
      </trkpt>
      <trkpt lat="43.29123" lon="-1.43773">
        <ele>515.7</ele>
        <time>2022-09-04T08:10:21Z</time>
      </trkpt>
      <trkpt lat="43.29123" lon="-1.43773">
        <ele>515.9</ele>
        <time>2022-09-04T08:10:22Z</time>
      </trkpt>
      <trkpt lat="43.29122" lon="-1.43774">
        <ele>516</ele>
        <time>2022-09-04T08:10:23Z</time>
      </trkpt>
      <trkpt lat="43.29119" lon="-1.43777">
        <ele>516.8</ele>
        <time>2022-09-04T08:10:24Z</time>
      </trkpt>
      <trkpt lat="43.29118" lon="-1.43778">
        <ele>517</ele>
        <time>2022-09-04T08:10:25Z</time>
      </trkpt>
      <trkpt lat="43.29116" lon="-1.43781">
        <ele>517.8</ele>
        <time>2022-09-04T08:10:26Z</time>
      </trkpt>
      <trkpt lat="43.29115" lon="-1.43782">
        <ele>518</ele>
        <time>2022-09-04T08:10:27Z</time>
      </trkpt>
      <trkpt lat="43.29113" lon="-1.43786">
        <ele>518.8</ele>
        <time>2022-09-04T08:10:28Z</time>
      </trkpt>
      <trkpt lat="43.29112" lon="-1.43787">
        <ele>519.1</ele>
        <time>2022-09-04T08:10:29Z</time>
      </trkpt>
      <trkpt lat="43.29109" lon="-1.43789">
        <ele>519.7</ele>
        <time>2022-09-04T08:10:30Z</time>
      </trkpt>
      <trkpt lat="43.29107" lon="-1.43791">
        <ele>520.4</ele>
        <time>2022-09-04T08:10:31Z</time>
      </trkpt>
      <trkpt lat="43.29105" lon="-1.43793">
        <ele>521</ele>
        <time>2022-09-04T08:10:32Z</time>
      </trkpt>
      <trkpt lat="43.29101" lon="-1.43794">
        <ele>521.8</ele>
        <time>2022-09-04T08:10:33Z</time>
      </trkpt>
      <trkpt lat="43.29099" lon="-1.43796">
        <ele>522.4</ele>
        <time>2022-09-04T08:10:34Z</time>
      </trkpt>
      <trkpt lat="43.29096" lon="-1.43798">
        <ele>523.1</ele>
        <time>2022-09-04T08:10:35Z</time>
      </trkpt>
      <trkpt lat="43.29094" lon="-1.438">
        <ele>523.7</ele>
        <time>2022-09-04T08:10:36Z</time>
      </trkpt>
      <trkpt lat="43.29092" lon="-1.43802">
        <ele>524.4</ele>
        <time>2022-09-04T08:10:37Z</time>
      </trkpt>
      <trkpt lat="43.29089" lon="-1.43805">
        <ele>525.3</ele>
        <time>2022-09-04T08:10:38Z</time>
      </trkpt>
      <trkpt lat="43.29086" lon="-1.43808">
        <ele>526.1</ele>
        <time>2022-09-04T08:10:39Z</time>
      </trkpt>
      <trkpt lat="43.29083" lon="-1.43811">
        <ele>526.9</ele>
        <time>2022-09-04T08:10:40Z</time>
      </trkpt>
      <trkpt lat="43.2908" lon="-1.43813">
        <ele>527.6</ele>
        <time>2022-09-04T08:10:41Z</time>
      </trkpt>
      <trkpt lat="43.29078" lon="-1.43815">
        <ele>528.3</ele>
        <time>2022-09-04T08:10:42Z</time>
      </trkpt>
      <trkpt lat="43.29075" lon="-1.43817">
        <ele>529.1</ele>
        <time>2022-09-04T08:10:43Z</time>
      </trkpt>
      <trkpt lat="43.29072" lon="-1.43819">
        <ele>529.8</ele>
        <time>2022-09-04T08:10:44Z</time>
      </trkpt>
      <trkpt lat="43.29069" lon="-1.43821">
        <ele>530.5</ele>
        <time>2022-09-04T08:10:45Z</time>
      </trkpt>
      <trkpt lat="43.29066" lon="-1.43823">
        <ele>531.2</ele>
        <time>2022-09-04T08:10:46Z</time>
      </trkpt>
      <trkpt lat="43.29063" lon="-1.43825">
        <ele>531.9</ele>
        <time>2022-09-04T08:10:47Z</time>
      </trkpt>
      <trkpt lat="43.29062" lon="-1.43825">
        <ele>532.2</ele>
        <time>2022-09-04T08:10:48Z</time>
      </trkpt>
      <trkpt lat="43.29059" lon="-1.43827">
        <ele>532.8</ele>
        <time>2022-09-04T08:10:49Z</time>
      </trkpt>
      <trkpt lat="43.29056" lon="-1.4383">
        <ele>533.6</ele>
        <time>2022-09-04T08:10:50Z</time>
      </trkpt>
      <trkpt lat="43.29055" lon="-1.43831">
        <ele>533.9</ele>
        <time>2022-09-04T08:10:51Z</time>
      </trkpt>
      <trkpt lat="43.29052" lon="-1.43834">
        <ele>534.7</ele>
        <time>2022-09-04T08:10:52Z</time>
      </trkpt>
      <trkpt lat="43.2905" lon="-1.43835">
        <ele>535</ele>
        <time>2022-09-04T08:10:53Z</time>
      </trkpt>
      <trkpt lat="43.29048" lon="-1.43837">
        <ele>535.5</ele>
        <time>2022-09-04T08:10:54Z</time>
      </trkpt>
      <trkpt lat="43.29045" lon="-1.43839">
        <ele>536.2</ele>
        <time>2022-09-04T08:10:55Z</time>
      </trkpt>
      <trkpt lat="43.29043" lon="-1.43842">
        <ele>536.9</ele>
        <time>2022-09-04T08:10:56Z</time>
      </trkpt>
      <trkpt lat="43.29041" lon="-1.43844">
        <ele>537.5</ele>
        <time>2022-09-04T08:10:57Z</time>
      </trkpt>
      <trkpt lat="43.29038" lon="-1.43848">
        <ele>538.3</ele>
        <time>2022-09-04T08:10:58Z</time>
      </trkpt>
      <trkpt lat="43.29037" lon="-1.43849">
        <ele>538.6</ele>
        <time>2022-09-04T08:10:59Z</time>
      </trkpt>
      <trkpt lat="43.29034" lon="-1.43851">
        <ele>539.5</ele>
        <time>2022-09-04T08:11:00Z</time>
      </trkpt>
      <trkpt lat="43.29033" lon="-1.43852">
        <ele>539.7</ele>
        <time>2022-09-04T08:11:01Z</time>
      </trkpt>
      <trkpt lat="43.29029" lon="-1.43854">
        <ele>540.6</ele>
        <time>2022-09-04T08:11:02Z</time>
      </trkpt>
      <trkpt lat="43.29028" lon="-1.43855">
        <ele>540.9</ele>
        <time>2022-09-04T08:11:03Z</time>
      </trkpt>
      <trkpt lat="43.29025" lon="-1.43856">
        <ele>541.7</ele>
        <time>2022-09-04T08:11:04Z</time>
      </trkpt>
      <trkpt lat="43.29024" lon="-1.43856">
        <ele>542</ele>
        <time>2022-09-04T08:11:05Z</time>
      </trkpt>
      <trkpt lat="43.2902" lon="-1.43856">
        <ele>542.9</ele>
        <time>2022-09-04T08:11:06Z</time>
      </trkpt>
      <trkpt lat="43.29019" lon="-1.43856">
        <ele>543.1</ele>
        <time>2022-09-04T08:11:07Z</time>
      </trkpt>
      <trkpt lat="43.29016" lon="-1.43854">
        <ele>543.9</ele>
        <time>2022-09-04T08:11:08Z</time>
      </trkpt>
      <trkpt lat="43.29015" lon="-1.43854">
        <ele>544.2</ele>
        <time>2022-09-04T08:11:09Z</time>
      </trkpt>
      <trkpt lat="43.29012" lon="-1.43853">
        <ele>545</ele>
        <time>2022-09-04T08:11:10Z</time>
      </trkpt>
      <trkpt lat="43.29011" lon="-1.43852">
        <ele>545.3</ele>
        <time>2022-09-04T08:11:11Z</time>
      </trkpt>
      <trkpt lat="43.29008" lon="-1.43852">
        <ele>546</ele>
        <time>2022-09-04T08:11:12Z</time>
      </trkpt>
      <trkpt lat="43.29007" lon="-1.43852">
        <ele>546.3</ele>
        <time>2022-09-04T08:11:13Z</time>
      </trkpt>
      <trkpt lat="43.29004" lon="-1.43853">
        <ele>547.1</ele>
        <time>2022-09-04T08:11:14Z</time>
      </trkpt>
      <trkpt lat="43.29003" lon="-1.43853">
        <ele>547.3</ele>
        <time>2022-09-04T08:11:15Z</time>
      </trkpt>
      <trkpt lat="43.28999" lon="-1.43853">
        <ele>548</ele>
        <time>2022-09-04T08:11:16Z</time>
      </trkpt>
      <trkpt lat="43.28998" lon="-1.43853">
        <ele>548.3</ele>
        <time>2022-09-04T08:11:17Z</time>
      </trkpt>
      <trkpt lat="43.28996" lon="-1.43852">
        <ele>548.9</ele>
        <time>2022-09-04T08:11:18Z</time>
      </trkpt>
      <trkpt lat="43.28995" lon="-1.43851">
        <ele>549.1</ele>
        <time>2022-09-04T08:11:19Z</time>
      </trkpt>
      <trkpt lat="43.28992" lon="-1.43851">
        <ele>549.7</ele>
        <time>2022-09-04T08:11:20Z</time>
      </trkpt>
      <trkpt lat="43.28991" lon="-1.43851">
        <ele>549.9</ele>
        <time>2022-09-04T08:11:21Z</time>
      </trkpt>
      <trkpt lat="43.28988" lon="-1.43851">
        <ele>550.6</ele>
        <time>2022-09-04T08:11:22Z</time>
      </trkpt>
      <trkpt lat="43.28987" lon="-1.43851">
        <ele>550.8</ele>
        <time>2022-09-04T08:11:23Z</time>
      </trkpt>
      <trkpt lat="43.28983" lon="-1.43851">
        <ele>551.5</ele>
        <time>2022-09-04T08:11:24Z</time>
      </trkpt>
      <trkpt lat="43.28982" lon="-1.4385">
        <ele>551.7</ele>
        <time>2022-09-04T08:11:25Z</time>
      </trkpt>
      <trkpt lat="43.28979" lon="-1.43849">
        <ele>552.3</ele>
        <time>2022-09-04T08:11:26Z</time>
      </trkpt>
      <trkpt lat="43.28978" lon="-1.43849">
        <ele>552.5</ele>
        <time>2022-09-04T08:11:27Z</time>
      </trkpt>
      <trkpt lat="43.28975" lon="-1.43849">
        <ele>553.1</ele>
        <time>2022-09-04T08:11:28Z</time>
      </trkpt>
      <trkpt lat="43.28974" lon="-1.43849">
        <ele>553.3</ele>
        <time>2022-09-04T08:11:29Z</time>
      </trkpt>
      <trkpt lat="43.28971" lon="-1.43848">
        <ele>553.8</ele>
        <time>2022-09-04T08:11:30Z</time>
      </trkpt>
      <trkpt lat="43.2897" lon="-1.43848">
        <ele>554</ele>
        <time>2022-09-04T08:11:31Z</time>
      </trkpt>
      <trkpt lat="43.28967" lon="-1.43848">
        <ele>554.7</ele>
        <time>2022-09-04T08:11:32Z</time>
      </trkpt>
      <trkpt lat="43.28966" lon="-1.43848">
        <ele>554.9</ele>
        <time>2022-09-04T08:11:33Z</time>
      </trkpt>
      <trkpt lat="43.28963" lon="-1.43848">
        <ele>555.5</ele>
        <time>2022-09-04T08:11:34Z</time>
      </trkpt>
      <trkpt lat="43.28962" lon="-1.43848">
        <ele>555.7</ele>
        <time>2022-09-04T08:11:35Z</time>
      </trkpt>
      <trkpt lat="43.28959" lon="-1.43847">
        <ele>556.3</ele>
        <time>2022-09-04T08:11:36Z</time>
      </trkpt>
      <trkpt lat="43.28958" lon="-1.43847">
        <ele>556.5</ele>
        <time>2022-09-04T08:11:37Z</time>
      </trkpt>
      <trkpt lat="43.28955" lon="-1.43847">
        <ele>557.2</ele>
        <time>2022-09-04T08:11:38Z</time>
      </trkpt>
      <trkpt lat="43.28954" lon="-1.43847">
        <ele>557.2</ele>
        <time>2022-09-04T08:11:39Z</time>
      </trkpt>
      <trkpt lat="43.28951" lon="-1.43846">
        <ele>557.3</ele>
        <time>2022-09-04T08:11:40Z</time>
      </trkpt>
      <trkpt lat="43.2895" lon="-1.43846">
        <ele>557.3</ele>
        <time>2022-09-04T08:11:41Z</time>
      </trkpt>
      <trkpt lat="43.28947" lon="-1.43846">
        <ele>557.4</ele>
        <time>2022-09-04T08:11:42Z</time>
      </trkpt>
      <trkpt lat="43.28946" lon="-1.43845">
        <ele>557.5</ele>
        <time>2022-09-04T08:11:43Z</time>
      </trkpt>
      <trkpt lat="43.28943" lon="-1.43844">
        <ele>557.6</ele>
        <time>2022-09-04T08:11:44Z</time>
      </trkpt>
      <trkpt lat="43.28942" lon="-1.43843">
        <ele>557.6</ele>
        <time>2022-09-04T08:11:45Z</time>
      </trkpt>
      <trkpt lat="43.2894" lon="-1.43842">
        <ele>557.7</ele>
        <time>2022-09-04T08:11:46Z</time>
      </trkpt>
      <trkpt lat="43.28939" lon="-1.43842">
        <ele>557.7</ele>
        <time>2022-09-04T08:11:47Z</time>
      </trkpt>
      <trkpt lat="43.28936" lon="-1.43841">
        <ele>557.8</ele>
        <time>2022-09-04T08:11:48Z</time>
      </trkpt>
      <trkpt lat="43.28935" lon="-1.43841">
        <ele>557.9</ele>
        <time>2022-09-04T08:11:49Z</time>
      </trkpt>
      <trkpt lat="43.28932" lon="-1.43841">
        <ele>558</ele>
        <time>2022-09-04T08:11:50Z</time>
      </trkpt>
      <trkpt lat="43.28931" lon="-1.43841">
        <ele>558</ele>
        <time>2022-09-04T08:11:51Z</time>
      </trkpt>
      <trkpt lat="43.28927" lon="-1.43841">
        <ele>558.1</ele>
        <time>2022-09-04T08:11:52Z</time>
      </trkpt>
      <trkpt lat="43.28926" lon="-1.43841">
        <ele>558.2</ele>
        <time>2022-09-04T08:11:53Z</time>
      </trkpt>
      <trkpt lat="43.28924" lon="-1.43841">
        <ele>558.2</ele>
        <time>2022-09-04T08:11:54Z</time>
      </trkpt>
      <trkpt lat="43.28923" lon="-1.43842">
        <ele>558.2</ele>
        <time>2022-09-04T08:11:55Z</time>
      </trkpt>
      <trkpt lat="43.28923" lon="-1.43842">
        <ele>558.3</ele>
        <time>2022-09-04T08:11:56Z</time>
      </trkpt>
      <trkpt lat="43.28923" lon="-1.43842">
        <ele>558.3</ele>
        <time>2022-09-04T08:11:57Z</time>
      </trkpt>
      <trkpt lat="43.28922" lon="-1.43842">
        <ele>558.3</ele>
        <time>2022-09-04T08:11:58Z</time>
      </trkpt>
      <trkpt lat="43.28922" lon="-1.43842">
        <ele>558.3</ele>
        <time>2022-09-04T08:11:59Z</time>
      </trkpt>
      <trkpt lat="43.28922" lon="-1.43842">
        <ele>558.3</ele>
        <time>2022-09-04T08:12:00Z</time>
      </trkpt>
      <trkpt lat="43.28922" lon="-1.43842">
        <ele>558.3</ele>
        <time>2022-09-04T08:12:01Z</time>
      </trkpt>
      <trkpt lat="43.28922" lon="-1.43842">
        <ele>558.3</ele>
        <time>2022-09-04T08:12:02Z</time>
      </trkpt>
      <trkpt lat="43.28922" lon="-1.43842">
        <ele>558.3</ele>
        <time>2022-09-04T08:12:03Z</time>
      </trkpt>
      <trkpt lat="43.28922" lon="-1.43842">
        <ele>558.3</ele>
        <time>2022-09-04T08:12:04Z</time>
      </trkpt>
      <trkpt lat="43.28922" lon="-1.43842">
        <ele>558.3</ele>
        <time>2022-09-04T08:12:05Z</time>
      </trkpt>
      <trkpt lat="43.28922" lon="-1.43842">
        <ele>558.3</ele>
        <time>2022-09-04T08:12:06Z</time>
      </trkpt>
      <trkpt lat="43.28922" lon="-1.43842">
        <ele>558.3</ele>
        <time>2022-09-04T08:12:07Z</time>
      </trkpt>
      <trkpt lat="43.28922" lon="-1.43842">
        <ele>558.3</ele>
        <time>2022-09-04T08:12:08Z</time>
      </trkpt>
      <trkpt lat="43.28926" lon="-1.43842">
        <ele>558.4</ele>
        <time>2022-09-04T08:12:10Z</time>
      </trkpt>
      <trkpt lat="43.28927" lon="-1.43842">
        <ele>558.4</ele>
        <time>2022-09-04T08:12:11Z</time>
      </trkpt>
      <trkpt lat="43.28928" lon="-1.43842">
        <ele>558.5</ele>
        <time>2022-09-04T08:12:12Z</time>
      </trkpt>
      <trkpt lat="43.28929" lon="-1.43842">
        <ele>558.5</ele>
        <time>2022-09-04T08:12:13Z</time>
      </trkpt>
      <trkpt lat="43.28929" lon="-1.43842">
        <ele>558.5</ele>
        <time>2022-09-04T08:12:14Z</time>
      </trkpt>
      <trkpt lat="43.2893" lon="-1.43842">
        <ele>558.5</ele>
        <time>2022-09-04T08:12:15Z</time>
      </trkpt>
      <trkpt lat="43.2893" lon="-1.43842">
        <ele>558.5</ele>
        <time>2022-09-04T08:12:16Z</time>
      </trkpt>
      <trkpt lat="43.2893" lon="-1.43842">
        <ele>558.5</ele>
        <time>2022-09-04T08:12:17Z</time>
      </trkpt>
      <trkpt lat="43.2893" lon="-1.43842">
        <ele>558.5</ele>
        <time>2022-09-04T08:12:18Z</time>
      </trkpt>
      <trkpt lat="43.2893" lon="-1.43842">
        <ele>558.5</ele>
        <time>2022-09-04T08:12:19Z</time>
      </trkpt>
      <trkpt lat="43.2893" lon="-1.43842">
        <ele>558.5</ele>
        <time>2022-09-04T08:12:20Z</time>
      </trkpt>
      <trkpt lat="43.28931" lon="-1.43843">
        <ele>558.5</ele>
        <time>2022-09-04T08:12:21Z</time>
      </trkpt>
      <trkpt lat="43.28932" lon="-1.43843">
        <ele>558.6</ele>
        <time>2022-09-04T08:12:22Z</time>
      </trkpt>
      <trkpt lat="43.28933" lon="-1.43844">
        <ele>558.6</ele>
        <time>2022-09-04T08:12:23Z</time>
      </trkpt>
      <trkpt lat="43.28933" lon="-1.43844">
        <ele>558.6</ele>
        <time>2022-09-04T08:12:24Z</time>
      </trkpt>
      <trkpt lat="43.28933" lon="-1.43844">
        <ele>558.6</ele>
        <time>2022-09-04T08:12:25Z</time>
      </trkpt>
      <trkpt lat="43.28934" lon="-1.43844">
        <ele>558.6</ele>
        <time>2022-09-04T08:12:26Z</time>
      </trkpt>
      <trkpt lat="43.28934" lon="-1.43844">
        <ele>558.7</ele>
        <time>2022-09-04T08:12:27Z</time>
      </trkpt>
      <trkpt lat="43.28934" lon="-1.43844">
        <ele>558.7</ele>
        <time>2022-09-04T08:12:28Z</time>
      </trkpt>
      <trkpt lat="43.28934" lon="-1.43844">
        <ele>558.7</ele>
        <time>2022-09-04T08:12:29Z</time>
      </trkpt>
      <trkpt lat="43.28935" lon="-1.43844">
        <ele>558.7</ele>
        <time>2022-09-04T08:12:30Z</time>
      </trkpt>
      <trkpt lat="43.28935" lon="-1.43844">
        <ele>558.7</ele>
        <time>2022-09-04T08:12:31Z</time>
      </trkpt>
      <trkpt lat="43.28935" lon="-1.43844">
        <ele>558.7</ele>
        <time>2022-09-04T08:12:32Z</time>
      </trkpt>
      <trkpt lat="43.28936" lon="-1.43844">
        <ele>558.7</ele>
        <time>2022-09-04T08:12:34Z</time>
      </trkpt>
      <trkpt lat="43.28936" lon="-1.43844">
        <ele>558.7</ele>
        <time>2022-09-04T08:13:07Z</time>
      </trkpt>
      <trkpt lat="43.28936" lon="-1.43844">
        <ele>558.7</ele>
        <time>2022-09-04T08:13:08Z</time>
      </trkpt>
      <trkpt lat="43.28936" lon="-1.43844">
        <ele>558.7</ele>
        <time>2022-09-04T08:13:09Z</time>
      </trkpt>
      <trkpt lat="43.28937" lon="-1.43845">
        <ele>558.7</ele>
        <time>2022-09-04T08:13:10Z</time>
      </trkpt>
      <trkpt lat="43.28937" lon="-1.43845">
        <ele>558.7</ele>
        <time>2022-09-04T08:13:11Z</time>
      </trkpt>
      <trkpt lat="43.28937" lon="-1.43845">
        <ele>558.8</ele>
        <time>2022-09-04T08:13:12Z</time>
      </trkpt>
      <trkpt lat="43.28937" lon="-1.43845">
        <ele>558.8</ele>
        <time>2022-09-04T08:13:13Z</time>
      </trkpt>
      <trkpt lat="43.28938" lon="-1.43845">
        <ele>558.8</ele>
        <time>2022-09-04T08:13:14Z</time>
      </trkpt>
      <trkpt lat="43.28938" lon="-1.43845">
        <ele>558.8</ele>
        <time>2022-09-04T08:13:15Z</time>
      </trkpt>
      <trkpt lat="43.28938" lon="-1.43845">
        <ele>558.8</ele>
        <time>2022-09-04T08:13:16Z</time>
      </trkpt>
      <trkpt lat="43.28939" lon="-1.43845">
        <ele>558.8</ele>
        <time>2022-09-04T08:13:17Z</time>
      </trkpt>
      <trkpt lat="43.28939" lon="-1.43845">
        <ele>558.8</ele>
        <time>2022-09-04T08:13:18Z</time>
      </trkpt>
      <trkpt lat="43.28939" lon="-1.43845">
        <ele>558.8</ele>
        <time>2022-09-04T08:13:19Z</time>
      </trkpt>
      <trkpt lat="43.28939" lon="-1.43845">
        <ele>558.8</ele>
        <time>2022-09-04T08:13:20Z</time>
      </trkpt>
      <trkpt lat="43.2894" lon="-1.43845">
        <ele>558.8</ele>
        <time>2022-09-04T08:13:21Z</time>
      </trkpt>
      <trkpt lat="43.2894" lon="-1.43845">
        <ele>558.8</ele>
        <time>2022-09-04T08:13:22Z</time>
      </trkpt>
      <trkpt lat="43.2894" lon="-1.43845">
        <ele>558.8</ele>
        <time>2022-09-04T08:13:23Z</time>
      </trkpt>
      <trkpt lat="43.2894" lon="-1.43845">
        <ele>558.8</ele>
        <time>2022-09-04T08:13:50Z</time>
      </trkpt>
      <trkpt lat="43.28941" lon="-1.43845">
        <ele>558.8</ele>
        <time>2022-09-04T08:13:51Z</time>
      </trkpt>
      <trkpt lat="43.28941" lon="-1.43845">
        <ele>558.9</ele>
        <time>2022-09-04T08:13:52Z</time>
      </trkpt>
      <trkpt lat="43.28941" lon="-1.43845">
        <ele>558.9</ele>
        <time>2022-09-04T08:13:53Z</time>
      </trkpt>
      <trkpt lat="43.28943" lon="-1.43847">
        <ele>558.9</ele>
        <time>2022-09-04T08:13:54Z</time>
      </trkpt>
      <trkpt lat="43.28943" lon="-1.43848">
        <ele>558.9</ele>
        <time>2022-09-04T08:13:55Z</time>
      </trkpt>
      <trkpt lat="43.28944" lon="-1.43849">
        <ele>559</ele>
        <time>2022-09-04T08:13:56Z</time>
      </trkpt>
      <trkpt lat="43.28944" lon="-1.4385">
        <ele>559</ele>
        <time>2022-09-04T08:13:57Z</time>
      </trkpt>
      <trkpt lat="43.28945" lon="-1.43852">
        <ele>559</ele>
        <time>2022-09-04T08:13:58Z</time>
      </trkpt>
      <trkpt lat="43.28945" lon="-1.43853">
        <ele>559.1</ele>
        <time>2022-09-04T08:13:59Z</time>
      </trkpt>
      <trkpt lat="43.28945" lon="-1.43854">
        <ele>559.1</ele>
        <time>2022-09-04T08:14:00Z</time>
      </trkpt>
      <trkpt lat="43.28945" lon="-1.43855">
        <ele>559.1</ele>
        <time>2022-09-04T08:14:01Z</time>
      </trkpt>
      <trkpt lat="43.28945" lon="-1.43855">
        <ele>559.1</ele>
        <time>2022-09-04T08:14:02Z</time>
      </trkpt>
      <trkpt lat="43.28945" lon="-1.43855">
        <ele>559.1</ele>
        <time>2022-09-04T08:14:03Z</time>
      </trkpt>
      <trkpt lat="43.28945" lon="-1.43855">
        <ele>559.1</ele>
        <time>2022-09-04T08:14:04Z</time>
      </trkpt>
      <trkpt lat="43.28945" lon="-1.43855">
        <ele>559.1</ele>
        <time>2022-09-04T08:14:05Z</time>
      </trkpt>
      <trkpt lat="43.28945" lon="-1.43855">
        <ele>559.1</ele>
        <time>2022-09-04T08:14:06Z</time>
      </trkpt>
      <trkpt lat="43.28945" lon="-1.43855">
        <ele>559.1</ele>
        <time>2022-09-04T08:14:07Z</time>
      </trkpt>
      <trkpt lat="43.28945" lon="-1.43855">
        <ele>559.1</ele>
        <time>2022-09-04T08:14:08Z</time>
      </trkpt>
      <trkpt lat="43.28945" lon="-1.43855">
        <ele>559.1</ele>
        <time>2022-09-04T08:14:09Z</time>
      </trkpt>
      <trkpt lat="43.28945" lon="-1.43855">
        <ele>559.1</ele>
        <time>2022-09-04T08:14:10Z</time>
      </trkpt>
      <trkpt lat="43.28945" lon="-1.43855">
        <ele>559.1</ele>
        <time>2022-09-04T08:14:11Z</time>
      </trkpt>
      <trkpt lat="43.28942" lon="-1.4385">
        <ele>559.2</ele>
        <time>2022-09-04T08:14:22Z</time>
      </trkpt>
      <trkpt lat="43.28941" lon="-1.43849">
        <ele>559.2</ele>
        <time>2022-09-04T08:14:23Z</time>
      </trkpt>
      <trkpt lat="43.28941" lon="-1.43848">
        <ele>559.3</ele>
        <time>2022-09-04T08:14:24Z</time>
      </trkpt>
      <trkpt lat="43.2894" lon="-1.43847">
        <ele>559.3</ele>
        <time>2022-09-04T08:14:25Z</time>
      </trkpt>
      <trkpt lat="43.28939" lon="-1.43847">
        <ele>559.3</ele>
        <time>2022-09-04T08:14:26Z</time>
      </trkpt>
      <trkpt lat="43.28939" lon="-1.43847">
        <ele>559.3</ele>
        <time>2022-09-04T08:14:27Z</time>
      </trkpt>
      <trkpt lat="43.28939" lon="-1.43847">
        <ele>559.3</ele>
        <time>2022-09-04T08:14:28Z</time>
      </trkpt>
      <trkpt lat="43.28938" lon="-1.43846">
        <ele>560.3</ele>
        <time>2022-09-04T08:14:29Z</time>
      </trkpt>
      <trkpt lat="43.28937" lon="-1.43845">
        <ele>560.3</ele>
        <time>2022-09-04T08:14:30Z</time>
      </trkpt>
      <trkpt lat="43.28937" lon="-1.43844">
        <ele>560.3</ele>
        <time>2022-09-04T08:14:31Z</time>
      </trkpt>
      <trkpt lat="43.28937" lon="-1.43845">
        <ele>560.3</ele>
        <time>2022-09-04T08:14:32Z</time>
      </trkpt>
      <trkpt lat="43.28937" lon="-1.43844">
        <ele>560.3</ele>
        <time>2022-09-04T08:14:33Z</time>
      </trkpt>
      <trkpt lat="43.28937" lon="-1.43844">
        <ele>560.3</ele>
        <time>2022-09-04T08:14:34Z</time>
      </trkpt>
      <trkpt lat="43.28937" lon="-1.43844">
        <ele>560.3</ele>
        <time>2022-09-04T08:14:35Z</time>
      </trkpt>
      <trkpt lat="43.28937" lon="-1.43844">
        <ele>560.3</ele>
        <time>2022-09-04T08:14:36Z</time>
      </trkpt>
      <trkpt lat="43.28937" lon="-1.43844">
        <ele>560.3</ele>
        <time>2022-09-04T08:14:37Z</time>
      </trkpt>
      <trkpt lat="43.28937" lon="-1.43844">
        <ele>560.3</ele>
        <time>2022-09-04T08:14:38Z</time>
      </trkpt>
      <trkpt lat="43.28937" lon="-1.43844">
        <ele>560.3</ele>
        <time>2022-09-04T08:14:39Z</time>
      </trkpt>
      <trkpt lat="43.28937" lon="-1.43844">
        <ele>560.3</ele>
        <time>2022-09-04T08:14:40Z</time>
      </trkpt>
      <trkpt lat="43.28937" lon="-1.43844">
        <ele>560.3</ele>
        <time>2022-09-04T08:14:41Z</time>
      </trkpt>
      <trkpt lat="43.28934" lon="-1.43843">
        <ele>560.4</ele>
        <time>2022-09-04T08:15:32Z</time>
      </trkpt>
      <trkpt lat="43.28933" lon="-1.43843">
        <ele>560.4</ele>
        <time>2022-09-04T08:15:33Z</time>
      </trkpt>
      <trkpt lat="43.28932" lon="-1.43844">
        <ele>560.4</ele>
        <time>2022-09-04T08:15:34Z</time>
      </trkpt>
      <trkpt lat="43.28932" lon="-1.43843">
        <ele>560.5</ele>
        <time>2022-09-04T08:15:35Z</time>
      </trkpt>
      <trkpt lat="43.28931" lon="-1.43843">
        <ele>560.5</ele>
        <time>2022-09-04T08:15:36Z</time>
      </trkpt>
      <trkpt lat="43.2893" lon="-1.43843">
        <ele>560.5</ele>
        <time>2022-09-04T08:15:37Z</time>
      </trkpt>
      <trkpt lat="43.2893" lon="-1.43843">
        <ele>560.5</ele>
        <time>2022-09-04T08:15:38Z</time>
      </trkpt>
      <trkpt lat="43.28929" lon="-1.43843">
        <ele>560.5</ele>
        <time>2022-09-04T08:15:39Z</time>
      </trkpt>
      <trkpt lat="43.28929" lon="-1.43843">
        <ele>560.5</ele>
        <time>2022-09-04T08:15:40Z</time>
      </trkpt>
      <trkpt lat="43.28928" lon="-1.43843">
        <ele>560.6</ele>
        <time>2022-09-04T08:15:41Z</time>
      </trkpt>
      <trkpt lat="43.28927" lon="-1.43842">
        <ele>560.6</ele>
        <time>2022-09-04T08:15:42Z</time>
      </trkpt>
      <trkpt lat="43.28926" lon="-1.43842">
        <ele>560.6</ele>
        <time>2022-09-04T08:15:43Z</time>
      </trkpt>
      <trkpt lat="43.28926" lon="-1.43842">
        <ele>560.6</ele>
        <time>2022-09-04T08:15:44Z</time>
      </trkpt>
      <trkpt lat="43.28926" lon="-1.43842">
        <ele>560.6</ele>
        <time>2022-09-04T08:15:45Z</time>
      </trkpt>
      <trkpt lat="43.28925" lon="-1.43842">
        <ele>560.6</ele>
        <time>2022-09-04T08:15:46Z</time>
      </trkpt>
      <trkpt lat="43.28925" lon="-1.43842">
        <ele>560.6</ele>
        <time>2022-09-04T08:15:47Z</time>
      </trkpt>
      <trkpt lat="43.28924" lon="-1.43842">
        <ele>560.7</ele>
        <time>2022-09-04T08:15:48Z</time>
      </trkpt>
      <trkpt lat="43.28924" lon="-1.43842">
        <ele>560.7</ele>
        <time>2022-09-04T08:15:49Z</time>
      </trkpt>
      <trkpt lat="43.28924" lon="-1.43842">
        <ele>560.7</ele>
        <time>2022-09-04T08:15:50Z</time>
      </trkpt>
      <trkpt lat="43.28923" lon="-1.43842">
        <ele>560.7</ele>
        <time>2022-09-04T08:15:51Z</time>
      </trkpt>
      <trkpt lat="43.28923" lon="-1.43842">
        <ele>560.8</ele>
        <time>2022-09-04T08:15:52Z</time>
      </trkpt>
      <trkpt lat="43.28922" lon="-1.43842">
        <ele>560.8</ele>
        <time>2022-09-04T08:15:53Z</time>
      </trkpt>
      <trkpt lat="43.28922" lon="-1.43842">
        <ele>560.8</ele>
        <time>2022-09-04T08:15:54Z</time>
      </trkpt>
      <trkpt lat="43.28922" lon="-1.43842">
        <ele>560.9</ele>
        <time>2022-09-04T08:15:57Z</time>
      </trkpt>
      <trkpt lat="43.28921" lon="-1.43842">
        <ele>560.9</ele>
        <time>2022-09-04T08:15:58Z</time>
      </trkpt>
      <trkpt lat="43.28921" lon="-1.43842">
        <ele>560.9</ele>
        <time>2022-09-04T08:15:59Z</time>
      </trkpt>
      <trkpt lat="43.28917" lon="-1.43841">
        <ele>561.3</ele>
        <time>2022-09-04T08:16:00Z</time>
      </trkpt>
      <trkpt lat="43.28916" lon="-1.4384">
        <ele>561.4</ele>
        <time>2022-09-04T08:16:01Z</time>
      </trkpt>
      <trkpt lat="43.28912" lon="-1.43841">
        <ele>561.9</ele>
        <time>2022-09-04T08:16:02Z</time>
      </trkpt>
      <trkpt lat="43.2891" lon="-1.43841">
        <ele>562.1</ele>
        <time>2022-09-04T08:16:03Z</time>
      </trkpt>
      <trkpt lat="43.28907" lon="-1.43842">
        <ele>562.6</ele>
        <time>2022-09-04T08:16:04Z</time>
      </trkpt>
      <trkpt lat="43.28903" lon="-1.43842">
        <ele>563.1</ele>
        <time>2022-09-04T08:16:05Z</time>
      </trkpt>
      <trkpt lat="43.289" lon="-1.43843">
        <ele>563.7</ele>
        <time>2022-09-04T08:16:06Z</time>
      </trkpt>
      <trkpt lat="43.28897" lon="-1.43844">
        <ele>564.4</ele>
        <time>2022-09-04T08:16:07Z</time>
      </trkpt>
      <trkpt lat="43.28894" lon="-1.43845">
        <ele>565</ele>
        <time>2022-09-04T08:16:08Z</time>
      </trkpt>
      <trkpt lat="43.2889" lon="-1.43846">
        <ele>565.8</ele>
        <time>2022-09-04T08:16:09Z</time>
      </trkpt>
      <trkpt lat="43.28889" lon="-1.43846">
        <ele>566.1</ele>
        <time>2022-09-04T08:16:10Z</time>
      </trkpt>
      <trkpt lat="43.28886" lon="-1.43847">
        <ele>566.7</ele>
        <time>2022-09-04T08:16:11Z</time>
      </trkpt>
      <trkpt lat="43.28883" lon="-1.43848">
        <ele>567.4</ele>
        <time>2022-09-04T08:16:12Z</time>
      </trkpt>
      <trkpt lat="43.2888" lon="-1.43848">
        <ele>568.2</ele>
        <time>2022-09-04T08:16:13Z</time>
      </trkpt>
      <trkpt lat="43.28879" lon="-1.43848">
        <ele>568.4</ele>
        <time>2022-09-04T08:16:14Z</time>
      </trkpt>
      <trkpt lat="43.28875" lon="-1.43848">
        <ele>569.1</ele>
        <time>2022-09-04T08:16:15Z</time>
      </trkpt>
      <trkpt lat="43.28875" lon="-1.43848">
        <ele>569.3</ele>
        <time>2022-09-04T08:16:16Z</time>
      </trkpt>
      <trkpt lat="43.28874" lon="-1.43848">
        <ele>569.5</ele>
        <time>2022-09-04T08:16:17Z</time>
      </trkpt>
      <trkpt lat="43.28874" lon="-1.43848">
        <ele>569.6</ele>
        <time>2022-09-04T08:16:18Z</time>
      </trkpt>
      <trkpt lat="43.28874" lon="-1.43848">
        <ele>569.6</ele>
        <time>2022-09-04T08:16:19Z</time>
      </trkpt>
      <trkpt lat="43.28874" lon="-1.43848">
        <ele>569.6</ele>
        <time>2022-09-04T08:16:20Z</time>
      </trkpt>
      <trkpt lat="43.28874" lon="-1.43849">
        <ele>569.7</ele>
        <time>2022-09-04T08:16:21Z</time>
      </trkpt>
      <trkpt lat="43.28874" lon="-1.43849">
        <ele>569.7</ele>
        <time>2022-09-04T08:16:22Z</time>
      </trkpt>
      <trkpt lat="43.28874" lon="-1.43849">
        <ele>569.7</ele>
        <time>2022-09-04T08:16:23Z</time>
      </trkpt>
      <trkpt lat="43.28873" lon="-1.43848">
        <ele>569.9</ele>
        <time>2022-09-04T08:16:24Z</time>
      </trkpt>
      <trkpt lat="43.28868" lon="-1.43848">
        <ele>570.9</ele>
        <time>2022-09-04T08:16:26Z</time>
      </trkpt>
      <trkpt lat="43.28865" lon="-1.43848">
        <ele>571.4</ele>
        <time>2022-09-04T08:16:27Z</time>
      </trkpt>
      <trkpt lat="43.28862" lon="-1.43848">
        <ele>572</ele>
        <time>2022-09-04T08:16:28Z</time>
      </trkpt>
      <trkpt lat="43.28859" lon="-1.43846">
        <ele>572.6</ele>
        <time>2022-09-04T08:16:29Z</time>
      </trkpt>
      <trkpt lat="43.28856" lon="-1.43845">
        <ele>573.1</ele>
        <time>2022-09-04T08:16:30Z</time>
      </trkpt>
      <trkpt lat="43.28852" lon="-1.43845">
        <ele>573.7</ele>
        <time>2022-09-04T08:16:31Z</time>
      </trkpt>
      <trkpt lat="43.28849" lon="-1.43846">
        <ele>574.2</ele>
        <time>2022-09-04T08:16:32Z</time>
      </trkpt>
      <trkpt lat="43.28846" lon="-1.43846">
        <ele>574.8</ele>
        <time>2022-09-04T08:16:33Z</time>
      </trkpt>
      <trkpt lat="43.28843" lon="-1.43847">
        <ele>575.3</ele>
        <time>2022-09-04T08:16:34Z</time>
      </trkpt>
      <trkpt lat="43.28839" lon="-1.43847">
        <ele>575.9</ele>
        <time>2022-09-04T08:16:35Z</time>
      </trkpt>
      <trkpt lat="43.28836" lon="-1.43847">
        <ele>576.4</ele>
        <time>2022-09-04T08:16:36Z</time>
      </trkpt>
      <trkpt lat="43.28833" lon="-1.43848">
        <ele>576.9</ele>
        <time>2022-09-04T08:16:37Z</time>
      </trkpt>
      <trkpt lat="43.2883" lon="-1.43848">
        <ele>577.4</ele>
        <time>2022-09-04T08:16:38Z</time>
      </trkpt>
      <trkpt lat="43.28827" lon="-1.43848">
        <ele>577.9</ele>
        <time>2022-09-04T08:16:39Z</time>
      </trkpt>
      <trkpt lat="43.28824" lon="-1.43848">
        <ele>578.5</ele>
        <time>2022-09-04T08:16:40Z</time>
      </trkpt>
      <trkpt lat="43.28821" lon="-1.43848">
        <ele>579</ele>
        <time>2022-09-04T08:16:41Z</time>
      </trkpt>
      <trkpt lat="43.28817" lon="-1.43848">
        <ele>579.7</ele>
        <time>2022-09-04T08:16:42Z</time>
      </trkpt>
      <trkpt lat="43.28813" lon="-1.43848">
        <ele>580.3</ele>
        <time>2022-09-04T08:16:43Z</time>
      </trkpt>
      <trkpt lat="43.28811" lon="-1.43849">
        <ele>580.8</ele>
        <time>2022-09-04T08:16:44Z</time>
      </trkpt>
      <trkpt lat="43.2881" lon="-1.43849">
        <ele>581</ele>
        <time>2022-09-04T08:16:45Z</time>
      </trkpt>
      <trkpt lat="43.2881" lon="-1.43849">
        <ele>581</ele>
        <time>2022-09-04T08:16:46Z</time>
      </trkpt>
      <trkpt lat="43.28811" lon="-1.43849">
        <ele>581.1</ele>
        <time>2022-09-04T08:16:47Z</time>
      </trkpt>
      <trkpt lat="43.28811" lon="-1.43849">
        <ele>581.2</ele>
        <time>2022-09-04T08:16:48Z</time>
      </trkpt>
      <trkpt lat="43.28811" lon="-1.43849">
        <ele>581.2</ele>
        <time>2022-09-04T08:16:49Z</time>
      </trkpt>
      <trkpt lat="43.2881" lon="-1.43849">
        <ele>581.3</ele>
        <time>2022-09-04T08:16:50Z</time>
      </trkpt>
      <trkpt lat="43.2881" lon="-1.43849">
        <ele>581.5</ele>
        <time>2022-09-04T08:16:51Z</time>
      </trkpt>
      <trkpt lat="43.28809" lon="-1.4385">
        <ele>581.7</ele>
        <time>2022-09-04T08:16:52Z</time>
      </trkpt>
      <trkpt lat="43.28808" lon="-1.4385">
        <ele>581.8</ele>
        <time>2022-09-04T08:16:53Z</time>
      </trkpt>
      <trkpt lat="43.28808" lon="-1.4385">
        <ele>581.9</ele>
        <time>2022-09-04T08:16:54Z</time>
      </trkpt>
      <trkpt lat="43.28808" lon="-1.4385">
        <ele>581.9</ele>
        <time>2022-09-04T08:16:55Z</time>
      </trkpt>
      <trkpt lat="43.28808" lon="-1.4385">
        <ele>581.9</ele>
        <time>2022-09-04T08:16:57Z</time>
      </trkpt>
      <trkpt lat="43.28807" lon="-1.4385">
        <ele>582.1</ele>
        <time>2022-09-04T08:16:58Z</time>
      </trkpt>
      <trkpt lat="43.28806" lon="-1.4385">
        <ele>582.3</ele>
        <time>2022-09-04T08:16:59Z</time>
      </trkpt>
      <trkpt lat="43.28805" lon="-1.4385">
        <ele>582.6</ele>
        <time>2022-09-04T08:17:00Z</time>
      </trkpt>
      <trkpt lat="43.28804" lon="-1.4385">
        <ele>582.7</ele>
        <time>2022-09-04T08:17:01Z</time>
      </trkpt>
      <trkpt lat="43.28804" lon="-1.43849">
        <ele>582.8</ele>
        <time>2022-09-04T08:17:02Z</time>
      </trkpt>
      <trkpt lat="43.28804" lon="-1.43849">
        <ele>582.9</ele>
        <time>2022-09-04T08:17:03Z</time>
      </trkpt>
      <trkpt lat="43.28803" lon="-1.43849">
        <ele>583.1</ele>
        <time>2022-09-04T08:17:04Z</time>
      </trkpt>
      <trkpt lat="43.28802" lon="-1.4385">
        <ele>583.3</ele>
        <time>2022-09-04T08:17:05Z</time>
      </trkpt>
      <trkpt lat="43.28802" lon="-1.4385">
        <ele>583.4</ele>
        <time>2022-09-04T08:17:06Z</time>
      </trkpt>
      <trkpt lat="43.28801" lon="-1.4385">
        <ele>583.7</ele>
        <time>2022-09-04T08:17:07Z</time>
      </trkpt>
      <trkpt lat="43.288" lon="-1.4385">
        <ele>583.8</ele>
        <time>2022-09-04T08:17:08Z</time>
      </trkpt>
      <trkpt lat="43.288" lon="-1.4385">
        <ele>584</ele>
        <time>2022-09-04T08:17:09Z</time>
      </trkpt>
      <trkpt lat="43.28799" lon="-1.4385">
        <ele>584.2</ele>
        <time>2022-09-04T08:17:10Z</time>
      </trkpt>
      <trkpt lat="43.28798" lon="-1.4385">
        <ele>584.4</ele>
        <time>2022-09-04T08:17:11Z</time>
      </trkpt>
      <trkpt lat="43.28797" lon="-1.4385">
        <ele>584.6</ele>
        <time>2022-09-04T08:17:12Z</time>
      </trkpt>
      <trkpt lat="43.28796" lon="-1.4385">
        <ele>584.9</ele>
        <time>2022-09-04T08:17:13Z</time>
      </trkpt>
      <trkpt lat="43.28796" lon="-1.43851">
        <ele>585</ele>
        <time>2022-09-04T08:17:14Z</time>
      </trkpt>
      <trkpt lat="43.28795" lon="-1.43851">
        <ele>585.2</ele>
        <time>2022-09-04T08:17:15Z</time>
      </trkpt>
      <trkpt lat="43.28794" lon="-1.43851">
        <ele>585.4</ele>
        <time>2022-09-04T08:17:16Z</time>
      </trkpt>
      <trkpt lat="43.28793" lon="-1.43851">
        <ele>585.6</ele>
        <time>2022-09-04T08:17:17Z</time>
      </trkpt>
      <trkpt lat="43.28793" lon="-1.43851">
        <ele>585.9</ele>
        <time>2022-09-04T08:17:18Z</time>
      </trkpt>
      <trkpt lat="43.28792" lon="-1.43851">
        <ele>586.1</ele>
        <time>2022-09-04T08:17:19Z</time>
      </trkpt>
      <trkpt lat="43.28791" lon="-1.43851">
        <ele>586.3</ele>
        <time>2022-09-04T08:17:20Z</time>
      </trkpt>
      <trkpt lat="43.2879" lon="-1.43851">
        <ele>586.5</ele>
        <time>2022-09-04T08:17:21Z</time>
      </trkpt>
      <trkpt lat="43.2879" lon="-1.43851">
        <ele>586.7</ele>
        <time>2022-09-04T08:17:22Z</time>
      </trkpt>
      <trkpt lat="43.2879" lon="-1.43851">
        <ele>586.7</ele>
        <time>2022-09-04T08:17:23Z</time>
      </trkpt>
      <trkpt lat="43.28789" lon="-1.43851">
        <ele>586.8</ele>
        <time>2022-09-04T08:17:24Z</time>
      </trkpt>
      <trkpt lat="43.28789" lon="-1.4385">
        <ele>586.9</ele>
        <time>2022-09-04T08:17:25Z</time>
      </trkpt>
      <trkpt lat="43.28789" lon="-1.4385">
        <ele>586.9</ele>
        <time>2022-09-04T08:17:26Z</time>
      </trkpt>
      <trkpt lat="43.28788" lon="-1.4385">
        <ele>587.1</ele>
        <time>2022-09-04T08:17:27Z</time>
      </trkpt>
      <trkpt lat="43.28788" lon="-1.4385">
        <ele>587.3</ele>
        <time>2022-09-04T08:17:28Z</time>
      </trkpt>
      <trkpt lat="43.28787" lon="-1.4385">
        <ele>587.4</ele>
        <time>2022-09-04T08:17:29Z</time>
      </trkpt>
      <trkpt lat="43.28786" lon="-1.43851">
        <ele>587.7</ele>
        <time>2022-09-04T08:17:30Z</time>
      </trkpt>
      <trkpt lat="43.28786" lon="-1.43851">
        <ele>587.9</ele>
        <time>2022-09-04T08:17:31Z</time>
      </trkpt>
      <trkpt lat="43.28785" lon="-1.43851">
        <ele>588.1</ele>
        <time>2022-09-04T08:17:32Z</time>
      </trkpt>
      <trkpt lat="43.28784" lon="-1.43851">
        <ele>588.3</ele>
        <time>2022-09-04T08:17:33Z</time>
      </trkpt>
      <trkpt lat="43.28784" lon="-1.43852">
        <ele>588.5</ele>
        <time>2022-09-04T08:17:34Z</time>
      </trkpt>
      <trkpt lat="43.28783" lon="-1.43852">
        <ele>588.7</ele>
        <time>2022-09-04T08:17:35Z</time>
      </trkpt>
      <trkpt lat="43.28783" lon="-1.43852">
        <ele>588.9</ele>
        <time>2022-09-04T08:17:36Z</time>
      </trkpt>
      <trkpt lat="43.28782" lon="-1.43852">
        <ele>589</ele>
        <time>2022-09-04T08:17:37Z</time>
      </trkpt>
      <trkpt lat="43.28781" lon="-1.43852">
        <ele>589.2</ele>
        <time>2022-09-04T08:17:38Z</time>
      </trkpt>
      <trkpt lat="43.28781" lon="-1.43853">
        <ele>589.4</ele>
        <time>2022-09-04T08:17:39Z</time>
      </trkpt>
      <trkpt lat="43.2878" lon="-1.43852">
        <ele>589.6</ele>
        <time>2022-09-04T08:17:40Z</time>
      </trkpt>
      <trkpt lat="43.2878" lon="-1.43852">
        <ele>589.7</ele>
        <time>2022-09-04T08:17:41Z</time>
      </trkpt>
      <trkpt lat="43.28779" lon="-1.43852">
        <ele>589.8</ele>
        <time>2022-09-04T08:17:42Z</time>
      </trkpt>
      <trkpt lat="43.28779" lon="-1.43853">
        <ele>589.9</ele>
        <time>2022-09-04T08:17:43Z</time>
      </trkpt>
      <trkpt lat="43.28778" lon="-1.43853">
        <ele>590.1</ele>
        <time>2022-09-04T08:17:44Z</time>
      </trkpt>
      <trkpt lat="43.28778" lon="-1.43853">
        <ele>590.3</ele>
        <time>2022-09-04T08:17:45Z</time>
      </trkpt>
      <trkpt lat="43.28777" lon="-1.43853">
        <ele>590.5</ele>
        <time>2022-09-04T08:17:46Z</time>
      </trkpt>
      <trkpt lat="43.28776" lon="-1.43853">
        <ele>590.7</ele>
        <time>2022-09-04T08:17:47Z</time>
      </trkpt>
      <trkpt lat="43.28775" lon="-1.43853">
        <ele>590.9</ele>
        <time>2022-09-04T08:17:48Z</time>
      </trkpt>
      <trkpt lat="43.28774" lon="-1.43853">
        <ele>591.2</ele>
        <time>2022-09-04T08:17:49Z</time>
      </trkpt>
      <trkpt lat="43.28773" lon="-1.43854">
        <ele>591.5</ele>
        <time>2022-09-04T08:17:50Z</time>
      </trkpt>
      <trkpt lat="43.28773" lon="-1.43854">
        <ele>591.7</ele>
        <time>2022-09-04T08:17:51Z</time>
      </trkpt>
      <trkpt lat="43.28772" lon="-1.43854">
        <ele>592</ele>
        <time>2022-09-04T08:17:52Z</time>
      </trkpt>
      <trkpt lat="43.28771" lon="-1.43854">
        <ele>592.2</ele>
        <time>2022-09-04T08:17:53Z</time>
      </trkpt>
      <trkpt lat="43.2877" lon="-1.43854">
        <ele>592.4</ele>
        <time>2022-09-04T08:17:54Z</time>
      </trkpt>
      <trkpt lat="43.28769" lon="-1.43855">
        <ele>592.6</ele>
        <time>2022-09-04T08:17:55Z</time>
      </trkpt>
      <trkpt lat="43.28768" lon="-1.43855">
        <ele>592.8</ele>
        <time>2022-09-04T08:17:56Z</time>
      </trkpt>
      <trkpt lat="43.28768" lon="-1.43855">
        <ele>593</ele>
        <time>2022-09-04T08:17:57Z</time>
      </trkpt>
      <trkpt lat="43.28767" lon="-1.43855">
        <ele>593.3</ele>
        <time>2022-09-04T08:17:58Z</time>
      </trkpt>
      <trkpt lat="43.28766" lon="-1.43855">
        <ele>593.5</ele>
        <time>2022-09-04T08:17:59Z</time>
      </trkpt>
      <trkpt lat="43.28765" lon="-1.43856">
        <ele>593.7</ele>
        <time>2022-09-04T08:18:00Z</time>
      </trkpt>
      <trkpt lat="43.28765" lon="-1.43856">
        <ele>593.9</ele>
        <time>2022-09-04T08:18:01Z</time>
      </trkpt>
      <trkpt lat="43.28764" lon="-1.43856">
        <ele>594.1</ele>
        <time>2022-09-04T08:18:02Z</time>
      </trkpt>
      <trkpt lat="43.28763" lon="-1.43857">
        <ele>594.3</ele>
        <time>2022-09-04T08:18:03Z</time>
      </trkpt>
      <trkpt lat="43.28762" lon="-1.43857">
        <ele>594.5</ele>
        <time>2022-09-04T08:18:04Z</time>
      </trkpt>
      <trkpt lat="43.28762" lon="-1.43857">
        <ele>594.7</ele>
        <time>2022-09-04T08:18:05Z</time>
      </trkpt>
      <trkpt lat="43.28761" lon="-1.43858">
        <ele>594.9</ele>
        <time>2022-09-04T08:18:06Z</time>
      </trkpt>
      <trkpt lat="43.2876" lon="-1.43858">
        <ele>595</ele>
        <time>2022-09-04T08:18:07Z</time>
      </trkpt>
      <trkpt lat="43.2876" lon="-1.43859">
        <ele>595.2</ele>
        <time>2022-09-04T08:18:08Z</time>
      </trkpt>
      <trkpt lat="43.28759" lon="-1.43859">
        <ele>595.4</ele>
        <time>2022-09-04T08:18:09Z</time>
      </trkpt>
      <trkpt lat="43.28759" lon="-1.43859">
        <ele>595.5</ele>
        <time>2022-09-04T08:18:10Z</time>
      </trkpt>
      <trkpt lat="43.28758" lon="-1.43859">
        <ele>595.6</ele>
        <time>2022-09-04T08:18:11Z</time>
      </trkpt>
      <trkpt lat="43.28758" lon="-1.43859">
        <ele>595.6</ele>
        <time>2022-09-04T08:18:12Z</time>
      </trkpt>
      <trkpt lat="43.28758" lon="-1.43859">
        <ele>595.7</ele>
        <time>2022-09-04T08:18:13Z</time>
      </trkpt>
      <trkpt lat="43.28757" lon="-1.43859">
        <ele>595.8</ele>
        <time>2022-09-04T08:18:14Z</time>
      </trkpt>
      <trkpt lat="43.28757" lon="-1.43859">
        <ele>595.9</ele>
        <time>2022-09-04T08:18:15Z</time>
      </trkpt>
      <trkpt lat="43.28756" lon="-1.43859">
        <ele>596.1</ele>
        <time>2022-09-04T08:18:16Z</time>
      </trkpt>
      <trkpt lat="43.28756" lon="-1.43859">
        <ele>596.2</ele>
        <time>2022-09-04T08:18:17Z</time>
      </trkpt>
      <trkpt lat="43.28756" lon="-1.43859">
        <ele>596.3</ele>
        <time>2022-09-04T08:18:18Z</time>
      </trkpt>
      <trkpt lat="43.28755" lon="-1.43859">
        <ele>596.3</ele>
        <time>2022-09-04T08:18:19Z</time>
      </trkpt>
      <trkpt lat="43.28755" lon="-1.43859">
        <ele>596.3</ele>
        <time>2022-09-04T08:18:20Z</time>
      </trkpt>
      <trkpt lat="43.28755" lon="-1.43859">
        <ele>596.3</ele>
        <time>2022-09-04T08:18:21Z</time>
      </trkpt>
      <trkpt lat="43.28755" lon="-1.43859">
        <ele>596.3</ele>
        <time>2022-09-04T08:18:22Z</time>
      </trkpt>
      <trkpt lat="43.28755" lon="-1.43859">
        <ele>596.3</ele>
        <time>2022-09-04T08:18:23Z</time>
      </trkpt>
      <trkpt lat="43.28755" lon="-1.43859">
        <ele>596.3</ele>
        <time>2022-09-04T08:18:24Z</time>
      </trkpt>
      <trkpt lat="43.28756" lon="-1.4386">
        <ele>596.5</ele>
        <time>2022-09-04T08:18:25Z</time>
      </trkpt>
      <trkpt lat="43.28756" lon="-1.4386">
        <ele>596.6</ele>
        <time>2022-09-04T08:18:26Z</time>
      </trkpt>
      <trkpt lat="43.28756" lon="-1.43861">
        <ele>596.6</ele>
        <time>2022-09-04T08:18:27Z</time>
      </trkpt>
      <trkpt lat="43.28756" lon="-1.43861">
        <ele>596.7</ele>
        <time>2022-09-04T08:18:28Z</time>
      </trkpt>
      <trkpt lat="43.28756" lon="-1.43861">
        <ele>596.7</ele>
        <time>2022-09-04T08:18:29Z</time>
      </trkpt>
      <trkpt lat="43.28757" lon="-1.43861">
        <ele>596.7</ele>
        <time>2022-09-04T08:18:30Z</time>
      </trkpt>
      <trkpt lat="43.28757" lon="-1.43861">
        <ele>596.7</ele>
        <time>2022-09-04T08:18:31Z</time>
      </trkpt>
      <trkpt lat="43.28757" lon="-1.43861">
        <ele>596.7</ele>
        <time>2022-09-04T08:18:32Z</time>
      </trkpt>
      <trkpt lat="43.28757" lon="-1.43861">
        <ele>596.7</ele>
        <time>2022-09-04T08:18:33Z</time>
      </trkpt>
      <trkpt lat="43.28757" lon="-1.43861">
        <ele>596.7</ele>
        <time>2022-09-04T08:18:34Z</time>
      </trkpt>
      <trkpt lat="43.28757" lon="-1.43861">
        <ele>596.7</ele>
        <time>2022-09-04T08:18:35Z</time>
      </trkpt>
      <trkpt lat="43.28757" lon="-1.43861">
        <ele>596.7</ele>
        <time>2022-09-04T08:18:36Z</time>
      </trkpt>
      <trkpt lat="43.28757" lon="-1.43861">
        <ele>596.7</ele>
        <time>2022-09-04T08:18:37Z</time>
      </trkpt>
      <trkpt lat="43.28757" lon="-1.43861">
        <ele>596.7</ele>
        <time>2022-09-04T08:18:38Z</time>
      </trkpt>
      <trkpt lat="43.28757" lon="-1.43861">
        <ele>596.8</ele>
        <time>2022-09-04T08:18:39Z</time>
      </trkpt>
      <trkpt lat="43.28757" lon="-1.43861">
        <ele>596.8</ele>
        <time>2022-09-04T08:18:40Z</time>
      </trkpt>
      <trkpt lat="43.28755" lon="-1.43861">
        <ele>597.2</ele>
        <time>2022-09-04T08:18:57Z</time>
      </trkpt>
      <trkpt lat="43.28755" lon="-1.43861">
        <ele>597.2</ele>
        <time>2022-09-04T08:18:58Z</time>
      </trkpt>
      <trkpt lat="43.28755" lon="-1.43861">
        <ele>597.3</ele>
        <time>2022-09-04T08:18:59Z</time>
      </trkpt>
      <trkpt lat="43.28755" lon="-1.43861">
        <ele>597.3</ele>
        <time>2022-09-04T08:19:00Z</time>
      </trkpt>
      <trkpt lat="43.28755" lon="-1.43861">
        <ele>597.3</ele>
        <time>2022-09-04T08:19:01Z</time>
      </trkpt>
      <trkpt lat="43.28755" lon="-1.43861">
        <ele>597.3</ele>
        <time>2022-09-04T08:19:02Z</time>
      </trkpt>
      <trkpt lat="43.28755" lon="-1.43861">
        <ele>597.4</ele>
        <time>2022-09-04T08:19:03Z</time>
      </trkpt>
      <trkpt lat="43.28755" lon="-1.43861">
        <ele>597.4</ele>
        <time>2022-09-04T08:19:04Z</time>
      </trkpt>
      <trkpt lat="43.28755" lon="-1.43861">
        <ele>597.4</ele>
        <time>2022-09-04T08:19:05Z</time>
      </trkpt>
      <trkpt lat="43.28755" lon="-1.4386">
        <ele>597.5</ele>
        <time>2022-09-04T08:19:06Z</time>
      </trkpt>
      <trkpt lat="43.28755" lon="-1.4386">
        <ele>597.6</ele>
        <time>2022-09-04T08:19:07Z</time>
      </trkpt>
      <trkpt lat="43.28755" lon="-1.4386">
        <ele>597.7</ele>
        <time>2022-09-04T08:19:08Z</time>
      </trkpt>
      <trkpt lat="43.28751" lon="-1.4386">
        <ele>598.5</ele>
        <time>2022-09-04T08:19:11Z</time>
      </trkpt>
      <trkpt lat="43.28751" lon="-1.4386">
        <ele>598.7</ele>
        <time>2022-09-04T08:19:12Z</time>
      </trkpt>
      <trkpt lat="43.28751" lon="-1.43859">
        <ele>598.8</ele>
        <time>2022-09-04T08:19:13Z</time>
      </trkpt>
      <trkpt lat="43.28751" lon="-1.43859">
        <ele>598.8</ele>
        <time>2022-09-04T08:19:14Z</time>
      </trkpt>
      <trkpt lat="43.28751" lon="-1.43859">
        <ele>598.9</ele>
        <time>2022-09-04T08:19:15Z</time>
      </trkpt>
      <trkpt lat="43.28751" lon="-1.43859">
        <ele>598.9</ele>
        <time>2022-09-04T08:19:16Z</time>
      </trkpt>
      <trkpt lat="43.28751" lon="-1.43859">
        <ele>599</ele>
        <time>2022-09-04T08:19:17Z</time>
      </trkpt>
      <trkpt lat="43.28752" lon="-1.43859">
        <ele>599.1</ele>
        <time>2022-09-04T08:19:18Z</time>
      </trkpt>
      <trkpt lat="43.28752" lon="-1.43859">
        <ele>599.1</ele>
        <time>2022-09-04T08:19:19Z</time>
      </trkpt>
      <trkpt lat="43.28752" lon="-1.43859">
        <ele>599.2</ele>
        <time>2022-09-04T08:19:20Z</time>
      </trkpt>
      <trkpt lat="43.28752" lon="-1.4386">
        <ele>599.3</ele>
        <time>2022-09-04T08:19:21Z</time>
      </trkpt>
      <trkpt lat="43.28753" lon="-1.4386">
        <ele>599.4</ele>
        <time>2022-09-04T08:19:22Z</time>
      </trkpt>
      <trkpt lat="43.28753" lon="-1.4386">
        <ele>599.4</ele>
        <time>2022-09-04T08:19:23Z</time>
      </trkpt>
      <trkpt lat="43.28753" lon="-1.43861">
        <ele>599.5</ele>
        <time>2022-09-04T08:19:24Z</time>
      </trkpt>
      <trkpt lat="43.28747" lon="-1.43863">
        <ele>600.7</ele>
        <time>2022-09-04T08:19:53Z</time>
      </trkpt>
      <trkpt lat="43.28744" lon="-1.43864">
        <ele>601.3</ele>
        <time>2022-09-04T08:19:54Z</time>
      </trkpt>
      <trkpt lat="43.28741" lon="-1.43865">
        <ele>602</ele>
        <time>2022-09-04T08:19:55Z</time>
      </trkpt>
      <trkpt lat="43.28738" lon="-1.43866">
        <ele>602.7</ele>
        <time>2022-09-04T08:19:56Z</time>
      </trkpt>
      <trkpt lat="43.28735" lon="-1.43867">
        <ele>603.4</ele>
        <time>2022-09-04T08:19:57Z</time>
      </trkpt>
      <trkpt lat="43.28732" lon="-1.43868">
        <ele>604.1</ele>
        <time>2022-09-04T08:19:58Z</time>
      </trkpt>
      <trkpt lat="43.28729" lon="-1.43869">
        <ele>604.8</ele>
        <time>2022-09-04T08:19:59Z</time>
      </trkpt>
      <trkpt lat="43.28727" lon="-1.43871">
        <ele>605.4</ele>
        <time>2022-09-04T08:20:00Z</time>
      </trkpt>
      <trkpt lat="43.28724" lon="-1.43872">
        <ele>606.1</ele>
        <time>2022-09-04T08:20:01Z</time>
      </trkpt>
      <trkpt lat="43.28721" lon="-1.43873">
        <ele>606.8</ele>
        <time>2022-09-04T08:20:02Z</time>
      </trkpt>
      <trkpt lat="43.28718" lon="-1.43874">
        <ele>607.5</ele>
        <time>2022-09-04T08:20:03Z</time>
      </trkpt>
      <trkpt lat="43.28715" lon="-1.43875">
        <ele>608.1</ele>
        <time>2022-09-04T08:20:04Z</time>
      </trkpt>
      <trkpt lat="43.28712" lon="-1.43875">
        <ele>609</ele>
        <time>2022-09-04T08:20:05Z</time>
      </trkpt>
      <trkpt lat="43.28711" lon="-1.43875">
        <ele>609.2</ele>
        <time>2022-09-04T08:20:06Z</time>
      </trkpt>
      <trkpt lat="43.2871" lon="-1.43874">
        <ele>609.4</ele>
        <time>2022-09-04T08:20:07Z</time>
      </trkpt>
      <trkpt lat="43.2871" lon="-1.43873">
        <ele>609.6</ele>
        <time>2022-09-04T08:20:08Z</time>
      </trkpt>
      <trkpt lat="43.2871" lon="-1.43873">
        <ele>609.7</ele>
        <time>2022-09-04T08:20:09Z</time>
      </trkpt>
      <trkpt lat="43.2871" lon="-1.43873">
        <ele>609.8</ele>
        <time>2022-09-04T08:20:10Z</time>
      </trkpt>
      <trkpt lat="43.28711" lon="-1.43873">
        <ele>609.9</ele>
        <time>2022-09-04T08:20:11Z</time>
      </trkpt>
      <trkpt lat="43.28711" lon="-1.43874">
        <ele>609.9</ele>
        <time>2022-09-04T08:20:12Z</time>
      </trkpt>
      <trkpt lat="43.28711" lon="-1.43874">
        <ele>610.1</ele>
        <time>2022-09-04T08:20:13Z</time>
      </trkpt>
      <trkpt lat="43.28711" lon="-1.43875">
        <ele>610.2</ele>
        <time>2022-09-04T08:20:14Z</time>
      </trkpt>
      <trkpt lat="43.28711" lon="-1.43875">
        <ele>610.3</ele>
        <time>2022-09-04T08:20:15Z</time>
      </trkpt>
      <trkpt lat="43.2871" lon="-1.43876">
        <ele>610.4</ele>
        <time>2022-09-04T08:20:16Z</time>
      </trkpt>
      <trkpt lat="43.2871" lon="-1.43876">
        <ele>610.6</ele>
        <time>2022-09-04T08:20:17Z</time>
      </trkpt>
      <trkpt lat="43.28709" lon="-1.43876">
        <ele>610.7</ele>
        <time>2022-09-04T08:20:18Z</time>
      </trkpt>
      <trkpt lat="43.28709" lon="-1.43876">
        <ele>610.8</ele>
        <time>2022-09-04T08:20:19Z</time>
      </trkpt>
      <trkpt lat="43.28708" lon="-1.43877">
        <ele>611</ele>
        <time>2022-09-04T08:20:20Z</time>
      </trkpt>
      <trkpt lat="43.28708" lon="-1.43877">
        <ele>611</ele>
        <time>2022-09-04T08:20:21Z</time>
      </trkpt>
      <trkpt lat="43.28708" lon="-1.43877">
        <ele>611</ele>
        <time>2022-09-04T08:20:22Z</time>
      </trkpt>
      <trkpt lat="43.28708" lon="-1.43877">
        <ele>611</ele>
        <time>2022-09-04T08:20:23Z</time>
      </trkpt>
      <trkpt lat="43.28707" lon="-1.43877">
        <ele>611.2</ele>
        <time>2022-09-04T08:20:24Z</time>
      </trkpt>
      <trkpt lat="43.28707" lon="-1.43877">
        <ele>611.3</ele>
        <time>2022-09-04T08:20:25Z</time>
      </trkpt>
      <trkpt lat="43.28706" lon="-1.43877">
        <ele>611.4</ele>
        <time>2022-09-04T08:20:26Z</time>
      </trkpt>
      <trkpt lat="43.28706" lon="-1.43877">
        <ele>611.5</ele>
        <time>2022-09-04T08:20:27Z</time>
      </trkpt>
      <trkpt lat="43.28706" lon="-1.43877">
        <ele>611.5</ele>
        <time>2022-09-04T08:20:28Z</time>
      </trkpt>
      <trkpt lat="43.28706" lon="-1.43877">
        <ele>611.6</ele>
        <time>2022-09-04T08:20:29Z</time>
      </trkpt>
      <trkpt lat="43.28706" lon="-1.43877">
        <ele>611.6</ele>
        <time>2022-09-04T08:20:30Z</time>
      </trkpt>
      <trkpt lat="43.28705" lon="-1.43877">
        <ele>611.8</ele>
        <time>2022-09-04T08:20:31Z</time>
      </trkpt>
      <trkpt lat="43.28704" lon="-1.43878">
        <ele>612</ele>
        <time>2022-09-04T08:20:32Z</time>
      </trkpt>
      <trkpt lat="43.28704" lon="-1.43878">
        <ele>612.1</ele>
        <time>2022-09-04T08:20:33Z</time>
      </trkpt>
      <trkpt lat="43.28703" lon="-1.43878">
        <ele>612.3</ele>
        <time>2022-09-04T08:20:34Z</time>
      </trkpt>
      <trkpt lat="43.28702" lon="-1.43878">
        <ele>612.5</ele>
        <time>2022-09-04T08:20:35Z</time>
      </trkpt>
      <trkpt lat="43.28701" lon="-1.43878">
        <ele>612.7</ele>
        <time>2022-09-04T08:20:36Z</time>
      </trkpt>
      <trkpt lat="43.287" lon="-1.43879">
        <ele>612.8</ele>
        <time>2022-09-04T08:20:37Z</time>
      </trkpt>
      <trkpt lat="43.28699" lon="-1.43879">
        <ele>613</ele>
        <time>2022-09-04T08:20:38Z</time>
      </trkpt>
      <trkpt lat="43.28699" lon="-1.43879">
        <ele>613.1</ele>
        <time>2022-09-04T08:20:39Z</time>
      </trkpt>
      <trkpt lat="43.28698" lon="-1.43879">
        <ele>613.2</ele>
        <time>2022-09-04T08:20:40Z</time>
      </trkpt>
      <trkpt lat="43.28697" lon="-1.43879">
        <ele>613.3</ele>
        <time>2022-09-04T08:20:41Z</time>
      </trkpt>
      <trkpt lat="43.28697" lon="-1.43879">
        <ele>613.5</ele>
        <time>2022-09-04T08:20:42Z</time>
      </trkpt>
      <trkpt lat="43.28696" lon="-1.43879">
        <ele>613.6</ele>
        <time>2022-09-04T08:20:43Z</time>
      </trkpt>
      <trkpt lat="43.28695" lon="-1.43879">
        <ele>613.8</ele>
        <time>2022-09-04T08:20:44Z</time>
      </trkpt>
      <trkpt lat="43.28694" lon="-1.4388">
        <ele>613.9</ele>
        <time>2022-09-04T08:20:45Z</time>
      </trkpt>
      <trkpt lat="43.28693" lon="-1.4388">
        <ele>614.1</ele>
        <time>2022-09-04T08:20:46Z</time>
      </trkpt>
      <trkpt lat="43.28693" lon="-1.4388">
        <ele>614.2</ele>
        <time>2022-09-04T08:20:47Z</time>
      </trkpt>
      <trkpt lat="43.28692" lon="-1.4388">
        <ele>614.4</ele>
        <time>2022-09-04T08:20:48Z</time>
      </trkpt>
      <trkpt lat="43.28691" lon="-1.4388">
        <ele>614.5</ele>
        <time>2022-09-04T08:20:49Z</time>
      </trkpt>
      <trkpt lat="43.2869" lon="-1.4388">
        <ele>614.7</ele>
        <time>2022-09-04T08:20:50Z</time>
      </trkpt>
      <trkpt lat="43.28689" lon="-1.4388">
        <ele>614.9</ele>
        <time>2022-09-04T08:20:51Z</time>
      </trkpt>
      <trkpt lat="43.28688" lon="-1.4388">
        <ele>615.1</ele>
        <time>2022-09-04T08:20:52Z</time>
      </trkpt>
      <trkpt lat="43.28688" lon="-1.43881">
        <ele>615.2</ele>
        <time>2022-09-04T08:20:53Z</time>
      </trkpt>
      <trkpt lat="43.28687" lon="-1.43881">
        <ele>615.3</ele>
        <time>2022-09-04T08:20:54Z</time>
      </trkpt>
      <trkpt lat="43.28687" lon="-1.43881">
        <ele>615.3</ele>
        <time>2022-09-04T08:20:55Z</time>
      </trkpt>
      <trkpt lat="43.28687" lon="-1.43881">
        <ele>615.3</ele>
        <time>2022-09-04T08:20:56Z</time>
      </trkpt>
      <trkpt lat="43.28687" lon="-1.43881">
        <ele>615.3</ele>
        <time>2022-09-04T08:20:57Z</time>
      </trkpt>
      <trkpt lat="43.28687" lon="-1.43881">
        <ele>615.4</ele>
        <time>2022-09-04T08:20:58Z</time>
      </trkpt>
      <trkpt lat="43.28687" lon="-1.43881">
        <ele>615.4</ele>
        <time>2022-09-04T08:20:59Z</time>
      </trkpt>
      <trkpt lat="43.28687" lon="-1.43881">
        <ele>615.4</ele>
        <time>2022-09-04T08:21:00Z</time>
      </trkpt>
      <trkpt lat="43.28687" lon="-1.43881">
        <ele>615.4</ele>
        <time>2022-09-04T08:21:01Z</time>
      </trkpt>
      <trkpt lat="43.28687" lon="-1.43881">
        <ele>615.4</ele>
        <time>2022-09-04T08:21:02Z</time>
      </trkpt>
      <trkpt lat="43.28688" lon="-1.43881">
        <ele>615.5</ele>
        <time>2022-09-04T08:21:03Z</time>
      </trkpt>
      <trkpt lat="43.28687" lon="-1.43881">
        <ele>615.6</ele>
        <time>2022-09-04T08:21:04Z</time>
      </trkpt>
      <trkpt lat="43.28686" lon="-1.43881">
        <ele>615.8</ele>
        <time>2022-09-04T08:21:05Z</time>
      </trkpt>
      <trkpt lat="43.28686" lon="-1.43882">
        <ele>615.9</ele>
        <time>2022-09-04T08:21:06Z</time>
      </trkpt>
      <trkpt lat="43.28685" lon="-1.43882">
        <ele>616.1</ele>
        <time>2022-09-04T08:21:08Z</time>
      </trkpt>
      <trkpt lat="43.28684" lon="-1.43882">
        <ele>616.1</ele>
        <time>2022-09-04T08:21:09Z</time>
      </trkpt>
      <trkpt lat="43.28685" lon="-1.43882">
        <ele>616.2</ele>
        <time>2022-09-04T08:21:10Z</time>
      </trkpt>
      <trkpt lat="43.28685" lon="-1.43883">
        <ele>616.2</ele>
        <time>2022-09-04T08:21:11Z</time>
      </trkpt>
      <trkpt lat="43.28684" lon="-1.43884">
        <ele>616.4</ele>
        <time>2022-09-04T08:21:12Z</time>
      </trkpt>
      <trkpt lat="43.28683" lon="-1.43884">
        <ele>616.6</ele>
        <time>2022-09-04T08:21:13Z</time>
      </trkpt>
      <trkpt lat="43.28682" lon="-1.43884">
        <ele>616.8</ele>
        <time>2022-09-04T08:21:14Z</time>
      </trkpt>
      <trkpt lat="43.28681" lon="-1.43885">
        <ele>617</ele>
        <time>2022-09-04T08:21:15Z</time>
      </trkpt>
      <trkpt lat="43.2868" lon="-1.43885">
        <ele>617.1</ele>
        <time>2022-09-04T08:21:16Z</time>
      </trkpt>
      <trkpt lat="43.2868" lon="-1.43885">
        <ele>617.2</ele>
        <time>2022-09-04T08:21:17Z</time>
      </trkpt>
      <trkpt lat="43.28679" lon="-1.43885">
        <ele>617.3</ele>
        <time>2022-09-04T08:21:18Z</time>
      </trkpt>
      <trkpt lat="43.28679" lon="-1.43885">
        <ele>617.4</ele>
        <time>2022-09-04T08:21:19Z</time>
      </trkpt>
      <trkpt lat="43.28678" lon="-1.43885">
        <ele>617.5</ele>
        <time>2022-09-04T08:21:20Z</time>
      </trkpt>
      <trkpt lat="43.28677" lon="-1.43885">
        <ele>617.6</ele>
        <time>2022-09-04T08:21:21Z</time>
      </trkpt>
      <trkpt lat="43.28677" lon="-1.43886">
        <ele>617.8</ele>
        <time>2022-09-04T08:21:22Z</time>
      </trkpt>
      <trkpt lat="43.28676" lon="-1.43886">
        <ele>617.9</ele>
        <time>2022-09-04T08:21:23Z</time>
      </trkpt>
      <trkpt lat="43.28676" lon="-1.43887">
        <ele>618.1</ele>
        <time>2022-09-04T08:21:24Z</time>
      </trkpt>
      <trkpt lat="43.28675" lon="-1.43887">
        <ele>618.1</ele>
        <time>2022-09-04T08:21:25Z</time>
      </trkpt>
      <trkpt lat="43.28675" lon="-1.43887">
        <ele>618.1</ele>
        <time>2022-09-04T08:21:26Z</time>
      </trkpt>
      <trkpt lat="43.28675" lon="-1.43887">
        <ele>618.2</ele>
        <time>2022-09-04T08:21:27Z</time>
      </trkpt>
      <trkpt lat="43.28675" lon="-1.43887">
        <ele>618.2</ele>
        <time>2022-09-04T08:21:28Z</time>
      </trkpt>
      <trkpt lat="43.28676" lon="-1.43887">
        <ele>618.3</ele>
        <time>2022-09-04T08:21:29Z</time>
      </trkpt>
      <trkpt lat="43.28676" lon="-1.43887">
        <ele>618.3</ele>
        <time>2022-09-04T08:21:30Z</time>
      </trkpt>
      <trkpt lat="43.28676" lon="-1.43887">
        <ele>618.3</ele>
        <time>2022-09-04T08:21:31Z</time>
      </trkpt>
      <trkpt lat="43.28676" lon="-1.43887">
        <ele>618.4</ele>
        <time>2022-09-04T08:21:32Z</time>
      </trkpt>
      <trkpt lat="43.28676" lon="-1.43887">
        <ele>618.4</ele>
        <time>2022-09-04T08:21:33Z</time>
      </trkpt>
      <trkpt lat="43.28676" lon="-1.43887">
        <ele>618.4</ele>
        <time>2022-09-04T08:21:34Z</time>
      </trkpt>
      <trkpt lat="43.28675" lon="-1.43887">
        <ele>618.6</ele>
        <time>2022-09-04T08:21:35Z</time>
      </trkpt>
      <trkpt lat="43.28675" lon="-1.43887">
        <ele>618.7</ele>
        <time>2022-09-04T08:21:36Z</time>
      </trkpt>
      <trkpt lat="43.28674" lon="-1.43888">
        <ele>618.8</ele>
        <time>2022-09-04T08:21:37Z</time>
      </trkpt>
      <trkpt lat="43.28674" lon="-1.43888">
        <ele>618.9</ele>
        <time>2022-09-04T08:21:38Z</time>
      </trkpt>
      <trkpt lat="43.28673" lon="-1.43888">
        <ele>618.9</ele>
        <time>2022-09-04T08:21:39Z</time>
      </trkpt>
      <trkpt lat="43.28674" lon="-1.43888">
        <ele>619</ele>
        <time>2022-09-04T08:21:40Z</time>
      </trkpt>
      <trkpt lat="43.28674" lon="-1.43889">
        <ele>619</ele>
        <time>2022-09-04T08:21:41Z</time>
      </trkpt>
      <trkpt lat="43.28674" lon="-1.43889">
        <ele>619.1</ele>
        <time>2022-09-04T08:21:42Z</time>
      </trkpt>
      <trkpt lat="43.28674" lon="-1.43889">
        <ele>619.1</ele>
        <time>2022-09-04T08:21:43Z</time>
      </trkpt>
      <trkpt lat="43.28674" lon="-1.43889">
        <ele>619.1</ele>
        <time>2022-09-04T08:21:44Z</time>
      </trkpt>
      <trkpt lat="43.28674" lon="-1.43889">
        <ele>619.1</ele>
        <time>2022-09-04T08:21:45Z</time>
      </trkpt>
      <trkpt lat="43.28674" lon="-1.43889">
        <ele>619.1</ele>
        <time>2022-09-04T08:21:46Z</time>
      </trkpt>
      <trkpt lat="43.28674" lon="-1.43889">
        <ele>619.1</ele>
        <time>2022-09-04T08:21:47Z</time>
      </trkpt>
      <trkpt lat="43.28674" lon="-1.43889">
        <ele>619.1</ele>
        <time>2022-09-04T08:21:48Z</time>
      </trkpt>
      <trkpt lat="43.28674" lon="-1.43889">
        <ele>619.2</ele>
        <time>2022-09-04T08:21:49Z</time>
      </trkpt>
      <trkpt lat="43.28669" lon="-1.43889">
        <ele>619.9</ele>
        <time>2022-09-04T08:21:55Z</time>
      </trkpt>
      <trkpt lat="43.28666" lon="-1.4389">
        <ele>620.2</ele>
        <time>2022-09-04T08:21:56Z</time>
      </trkpt>
      <trkpt lat="43.28663" lon="-1.4389">
        <ele>620.6</ele>
        <time>2022-09-04T08:21:57Z</time>
      </trkpt>
      <trkpt lat="43.2866" lon="-1.43891">
        <ele>620.9</ele>
        <time>2022-09-04T08:21:58Z</time>
      </trkpt>
      <trkpt lat="43.28657" lon="-1.43891">
        <ele>621.3</ele>
        <time>2022-09-04T08:21:59Z</time>
      </trkpt>
      <trkpt lat="43.28654" lon="-1.43891">
        <ele>621.6</ele>
        <time>2022-09-04T08:22:00Z</time>
      </trkpt>
      <trkpt lat="43.28651" lon="-1.43891">
        <ele>621.9</ele>
        <time>2022-09-04T08:22:01Z</time>
      </trkpt>
      <trkpt lat="43.28649" lon="-1.43891">
        <ele>622.2</ele>
        <time>2022-09-04T08:22:02Z</time>
      </trkpt>
      <trkpt lat="43.28646" lon="-1.43891">
        <ele>622.5</ele>
        <time>2022-09-04T08:22:03Z</time>
      </trkpt>
      <trkpt lat="43.28643" lon="-1.43891">
        <ele>622.8</ele>
        <time>2022-09-04T08:22:04Z</time>
      </trkpt>
      <trkpt lat="43.2864" lon="-1.4389">
        <ele>623.1</ele>
        <time>2022-09-04T08:22:05Z</time>
      </trkpt>
      <trkpt lat="43.28637" lon="-1.4389">
        <ele>623.4</ele>
        <time>2022-09-04T08:22:06Z</time>
      </trkpt>
      <trkpt lat="43.28634" lon="-1.4389">
        <ele>623.8</ele>
        <time>2022-09-04T08:22:07Z</time>
      </trkpt>
      <trkpt lat="43.28632" lon="-1.4389">
        <ele>624.1</ele>
        <time>2022-09-04T08:22:08Z</time>
      </trkpt>
      <trkpt lat="43.28629" lon="-1.4389">
        <ele>624.5</ele>
        <time>2022-09-04T08:22:09Z</time>
      </trkpt>
      <trkpt lat="43.28625" lon="-1.43891">
        <ele>625</ele>
        <time>2022-09-04T08:22:10Z</time>
      </trkpt>
      <trkpt lat="43.28623" lon="-1.43891">
        <ele>625.2</ele>
        <time>2022-09-04T08:22:11Z</time>
      </trkpt>
      <trkpt lat="43.28621" lon="-1.43891">
        <ele>625.6</ele>
        <time>2022-09-04T08:22:12Z</time>
      </trkpt>
      <trkpt lat="43.28617" lon="-1.4389">
        <ele>626.2</ele>
        <time>2022-09-04T08:22:13Z</time>
      </trkpt>
      <trkpt lat="43.28616" lon="-1.4389">
        <ele>626.4</ele>
        <time>2022-09-04T08:22:14Z</time>
      </trkpt>
      <trkpt lat="43.28613" lon="-1.43889">
        <ele>626.8</ele>
        <time>2022-09-04T08:22:15Z</time>
      </trkpt>
      <trkpt lat="43.28609" lon="-1.43889">
        <ele>627.5</ele>
        <time>2022-09-04T08:22:16Z</time>
      </trkpt>
      <trkpt lat="43.28608" lon="-1.43889">
        <ele>627.7</ele>
        <time>2022-09-04T08:22:17Z</time>
      </trkpt>
      <trkpt lat="43.28604" lon="-1.43889">
        <ele>628.2</ele>
        <time>2022-09-04T08:22:18Z</time>
      </trkpt>
      <trkpt lat="43.28603" lon="-1.43889">
        <ele>628.4</ele>
        <time>2022-09-04T08:22:19Z</time>
      </trkpt>
      <trkpt lat="43.28602" lon="-1.43889">
        <ele>628.5</ele>
        <time>2022-09-04T08:22:20Z</time>
      </trkpt>
      <trkpt lat="43.28603" lon="-1.43889">
        <ele>628.6</ele>
        <time>2022-09-04T08:22:21Z</time>
      </trkpt>
      <trkpt lat="43.28603" lon="-1.43889">
        <ele>628.7</ele>
        <time>2022-09-04T08:22:22Z</time>
      </trkpt>
      <trkpt lat="43.28603" lon="-1.4389">
        <ele>628.7</ele>
        <time>2022-09-04T08:22:23Z</time>
      </trkpt>
      <trkpt lat="43.28603" lon="-1.43891">
        <ele>628.8</ele>
        <time>2022-09-04T08:22:24Z</time>
      </trkpt>
      <trkpt lat="43.28603" lon="-1.43891">
        <ele>628.9</ele>
        <time>2022-09-04T08:22:25Z</time>
      </trkpt>
      <trkpt lat="43.28603" lon="-1.43891">
        <ele>628.9</ele>
        <time>2022-09-04T08:22:26Z</time>
      </trkpt>
      <trkpt lat="43.28604" lon="-1.43891">
        <ele>628.9</ele>
        <time>2022-09-04T08:22:27Z</time>
      </trkpt>
      <trkpt lat="43.28604" lon="-1.43891">
        <ele>629.1</ele>
        <time>2022-09-04T08:22:28Z</time>
      </trkpt>
      <trkpt lat="43.28604" lon="-1.43892">
        <ele>629.2</ele>
        <time>2022-09-04T08:22:29Z</time>
      </trkpt>
      <trkpt lat="43.28605" lon="-1.43892">
        <ele>629.2</ele>
        <time>2022-09-04T08:22:30Z</time>
      </trkpt>
      <trkpt lat="43.28605" lon="-1.43892">
        <ele>629.2</ele>
        <time>2022-09-04T08:22:31Z</time>
      </trkpt>
      <trkpt lat="43.28604" lon="-1.43892">
        <ele>629.3</ele>
        <time>2022-09-04T08:22:32Z</time>
      </trkpt>
      <trkpt lat="43.28603" lon="-1.43891">
        <ele>629.5</ele>
        <time>2022-09-04T08:22:33Z</time>
      </trkpt>
      <trkpt lat="43.28601" lon="-1.43891">
        <ele>629.8</ele>
        <time>2022-09-04T08:22:34Z</time>
      </trkpt>
      <trkpt lat="43.28598" lon="-1.43891">
        <ele>630.3</ele>
        <time>2022-09-04T08:22:35Z</time>
      </trkpt>
      <trkpt lat="43.28595" lon="-1.43892">
        <ele>630.8</ele>
        <time>2022-09-04T08:22:36Z</time>
      </trkpt>
      <trkpt lat="43.28592" lon="-1.43892">
        <ele>631.3</ele>
        <time>2022-09-04T08:22:37Z</time>
      </trkpt>
      <trkpt lat="43.28589" lon="-1.43891">
        <ele>631.8</ele>
        <time>2022-09-04T08:22:38Z</time>
      </trkpt>
      <trkpt lat="43.28587" lon="-1.4389">
        <ele>632.2</ele>
        <time>2022-09-04T08:22:39Z</time>
      </trkpt>
      <trkpt lat="43.28583" lon="-1.4389">
        <ele>632.8</ele>
        <time>2022-09-04T08:22:40Z</time>
      </trkpt>
      <trkpt lat="43.28582" lon="-1.4389">
        <ele>633</ele>
        <time>2022-09-04T08:22:41Z</time>
      </trkpt>
      <trkpt lat="43.28578" lon="-1.4389">
        <ele>633.5</ele>
        <time>2022-09-04T08:22:42Z</time>
      </trkpt>
      <trkpt lat="43.28577" lon="-1.4389">
        <ele>633.7</ele>
        <time>2022-09-04T08:22:43Z</time>
      </trkpt>
      <trkpt lat="43.28573" lon="-1.4389">
        <ele>634.4</ele>
        <time>2022-09-04T08:22:44Z</time>
      </trkpt>
      <trkpt lat="43.28571" lon="-1.4389">
        <ele>634.6</ele>
        <time>2022-09-04T08:22:45Z</time>
      </trkpt>
      <trkpt lat="43.28568" lon="-1.4389">
        <ele>635.2</ele>
        <time>2022-09-04T08:22:46Z</time>
      </trkpt>
      <trkpt lat="43.28566" lon="-1.43891">
        <ele>635.4</ele>
        <time>2022-09-04T08:22:47Z</time>
      </trkpt>
      <trkpt lat="43.28563" lon="-1.4389">
        <ele>636</ele>
        <time>2022-09-04T08:22:48Z</time>
      </trkpt>
      <trkpt lat="43.28562" lon="-1.4389">
        <ele>636.2</ele>
        <time>2022-09-04T08:22:49Z</time>
      </trkpt>
      <trkpt lat="43.28559" lon="-1.43889">
        <ele>636.7</ele>
        <time>2022-09-04T08:22:50Z</time>
      </trkpt>
      <trkpt lat="43.28558" lon="-1.43888">
        <ele>636.9</ele>
        <time>2022-09-04T08:22:51Z</time>
      </trkpt>
      <trkpt lat="43.28555" lon="-1.43886">
        <ele>637.5</ele>
        <time>2022-09-04T08:22:52Z</time>
      </trkpt>
      <trkpt lat="43.28554" lon="-1.43885">
        <ele>637.7</ele>
        <time>2022-09-04T08:22:53Z</time>
      </trkpt>
      <trkpt lat="43.28551" lon="-1.43883">
        <ele>638.4</ele>
        <time>2022-09-04T08:22:54Z</time>
      </trkpt>
      <trkpt lat="43.2855" lon="-1.43883">
        <ele>638.6</ele>
        <time>2022-09-04T08:22:55Z</time>
      </trkpt>
      <trkpt lat="43.28547" lon="-1.43882">
        <ele>639.3</ele>
        <time>2022-09-04T08:22:56Z</time>
      </trkpt>
      <trkpt lat="43.28546" lon="-1.43882">
        <ele>639.6</ele>
        <time>2022-09-04T08:22:57Z</time>
      </trkpt>
      <trkpt lat="43.28543" lon="-1.43882">
        <ele>640.2</ele>
        <time>2022-09-04T08:22:58Z</time>
      </trkpt>
      <trkpt lat="43.28542" lon="-1.43882">
        <ele>640.4</ele>
        <time>2022-09-04T08:22:59Z</time>
      </trkpt>
      <trkpt lat="43.28541" lon="-1.43885">
        <ele>641.1</ele>
        <time>2022-09-04T08:23:00Z</time>
      </trkpt>
      <trkpt lat="43.2854" lon="-1.43887">
        <ele>641.4</ele>
        <time>2022-09-04T08:23:01Z</time>
      </trkpt>
      <trkpt lat="43.2854" lon="-1.43891">
        <ele>642.1</ele>
        <time>2022-09-04T08:23:02Z</time>
      </trkpt>
      <trkpt lat="43.28541" lon="-1.43895">
        <ele>642.8</ele>
        <time>2022-09-04T08:23:03Z</time>
      </trkpt>
      <trkpt lat="43.28541" lon="-1.439">
        <ele>643.9</ele>
        <time>2022-09-04T08:23:04Z</time>
      </trkpt>
      <trkpt lat="43.28541" lon="-1.43902">
        <ele>644.3</ele>
        <time>2022-09-04T08:23:05Z</time>
      </trkpt>
      <trkpt lat="43.28542" lon="-1.43906">
        <ele>645.1</ele>
        <time>2022-09-04T08:23:06Z</time>
      </trkpt>
      <trkpt lat="43.28542" lon="-1.43911">
        <ele>646.1</ele>
        <time>2022-09-04T08:23:07Z</time>
      </trkpt>
      <trkpt lat="43.28543" lon="-1.43912">
        <ele>646.4</ele>
        <time>2022-09-04T08:23:08Z</time>
      </trkpt>
      <trkpt lat="43.28542" lon="-1.43916">
        <ele>647.2</ele>
        <time>2022-09-04T08:23:09Z</time>
      </trkpt>
      <trkpt lat="43.28542" lon="-1.43917">
        <ele>647.5</ele>
        <time>2022-09-04T08:23:10Z</time>
      </trkpt>
      <trkpt lat="43.28542" lon="-1.43919">
        <ele>647.9</ele>
        <time>2022-09-04T08:23:11Z</time>
      </trkpt>
      <trkpt lat="43.2854" lon="-1.4392">
        <ele>648.4</ele>
        <time>2022-09-04T08:23:12Z</time>
      </trkpt>
      <trkpt lat="43.28537" lon="-1.4392">
        <ele>648.7</ele>
        <time>2022-09-04T08:23:13Z</time>
      </trkpt>
      <trkpt lat="43.28536" lon="-1.4392">
        <ele>648.9</ele>
        <time>2022-09-04T08:23:14Z</time>
      </trkpt>
      <trkpt lat="43.28533" lon="-1.43917">
        <ele>649.3</ele>
        <time>2022-09-04T08:23:15Z</time>
      </trkpt>
      <trkpt lat="43.28532" lon="-1.43916">
        <ele>649.4</ele>
        <time>2022-09-04T08:23:16Z</time>
      </trkpt>
      <trkpt lat="43.2853" lon="-1.43915">
        <ele>649.8</ele>
        <time>2022-09-04T08:23:17Z</time>
      </trkpt>
      <trkpt lat="43.28529" lon="-1.43914">
        <ele>649.9</ele>
        <time>2022-09-04T08:23:18Z</time>
      </trkpt>
      <trkpt lat="43.28526" lon="-1.43913">
        <ele>650.3</ele>
        <time>2022-09-04T08:23:19Z</time>
      </trkpt>
      <trkpt lat="43.28525" lon="-1.43913">
        <ele>650.4</ele>
        <time>2022-09-04T08:23:20Z</time>
      </trkpt>
      <trkpt lat="43.28523" lon="-1.43914">
        <ele>650.6</ele>
        <time>2022-09-04T08:23:21Z</time>
      </trkpt>
      <trkpt lat="43.28522" lon="-1.43915">
        <ele>650.7</ele>
        <time>2022-09-04T08:23:22Z</time>
      </trkpt>
      <trkpt lat="43.28519" lon="-1.43916">
        <ele>651</ele>
        <time>2022-09-04T08:23:23Z</time>
      </trkpt>
      <trkpt lat="43.28518" lon="-1.43916">
        <ele>651.1</ele>
        <time>2022-09-04T08:23:24Z</time>
      </trkpt>
      <trkpt lat="43.28514" lon="-1.43916">
        <ele>651.4</ele>
        <time>2022-09-04T08:23:25Z</time>
      </trkpt>
      <trkpt lat="43.28513" lon="-1.43917">
        <ele>651.5</ele>
        <time>2022-09-04T08:23:26Z</time>
      </trkpt>
      <trkpt lat="43.2851" lon="-1.43917">
        <ele>651.8</ele>
        <time>2022-09-04T08:23:27Z</time>
      </trkpt>
      <trkpt lat="43.28509" lon="-1.43917">
        <ele>651.8</ele>
        <time>2022-09-04T08:23:28Z</time>
      </trkpt>
      <trkpt lat="43.28507" lon="-1.43917">
        <ele>652</ele>
        <time>2022-09-04T08:23:29Z</time>
      </trkpt>
      <trkpt lat="43.28506" lon="-1.43916">
        <ele>652.1</ele>
        <time>2022-09-04T08:23:30Z</time>
      </trkpt>
      <trkpt lat="43.28504" lon="-1.43916">
        <ele>652.2</ele>
        <time>2022-09-04T08:23:31Z</time>
      </trkpt>
      <trkpt lat="43.28503" lon="-1.43914">
        <ele>652.3</ele>
        <time>2022-09-04T08:23:32Z</time>
      </trkpt>
      <trkpt lat="43.28501" lon="-1.43912">
        <ele>652.4</ele>
        <time>2022-09-04T08:23:33Z</time>
      </trkpt>
      <trkpt lat="43.28501" lon="-1.4391">
        <ele>652.5</ele>
        <time>2022-09-04T08:23:34Z</time>
      </trkpt>
      <trkpt lat="43.28499" lon="-1.43908">
        <ele>652.6</ele>
        <time>2022-09-04T08:23:35Z</time>
      </trkpt>
      <trkpt lat="43.28498" lon="-1.43907">
        <ele>652.7</ele>
        <time>2022-09-04T08:23:36Z</time>
      </trkpt>
      <trkpt lat="43.28497" lon="-1.43906">
        <ele>652.8</ele>
        <time>2022-09-04T08:23:37Z</time>
      </trkpt>
      <trkpt lat="43.28495" lon="-1.43906">
        <ele>652.9</ele>
        <time>2022-09-04T08:23:38Z</time>
      </trkpt>
      <trkpt lat="43.28491" lon="-1.43905">
        <ele>653.3</ele>
        <time>2022-09-04T08:23:39Z</time>
      </trkpt>
      <trkpt lat="43.2849" lon="-1.43905">
        <ele>653.4</ele>
        <time>2022-09-04T08:23:40Z</time>
      </trkpt>
      <trkpt lat="43.28486" lon="-1.43905">
        <ele>653.7</ele>
        <time>2022-09-04T08:23:41Z</time>
      </trkpt>
      <trkpt lat="43.28485" lon="-1.43904">
        <ele>653.8</ele>
        <time>2022-09-04T08:23:42Z</time>
      </trkpt>
      <trkpt lat="43.28482" lon="-1.43905">
        <ele>654.2</ele>
        <time>2022-09-04T08:23:43Z</time>
      </trkpt>
      <trkpt lat="43.28481" lon="-1.43905">
        <ele>654.3</ele>
        <time>2022-09-04T08:23:44Z</time>
      </trkpt>
      <trkpt lat="43.28477" lon="-1.43906">
        <ele>654.7</ele>
        <time>2022-09-04T08:23:45Z</time>
      </trkpt>
      <trkpt lat="43.28476" lon="-1.43906">
        <ele>654.8</ele>
        <time>2022-09-04T08:23:46Z</time>
      </trkpt>
      <trkpt lat="43.28472" lon="-1.43906">
        <ele>655.3</ele>
        <time>2022-09-04T08:23:47Z</time>
      </trkpt>
      <trkpt lat="43.28471" lon="-1.43906">
        <ele>655.4</ele>
        <time>2022-09-04T08:23:48Z</time>
      </trkpt>
      <trkpt lat="43.28468" lon="-1.43907">
        <ele>655.7</ele>
        <time>2022-09-04T08:23:49Z</time>
      </trkpt>
      <trkpt lat="43.28465" lon="-1.43908">
        <ele>656.1</ele>
        <time>2022-09-04T08:23:50Z</time>
      </trkpt>
      <trkpt lat="43.28463" lon="-1.43909">
        <ele>656.3</ele>
        <time>2022-09-04T08:23:51Z</time>
      </trkpt>
      <trkpt lat="43.2846" lon="-1.43911">
        <ele>656.7</ele>
        <time>2022-09-04T08:23:52Z</time>
      </trkpt>
      <trkpt lat="43.28459" lon="-1.43911">
        <ele>656.8</ele>
        <time>2022-09-04T08:23:53Z</time>
      </trkpt>
      <trkpt lat="43.28455" lon="-1.43912">
        <ele>657.2</ele>
        <time>2022-09-04T08:23:54Z</time>
      </trkpt>
      <trkpt lat="43.28453" lon="-1.43913">
        <ele>657.4</ele>
        <time>2022-09-04T08:23:55Z</time>
      </trkpt>
      <trkpt lat="43.2845" lon="-1.43914">
        <ele>657.6</ele>
        <time>2022-09-04T08:23:56Z</time>
      </trkpt>
      <trkpt lat="43.28447" lon="-1.43916">
        <ele>658</ele>
        <time>2022-09-04T08:23:57Z</time>
      </trkpt>
      <trkpt lat="43.28446" lon="-1.43917">
        <ele>658.1</ele>
        <time>2022-09-04T08:23:58Z</time>
      </trkpt>
      <trkpt lat="43.28444" lon="-1.43921">
        <ele>658.3</ele>
        <time>2022-09-04T08:23:59Z</time>
      </trkpt>
      <trkpt lat="43.28443" lon="-1.43922">
        <ele>658.4</ele>
        <time>2022-09-04T08:24:00Z</time>
      </trkpt>
      <trkpt lat="43.28443" lon="-1.43925">
        <ele>658.5</ele>
        <time>2022-09-04T08:24:01Z</time>
      </trkpt>
      <trkpt lat="43.28442" lon="-1.43926">
        <ele>658.6</ele>
        <time>2022-09-04T08:24:02Z</time>
      </trkpt>
      <trkpt lat="43.28441" lon="-1.43927">
        <ele>658.7</ele>
        <time>2022-09-04T08:24:03Z</time>
      </trkpt>
      <trkpt lat="43.28441" lon="-1.43927">
        <ele>658.7</ele>
        <time>2022-09-04T08:24:04Z</time>
      </trkpt>
      <trkpt lat="43.2844" lon="-1.43927">
        <ele>658.7</ele>
        <time>2022-09-04T08:24:05Z</time>
      </trkpt>
      <trkpt lat="43.2844" lon="-1.43927">
        <ele>658.8</ele>
        <time>2022-09-04T08:24:06Z</time>
      </trkpt>
      <trkpt lat="43.28439" lon="-1.43928">
        <ele>658.8</ele>
        <time>2022-09-04T08:24:07Z</time>
      </trkpt>
      <trkpt lat="43.28439" lon="-1.43928">
        <ele>658.9</ele>
        <time>2022-09-04T08:24:08Z</time>
      </trkpt>
      <trkpt lat="43.28438" lon="-1.43928">
        <ele>658.9</ele>
        <time>2022-09-04T08:24:09Z</time>
      </trkpt>
      <trkpt lat="43.28438" lon="-1.43928">
        <ele>658.9</ele>
        <time>2022-09-04T08:24:10Z</time>
      </trkpt>
      <trkpt lat="43.28435" lon="-1.43929">
        <ele>659.1</ele>
        <time>2022-09-04T08:24:11Z</time>
      </trkpt>
      <trkpt lat="43.28432" lon="-1.4393">
        <ele>659.4</ele>
        <time>2022-09-04T08:24:12Z</time>
      </trkpt>
      <trkpt lat="43.28428" lon="-1.43932">
        <ele>659.7</ele>
        <time>2022-09-04T08:24:13Z</time>
      </trkpt>
      <trkpt lat="43.28427" lon="-1.43932">
        <ele>659.8</ele>
        <time>2022-09-04T08:24:14Z</time>
      </trkpt>
      <trkpt lat="43.28423" lon="-1.43934">
        <ele>660.1</ele>
        <time>2022-09-04T08:24:15Z</time>
      </trkpt>
      <trkpt lat="43.28422" lon="-1.43935">
        <ele>660.3</ele>
        <time>2022-09-04T08:24:16Z</time>
      </trkpt>
      <trkpt lat="43.28419" lon="-1.43938">
        <ele>660.6</ele>
        <time>2022-09-04T08:24:17Z</time>
      </trkpt>
      <trkpt lat="43.28417" lon="-1.4394">
        <ele>660.9</ele>
        <time>2022-09-04T08:24:18Z</time>
      </trkpt>
      <trkpt lat="43.28414" lon="-1.43942">
        <ele>661.3</ele>
        <time>2022-09-04T08:24:19Z</time>
      </trkpt>
      <trkpt lat="43.28411" lon="-1.43944">
        <ele>661.6</ele>
        <time>2022-09-04T08:24:20Z</time>
      </trkpt>
      <trkpt lat="43.28408" lon="-1.43945">
        <ele>662</ele>
        <time>2022-09-04T08:24:21Z</time>
      </trkpt>
      <trkpt lat="43.28405" lon="-1.43946">
        <ele>662.3</ele>
        <time>2022-09-04T08:24:22Z</time>
      </trkpt>
      <trkpt lat="43.28402" lon="-1.43948">
        <ele>662.7</ele>
        <time>2022-09-04T08:24:23Z</time>
      </trkpt>
      <trkpt lat="43.28399" lon="-1.43949">
        <ele>663.1</ele>
        <time>2022-09-04T08:24:24Z</time>
      </trkpt>
      <trkpt lat="43.28395" lon="-1.4395">
        <ele>663.4</ele>
        <time>2022-09-04T08:24:25Z</time>
      </trkpt>
      <trkpt lat="43.28392" lon="-1.43951">
        <ele>663.7</ele>
        <time>2022-09-04T08:24:26Z</time>
      </trkpt>
      <trkpt lat="43.2839" lon="-1.43953">
        <ele>663.9</ele>
        <time>2022-09-04T08:24:27Z</time>
      </trkpt>
      <trkpt lat="43.28387" lon="-1.43956">
        <ele>664.2</ele>
        <time>2022-09-04T08:24:28Z</time>
      </trkpt>
      <trkpt lat="43.28386" lon="-1.43957">
        <ele>664.3</ele>
        <time>2022-09-04T08:24:29Z</time>
      </trkpt>
      <trkpt lat="43.28384" lon="-1.4396">
        <ele>664.5</ele>
        <time>2022-09-04T08:24:30Z</time>
      </trkpt>
      <trkpt lat="43.28383" lon="-1.43961">
        <ele>664.6</ele>
        <time>2022-09-04T08:24:31Z</time>
      </trkpt>
      <trkpt lat="43.28379" lon="-1.43963">
        <ele>664.9</ele>
        <time>2022-09-04T08:24:32Z</time>
      </trkpt>
      <trkpt lat="43.28378" lon="-1.43964">
        <ele>665</ele>
        <time>2022-09-04T08:24:33Z</time>
      </trkpt>
      <trkpt lat="43.28375" lon="-1.43966">
        <ele>665.3</ele>
        <time>2022-09-04T08:24:34Z</time>
      </trkpt>
      <trkpt lat="43.28372" lon="-1.43968">
        <ele>665.5</ele>
        <time>2022-09-04T08:24:35Z</time>
      </trkpt>
      <trkpt lat="43.28369" lon="-1.4397">
        <ele>665.8</ele>
        <time>2022-09-04T08:24:36Z</time>
      </trkpt>
      <trkpt lat="43.28366" lon="-1.43972">
        <ele>666</ele>
        <time>2022-09-04T08:24:37Z</time>
      </trkpt>
      <trkpt lat="43.28363" lon="-1.43974">
        <ele>666.2</ele>
        <time>2022-09-04T08:24:38Z</time>
      </trkpt>
      <trkpt lat="43.28361" lon="-1.43976">
        <ele>666.4</ele>
        <time>2022-09-04T08:24:39Z</time>
      </trkpt>
      <trkpt lat="43.28359" lon="-1.43979">
        <ele>666.6</ele>
        <time>2022-09-04T08:24:40Z</time>
      </trkpt>
      <trkpt lat="43.28356" lon="-1.43981">
        <ele>666.7</ele>
        <time>2022-09-04T08:24:41Z</time>
      </trkpt>
      <trkpt lat="43.28354" lon="-1.43983">
        <ele>666.7</ele>
        <time>2022-09-04T08:24:42Z</time>
      </trkpt>
      <trkpt lat="43.2835" lon="-1.43984">
        <ele>666.8</ele>
        <time>2022-09-04T08:24:43Z</time>
      </trkpt>
      <trkpt lat="43.28349" lon="-1.43984">
        <ele>666.8</ele>
        <time>2022-09-04T08:24:44Z</time>
      </trkpt>
      <trkpt lat="43.28346" lon="-1.43984">
        <ele>666.8</ele>
        <time>2022-09-04T08:24:45Z</time>
      </trkpt>
      <trkpt lat="43.28345" lon="-1.43985">
        <ele>666.8</ele>
        <time>2022-09-04T08:24:46Z</time>
      </trkpt>
      <trkpt lat="43.28342" lon="-1.43987">
        <ele>666.7</ele>
        <time>2022-09-04T08:24:47Z</time>
      </trkpt>
      <trkpt lat="43.2834" lon="-1.43988">
        <ele>666.7</ele>
        <time>2022-09-04T08:24:48Z</time>
      </trkpt>
      <trkpt lat="43.28338" lon="-1.43989">
        <ele>666.7</ele>
        <time>2022-09-04T08:24:49Z</time>
      </trkpt>
      <trkpt lat="43.28335" lon="-1.43991">
        <ele>666.7</ele>
        <time>2022-09-04T08:24:50Z</time>
      </trkpt>
      <trkpt lat="43.28333" lon="-1.43993">
        <ele>666.7</ele>
        <time>2022-09-04T08:24:51Z</time>
      </trkpt>
      <trkpt lat="43.2833" lon="-1.43995">
        <ele>666.7</ele>
        <time>2022-09-04T08:24:52Z</time>
      </trkpt>
      <trkpt lat="43.28327" lon="-1.43997">
        <ele>666.7</ele>
        <time>2022-09-04T08:24:53Z</time>
      </trkpt>
      <trkpt lat="43.28324" lon="-1.43999">
        <ele>666.8</ele>
        <time>2022-09-04T08:24:54Z</time>
      </trkpt>
      <trkpt lat="43.2832" lon="-1.44001">
        <ele>666.9</ele>
        <time>2022-09-04T08:24:55Z</time>
      </trkpt>
      <trkpt lat="43.28317" lon="-1.44002">
        <ele>667</ele>
        <time>2022-09-04T08:24:56Z</time>
      </trkpt>
      <trkpt lat="43.28313" lon="-1.44002">
        <ele>667.1</ele>
        <time>2022-09-04T08:24:57Z</time>
      </trkpt>
      <trkpt lat="43.2831" lon="-1.44003">
        <ele>667.2</ele>
        <time>2022-09-04T08:24:58Z</time>
      </trkpt>
      <trkpt lat="43.28307" lon="-1.44004">
        <ele>667.2</ele>
        <time>2022-09-04T08:24:59Z</time>
      </trkpt>
      <trkpt lat="43.28304" lon="-1.44005">
        <ele>667.3</ele>
        <time>2022-09-04T08:25:00Z</time>
      </trkpt>
      <trkpt lat="43.28301" lon="-1.44006">
        <ele>667.2</ele>
        <time>2022-09-04T08:25:01Z</time>
      </trkpt>
      <trkpt lat="43.283" lon="-1.44005">
        <ele>667.2</ele>
        <time>2022-09-04T08:25:02Z</time>
      </trkpt>
      <trkpt lat="43.28297" lon="-1.44004">
        <ele>667.2</ele>
        <time>2022-09-04T08:25:03Z</time>
      </trkpt>
      <trkpt lat="43.28296" lon="-1.44004">
        <ele>667.2</ele>
        <time>2022-09-04T08:25:04Z</time>
      </trkpt>
      <trkpt lat="43.28294" lon="-1.44006">
        <ele>667.1</ele>
        <time>2022-09-04T08:25:05Z</time>
      </trkpt>
      <trkpt lat="43.28293" lon="-1.44007">
        <ele>667.1</ele>
        <time>2022-09-04T08:25:06Z</time>
      </trkpt>
      <trkpt lat="43.28292" lon="-1.44009">
        <ele>667</ele>
        <time>2022-09-04T08:25:07Z</time>
      </trkpt>
      <trkpt lat="43.2829" lon="-1.4401">
        <ele>667</ele>
        <time>2022-09-04T08:25:08Z</time>
      </trkpt>
      <trkpt lat="43.28286" lon="-1.4401">
        <ele>666.9</ele>
        <time>2022-09-04T08:25:09Z</time>
      </trkpt>
      <trkpt lat="43.28282" lon="-1.44009">
        <ele>666.9</ele>
        <time>2022-09-04T08:25:10Z</time>
      </trkpt>
      <trkpt lat="43.28278" lon="-1.44008">
        <ele>666.8</ele>
        <time>2022-09-04T08:25:11Z</time>
      </trkpt>
      <trkpt lat="43.28275" lon="-1.44008">
        <ele>666.9</ele>
        <time>2022-09-04T08:25:12Z</time>
      </trkpt>
      <trkpt lat="43.28272" lon="-1.44007">
        <ele>666.9</ele>
        <time>2022-09-04T08:25:13Z</time>
      </trkpt>
      <trkpt lat="43.28268" lon="-1.44005">
        <ele>666.9</ele>
        <time>2022-09-04T08:25:14Z</time>
      </trkpt>
      <trkpt lat="43.28265" lon="-1.44003">
        <ele>667</ele>
        <time>2022-09-04T08:25:15Z</time>
      </trkpt>
      <trkpt lat="43.28262" lon="-1.44002">
        <ele>667.1</ele>
        <time>2022-09-04T08:25:16Z</time>
      </trkpt>
      <trkpt lat="43.28259" lon="-1.44001">
        <ele>667.1</ele>
        <time>2022-09-04T08:25:17Z</time>
      </trkpt>
      <trkpt lat="43.28256" lon="-1.44">
        <ele>667.2</ele>
        <time>2022-09-04T08:25:18Z</time>
      </trkpt>
      <trkpt lat="43.28253" lon="-1.43999">
        <ele>667.2</ele>
        <time>2022-09-04T08:25:19Z</time>
      </trkpt>
      <trkpt lat="43.2825" lon="-1.43998">
        <ele>667.2</ele>
        <time>2022-09-04T08:25:20Z</time>
      </trkpt>
      <trkpt lat="43.28247" lon="-1.43997">
        <ele>667.2</ele>
        <time>2022-09-04T08:25:21Z</time>
      </trkpt>
      <trkpt lat="43.28244" lon="-1.43996">
        <ele>667.2</ele>
        <time>2022-09-04T08:25:22Z</time>
      </trkpt>
      <trkpt lat="43.28241" lon="-1.43996">
        <ele>667.2</ele>
        <time>2022-09-04T08:25:23Z</time>
      </trkpt>
      <trkpt lat="43.28239" lon="-1.43996">
        <ele>667.2</ele>
        <time>2022-09-04T08:25:24Z</time>
      </trkpt>
      <trkpt lat="43.28236" lon="-1.43996">
        <ele>667.1</ele>
        <time>2022-09-04T08:25:25Z</time>
      </trkpt>
      <trkpt lat="43.28232" lon="-1.43996">
        <ele>667</ele>
        <time>2022-09-04T08:25:26Z</time>
      </trkpt>
      <trkpt lat="43.28229" lon="-1.43996">
        <ele>667</ele>
        <time>2022-09-04T08:25:27Z</time>
      </trkpt>
      <trkpt lat="43.28225" lon="-1.43996">
        <ele>666.9</ele>
        <time>2022-09-04T08:25:28Z</time>
      </trkpt>
      <trkpt lat="43.2822" lon="-1.43996">
        <ele>666.8</ele>
        <time>2022-09-04T08:25:29Z</time>
      </trkpt>
      <trkpt lat="43.28215" lon="-1.43996">
        <ele>666.7</ele>
        <time>2022-09-04T08:25:30Z</time>
      </trkpt>
      <trkpt lat="43.28211" lon="-1.43996">
        <ele>666.7</ele>
        <time>2022-09-04T08:25:31Z</time>
      </trkpt>
      <trkpt lat="43.28207" lon="-1.43996">
        <ele>666.6</ele>
        <time>2022-09-04T08:25:32Z</time>
      </trkpt>
      <trkpt lat="43.28203" lon="-1.43997">
        <ele>666.5</ele>
        <time>2022-09-04T08:25:33Z</time>
      </trkpt>
      <trkpt lat="43.28199" lon="-1.43998">
        <ele>666.4</ele>
        <time>2022-09-04T08:25:34Z</time>
      </trkpt>
      <trkpt lat="43.28195" lon="-1.43999">
        <ele>666.3</ele>
        <time>2022-09-04T08:25:35Z</time>
      </trkpt>
      <trkpt lat="43.28191" lon="-1.44001">
        <ele>666.1</ele>
        <time>2022-09-04T08:25:36Z</time>
      </trkpt>
      <trkpt lat="43.28188" lon="-1.44003">
        <ele>665.8</ele>
        <time>2022-09-04T08:25:37Z</time>
      </trkpt>
      <trkpt lat="43.28184" lon="-1.44005">
        <ele>665.6</ele>
        <time>2022-09-04T08:25:38Z</time>
      </trkpt>
      <trkpt lat="43.28179" lon="-1.44006">
        <ele>665.4</ele>
        <time>2022-09-04T08:25:39Z</time>
      </trkpt>
      <trkpt lat="43.28175" lon="-1.44008">
        <ele>665.2</ele>
        <time>2022-09-04T08:25:40Z</time>
      </trkpt>
      <trkpt lat="43.2817" lon="-1.4401">
        <ele>664.9</ele>
        <time>2022-09-04T08:25:41Z</time>
      </trkpt>
      <trkpt lat="43.28165" lon="-1.44012">
        <ele>664.7</ele>
        <time>2022-09-04T08:25:42Z</time>
      </trkpt>
      <trkpt lat="43.28161" lon="-1.44015">
        <ele>664.5</ele>
        <time>2022-09-04T08:25:43Z</time>
      </trkpt>
      <trkpt lat="43.28157" lon="-1.44017">
        <ele>664.3</ele>
        <time>2022-09-04T08:25:44Z</time>
      </trkpt>
      <trkpt lat="43.28152" lon="-1.4402">
        <ele>664.2</ele>
        <time>2022-09-04T08:25:45Z</time>
      </trkpt>
      <trkpt lat="43.28147" lon="-1.44023">
        <ele>664</ele>
        <time>2022-09-04T08:25:46Z</time>
      </trkpt>
      <trkpt lat="43.28143" lon="-1.44027">
        <ele>663.8</ele>
        <time>2022-09-04T08:25:47Z</time>
      </trkpt>
      <trkpt lat="43.28138" lon="-1.44031">
        <ele>663.7</ele>
        <time>2022-09-04T08:25:48Z</time>
      </trkpt>
      <trkpt lat="43.28133" lon="-1.44036">
        <ele>663.6</ele>
        <time>2022-09-04T08:25:49Z</time>
      </trkpt>
      <trkpt lat="43.28129" lon="-1.4404">
        <ele>663.5</ele>
        <time>2022-09-04T08:25:50Z</time>
      </trkpt>
      <trkpt lat="43.28124" lon="-1.44044">
        <ele>663.5</ele>
        <time>2022-09-04T08:25:51Z</time>
      </trkpt>
      <trkpt lat="43.2812" lon="-1.44049">
        <ele>663.5</ele>
        <time>2022-09-04T08:25:52Z</time>
      </trkpt>
      <trkpt lat="43.28115" lon="-1.44053">
        <ele>663.6</ele>
        <time>2022-09-04T08:25:53Z</time>
      </trkpt>
      <trkpt lat="43.2811" lon="-1.44057">
        <ele>663.6</ele>
        <time>2022-09-04T08:25:54Z</time>
      </trkpt>
      <trkpt lat="43.28105" lon="-1.44061">
        <ele>663.7</ele>
        <time>2022-09-04T08:25:55Z</time>
      </trkpt>
      <trkpt lat="43.28101" lon="-1.44066">
        <ele>663.8</ele>
        <time>2022-09-04T08:25:56Z</time>
      </trkpt>
      <trkpt lat="43.28097" lon="-1.44071">
        <ele>663.9</ele>
        <time>2022-09-04T08:25:57Z</time>
      </trkpt>
      <trkpt lat="43.28093" lon="-1.44076">
        <ele>664</ele>
        <time>2022-09-04T08:25:58Z</time>
      </trkpt>
      <trkpt lat="43.28089" lon="-1.44082">
        <ele>664.2</ele>
        <time>2022-09-04T08:25:59Z</time>
      </trkpt>
      <trkpt lat="43.28085" lon="-1.44088">
        <ele>664.5</ele>
        <time>2022-09-04T08:26:00Z</time>
      </trkpt>
      <trkpt lat="43.28081" lon="-1.44093">
        <ele>665</ele>
        <time>2022-09-04T08:26:01Z</time>
      </trkpt>
      <trkpt lat="43.28076" lon="-1.44098">
        <ele>665.6</ele>
        <time>2022-09-04T08:26:02Z</time>
      </trkpt>
      <trkpt lat="43.2807" lon="-1.441">
        <ele>666.4</ele>
        <time>2022-09-04T08:26:03Z</time>
      </trkpt>
      <trkpt lat="43.28065" lon="-1.44102">
        <ele>667.2</ele>
        <time>2022-09-04T08:26:04Z</time>
      </trkpt>
      <trkpt lat="43.2806" lon="-1.44103">
        <ele>668</ele>
        <time>2022-09-04T08:26:05Z</time>
      </trkpt>
      <trkpt lat="43.28056" lon="-1.44105">
        <ele>668.7</ele>
        <time>2022-09-04T08:26:06Z</time>
      </trkpt>
      <trkpt lat="43.28052" lon="-1.44106">
        <ele>669.3</ele>
        <time>2022-09-04T08:26:07Z</time>
      </trkpt>
      <trkpt lat="43.28047" lon="-1.44108">
        <ele>669.9</ele>
        <time>2022-09-04T08:26:08Z</time>
      </trkpt>
      <trkpt lat="43.28043" lon="-1.44109">
        <ele>670.3</ele>
        <time>2022-09-04T08:26:09Z</time>
      </trkpt>
      <trkpt lat="43.28039" lon="-1.44111">
        <ele>670.7</ele>
        <time>2022-09-04T08:26:10Z</time>
      </trkpt>
      <trkpt lat="43.28035" lon="-1.44113">
        <ele>671</ele>
        <time>2022-09-04T08:26:11Z</time>
      </trkpt>
      <trkpt lat="43.28033" lon="-1.44115">
        <ele>671.2</ele>
        <time>2022-09-04T08:26:12Z</time>
      </trkpt>
      <trkpt lat="43.28029" lon="-1.44117">
        <ele>671.5</ele>
        <time>2022-09-04T08:26:13Z</time>
      </trkpt>
      <trkpt lat="43.28026" lon="-1.4412">
        <ele>671.7</ele>
        <time>2022-09-04T08:26:14Z</time>
      </trkpt>
      <trkpt lat="43.28023" lon="-1.44122">
        <ele>672</ele>
        <time>2022-09-04T08:26:15Z</time>
      </trkpt>
      <trkpt lat="43.2802" lon="-1.44125">
        <ele>672.2</ele>
        <time>2022-09-04T08:26:16Z</time>
      </trkpt>
      <trkpt lat="43.28017" lon="-1.44127">
        <ele>672.5</ele>
        <time>2022-09-04T08:26:17Z</time>
      </trkpt>
      <trkpt lat="43.28014" lon="-1.4413">
        <ele>672.7</ele>
        <time>2022-09-04T08:26:18Z</time>
      </trkpt>
      <trkpt lat="43.28011" lon="-1.44132">
        <ele>673</ele>
        <time>2022-09-04T08:26:19Z</time>
      </trkpt>
      <trkpt lat="43.28008" lon="-1.44134">
        <ele>673.2</ele>
        <time>2022-09-04T08:26:20Z</time>
      </trkpt>
      <trkpt lat="43.28005" lon="-1.44137">
        <ele>673.4</ele>
        <time>2022-09-04T08:26:21Z</time>
      </trkpt>
      <trkpt lat="43.28002" lon="-1.44139">
        <ele>673.6</ele>
        <time>2022-09-04T08:26:22Z</time>
      </trkpt>
      <trkpt lat="43.28" lon="-1.44142">
        <ele>673.9</ele>
        <time>2022-09-04T08:26:23Z</time>
      </trkpt>
      <trkpt lat="43.27996" lon="-1.44144">
        <ele>674.1</ele>
        <time>2022-09-04T08:26:24Z</time>
      </trkpt>
      <trkpt lat="43.27993" lon="-1.44145">
        <ele>674.4</ele>
        <time>2022-09-04T08:26:25Z</time>
      </trkpt>
      <trkpt lat="43.2799" lon="-1.44148">
        <ele>674.6</ele>
        <time>2022-09-04T08:26:26Z</time>
      </trkpt>
      <trkpt lat="43.27987" lon="-1.4415">
        <ele>674.9</ele>
        <time>2022-09-04T08:26:27Z</time>
      </trkpt>
      <trkpt lat="43.27984" lon="-1.44153">
        <ele>675.2</ele>
        <time>2022-09-04T08:26:28Z</time>
      </trkpt>
      <trkpt lat="43.27981" lon="-1.44155">
        <ele>675.4</ele>
        <time>2022-09-04T08:26:29Z</time>
      </trkpt>
      <trkpt lat="43.27978" lon="-1.44157">
        <ele>675.8</ele>
        <time>2022-09-04T08:26:30Z</time>
      </trkpt>
      <trkpt lat="43.27975" lon="-1.44159">
        <ele>676.1</ele>
        <time>2022-09-04T08:26:31Z</time>
      </trkpt>
      <trkpt lat="43.27972" lon="-1.44162">
        <ele>676.4</ele>
        <time>2022-09-04T08:26:32Z</time>
      </trkpt>
      <trkpt lat="43.27969" lon="-1.44165">
        <ele>676.8</ele>
        <time>2022-09-04T08:26:33Z</time>
      </trkpt>
      <trkpt lat="43.27967" lon="-1.44167">
        <ele>677.1</ele>
        <time>2022-09-04T08:26:34Z</time>
      </trkpt>
      <trkpt lat="43.27964" lon="-1.4417">
        <ele>677.5</ele>
        <time>2022-09-04T08:26:35Z</time>
      </trkpt>
      <trkpt lat="43.27962" lon="-1.44173">
        <ele>677.9</ele>
        <time>2022-09-04T08:26:36Z</time>
      </trkpt>
      <trkpt lat="43.27959" lon="-1.44175">
        <ele>678.2</ele>
        <time>2022-09-04T08:26:37Z</time>
      </trkpt>
      <trkpt lat="43.27956" lon="-1.44178">
        <ele>678.6</ele>
        <time>2022-09-04T08:26:38Z</time>
      </trkpt>
      <trkpt lat="43.27954" lon="-1.44181">
        <ele>679</ele>
        <time>2022-09-04T08:26:39Z</time>
      </trkpt>
      <trkpt lat="43.27951" lon="-1.44183">
        <ele>679.4</ele>
        <time>2022-09-04T08:26:40Z</time>
      </trkpt>
      <trkpt lat="43.27949" lon="-1.44185">
        <ele>679.8</ele>
        <time>2022-09-04T08:26:41Z</time>
      </trkpt>
      <trkpt lat="43.27946" lon="-1.44188">
        <ele>680.3</ele>
        <time>2022-09-04T08:26:42Z</time>
      </trkpt>
      <trkpt lat="43.27945" lon="-1.44189">
        <ele>680.5</ele>
        <time>2022-09-04T08:26:43Z</time>
      </trkpt>
      <trkpt lat="43.27942" lon="-1.44193">
        <ele>681.1</ele>
        <time>2022-09-04T08:26:44Z</time>
      </trkpt>
      <trkpt lat="43.27941" lon="-1.44194">
        <ele>681.3</ele>
        <time>2022-09-04T08:26:45Z</time>
      </trkpt>
      <trkpt lat="43.27938" lon="-1.44197">
        <ele>681.8</ele>
        <time>2022-09-04T08:26:46Z</time>
      </trkpt>
      <trkpt lat="43.27936" lon="-1.44199">
        <ele>682.2</ele>
        <time>2022-09-04T08:26:47Z</time>
      </trkpt>
      <trkpt lat="43.27933" lon="-1.44203">
        <ele>682.9</ele>
        <time>2022-09-04T08:26:48Z</time>
      </trkpt>
      <trkpt lat="43.27932" lon="-1.44204">
        <ele>683.1</ele>
        <time>2022-09-04T08:26:49Z</time>
      </trkpt>
      <trkpt lat="43.2793" lon="-1.44207">
        <ele>683.6</ele>
        <time>2022-09-04T08:26:50Z</time>
      </trkpt>
      <trkpt lat="43.27928" lon="-1.44209">
        <ele>684.1</ele>
        <time>2022-09-04T08:26:51Z</time>
      </trkpt>
      <trkpt lat="43.27925" lon="-1.44213">
        <ele>684.7</ele>
        <time>2022-09-04T08:26:52Z</time>
      </trkpt>
      <trkpt lat="43.27924" lon="-1.44213">
        <ele>684.9</ele>
        <time>2022-09-04T08:26:53Z</time>
      </trkpt>
      <trkpt lat="43.27921" lon="-1.44216">
        <ele>685.5</ele>
        <time>2022-09-04T08:26:54Z</time>
      </trkpt>
      <trkpt lat="43.2792" lon="-1.44217">
        <ele>685.7</ele>
        <time>2022-09-04T08:26:55Z</time>
      </trkpt>
      <trkpt lat="43.27917" lon="-1.44221">
        <ele>686.4</ele>
        <time>2022-09-04T08:26:56Z</time>
      </trkpt>
      <trkpt lat="43.27916" lon="-1.44223">
        <ele>686.6</ele>
        <time>2022-09-04T08:26:57Z</time>
      </trkpt>
      <trkpt lat="43.27914" lon="-1.44226">
        <ele>687.3</ele>
        <time>2022-09-04T08:26:58Z</time>
      </trkpt>
      <trkpt lat="43.27913" lon="-1.44227">
        <ele>687.4</ele>
        <time>2022-09-04T08:26:59Z</time>
      </trkpt>
      <trkpt lat="43.2791" lon="-1.44229">
        <ele>688</ele>
        <time>2022-09-04T08:27:00Z</time>
      </trkpt>
      <trkpt lat="43.27909" lon="-1.44229">
        <ele>688.2</ele>
        <time>2022-09-04T08:27:01Z</time>
      </trkpt>
      <trkpt lat="43.27906" lon="-1.44232">
        <ele>688.7</ele>
        <time>2022-09-04T08:27:02Z</time>
      </trkpt>
      <trkpt lat="43.27906" lon="-1.44232">
        <ele>688.9</ele>
        <time>2022-09-04T08:27:03Z</time>
      </trkpt>
      <trkpt lat="43.27903" lon="-1.44234">
        <ele>689.4</ele>
        <time>2022-09-04T08:27:04Z</time>
      </trkpt>
      <trkpt lat="43.27902" lon="-1.44235">
        <ele>689.5</ele>
        <time>2022-09-04T08:27:05Z</time>
      </trkpt>
      <trkpt lat="43.27899" lon="-1.44238">
        <ele>690.1</ele>
        <time>2022-09-04T08:27:06Z</time>
      </trkpt>
      <trkpt lat="43.27898" lon="-1.44239">
        <ele>690.3</ele>
        <time>2022-09-04T08:27:07Z</time>
      </trkpt>
      <trkpt lat="43.27895" lon="-1.44241">
        <ele>690.7</ele>
        <time>2022-09-04T08:27:08Z</time>
      </trkpt>
      <trkpt lat="43.27893" lon="-1.44242">
        <ele>691.1</ele>
        <time>2022-09-04T08:27:09Z</time>
      </trkpt>
      <trkpt lat="43.2789" lon="-1.44245">
        <ele>691.4</ele>
        <time>2022-09-04T08:27:10Z</time>
      </trkpt>
      <trkpt lat="43.2789" lon="-1.44246">
        <ele>691.6</ele>
        <time>2022-09-04T08:27:11Z</time>
      </trkpt>
      <trkpt lat="43.27887" lon="-1.44249">
        <ele>692</ele>
        <time>2022-09-04T08:27:12Z</time>
      </trkpt>
      <trkpt lat="43.27886" lon="-1.44249">
        <ele>692.1</ele>
        <time>2022-09-04T08:27:13Z</time>
      </trkpt>
      <trkpt lat="43.27883" lon="-1.44251">
        <ele>692.4</ele>
        <time>2022-09-04T08:27:14Z</time>
      </trkpt>
      <trkpt lat="43.27882" lon="-1.44251">
        <ele>692.5</ele>
        <time>2022-09-04T08:27:15Z</time>
      </trkpt>
      <trkpt lat="43.2788" lon="-1.44252">
        <ele>692.7</ele>
        <time>2022-09-04T08:27:16Z</time>
      </trkpt>
      <trkpt lat="43.27879" lon="-1.44252">
        <ele>692.8</ele>
        <time>2022-09-04T08:27:17Z</time>
      </trkpt>
      <trkpt lat="43.27878" lon="-1.44253">
        <ele>692.9</ele>
        <time>2022-09-04T08:27:18Z</time>
      </trkpt>
      <trkpt lat="43.27878" lon="-1.44254">
        <ele>692.9</ele>
        <time>2022-09-04T08:27:19Z</time>
      </trkpt>
      <trkpt lat="43.27879" lon="-1.44254">
        <ele>692.9</ele>
        <time>2022-09-04T08:27:20Z</time>
      </trkpt>
      <trkpt lat="43.27879" lon="-1.44253">
        <ele>693</ele>
        <time>2022-09-04T08:27:21Z</time>
      </trkpt>
      <trkpt lat="43.27878" lon="-1.44253">
        <ele>693</ele>
        <time>2022-09-04T08:27:22Z</time>
      </trkpt>
      <trkpt lat="43.27879" lon="-1.44253">
        <ele>693</ele>
        <time>2022-09-04T08:27:23Z</time>
      </trkpt>
      <trkpt lat="43.2788" lon="-1.44253">
        <ele>693.1</ele>
        <time>2022-09-04T08:27:24Z</time>
      </trkpt>
      <trkpt lat="43.27881" lon="-1.44253">
        <ele>693.2</ele>
        <time>2022-09-04T08:27:25Z</time>
      </trkpt>
      <trkpt lat="43.27881" lon="-1.44253">
        <ele>693.2</ele>
        <time>2022-09-04T08:27:26Z</time>
      </trkpt>
      <trkpt lat="43.27881" lon="-1.44253">
        <ele>693.2</ele>
        <time>2022-09-04T08:27:27Z</time>
      </trkpt>
      <trkpt lat="43.27881" lon="-1.44253">
        <ele>693.2</ele>
        <time>2022-09-04T08:27:28Z</time>
      </trkpt>
      <trkpt lat="43.27881" lon="-1.44253">
        <ele>693.2</ele>
        <time>2022-09-04T08:27:29Z</time>
      </trkpt>
      <trkpt lat="43.27881" lon="-1.44253">
        <ele>693.2</ele>
        <time>2022-09-04T08:27:30Z</time>
      </trkpt>
      <trkpt lat="43.27881" lon="-1.44253">
        <ele>693.2</ele>
        <time>2022-09-04T08:27:31Z</time>
      </trkpt>
      <trkpt lat="43.27881" lon="-1.44253">
        <ele>693.2</ele>
        <time>2022-09-04T08:27:32Z</time>
      </trkpt>
      <trkpt lat="43.27881" lon="-1.44253">
        <ele>693.2</ele>
        <time>2022-09-04T08:27:33Z</time>
      </trkpt>
      <trkpt lat="43.27881" lon="-1.44255">
        <ele>693.3</ele>
        <time>2022-09-04T08:27:34Z</time>
      </trkpt>
      <trkpt lat="43.27881" lon="-1.44255">
        <ele>693.3</ele>
        <time>2022-09-04T08:27:35Z</time>
      </trkpt>
      <trkpt lat="43.27881" lon="-1.44255">
        <ele>693.3</ele>
        <time>2022-09-04T08:27:36Z</time>
      </trkpt>
      <trkpt lat="43.27881" lon="-1.44255">
        <ele>693.3</ele>
        <time>2022-09-04T08:28:20Z</time>
      </trkpt>
      <trkpt lat="43.27881" lon="-1.44254">
        <ele>693.3</ele>
        <time>2022-09-04T08:28:21Z</time>
      </trkpt>
      <trkpt lat="43.27882" lon="-1.44254">
        <ele>693.3</ele>
        <time>2022-09-04T08:28:22Z</time>
      </trkpt>
      <trkpt lat="43.27882" lon="-1.44254">
        <ele>693.3</ele>
        <time>2022-09-04T08:28:23Z</time>
      </trkpt>
      <trkpt lat="43.27882" lon="-1.44254">
        <ele>693.4</ele>
        <time>2022-09-04T08:28:24Z</time>
      </trkpt>
      <trkpt lat="43.27882" lon="-1.44254">
        <ele>693.4</ele>
        <time>2022-09-04T08:28:25Z</time>
      </trkpt>
      <trkpt lat="43.27882" lon="-1.44254">
        <ele>693.4</ele>
        <time>2022-09-04T08:28:26Z</time>
      </trkpt>
      <trkpt lat="43.27882" lon="-1.44254">
        <ele>693.4</ele>
        <time>2022-09-04T08:28:27Z</time>
      </trkpt>
      <trkpt lat="43.27883" lon="-1.44253">
        <ele>693.4</ele>
        <time>2022-09-04T08:28:28Z</time>
      </trkpt>
      <trkpt lat="43.27883" lon="-1.44253">
        <ele>693.4</ele>
        <time>2022-09-04T08:28:29Z</time>
      </trkpt>
      <trkpt lat="43.27883" lon="-1.44253">
        <ele>693.4</ele>
        <time>2022-09-04T08:28:30Z</time>
      </trkpt>
      <trkpt lat="43.27883" lon="-1.44253">
        <ele>693.4</ele>
        <time>2022-09-04T08:28:31Z</time>
      </trkpt>
      <trkpt lat="43.27883" lon="-1.44253">
        <ele>693.4</ele>
        <time>2022-09-04T08:28:40Z</time>
      </trkpt>
      <trkpt lat="43.27883" lon="-1.44253">
        <ele>693.5</ele>
        <time>2022-09-04T08:28:43Z</time>
      </trkpt>
      <trkpt lat="43.27884" lon="-1.44252">
        <ele>693.5</ele>
        <time>2022-09-04T08:28:44Z</time>
      </trkpt>
      <trkpt lat="43.27884" lon="-1.44252">
        <ele>693.5</ele>
        <time>2022-09-04T08:28:45Z</time>
      </trkpt>
      <trkpt lat="43.27884" lon="-1.44252">
        <ele>693.5</ele>
        <time>2022-09-04T08:28:47Z</time>
      </trkpt>
      <trkpt lat="43.27884" lon="-1.44252">
        <ele>693.5</ele>
        <time>2022-09-04T08:28:49Z</time>
      </trkpt>
      <trkpt lat="43.27884" lon="-1.44252">
        <ele>693.5</ele>
        <time>2022-09-04T08:28:50Z</time>
      </trkpt>
      <trkpt lat="43.27884" lon="-1.44252">
        <ele>693.5</ele>
        <time>2022-09-04T08:28:51Z</time>
      </trkpt>
      <trkpt lat="43.27884" lon="-1.44252">
        <ele>693.5</ele>
        <time>2022-09-04T08:28:53Z</time>
      </trkpt>
      <trkpt lat="43.27885" lon="-1.44251">
        <ele>693.5</ele>
        <time>2022-09-04T08:28:53Z</time>
      </trkpt>
      <trkpt lat="43.27885" lon="-1.44252">
        <ele>693.5</ele>
        <time>2022-09-04T08:28:55Z</time>
      </trkpt>
      <trkpt lat="43.27885" lon="-1.44252">
        <ele>693.5</ele>
        <time>2022-09-04T08:28:56Z</time>
      </trkpt>
      <trkpt lat="43.27887" lon="-1.44251">
        <ele>693.6</ele>
        <time>2022-09-04T08:28:57Z</time>
      </trkpt>
      <trkpt lat="43.27889" lon="-1.4425">
        <ele>693.7</ele>
        <time>2022-09-04T08:29:03Z</time>
      </trkpt>
      <trkpt lat="43.27889" lon="-1.4425">
        <ele>693.7</ele>
        <time>2022-09-04T08:29:04Z</time>
      </trkpt>
      <trkpt lat="43.27889" lon="-1.4425">
        <ele>693.7</ele>
        <time>2022-09-04T08:29:05Z</time>
      </trkpt>
      <trkpt lat="43.27889" lon="-1.4425">
        <ele>693.7</ele>
        <time>2022-09-04T08:29:06Z</time>
      </trkpt>
      <trkpt lat="43.27889" lon="-1.4425">
        <ele>693.7</ele>
        <time>2022-09-04T08:29:07Z</time>
      </trkpt>
      <trkpt lat="43.27889" lon="-1.4425">
        <ele>693.7</ele>
        <time>2022-09-04T08:29:08Z</time>
      </trkpt>
      <trkpt lat="43.27889" lon="-1.4425">
        <ele>693.7</ele>
        <time>2022-09-04T08:29:09Z</time>
      </trkpt>
      <trkpt lat="43.27889" lon="-1.4425">
        <ele>693.7</ele>
        <time>2022-09-04T08:29:10Z</time>
      </trkpt>
      <trkpt lat="43.27889" lon="-1.4425">
        <ele>693.7</ele>
        <time>2022-09-04T08:29:11Z</time>
      </trkpt>
      <trkpt lat="43.27889" lon="-1.4425">
        <ele>693.7</ele>
        <time>2022-09-04T08:29:12Z</time>
      </trkpt>
      <trkpt lat="43.27889" lon="-1.4425">
        <ele>693.7</ele>
        <time>2022-09-04T08:29:14Z</time>
      </trkpt>
      <trkpt lat="43.27885" lon="-1.4425">
        <ele>693.7</ele>
        <time>2022-09-04T08:29:45Z</time>
      </trkpt>
      <trkpt lat="43.27884" lon="-1.44251">
        <ele>693.7</ele>
        <time>2022-09-04T08:29:46Z</time>
      </trkpt>
      <trkpt lat="43.27883" lon="-1.44251">
        <ele>693.7</ele>
        <time>2022-09-04T08:29:47Z</time>
      </trkpt>
      <trkpt lat="43.27883" lon="-1.44251">
        <ele>693.7</ele>
        <time>2022-09-04T08:29:48Z</time>
      </trkpt>
      <trkpt lat="43.27883" lon="-1.44252">
        <ele>693.7</ele>
        <time>2022-09-04T08:29:49Z</time>
      </trkpt>
      <trkpt lat="43.27882" lon="-1.44252">
        <ele>693.7</ele>
        <time>2022-09-04T08:29:50Z</time>
      </trkpt>
      <trkpt lat="43.27883" lon="-1.44253">
        <ele>693.7</ele>
        <time>2022-09-04T08:29:51Z</time>
      </trkpt>
      <trkpt lat="43.27883" lon="-1.44252">
        <ele>693.7</ele>
        <time>2022-09-04T08:29:52Z</time>
      </trkpt>
      <trkpt lat="43.27883" lon="-1.44252">
        <ele>693.7</ele>
        <time>2022-09-04T08:29:53Z</time>
      </trkpt>
      <trkpt lat="43.27884" lon="-1.44252">
        <ele>693.7</ele>
        <time>2022-09-04T08:29:54Z</time>
      </trkpt>
      <trkpt lat="43.27884" lon="-1.44251">
        <ele>693.7</ele>
        <time>2022-09-04T08:29:55Z</time>
      </trkpt>
      <trkpt lat="43.27885" lon="-1.44251">
        <ele>693.7</ele>
        <time>2022-09-04T08:29:56Z</time>
      </trkpt>
      <trkpt lat="43.27885" lon="-1.44251">
        <ele>693.6</ele>
        <time>2022-09-04T08:29:57Z</time>
      </trkpt>
      <trkpt lat="43.27886" lon="-1.44251">
        <ele>693.6</ele>
        <time>2022-09-04T08:29:58Z</time>
      </trkpt>
      <trkpt lat="43.27886" lon="-1.4425">
        <ele>693.6</ele>
        <time>2022-09-04T08:29:59Z</time>
      </trkpt>
      <trkpt lat="43.27887" lon="-1.4425">
        <ele>693.6</ele>
        <time>2022-09-04T08:30:00Z</time>
      </trkpt>
      <trkpt lat="43.27887" lon="-1.4425">
        <ele>693.6</ele>
        <time>2022-09-04T08:30:01Z</time>
      </trkpt>
      <trkpt lat="43.27888" lon="-1.44249">
        <ele>693.6</ele>
        <time>2022-09-04T08:30:15Z</time>
      </trkpt>
      <trkpt lat="43.27888" lon="-1.44249">
        <ele>693.6</ele>
        <time>2022-09-04T08:30:16Z</time>
      </trkpt>
      <trkpt lat="43.27889" lon="-1.44249">
        <ele>693.5</ele>
        <time>2022-09-04T08:30:17Z</time>
      </trkpt>
      <trkpt lat="43.27889" lon="-1.44249">
        <ele>693.5</ele>
        <time>2022-09-04T08:30:18Z</time>
      </trkpt>
      <trkpt lat="43.2789" lon="-1.44248">
        <ele>693.4</ele>
        <time>2022-09-04T08:30:19Z</time>
      </trkpt>
      <trkpt lat="43.27892" lon="-1.44248">
        <ele>693.4</ele>
        <time>2022-09-04T08:30:20Z</time>
      </trkpt>
      <trkpt lat="43.27893" lon="-1.44248">
        <ele>693.3</ele>
        <time>2022-09-04T08:30:21Z</time>
      </trkpt>
      <trkpt lat="43.27894" lon="-1.44248">
        <ele>693.3</ele>
        <time>2022-09-04T08:30:22Z</time>
      </trkpt>
      <trkpt lat="43.27894" lon="-1.44247">
        <ele>693.2</ele>
        <time>2022-09-04T08:30:23Z</time>
      </trkpt>
      <trkpt lat="43.27894" lon="-1.44247">
        <ele>693.2</ele>
        <time>2022-09-04T08:30:24Z</time>
      </trkpt>
      <trkpt lat="43.27894" lon="-1.44247">
        <ele>693.2</ele>
        <time>2022-09-04T08:30:26Z</time>
      </trkpt>
      <trkpt lat="43.27895" lon="-1.44247">
        <ele>693.2</ele>
        <time>2022-09-04T08:30:27Z</time>
      </trkpt>
      <trkpt lat="43.27895" lon="-1.44246">
        <ele>693.1</ele>
        <time>2022-09-04T08:30:28Z</time>
      </trkpt>
      <trkpt lat="43.27896" lon="-1.44246">
        <ele>693.1</ele>
        <time>2022-09-04T08:30:29Z</time>
      </trkpt>
      <trkpt lat="43.27896" lon="-1.44246">
        <ele>693</ele>
        <time>2022-09-04T08:30:30Z</time>
      </trkpt>
      <trkpt lat="43.27897" lon="-1.44245">
        <ele>693</ele>
        <time>2022-09-04T08:30:31Z</time>
      </trkpt>
      <trkpt lat="43.27897" lon="-1.44245">
        <ele>693</ele>
        <time>2022-09-04T08:30:32Z</time>
      </trkpt>
      <trkpt lat="43.27897" lon="-1.44245">
        <ele>693</ele>
        <time>2022-09-04T08:30:33Z</time>
      </trkpt>
      <trkpt lat="43.27897" lon="-1.44245">
        <ele>693</ele>
        <time>2022-09-04T08:30:34Z</time>
      </trkpt>
      <trkpt lat="43.27897" lon="-1.44245">
        <ele>693</ele>
        <time>2022-09-04T08:30:35Z</time>
      </trkpt>
      <trkpt lat="43.27897" lon="-1.44245">
        <ele>693</ele>
        <time>2022-09-04T08:30:36Z</time>
      </trkpt>
      <trkpt lat="43.27897" lon="-1.44245">
        <ele>693</ele>
        <time>2022-09-04T08:30:37Z</time>
      </trkpt>
      <trkpt lat="43.27897" lon="-1.44245">
        <ele>693</ele>
        <time>2022-09-04T08:30:38Z</time>
      </trkpt>
      <trkpt lat="43.27897" lon="-1.44245">
        <ele>693</ele>
        <time>2022-09-04T08:30:39Z</time>
      </trkpt>
      <trkpt lat="43.27897" lon="-1.44245">
        <ele>693</ele>
        <time>2022-09-04T08:30:40Z</time>
      </trkpt>
      <trkpt lat="43.27897" lon="-1.44245">
        <ele>693</ele>
        <time>2022-09-04T08:30:41Z</time>
      </trkpt>
      <trkpt lat="43.27897" lon="-1.44245">
        <ele>693</ele>
        <time>2022-09-04T08:30:42Z</time>
      </trkpt>
      <trkpt lat="43.27897" lon="-1.44245">
        <ele>693</ele>
        <time>2022-09-04T08:30:43Z</time>
      </trkpt>
      <trkpt lat="43.27891" lon="-1.44245">
        <ele>692.5</ele>
        <time>2022-09-04T08:32:08Z</time>
      </trkpt>
      <trkpt lat="43.2789" lon="-1.44245">
        <ele>692.4</ele>
        <time>2022-09-04T08:32:09Z</time>
      </trkpt>
      <trkpt lat="43.2789" lon="-1.44245">
        <ele>692.3</ele>
        <time>2022-09-04T08:32:10Z</time>
      </trkpt>
      <trkpt lat="43.27889" lon="-1.44246">
        <ele>692.3</ele>
        <time>2022-09-04T08:32:11Z</time>
      </trkpt>
      <trkpt lat="43.27889" lon="-1.44246">
        <ele>692.2</ele>
        <time>2022-09-04T08:32:12Z</time>
      </trkpt>
      <trkpt lat="43.27888" lon="-1.44247">
        <ele>692.1</ele>
        <time>2022-09-04T08:32:13Z</time>
      </trkpt>
      <trkpt lat="43.27887" lon="-1.44248">
        <ele>692</ele>
        <time>2022-09-04T08:32:14Z</time>
      </trkpt>
      <trkpt lat="43.27887" lon="-1.44249">
        <ele>691.9</ele>
        <time>2022-09-04T08:32:15Z</time>
      </trkpt>
      <trkpt lat="43.27886" lon="-1.44249">
        <ele>691.8</ele>
        <time>2022-09-04T08:32:16Z</time>
      </trkpt>
      <trkpt lat="43.27885" lon="-1.4425">
        <ele>691.7</ele>
        <time>2022-09-04T08:32:17Z</time>
      </trkpt>
      <trkpt lat="43.27885" lon="-1.4425">
        <ele>691.7</ele>
        <time>2022-09-04T08:32:18Z</time>
      </trkpt>
      <trkpt lat="43.27885" lon="-1.4425">
        <ele>691.7</ele>
        <time>2022-09-04T08:32:19Z</time>
      </trkpt>
      <trkpt lat="43.27885" lon="-1.4425">
        <ele>691.7</ele>
        <time>2022-09-04T08:32:20Z</time>
      </trkpt>
      <trkpt lat="43.27885" lon="-1.4425">
        <ele>691.7</ele>
        <time>2022-09-04T08:32:21Z</time>
      </trkpt>
      <trkpt lat="43.27885" lon="-1.4425">
        <ele>691.7</ele>
        <time>2022-09-04T08:32:22Z</time>
      </trkpt>
      <trkpt lat="43.27885" lon="-1.4425">
        <ele>691.7</ele>
        <time>2022-09-04T08:32:23Z</time>
      </trkpt>
      <trkpt lat="43.27885" lon="-1.4425">
        <ele>691.7</ele>
        <time>2022-09-04T08:32:24Z</time>
      </trkpt>
      <trkpt lat="43.27885" lon="-1.4425">
        <ele>691.7</ele>
        <time>2022-09-04T08:32:26Z</time>
      </trkpt>
      <trkpt lat="43.27885" lon="-1.4425">
        <ele>691.7</ele>
        <time>2022-09-04T08:32:27Z</time>
      </trkpt>
      <trkpt lat="43.27885" lon="-1.4425">
        <ele>691.7</ele>
        <time>2022-09-04T08:32:28Z</time>
      </trkpt>
      <trkpt lat="43.27884" lon="-1.44251">
        <ele>691.5</ele>
        <time>2022-09-04T08:33:12Z</time>
      </trkpt>
      <trkpt lat="43.27884" lon="-1.44252">
        <ele>691.5</ele>
        <time>2022-09-04T08:33:13Z</time>
      </trkpt>
      <trkpt lat="43.27884" lon="-1.44252">
        <ele>691.5</ele>
        <time>2022-09-04T08:33:14Z</time>
      </trkpt>
      <trkpt lat="43.27884" lon="-1.44252">
        <ele>691.5</ele>
        <time>2022-09-04T08:33:15Z</time>
      </trkpt>
      <trkpt lat="43.27884" lon="-1.44252">
        <ele>691.5</ele>
        <time>2022-09-04T08:33:16Z</time>
      </trkpt>
      <trkpt lat="43.27884" lon="-1.44252">
        <ele>691.5</ele>
        <time>2022-09-04T08:33:17Z</time>
      </trkpt>
      <trkpt lat="43.27884" lon="-1.44252">
        <ele>691.5</ele>
        <time>2022-09-04T08:33:18Z</time>
      </trkpt>
      <trkpt lat="43.27884" lon="-1.44252">
        <ele>691.5</ele>
        <time>2022-09-04T08:33:19Z</time>
      </trkpt>
      <trkpt lat="43.27884" lon="-1.44252">
        <ele>691.5</ele>
        <time>2022-09-04T08:33:20Z</time>
      </trkpt>
      <trkpt lat="43.27884" lon="-1.44252">
        <ele>691.5</ele>
        <time>2022-09-04T08:33:21Z</time>
      </trkpt>
      <trkpt lat="43.27884" lon="-1.44252">
        <ele>691.5</ele>
        <time>2022-09-04T08:33:22Z</time>
      </trkpt>
      <trkpt lat="43.27884" lon="-1.44252">
        <ele>691.5</ele>
        <time>2022-09-04T08:33:23Z</time>
      </trkpt>
      <trkpt lat="43.27884" lon="-1.44252">
        <ele>691.5</ele>
        <time>2022-09-04T08:33:24Z</time>
      </trkpt>
      <trkpt lat="43.27884" lon="-1.44252">
        <ele>691.5</ele>
        <time>2022-09-04T08:33:25Z</time>
      </trkpt>
      <trkpt lat="43.27884" lon="-1.44252">
        <ele>691.5</ele>
        <time>2022-09-04T08:33:26Z</time>
      </trkpt>
      <trkpt lat="43.27884" lon="-1.44252">
        <ele>691.4</ele>
        <time>2022-09-04T08:33:27Z</time>
      </trkpt>
      <trkpt lat="43.27884" lon="-1.44253">
        <ele>691.4</ele>
        <time>2022-09-04T08:33:28Z</time>
      </trkpt>
      <trkpt lat="43.27884" lon="-1.44253">
        <ele>691.4</ele>
        <time>2022-09-04T08:33:29Z</time>
      </trkpt>
      <trkpt lat="43.27883" lon="-1.44253">
        <ele>691.3</ele>
        <time>2022-09-04T08:33:30Z</time>
      </trkpt>
      <trkpt lat="43.27883" lon="-1.44253">
        <ele>691.3</ele>
        <time>2022-09-04T08:33:31Z</time>
      </trkpt>
      <trkpt lat="43.27883" lon="-1.44252">
        <ele>691.3</ele>
        <time>2022-09-04T08:33:32Z</time>
      </trkpt>
      <trkpt lat="43.27883" lon="-1.44252">
        <ele>691.3</ele>
        <time>2022-09-04T08:33:33Z</time>
      </trkpt>
      <trkpt lat="43.27883" lon="-1.44252">
        <ele>691.2</ele>
        <time>2022-09-04T08:33:34Z</time>
      </trkpt>
      <trkpt lat="43.27883" lon="-1.44253">
        <ele>691.2</ele>
        <time>2022-09-04T08:33:35Z</time>
      </trkpt>
      <trkpt lat="43.27883" lon="-1.44253">
        <ele>691.2</ele>
        <time>2022-09-04T08:33:36Z</time>
      </trkpt>
      <trkpt lat="43.27883" lon="-1.44253">
        <ele>691.1</ele>
        <time>2022-09-04T08:33:37Z</time>
      </trkpt>
      <trkpt lat="43.27883" lon="-1.44253">
        <ele>691.1</ele>
        <time>2022-09-04T08:33:38Z</time>
      </trkpt>
      <trkpt lat="43.27883" lon="-1.44253">
        <ele>691.1</ele>
        <time>2022-09-04T08:33:40Z</time>
      </trkpt>
      <trkpt lat="43.27883" lon="-1.44253">
        <ele>691.1</ele>
        <time>2022-09-04T08:33:41Z</time>
      </trkpt>
      <trkpt lat="43.27883" lon="-1.44253">
        <ele>691.1</ele>
        <time>2022-09-04T08:33:42Z</time>
      </trkpt>
      <trkpt lat="43.27883" lon="-1.44253">
        <ele>691.1</ele>
        <time>2022-09-04T08:33:43Z</time>
      </trkpt>
      <trkpt lat="43.27883" lon="-1.44253">
        <ele>691.1</ele>
        <time>2022-09-04T08:33:44Z</time>
      </trkpt>
      <trkpt lat="43.27883" lon="-1.44253">
        <ele>691.1</ele>
        <time>2022-09-04T08:33:45Z</time>
      </trkpt>
      <trkpt lat="43.27883" lon="-1.44253">
        <ele>691.1</ele>
        <time>2022-09-04T08:33:46Z</time>
      </trkpt>
      <trkpt lat="43.27883" lon="-1.44253">
        <ele>691.1</ele>
        <time>2022-09-04T08:33:47Z</time>
      </trkpt>
      <trkpt lat="43.27883" lon="-1.44253">
        <ele>691.1</ele>
        <time>2022-09-04T08:33:48Z</time>
      </trkpt>
      <trkpt lat="43.27883" lon="-1.44253">
        <ele>691.1</ele>
        <time>2022-09-04T08:33:49Z</time>
      </trkpt>
      <trkpt lat="43.27883" lon="-1.44253">
        <ele>691.1</ele>
        <time>2022-09-04T08:33:50Z</time>
      </trkpt>
      <trkpt lat="43.27883" lon="-1.44253">
        <ele>691.1</ele>
        <time>2022-09-04T08:33:51Z</time>
      </trkpt>
      <trkpt lat="43.27883" lon="-1.44253">
        <ele>691.1</ele>
        <time>2022-09-04T08:33:52Z</time>
      </trkpt>
      <trkpt lat="43.27883" lon="-1.44253">
        <ele>691.1</ele>
        <time>2022-09-04T08:33:53Z</time>
      </trkpt>
      <trkpt lat="43.27883" lon="-1.44253">
        <ele>691.1</ele>
        <time>2022-09-04T08:33:54Z</time>
      </trkpt>
      <trkpt lat="43.27883" lon="-1.44253">
        <ele>691.1</ele>
        <time>2022-09-04T08:33:55Z</time>
      </trkpt>
      <trkpt lat="43.27883" lon="-1.44253">
        <ele>691.1</ele>
        <time>2022-09-04T08:33:56Z</time>
      </trkpt>
      <trkpt lat="43.27883" lon="-1.44253">
        <ele>691.1</ele>
        <time>2022-09-04T08:33:57Z</time>
      </trkpt>
      <trkpt lat="43.27883" lon="-1.44253">
        <ele>691.1</ele>
        <time>2022-09-04T08:33:58Z</time>
      </trkpt>
      <trkpt lat="43.27883" lon="-1.44253">
        <ele>691.1</ele>
        <time>2022-09-04T08:33:59Z</time>
      </trkpt>
      <trkpt lat="43.27883" lon="-1.44253">
        <ele>691.1</ele>
        <time>2022-09-04T08:34:00Z</time>
      </trkpt>
      <trkpt lat="43.27883" lon="-1.44253">
        <ele>691.1</ele>
        <time>2022-09-04T08:34:01Z</time>
      </trkpt>
      <trkpt lat="43.27883" lon="-1.44253">
        <ele>691.1</ele>
        <time>2022-09-04T08:34:02Z</time>
      </trkpt>
      <trkpt lat="43.27883" lon="-1.44253">
        <ele>691.1</ele>
        <time>2022-09-04T08:34:03Z</time>
      </trkpt>
      <trkpt lat="43.27883" lon="-1.44253">
        <ele>691.1</ele>
        <time>2022-09-04T08:34:04Z</time>
      </trkpt>
      <trkpt lat="43.27883" lon="-1.44253">
        <ele>691.1</ele>
        <time>2022-09-04T08:34:05Z</time>
      </trkpt>
      <trkpt lat="43.27883" lon="-1.44253">
        <ele>691.1</ele>
        <time>2022-09-04T08:34:06Z</time>
      </trkpt>
      <trkpt lat="43.27883" lon="-1.44253">
        <ele>691.1</ele>
        <time>2022-09-04T08:34:07Z</time>
      </trkpt>
      <trkpt lat="43.27883" lon="-1.44253">
        <ele>691.1</ele>
        <time>2022-09-04T08:34:08Z</time>
      </trkpt>
      <trkpt lat="43.27883" lon="-1.44253">
        <ele>691.1</ele>
        <time>2022-09-04T08:34:09Z</time>
      </trkpt>
      <trkpt lat="43.27883" lon="-1.44253">
        <ele>691.1</ele>
        <time>2022-09-04T08:34:10Z</time>
      </trkpt>
      <trkpt lat="43.27883" lon="-1.44253">
        <ele>691.1</ele>
        <time>2022-09-04T08:34:11Z</time>
      </trkpt>
      <trkpt lat="43.27883" lon="-1.44253">
        <ele>691.1</ele>
        <time>2022-09-04T08:34:12Z</time>
      </trkpt>
      <trkpt lat="43.27883" lon="-1.44253">
        <ele>691.1</ele>
        <time>2022-09-04T08:34:13Z</time>
      </trkpt>
      <trkpt lat="43.27883" lon="-1.44253">
        <ele>691.1</ele>
        <time>2022-09-04T08:34:14Z</time>
      </trkpt>
      <trkpt lat="43.27883" lon="-1.44253">
        <ele>691.1</ele>
        <time>2022-09-04T08:34:15Z</time>
      </trkpt>
      <trkpt lat="43.27883" lon="-1.44253">
        <ele>691.1</ele>
        <time>2022-09-04T08:34:16Z</time>
      </trkpt>
      <trkpt lat="43.27883" lon="-1.44253">
        <ele>691.1</ele>
        <time>2022-09-04T08:34:17Z</time>
      </trkpt>
      <trkpt lat="43.27883" lon="-1.44253">
        <ele>691.1</ele>
        <time>2022-09-04T08:34:18Z</time>
      </trkpt>
      <trkpt lat="43.27883" lon="-1.44253">
        <ele>691.1</ele>
        <time>2022-09-04T08:34:19Z</time>
      </trkpt>
      <trkpt lat="43.27883" lon="-1.44253">
        <ele>691.1</ele>
        <time>2022-09-04T08:34:20Z</time>
      </trkpt>
      <trkpt lat="43.27883" lon="-1.44253">
        <ele>691.1</ele>
        <time>2022-09-04T08:34:21Z</time>
      </trkpt>
      <trkpt lat="43.27883" lon="-1.44253">
        <ele>691.1</ele>
        <time>2022-09-04T08:34:22Z</time>
      </trkpt>
      <trkpt lat="43.27883" lon="-1.44253">
        <ele>691.1</ele>
        <time>2022-09-04T08:34:23Z</time>
      </trkpt>
      <trkpt lat="43.27883" lon="-1.44253">
        <ele>691.1</ele>
        <time>2022-09-04T08:34:24Z</time>
      </trkpt>
      <trkpt lat="43.27883" lon="-1.44253">
        <ele>691.1</ele>
        <time>2022-09-04T08:34:25Z</time>
      </trkpt>
      <trkpt lat="43.27883" lon="-1.44253">
        <ele>691.1</ele>
        <time>2022-09-04T08:34:26Z</time>
      </trkpt>
      <trkpt lat="43.27883" lon="-1.44253">
        <ele>691.1</ele>
        <time>2022-09-04T08:34:27Z</time>
      </trkpt>
      <trkpt lat="43.27883" lon="-1.44253">
        <ele>691.1</ele>
        <time>2022-09-04T08:34:28Z</time>
      </trkpt>
      <trkpt lat="43.27883" lon="-1.44253">
        <ele>691.1</ele>
        <time>2022-09-04T08:34:29Z</time>
      </trkpt>
      <trkpt lat="43.27883" lon="-1.44253">
        <ele>691.1</ele>
        <time>2022-09-04T08:34:30Z</time>
      </trkpt>
      <trkpt lat="43.27883" lon="-1.44253">
        <ele>691.1</ele>
        <time>2022-09-04T08:34:31Z</time>
      </trkpt>
      <trkpt lat="43.27883" lon="-1.44253">
        <ele>691.1</ele>
        <time>2022-09-04T08:34:32Z</time>
      </trkpt>
      <trkpt lat="43.27883" lon="-1.44253">
        <ele>691.1</ele>
        <time>2022-09-04T08:34:33Z</time>
      </trkpt>
      <trkpt lat="43.27883" lon="-1.44253">
        <ele>691.1</ele>
        <time>2022-09-04T08:34:34Z</time>
      </trkpt>
      <trkpt lat="43.27883" lon="-1.44253">
        <ele>691.1</ele>
        <time>2022-09-04T08:34:35Z</time>
      </trkpt>
      <trkpt lat="43.27883" lon="-1.44253">
        <ele>691.1</ele>
        <time>2022-09-04T08:34:36Z</time>
      </trkpt>
      <trkpt lat="43.27883" lon="-1.44253">
        <ele>691.1</ele>
        <time>2022-09-04T08:34:37Z</time>
      </trkpt>
      <trkpt lat="43.27883" lon="-1.44253">
        <ele>691.1</ele>
        <time>2022-09-04T08:34:38Z</time>
      </trkpt>
      <trkpt lat="43.27883" lon="-1.44253">
        <ele>691.1</ele>
        <time>2022-09-04T08:34:39Z</time>
      </trkpt>
      <trkpt lat="43.27883" lon="-1.44253">
        <ele>691.1</ele>
        <time>2022-09-04T08:34:40Z</time>
      </trkpt>
      <trkpt lat="43.27883" lon="-1.44253">
        <ele>691.1</ele>
        <time>2022-09-04T08:34:41Z</time>
      </trkpt>
      <trkpt lat="43.27883" lon="-1.44253">
        <ele>691.1</ele>
        <time>2022-09-04T08:34:42Z</time>
      </trkpt>
      <trkpt lat="43.27883" lon="-1.44253">
        <ele>691</ele>
        <time>2022-09-04T08:34:43Z</time>
      </trkpt>
      <trkpt lat="43.27883" lon="-1.44253">
        <ele>691</ele>
        <time>2022-09-04T08:34:44Z</time>
      </trkpt>
      <trkpt lat="43.27883" lon="-1.44253">
        <ele>691</ele>
        <time>2022-09-04T08:34:45Z</time>
      </trkpt>
      <trkpt lat="43.27883" lon="-1.44253">
        <ele>691</ele>
        <time>2022-09-04T08:34:46Z</time>
      </trkpt>
      <trkpt lat="43.27883" lon="-1.44253">
        <ele>691</ele>
        <time>2022-09-04T08:34:47Z</time>
      </trkpt>
      <trkpt lat="43.27883" lon="-1.44253">
        <ele>691</ele>
        <time>2022-09-04T08:34:48Z</time>
      </trkpt>
      <trkpt lat="43.27883" lon="-1.44253">
        <ele>691</ele>
        <time>2022-09-04T08:34:49Z</time>
      </trkpt>
      <trkpt lat="43.27883" lon="-1.44253">
        <ele>691</ele>
        <time>2022-09-04T08:34:50Z</time>
      </trkpt>
      <trkpt lat="43.27883" lon="-1.44253">
        <ele>691</ele>
        <time>2022-09-04T08:34:51Z</time>
      </trkpt>
      <trkpt lat="43.27883" lon="-1.44253">
        <ele>691</ele>
        <time>2022-09-04T08:34:52Z</time>
      </trkpt>
      <trkpt lat="43.27883" lon="-1.44253">
        <ele>691</ele>
        <time>2022-09-04T08:34:53Z</time>
      </trkpt>
      <trkpt lat="43.27883" lon="-1.44253">
        <ele>691</ele>
        <time>2022-09-04T08:34:54Z</time>
      </trkpt>
      <trkpt lat="43.27883" lon="-1.44253">
        <ele>691</ele>
        <time>2022-09-04T08:34:55Z</time>
      </trkpt>
      <trkpt lat="43.27883" lon="-1.44253">
        <ele>691</ele>
        <time>2022-09-04T08:34:56Z</time>
      </trkpt>
      <trkpt lat="43.27883" lon="-1.44253">
        <ele>691</ele>
        <time>2022-09-04T08:34:57Z</time>
      </trkpt>
      <trkpt lat="43.27883" lon="-1.44253">
        <ele>691</ele>
        <time>2022-09-04T08:34:58Z</time>
      </trkpt>
      <trkpt lat="43.27883" lon="-1.44253">
        <ele>691</ele>
        <time>2022-09-04T08:34:59Z</time>
      </trkpt>
      <trkpt lat="43.27883" lon="-1.44253">
        <ele>691</ele>
        <time>2022-09-04T08:35:00Z</time>
      </trkpt>
      <trkpt lat="43.27883" lon="-1.44253">
        <ele>691</ele>
        <time>2022-09-04T08:35:01Z</time>
      </trkpt>
      <trkpt lat="43.27883" lon="-1.44253">
        <ele>691</ele>
        <time>2022-09-04T08:35:02Z</time>
      </trkpt>
      <trkpt lat="43.27883" lon="-1.44253">
        <ele>691</ele>
        <time>2022-09-04T08:35:03Z</time>
      </trkpt>
      <trkpt lat="43.27883" lon="-1.44253">
        <ele>691</ele>
        <time>2022-09-04T08:35:04Z</time>
      </trkpt>
      <trkpt lat="43.27883" lon="-1.44253">
        <ele>691</ele>
        <time>2022-09-04T08:35:05Z</time>
      </trkpt>
      <trkpt lat="43.27883" lon="-1.44253">
        <ele>691</ele>
        <time>2022-09-04T08:35:06Z</time>
      </trkpt>
      <trkpt lat="43.27883" lon="-1.44253">
        <ele>691</ele>
        <time>2022-09-04T08:35:07Z</time>
      </trkpt>
      <trkpt lat="43.27883" lon="-1.44253">
        <ele>691</ele>
        <time>2022-09-04T08:35:08Z</time>
      </trkpt>
      <trkpt lat="43.27883" lon="-1.44253">
        <ele>691</ele>
        <time>2022-09-04T08:35:09Z</time>
      </trkpt>
      <trkpt lat="43.27883" lon="-1.44253">
        <ele>691</ele>
        <time>2022-09-04T08:35:10Z</time>
      </trkpt>
      <trkpt lat="43.27883" lon="-1.44253">
        <ele>691</ele>
        <time>2022-09-04T08:35:11Z</time>
      </trkpt>
      <trkpt lat="43.27883" lon="-1.44253">
        <ele>691</ele>
        <time>2022-09-04T08:35:12Z</time>
      </trkpt>
      <trkpt lat="43.27883" lon="-1.44253">
        <ele>691</ele>
        <time>2022-09-04T08:35:13Z</time>
      </trkpt>
      <trkpt lat="43.27883" lon="-1.44253">
        <ele>691</ele>
        <time>2022-09-04T08:35:14Z</time>
      </trkpt>
      <trkpt lat="43.27883" lon="-1.44253">
        <ele>691</ele>
        <time>2022-09-04T08:35:15Z</time>
      </trkpt>
      <trkpt lat="43.27883" lon="-1.44254">
        <ele>690.9</ele>
        <time>2022-09-04T08:35:16Z</time>
      </trkpt>
      <trkpt lat="43.27883" lon="-1.44254">
        <ele>690.9</ele>
        <time>2022-09-04T08:35:17Z</time>
      </trkpt>
      <trkpt lat="43.27882" lon="-1.44254">
        <ele>690.9</ele>
        <time>2022-09-04T08:35:18Z</time>
      </trkpt>
      <trkpt lat="43.27882" lon="-1.44254">
        <ele>690.8</ele>
        <time>2022-09-04T08:35:19Z</time>
      </trkpt>
      <trkpt lat="43.27882" lon="-1.44254">
        <ele>690.8</ele>
        <time>2022-09-04T08:35:20Z</time>
      </trkpt>
      <trkpt lat="43.27882" lon="-1.44254">
        <ele>690.8</ele>
        <time>2022-09-04T08:35:21Z</time>
      </trkpt>
      <trkpt lat="43.27882" lon="-1.44254">
        <ele>690.8</ele>
        <time>2022-09-04T08:35:22Z</time>
      </trkpt>
      <trkpt lat="43.27882" lon="-1.44254">
        <ele>690.8</ele>
        <time>2022-09-04T08:35:23Z</time>
      </trkpt>
      <trkpt lat="43.27882" lon="-1.44254">
        <ele>690.8</ele>
        <time>2022-09-04T08:35:24Z</time>
      </trkpt>
      <trkpt lat="43.27881" lon="-1.44254">
        <ele>690.7</ele>
        <time>2022-09-04T08:35:25Z</time>
      </trkpt>
      <trkpt lat="43.27881" lon="-1.44254">
        <ele>690.7</ele>
        <time>2022-09-04T08:35:26Z</time>
      </trkpt>
      <trkpt lat="43.27881" lon="-1.44254">
        <ele>690.7</ele>
        <time>2022-09-04T08:35:27Z</time>
      </trkpt>
      <trkpt lat="43.27881" lon="-1.44254">
        <ele>690.7</ele>
        <time>2022-09-04T08:35:28Z</time>
      </trkpt>
      <trkpt lat="43.27881" lon="-1.44254">
        <ele>690.7</ele>
        <time>2022-09-04T08:35:29Z</time>
      </trkpt>
      <trkpt lat="43.27881" lon="-1.44254">
        <ele>690.7</ele>
        <time>2022-09-04T08:35:30Z</time>
      </trkpt>
      <trkpt lat="43.27881" lon="-1.44254">
        <ele>690.7</ele>
        <time>2022-09-04T08:35:31Z</time>
      </trkpt>
      <trkpt lat="43.27881" lon="-1.44254">
        <ele>690.7</ele>
        <time>2022-09-04T08:35:33Z</time>
      </trkpt>
      <trkpt lat="43.27881" lon="-1.44254">
        <ele>690.7</ele>
        <time>2022-09-04T08:35:34Z</time>
      </trkpt>
      <trkpt lat="43.27881" lon="-1.44254">
        <ele>690.7</ele>
        <time>2022-09-04T08:35:37Z</time>
      </trkpt>
      <trkpt lat="43.27881" lon="-1.44254">
        <ele>690.7</ele>
        <time>2022-09-04T08:35:38Z</time>
      </trkpt>
      <trkpt lat="43.27881" lon="-1.44254">
        <ele>690.7</ele>
        <time>2022-09-04T08:35:40Z</time>
      </trkpt>
      <trkpt lat="43.27881" lon="-1.44254">
        <ele>690.6</ele>
        <time>2022-09-04T08:35:41Z</time>
      </trkpt>
      <trkpt lat="43.27881" lon="-1.44254">
        <ele>690.6</ele>
        <time>2022-09-04T08:35:42Z</time>
      </trkpt>
      <trkpt lat="43.27881" lon="-1.44254">
        <ele>690.6</ele>
        <time>2022-09-04T08:35:43Z</time>
      </trkpt>
      <trkpt lat="43.2788" lon="-1.44254">
        <ele>690.6</ele>
        <time>2022-09-04T08:35:44Z</time>
      </trkpt>
      <trkpt lat="43.2788" lon="-1.44254">
        <ele>690.6</ele>
        <time>2022-09-04T08:35:45Z</time>
      </trkpt>
      <trkpt lat="43.2788" lon="-1.44254">
        <ele>690.6</ele>
        <time>2022-09-04T08:35:46Z</time>
      </trkpt>
      <trkpt lat="43.2788" lon="-1.44254">
        <ele>690.6</ele>
        <time>2022-09-04T08:35:47Z</time>
      </trkpt>
      <trkpt lat="43.2788" lon="-1.44254">
        <ele>690.6</ele>
        <time>2022-09-04T08:35:48Z</time>
      </trkpt>
      <trkpt lat="43.2788" lon="-1.44254">
        <ele>690.6</ele>
        <time>2022-09-04T08:35:49Z</time>
      </trkpt>
      <trkpt lat="43.2788" lon="-1.44254">
        <ele>690.6</ele>
        <time>2022-09-04T08:35:50Z</time>
      </trkpt>
      <trkpt lat="43.2788" lon="-1.44254">
        <ele>690.5</ele>
        <time>2022-09-04T08:35:51Z</time>
      </trkpt>
      <trkpt lat="43.2788" lon="-1.44254">
        <ele>690.5</ele>
        <time>2022-09-04T08:35:52Z</time>
      </trkpt>
      <trkpt lat="43.2788" lon="-1.44254">
        <ele>690.5</ele>
        <time>2022-09-04T08:35:53Z</time>
      </trkpt>
      <trkpt lat="43.2788" lon="-1.44254">
        <ele>690.5</ele>
        <time>2022-09-04T08:35:54Z</time>
      </trkpt>
      <trkpt lat="43.2788" lon="-1.44254">
        <ele>690.5</ele>
        <time>2022-09-04T08:35:55Z</time>
      </trkpt>
      <trkpt lat="43.2788" lon="-1.44254">
        <ele>690.5</ele>
        <time>2022-09-04T08:35:56Z</time>
      </trkpt>
      <trkpt lat="43.2788" lon="-1.44254">
        <ele>690.5</ele>
        <time>2022-09-04T08:35:57Z</time>
      </trkpt>
      <trkpt lat="43.27879" lon="-1.44253">
        <ele>690.5</ele>
        <time>2022-09-04T08:35:59Z</time>
      </trkpt>
      <trkpt lat="43.27879" lon="-1.44253">
        <ele>690.5</ele>
        <time>2022-09-04T08:36:00Z</time>
      </trkpt>
      <trkpt lat="43.27879" lon="-1.44253">
        <ele>690.5</ele>
        <time>2022-09-04T08:36:01Z</time>
      </trkpt>
      <trkpt lat="43.27879" lon="-1.44253">
        <ele>690.4</ele>
        <time>2022-09-04T08:36:02Z</time>
      </trkpt>
      <trkpt lat="43.27879" lon="-1.44253">
        <ele>690.4</ele>
        <time>2022-09-04T08:36:03Z</time>
      </trkpt>
      <trkpt lat="43.27879" lon="-1.44253">
        <ele>690.4</ele>
        <time>2022-09-04T08:36:04Z</time>
      </trkpt>
      <trkpt lat="43.27879" lon="-1.44253">
        <ele>690.4</ele>
        <time>2022-09-04T08:36:05Z</time>
      </trkpt>
      <trkpt lat="43.27879" lon="-1.44253">
        <ele>690.4</ele>
        <time>2022-09-04T08:36:06Z</time>
      </trkpt>
      <trkpt lat="43.27879" lon="-1.44253">
        <ele>690.4</ele>
        <time>2022-09-04T08:36:07Z</time>
      </trkpt>
      <trkpt lat="43.27879" lon="-1.44253">
        <ele>690.4</ele>
        <time>2022-09-04T08:36:08Z</time>
      </trkpt>
      <trkpt lat="43.27879" lon="-1.44253">
        <ele>690.4</ele>
        <time>2022-09-04T08:36:09Z</time>
      </trkpt>
      <trkpt lat="43.27879" lon="-1.44253">
        <ele>690.4</ele>
        <time>2022-09-04T08:36:10Z</time>
      </trkpt>
      <trkpt lat="43.27879" lon="-1.44253">
        <ele>690.4</ele>
        <time>2022-09-04T08:36:11Z</time>
      </trkpt>
      <trkpt lat="43.27879" lon="-1.44253">
        <ele>690.4</ele>
        <time>2022-09-04T08:36:12Z</time>
      </trkpt>
      <trkpt lat="43.27878" lon="-1.44253">
        <ele>690.3</ele>
        <time>2022-09-04T08:36:13Z</time>
      </trkpt>
      <trkpt lat="43.27878" lon="-1.44253">
        <ele>690.3</ele>
        <time>2022-09-04T08:36:14Z</time>
      </trkpt>
      <trkpt lat="43.27878" lon="-1.44253">
        <ele>690.3</ele>
        <time>2022-09-04T08:36:15Z</time>
      </trkpt>
      <trkpt lat="43.27878" lon="-1.44253">
        <ele>690.3</ele>
        <time>2022-09-04T08:36:16Z</time>
      </trkpt>
      <trkpt lat="43.27878" lon="-1.44253">
        <ele>690.3</ele>
        <time>2022-09-04T08:36:17Z</time>
      </trkpt>
      <trkpt lat="43.27878" lon="-1.44253">
        <ele>690.3</ele>
        <time>2022-09-04T08:36:18Z</time>
      </trkpt>
      <trkpt lat="43.27878" lon="-1.44253">
        <ele>690.3</ele>
        <time>2022-09-04T08:36:19Z</time>
      </trkpt>
      <trkpt lat="43.27878" lon="-1.44253">
        <ele>690.3</ele>
        <time>2022-09-04T08:36:20Z</time>
      </trkpt>
      <trkpt lat="43.27878" lon="-1.44253">
        <ele>690.3</ele>
        <time>2022-09-04T08:36:21Z</time>
      </trkpt>
      <trkpt lat="43.27878" lon="-1.44253">
        <ele>690.3</ele>
        <time>2022-09-04T08:36:22Z</time>
      </trkpt>
      <trkpt lat="43.27878" lon="-1.44253">
        <ele>690.2</ele>
        <time>2022-09-04T08:36:23Z</time>
      </trkpt>
      <trkpt lat="43.27878" lon="-1.44253">
        <ele>690.2</ele>
        <time>2022-09-04T08:36:24Z</time>
      </trkpt>
      <trkpt lat="43.27878" lon="-1.44253">
        <ele>690.2</ele>
        <time>2022-09-04T08:36:25Z</time>
      </trkpt>
      <trkpt lat="43.27878" lon="-1.44253">
        <ele>690.2</ele>
        <time>2022-09-04T08:36:26Z</time>
      </trkpt>
      <trkpt lat="43.27878" lon="-1.44253">
        <ele>690.2</ele>
        <time>2022-09-04T08:36:27Z</time>
      </trkpt>
      <trkpt lat="43.27877" lon="-1.44253">
        <ele>690.2</ele>
        <time>2022-09-04T08:36:28Z</time>
      </trkpt>
      <trkpt lat="43.27877" lon="-1.44253">
        <ele>690.2</ele>
        <time>2022-09-04T08:36:29Z</time>
      </trkpt>
      <trkpt lat="43.27877" lon="-1.44253">
        <ele>690.2</ele>
        <time>2022-09-04T08:36:30Z</time>
      </trkpt>
      <trkpt lat="43.27877" lon="-1.44253">
        <ele>690.2</ele>
        <time>2022-09-04T08:36:31Z</time>
      </trkpt>
      <trkpt lat="43.27877" lon="-1.44253">
        <ele>690.2</ele>
        <time>2022-09-04T08:36:32Z</time>
      </trkpt>
      <trkpt lat="43.27877" lon="-1.44253">
        <ele>690.1</ele>
        <time>2022-09-04T08:36:33Z</time>
      </trkpt>
      <trkpt lat="43.27877" lon="-1.44253">
        <ele>690.1</ele>
        <time>2022-09-04T08:36:34Z</time>
      </trkpt>
      <trkpt lat="43.27877" lon="-1.44253">
        <ele>690.1</ele>
        <time>2022-09-04T08:36:35Z</time>
      </trkpt>
      <trkpt lat="43.27877" lon="-1.44253">
        <ele>690.1</ele>
        <time>2022-09-04T08:36:36Z</time>
      </trkpt>
      <trkpt lat="43.27877" lon="-1.44253">
        <ele>690.1</ele>
        <time>2022-09-04T08:36:37Z</time>
      </trkpt>
      <trkpt lat="43.27877" lon="-1.44253">
        <ele>690.1</ele>
        <time>2022-09-04T08:36:38Z</time>
      </trkpt>
      <trkpt lat="43.27877" lon="-1.44253">
        <ele>690.1</ele>
        <time>2022-09-04T08:36:39Z</time>
      </trkpt>
      <trkpt lat="43.27877" lon="-1.44253">
        <ele>690.1</ele>
        <time>2022-09-04T08:36:40Z</time>
      </trkpt>
      <trkpt lat="43.27877" lon="-1.44253">
        <ele>690.1</ele>
        <time>2022-09-04T08:36:41Z</time>
      </trkpt>
      <trkpt lat="43.27876" lon="-1.44253">
        <ele>690.1</ele>
        <time>2022-09-04T08:36:42Z</time>
      </trkpt>
      <trkpt lat="43.27876" lon="-1.44253">
        <ele>690</ele>
        <time>2022-09-04T08:36:43Z</time>
      </trkpt>
      <trkpt lat="43.27876" lon="-1.44253">
        <ele>690</ele>
        <time>2022-09-04T08:36:44Z</time>
      </trkpt>
      <trkpt lat="43.27876" lon="-1.44253">
        <ele>690</ele>
        <time>2022-09-04T08:36:45Z</time>
      </trkpt>
      <trkpt lat="43.27876" lon="-1.44253">
        <ele>690</ele>
        <time>2022-09-04T08:36:46Z</time>
      </trkpt>
      <trkpt lat="43.27876" lon="-1.44253">
        <ele>690</ele>
        <time>2022-09-04T08:36:47Z</time>
      </trkpt>
      <trkpt lat="43.27876" lon="-1.44253">
        <ele>690</ele>
        <time>2022-09-04T08:36:48Z</time>
      </trkpt>
      <trkpt lat="43.27876" lon="-1.44253">
        <ele>690</ele>
        <time>2022-09-04T08:36:49Z</time>
      </trkpt>
      <trkpt lat="43.27876" lon="-1.44253">
        <ele>690</ele>
        <time>2022-09-04T08:36:50Z</time>
      </trkpt>
      <trkpt lat="43.27876" lon="-1.44253">
        <ele>690</ele>
        <time>2022-09-04T08:36:51Z</time>
      </trkpt>
      <trkpt lat="43.27876" lon="-1.44253">
        <ele>690</ele>
        <time>2022-09-04T08:36:52Z</time>
      </trkpt>
      <trkpt lat="43.27876" lon="-1.44253">
        <ele>690</ele>
        <time>2022-09-04T08:36:53Z</time>
      </trkpt>
      <trkpt lat="43.27876" lon="-1.44252">
        <ele>690</ele>
        <time>2022-09-04T08:36:54Z</time>
      </trkpt>
      <trkpt lat="43.27876" lon="-1.44252">
        <ele>689.9</ele>
        <time>2022-09-04T08:36:55Z</time>
      </trkpt>
      <trkpt lat="43.27875" lon="-1.44252">
        <ele>689.9</ele>
        <time>2022-09-04T08:36:56Z</time>
      </trkpt>
      <trkpt lat="43.27875" lon="-1.44252">
        <ele>689.9</ele>
        <time>2022-09-04T08:36:57Z</time>
      </trkpt>
      <trkpt lat="43.27875" lon="-1.44252">
        <ele>689.9</ele>
        <time>2022-09-04T08:36:58Z</time>
      </trkpt>
      <trkpt lat="43.27875" lon="-1.44252">
        <ele>689.9</ele>
        <time>2022-09-04T08:36:59Z</time>
      </trkpt>
      <trkpt lat="43.27875" lon="-1.44252">
        <ele>689.9</ele>
        <time>2022-09-04T08:37:00Z</time>
      </trkpt>
      <trkpt lat="43.27875" lon="-1.44252">
        <ele>689.9</ele>
        <time>2022-09-04T08:37:01Z</time>
      </trkpt>
      <trkpt lat="43.27875" lon="-1.44252">
        <ele>689.9</ele>
        <time>2022-09-04T08:37:02Z</time>
      </trkpt>
      <trkpt lat="43.27875" lon="-1.44252">
        <ele>689.9</ele>
        <time>2022-09-04T08:37:03Z</time>
      </trkpt>
      <trkpt lat="43.27875" lon="-1.44252">
        <ele>689.9</ele>
        <time>2022-09-04T08:37:04Z</time>
      </trkpt>
      <trkpt lat="43.27875" lon="-1.44252">
        <ele>689.8</ele>
        <time>2022-09-04T08:37:05Z</time>
      </trkpt>
      <trkpt lat="43.27875" lon="-1.44252">
        <ele>689.8</ele>
        <time>2022-09-04T08:37:06Z</time>
      </trkpt>
      <trkpt lat="43.27875" lon="-1.44252">
        <ele>689.8</ele>
        <time>2022-09-04T08:37:07Z</time>
      </trkpt>
      <trkpt lat="43.27875" lon="-1.44252">
        <ele>689.8</ele>
        <time>2022-09-04T08:37:08Z</time>
      </trkpt>
      <trkpt lat="43.27875" lon="-1.44252">
        <ele>689.8</ele>
        <time>2022-09-04T08:37:09Z</time>
      </trkpt>
      <trkpt lat="43.27875" lon="-1.44252">
        <ele>689.8</ele>
        <time>2022-09-04T08:37:10Z</time>
      </trkpt>
      <trkpt lat="43.27874" lon="-1.44252">
        <ele>689.8</ele>
        <time>2022-09-04T08:37:11Z</time>
      </trkpt>
      <trkpt lat="43.27874" lon="-1.44252">
        <ele>689.8</ele>
        <time>2022-09-04T08:37:12Z</time>
      </trkpt>
      <trkpt lat="43.27874" lon="-1.44252">
        <ele>689.8</ele>
        <time>2022-09-04T08:37:13Z</time>
      </trkpt>
      <trkpt lat="43.27874" lon="-1.44252">
        <ele>689.8</ele>
        <time>2022-09-04T08:37:14Z</time>
      </trkpt>
      <trkpt lat="43.27874" lon="-1.44252">
        <ele>689.8</ele>
        <time>2022-09-04T08:37:15Z</time>
      </trkpt>
      <trkpt lat="43.27874" lon="-1.44252">
        <ele>689.7</ele>
        <time>2022-09-04T08:37:16Z</time>
      </trkpt>
      <trkpt lat="43.27874" lon="-1.44252">
        <ele>689.7</ele>
        <time>2022-09-04T08:37:17Z</time>
      </trkpt>
      <trkpt lat="43.27874" lon="-1.44252">
        <ele>689.7</ele>
        <time>2022-09-04T08:37:18Z</time>
      </trkpt>
      <trkpt lat="43.27874" lon="-1.44252">
        <ele>689.7</ele>
        <time>2022-09-04T08:37:19Z</time>
      </trkpt>
      <trkpt lat="43.27874" lon="-1.44252">
        <ele>689.7</ele>
        <time>2022-09-04T08:37:20Z</time>
      </trkpt>
      <trkpt lat="43.27874" lon="-1.44252">
        <ele>689.7</ele>
        <time>2022-09-04T08:37:21Z</time>
      </trkpt>
      <trkpt lat="43.27874" lon="-1.44252">
        <ele>689.7</ele>
        <time>2022-09-04T08:37:22Z</time>
      </trkpt>
      <trkpt lat="43.27874" lon="-1.44252">
        <ele>689.7</ele>
        <time>2022-09-04T08:37:23Z</time>
      </trkpt>
      <trkpt lat="43.27874" lon="-1.44252">
        <ele>689.7</ele>
        <time>2022-09-04T08:37:24Z</time>
      </trkpt>
      <trkpt lat="43.27873" lon="-1.44252">
        <ele>689.7</ele>
        <time>2022-09-04T08:37:25Z</time>
      </trkpt>
      <trkpt lat="43.27873" lon="-1.44252">
        <ele>689.6</ele>
        <time>2022-09-04T08:37:52Z</time>
      </trkpt>
      <trkpt lat="43.27873" lon="-1.44252">
        <ele>689.6</ele>
        <time>2022-09-04T08:37:53Z</time>
      </trkpt>
      <trkpt lat="43.27873" lon="-1.44252">
        <ele>689.6</ele>
        <time>2022-09-04T08:37:54Z</time>
      </trkpt>
      <trkpt lat="43.27871" lon="-1.44251">
        <ele>689.3</ele>
        <time>2022-09-04T08:37:55Z</time>
      </trkpt>
      <trkpt lat="43.27868" lon="-1.44251">
        <ele>688.9</ele>
        <time>2022-09-04T08:37:56Z</time>
      </trkpt>
      <trkpt lat="43.27865" lon="-1.4425">
        <ele>688.6</ele>
        <time>2022-09-04T08:37:57Z</time>
      </trkpt>
      <trkpt lat="43.27861" lon="-1.4425">
        <ele>688.2</ele>
        <time>2022-09-04T08:37:58Z</time>
      </trkpt>
      <trkpt lat="43.27858" lon="-1.4425">
        <ele>687.9</ele>
        <time>2022-09-04T08:37:59Z</time>
      </trkpt>
      <trkpt lat="43.27855" lon="-1.4425">
        <ele>687.7</ele>
        <time>2022-09-04T08:38:00Z</time>
      </trkpt>
      <trkpt lat="43.27851" lon="-1.4425">
        <ele>687.4</ele>
        <time>2022-09-04T08:38:01Z</time>
      </trkpt>
      <trkpt lat="43.2785" lon="-1.4425">
        <ele>687.3</ele>
        <time>2022-09-04T08:38:02Z</time>
      </trkpt>
      <trkpt lat="43.27846" lon="-1.4425">
        <ele>687</ele>
        <time>2022-09-04T08:38:03Z</time>
      </trkpt>
      <trkpt lat="43.27842" lon="-1.44249">
        <ele>686.9</ele>
        <time>2022-09-04T08:38:04Z</time>
      </trkpt>
      <trkpt lat="43.27839" lon="-1.44249">
        <ele>686.7</ele>
        <time>2022-09-04T08:38:05Z</time>
      </trkpt>
      <trkpt lat="43.27835" lon="-1.44248">
        <ele>686.6</ele>
        <time>2022-09-04T08:38:06Z</time>
      </trkpt>
      <trkpt lat="43.2783" lon="-1.44247">
        <ele>686.4</ele>
        <time>2022-09-04T08:38:07Z</time>
      </trkpt>
      <trkpt lat="43.27824" lon="-1.44246">
        <ele>686.3</ele>
        <time>2022-09-04T08:38:08Z</time>
      </trkpt>
      <trkpt lat="43.27818" lon="-1.44245">
        <ele>686.2</ele>
        <time>2022-09-04T08:38:09Z</time>
      </trkpt>
      <trkpt lat="43.27811" lon="-1.44244">
        <ele>685.9</ele>
        <time>2022-09-04T08:38:10Z</time>
      </trkpt>
      <trkpt lat="43.27804" lon="-1.44244">
        <ele>685.7</ele>
        <time>2022-09-04T08:38:11Z</time>
      </trkpt>
      <trkpt lat="43.27797" lon="-1.44244">
        <ele>685.3</ele>
        <time>2022-09-04T08:38:12Z</time>
      </trkpt>
      <trkpt lat="43.2779" lon="-1.44244">
        <ele>684.9</ele>
        <time>2022-09-04T08:38:13Z</time>
      </trkpt>
      <trkpt lat="43.27784" lon="-1.44245">
        <ele>684.5</ele>
        <time>2022-09-04T08:38:14Z</time>
      </trkpt>
      <trkpt lat="43.27779" lon="-1.44246">
        <ele>684.1</ele>
        <time>2022-09-04T08:38:15Z</time>
      </trkpt>
      <trkpt lat="43.27774" lon="-1.44246">
        <ele>683.8</ele>
        <time>2022-09-04T08:38:16Z</time>
      </trkpt>
      <trkpt lat="43.2777" lon="-1.44246">
        <ele>683.4</ele>
        <time>2022-09-04T08:38:17Z</time>
      </trkpt>
      <trkpt lat="43.27766" lon="-1.44246">
        <ele>683.1</ele>
        <time>2022-09-04T08:38:18Z</time>
      </trkpt>
      <trkpt lat="43.27762" lon="-1.44246">
        <ele>682.8</ele>
        <time>2022-09-04T08:38:19Z</time>
      </trkpt>
      <trkpt lat="43.27758" lon="-1.44248">
        <ele>682.5</ele>
        <time>2022-09-04T08:38:20Z</time>
      </trkpt>
      <trkpt lat="43.27754" lon="-1.44249">
        <ele>682.1</ele>
        <time>2022-09-04T08:38:21Z</time>
      </trkpt>
      <trkpt lat="43.27749" lon="-1.4425">
        <ele>681.7</ele>
        <time>2022-09-04T08:38:22Z</time>
      </trkpt>
      <trkpt lat="43.27744" lon="-1.44251">
        <ele>681.2</ele>
        <time>2022-09-04T08:38:23Z</time>
      </trkpt>
      <trkpt lat="43.27738" lon="-1.44252">
        <ele>680.7</ele>
        <time>2022-09-04T08:38:24Z</time>
      </trkpt>
      <trkpt lat="43.27732" lon="-1.44253">
        <ele>680.2</ele>
        <time>2022-09-04T08:38:25Z</time>
      </trkpt>
      <trkpt lat="43.27726" lon="-1.44254">
        <ele>679.7</ele>
        <time>2022-09-04T08:38:26Z</time>
      </trkpt>
      <trkpt lat="43.2772" lon="-1.44255">
        <ele>679.3</ele>
        <time>2022-09-04T08:38:27Z</time>
      </trkpt>
      <trkpt lat="43.27715" lon="-1.44256">
        <ele>679</ele>
        <time>2022-09-04T08:38:28Z</time>
      </trkpt>
      <trkpt lat="43.27709" lon="-1.44257">
        <ele>678.8</ele>
        <time>2022-09-04T08:38:29Z</time>
      </trkpt>
      <trkpt lat="43.27702" lon="-1.44259">
        <ele>678.7</ele>
        <time>2022-09-04T08:38:30Z</time>
      </trkpt>
      <trkpt lat="43.27696" lon="-1.44261">
        <ele>678.7</ele>
        <time>2022-09-04T08:38:31Z</time>
      </trkpt>
      <trkpt lat="43.27689" lon="-1.44262">
        <ele>678.7</ele>
        <time>2022-09-04T08:38:32Z</time>
      </trkpt>
      <trkpt lat="43.27682" lon="-1.44263">
        <ele>678.8</ele>
        <time>2022-09-04T08:38:33Z</time>
      </trkpt>
      <trkpt lat="43.27674" lon="-1.44263">
        <ele>678.8</ele>
        <time>2022-09-04T08:38:34Z</time>
      </trkpt>
      <trkpt lat="43.27668" lon="-1.44264">
        <ele>678.8</ele>
        <time>2022-09-04T08:38:35Z</time>
      </trkpt>
      <trkpt lat="43.27661" lon="-1.44264">
        <ele>678.8</ele>
        <time>2022-09-04T08:38:36Z</time>
      </trkpt>
      <trkpt lat="43.27656" lon="-1.44265">
        <ele>678.6</ele>
        <time>2022-09-04T08:38:37Z</time>
      </trkpt>
      <trkpt lat="43.27651" lon="-1.44266">
        <ele>678.5</ele>
        <time>2022-09-04T08:38:38Z</time>
      </trkpt>
      <trkpt lat="43.27646" lon="-1.44267">
        <ele>678.3</ele>
        <time>2022-09-04T08:38:39Z</time>
      </trkpt>
      <trkpt lat="43.27641" lon="-1.44267">
        <ele>678.2</ele>
        <time>2022-09-04T08:38:40Z</time>
      </trkpt>
      <trkpt lat="43.27636" lon="-1.44268">
        <ele>678</ele>
        <time>2022-09-04T08:38:41Z</time>
      </trkpt>
      <trkpt lat="43.27631" lon="-1.44268">
        <ele>677.9</ele>
        <time>2022-09-04T08:38:42Z</time>
      </trkpt>
      <trkpt lat="43.27627" lon="-1.44269">
        <ele>677.7</ele>
        <time>2022-09-04T08:38:43Z</time>
      </trkpt>
      <trkpt lat="43.27622" lon="-1.4427">
        <ele>677.5</ele>
        <time>2022-09-04T08:38:44Z</time>
      </trkpt>
      <trkpt lat="43.27617" lon="-1.44272">
        <ele>677.3</ele>
        <time>2022-09-04T08:38:45Z</time>
      </trkpt>
      <trkpt lat="43.27612" lon="-1.44273">
        <ele>677.1</ele>
        <time>2022-09-04T08:38:46Z</time>
      </trkpt>
      <trkpt lat="43.27608" lon="-1.44275">
        <ele>676.9</ele>
        <time>2022-09-04T08:38:47Z</time>
      </trkpt>
      <trkpt lat="43.27603" lon="-1.44276">
        <ele>676.7</ele>
        <time>2022-09-04T08:38:48Z</time>
      </trkpt>
      <trkpt lat="43.276" lon="-1.44278">
        <ele>676.5</ele>
        <time>2022-09-04T08:38:49Z</time>
      </trkpt>
      <trkpt lat="43.27596" lon="-1.4428">
        <ele>676.3</ele>
        <time>2022-09-04T08:38:50Z</time>
      </trkpt>
      <trkpt lat="43.27591" lon="-1.44281">
        <ele>676.2</ele>
        <time>2022-09-04T08:38:51Z</time>
      </trkpt>
      <trkpt lat="43.27587" lon="-1.44284">
        <ele>676</ele>
        <time>2022-09-04T08:38:52Z</time>
      </trkpt>
      <trkpt lat="43.27581" lon="-1.44286">
        <ele>675.9</ele>
        <time>2022-09-04T08:38:53Z</time>
      </trkpt>
      <trkpt lat="43.27576" lon="-1.44289">
        <ele>675.8</ele>
        <time>2022-09-04T08:38:54Z</time>
      </trkpt>
      <trkpt lat="43.27571" lon="-1.44291">
        <ele>675.7</ele>
        <time>2022-09-04T08:38:55Z</time>
      </trkpt>
      <trkpt lat="43.27566" lon="-1.44294">
        <ele>675.6</ele>
        <time>2022-09-04T08:38:56Z</time>
      </trkpt>
      <trkpt lat="43.27562" lon="-1.44297">
        <ele>675.6</ele>
        <time>2022-09-04T08:38:57Z</time>
      </trkpt>
      <trkpt lat="43.27557" lon="-1.443">
        <ele>675.7</ele>
        <time>2022-09-04T08:38:58Z</time>
      </trkpt>
      <trkpt lat="43.27553" lon="-1.44303">
        <ele>675.7</ele>
        <time>2022-09-04T08:38:59Z</time>
      </trkpt>
      <trkpt lat="43.27549" lon="-1.44306">
        <ele>675.8</ele>
        <time>2022-09-04T08:39:00Z</time>
      </trkpt>
      <trkpt lat="43.27545" lon="-1.44308">
        <ele>675.9</ele>
        <time>2022-09-04T08:39:01Z</time>
      </trkpt>
      <trkpt lat="43.27541" lon="-1.44311">
        <ele>675.9</ele>
        <time>2022-09-04T08:39:02Z</time>
      </trkpt>
      <trkpt lat="43.27537" lon="-1.44313">
        <ele>676</ele>
        <time>2022-09-04T08:39:03Z</time>
      </trkpt>
      <trkpt lat="43.27534" lon="-1.44315">
        <ele>676</ele>
        <time>2022-09-04T08:39:04Z</time>
      </trkpt>
      <trkpt lat="43.2753" lon="-1.44318">
        <ele>676.1</ele>
        <time>2022-09-04T08:39:05Z</time>
      </trkpt>
      <trkpt lat="43.27527" lon="-1.44319">
        <ele>676.1</ele>
        <time>2022-09-04T08:39:06Z</time>
      </trkpt>
      <trkpt lat="43.27525" lon="-1.44321">
        <ele>676.2</ele>
        <time>2022-09-04T08:39:07Z</time>
      </trkpt>
      <trkpt lat="43.27522" lon="-1.44323">
        <ele>676.2</ele>
        <time>2022-09-04T08:39:08Z</time>
      </trkpt>
      <trkpt lat="43.27519" lon="-1.44326">
        <ele>676.2</ele>
        <time>2022-09-04T08:39:09Z</time>
      </trkpt>
      <trkpt lat="43.27517" lon="-1.44328">
        <ele>676.2</ele>
        <time>2022-09-04T08:39:10Z</time>
      </trkpt>
      <trkpt lat="43.27514" lon="-1.44331">
        <ele>676.2</ele>
        <time>2022-09-04T08:39:11Z</time>
      </trkpt>
      <trkpt lat="43.27511" lon="-1.44334">
        <ele>676.2</ele>
        <time>2022-09-04T08:39:12Z</time>
      </trkpt>
      <trkpt lat="43.27509" lon="-1.44337">
        <ele>676.2</ele>
        <time>2022-09-04T08:39:13Z</time>
      </trkpt>
      <trkpt lat="43.27506" lon="-1.4434">
        <ele>676.3</ele>
        <time>2022-09-04T08:39:14Z</time>
      </trkpt>
      <trkpt lat="43.27501" lon="-1.44343">
        <ele>676.4</ele>
        <time>2022-09-04T08:39:15Z</time>
      </trkpt>
      <trkpt lat="43.27497" lon="-1.44346">
        <ele>676.5</ele>
        <time>2022-09-04T08:39:16Z</time>
      </trkpt>
      <trkpt lat="43.27493" lon="-1.44348">
        <ele>676.7</ele>
        <time>2022-09-04T08:39:17Z</time>
      </trkpt>
      <trkpt lat="43.27489" lon="-1.4435">
        <ele>676.9</ele>
        <time>2022-09-04T08:39:18Z</time>
      </trkpt>
      <trkpt lat="43.27484" lon="-1.44351">
        <ele>677.1</ele>
        <time>2022-09-04T08:39:19Z</time>
      </trkpt>
      <trkpt lat="43.27481" lon="-1.44351">
        <ele>677.4</ele>
        <time>2022-09-04T08:39:20Z</time>
      </trkpt>
      <trkpt lat="43.27478" lon="-1.44352">
        <ele>677.6</ele>
        <time>2022-09-04T08:39:21Z</time>
      </trkpt>
      <trkpt lat="43.27475" lon="-1.44354">
        <ele>677.8</ele>
        <time>2022-09-04T08:39:22Z</time>
      </trkpt>
      <trkpt lat="43.27473" lon="-1.44356">
        <ele>678</ele>
        <time>2022-09-04T08:39:23Z</time>
      </trkpt>
      <trkpt lat="43.2747" lon="-1.44358">
        <ele>678.2</ele>
        <time>2022-09-04T08:39:24Z</time>
      </trkpt>
      <trkpt lat="43.27467" lon="-1.44361">
        <ele>678.5</ele>
        <time>2022-09-04T08:39:25Z</time>
      </trkpt>
      <trkpt lat="43.27466" lon="-1.44362">
        <ele>678.7</ele>
        <time>2022-09-04T08:39:26Z</time>
      </trkpt>
      <trkpt lat="43.27463" lon="-1.44365">
        <ele>678.9</ele>
        <time>2022-09-04T08:39:27Z</time>
      </trkpt>
      <trkpt lat="43.27461" lon="-1.44367">
        <ele>679.2</ele>
        <time>2022-09-04T08:39:28Z</time>
      </trkpt>
      <trkpt lat="43.27458" lon="-1.44369">
        <ele>679.4</ele>
        <time>2022-09-04T08:39:29Z</time>
      </trkpt>
      <trkpt lat="43.27456" lon="-1.44372">
        <ele>679.6</ele>
        <time>2022-09-04T08:39:30Z</time>
      </trkpt>
      <trkpt lat="43.27453" lon="-1.44374">
        <ele>679.9</ele>
        <time>2022-09-04T08:39:31Z</time>
      </trkpt>
      <trkpt lat="43.2745" lon="-1.44376">
        <ele>680.1</ele>
        <time>2022-09-04T08:39:32Z</time>
      </trkpt>
      <trkpt lat="43.27447" lon="-1.44379">
        <ele>680.4</ele>
        <time>2022-09-04T08:39:33Z</time>
      </trkpt>
      <trkpt lat="43.27444" lon="-1.44381">
        <ele>680.5</ele>
        <time>2022-09-04T08:39:34Z</time>
      </trkpt>
      <trkpt lat="43.2744" lon="-1.44383">
        <ele>680.7</ele>
        <time>2022-09-04T08:39:35Z</time>
      </trkpt>
      <trkpt lat="43.27439" lon="-1.44384">
        <ele>680.8</ele>
        <time>2022-09-04T08:39:36Z</time>
      </trkpt>
      <trkpt lat="43.27436" lon="-1.44386">
        <ele>680.9</ele>
        <time>2022-09-04T08:39:37Z</time>
      </trkpt>
      <trkpt lat="43.27433" lon="-1.44388">
        <ele>680.9</ele>
        <time>2022-09-04T08:39:38Z</time>
      </trkpt>
      <trkpt lat="43.27429" lon="-1.44389">
        <ele>680.9</ele>
        <time>2022-09-04T08:39:39Z</time>
      </trkpt>
      <trkpt lat="43.27426" lon="-1.44391">
        <ele>680.9</ele>
        <time>2022-09-04T08:39:40Z</time>
      </trkpt>
      <trkpt lat="43.27424" lon="-1.44393">
        <ele>680.9</ele>
        <time>2022-09-04T08:39:41Z</time>
      </trkpt>
      <trkpt lat="43.2742" lon="-1.44394">
        <ele>680.9</ele>
        <time>2022-09-04T08:39:42Z</time>
      </trkpt>
      <trkpt lat="43.27419" lon="-1.44395">
        <ele>680.9</ele>
        <time>2022-09-04T08:39:43Z</time>
      </trkpt>
      <trkpt lat="43.27415" lon="-1.44395">
        <ele>680.9</ele>
        <time>2022-09-04T08:39:44Z</time>
      </trkpt>
      <trkpt lat="43.27414" lon="-1.44395">
        <ele>680.9</ele>
        <time>2022-09-04T08:39:45Z</time>
      </trkpt>
      <trkpt lat="43.2741" lon="-1.44396">
        <ele>680.9</ele>
        <time>2022-09-04T08:39:46Z</time>
      </trkpt>
      <trkpt lat="43.27406" lon="-1.44397">
        <ele>680.9</ele>
        <time>2022-09-04T08:39:47Z</time>
      </trkpt>
      <trkpt lat="43.27403" lon="-1.44397">
        <ele>680.9</ele>
        <time>2022-09-04T08:39:48Z</time>
      </trkpt>
      <trkpt lat="43.27399" lon="-1.44398">
        <ele>681</ele>
        <time>2022-09-04T08:39:49Z</time>
      </trkpt>
      <trkpt lat="43.27396" lon="-1.444">
        <ele>681</ele>
        <time>2022-09-04T08:39:50Z</time>
      </trkpt>
      <trkpt lat="43.27392" lon="-1.44403">
        <ele>681.1</ele>
        <time>2022-09-04T08:39:51Z</time>
      </trkpt>
      <trkpt lat="43.27388" lon="-1.44406">
        <ele>681.3</ele>
        <time>2022-09-04T08:39:52Z</time>
      </trkpt>
      <trkpt lat="43.27385" lon="-1.44409">
        <ele>681.5</ele>
        <time>2022-09-04T08:39:53Z</time>
      </trkpt>
      <trkpt lat="43.27382" lon="-1.44412">
        <ele>681.7</ele>
        <time>2022-09-04T08:39:54Z</time>
      </trkpt>
      <trkpt lat="43.27378" lon="-1.44415">
        <ele>681.9</ele>
        <time>2022-09-04T08:39:55Z</time>
      </trkpt>
      <trkpt lat="43.27375" lon="-1.44417">
        <ele>682.1</ele>
        <time>2022-09-04T08:39:56Z</time>
      </trkpt>
      <trkpt lat="43.27372" lon="-1.4442">
        <ele>682.3</ele>
        <time>2022-09-04T08:39:57Z</time>
      </trkpt>
      <trkpt lat="43.27369" lon="-1.44422">
        <ele>682.6</ele>
        <time>2022-09-04T08:39:58Z</time>
      </trkpt>
      <trkpt lat="43.27366" lon="-1.44425">
        <ele>682.8</ele>
        <time>2022-09-04T08:39:59Z</time>
      </trkpt>
      <trkpt lat="43.27364" lon="-1.44428">
        <ele>683</ele>
        <time>2022-09-04T08:40:00Z</time>
      </trkpt>
      <trkpt lat="43.27361" lon="-1.4443">
        <ele>683.2</ele>
        <time>2022-09-04T08:40:01Z</time>
      </trkpt>
      <trkpt lat="43.27359" lon="-1.44432">
        <ele>683.4</ele>
        <time>2022-09-04T08:40:02Z</time>
      </trkpt>
      <trkpt lat="43.27356" lon="-1.44435">
        <ele>683.6</ele>
        <time>2022-09-04T08:40:03Z</time>
      </trkpt>
      <trkpt lat="43.27354" lon="-1.44436">
        <ele>683.7</ele>
        <time>2022-09-04T08:40:04Z</time>
      </trkpt>
      <trkpt lat="43.27352" lon="-1.44439">
        <ele>683.8</ele>
        <time>2022-09-04T08:40:05Z</time>
      </trkpt>
      <trkpt lat="43.2735" lon="-1.4444">
        <ele>684</ele>
        <time>2022-09-04T08:40:06Z</time>
      </trkpt>
      <trkpt lat="43.27347" lon="-1.44442">
        <ele>684.1</ele>
        <time>2022-09-04T08:40:07Z</time>
      </trkpt>
      <trkpt lat="43.27344" lon="-1.44444">
        <ele>684.2</ele>
        <time>2022-09-04T08:40:08Z</time>
      </trkpt>
      <trkpt lat="43.27342" lon="-1.44448">
        <ele>684.3</ele>
        <time>2022-09-04T08:40:09Z</time>
      </trkpt>
      <trkpt lat="43.27341" lon="-1.44449">
        <ele>684.3</ele>
        <time>2022-09-04T08:40:10Z</time>
      </trkpt>
      <trkpt lat="43.27339" lon="-1.44452">
        <ele>684.3</ele>
        <time>2022-09-04T08:40:11Z</time>
      </trkpt>
      <trkpt lat="43.27336" lon="-1.44455">
        <ele>684.3</ele>
        <time>2022-09-04T08:40:12Z</time>
      </trkpt>
      <trkpt lat="43.27335" lon="-1.44456">
        <ele>684.3</ele>
        <time>2022-09-04T08:40:13Z</time>
      </trkpt>
      <trkpt lat="43.27333" lon="-1.44458">
        <ele>684.2</ele>
        <time>2022-09-04T08:40:14Z</time>
      </trkpt>
      <trkpt lat="43.2733" lon="-1.44461">
        <ele>684.2</ele>
        <time>2022-09-04T08:40:15Z</time>
      </trkpt>
      <trkpt lat="43.27327" lon="-1.44464">
        <ele>684.1</ele>
        <time>2022-09-04T08:40:16Z</time>
      </trkpt>
      <trkpt lat="43.27324" lon="-1.44466">
        <ele>684</ele>
        <time>2022-09-04T08:40:17Z</time>
      </trkpt>
      <trkpt lat="43.27321" lon="-1.44468">
        <ele>683.8</ele>
        <time>2022-09-04T08:40:18Z</time>
      </trkpt>
      <trkpt lat="43.27318" lon="-1.4447">
        <ele>683.7</ele>
        <time>2022-09-04T08:40:19Z</time>
      </trkpt>
      <trkpt lat="43.27314" lon="-1.44471">
        <ele>683.6</ele>
        <time>2022-09-04T08:40:20Z</time>
      </trkpt>
      <trkpt lat="43.27311" lon="-1.44474">
        <ele>683.6</ele>
        <time>2022-09-04T08:40:21Z</time>
      </trkpt>
      <trkpt lat="43.27308" lon="-1.44477">
        <ele>683.6</ele>
        <time>2022-09-04T08:40:22Z</time>
      </trkpt>
      <trkpt lat="43.27304" lon="-1.44479">
        <ele>683.6</ele>
        <time>2022-09-04T08:40:23Z</time>
      </trkpt>
      <trkpt lat="43.27301" lon="-1.44482">
        <ele>683.6</ele>
        <time>2022-09-04T08:40:24Z</time>
      </trkpt>
      <trkpt lat="43.27297" lon="-1.44484">
        <ele>683.6</ele>
        <time>2022-09-04T08:40:25Z</time>
      </trkpt>
      <trkpt lat="43.27293" lon="-1.44487">
        <ele>683.6</ele>
        <time>2022-09-04T08:40:26Z</time>
      </trkpt>
      <trkpt lat="43.27289" lon="-1.44489">
        <ele>683.5</ele>
        <time>2022-09-04T08:40:27Z</time>
      </trkpt>
      <trkpt lat="43.27286" lon="-1.4449">
        <ele>683.4</ele>
        <time>2022-09-04T08:40:28Z</time>
      </trkpt>
      <trkpt lat="43.27282" lon="-1.44492">
        <ele>683.3</ele>
        <time>2022-09-04T08:40:29Z</time>
      </trkpt>
      <trkpt lat="43.27279" lon="-1.44493">
        <ele>683.2</ele>
        <time>2022-09-04T08:40:30Z</time>
      </trkpt>
      <trkpt lat="43.27275" lon="-1.44494">
        <ele>683.1</ele>
        <time>2022-09-04T08:40:31Z</time>
      </trkpt>
      <trkpt lat="43.27272" lon="-1.44496">
        <ele>683</ele>
        <time>2022-09-04T08:40:32Z</time>
      </trkpt>
      <trkpt lat="43.27268" lon="-1.44497">
        <ele>682.9</ele>
        <time>2022-09-04T08:40:33Z</time>
      </trkpt>
      <trkpt lat="43.27265" lon="-1.44499">
        <ele>682.8</ele>
        <time>2022-09-04T08:40:34Z</time>
      </trkpt>
      <trkpt lat="43.27262" lon="-1.44501">
        <ele>682.7</ele>
        <time>2022-09-04T08:40:35Z</time>
      </trkpt>
      <trkpt lat="43.27259" lon="-1.44503">
        <ele>682.4</ele>
        <time>2022-09-04T08:40:36Z</time>
      </trkpt>
      <trkpt lat="43.27255" lon="-1.44506">
        <ele>682.1</ele>
        <time>2022-09-04T08:40:37Z</time>
      </trkpt>
      <trkpt lat="43.27251" lon="-1.44508">
        <ele>681.8</ele>
        <time>2022-09-04T08:40:38Z</time>
      </trkpt>
      <trkpt lat="43.27246" lon="-1.44509">
        <ele>681.2</ele>
        <time>2022-09-04T08:40:39Z</time>
      </trkpt>
      <trkpt lat="43.27241" lon="-1.44511">
        <ele>680.7</ele>
        <time>2022-09-04T08:40:40Z</time>
      </trkpt>
      <trkpt lat="43.27236" lon="-1.44514">
        <ele>680</ele>
        <time>2022-09-04T08:40:41Z</time>
      </trkpt>
      <trkpt lat="43.27231" lon="-1.44516">
        <ele>679.3</ele>
        <time>2022-09-04T08:40:42Z</time>
      </trkpt>
      <trkpt lat="43.27225" lon="-1.44519">
        <ele>678.6</ele>
        <time>2022-09-04T08:40:43Z</time>
      </trkpt>
      <trkpt lat="43.27219" lon="-1.44523">
        <ele>677.8</ele>
        <time>2022-09-04T08:40:44Z</time>
      </trkpt>
      <trkpt lat="43.27214" lon="-1.44526">
        <ele>677</ele>
        <time>2022-09-04T08:40:45Z</time>
      </trkpt>
      <trkpt lat="43.27208" lon="-1.44528">
        <ele>676.2</ele>
        <time>2022-09-04T08:40:46Z</time>
      </trkpt>
      <trkpt lat="43.27202" lon="-1.44529">
        <ele>675.4</ele>
        <time>2022-09-04T08:40:47Z</time>
      </trkpt>
      <trkpt lat="43.27195" lon="-1.4453">
        <ele>674.4</ele>
        <time>2022-09-04T08:40:48Z</time>
      </trkpt>
      <trkpt lat="43.27189" lon="-1.44531">
        <ele>673.4</ele>
        <time>2022-09-04T08:40:49Z</time>
      </trkpt>
      <trkpt lat="43.27181" lon="-1.44532">
        <ele>672.2</ele>
        <time>2022-09-04T08:40:50Z</time>
      </trkpt>
      <trkpt lat="43.27174" lon="-1.44534">
        <ele>671</ele>
        <time>2022-09-04T08:40:51Z</time>
      </trkpt>
      <trkpt lat="43.27165" lon="-1.44535">
        <ele>669.8</ele>
        <time>2022-09-04T08:40:52Z</time>
      </trkpt>
      <trkpt lat="43.27157" lon="-1.44536">
        <ele>668.7</ele>
        <time>2022-09-04T08:40:53Z</time>
      </trkpt>
      <trkpt lat="43.27148" lon="-1.44537">
        <ele>667.6</ele>
        <time>2022-09-04T08:40:54Z</time>
      </trkpt>
      <trkpt lat="43.27139" lon="-1.44537">
        <ele>666.6</ele>
        <time>2022-09-04T08:40:55Z</time>
      </trkpt>
      <trkpt lat="43.27131" lon="-1.44538">
        <ele>665.8</ele>
        <time>2022-09-04T08:40:56Z</time>
      </trkpt>
      <trkpt lat="43.27122" lon="-1.4454">
        <ele>665</ele>
        <time>2022-09-04T08:40:57Z</time>
      </trkpt>
      <trkpt lat="43.27114" lon="-1.44542">
        <ele>664.3</ele>
        <time>2022-09-04T08:40:58Z</time>
      </trkpt>
      <trkpt lat="43.27105" lon="-1.44543">
        <ele>663.7</ele>
        <time>2022-09-04T08:40:59Z</time>
      </trkpt>
      <trkpt lat="43.27096" lon="-1.44545">
        <ele>663.1</ele>
        <time>2022-09-04T08:41:00Z</time>
      </trkpt>
      <trkpt lat="43.27088" lon="-1.44546">
        <ele>662.6</ele>
        <time>2022-09-04T08:41:01Z</time>
      </trkpt>
      <trkpt lat="43.2708" lon="-1.44548">
        <ele>662.2</ele>
        <time>2022-09-04T08:41:02Z</time>
      </trkpt>
      <trkpt lat="43.27072" lon="-1.44549">
        <ele>661.8</ele>
        <time>2022-09-04T08:41:03Z</time>
      </trkpt>
      <trkpt lat="43.27064" lon="-1.4455">
        <ele>661.4</ele>
        <time>2022-09-04T08:41:04Z</time>
      </trkpt>
      <trkpt lat="43.27057" lon="-1.44552">
        <ele>661.1</ele>
        <time>2022-09-04T08:41:05Z</time>
      </trkpt>
      <trkpt lat="43.2705" lon="-1.44553">
        <ele>660.8</ele>
        <time>2022-09-04T08:41:06Z</time>
      </trkpt>
      <trkpt lat="43.27044" lon="-1.44554">
        <ele>660.6</ele>
        <time>2022-09-04T08:41:07Z</time>
      </trkpt>
      <trkpt lat="43.27038" lon="-1.44555">
        <ele>660.5</ele>
        <time>2022-09-04T08:41:08Z</time>
      </trkpt>
      <trkpt lat="43.27032" lon="-1.44556">
        <ele>660.3</ele>
        <time>2022-09-04T08:41:09Z</time>
      </trkpt>
      <trkpt lat="43.27027" lon="-1.44558">
        <ele>660.1</ele>
        <time>2022-09-04T08:41:10Z</time>
      </trkpt>
      <trkpt lat="43.27021" lon="-1.44559">
        <ele>659.9</ele>
        <time>2022-09-04T08:41:11Z</time>
      </trkpt>
      <trkpt lat="43.27015" lon="-1.44559">
        <ele>659.6</ele>
        <time>2022-09-04T08:41:12Z</time>
      </trkpt>
      <trkpt lat="43.27009" lon="-1.4456">
        <ele>659.3</ele>
        <time>2022-09-04T08:41:13Z</time>
      </trkpt>
      <trkpt lat="43.27003" lon="-1.44561">
        <ele>659</ele>
        <time>2022-09-04T08:41:14Z</time>
      </trkpt>
      <trkpt lat="43.26997" lon="-1.44563">
        <ele>658.7</ele>
        <time>2022-09-04T08:41:15Z</time>
      </trkpt>
      <trkpt lat="43.26991" lon="-1.44565">
        <ele>658.4</ele>
        <time>2022-09-04T08:41:16Z</time>
      </trkpt>
      <trkpt lat="43.26985" lon="-1.44567">
        <ele>658.1</ele>
        <time>2022-09-04T08:41:17Z</time>
      </trkpt>
      <trkpt lat="43.26979" lon="-1.4457">
        <ele>657.8</ele>
        <time>2022-09-04T08:41:18Z</time>
      </trkpt>
      <trkpt lat="43.26973" lon="-1.44574">
        <ele>657.5</ele>
        <time>2022-09-04T08:41:19Z</time>
      </trkpt>
      <trkpt lat="43.26968" lon="-1.44577">
        <ele>657.2</ele>
        <time>2022-09-04T08:41:20Z</time>
      </trkpt>
      <trkpt lat="43.26962" lon="-1.4458">
        <ele>657</ele>
        <time>2022-09-04T08:41:21Z</time>
      </trkpt>
      <trkpt lat="43.26957" lon="-1.44583">
        <ele>656.8</ele>
        <time>2022-09-04T08:41:22Z</time>
      </trkpt>
      <trkpt lat="43.26951" lon="-1.44586">
        <ele>656.6</ele>
        <time>2022-09-04T08:41:23Z</time>
      </trkpt>
      <trkpt lat="43.26946" lon="-1.4459">
        <ele>656.5</ele>
        <time>2022-09-04T08:41:24Z</time>
      </trkpt>
      <trkpt lat="43.26941" lon="-1.44594">
        <ele>656.4</ele>
        <time>2022-09-04T08:41:25Z</time>
      </trkpt>
      <trkpt lat="43.26937" lon="-1.44597">
        <ele>656.4</ele>
        <time>2022-09-04T08:41:26Z</time>
      </trkpt>
      <trkpt lat="43.26933" lon="-1.44601">
        <ele>656.3</ele>
        <time>2022-09-04T08:41:27Z</time>
      </trkpt>
      <trkpt lat="43.26929" lon="-1.44604">
        <ele>656.1</ele>
        <time>2022-09-04T08:41:28Z</time>
      </trkpt>
      <trkpt lat="43.26925" lon="-1.44607">
        <ele>656</ele>
        <time>2022-09-04T08:41:29Z</time>
      </trkpt>
      <trkpt lat="43.26921" lon="-1.44611">
        <ele>655.7</ele>
        <time>2022-09-04T08:41:30Z</time>
      </trkpt>
      <trkpt lat="43.26916" lon="-1.44614">
        <ele>655.5</ele>
        <time>2022-09-04T08:41:31Z</time>
      </trkpt>
      <trkpt lat="43.26911" lon="-1.44616">
        <ele>655.1</ele>
        <time>2022-09-04T08:41:32Z</time>
      </trkpt>
      <trkpt lat="43.26907" lon="-1.44618">
        <ele>654.8</ele>
        <time>2022-09-04T08:41:33Z</time>
      </trkpt>
      <trkpt lat="43.26902" lon="-1.4462">
        <ele>654.3</ele>
        <time>2022-09-04T08:41:34Z</time>
      </trkpt>
      <trkpt lat="43.26898" lon="-1.44624">
        <ele>653.7</ele>
        <time>2022-09-04T08:41:35Z</time>
      </trkpt>
      <trkpt lat="43.26893" lon="-1.44627">
        <ele>653.1</ele>
        <time>2022-09-04T08:41:36Z</time>
      </trkpt>
      <trkpt lat="43.26887" lon="-1.4463">
        <ele>652.2</ele>
        <time>2022-09-04T08:41:37Z</time>
      </trkpt>
      <trkpt lat="43.26882" lon="-1.44633">
        <ele>651.3</ele>
        <time>2022-09-04T08:41:38Z</time>
      </trkpt>
      <trkpt lat="43.26876" lon="-1.44636">
        <ele>650.2</ele>
        <time>2022-09-04T08:41:39Z</time>
      </trkpt>
      <trkpt lat="43.2687" lon="-1.4464">
        <ele>649</ele>
        <time>2022-09-04T08:41:40Z</time>
      </trkpt>
      <trkpt lat="43.26864" lon="-1.44644">
        <ele>647.8</ele>
        <time>2022-09-04T08:41:41Z</time>
      </trkpt>
      <trkpt lat="43.26857" lon="-1.44649">
        <ele>646.6</ele>
        <time>2022-09-04T08:41:42Z</time>
      </trkpt>
      <trkpt lat="43.2685" lon="-1.44657">
        <ele>645.5</ele>
        <time>2022-09-04T08:41:43Z</time>
      </trkpt>
      <trkpt lat="43.26844" lon="-1.44665">
        <ele>644.5</ele>
        <time>2022-09-04T08:41:44Z</time>
      </trkpt>
      <trkpt lat="43.26837" lon="-1.44675">
        <ele>644</ele>
        <time>2022-09-04T08:41:45Z</time>
      </trkpt>
      <trkpt lat="43.26831" lon="-1.44684">
        <ele>644.1</ele>
        <time>2022-09-04T08:41:46Z</time>
      </trkpt>
      <trkpt lat="43.26827" lon="-1.44693">
        <ele>644.3</ele>
        <time>2022-09-04T08:41:47Z</time>
      </trkpt>
      <trkpt lat="43.26822" lon="-1.44702">
        <ele>644.5</ele>
        <time>2022-09-04T08:41:48Z</time>
      </trkpt>
      <trkpt lat="43.26818" lon="-1.44711">
        <ele>644.7</ele>
        <time>2022-09-04T08:41:49Z</time>
      </trkpt>
      <trkpt lat="43.26816" lon="-1.44719">
        <ele>644.9</ele>
        <time>2022-09-04T08:41:50Z</time>
      </trkpt>
      <trkpt lat="43.26813" lon="-1.44726">
        <ele>645.2</ele>
        <time>2022-09-04T08:41:51Z</time>
      </trkpt>
      <trkpt lat="43.26812" lon="-1.44733">
        <ele>645.4</ele>
        <time>2022-09-04T08:41:52Z</time>
      </trkpt>
      <trkpt lat="43.2681" lon="-1.44739">
        <ele>645.7</ele>
        <time>2022-09-04T08:41:53Z</time>
      </trkpt>
      <trkpt lat="43.26807" lon="-1.44745">
        <ele>646</ele>
        <time>2022-09-04T08:41:54Z</time>
      </trkpt>
      <trkpt lat="43.26806" lon="-1.4475">
        <ele>646.3</ele>
        <time>2022-09-04T08:41:55Z</time>
      </trkpt>
      <trkpt lat="43.26805" lon="-1.44755">
        <ele>646.6</ele>
        <time>2022-09-04T08:41:56Z</time>
      </trkpt>
      <trkpt lat="43.26804" lon="-1.44759">
        <ele>646.8</ele>
        <time>2022-09-04T08:41:57Z</time>
      </trkpt>
      <trkpt lat="43.26803" lon="-1.44762">
        <ele>647</ele>
        <time>2022-09-04T08:41:58Z</time>
      </trkpt>
      <trkpt lat="43.26802" lon="-1.44766">
        <ele>647.2</ele>
        <time>2022-09-04T08:41:59Z</time>
      </trkpt>
      <trkpt lat="43.26801" lon="-1.4477">
        <ele>647.4</ele>
        <time>2022-09-04T08:42:00Z</time>
      </trkpt>
      <trkpt lat="43.26801" lon="-1.44774">
        <ele>647.6</ele>
        <time>2022-09-04T08:42:01Z</time>
      </trkpt>
      <trkpt lat="43.26801" lon="-1.44778">
        <ele>647.8</ele>
        <time>2022-09-04T08:42:02Z</time>
      </trkpt>
      <trkpt lat="43.26801" lon="-1.4478">
        <ele>647.9</ele>
        <time>2022-09-04T08:42:03Z</time>
      </trkpt>
      <trkpt lat="43.26801" lon="-1.44785">
        <ele>648.2</ele>
        <time>2022-09-04T08:42:04Z</time>
      </trkpt>
      <trkpt lat="43.26801" lon="-1.44787">
        <ele>648.2</ele>
        <time>2022-09-04T08:42:05Z</time>
      </trkpt>
      <trkpt lat="43.268" lon="-1.44792">
        <ele>648.5</ele>
        <time>2022-09-04T08:42:06Z</time>
      </trkpt>
      <trkpt lat="43.268" lon="-1.44793">
        <ele>648.6</ele>
        <time>2022-09-04T08:42:07Z</time>
      </trkpt>
      <trkpt lat="43.268" lon="-1.44797">
        <ele>648.7</ele>
        <time>2022-09-04T08:42:08Z</time>
      </trkpt>
      <trkpt lat="43.268" lon="-1.44801">
        <ele>648.9</ele>
        <time>2022-09-04T08:42:09Z</time>
      </trkpt>
      <trkpt lat="43.268" lon="-1.44806">
        <ele>649.1</ele>
        <time>2022-09-04T08:42:10Z</time>
      </trkpt>
      <trkpt lat="43.268" lon="-1.44808">
        <ele>649.1</ele>
        <time>2022-09-04T08:42:11Z</time>
      </trkpt>
      <trkpt lat="43.26801" lon="-1.44811">
        <ele>649.3</ele>
        <time>2022-09-04T08:42:12Z</time>
      </trkpt>
      <trkpt lat="43.26801" lon="-1.44815">
        <ele>649.4</ele>
        <time>2022-09-04T08:42:13Z</time>
      </trkpt>
      <trkpt lat="43.26802" lon="-1.4482">
        <ele>649.5</ele>
        <time>2022-09-04T08:42:14Z</time>
      </trkpt>
      <trkpt lat="43.26802" lon="-1.44822">
        <ele>649.5</ele>
        <time>2022-09-04T08:42:15Z</time>
      </trkpt>
      <trkpt lat="43.26803" lon="-1.44826">
        <ele>649.6</ele>
        <time>2022-09-04T08:42:16Z</time>
      </trkpt>
      <trkpt lat="43.26803" lon="-1.44827">
        <ele>649.6</ele>
        <time>2022-09-04T08:42:17Z</time>
      </trkpt>
      <trkpt lat="43.26803" lon="-1.44831">
        <ele>649.7</ele>
        <time>2022-09-04T08:42:18Z</time>
      </trkpt>
      <trkpt lat="43.26803" lon="-1.44832">
        <ele>649.7</ele>
        <time>2022-09-04T08:42:19Z</time>
      </trkpt>
      <trkpt lat="43.26804" lon="-1.44836">
        <ele>649.7</ele>
        <time>2022-09-04T08:42:20Z</time>
      </trkpt>
      <trkpt lat="43.26804" lon="-1.44837">
        <ele>649.7</ele>
        <time>2022-09-04T08:42:21Z</time>
      </trkpt>
      <trkpt lat="43.26805" lon="-1.44841">
        <ele>649.6</ele>
        <time>2022-09-04T08:42:22Z</time>
      </trkpt>
      <trkpt lat="43.26805" lon="-1.44842">
        <ele>649.6</ele>
        <time>2022-09-04T08:42:23Z</time>
      </trkpt>
      <trkpt lat="43.26805" lon="-1.44847">
        <ele>649.5</ele>
        <time>2022-09-04T08:42:24Z</time>
      </trkpt>
      <trkpt lat="43.26805" lon="-1.44848">
        <ele>649.5</ele>
        <time>2022-09-04T08:42:25Z</time>
      </trkpt>
      <trkpt lat="43.26805" lon="-1.4485">
        <ele>649.5</ele>
        <time>2022-09-04T08:42:26Z</time>
      </trkpt>
      <trkpt lat="43.26805" lon="-1.44853">
        <ele>649.4</ele>
        <time>2022-09-04T08:42:27Z</time>
      </trkpt>
      <trkpt lat="43.26805" lon="-1.44854">
        <ele>649.4</ele>
        <time>2022-09-04T08:42:28Z</time>
      </trkpt>
      <trkpt lat="43.26805" lon="-1.44855">
        <ele>649.3</ele>
        <time>2022-09-04T08:42:29Z</time>
      </trkpt>
      <trkpt lat="43.26805" lon="-1.44856">
        <ele>649.3</ele>
        <time>2022-09-04T08:42:30Z</time>
      </trkpt>
      <trkpt lat="43.26805" lon="-1.44857">
        <ele>649.3</ele>
        <time>2022-09-04T08:42:31Z</time>
      </trkpt>
      <trkpt lat="43.26805" lon="-1.44858">
        <ele>649.3</ele>
        <time>2022-09-04T08:42:32Z</time>
      </trkpt>
      <trkpt lat="43.26805" lon="-1.44858">
        <ele>649.2</ele>
        <time>2022-09-04T08:42:33Z</time>
      </trkpt>
      <trkpt lat="43.26805" lon="-1.44859">
        <ele>649.2</ele>
        <time>2022-09-04T08:42:34Z</time>
      </trkpt>
      <trkpt lat="43.26805" lon="-1.4486">
        <ele>649.2</ele>
        <time>2022-09-04T08:42:35Z</time>
      </trkpt>
      <trkpt lat="43.26805" lon="-1.44861">
        <ele>649.1</ele>
        <time>2022-09-04T08:42:36Z</time>
      </trkpt>
      <trkpt lat="43.26805" lon="-1.44862">
        <ele>649.1</ele>
        <time>2022-09-04T08:42:37Z</time>
      </trkpt>
      <trkpt lat="43.26805" lon="-1.44862">
        <ele>649.1</ele>
        <time>2022-09-04T08:42:38Z</time>
      </trkpt>
      <trkpt lat="43.26805" lon="-1.44863">
        <ele>649</ele>
        <time>2022-09-04T08:42:39Z</time>
      </trkpt>
      <trkpt lat="43.26805" lon="-1.44864">
        <ele>649</ele>
        <time>2022-09-04T08:44:01Z</time>
      </trkpt>
      <trkpt lat="43.26805" lon="-1.44865">
        <ele>649</ele>
        <time>2022-09-04T08:44:02Z</time>
      </trkpt>
      <trkpt lat="43.26805" lon="-1.44866">
        <ele>648.9</ele>
        <time>2022-09-04T08:44:03Z</time>
      </trkpt>
      <trkpt lat="43.26805" lon="-1.4487">
        <ele>648.7</ele>
        <time>2022-09-04T08:44:04Z</time>
      </trkpt>
      <trkpt lat="43.26805" lon="-1.44875">
        <ele>648.5</ele>
        <time>2022-09-04T08:44:05Z</time>
      </trkpt>
      <trkpt lat="43.26805" lon="-1.44879">
        <ele>648.3</ele>
        <time>2022-09-04T08:44:06Z</time>
      </trkpt>
      <trkpt lat="43.26805" lon="-1.44886">
        <ele>648</ele>
        <time>2022-09-04T08:44:07Z</time>
      </trkpt>
      <trkpt lat="43.26805" lon="-1.44892">
        <ele>647.6</ele>
        <time>2022-09-04T08:44:08Z</time>
      </trkpt>
      <trkpt lat="43.26804" lon="-1.449">
        <ele>647.2</ele>
        <time>2022-09-04T08:44:09Z</time>
      </trkpt>
      <trkpt lat="43.26803" lon="-1.44908">
        <ele>646.8</ele>
        <time>2022-09-04T08:44:10Z</time>
      </trkpt>
      <trkpt lat="43.268" lon="-1.44916">
        <ele>646.5</ele>
        <time>2022-09-04T08:44:11Z</time>
      </trkpt>
      <trkpt lat="43.26798" lon="-1.44924">
        <ele>646.3</ele>
        <time>2022-09-04T08:44:12Z</time>
      </trkpt>
      <trkpt lat="43.26795" lon="-1.44931">
        <ele>646.2</ele>
        <time>2022-09-04T08:44:13Z</time>
      </trkpt>
      <trkpt lat="43.26791" lon="-1.44938">
        <ele>646.2</ele>
        <time>2022-09-04T08:44:14Z</time>
      </trkpt>
      <trkpt lat="43.26788" lon="-1.44944">
        <ele>646.2</ele>
        <time>2022-09-04T08:44:15Z</time>
      </trkpt>
      <trkpt lat="43.26785" lon="-1.4495">
        <ele>646.3</ele>
        <time>2022-09-04T08:44:16Z</time>
      </trkpt>
      <trkpt lat="43.26782" lon="-1.44956">
        <ele>646.5</ele>
        <time>2022-09-04T08:44:17Z</time>
      </trkpt>
      <trkpt lat="43.26778" lon="-1.44961">
        <ele>646.7</ele>
        <time>2022-09-04T08:44:18Z</time>
      </trkpt>
      <trkpt lat="43.26775" lon="-1.44965">
        <ele>646.8</ele>
        <time>2022-09-04T08:44:19Z</time>
      </trkpt>
      <trkpt lat="43.26772" lon="-1.44969">
        <ele>647</ele>
        <time>2022-09-04T08:44:20Z</time>
      </trkpt>
      <trkpt lat="43.26769" lon="-1.44973">
        <ele>647.2</ele>
        <time>2022-09-04T08:44:21Z</time>
      </trkpt>
      <trkpt lat="43.26766" lon="-1.44977">
        <ele>647.3</ele>
        <time>2022-09-04T08:44:22Z</time>
      </trkpt>
      <trkpt lat="43.26762" lon="-1.44981">
        <ele>647.6</ele>
        <time>2022-09-04T08:44:23Z</time>
      </trkpt>
      <trkpt lat="43.2676" lon="-1.44985">
        <ele>647.8</ele>
        <time>2022-09-04T08:44:24Z</time>
      </trkpt>
      <trkpt lat="43.26757" lon="-1.44989">
        <ele>648</ele>
        <time>2022-09-04T08:44:25Z</time>
      </trkpt>
      <trkpt lat="43.26754" lon="-1.44992">
        <ele>648.3</ele>
        <time>2022-09-04T08:44:26Z</time>
      </trkpt>
      <trkpt lat="43.26751" lon="-1.44996">
        <ele>648.6</ele>
        <time>2022-09-04T08:44:27Z</time>
      </trkpt>
      <trkpt lat="43.26748" lon="-1.44999">
        <ele>648.8</ele>
        <time>2022-09-04T08:44:28Z</time>
      </trkpt>
      <trkpt lat="43.26746" lon="-1.45002">
        <ele>649.1</ele>
        <time>2022-09-04T08:44:29Z</time>
      </trkpt>
      <trkpt lat="43.26743" lon="-1.45005">
        <ele>649.3</ele>
        <time>2022-09-04T08:44:30Z</time>
      </trkpt>
      <trkpt lat="43.26741" lon="-1.45008">
        <ele>649.5</ele>
        <time>2022-09-04T08:44:31Z</time>
      </trkpt>
      <trkpt lat="43.26739" lon="-1.45011">
        <ele>649.8</ele>
        <time>2022-09-04T08:44:32Z</time>
      </trkpt>
      <trkpt lat="43.26736" lon="-1.45014">
        <ele>650</ele>
        <time>2022-09-04T08:44:33Z</time>
      </trkpt>
      <trkpt lat="43.26734" lon="-1.45018">
        <ele>650.3</ele>
        <time>2022-09-04T08:44:34Z</time>
      </trkpt>
      <trkpt lat="43.26731" lon="-1.4502">
        <ele>650.5</ele>
        <time>2022-09-04T08:44:35Z</time>
      </trkpt>
      <trkpt lat="43.26729" lon="-1.45023">
        <ele>650.8</ele>
        <time>2022-09-04T08:44:36Z</time>
      </trkpt>
      <trkpt lat="43.26726" lon="-1.45026">
        <ele>651</ele>
        <time>2022-09-04T08:44:37Z</time>
      </trkpt>
      <trkpt lat="43.26724" lon="-1.45028">
        <ele>651.3</ele>
        <time>2022-09-04T08:44:38Z</time>
      </trkpt>
      <trkpt lat="43.26721" lon="-1.45031">
        <ele>651.5</ele>
        <time>2022-09-04T08:44:39Z</time>
      </trkpt>
      <trkpt lat="43.26718" lon="-1.45033">
        <ele>651.8</ele>
        <time>2022-09-04T08:44:40Z</time>
      </trkpt>
      <trkpt lat="43.26715" lon="-1.45035">
        <ele>652</ele>
        <time>2022-09-04T08:44:41Z</time>
      </trkpt>
      <trkpt lat="43.26712" lon="-1.45037">
        <ele>652.2</ele>
        <time>2022-09-04T08:44:42Z</time>
      </trkpt>
      <trkpt lat="43.2671" lon="-1.45039">
        <ele>652.4</ele>
        <time>2022-09-04T08:44:43Z</time>
      </trkpt>
      <trkpt lat="43.26707" lon="-1.4504">
        <ele>652.5</ele>
        <time>2022-09-04T08:44:44Z</time>
      </trkpt>
      <trkpt lat="43.26704" lon="-1.45041">
        <ele>652.7</ele>
        <time>2022-09-04T08:44:45Z</time>
      </trkpt>
      <trkpt lat="43.26701" lon="-1.45042">
        <ele>652.9</ele>
        <time>2022-09-04T08:44:46Z</time>
      </trkpt>
      <trkpt lat="43.26697" lon="-1.45042">
        <ele>653</ele>
        <time>2022-09-04T08:44:47Z</time>
      </trkpt>
      <trkpt lat="43.26694" lon="-1.45043">
        <ele>653.2</ele>
        <time>2022-09-04T08:44:48Z</time>
      </trkpt>
      <trkpt lat="43.26691" lon="-1.45043">
        <ele>653.3</ele>
        <time>2022-09-04T08:44:49Z</time>
      </trkpt>
      <trkpt lat="43.26688" lon="-1.45043">
        <ele>653.4</ele>
        <time>2022-09-04T08:44:50Z</time>
      </trkpt>
      <trkpt lat="43.26685" lon="-1.45043">
        <ele>653.6</ele>
        <time>2022-09-04T08:44:51Z</time>
      </trkpt>
      <trkpt lat="43.26681" lon="-1.45043">
        <ele>653.7</ele>
        <time>2022-09-04T08:44:52Z</time>
      </trkpt>
      <trkpt lat="43.26678" lon="-1.45042">
        <ele>653.8</ele>
        <time>2022-09-04T08:44:53Z</time>
      </trkpt>
      <trkpt lat="43.26675" lon="-1.45042">
        <ele>653.9</ele>
        <time>2022-09-04T08:44:54Z</time>
      </trkpt>
      <trkpt lat="43.26671" lon="-1.45041">
        <ele>654</ele>
        <time>2022-09-04T08:44:55Z</time>
      </trkpt>
      <trkpt lat="43.26668" lon="-1.45041">
        <ele>654.1</ele>
        <time>2022-09-04T08:44:56Z</time>
      </trkpt>
      <trkpt lat="43.26665" lon="-1.4504">
        <ele>654.2</ele>
        <time>2022-09-04T08:44:57Z</time>
      </trkpt>
      <trkpt lat="43.26663" lon="-1.4504">
        <ele>654.3</ele>
        <time>2022-09-04T08:44:58Z</time>
      </trkpt>
      <trkpt lat="43.26659" lon="-1.4504">
        <ele>654.4</ele>
        <time>2022-09-04T08:44:59Z</time>
      </trkpt>
      <trkpt lat="43.26656" lon="-1.45039">
        <ele>654.5</ele>
        <time>2022-09-04T08:45:00Z</time>
      </trkpt>
      <trkpt lat="43.26653" lon="-1.45039">
        <ele>654.6</ele>
        <time>2022-09-04T08:45:01Z</time>
      </trkpt>
      <trkpt lat="43.2665" lon="-1.45039">
        <ele>654.7</ele>
        <time>2022-09-04T08:45:02Z</time>
      </trkpt>
      <trkpt lat="43.26647" lon="-1.45039">
        <ele>654.8</ele>
        <time>2022-09-04T08:45:03Z</time>
      </trkpt>
      <trkpt lat="43.26644" lon="-1.45039">
        <ele>654.9</ele>
        <time>2022-09-04T08:45:04Z</time>
      </trkpt>
      <trkpt lat="43.26641" lon="-1.45038">
        <ele>655</ele>
        <time>2022-09-04T08:45:05Z</time>
      </trkpt>
      <trkpt lat="43.26638" lon="-1.45037">
        <ele>655.1</ele>
        <time>2022-09-04T08:45:06Z</time>
      </trkpt>
      <trkpt lat="43.26634" lon="-1.45037">
        <ele>655.3</ele>
        <time>2022-09-04T08:45:07Z</time>
      </trkpt>
      <trkpt lat="43.26633" lon="-1.45036">
        <ele>655.3</ele>
        <time>2022-09-04T08:45:08Z</time>
      </trkpt>
      <trkpt lat="43.2663" lon="-1.45036">
        <ele>655.5</ele>
        <time>2022-09-04T08:45:09Z</time>
      </trkpt>
      <trkpt lat="43.26628" lon="-1.45036">
        <ele>655.5</ele>
        <time>2022-09-04T08:45:10Z</time>
      </trkpt>
      <trkpt lat="43.26624" lon="-1.45034">
        <ele>655.7</ele>
        <time>2022-09-04T08:45:11Z</time>
      </trkpt>
      <trkpt lat="43.26623" lon="-1.45034">
        <ele>655.8</ele>
        <time>2022-09-04T08:45:12Z</time>
      </trkpt>
      <trkpt lat="43.2662" lon="-1.45033">
        <ele>655.9</ele>
        <time>2022-09-04T08:45:13Z</time>
      </trkpt>
      <trkpt lat="43.26616" lon="-1.45032">
        <ele>656.1</ele>
        <time>2022-09-04T08:45:14Z</time>
      </trkpt>
      <trkpt lat="43.26615" lon="-1.45032">
        <ele>656.1</ele>
        <time>2022-09-04T08:45:15Z</time>
      </trkpt>
      <trkpt lat="43.26612" lon="-1.45032">
        <ele>656.3</ele>
        <time>2022-09-04T08:45:16Z</time>
      </trkpt>
      <trkpt lat="43.26609" lon="-1.45032">
        <ele>656.4</ele>
        <time>2022-09-04T08:45:17Z</time>
      </trkpt>
      <trkpt lat="43.26606" lon="-1.45031">
        <ele>656.5</ele>
        <time>2022-09-04T08:45:18Z</time>
      </trkpt>
      <trkpt lat="43.26603" lon="-1.45031">
        <ele>656.7</ele>
        <time>2022-09-04T08:45:19Z</time>
      </trkpt>
      <trkpt lat="43.266" lon="-1.45031">
        <ele>656.8</ele>
        <time>2022-09-04T08:45:20Z</time>
      </trkpt>
      <trkpt lat="43.26598" lon="-1.45031">
        <ele>656.9</ele>
        <time>2022-09-04T08:45:21Z</time>
      </trkpt>
      <trkpt lat="43.26594" lon="-1.4503">
        <ele>657.1</ele>
        <time>2022-09-04T08:45:22Z</time>
      </trkpt>
      <trkpt lat="43.26593" lon="-1.4503">
        <ele>657.2</ele>
        <time>2022-09-04T08:45:23Z</time>
      </trkpt>
      <trkpt lat="43.26589" lon="-1.4503">
        <ele>657.4</ele>
        <time>2022-09-04T08:45:24Z</time>
      </trkpt>
      <trkpt lat="43.26588" lon="-1.4503">
        <ele>657.5</ele>
        <time>2022-09-04T08:45:25Z</time>
      </trkpt>
      <trkpt lat="43.26585" lon="-1.4503">
        <ele>657.6</ele>
        <time>2022-09-04T08:45:26Z</time>
      </trkpt>
      <trkpt lat="43.26581" lon="-1.45029">
        <ele>657.8</ele>
        <time>2022-09-04T08:45:27Z</time>
      </trkpt>
      <trkpt lat="43.26578" lon="-1.45029">
        <ele>658</ele>
        <time>2022-09-04T08:45:28Z</time>
      </trkpt>
      <trkpt lat="43.26575" lon="-1.45028">
        <ele>658.1</ele>
        <time>2022-09-04T08:45:29Z</time>
      </trkpt>
      <trkpt lat="43.26571" lon="-1.45028">
        <ele>658.3</ele>
        <time>2022-09-04T08:45:30Z</time>
      </trkpt>
      <trkpt lat="43.26569" lon="-1.45028">
        <ele>658.4</ele>
        <time>2022-09-04T08:45:31Z</time>
      </trkpt>
      <trkpt lat="43.26566" lon="-1.45028">
        <ele>658.6</ele>
        <time>2022-09-04T08:45:32Z</time>
      </trkpt>
      <trkpt lat="43.26562" lon="-1.45028">
        <ele>658.8</ele>
        <time>2022-09-04T08:45:33Z</time>
      </trkpt>
      <trkpt lat="43.26558" lon="-1.45029">
        <ele>658.9</ele>
        <time>2022-09-04T08:45:34Z</time>
      </trkpt>
      <trkpt lat="43.26555" lon="-1.45029">
        <ele>659.1</ele>
        <time>2022-09-04T08:45:35Z</time>
      </trkpt>
      <trkpt lat="43.26552" lon="-1.4503">
        <ele>659.3</ele>
        <time>2022-09-04T08:45:36Z</time>
      </trkpt>
      <trkpt lat="43.26548" lon="-1.45031">
        <ele>659.4</ele>
        <time>2022-09-04T08:45:37Z</time>
      </trkpt>
      <trkpt lat="43.26544" lon="-1.45031">
        <ele>659.6</ele>
        <time>2022-09-04T08:45:38Z</time>
      </trkpt>
      <trkpt lat="43.2654" lon="-1.45032">
        <ele>659.8</ele>
        <time>2022-09-04T08:45:39Z</time>
      </trkpt>
      <trkpt lat="43.26537" lon="-1.45033">
        <ele>660</ele>
        <time>2022-09-04T08:45:40Z</time>
      </trkpt>
      <trkpt lat="43.26533" lon="-1.45035">
        <ele>660.2</ele>
        <time>2022-09-04T08:45:41Z</time>
      </trkpt>
      <trkpt lat="43.2653" lon="-1.45036">
        <ele>660.3</ele>
        <time>2022-09-04T08:45:42Z</time>
      </trkpt>
      <trkpt lat="43.26527" lon="-1.45037">
        <ele>660.5</ele>
        <time>2022-09-04T08:45:43Z</time>
      </trkpt>
      <trkpt lat="43.26523" lon="-1.45038">
        <ele>660.6</ele>
        <time>2022-09-04T08:45:44Z</time>
      </trkpt>
      <trkpt lat="43.2652" lon="-1.4504">
        <ele>660.7</ele>
        <time>2022-09-04T08:45:45Z</time>
      </trkpt>
      <trkpt lat="43.26517" lon="-1.45041">
        <ele>660.9</ele>
        <time>2022-09-04T08:45:46Z</time>
      </trkpt>
      <trkpt lat="43.26514" lon="-1.45043">
        <ele>661</ele>
        <time>2022-09-04T08:45:47Z</time>
      </trkpt>
      <trkpt lat="43.26508" lon="-1.45046">
        <ele>661.2</ele>
        <time>2022-09-04T08:45:49Z</time>
      </trkpt>
      <trkpt lat="43.26505" lon="-1.45048">
        <ele>661.4</ele>
        <time>2022-09-04T08:45:50Z</time>
      </trkpt>
      <trkpt lat="43.26502" lon="-1.4505">
        <ele>661.5</ele>
        <time>2022-09-04T08:45:51Z</time>
      </trkpt>
      <trkpt lat="43.265" lon="-1.45052">
        <ele>661.6</ele>
        <time>2022-09-04T08:45:52Z</time>
      </trkpt>
      <trkpt lat="43.26497" lon="-1.45054">
        <ele>661.7</ele>
        <time>2022-09-04T08:45:53Z</time>
      </trkpt>
      <trkpt lat="43.26494" lon="-1.45056">
        <ele>661.9</ele>
        <time>2022-09-04T08:45:54Z</time>
      </trkpt>
      <trkpt lat="43.2649" lon="-1.45058">
        <ele>662</ele>
        <time>2022-09-04T08:45:55Z</time>
      </trkpt>
      <trkpt lat="43.26487" lon="-1.4506">
        <ele>662.1</ele>
        <time>2022-09-04T08:45:56Z</time>
      </trkpt>
      <trkpt lat="43.26484" lon="-1.45062">
        <ele>662.2</ele>
        <time>2022-09-04T08:45:57Z</time>
      </trkpt>
      <trkpt lat="43.26481" lon="-1.45065">
        <ele>662.4</ele>
        <time>2022-09-04T08:45:58Z</time>
      </trkpt>
      <trkpt lat="43.26478" lon="-1.45067">
        <ele>662.5</ele>
        <time>2022-09-04T08:45:59Z</time>
      </trkpt>
      <trkpt lat="43.26475" lon="-1.45068">
        <ele>662.6</ele>
        <time>2022-09-04T08:46:00Z</time>
      </trkpt>
      <trkpt lat="43.26472" lon="-1.4507">
        <ele>662.7</ele>
        <time>2022-09-04T08:46:01Z</time>
      </trkpt>
      <trkpt lat="43.26469" lon="-1.45072">
        <ele>662.8</ele>
        <time>2022-09-04T08:46:02Z</time>
      </trkpt>
      <trkpt lat="43.26466" lon="-1.45074">
        <ele>662.9</ele>
        <time>2022-09-04T08:46:03Z</time>
      </trkpt>
      <trkpt lat="43.26463" lon="-1.45076">
        <ele>663</ele>
        <time>2022-09-04T08:46:04Z</time>
      </trkpt>
      <trkpt lat="43.26459" lon="-1.45078">
        <ele>663.1</ele>
        <time>2022-09-04T08:46:05Z</time>
      </trkpt>
      <trkpt lat="43.26456" lon="-1.45079">
        <ele>663.2</ele>
        <time>2022-09-04T08:46:06Z</time>
      </trkpt>
      <trkpt lat="43.26452" lon="-1.4508">
        <ele>663.3</ele>
        <time>2022-09-04T08:46:07Z</time>
      </trkpt>
      <trkpt lat="43.26449" lon="-1.45082">
        <ele>663.5</ele>
        <time>2022-09-04T08:46:08Z</time>
      </trkpt>
      <trkpt lat="43.26445" lon="-1.45083">
        <ele>663.6</ele>
        <time>2022-09-04T08:46:09Z</time>
      </trkpt>
      <trkpt lat="43.26442" lon="-1.45084">
        <ele>663.7</ele>
        <time>2022-09-04T08:46:10Z</time>
      </trkpt>
      <trkpt lat="43.26438" lon="-1.45085">
        <ele>663.9</ele>
        <time>2022-09-04T08:46:11Z</time>
      </trkpt>
      <trkpt lat="43.26435" lon="-1.45087">
        <ele>664</ele>
        <time>2022-09-04T08:46:12Z</time>
      </trkpt>
      <trkpt lat="43.26432" lon="-1.45088">
        <ele>664.2</ele>
        <time>2022-09-04T08:46:13Z</time>
      </trkpt>
      <trkpt lat="43.26428" lon="-1.45089">
        <ele>664.3</ele>
        <time>2022-09-04T08:46:14Z</time>
      </trkpt>
      <trkpt lat="43.26425" lon="-1.4509">
        <ele>664.4</ele>
        <time>2022-09-04T08:46:15Z</time>
      </trkpt>
      <trkpt lat="43.26422" lon="-1.45092">
        <ele>664.6</ele>
        <time>2022-09-04T08:46:16Z</time>
      </trkpt>
      <trkpt lat="43.26418" lon="-1.45094">
        <ele>664.7</ele>
        <time>2022-09-04T08:46:17Z</time>
      </trkpt>
      <trkpt lat="43.26415" lon="-1.45095">
        <ele>664.9</ele>
        <time>2022-09-04T08:46:18Z</time>
      </trkpt>
      <trkpt lat="43.26412" lon="-1.45097">
        <ele>665</ele>
        <time>2022-09-04T08:46:19Z</time>
      </trkpt>
      <trkpt lat="43.26408" lon="-1.45099">
        <ele>665.2</ele>
        <time>2022-09-04T08:46:20Z</time>
      </trkpt>
      <trkpt lat="43.26405" lon="-1.45101">
        <ele>665.4</ele>
        <time>2022-09-04T08:46:21Z</time>
      </trkpt>
      <trkpt lat="43.26402" lon="-1.45104">
        <ele>665.6</ele>
        <time>2022-09-04T08:46:22Z</time>
      </trkpt>
      <trkpt lat="43.26399" lon="-1.45106">
        <ele>665.7</ele>
        <time>2022-09-04T08:46:23Z</time>
      </trkpt>
      <trkpt lat="43.26397" lon="-1.45109">
        <ele>665.9</ele>
        <time>2022-09-04T08:46:24Z</time>
      </trkpt>
      <trkpt lat="43.26395" lon="-1.45112">
        <ele>666.1</ele>
        <time>2022-09-04T08:46:25Z</time>
      </trkpt>
      <trkpt lat="43.26393" lon="-1.45115">
        <ele>666.2</ele>
        <time>2022-09-04T08:46:26Z</time>
      </trkpt>
      <trkpt lat="43.2639" lon="-1.45118">
        <ele>666.4</ele>
        <time>2022-09-04T08:46:27Z</time>
      </trkpt>
      <trkpt lat="43.26386" lon="-1.4512">
        <ele>666.6</ele>
        <time>2022-09-04T08:46:28Z</time>
      </trkpt>
      <trkpt lat="43.26383" lon="-1.45123">
        <ele>666.8</ele>
        <time>2022-09-04T08:46:29Z</time>
      </trkpt>
      <trkpt lat="43.2638" lon="-1.45126">
        <ele>666.9</ele>
        <time>2022-09-04T08:46:30Z</time>
      </trkpt>
      <trkpt lat="43.26377" lon="-1.45128">
        <ele>667</ele>
        <time>2022-09-04T08:46:31Z</time>
      </trkpt>
      <trkpt lat="43.26374" lon="-1.4513">
        <ele>667.1</ele>
        <time>2022-09-04T08:46:32Z</time>
      </trkpt>
      <trkpt lat="43.26371" lon="-1.45133">
        <ele>667.3</ele>
        <time>2022-09-04T08:46:33Z</time>
      </trkpt>
      <trkpt lat="43.26368" lon="-1.45135">
        <ele>667.4</ele>
        <time>2022-09-04T08:46:34Z</time>
      </trkpt>
      <trkpt lat="43.26365" lon="-1.45137">
        <ele>667.5</ele>
        <time>2022-09-04T08:46:35Z</time>
      </trkpt>
      <trkpt lat="43.26361" lon="-1.4514">
        <ele>667.6</ele>
        <time>2022-09-04T08:46:36Z</time>
      </trkpt>
      <trkpt lat="43.26358" lon="-1.45143">
        <ele>667.7</ele>
        <time>2022-09-04T08:46:37Z</time>
      </trkpt>
      <trkpt lat="43.26355" lon="-1.45145">
        <ele>667.7</ele>
        <time>2022-09-04T08:46:38Z</time>
      </trkpt>
      <trkpt lat="43.26352" lon="-1.45147">
        <ele>667.8</ele>
        <time>2022-09-04T08:46:39Z</time>
      </trkpt>
      <trkpt lat="43.26349" lon="-1.45149">
        <ele>667.8</ele>
        <time>2022-09-04T08:46:40Z</time>
      </trkpt>
      <trkpt lat="43.26345" lon="-1.45152">
        <ele>667.8</ele>
        <time>2022-09-04T08:46:41Z</time>
      </trkpt>
      <trkpt lat="43.2634" lon="-1.45154">
        <ele>667.7</ele>
        <time>2022-09-04T08:46:42Z</time>
      </trkpt>
      <trkpt lat="43.26336" lon="-1.45156">
        <ele>667.6</ele>
        <time>2022-09-04T08:46:43Z</time>
      </trkpt>
      <trkpt lat="43.26331" lon="-1.45159">
        <ele>667.5</ele>
        <time>2022-09-04T08:46:44Z</time>
      </trkpt>
      <trkpt lat="43.26326" lon="-1.45161">
        <ele>667.4</ele>
        <time>2022-09-04T08:46:45Z</time>
      </trkpt>
      <trkpt lat="43.26321" lon="-1.45165">
        <ele>667.3</ele>
        <time>2022-09-04T08:46:46Z</time>
      </trkpt>
      <trkpt lat="43.26317" lon="-1.4517">
        <ele>667.2</ele>
        <time>2022-09-04T08:46:47Z</time>
      </trkpt>
      <trkpt lat="43.26313" lon="-1.45175">
        <ele>667.2</ele>
        <time>2022-09-04T08:46:48Z</time>
      </trkpt>
      <trkpt lat="43.26309" lon="-1.45181">
        <ele>667.2</ele>
        <time>2022-09-04T08:46:49Z</time>
      </trkpt>
      <trkpt lat="43.26306" lon="-1.45188">
        <ele>667.2</ele>
        <time>2022-09-04T08:46:50Z</time>
      </trkpt>
      <trkpt lat="43.26304" lon="-1.45194">
        <ele>667.2</ele>
        <time>2022-09-04T08:46:51Z</time>
      </trkpt>
      <trkpt lat="43.26301" lon="-1.452">
        <ele>667.2</ele>
        <time>2022-09-04T08:46:52Z</time>
      </trkpt>
      <trkpt lat="43.263" lon="-1.45206">
        <ele>667.3</ele>
        <time>2022-09-04T08:46:53Z</time>
      </trkpt>
      <trkpt lat="43.26298" lon="-1.45211">
        <ele>667.3</ele>
        <time>2022-09-04T08:46:54Z</time>
      </trkpt>
      <trkpt lat="43.26297" lon="-1.45216">
        <ele>667.4</ele>
        <time>2022-09-04T08:46:55Z</time>
      </trkpt>
      <trkpt lat="43.26296" lon="-1.45221">
        <ele>667.5</ele>
        <time>2022-09-04T08:46:56Z</time>
      </trkpt>
      <trkpt lat="43.26294" lon="-1.45226">
        <ele>667.6</ele>
        <time>2022-09-04T08:46:57Z</time>
      </trkpt>
      <trkpt lat="43.26293" lon="-1.45231">
        <ele>667.8</ele>
        <time>2022-09-04T08:46:58Z</time>
      </trkpt>
      <trkpt lat="43.26291" lon="-1.45236">
        <ele>667.9</ele>
        <time>2022-09-04T08:46:59Z</time>
      </trkpt>
      <trkpt lat="43.26289" lon="-1.45241">
        <ele>668.1</ele>
        <time>2022-09-04T08:47:00Z</time>
      </trkpt>
      <trkpt lat="43.26286" lon="-1.45245">
        <ele>668.2</ele>
        <time>2022-09-04T08:47:01Z</time>
      </trkpt>
      <trkpt lat="43.26284" lon="-1.45249">
        <ele>668.4</ele>
        <time>2022-09-04T08:47:02Z</time>
      </trkpt>
      <trkpt lat="43.26281" lon="-1.45254">
        <ele>668.6</ele>
        <time>2022-09-04T08:47:03Z</time>
      </trkpt>
      <trkpt lat="43.26278" lon="-1.45258">
        <ele>668.8</ele>
        <time>2022-09-04T08:47:04Z</time>
      </trkpt>
      <trkpt lat="43.26275" lon="-1.45262">
        <ele>668.9</ele>
        <time>2022-09-04T08:47:05Z</time>
      </trkpt>
      <trkpt lat="43.26273" lon="-1.45266">
        <ele>669.1</ele>
        <time>2022-09-04T08:47:06Z</time>
      </trkpt>
      <trkpt lat="43.2627" lon="-1.45269">
        <ele>669.2</ele>
        <time>2022-09-04T08:47:07Z</time>
      </trkpt>
      <trkpt lat="43.26268" lon="-1.45273">
        <ele>669.4</ele>
        <time>2022-09-04T08:47:08Z</time>
      </trkpt>
      <trkpt lat="43.26265" lon="-1.45277">
        <ele>669.5</ele>
        <time>2022-09-04T08:47:09Z</time>
      </trkpt>
      <trkpt lat="43.26262" lon="-1.45281">
        <ele>669.7</ele>
        <time>2022-09-04T08:47:10Z</time>
      </trkpt>
      <trkpt lat="43.26259" lon="-1.45284">
        <ele>669.9</ele>
        <time>2022-09-04T08:47:11Z</time>
      </trkpt>
      <trkpt lat="43.26253" lon="-1.45291">
        <ele>670.2</ele>
        <time>2022-09-04T08:47:13Z</time>
      </trkpt>
      <trkpt lat="43.26251" lon="-1.45295">
        <ele>670.3</ele>
        <time>2022-09-04T08:47:14Z</time>
      </trkpt>
      <trkpt lat="43.26248" lon="-1.45298">
        <ele>670.4</ele>
        <time>2022-09-04T08:47:15Z</time>
      </trkpt>
      <trkpt lat="43.26244" lon="-1.45301">
        <ele>670.4</ele>
        <time>2022-09-04T08:47:16Z</time>
      </trkpt>
      <trkpt lat="43.26242" lon="-1.45305">
        <ele>670.4</ele>
        <time>2022-09-04T08:47:17Z</time>
      </trkpt>
      <trkpt lat="43.26239" lon="-1.45309">
        <ele>670.4</ele>
        <time>2022-09-04T08:47:18Z</time>
      </trkpt>
      <trkpt lat="43.26236" lon="-1.45314">
        <ele>670.3</ele>
        <time>2022-09-04T08:47:19Z</time>
      </trkpt>
      <trkpt lat="43.26232" lon="-1.4532">
        <ele>670.2</ele>
        <time>2022-09-04T08:47:20Z</time>
      </trkpt>
      <trkpt lat="43.26229" lon="-1.45328">
        <ele>670.1</ele>
        <time>2022-09-04T08:47:21Z</time>
      </trkpt>
      <trkpt lat="43.26226" lon="-1.45336">
        <ele>670</ele>
        <time>2022-09-04T08:47:22Z</time>
      </trkpt>
      <trkpt lat="43.26223" lon="-1.45343">
        <ele>669.9</ele>
        <time>2022-09-04T08:47:23Z</time>
      </trkpt>
      <trkpt lat="43.26221" lon="-1.45351">
        <ele>669.9</ele>
        <time>2022-09-04T08:47:24Z</time>
      </trkpt>
      <trkpt lat="43.26219" lon="-1.45358">
        <ele>670</ele>
        <time>2022-09-04T08:47:25Z</time>
      </trkpt>
      <trkpt lat="43.26217" lon="-1.45365">
        <ele>670</ele>
        <time>2022-09-04T08:47:26Z</time>
      </trkpt>
      <trkpt lat="43.26215" lon="-1.45372">
        <ele>670.1</ele>
        <time>2022-09-04T08:47:27Z</time>
      </trkpt>
      <trkpt lat="43.26214" lon="-1.45379">
        <ele>670.2</ele>
        <time>2022-09-04T08:47:28Z</time>
      </trkpt>
      <trkpt lat="43.26213" lon="-1.45386">
        <ele>670.2</ele>
        <time>2022-09-04T08:47:29Z</time>
      </trkpt>
      <trkpt lat="43.26212" lon="-1.45393">
        <ele>670.3</ele>
        <time>2022-09-04T08:47:30Z</time>
      </trkpt>
      <trkpt lat="43.26211" lon="-1.454">
        <ele>670.4</ele>
        <time>2022-09-04T08:47:31Z</time>
      </trkpt>
      <trkpt lat="43.2621" lon="-1.45407">
        <ele>670.5</ele>
        <time>2022-09-04T08:47:32Z</time>
      </trkpt>
      <trkpt lat="43.26209" lon="-1.45413">
        <ele>670.6</ele>
        <time>2022-09-04T08:47:33Z</time>
      </trkpt>
      <trkpt lat="43.26209" lon="-1.45419">
        <ele>670.7</ele>
        <time>2022-09-04T08:47:34Z</time>
      </trkpt>
      <trkpt lat="43.26209" lon="-1.45426">
        <ele>670.7</ele>
        <time>2022-09-04T08:47:35Z</time>
      </trkpt>
      <trkpt lat="43.26209" lon="-1.45432">
        <ele>670.7</ele>
        <time>2022-09-04T08:47:36Z</time>
      </trkpt>
      <trkpt lat="43.2621" lon="-1.45437">
        <ele>670.8</ele>
        <time>2022-09-04T08:47:37Z</time>
      </trkpt>
      <trkpt lat="43.2621" lon="-1.45443">
        <ele>670.8</ele>
        <time>2022-09-04T08:47:38Z</time>
      </trkpt>
      <trkpt lat="43.2621" lon="-1.4545">
        <ele>670.8</ele>
        <time>2022-09-04T08:47:39Z</time>
      </trkpt>
      <trkpt lat="43.2621" lon="-1.45456">
        <ele>670.8</ele>
        <time>2022-09-04T08:47:40Z</time>
      </trkpt>
      <trkpt lat="43.2621" lon="-1.45462">
        <ele>670.8</ele>
        <time>2022-09-04T08:47:41Z</time>
      </trkpt>
      <trkpt lat="43.26211" lon="-1.45468">
        <ele>670.9</ele>
        <time>2022-09-04T08:47:42Z</time>
      </trkpt>
      <trkpt lat="43.26211" lon="-1.45473">
        <ele>670.9</ele>
        <time>2022-09-04T08:47:43Z</time>
      </trkpt>
      <trkpt lat="43.26211" lon="-1.4548">
        <ele>670.9</ele>
        <time>2022-09-04T08:47:44Z</time>
      </trkpt>
      <trkpt lat="43.26212" lon="-1.45486">
        <ele>671</ele>
        <time>2022-09-04T08:47:45Z</time>
      </trkpt>
      <trkpt lat="43.26212" lon="-1.45492">
        <ele>671</ele>
        <time>2022-09-04T08:47:46Z</time>
      </trkpt>
      <trkpt lat="43.26213" lon="-1.45498">
        <ele>671.1</ele>
        <time>2022-09-04T08:47:47Z</time>
      </trkpt>
      <trkpt lat="43.26214" lon="-1.45504">
        <ele>671.2</ele>
        <time>2022-09-04T08:47:48Z</time>
      </trkpt>
      <trkpt lat="43.26215" lon="-1.45509">
        <ele>671.2</ele>
        <time>2022-09-04T08:47:49Z</time>
      </trkpt>
      <trkpt lat="43.26217" lon="-1.45515">
        <ele>671.3</ele>
        <time>2022-09-04T08:47:50Z</time>
      </trkpt>
      <trkpt lat="43.26218" lon="-1.45521">
        <ele>671.4</ele>
        <time>2022-09-04T08:47:51Z</time>
      </trkpt>
      <trkpt lat="43.2622" lon="-1.45527">
        <ele>671.5</ele>
        <time>2022-09-04T08:47:52Z</time>
      </trkpt>
      <trkpt lat="43.26222" lon="-1.45534">
        <ele>671.5</ele>
        <time>2022-09-04T08:47:53Z</time>
      </trkpt>
      <trkpt lat="43.26223" lon="-1.4554">
        <ele>671.6</ele>
        <time>2022-09-04T08:47:54Z</time>
      </trkpt>
      <trkpt lat="43.26224" lon="-1.45547">
        <ele>671.7</ele>
        <time>2022-09-04T08:47:55Z</time>
      </trkpt>
      <trkpt lat="43.26225" lon="-1.45554">
        <ele>671.7</ele>
        <time>2022-09-04T08:47:56Z</time>
      </trkpt>
      <trkpt lat="43.26225" lon="-1.4556">
        <ele>671.8</ele>
        <time>2022-09-04T08:47:57Z</time>
      </trkpt>
      <trkpt lat="43.26224" lon="-1.45567">
        <ele>671.8</ele>
        <time>2022-09-04T08:47:58Z</time>
      </trkpt>
      <trkpt lat="43.26224" lon="-1.45574">
        <ele>671.9</ele>
        <time>2022-09-04T08:47:59Z</time>
      </trkpt>
      <trkpt lat="43.26222" lon="-1.45581">
        <ele>671.9</ele>
        <time>2022-09-04T08:48:00Z</time>
      </trkpt>
      <trkpt lat="43.26221" lon="-1.45588">
        <ele>672</ele>
        <time>2022-09-04T08:48:01Z</time>
      </trkpt>
      <trkpt lat="43.26219" lon="-1.45595">
        <ele>672</ele>
        <time>2022-09-04T08:48:02Z</time>
      </trkpt>
      <trkpt lat="43.26217" lon="-1.45601">
        <ele>672</ele>
        <time>2022-09-04T08:48:03Z</time>
      </trkpt>
      <trkpt lat="43.26215" lon="-1.45606">
        <ele>672.1</ele>
        <time>2022-09-04T08:48:04Z</time>
      </trkpt>
      <trkpt lat="43.26213" lon="-1.45613">
        <ele>672.1</ele>
        <time>2022-09-04T08:48:05Z</time>
      </trkpt>
      <trkpt lat="43.26212" lon="-1.45619">
        <ele>672.2</ele>
        <time>2022-09-04T08:48:06Z</time>
      </trkpt>
      <trkpt lat="43.2621" lon="-1.45625">
        <ele>672.2</ele>
        <time>2022-09-04T08:48:07Z</time>
      </trkpt>
      <trkpt lat="43.26208" lon="-1.45631">
        <ele>672.3</ele>
        <time>2022-09-04T08:48:08Z</time>
      </trkpt>
      <trkpt lat="43.26207" lon="-1.45637">
        <ele>672.3</ele>
        <time>2022-09-04T08:48:09Z</time>
      </trkpt>
      <trkpt lat="43.26205" lon="-1.45644">
        <ele>672.4</ele>
        <time>2022-09-04T08:48:10Z</time>
      </trkpt>
      <trkpt lat="43.26203" lon="-1.4565">
        <ele>672.5</ele>
        <time>2022-09-04T08:48:11Z</time>
      </trkpt>
      <trkpt lat="43.26201" lon="-1.45656">
        <ele>672.5</ele>
        <time>2022-09-04T08:48:12Z</time>
      </trkpt>
      <trkpt lat="43.262" lon="-1.4566">
        <ele>672.6</ele>
        <time>2022-09-04T08:48:13Z</time>
      </trkpt>
      <trkpt lat="43.26198" lon="-1.45664">
        <ele>672.7</ele>
        <time>2022-09-04T08:48:14Z</time>
      </trkpt>
      <trkpt lat="43.26197" lon="-1.45669">
        <ele>672.8</ele>
        <time>2022-09-04T08:48:15Z</time>
      </trkpt>
      <trkpt lat="43.26195" lon="-1.45673">
        <ele>672.8</ele>
        <time>2022-09-04T08:48:16Z</time>
      </trkpt>
      <trkpt lat="43.26192" lon="-1.45678">
        <ele>672.9</ele>
        <time>2022-09-04T08:48:17Z</time>
      </trkpt>
      <trkpt lat="43.26189" lon="-1.45681">
        <ele>673</ele>
        <time>2022-09-04T08:48:18Z</time>
      </trkpt>
      <trkpt lat="43.26186" lon="-1.45684">
        <ele>673.1</ele>
        <time>2022-09-04T08:48:19Z</time>
      </trkpt>
      <trkpt lat="43.26182" lon="-1.45686">
        <ele>673.3</ele>
        <time>2022-09-04T08:48:20Z</time>
      </trkpt>
      <trkpt lat="43.26178" lon="-1.45687">
        <ele>673.4</ele>
        <time>2022-09-04T08:48:21Z</time>
      </trkpt>
      <trkpt lat="43.26174" lon="-1.45688">
        <ele>673.5</ele>
        <time>2022-09-04T08:48:22Z</time>
      </trkpt>
      <trkpt lat="43.26171" lon="-1.45689">
        <ele>673.6</ele>
        <time>2022-09-04T08:48:23Z</time>
      </trkpt>
      <trkpt lat="43.26167" lon="-1.4569">
        <ele>673.7</ele>
        <time>2022-09-04T08:48:24Z</time>
      </trkpt>
      <trkpt lat="43.26163" lon="-1.4569">
        <ele>673.8</ele>
        <time>2022-09-04T08:48:25Z</time>
      </trkpt>
      <trkpt lat="43.26159" lon="-1.4569">
        <ele>673.9</ele>
        <time>2022-09-04T08:48:26Z</time>
      </trkpt>
      <trkpt lat="43.26156" lon="-1.45689">
        <ele>673.9</ele>
        <time>2022-09-04T08:48:27Z</time>
      </trkpt>
      <trkpt lat="43.26152" lon="-1.45688">
        <ele>674</ele>
        <time>2022-09-04T08:48:28Z</time>
      </trkpt>
      <trkpt lat="43.26148" lon="-1.45686">
        <ele>674</ele>
        <time>2022-09-04T08:48:29Z</time>
      </trkpt>
      <trkpt lat="43.26143" lon="-1.45684">
        <ele>674.1</ele>
        <time>2022-09-04T08:48:30Z</time>
      </trkpt>
      <trkpt lat="43.26139" lon="-1.45682">
        <ele>674.1</ele>
        <time>2022-09-04T08:48:31Z</time>
      </trkpt>
      <trkpt lat="43.26135" lon="-1.4568">
        <ele>674.1</ele>
        <time>2022-09-04T08:48:32Z</time>
      </trkpt>
      <trkpt lat="43.2613" lon="-1.45679">
        <ele>674.1</ele>
        <time>2022-09-04T08:48:33Z</time>
      </trkpt>
      <trkpt lat="43.26126" lon="-1.45677">
        <ele>674.1</ele>
        <time>2022-09-04T08:48:34Z</time>
      </trkpt>
      <trkpt lat="43.26121" lon="-1.45676">
        <ele>674.1</ele>
        <time>2022-09-04T08:48:35Z</time>
      </trkpt>
      <trkpt lat="43.26117" lon="-1.45674">
        <ele>674.1</ele>
        <time>2022-09-04T08:48:36Z</time>
      </trkpt>
      <trkpt lat="43.26113" lon="-1.45673">
        <ele>674.1</ele>
        <time>2022-09-04T08:48:37Z</time>
      </trkpt>
      <trkpt lat="43.26109" lon="-1.45671">
        <ele>674.1</ele>
        <time>2022-09-04T08:48:38Z</time>
      </trkpt>
      <trkpt lat="43.26104" lon="-1.45669">
        <ele>674.1</ele>
        <time>2022-09-04T08:48:39Z</time>
      </trkpt>
      <trkpt lat="43.261" lon="-1.45667">
        <ele>674.1</ele>
        <time>2022-09-04T08:48:40Z</time>
      </trkpt>
      <trkpt lat="43.26095" lon="-1.45666">
        <ele>674.1</ele>
        <time>2022-09-04T08:48:41Z</time>
      </trkpt>
      <trkpt lat="43.2609" lon="-1.45664">
        <ele>674.2</ele>
        <time>2022-09-04T08:48:42Z</time>
      </trkpt>
      <trkpt lat="43.26085" lon="-1.45662">
        <ele>674.2</ele>
        <time>2022-09-04T08:48:43Z</time>
      </trkpt>
      <trkpt lat="43.2608" lon="-1.45661">
        <ele>674.2</ele>
        <time>2022-09-04T08:48:44Z</time>
      </trkpt>
      <trkpt lat="43.26076" lon="-1.45661">
        <ele>674.3</ele>
        <time>2022-09-04T08:48:45Z</time>
      </trkpt>
      <trkpt lat="43.26071" lon="-1.45661">
        <ele>674.4</ele>
        <time>2022-09-04T08:48:46Z</time>
      </trkpt>
      <trkpt lat="43.26067" lon="-1.45661">
        <ele>674.4</ele>
        <time>2022-09-04T08:48:47Z</time>
      </trkpt>
      <trkpt lat="43.26062" lon="-1.45663">
        <ele>674.5</ele>
        <time>2022-09-04T08:48:48Z</time>
      </trkpt>
      <trkpt lat="43.26058" lon="-1.45666">
        <ele>674.6</ele>
        <time>2022-09-04T08:48:49Z</time>
      </trkpt>
      <trkpt lat="43.26053" lon="-1.45669">
        <ele>674.8</ele>
        <time>2022-09-04T08:48:50Z</time>
      </trkpt>
      <trkpt lat="43.26049" lon="-1.45671">
        <ele>675</ele>
        <time>2022-09-04T08:48:51Z</time>
      </trkpt>
      <trkpt lat="43.26044" lon="-1.45674">
        <ele>675.2</ele>
        <time>2022-09-04T08:48:52Z</time>
      </trkpt>
      <trkpt lat="43.2604" lon="-1.45677">
        <ele>675.5</ele>
        <time>2022-09-04T08:48:53Z</time>
      </trkpt>
      <trkpt lat="43.26035" lon="-1.45679">
        <ele>675.7</ele>
        <time>2022-09-04T08:48:54Z</time>
      </trkpt>
      <trkpt lat="43.26031" lon="-1.4568">
        <ele>676</ele>
        <time>2022-09-04T08:48:55Z</time>
      </trkpt>
      <trkpt lat="43.26026" lon="-1.4568">
        <ele>676.3</ele>
        <time>2022-09-04T08:48:56Z</time>
      </trkpt>
      <trkpt lat="43.26023" lon="-1.4568">
        <ele>676.5</ele>
        <time>2022-09-04T08:48:57Z</time>
      </trkpt>
      <trkpt lat="43.26019" lon="-1.45678">
        <ele>676.7</ele>
        <time>2022-09-04T08:48:58Z</time>
      </trkpt>
      <trkpt lat="43.26015" lon="-1.45678">
        <ele>676.8</ele>
        <time>2022-09-04T08:48:59Z</time>
      </trkpt>
      <trkpt lat="43.26012" lon="-1.45678">
        <ele>676.9</ele>
        <time>2022-09-04T08:49:00Z</time>
      </trkpt>
      <trkpt lat="43.26008" lon="-1.45678">
        <ele>676.9</ele>
        <time>2022-09-04T08:49:01Z</time>
      </trkpt>
      <trkpt lat="43.26004" lon="-1.45679">
        <ele>676.9</ele>
        <time>2022-09-04T08:49:02Z</time>
      </trkpt>
      <trkpt lat="43.26001" lon="-1.45682">
        <ele>676.9</ele>
        <time>2022-09-04T08:49:03Z</time>
      </trkpt>
      <trkpt lat="43.25998" lon="-1.45687">
        <ele>676.8</ele>
        <time>2022-09-04T08:49:04Z</time>
      </trkpt>
      <trkpt lat="43.25994" lon="-1.45691">
        <ele>676.7</ele>
        <time>2022-09-04T08:49:05Z</time>
      </trkpt>
      <trkpt lat="43.2599" lon="-1.45694">
        <ele>676.6</ele>
        <time>2022-09-04T08:49:06Z</time>
      </trkpt>
      <trkpt lat="43.25985" lon="-1.45696">
        <ele>676.4</ele>
        <time>2022-09-04T08:49:07Z</time>
      </trkpt>
      <trkpt lat="43.2598" lon="-1.45698">
        <ele>676.4</ele>
        <time>2022-09-04T08:49:08Z</time>
      </trkpt>
      <trkpt lat="43.25976" lon="-1.457">
        <ele>676.3</ele>
        <time>2022-09-04T08:49:09Z</time>
      </trkpt>
      <trkpt lat="43.25971" lon="-1.45701">
        <ele>676.2</ele>
        <time>2022-09-04T08:49:10Z</time>
      </trkpt>
      <trkpt lat="43.25967" lon="-1.45704">
        <ele>676.2</ele>
        <time>2022-09-04T08:49:11Z</time>
      </trkpt>
      <trkpt lat="43.25963" lon="-1.45707">
        <ele>676.2</ele>
        <time>2022-09-04T08:49:12Z</time>
      </trkpt>
      <trkpt lat="43.2596" lon="-1.4571">
        <ele>676.3</ele>
        <time>2022-09-04T08:49:13Z</time>
      </trkpt>
      <trkpt lat="43.25957" lon="-1.45713">
        <ele>676.4</ele>
        <time>2022-09-04T08:49:14Z</time>
      </trkpt>
      <trkpt lat="43.25955" lon="-1.45716">
        <ele>676.5</ele>
        <time>2022-09-04T08:49:15Z</time>
      </trkpt>
      <trkpt lat="43.25951" lon="-1.45719">
        <ele>676.6</ele>
        <time>2022-09-04T08:49:16Z</time>
      </trkpt>
      <trkpt lat="43.25947" lon="-1.45722">
        <ele>676.7</ele>
        <time>2022-09-04T08:49:17Z</time>
      </trkpt>
      <trkpt lat="43.25944" lon="-1.45725">
        <ele>676.9</ele>
        <time>2022-09-04T08:49:18Z</time>
      </trkpt>
      <trkpt lat="43.2594" lon="-1.45728">
        <ele>677</ele>
        <time>2022-09-04T08:49:19Z</time>
      </trkpt>
      <trkpt lat="43.25936" lon="-1.45731">
        <ele>677.2</ele>
        <time>2022-09-04T08:49:20Z</time>
      </trkpt>
      <trkpt lat="43.25933" lon="-1.45735">
        <ele>677.4</ele>
        <time>2022-09-04T08:49:21Z</time>
      </trkpt>
      <trkpt lat="43.25929" lon="-1.45738">
        <ele>677.6</ele>
        <time>2022-09-04T08:49:22Z</time>
      </trkpt>
      <trkpt lat="43.25926" lon="-1.4574">
        <ele>677.7</ele>
        <time>2022-09-04T08:49:23Z</time>
      </trkpt>
      <trkpt lat="43.25922" lon="-1.45743">
        <ele>677.9</ele>
        <time>2022-09-04T08:49:24Z</time>
      </trkpt>
      <trkpt lat="43.25918" lon="-1.45746">
        <ele>678.1</ele>
        <time>2022-09-04T08:49:25Z</time>
      </trkpt>
      <trkpt lat="43.25915" lon="-1.45749">
        <ele>678.3</ele>
        <time>2022-09-04T08:49:26Z</time>
      </trkpt>
      <trkpt lat="43.25911" lon="-1.45752">
        <ele>678.5</ele>
        <time>2022-09-04T08:49:27Z</time>
      </trkpt>
      <trkpt lat="43.25907" lon="-1.45755">
        <ele>678.6</ele>
        <time>2022-09-04T08:49:28Z</time>
      </trkpt>
      <trkpt lat="43.25903" lon="-1.45758">
        <ele>678.8</ele>
        <time>2022-09-04T08:49:29Z</time>
      </trkpt>
      <trkpt lat="43.259" lon="-1.45761">
        <ele>678.9</ele>
        <time>2022-09-04T08:49:30Z</time>
      </trkpt>
      <trkpt lat="43.25897" lon="-1.45764">
        <ele>679</ele>
        <time>2022-09-04T08:49:31Z</time>
      </trkpt>
      <trkpt lat="43.25893" lon="-1.45767">
        <ele>679.1</ele>
        <time>2022-09-04T08:49:32Z</time>
      </trkpt>
      <trkpt lat="43.25889" lon="-1.45769">
        <ele>679.3</ele>
        <time>2022-09-04T08:49:33Z</time>
      </trkpt>
      <trkpt lat="43.25885" lon="-1.45771">
        <ele>679.4</ele>
        <time>2022-09-04T08:49:34Z</time>
      </trkpt>
      <trkpt lat="43.25881" lon="-1.45774">
        <ele>679.5</ele>
        <time>2022-09-04T08:49:35Z</time>
      </trkpt>
      <trkpt lat="43.25877" lon="-1.45776">
        <ele>679.5</ele>
        <time>2022-09-04T08:49:36Z</time>
      </trkpt>
      <trkpt lat="43.25872" lon="-1.45777">
        <ele>679.6</ele>
        <time>2022-09-04T08:49:37Z</time>
      </trkpt>
      <trkpt lat="43.25868" lon="-1.4578">
        <ele>679.6</ele>
        <time>2022-09-04T08:49:38Z</time>
      </trkpt>
      <trkpt lat="43.25864" lon="-1.45781">
        <ele>679.5</ele>
        <time>2022-09-04T08:49:39Z</time>
      </trkpt>
      <trkpt lat="43.2586" lon="-1.45783">
        <ele>679.4</ele>
        <time>2022-09-04T08:49:40Z</time>
      </trkpt>
      <trkpt lat="43.25856" lon="-1.45786">
        <ele>679.3</ele>
        <time>2022-09-04T08:49:41Z</time>
      </trkpt>
      <trkpt lat="43.25851" lon="-1.45789">
        <ele>679.1</ele>
        <time>2022-09-04T08:49:42Z</time>
      </trkpt>
      <trkpt lat="43.25845" lon="-1.45792">
        <ele>678.8</ele>
        <time>2022-09-04T08:49:43Z</time>
      </trkpt>
      <trkpt lat="43.2584" lon="-1.45795">
        <ele>678.6</ele>
        <time>2022-09-04T08:49:44Z</time>
      </trkpt>
      <trkpt lat="43.25835" lon="-1.45799">
        <ele>678.4</ele>
        <time>2022-09-04T08:49:45Z</time>
      </trkpt>
      <trkpt lat="43.2583" lon="-1.45802">
        <ele>678.1</ele>
        <time>2022-09-04T08:49:46Z</time>
      </trkpt>
      <trkpt lat="43.25825" lon="-1.45806">
        <ele>677.9</ele>
        <time>2022-09-04T08:49:47Z</time>
      </trkpt>
      <trkpt lat="43.25819" lon="-1.45809">
        <ele>677.8</ele>
        <time>2022-09-04T08:49:48Z</time>
      </trkpt>
      <trkpt lat="43.25813" lon="-1.45813">
        <ele>677.6</ele>
        <time>2022-09-04T08:49:49Z</time>
      </trkpt>
      <trkpt lat="43.25807" lon="-1.45816">
        <ele>677.5</ele>
        <time>2022-09-04T08:49:50Z</time>
      </trkpt>
      <trkpt lat="43.25802" lon="-1.45819">
        <ele>677.4</ele>
        <time>2022-09-04T08:49:51Z</time>
      </trkpt>
      <trkpt lat="43.25797" lon="-1.45822">
        <ele>677.2</ele>
        <time>2022-09-04T08:49:52Z</time>
      </trkpt>
      <trkpt lat="43.25791" lon="-1.45824">
        <ele>677.1</ele>
        <time>2022-09-04T08:49:53Z</time>
      </trkpt>
      <trkpt lat="43.25785" lon="-1.45827">
        <ele>677</ele>
        <time>2022-09-04T08:49:54Z</time>
      </trkpt>
      <trkpt lat="43.25779" lon="-1.45829">
        <ele>676.9</ele>
        <time>2022-09-04T08:49:55Z</time>
      </trkpt>
      <trkpt lat="43.25774" lon="-1.45831">
        <ele>676.7</ele>
        <time>2022-09-04T08:49:56Z</time>
      </trkpt>
      <trkpt lat="43.25768" lon="-1.45834">
        <ele>676.6</ele>
        <time>2022-09-04T08:49:57Z</time>
      </trkpt>
      <trkpt lat="43.25762" lon="-1.45836">
        <ele>676.5</ele>
        <time>2022-09-04T08:49:58Z</time>
      </trkpt>
      <trkpt lat="43.25756" lon="-1.45839">
        <ele>676.4</ele>
        <time>2022-09-04T08:49:59Z</time>
      </trkpt>
      <trkpt lat="43.2575" lon="-1.45841">
        <ele>676.3</ele>
        <time>2022-09-04T08:50:00Z</time>
      </trkpt>
      <trkpt lat="43.25745" lon="-1.45844">
        <ele>676.2</ele>
        <time>2022-09-04T08:50:01Z</time>
      </trkpt>
      <trkpt lat="43.25739" lon="-1.45846">
        <ele>676.1</ele>
        <time>2022-09-04T08:50:02Z</time>
      </trkpt>
      <trkpt lat="43.25734" lon="-1.45849">
        <ele>676.1</ele>
        <time>2022-09-04T08:50:03Z</time>
      </trkpt>
      <trkpt lat="43.25728" lon="-1.45852">
        <ele>676.1</ele>
        <time>2022-09-04T08:50:04Z</time>
      </trkpt>
      <trkpt lat="43.25723" lon="-1.45856">
        <ele>676.1</ele>
        <time>2022-09-04T08:50:05Z</time>
      </trkpt>
      <trkpt lat="43.25718" lon="-1.4586">
        <ele>676.2</ele>
        <time>2022-09-04T08:50:06Z</time>
      </trkpt>
      <trkpt lat="43.25714" lon="-1.45865">
        <ele>676.3</ele>
        <time>2022-09-04T08:50:07Z</time>
      </trkpt>
      <trkpt lat="43.2571" lon="-1.45869">
        <ele>676.4</ele>
        <time>2022-09-04T08:50:08Z</time>
      </trkpt>
      <trkpt lat="43.25706" lon="-1.45874">
        <ele>676.6</ele>
        <time>2022-09-04T08:50:09Z</time>
      </trkpt>
      <trkpt lat="43.25702" lon="-1.45877">
        <ele>676.8</ele>
        <time>2022-09-04T08:50:10Z</time>
      </trkpt>
      <trkpt lat="43.25698" lon="-1.45881">
        <ele>676.9</ele>
        <time>2022-09-04T08:50:11Z</time>
      </trkpt>
      <trkpt lat="43.25694" lon="-1.45884">
        <ele>677.1</ele>
        <time>2022-09-04T08:50:12Z</time>
      </trkpt>
      <trkpt lat="43.2569" lon="-1.45887">
        <ele>677.2</ele>
        <time>2022-09-04T08:50:13Z</time>
      </trkpt>
      <trkpt lat="43.25686" lon="-1.4589">
        <ele>677.4</ele>
        <time>2022-09-04T08:50:14Z</time>
      </trkpt>
      <trkpt lat="43.25683" lon="-1.45893">
        <ele>677.5</ele>
        <time>2022-09-04T08:50:15Z</time>
      </trkpt>
      <trkpt lat="43.2568" lon="-1.45895">
        <ele>677.6</ele>
        <time>2022-09-04T08:50:16Z</time>
      </trkpt>
      <trkpt lat="43.25676" lon="-1.45897">
        <ele>677.6</ele>
        <time>2022-09-04T08:50:17Z</time>
      </trkpt>
      <trkpt lat="43.25673" lon="-1.45899">
        <ele>677.7</ele>
        <time>2022-09-04T08:50:18Z</time>
      </trkpt>
      <trkpt lat="43.2567" lon="-1.459">
        <ele>677.7</ele>
        <time>2022-09-04T08:50:19Z</time>
      </trkpt>
      <trkpt lat="43.25667" lon="-1.45901">
        <ele>677.7</ele>
        <time>2022-09-04T08:50:20Z</time>
      </trkpt>
      <trkpt lat="43.25664" lon="-1.45902">
        <ele>677.6</ele>
        <time>2022-09-04T08:50:21Z</time>
      </trkpt>
      <trkpt lat="43.25662" lon="-1.45903">
        <ele>677.6</ele>
        <time>2022-09-04T08:50:22Z</time>
      </trkpt>
      <trkpt lat="43.25659" lon="-1.45904">
        <ele>677.5</ele>
        <time>2022-09-04T08:50:23Z</time>
      </trkpt>
      <trkpt lat="43.25657" lon="-1.45905">
        <ele>677.5</ele>
        <time>2022-09-04T08:50:24Z</time>
      </trkpt>
      <trkpt lat="43.25654" lon="-1.45905">
        <ele>677.3</ele>
        <time>2022-09-04T08:50:25Z</time>
      </trkpt>
      <trkpt lat="43.2565" lon="-1.45906">
        <ele>677.2</ele>
        <time>2022-09-04T08:50:26Z</time>
      </trkpt>
      <trkpt lat="43.25649" lon="-1.45906">
        <ele>677.1</ele>
        <time>2022-09-04T08:50:27Z</time>
      </trkpt>
      <trkpt lat="43.25645" lon="-1.45907">
        <ele>676.9</ele>
        <time>2022-09-04T08:50:28Z</time>
      </trkpt>
      <trkpt lat="43.25644" lon="-1.45907">
        <ele>676.8</ele>
        <time>2022-09-04T08:50:29Z</time>
      </trkpt>
      <trkpt lat="43.25641" lon="-1.45907">
        <ele>676.6</ele>
        <time>2022-09-04T08:50:30Z</time>
      </trkpt>
      <trkpt lat="43.25636" lon="-1.45906">
        <ele>676.4</ele>
        <time>2022-09-04T08:50:31Z</time>
      </trkpt>
      <trkpt lat="43.25631" lon="-1.45905">
        <ele>676.1</ele>
        <time>2022-09-04T08:50:32Z</time>
      </trkpt>
      <trkpt lat="43.25626" lon="-1.45905">
        <ele>675.8</ele>
        <time>2022-09-04T08:50:33Z</time>
      </trkpt>
      <trkpt lat="43.25621" lon="-1.45905">
        <ele>675.7</ele>
        <time>2022-09-04T08:50:34Z</time>
      </trkpt>
      <trkpt lat="43.25616" lon="-1.45905">
        <ele>675.5</ele>
        <time>2022-09-04T08:50:35Z</time>
      </trkpt>
      <trkpt lat="43.2561" lon="-1.45904">
        <ele>675.2</ele>
        <time>2022-09-04T08:50:36Z</time>
      </trkpt>
      <trkpt lat="43.25604" lon="-1.45904">
        <ele>674.9</ele>
        <time>2022-09-04T08:50:37Z</time>
      </trkpt>
      <trkpt lat="43.25599" lon="-1.45905">
        <ele>674.6</ele>
        <time>2022-09-04T08:50:38Z</time>
      </trkpt>
      <trkpt lat="43.25593" lon="-1.45906">
        <ele>674.3</ele>
        <time>2022-09-04T08:50:39Z</time>
      </trkpt>
      <trkpt lat="43.25588" lon="-1.45907">
        <ele>674</ele>
        <time>2022-09-04T08:50:40Z</time>
      </trkpt>
      <trkpt lat="43.25582" lon="-1.45909">
        <ele>673.6</ele>
        <time>2022-09-04T08:50:41Z</time>
      </trkpt>
      <trkpt lat="43.25577" lon="-1.45911">
        <ele>673.3</ele>
        <time>2022-09-04T08:50:42Z</time>
      </trkpt>
      <trkpt lat="43.25571" lon="-1.45913">
        <ele>673</ele>
        <time>2022-09-04T08:50:43Z</time>
      </trkpt>
      <trkpt lat="43.25565" lon="-1.45916">
        <ele>672.8</ele>
        <time>2022-09-04T08:50:44Z</time>
      </trkpt>
      <trkpt lat="43.25559" lon="-1.45919">
        <ele>672.7</ele>
        <time>2022-09-04T08:50:45Z</time>
      </trkpt>
      <trkpt lat="43.25554" lon="-1.45922">
        <ele>672.5</ele>
        <time>2022-09-04T08:50:46Z</time>
      </trkpt>
      <trkpt lat="43.25549" lon="-1.45925">
        <ele>672.4</ele>
        <time>2022-09-04T08:50:47Z</time>
      </trkpt>
      <trkpt lat="43.25544" lon="-1.45927">
        <ele>672.2</ele>
        <time>2022-09-04T08:50:48Z</time>
      </trkpt>
      <trkpt lat="43.25539" lon="-1.45927">
        <ele>672</ele>
        <time>2022-09-04T08:50:49Z</time>
      </trkpt>
      <trkpt lat="43.25534" lon="-1.45926">
        <ele>671.7</ele>
        <time>2022-09-04T08:50:50Z</time>
      </trkpt>
      <trkpt lat="43.25529" lon="-1.45925">
        <ele>671.4</ele>
        <time>2022-09-04T08:50:51Z</time>
      </trkpt>
      <trkpt lat="43.25523" lon="-1.45924">
        <ele>671.2</ele>
        <time>2022-09-04T08:50:52Z</time>
      </trkpt>
      <trkpt lat="43.25517" lon="-1.45923">
        <ele>670.9</ele>
        <time>2022-09-04T08:50:53Z</time>
      </trkpt>
      <trkpt lat="43.25511" lon="-1.45923">
        <ele>670.7</ele>
        <time>2022-09-04T08:50:54Z</time>
      </trkpt>
      <trkpt lat="43.25504" lon="-1.45923">
        <ele>670.5</ele>
        <time>2022-09-04T08:50:55Z</time>
      </trkpt>
      <trkpt lat="43.25498" lon="-1.45923">
        <ele>670.4</ele>
        <time>2022-09-04T08:50:56Z</time>
      </trkpt>
      <trkpt lat="43.25491" lon="-1.45923">
        <ele>670.3</ele>
        <time>2022-09-04T08:50:57Z</time>
      </trkpt>
      <trkpt lat="43.25485" lon="-1.45923">
        <ele>670.3</ele>
        <time>2022-09-04T08:50:58Z</time>
      </trkpt>
      <trkpt lat="43.25479" lon="-1.45922">
        <ele>670.3</ele>
        <time>2022-09-04T08:50:59Z</time>
      </trkpt>
      <trkpt lat="43.25474" lon="-1.45921">
        <ele>670.3</ele>
        <time>2022-09-04T08:51:00Z</time>
      </trkpt>
      <trkpt lat="43.25468" lon="-1.45919">
        <ele>670.3</ele>
        <time>2022-09-04T08:51:01Z</time>
      </trkpt>
      <trkpt lat="43.25463" lon="-1.45917">
        <ele>670.3</ele>
        <time>2022-09-04T08:51:02Z</time>
      </trkpt>
      <trkpt lat="43.25458" lon="-1.45916">
        <ele>670.3</ele>
        <time>2022-09-04T08:51:03Z</time>
      </trkpt>
      <trkpt lat="43.25453" lon="-1.45916">
        <ele>670.2</ele>
        <time>2022-09-04T08:51:04Z</time>
      </trkpt>
      <trkpt lat="43.25449" lon="-1.45916">
        <ele>670.1</ele>
        <time>2022-09-04T08:51:05Z</time>
      </trkpt>
      <trkpt lat="43.25445" lon="-1.45917">
        <ele>669.9</ele>
        <time>2022-09-04T08:51:06Z</time>
      </trkpt>
      <trkpt lat="43.2544" lon="-1.45919">
        <ele>669.7</ele>
        <time>2022-09-04T08:51:07Z</time>
      </trkpt>
      <trkpt lat="43.25435" lon="-1.45921">
        <ele>669.4</ele>
        <time>2022-09-04T08:51:08Z</time>
      </trkpt>
      <trkpt lat="43.25431" lon="-1.45924">
        <ele>669.1</ele>
        <time>2022-09-04T08:51:09Z</time>
      </trkpt>
      <trkpt lat="43.25427" lon="-1.45927">
        <ele>668.7</ele>
        <time>2022-09-04T08:51:10Z</time>
      </trkpt>
      <trkpt lat="43.25423" lon="-1.45931">
        <ele>668.4</ele>
        <time>2022-09-04T08:51:11Z</time>
      </trkpt>
      <trkpt lat="43.25418" lon="-1.45937">
        <ele>667.9</ele>
        <time>2022-09-04T08:51:12Z</time>
      </trkpt>
      <trkpt lat="43.25413" lon="-1.45943">
        <ele>667.5</ele>
        <time>2022-09-04T08:51:13Z</time>
      </trkpt>
      <trkpt lat="43.25408" lon="-1.45951">
        <ele>667.2</ele>
        <time>2022-09-04T08:51:14Z</time>
      </trkpt>
      <trkpt lat="43.25404" lon="-1.45959">
        <ele>666.9</ele>
        <time>2022-09-04T08:51:15Z</time>
      </trkpt>
      <trkpt lat="43.254" lon="-1.45967">
        <ele>666.6</ele>
        <time>2022-09-04T08:51:16Z</time>
      </trkpt>
      <trkpt lat="43.25397" lon="-1.45976">
        <ele>666.3</ele>
        <time>2022-09-04T08:51:17Z</time>
      </trkpt>
      <trkpt lat="43.25393" lon="-1.45986">
        <ele>666</ele>
        <time>2022-09-04T08:51:18Z</time>
      </trkpt>
      <trkpt lat="43.2539" lon="-1.45994">
        <ele>665.7</ele>
        <time>2022-09-04T08:51:19Z</time>
      </trkpt>
      <trkpt lat="43.25386" lon="-1.46004">
        <ele>665.4</ele>
        <time>2022-09-04T08:51:20Z</time>
      </trkpt>
      <trkpt lat="43.25383" lon="-1.46013">
        <ele>665.1</ele>
        <time>2022-09-04T08:51:21Z</time>
      </trkpt>
      <trkpt lat="43.25379" lon="-1.46023">
        <ele>664.8</ele>
        <time>2022-09-04T08:51:22Z</time>
      </trkpt>
      <trkpt lat="43.25375" lon="-1.46032">
        <ele>664.5</ele>
        <time>2022-09-04T08:51:23Z</time>
      </trkpt>
      <trkpt lat="43.25371" lon="-1.46041">
        <ele>664.3</ele>
        <time>2022-09-04T08:51:24Z</time>
      </trkpt>
      <trkpt lat="43.25367" lon="-1.46049">
        <ele>664.1</ele>
        <time>2022-09-04T08:51:25Z</time>
      </trkpt>
      <trkpt lat="43.25363" lon="-1.46057">
        <ele>664</ele>
        <time>2022-09-04T08:51:26Z</time>
      </trkpt>
      <trkpt lat="43.25359" lon="-1.46064">
        <ele>663.9</ele>
        <time>2022-09-04T08:51:27Z</time>
      </trkpt>
      <trkpt lat="43.25355" lon="-1.46072">
        <ele>663.9</ele>
        <time>2022-09-04T08:51:28Z</time>
      </trkpt>
      <trkpt lat="43.25351" lon="-1.46079">
        <ele>663.8</ele>
        <time>2022-09-04T08:51:29Z</time>
      </trkpt>
      <trkpt lat="43.25347" lon="-1.46086">
        <ele>663.8</ele>
        <time>2022-09-04T08:51:30Z</time>
      </trkpt>
      <trkpt lat="43.25343" lon="-1.46092">
        <ele>663.8</ele>
        <time>2022-09-04T08:51:31Z</time>
      </trkpt>
      <trkpt lat="43.25339" lon="-1.46098">
        <ele>663.9</ele>
        <time>2022-09-04T08:51:32Z</time>
      </trkpt>
      <trkpt lat="43.25335" lon="-1.46104">
        <ele>663.9</ele>
        <time>2022-09-04T08:51:33Z</time>
      </trkpt>
      <trkpt lat="43.25331" lon="-1.46109">
        <ele>663.9</ele>
        <time>2022-09-04T08:51:34Z</time>
      </trkpt>
      <trkpt lat="43.25328" lon="-1.46114">
        <ele>664</ele>
        <time>2022-09-04T08:51:35Z</time>
      </trkpt>
      <trkpt lat="43.25325" lon="-1.46118">
        <ele>664</ele>
        <time>2022-09-04T08:51:36Z</time>
      </trkpt>
      <trkpt lat="43.25321" lon="-1.46123">
        <ele>664.1</ele>
        <time>2022-09-04T08:51:37Z</time>
      </trkpt>
      <trkpt lat="43.25318" lon="-1.46127">
        <ele>664.1</ele>
        <time>2022-09-04T08:51:38Z</time>
      </trkpt>
      <trkpt lat="43.25314" lon="-1.46131">
        <ele>664.2</ele>
        <time>2022-09-04T08:51:39Z</time>
      </trkpt>
      <trkpt lat="43.25311" lon="-1.46135">
        <ele>664.2</ele>
        <time>2022-09-04T08:51:40Z</time>
      </trkpt>
      <trkpt lat="43.25307" lon="-1.46139">
        <ele>664.3</ele>
        <time>2022-09-04T08:51:41Z</time>
      </trkpt>
      <trkpt lat="43.25304" lon="-1.46143">
        <ele>664.4</ele>
        <time>2022-09-04T08:51:42Z</time>
      </trkpt>
      <trkpt lat="43.253" lon="-1.46147">
        <ele>664.5</ele>
        <time>2022-09-04T08:51:43Z</time>
      </trkpt>
      <trkpt lat="43.25296" lon="-1.46151">
        <ele>664.7</ele>
        <time>2022-09-04T08:51:44Z</time>
      </trkpt>
      <trkpt lat="43.25291" lon="-1.46155">
        <ele>664.8</ele>
        <time>2022-09-04T08:51:45Z</time>
      </trkpt>
      <trkpt lat="43.25288" lon="-1.4616">
        <ele>665</ele>
        <time>2022-09-04T08:51:46Z</time>
      </trkpt>
      <trkpt lat="43.25285" lon="-1.46164">
        <ele>665.1</ele>
        <time>2022-09-04T08:51:47Z</time>
      </trkpt>
      <trkpt lat="43.25284" lon="-1.46167">
        <ele>665.1</ele>
        <time>2022-09-04T08:51:48Z</time>
      </trkpt>
      <trkpt lat="43.25282" lon="-1.46172">
        <ele>665.2</ele>
        <time>2022-09-04T08:51:49Z</time>
      </trkpt>
      <trkpt lat="43.25281" lon="-1.46173">
        <ele>665.2</ele>
        <time>2022-09-04T08:51:50Z</time>
      </trkpt>
      <trkpt lat="43.25279" lon="-1.46176">
        <ele>665.2</ele>
        <time>2022-09-04T08:51:51Z</time>
      </trkpt>
      <trkpt lat="43.25278" lon="-1.4618">
        <ele>665.2</ele>
        <time>2022-09-04T08:51:52Z</time>
      </trkpt>
      <trkpt lat="43.25276" lon="-1.46183">
        <ele>665.3</ele>
        <time>2022-09-04T08:51:53Z</time>
      </trkpt>
      <trkpt lat="43.25275" lon="-1.46187">
        <ele>665.3</ele>
        <time>2022-09-04T08:51:54Z</time>
      </trkpt>
      <trkpt lat="43.25273" lon="-1.4619">
        <ele>665.3</ele>
        <time>2022-09-04T08:51:55Z</time>
      </trkpt>
      <trkpt lat="43.25271" lon="-1.46193">
        <ele>665.3</ele>
        <time>2022-09-04T08:51:56Z</time>
      </trkpt>
      <trkpt lat="43.25269" lon="-1.46195">
        <ele>665.3</ele>
        <time>2022-09-04T08:51:57Z</time>
      </trkpt>
      <trkpt lat="43.25267" lon="-1.46197">
        <ele>665.3</ele>
        <time>2022-09-04T08:51:58Z</time>
      </trkpt>
      <trkpt lat="43.25264" lon="-1.462">
        <ele>665.3</ele>
        <time>2022-09-04T08:51:59Z</time>
      </trkpt>
      <trkpt lat="43.25262" lon="-1.46202">
        <ele>665.3</ele>
        <time>2022-09-04T08:52:00Z</time>
      </trkpt>
      <trkpt lat="43.25259" lon="-1.46203">
        <ele>665.3</ele>
        <time>2022-09-04T08:52:01Z</time>
      </trkpt>
      <trkpt lat="43.25257" lon="-1.46205">
        <ele>665.3</ele>
        <time>2022-09-04T08:52:02Z</time>
      </trkpt>
      <trkpt lat="43.25254" lon="-1.46208">
        <ele>666.9</ele>
        <time>2022-09-04T08:52:03Z</time>
      </trkpt>
      <trkpt lat="43.25253" lon="-1.46208">
        <ele>666.8</ele>
        <time>2022-09-04T08:52:04Z</time>
      </trkpt>
      <trkpt lat="43.25251" lon="-1.46209">
        <ele>666.7</ele>
        <time>2022-09-04T08:52:05Z</time>
      </trkpt>
      <trkpt lat="43.25249" lon="-1.4621">
        <ele>666.5</ele>
        <time>2022-09-04T08:52:06Z</time>
      </trkpt>
      <trkpt lat="43.25248" lon="-1.46211">
        <ele>666.4</ele>
        <time>2022-09-04T08:52:07Z</time>
      </trkpt>
      <trkpt lat="43.25247" lon="-1.46212">
        <ele>666.3</ele>
        <time>2022-09-04T08:52:08Z</time>
      </trkpt>
      <trkpt lat="43.25246" lon="-1.46212">
        <ele>666.2</ele>
        <time>2022-09-04T08:52:09Z</time>
      </trkpt>
      <trkpt lat="43.25247" lon="-1.46212">
        <ele>666.2</ele>
        <time>2022-09-04T08:52:10Z</time>
      </trkpt>
      <trkpt lat="43.25247" lon="-1.46212">
        <ele>666.2</ele>
        <time>2022-09-04T08:52:11Z</time>
      </trkpt>
      <trkpt lat="43.25247" lon="-1.46212">
        <ele>666.2</ele>
        <time>2022-09-04T08:52:12Z</time>
      </trkpt>
      <trkpt lat="43.25247" lon="-1.46212">
        <ele>666.2</ele>
        <time>2022-09-04T08:52:13Z</time>
      </trkpt>
      <trkpt lat="43.25247" lon="-1.46212">
        <ele>666.1</ele>
        <time>2022-09-04T08:52:14Z</time>
      </trkpt>
      <trkpt lat="43.25247" lon="-1.46212">
        <ele>666.1</ele>
        <time>2022-09-04T08:52:15Z</time>
      </trkpt>
      <trkpt lat="43.25247" lon="-1.46212">
        <ele>666.1</ele>
        <time>2022-09-04T08:52:16Z</time>
      </trkpt>
      <trkpt lat="43.25247" lon="-1.46212">
        <ele>666.1</ele>
        <time>2022-09-04T08:52:17Z</time>
      </trkpt>
      <trkpt lat="43.25247" lon="-1.46212">
        <ele>666.1</ele>
        <time>2022-09-04T08:52:18Z</time>
      </trkpt>
      <trkpt lat="43.25247" lon="-1.46212">
        <ele>666.1</ele>
        <time>2022-09-04T08:52:19Z</time>
      </trkpt>
      <trkpt lat="43.25247" lon="-1.46212">
        <ele>666.1</ele>
        <time>2022-09-04T08:52:20Z</time>
      </trkpt>
      <trkpt lat="43.25248" lon="-1.46212">
        <ele>666.1</ele>
        <time>2022-09-04T08:52:21Z</time>
      </trkpt>
      <trkpt lat="43.25248" lon="-1.46212">
        <ele>666.1</ele>
        <time>2022-09-04T08:52:22Z</time>
      </trkpt>
      <trkpt lat="43.25244" lon="-1.46217">
        <ele>665.3</ele>
        <time>2022-09-04T08:53:05Z</time>
      </trkpt>
      <trkpt lat="43.25241" lon="-1.46219">
        <ele>664.9</ele>
        <time>2022-09-04T08:53:06Z</time>
      </trkpt>
      <trkpt lat="43.25238" lon="-1.46221">
        <ele>664.3</ele>
        <time>2022-09-04T08:53:07Z</time>
      </trkpt>
      <trkpt lat="43.25234" lon="-1.46224">
        <ele>663.6</ele>
        <time>2022-09-04T08:53:08Z</time>
      </trkpt>
      <trkpt lat="43.25229" lon="-1.46228">
        <ele>662.8</ele>
        <time>2022-09-04T08:53:09Z</time>
      </trkpt>
      <trkpt lat="43.25224" lon="-1.46233">
        <ele>661.8</ele>
        <time>2022-09-04T08:53:10Z</time>
      </trkpt>
      <trkpt lat="43.25219" lon="-1.46238">
        <ele>660.8</ele>
        <time>2022-09-04T08:53:11Z</time>
      </trkpt>
      <trkpt lat="43.25213" lon="-1.46243">
        <ele>659.8</ele>
        <time>2022-09-04T08:53:12Z</time>
      </trkpt>
      <trkpt lat="43.25207" lon="-1.46248">
        <ele>658.7</ele>
        <time>2022-09-04T08:53:13Z</time>
      </trkpt>
      <trkpt lat="43.252" lon="-1.46252">
        <ele>657.4</ele>
        <time>2022-09-04T08:53:14Z</time>
      </trkpt>
      <trkpt lat="43.25193" lon="-1.46257">
        <ele>656</ele>
        <time>2022-09-04T08:53:15Z</time>
      </trkpt>
      <trkpt lat="43.25186" lon="-1.46263">
        <ele>654.6</ele>
        <time>2022-09-04T08:53:16Z</time>
      </trkpt>
      <trkpt lat="43.25179" lon="-1.46268">
        <ele>653.1</ele>
        <time>2022-09-04T08:53:17Z</time>
      </trkpt>
      <trkpt lat="43.25172" lon="-1.46274">
        <ele>651.7</ele>
        <time>2022-09-04T08:53:18Z</time>
      </trkpt>
      <trkpt lat="43.25165" lon="-1.4628">
        <ele>650.2</ele>
        <time>2022-09-04T08:53:19Z</time>
      </trkpt>
      <trkpt lat="43.25157" lon="-1.46288">
        <ele>648.8</ele>
        <time>2022-09-04T08:53:20Z</time>
      </trkpt>
      <trkpt lat="43.25149" lon="-1.46295">
        <ele>647.3</ele>
        <time>2022-09-04T08:53:21Z</time>
      </trkpt>
      <trkpt lat="43.2514" lon="-1.46302">
        <ele>645.9</ele>
        <time>2022-09-04T08:53:22Z</time>
      </trkpt>
      <trkpt lat="43.25132" lon="-1.4631">
        <ele>644.6</ele>
        <time>2022-09-04T08:53:23Z</time>
      </trkpt>
      <trkpt lat="43.25124" lon="-1.46317">
        <ele>643.5</ele>
        <time>2022-09-04T08:53:24Z</time>
      </trkpt>
      <trkpt lat="43.25116" lon="-1.46325">
        <ele>642.5</ele>
        <time>2022-09-04T08:53:25Z</time>
      </trkpt>
      <trkpt lat="43.25109" lon="-1.46331">
        <ele>641.6</ele>
        <time>2022-09-04T08:53:26Z</time>
      </trkpt>
      <trkpt lat="43.25102" lon="-1.46338">
        <ele>640.6</ele>
        <time>2022-09-04T08:53:27Z</time>
      </trkpt>
      <trkpt lat="43.25097" lon="-1.46344">
        <ele>639.7</ele>
        <time>2022-09-04T08:53:28Z</time>
      </trkpt>
      <trkpt lat="43.25091" lon="-1.46351">
        <ele>638.7</ele>
        <time>2022-09-04T08:53:29Z</time>
      </trkpt>
      <trkpt lat="43.25086" lon="-1.46356">
        <ele>637.7</ele>
        <time>2022-09-04T08:53:30Z</time>
      </trkpt>
      <trkpt lat="43.25081" lon="-1.46361">
        <ele>636.8</ele>
        <time>2022-09-04T08:53:31Z</time>
      </trkpt>
      <trkpt lat="43.25076" lon="-1.46367">
        <ele>635.8</ele>
        <time>2022-09-04T08:53:32Z</time>
      </trkpt>
      <trkpt lat="43.25071" lon="-1.46372">
        <ele>634.9</ele>
        <time>2022-09-04T08:53:33Z</time>
      </trkpt>
      <trkpt lat="43.25064" lon="-1.46377">
        <ele>633.9</ele>
        <time>2022-09-04T08:53:34Z</time>
      </trkpt>
      <trkpt lat="43.25057" lon="-1.46383">
        <ele>633</ele>
        <time>2022-09-04T08:53:35Z</time>
      </trkpt>
      <trkpt lat="43.2505" lon="-1.4639">
        <ele>631.9</ele>
        <time>2022-09-04T08:53:36Z</time>
      </trkpt>
      <trkpt lat="43.25044" lon="-1.46397">
        <ele>630.9</ele>
        <time>2022-09-04T08:53:37Z</time>
      </trkpt>
      <trkpt lat="43.25037" lon="-1.46403">
        <ele>629.8</ele>
        <time>2022-09-04T08:53:38Z</time>
      </trkpt>
      <trkpt lat="43.25032" lon="-1.46409">
        <ele>628.8</ele>
        <time>2022-09-04T08:53:39Z</time>
      </trkpt>
      <trkpt lat="43.25027" lon="-1.46416">
        <ele>627.9</ele>
        <time>2022-09-04T08:53:40Z</time>
      </trkpt>
      <trkpt lat="43.25024" lon="-1.46424">
        <ele>626.8</ele>
        <time>2022-09-04T08:53:41Z</time>
      </trkpt>
      <trkpt lat="43.2502" lon="-1.46431">
        <ele>625.7</ele>
        <time>2022-09-04T08:53:42Z</time>
      </trkpt>
      <trkpt lat="43.25015" lon="-1.46437">
        <ele>624.7</ele>
        <time>2022-09-04T08:53:43Z</time>
      </trkpt>
      <trkpt lat="43.25011" lon="-1.46443">
        <ele>623.7</ele>
        <time>2022-09-04T08:53:44Z</time>
      </trkpt>
      <trkpt lat="43.25006" lon="-1.46449">
        <ele>622.7</ele>
        <time>2022-09-04T08:53:45Z</time>
      </trkpt>
      <trkpt lat="43.25001" lon="-1.46455">
        <ele>621.7</ele>
        <time>2022-09-04T08:53:46Z</time>
      </trkpt>
      <trkpt lat="43.24995" lon="-1.46459">
        <ele>620.7</ele>
        <time>2022-09-04T08:53:47Z</time>
      </trkpt>
      <trkpt lat="43.24989" lon="-1.46464">
        <ele>619.7</ele>
        <time>2022-09-04T08:53:48Z</time>
      </trkpt>
      <trkpt lat="43.24983" lon="-1.46468">
        <ele>618.5</ele>
        <time>2022-09-04T08:53:49Z</time>
      </trkpt>
      <trkpt lat="43.24976" lon="-1.46471">
        <ele>617.4</ele>
        <time>2022-09-04T08:53:50Z</time>
      </trkpt>
      <trkpt lat="43.24969" lon="-1.46473">
        <ele>616.3</ele>
        <time>2022-09-04T08:53:51Z</time>
      </trkpt>
      <trkpt lat="43.24962" lon="-1.46475">
        <ele>615.4</ele>
        <time>2022-09-04T08:53:52Z</time>
      </trkpt>
      <trkpt lat="43.24956" lon="-1.46475">
        <ele>614.5</ele>
        <time>2022-09-04T08:53:53Z</time>
      </trkpt>
      <trkpt lat="43.2495" lon="-1.46474">
        <ele>613.5</ele>
        <time>2022-09-04T08:53:54Z</time>
      </trkpt>
      <trkpt lat="43.24944" lon="-1.46471">
        <ele>612.4</ele>
        <time>2022-09-04T08:53:55Z</time>
      </trkpt>
      <trkpt lat="43.24939" lon="-1.46466">
        <ele>611.2</ele>
        <time>2022-09-04T08:53:56Z</time>
      </trkpt>
      <trkpt lat="43.24934" lon="-1.46459">
        <ele>609.9</ele>
        <time>2022-09-04T08:53:57Z</time>
      </trkpt>
      <trkpt lat="43.24928" lon="-1.46456">
        <ele>608.9</ele>
        <time>2022-09-04T08:53:58Z</time>
      </trkpt>
      <trkpt lat="43.24922" lon="-1.46455">
        <ele>607.9</ele>
        <time>2022-09-04T08:53:59Z</time>
      </trkpt>
      <trkpt lat="43.24917" lon="-1.46454">
        <ele>607.2</ele>
        <time>2022-09-04T08:54:00Z</time>
      </trkpt>
      <trkpt lat="43.24912" lon="-1.46455">
        <ele>606.5</ele>
        <time>2022-09-04T08:54:01Z</time>
      </trkpt>
      <trkpt lat="43.24908" lon="-1.46457">
        <ele>606.1</ele>
        <time>2022-09-04T08:54:02Z</time>
      </trkpt>
      <trkpt lat="43.24907" lon="-1.46462">
        <ele>605.7</ele>
        <time>2022-09-04T08:54:03Z</time>
      </trkpt>
      <trkpt lat="43.2491" lon="-1.46467">
        <ele>605.4</ele>
        <time>2022-09-04T08:54:04Z</time>
      </trkpt>
      <trkpt lat="43.24914" lon="-1.46473">
        <ele>605</ele>
        <time>2022-09-04T08:54:05Z</time>
      </trkpt>
      <trkpt lat="43.24919" lon="-1.4648">
        <ele>604.5</ele>
        <time>2022-09-04T08:54:06Z</time>
      </trkpt>
      <trkpt lat="43.24922" lon="-1.46489">
        <ele>604</ele>
        <time>2022-09-04T08:54:07Z</time>
      </trkpt>
      <trkpt lat="43.24923" lon="-1.46497">
        <ele>603.5</ele>
        <time>2022-09-04T08:54:08Z</time>
      </trkpt>
      <trkpt lat="43.24921" lon="-1.46501">
        <ele>603.1</ele>
        <time>2022-09-04T08:54:09Z</time>
      </trkpt>
      <trkpt lat="43.24917" lon="-1.46501">
        <ele>602.8</ele>
        <time>2022-09-04T08:54:10Z</time>
      </trkpt>
      <trkpt lat="43.24911" lon="-1.46499">
        <ele>602.2</ele>
        <time>2022-09-04T08:54:11Z</time>
      </trkpt>
      <trkpt lat="43.24905" lon="-1.46494">
        <ele>601.5</ele>
        <time>2022-09-04T08:54:12Z</time>
      </trkpt>
      <trkpt lat="43.24899" lon="-1.46489">
        <ele>600.6</ele>
        <time>2022-09-04T08:54:13Z</time>
      </trkpt>
      <trkpt lat="43.24893" lon="-1.46484">
        <ele>599.7</ele>
        <time>2022-09-04T08:54:14Z</time>
      </trkpt>
      <trkpt lat="43.24887" lon="-1.4648">
        <ele>598.8</ele>
        <time>2022-09-04T08:54:15Z</time>
      </trkpt>
      <trkpt lat="43.24882" lon="-1.46478">
        <ele>597.9</ele>
        <time>2022-09-04T08:54:16Z</time>
      </trkpt>
      <trkpt lat="43.24875" lon="-1.46478">
        <ele>597.1</ele>
        <time>2022-09-04T08:54:17Z</time>
      </trkpt>
      <trkpt lat="43.24869" lon="-1.46479">
        <ele>596.1</ele>
        <time>2022-09-04T08:54:18Z</time>
      </trkpt>
      <trkpt lat="43.24863" lon="-1.46482">
        <ele>595.2</ele>
        <time>2022-09-04T08:54:19Z</time>
      </trkpt>
      <trkpt lat="43.24857" lon="-1.46482">
        <ele>594.3</ele>
        <time>2022-09-04T08:54:20Z</time>
      </trkpt>
      <trkpt lat="43.24851" lon="-1.46479">
        <ele>593.3</ele>
        <time>2022-09-04T08:54:21Z</time>
      </trkpt>
      <trkpt lat="43.24843" lon="-1.46476">
        <ele>592</ele>
        <time>2022-09-04T08:54:22Z</time>
      </trkpt>
      <trkpt lat="43.24836" lon="-1.46473">
        <ele>590.8</ele>
        <time>2022-09-04T08:54:23Z</time>
      </trkpt>
      <trkpt lat="43.24828" lon="-1.46471">
        <ele>589.5</ele>
        <time>2022-09-04T08:54:24Z</time>
      </trkpt>
      <trkpt lat="43.24821" lon="-1.4647">
        <ele>588.5</ele>
        <time>2022-09-04T08:54:25Z</time>
      </trkpt>
      <trkpt lat="43.24814" lon="-1.46469">
        <ele>587.6</ele>
        <time>2022-09-04T08:54:26Z</time>
      </trkpt>
      <trkpt lat="43.24809" lon="-1.4647">
        <ele>586.9</ele>
        <time>2022-09-04T08:54:27Z</time>
      </trkpt>
      <trkpt lat="43.24808" lon="-1.46474">
        <ele>586.3</ele>
        <time>2022-09-04T08:54:28Z</time>
      </trkpt>
      <trkpt lat="43.24808" lon="-1.46477">
        <ele>586</ele>
        <time>2022-09-04T08:54:29Z</time>
      </trkpt>
      <trkpt lat="43.24811" lon="-1.46482">
        <ele>585.3</ele>
        <time>2022-09-04T08:54:30Z</time>
      </trkpt>
      <trkpt lat="43.24816" lon="-1.46487">
        <ele>584.1</ele>
        <time>2022-09-04T08:54:31Z</time>
      </trkpt>
      <trkpt lat="43.24821" lon="-1.46494">
        <ele>582.7</ele>
        <time>2022-09-04T08:54:32Z</time>
      </trkpt>
      <trkpt lat="43.24824" lon="-1.46502">
        <ele>581.4</ele>
        <time>2022-09-04T08:54:33Z</time>
      </trkpt>
      <trkpt lat="43.24825" lon="-1.46512">
        <ele>580.2</ele>
        <time>2022-09-04T08:54:34Z</time>
      </trkpt>
      <trkpt lat="43.24826" lon="-1.4652">
        <ele>579.1</ele>
        <time>2022-09-04T08:54:35Z</time>
      </trkpt>
      <trkpt lat="43.24828" lon="-1.4653">
        <ele>577.7</ele>
        <time>2022-09-04T08:54:36Z</time>
      </trkpt>
      <trkpt lat="43.24829" lon="-1.46541">
        <ele>576.7</ele>
        <time>2022-09-04T08:54:37Z</time>
      </trkpt>
      <trkpt lat="43.24829" lon="-1.46553">
        <ele>575.9</ele>
        <time>2022-09-04T08:54:38Z</time>
      </trkpt>
      <trkpt lat="43.24829" lon="-1.46563">
        <ele>575.1</ele>
        <time>2022-09-04T08:54:39Z</time>
      </trkpt>
      <trkpt lat="43.24829" lon="-1.46574">
        <ele>574.4</ele>
        <time>2022-09-04T08:54:40Z</time>
      </trkpt>
      <trkpt lat="43.24829" lon="-1.46583">
        <ele>573.7</ele>
        <time>2022-09-04T08:54:41Z</time>
      </trkpt>
      <trkpt lat="43.2483" lon="-1.46592">
        <ele>573</ele>
        <time>2022-09-04T08:54:42Z</time>
      </trkpt>
      <trkpt lat="43.24831" lon="-1.46602">
        <ele>572.3</ele>
        <time>2022-09-04T08:54:43Z</time>
      </trkpt>
      <trkpt lat="43.24831" lon="-1.46611">
        <ele>571.6</ele>
        <time>2022-09-04T08:54:44Z</time>
      </trkpt>
      <trkpt lat="43.2483" lon="-1.46621">
        <ele>570.8</ele>
        <time>2022-09-04T08:54:45Z</time>
      </trkpt>
      <trkpt lat="43.24828" lon="-1.4663">
        <ele>570.2</ele>
        <time>2022-09-04T08:54:46Z</time>
      </trkpt>
      <trkpt lat="43.24826" lon="-1.46639">
        <ele>569.5</ele>
        <time>2022-09-04T08:54:47Z</time>
      </trkpt>
      <trkpt lat="43.24824" lon="-1.46647">
        <ele>568.9</ele>
        <time>2022-09-04T08:54:48Z</time>
      </trkpt>
      <trkpt lat="43.24823" lon="-1.46654">
        <ele>568.4</ele>
        <time>2022-09-04T08:54:49Z</time>
      </trkpt>
      <trkpt lat="43.24825" lon="-1.46661">
        <ele>567.9</ele>
        <time>2022-09-04T08:54:50Z</time>
      </trkpt>
      <trkpt lat="43.24826" lon="-1.46668">
        <ele>567.3</ele>
        <time>2022-09-04T08:54:51Z</time>
      </trkpt>
      <trkpt lat="43.24829" lon="-1.46674">
        <ele>566.8</ele>
        <time>2022-09-04T08:54:52Z</time>
      </trkpt>
      <trkpt lat="43.24832" lon="-1.46679">
        <ele>566.3</ele>
        <time>2022-09-04T08:54:53Z</time>
      </trkpt>
      <trkpt lat="43.24836" lon="-1.46684">
        <ele>565.7</ele>
        <time>2022-09-04T08:54:54Z</time>
      </trkpt>
      <trkpt lat="43.2484" lon="-1.46689">
        <ele>565.2</ele>
        <time>2022-09-04T08:54:55Z</time>
      </trkpt>
      <trkpt lat="43.24845" lon="-1.46695">
        <ele>564.5</ele>
        <time>2022-09-04T08:54:56Z</time>
      </trkpt>
      <trkpt lat="43.24849" lon="-1.46704">
        <ele>563.8</ele>
        <time>2022-09-04T08:54:57Z</time>
      </trkpt>
      <trkpt lat="43.24853" lon="-1.46713">
        <ele>563</ele>
        <time>2022-09-04T08:54:58Z</time>
      </trkpt>
      <trkpt lat="43.24856" lon="-1.46723">
        <ele>562.2</ele>
        <time>2022-09-04T08:54:59Z</time>
      </trkpt>
      <trkpt lat="43.24858" lon="-1.4673">
        <ele>561.6</ele>
        <time>2022-09-04T08:55:00Z</time>
      </trkpt>
      <trkpt lat="43.24861" lon="-1.46735">
        <ele>561.2</ele>
        <time>2022-09-04T08:55:01Z</time>
      </trkpt>
      <trkpt lat="43.24866" lon="-1.46737">
        <ele>560.7</ele>
        <time>2022-09-04T08:55:02Z</time>
      </trkpt>
      <trkpt lat="43.24872" lon="-1.46738">
        <ele>560</ele>
        <time>2022-09-04T08:55:03Z</time>
      </trkpt>
      <trkpt lat="43.24879" lon="-1.46738">
        <ele>559.3</ele>
        <time>2022-09-04T08:55:04Z</time>
      </trkpt>
      <trkpt lat="43.24887" lon="-1.4674">
        <ele>558.6</ele>
        <time>2022-09-04T08:55:05Z</time>
      </trkpt>
      <trkpt lat="43.24893" lon="-1.46741">
        <ele>557.9</ele>
        <time>2022-09-04T08:55:06Z</time>
      </trkpt>
      <trkpt lat="43.24899" lon="-1.46741">
        <ele>557.3</ele>
        <time>2022-09-04T08:55:07Z</time>
      </trkpt>
      <trkpt lat="43.24904" lon="-1.46742">
        <ele>556.8</ele>
        <time>2022-09-04T08:55:08Z</time>
      </trkpt>
      <trkpt lat="43.24907" lon="-1.46745">
        <ele>556.5</ele>
        <time>2022-09-04T08:55:09Z</time>
      </trkpt>
      <trkpt lat="43.24907" lon="-1.4675">
        <ele>556.1</ele>
        <time>2022-09-04T08:55:10Z</time>
      </trkpt>
      <trkpt lat="43.24906" lon="-1.46754">
        <ele>555.8</ele>
        <time>2022-09-04T08:55:11Z</time>
      </trkpt>
      <trkpt lat="43.24903" lon="-1.46757">
        <ele>555.4</ele>
        <time>2022-09-04T08:55:12Z</time>
      </trkpt>
      <trkpt lat="43.249" lon="-1.46761">
        <ele>555</ele>
        <time>2022-09-04T08:55:13Z</time>
      </trkpt>
      <trkpt lat="43.24896" lon="-1.46765">
        <ele>554.5</ele>
        <time>2022-09-04T08:55:14Z</time>
      </trkpt>
      <trkpt lat="43.24891" lon="-1.4677">
        <ele>553.8</ele>
        <time>2022-09-04T08:55:15Z</time>
      </trkpt>
      <trkpt lat="43.24885" lon="-1.46777">
        <ele>553.1</ele>
        <time>2022-09-04T08:55:16Z</time>
      </trkpt>
      <trkpt lat="43.24879" lon="-1.46783">
        <ele>552.4</ele>
        <time>2022-09-04T08:55:17Z</time>
      </trkpt>
      <trkpt lat="43.24873" lon="-1.46786">
        <ele>551.7</ele>
        <time>2022-09-04T08:55:18Z</time>
      </trkpt>
      <trkpt lat="43.24866" lon="-1.46789">
        <ele>551</ele>
        <time>2022-09-04T08:55:19Z</time>
      </trkpt>
      <trkpt lat="43.24859" lon="-1.46789">
        <ele>550.3</ele>
        <time>2022-09-04T08:55:20Z</time>
      </trkpt>
      <trkpt lat="43.24852" lon="-1.46789">
        <ele>549.5</ele>
        <time>2022-09-04T08:55:21Z</time>
      </trkpt>
      <trkpt lat="43.24844" lon="-1.46789">
        <ele>548.7</ele>
        <time>2022-09-04T08:55:22Z</time>
      </trkpt>
      <trkpt lat="43.24836" lon="-1.4679">
        <ele>547.9</ele>
        <time>2022-09-04T08:55:23Z</time>
      </trkpt>
      <trkpt lat="43.24828" lon="-1.46791">
        <ele>547.2</ele>
        <time>2022-09-04T08:55:24Z</time>
      </trkpt>
      <trkpt lat="43.24822" lon="-1.46792">
        <ele>546.5</ele>
        <time>2022-09-04T08:55:25Z</time>
      </trkpt>
      <trkpt lat="43.24816" lon="-1.46791">
        <ele>545.9</ele>
        <time>2022-09-04T08:55:26Z</time>
      </trkpt>
      <trkpt lat="43.2481" lon="-1.46789">
        <ele>545.3</ele>
        <time>2022-09-04T08:55:27Z</time>
      </trkpt>
      <trkpt lat="43.24805" lon="-1.46785">
        <ele>544.7</ele>
        <time>2022-09-04T08:55:28Z</time>
      </trkpt>
      <trkpt lat="43.248" lon="-1.46781">
        <ele>544.1</ele>
        <time>2022-09-04T08:55:29Z</time>
      </trkpt>
      <trkpt lat="43.24797" lon="-1.46775">
        <ele>543.6</ele>
        <time>2022-09-04T08:55:30Z</time>
      </trkpt>
      <trkpt lat="43.24795" lon="-1.46771">
        <ele>541.7</ele>
        <time>2022-09-04T08:55:31Z</time>
      </trkpt>
      <trkpt lat="43.24793" lon="-1.46768">
        <ele>547.5</ele>
        <time>2022-09-04T08:55:32Z</time>
      </trkpt>
      <trkpt lat="43.2479" lon="-1.46766">
        <ele>547</ele>
        <time>2022-09-04T08:55:33Z</time>
      </trkpt>
      <trkpt lat="43.24787" lon="-1.46766">
        <ele>546.5</ele>
        <time>2022-09-04T08:55:34Z</time>
      </trkpt>
      <trkpt lat="43.24785" lon="-1.4677">
        <ele>546</ele>
        <time>2022-09-04T08:55:35Z</time>
      </trkpt>
      <trkpt lat="43.24783" lon="-1.46777">
        <ele>537.9</ele>
        <time>2022-09-04T08:55:36Z</time>
      </trkpt>
      <trkpt lat="43.2478" lon="-1.46786">
        <ele>537.3</ele>
        <time>2022-09-04T08:55:37Z</time>
      </trkpt>
      <trkpt lat="43.24777" lon="-1.46791">
        <ele>531.6</ele>
        <time>2022-09-04T08:55:38Z</time>
      </trkpt>
      <trkpt lat="43.24773" lon="-1.46794">
        <ele>531.1</ele>
        <time>2022-09-04T08:55:39Z</time>
      </trkpt>
      <trkpt lat="43.24771" lon="-1.46795">
        <ele>530.5</ele>
        <time>2022-09-04T08:55:40Z</time>
      </trkpt>
      <trkpt lat="43.2477" lon="-1.46796">
        <ele>530</ele>
        <time>2022-09-04T08:55:41Z</time>
      </trkpt>
      <trkpt lat="43.2477" lon="-1.46797">
        <ele>528.8</ele>
        <time>2022-09-04T08:55:42Z</time>
      </trkpt>
      <trkpt lat="43.24769" lon="-1.46797">
        <ele>528.3</ele>
        <time>2022-09-04T08:55:43Z</time>
      </trkpt>
      <trkpt lat="43.24769" lon="-1.46797">
        <ele>527.8</ele>
        <time>2022-09-04T08:55:44Z</time>
      </trkpt>
      <trkpt lat="43.24769" lon="-1.46797">
        <ele>527.3</ele>
        <time>2022-09-04T08:55:45Z</time>
      </trkpt>
      <trkpt lat="43.24769" lon="-1.46797">
        <ele>526.8</ele>
        <time>2022-09-04T08:55:46Z</time>
      </trkpt>
      <trkpt lat="43.24769" lon="-1.46797">
        <ele>526.3</ele>
        <time>2022-09-04T08:55:47Z</time>
      </trkpt>
      <trkpt lat="43.24769" lon="-1.46797">
        <ele>525.8</ele>
        <time>2022-09-04T08:55:48Z</time>
      </trkpt>
      <trkpt lat="43.24769" lon="-1.46797">
        <ele>525.3</ele>
        <time>2022-09-04T08:55:49Z</time>
      </trkpt>
      <trkpt lat="43.24769" lon="-1.46797">
        <ele>524.8</ele>
        <time>2022-09-04T08:55:50Z</time>
      </trkpt>
      <trkpt lat="43.24768" lon="-1.46797">
        <ele>524.3</ele>
        <time>2022-09-04T08:55:51Z</time>
      </trkpt>
      <trkpt lat="43.24765" lon="-1.46798">
        <ele>523.8</ele>
        <time>2022-09-04T08:55:52Z</time>
      </trkpt>
      <trkpt lat="43.24763" lon="-1.46799">
        <ele>523.3</ele>
        <time>2022-09-04T08:55:53Z</time>
      </trkpt>
      <trkpt lat="43.2476" lon="-1.46799">
        <ele>522.7</ele>
        <time>2022-09-04T08:55:54Z</time>
      </trkpt>
      <trkpt lat="43.24756" lon="-1.46798">
        <ele>521.9</ele>
        <time>2022-09-04T08:55:55Z</time>
      </trkpt>
      <trkpt lat="43.24752" lon="-1.46797">
        <ele>521.4</ele>
        <time>2022-09-04T08:55:56Z</time>
      </trkpt>
      <trkpt lat="43.24747" lon="-1.46795">
        <ele>520.9</ele>
        <time>2022-09-04T08:55:57Z</time>
      </trkpt>
      <trkpt lat="43.24743" lon="-1.46793">
        <ele>520.3</ele>
        <time>2022-09-04T08:55:58Z</time>
      </trkpt>
      <trkpt lat="43.24738" lon="-1.46791">
        <ele>519.8</ele>
        <time>2022-09-04T08:55:59Z</time>
      </trkpt>
      <trkpt lat="43.24733" lon="-1.4679">
        <ele>519.3</ele>
        <time>2022-09-04T08:56:00Z</time>
      </trkpt>
      <trkpt lat="43.24729" lon="-1.46789">
        <ele>518.9</ele>
        <time>2022-09-04T08:56:01Z</time>
      </trkpt>
      <trkpt lat="43.24725" lon="-1.4679">
        <ele>518.4</ele>
        <time>2022-09-04T08:56:02Z</time>
      </trkpt>
      <trkpt lat="43.24721" lon="-1.46791">
        <ele>517.9</ele>
        <time>2022-09-04T08:56:03Z</time>
      </trkpt>
      <trkpt lat="43.24717" lon="-1.46792">
        <ele>517.6</ele>
        <time>2022-09-04T08:56:04Z</time>
      </trkpt>
      <trkpt lat="43.24713" lon="-1.46795">
        <ele>517.1</ele>
        <time>2022-09-04T08:56:05Z</time>
      </trkpt>
      <trkpt lat="43.24709" lon="-1.46799">
        <ele>516.6</ele>
        <time>2022-09-04T08:56:06Z</time>
      </trkpt>
      <trkpt lat="43.24705" lon="-1.46806">
        <ele>512.8</ele>
        <time>2022-09-04T08:56:07Z</time>
      </trkpt>
      <trkpt lat="43.24701" lon="-1.46814">
        <ele>512.3</ele>
        <time>2022-09-04T08:56:08Z</time>
      </trkpt>
      <trkpt lat="43.24697" lon="-1.46821">
        <ele>511.8</ele>
        <time>2022-09-04T08:56:09Z</time>
      </trkpt>
      <trkpt lat="43.24693" lon="-1.46828">
        <ele>508.7</ele>
        <time>2022-09-04T08:56:10Z</time>
      </trkpt>
      <trkpt lat="43.24688" lon="-1.46834">
        <ele>508.2</ele>
        <time>2022-09-04T08:56:11Z</time>
      </trkpt>
      <trkpt lat="43.24683" lon="-1.46839">
        <ele>503.6</ele>
        <time>2022-09-04T08:56:12Z</time>
      </trkpt>
      <trkpt lat="43.24678" lon="-1.46844">
        <ele>503.5</ele>
        <time>2022-09-04T08:56:13Z</time>
      </trkpt>
      <trkpt lat="43.24674" lon="-1.46848">
        <ele>503</ele>
        <time>2022-09-04T08:56:14Z</time>
      </trkpt>
      <trkpt lat="43.2467" lon="-1.46852">
        <ele>502.9</ele>
        <time>2022-09-04T08:56:15Z</time>
      </trkpt>
      <trkpt lat="43.24666" lon="-1.46855">
        <ele>502.4</ele>
        <time>2022-09-04T08:56:16Z</time>
      </trkpt>
      <trkpt lat="43.24662" lon="-1.46859">
        <ele>497.8</ele>
        <time>2022-09-04T08:56:17Z</time>
      </trkpt>
      <trkpt lat="43.24658" lon="-1.46863">
        <ele>498</ele>
        <time>2022-09-04T08:56:18Z</time>
      </trkpt>
      <trkpt lat="43.24653" lon="-1.46867">
        <ele>497.5</ele>
        <time>2022-09-04T08:56:19Z</time>
      </trkpt>
      <trkpt lat="43.24647" lon="-1.46871">
        <ele>496.9</ele>
        <time>2022-09-04T08:56:20Z</time>
      </trkpt>
      <trkpt lat="43.24642" lon="-1.46875">
        <ele>493.6</ele>
        <time>2022-09-04T08:56:21Z</time>
      </trkpt>
      <trkpt lat="43.24637" lon="-1.46877">
        <ele>493.1</ele>
        <time>2022-09-04T08:56:22Z</time>
      </trkpt>
      <trkpt lat="43.24631" lon="-1.46878">
        <ele>493.8</ele>
        <time>2022-09-04T08:56:23Z</time>
      </trkpt>
      <trkpt lat="43.24623" lon="-1.46878">
        <ele>493.3</ele>
        <time>2022-09-04T08:56:24Z</time>
      </trkpt>
      <trkpt lat="43.24616" lon="-1.46876">
        <ele>493.9</ele>
        <time>2022-09-04T08:56:25Z</time>
      </trkpt>
      <trkpt lat="43.24609" lon="-1.46874">
        <ele>493.4</ele>
        <time>2022-09-04T08:56:26Z</time>
      </trkpt>
      <trkpt lat="43.24601" lon="-1.4687">
        <ele>497.9</ele>
        <time>2022-09-04T08:56:27Z</time>
      </trkpt>
      <trkpt lat="43.24594" lon="-1.46864">
        <ele>498.6</ele>
        <time>2022-09-04T08:56:28Z</time>
      </trkpt>
      <trkpt lat="43.24588" lon="-1.46857">
        <ele>498.1</ele>
        <time>2022-09-04T08:56:29Z</time>
      </trkpt>
      <trkpt lat="43.24583" lon="-1.46849">
        <ele>501.2</ele>
        <time>2022-09-04T08:56:30Z</time>
      </trkpt>
      <trkpt lat="43.24579" lon="-1.4684">
        <ele>502.8</ele>
        <time>2022-09-04T08:56:31Z</time>
      </trkpt>
      <trkpt lat="43.24574" lon="-1.46832">
        <ele>505.6</ele>
        <time>2022-09-04T08:56:32Z</time>
      </trkpt>
      <trkpt lat="43.24571" lon="-1.46824">
        <ele>505.1</ele>
        <time>2022-09-04T08:56:33Z</time>
      </trkpt>
      <trkpt lat="43.24569" lon="-1.46815">
        <ele>509.8</ele>
        <time>2022-09-04T08:56:34Z</time>
      </trkpt>
      <trkpt lat="43.24567" lon="-1.46807">
        <ele>509.3</ele>
        <time>2022-09-04T08:56:35Z</time>
      </trkpt>
      <trkpt lat="43.24565" lon="-1.46801">
        <ele>511.8</ele>
        <time>2022-09-04T08:56:36Z</time>
      </trkpt>
      <trkpt lat="43.24563" lon="-1.46797">
        <ele>511.3</ele>
        <time>2022-09-04T08:56:37Z</time>
      </trkpt>
      <trkpt lat="43.24563" lon="-1.46796">
        <ele>510.8</ele>
        <time>2022-09-04T08:56:38Z</time>
      </trkpt>
      <trkpt lat="43.24564" lon="-1.46798">
        <ele>510.3</ele>
        <time>2022-09-04T08:56:39Z</time>
      </trkpt>
      <trkpt lat="43.24564" lon="-1.468">
        <ele>509.8</ele>
        <time>2022-09-04T08:56:40Z</time>
      </trkpt>
      <trkpt lat="43.24565" lon="-1.46802">
        <ele>509.3</ele>
        <time>2022-09-04T08:56:41Z</time>
      </trkpt>
      <trkpt lat="43.24565" lon="-1.46804">
        <ele>508.7</ele>
        <time>2022-09-04T08:56:42Z</time>
      </trkpt>
      <trkpt lat="43.24566" lon="-1.46813">
        <ele>505.2</ele>
        <time>2022-09-04T08:56:43Z</time>
      </trkpt>
      <trkpt lat="43.24566" lon="-1.46825">
        <ele>501.9</ele>
        <time>2022-09-04T08:56:44Z</time>
      </trkpt>
      <trkpt lat="43.24566" lon="-1.46836">
        <ele>501.4</ele>
        <time>2022-09-04T08:56:45Z</time>
      </trkpt>
      <trkpt lat="43.24566" lon="-1.46848">
        <ele>497.4</ele>
        <time>2022-09-04T08:56:46Z</time>
      </trkpt>
      <trkpt lat="43.24566" lon="-1.46859">
        <ele>493.3</ele>
        <time>2022-09-04T08:56:47Z</time>
      </trkpt>
      <trkpt lat="43.24565" lon="-1.46872">
        <ele>492.7</ele>
        <time>2022-09-04T08:56:48Z</time>
      </trkpt>
      <trkpt lat="43.24564" lon="-1.46884">
        <ele>488.8</ele>
        <time>2022-09-04T08:56:49Z</time>
      </trkpt>
      <trkpt lat="43.24564" lon="-1.46897">
        <ele>484.7</ele>
        <time>2022-09-04T08:56:50Z</time>
      </trkpt>
      <trkpt lat="43.24564" lon="-1.46909">
        <ele>480.9</ele>
        <time>2022-09-04T08:56:51Z</time>
      </trkpt>
      <trkpt lat="43.24565" lon="-1.46921">
        <ele>480.4</ele>
        <time>2022-09-04T08:56:52Z</time>
      </trkpt>
      <trkpt lat="43.24565" lon="-1.46931">
        <ele>476.7</ele>
        <time>2022-09-04T08:56:53Z</time>
      </trkpt>
      <trkpt lat="43.24566" lon="-1.4694">
        <ele>476.2</ele>
        <time>2022-09-04T08:56:54Z</time>
      </trkpt>
      <trkpt lat="43.24566" lon="-1.46947">
        <ele>472.3</ele>
        <time>2022-09-04T08:56:55Z</time>
      </trkpt>
      <trkpt lat="43.24567" lon="-1.46952">
        <ele>471.8</ele>
        <time>2022-09-04T08:56:56Z</time>
      </trkpt>
      <trkpt lat="43.2457" lon="-1.46957">
        <ele>471.3</ele>
        <time>2022-09-04T08:56:57Z</time>
      </trkpt>
      <trkpt lat="43.24572" lon="-1.46964">
        <ele>465.1</ele>
        <time>2022-09-04T08:56:58Z</time>
      </trkpt>
      <trkpt lat="43.24575" lon="-1.46973">
        <ele>464.6</ele>
        <time>2022-09-04T08:56:59Z</time>
      </trkpt>
      <trkpt lat="43.24577" lon="-1.46983">
        <ele>460.9</ele>
        <time>2022-09-04T08:57:00Z</time>
      </trkpt>
      <trkpt lat="43.24579" lon="-1.46994">
        <ele>457.4</ele>
        <time>2022-09-04T08:57:01Z</time>
      </trkpt>
      <trkpt lat="43.24581" lon="-1.47006">
        <ele>456.9</ele>
        <time>2022-09-04T08:57:02Z</time>
      </trkpt>
      <trkpt lat="43.24582" lon="-1.47019">
        <ele>454</ele>
        <time>2022-09-04T08:57:03Z</time>
      </trkpt>
      <trkpt lat="43.24582" lon="-1.47031">
        <ele>451.4</ele>
        <time>2022-09-04T08:57:04Z</time>
      </trkpt>
      <trkpt lat="43.24582" lon="-1.47042">
        <ele>450.9</ele>
        <time>2022-09-04T08:57:05Z</time>
      </trkpt>
      <trkpt lat="43.24582" lon="-1.47053">
        <ele>448.3</ele>
        <time>2022-09-04T08:57:06Z</time>
      </trkpt>
      <trkpt lat="43.2458" lon="-1.47063">
        <ele>447.1</ele>
        <time>2022-09-04T08:57:07Z</time>
      </trkpt>
      <trkpt lat="43.24576" lon="-1.47071">
        <ele>446.5</ele>
        <time>2022-09-04T08:57:08Z</time>
      </trkpt>
      <trkpt lat="43.24571" lon="-1.47076">
        <ele>446</ele>
        <time>2022-09-04T08:57:09Z</time>
      </trkpt>
      <trkpt lat="43.24567" lon="-1.47081">
        <ele>450.4</ele>
        <time>2022-09-04T08:57:10Z</time>
      </trkpt>
      <trkpt lat="43.24562" lon="-1.47085">
        <ele>449.9</ele>
        <time>2022-09-04T08:57:11Z</time>
      </trkpt>
      <trkpt lat="43.24558" lon="-1.47088">
        <ele>449.4</ele>
        <time>2022-09-04T08:57:12Z</time>
      </trkpt>
      <trkpt lat="43.24555" lon="-1.47092">
        <ele>453.2</ele>
        <time>2022-09-04T08:57:13Z</time>
      </trkpt>
      <trkpt lat="43.24551" lon="-1.47095">
        <ele>452.7</ele>
        <time>2022-09-04T08:57:14Z</time>
      </trkpt>
      <trkpt lat="43.24546" lon="-1.47097">
        <ele>454.4</ele>
        <time>2022-09-04T08:57:15Z</time>
      </trkpt>
      <trkpt lat="43.24541" lon="-1.47099">
        <ele>457.4</ele>
        <time>2022-09-04T08:57:16Z</time>
      </trkpt>
      <trkpt lat="43.24537" lon="-1.47101">
        <ele>456.9</ele>
        <time>2022-09-04T08:57:17Z</time>
      </trkpt>
      <trkpt lat="43.24535" lon="-1.47104">
        <ele>456.4</ele>
        <time>2022-09-04T08:57:18Z</time>
      </trkpt>
      <trkpt lat="43.24533" lon="-1.47108">
        <ele>455.9</ele>
        <time>2022-09-04T08:57:19Z</time>
      </trkpt>
      <trkpt lat="43.24533" lon="-1.47109">
        <ele>455.4</ele>
        <time>2022-09-04T08:57:20Z</time>
      </trkpt>
      <trkpt lat="43.24534" lon="-1.4711">
        <ele>454.9</ele>
        <time>2022-09-04T08:57:21Z</time>
      </trkpt>
      <trkpt lat="43.24535" lon="-1.4711">
        <ele>454.3</ele>
        <time>2022-09-04T08:57:22Z</time>
      </trkpt>
      <trkpt lat="43.24537" lon="-1.4711">
        <ele>453.8</ele>
        <time>2022-09-04T08:57:23Z</time>
      </trkpt>
      <trkpt lat="43.2454" lon="-1.47111">
        <ele>453.3</ele>
        <time>2022-09-04T08:57:24Z</time>
      </trkpt>
      <trkpt lat="43.24541" lon="-1.47112">
        <ele>452.8</ele>
        <time>2022-09-04T08:57:25Z</time>
      </trkpt>
      <trkpt lat="43.24544" lon="-1.47113">
        <ele>452.3</ele>
        <time>2022-09-04T08:57:26Z</time>
      </trkpt>
      <trkpt lat="43.24545" lon="-1.47113">
        <ele>451.8</ele>
        <time>2022-09-04T08:57:27Z</time>
      </trkpt>
      <trkpt lat="43.24547" lon="-1.47117">
        <ele>449.5</ele>
        <time>2022-09-04T08:57:28Z</time>
      </trkpt>
      <trkpt lat="43.24548" lon="-1.47119">
        <ele>449</ele>
        <time>2022-09-04T08:57:29Z</time>
      </trkpt>
      <trkpt lat="43.2455" lon="-1.47123">
        <ele>448.4</ele>
        <time>2022-09-04T08:57:30Z</time>
      </trkpt>
      <trkpt lat="43.24552" lon="-1.47127">
        <ele>448.6</ele>
        <time>2022-09-04T08:57:31Z</time>
      </trkpt>
      <trkpt lat="43.24554" lon="-1.4713">
        <ele>448.8</ele>
        <time>2022-09-04T08:57:32Z</time>
      </trkpt>
      <trkpt lat="43.24556" lon="-1.47134">
        <ele>448.9</ele>
        <time>2022-09-04T08:57:33Z</time>
      </trkpt>
      <trkpt lat="43.24558" lon="-1.47137">
        <ele>449.1</ele>
        <time>2022-09-04T08:57:34Z</time>
      </trkpt>
      <trkpt lat="43.24561" lon="-1.47139">
        <ele>449.2</ele>
        <time>2022-09-04T08:57:35Z</time>
      </trkpt>
      <trkpt lat="43.24564" lon="-1.47141">
        <ele>449.4</ele>
        <time>2022-09-04T08:57:36Z</time>
      </trkpt>
      <trkpt lat="43.24565" lon="-1.47141">
        <ele>449.4</ele>
        <time>2022-09-04T08:57:37Z</time>
      </trkpt>
      <trkpt lat="43.24569" lon="-1.47143">
        <ele>449.7</ele>
        <time>2022-09-04T08:57:38Z</time>
      </trkpt>
      <trkpt lat="43.2457" lon="-1.47145">
        <ele>449.8</ele>
        <time>2022-09-04T08:57:39Z</time>
      </trkpt>
      <trkpt lat="43.24574" lon="-1.47147">
        <ele>450</ele>
        <time>2022-09-04T08:57:40Z</time>
      </trkpt>
      <trkpt lat="43.24577" lon="-1.47151">
        <ele>450.2</ele>
        <time>2022-09-04T08:57:41Z</time>
      </trkpt>
      <trkpt lat="43.2458" lon="-1.47154">
        <ele>450.4</ele>
        <time>2022-09-04T08:57:42Z</time>
      </trkpt>
      <trkpt lat="43.24583" lon="-1.47159">
        <ele>450.6</ele>
        <time>2022-09-04T08:57:43Z</time>
      </trkpt>
      <trkpt lat="43.24586" lon="-1.47163">
        <ele>450.9</ele>
        <time>2022-09-04T08:57:44Z</time>
      </trkpt>
      <trkpt lat="43.24589" lon="-1.47168">
        <ele>451.1</ele>
        <time>2022-09-04T08:57:45Z</time>
      </trkpt>
      <trkpt lat="43.24592" lon="-1.47172">
        <ele>451.3</ele>
        <time>2022-09-04T08:57:46Z</time>
      </trkpt>
      <trkpt lat="43.24596" lon="-1.47175">
        <ele>451.6</ele>
        <time>2022-09-04T08:57:47Z</time>
      </trkpt>
      <trkpt lat="43.246" lon="-1.4718">
        <ele>451.8</ele>
        <time>2022-09-04T08:57:48Z</time>
      </trkpt>
      <trkpt lat="43.24604" lon="-1.47185">
        <ele>452</ele>
        <time>2022-09-04T08:57:49Z</time>
      </trkpt>
      <trkpt lat="43.24608" lon="-1.47189">
        <ele>452.2</ele>
        <time>2022-09-04T08:57:50Z</time>
      </trkpt>
      <trkpt lat="43.24612" lon="-1.47193">
        <ele>452.4</ele>
        <time>2022-09-04T08:57:51Z</time>
      </trkpt>
      <trkpt lat="43.24615" lon="-1.47195">
        <ele>452.6</ele>
        <time>2022-09-04T08:57:52Z</time>
      </trkpt>
      <trkpt lat="43.24619" lon="-1.47198">
        <ele>452.8</ele>
        <time>2022-09-04T08:57:53Z</time>
      </trkpt>
      <trkpt lat="43.24622" lon="-1.47201">
        <ele>453</ele>
        <time>2022-09-04T08:57:54Z</time>
      </trkpt>
      <trkpt lat="43.24625" lon="-1.47203">
        <ele>453.2</ele>
        <time>2022-09-04T08:57:55Z</time>
      </trkpt>
      <trkpt lat="43.24628" lon="-1.47205">
        <ele>453.4</ele>
        <time>2022-09-04T08:57:56Z</time>
      </trkpt>
      <trkpt lat="43.24631" lon="-1.47206">
        <ele>453.6</ele>
        <time>2022-09-04T08:57:57Z</time>
      </trkpt>
      <trkpt lat="43.24634" lon="-1.47208">
        <ele>453.9</ele>
        <time>2022-09-04T08:57:58Z</time>
      </trkpt>
      <trkpt lat="43.24637" lon="-1.47209">
        <ele>454.2</ele>
        <time>2022-09-04T08:57:59Z</time>
      </trkpt>
      <trkpt lat="43.24641" lon="-1.4721">
        <ele>454.5</ele>
        <time>2022-09-04T08:58:00Z</time>
      </trkpt>
      <trkpt lat="43.24644" lon="-1.47212">
        <ele>454.9</ele>
        <time>2022-09-04T08:58:01Z</time>
      </trkpt>
      <trkpt lat="43.24647" lon="-1.47213">
        <ele>455.2</ele>
        <time>2022-09-04T08:58:02Z</time>
      </trkpt>
      <trkpt lat="43.2465" lon="-1.47214">
        <ele>455.5</ele>
        <time>2022-09-04T08:58:03Z</time>
      </trkpt>
      <trkpt lat="43.24654" lon="-1.47215">
        <ele>455.9</ele>
        <time>2022-09-04T08:58:04Z</time>
      </trkpt>
      <trkpt lat="43.24657" lon="-1.47216">
        <ele>456.3</ele>
        <time>2022-09-04T08:58:05Z</time>
      </trkpt>
      <trkpt lat="43.24661" lon="-1.47217">
        <ele>456.7</ele>
        <time>2022-09-04T08:58:06Z</time>
      </trkpt>
      <trkpt lat="43.24665" lon="-1.47219">
        <ele>457.1</ele>
        <time>2022-09-04T08:58:07Z</time>
      </trkpt>
      <trkpt lat="43.24669" lon="-1.47221">
        <ele>457.4</ele>
        <time>2022-09-04T08:58:08Z</time>
      </trkpt>
      <trkpt lat="43.24672" lon="-1.47222">
        <ele>457.7</ele>
        <time>2022-09-04T08:58:09Z</time>
      </trkpt>
      <trkpt lat="43.24676" lon="-1.47224">
        <ele>458</ele>
        <time>2022-09-04T08:58:10Z</time>
      </trkpt>
      <trkpt lat="43.24679" lon="-1.47225">
        <ele>458.2</ele>
        <time>2022-09-04T08:58:11Z</time>
      </trkpt>
      <trkpt lat="43.24682" lon="-1.47227">
        <ele>458.5</ele>
        <time>2022-09-04T08:58:12Z</time>
      </trkpt>
      <trkpt lat="43.24686" lon="-1.4723">
        <ele>458.7</ele>
        <time>2022-09-04T08:58:13Z</time>
      </trkpt>
      <trkpt lat="43.24689" lon="-1.47232">
        <ele>459</ele>
        <time>2022-09-04T08:58:14Z</time>
      </trkpt>
      <trkpt lat="43.24693" lon="-1.47235">
        <ele>459.3</ele>
        <time>2022-09-04T08:58:15Z</time>
      </trkpt>
      <trkpt lat="43.24696" lon="-1.47238">
        <ele>459.6</ele>
        <time>2022-09-04T08:58:16Z</time>
      </trkpt>
      <trkpt lat="43.24699" lon="-1.4724">
        <ele>459.9</ele>
        <time>2022-09-04T08:58:17Z</time>
      </trkpt>
      <trkpt lat="43.24702" lon="-1.47242">
        <ele>460.2</ele>
        <time>2022-09-04T08:58:18Z</time>
      </trkpt>
      <trkpt lat="43.24705" lon="-1.47245">
        <ele>460.5</ele>
        <time>2022-09-04T08:58:19Z</time>
      </trkpt>
      <trkpt lat="43.24708" lon="-1.47248">
        <ele>460.8</ele>
        <time>2022-09-04T08:58:20Z</time>
      </trkpt>
      <trkpt lat="43.24711" lon="-1.4725">
        <ele>461</ele>
        <time>2022-09-04T08:58:21Z</time>
      </trkpt>
      <trkpt lat="43.24713" lon="-1.47253">
        <ele>461.3</ele>
        <time>2022-09-04T08:58:22Z</time>
      </trkpt>
      <trkpt lat="43.24716" lon="-1.47256">
        <ele>461.5</ele>
        <time>2022-09-04T08:58:23Z</time>
      </trkpt>
      <trkpt lat="43.24718" lon="-1.47259">
        <ele>461.8</ele>
        <time>2022-09-04T08:58:24Z</time>
      </trkpt>
      <trkpt lat="43.24721" lon="-1.47262">
        <ele>462.2</ele>
        <time>2022-09-04T08:58:25Z</time>
      </trkpt>
      <trkpt lat="43.24723" lon="-1.47266">
        <ele>462.6</ele>
        <time>2022-09-04T08:58:26Z</time>
      </trkpt>
      <trkpt lat="43.24725" lon="-1.4727">
        <ele>463</ele>
        <time>2022-09-04T08:58:27Z</time>
      </trkpt>
      <trkpt lat="43.24727" lon="-1.47273">
        <ele>463.4</ele>
        <time>2022-09-04T08:58:28Z</time>
      </trkpt>
      <trkpt lat="43.24729" lon="-1.47277">
        <ele>463.9</ele>
        <time>2022-09-04T08:58:29Z</time>
      </trkpt>
      <trkpt lat="43.2473" lon="-1.47281">
        <ele>464.2</ele>
        <time>2022-09-04T08:58:30Z</time>
      </trkpt>
      <trkpt lat="43.24729" lon="-1.47285">
        <ele>464.6</ele>
        <time>2022-09-04T08:58:31Z</time>
      </trkpt>
      <trkpt lat="43.24728" lon="-1.47289">
        <ele>465</ele>
        <time>2022-09-04T08:58:32Z</time>
      </trkpt>
      <trkpt lat="43.24726" lon="-1.47292">
        <ele>465.4</ele>
        <time>2022-09-04T08:58:33Z</time>
      </trkpt>
      <trkpt lat="43.24724" lon="-1.47294">
        <ele>465.5</ele>
        <time>2022-09-04T08:58:34Z</time>
      </trkpt>
      <trkpt lat="43.24721" lon="-1.47295">
        <ele>465.7</ele>
        <time>2022-09-04T08:58:35Z</time>
      </trkpt>
      <trkpt lat="43.24718" lon="-1.47295">
        <ele>465.9</ele>
        <time>2022-09-04T08:58:36Z</time>
      </trkpt>
      <trkpt lat="43.24715" lon="-1.47295">
        <ele>466.2</ele>
        <time>2022-09-04T08:58:37Z</time>
      </trkpt>
      <trkpt lat="43.24714" lon="-1.47294">
        <ele>466.2</ele>
        <time>2022-09-04T08:58:38Z</time>
      </trkpt>
      <trkpt lat="43.24711" lon="-1.47294">
        <ele>466.5</ele>
        <time>2022-09-04T08:58:39Z</time>
      </trkpt>
      <trkpt lat="43.2471" lon="-1.47294">
        <ele>466.5</ele>
        <time>2022-09-04T08:58:40Z</time>
      </trkpt>
      <trkpt lat="43.24707" lon="-1.47294">
        <ele>466.8</ele>
        <time>2022-09-04T08:58:41Z</time>
      </trkpt>
      <trkpt lat="43.24703" lon="-1.47293">
        <ele>467</ele>
        <time>2022-09-04T08:58:42Z</time>
      </trkpt>
      <trkpt lat="43.24702" lon="-1.47293">
        <ele>467.1</ele>
        <time>2022-09-04T08:58:43Z</time>
      </trkpt>
      <trkpt lat="43.24698" lon="-1.47292">
        <ele>467.3</ele>
        <time>2022-09-04T08:58:44Z</time>
      </trkpt>
      <trkpt lat="43.24697" lon="-1.47292">
        <ele>467.4</ele>
        <time>2022-09-04T08:58:45Z</time>
      </trkpt>
      <trkpt lat="43.24693" lon="-1.47291">
        <ele>467.5</ele>
        <time>2022-09-04T08:58:46Z</time>
      </trkpt>
      <trkpt lat="43.24692" lon="-1.4729">
        <ele>467.6</ele>
        <time>2022-09-04T08:58:47Z</time>
      </trkpt>
      <trkpt lat="43.24691" lon="-1.47291">
        <ele>467.7</ele>
        <time>2022-09-04T08:58:48Z</time>
      </trkpt>
      <trkpt lat="43.24689" lon="-1.4729">
        <ele>467.8</ele>
        <time>2022-09-04T08:58:49Z</time>
      </trkpt>
      <trkpt lat="43.24687" lon="-1.47291">
        <ele>467.8</ele>
        <time>2022-09-04T08:58:50Z</time>
      </trkpt>
      <trkpt lat="43.24686" lon="-1.47291">
        <ele>467.9</ele>
        <time>2022-09-04T08:58:51Z</time>
      </trkpt>
      <trkpt lat="43.24684" lon="-1.47291">
        <ele>468</ele>
        <time>2022-09-04T08:58:52Z</time>
      </trkpt>
      <trkpt lat="43.24682" lon="-1.47291">
        <ele>468.1</ele>
        <time>2022-09-04T08:58:53Z</time>
      </trkpt>
      <trkpt lat="43.24681" lon="-1.47291">
        <ele>468.2</ele>
        <time>2022-09-04T08:58:54Z</time>
      </trkpt>
      <trkpt lat="43.24681" lon="-1.47291">
        <ele>468.2</ele>
        <time>2022-09-04T08:58:55Z</time>
      </trkpt>
      <trkpt lat="43.24681" lon="-1.47291">
        <ele>468.2</ele>
        <time>2022-09-04T08:58:56Z</time>
      </trkpt>
      <trkpt lat="43.24681" lon="-1.47291">
        <ele>468.2</ele>
        <time>2022-09-04T08:58:57Z</time>
      </trkpt>
      <trkpt lat="43.2468" lon="-1.4729">
        <ele>468.3</ele>
        <time>2022-09-04T08:58:58Z</time>
      </trkpt>
      <trkpt lat="43.24678" lon="-1.47291">
        <ele>468.4</ele>
        <time>2022-09-04T08:58:59Z</time>
      </trkpt>
      <trkpt lat="43.24676" lon="-1.47292">
        <ele>468.5</ele>
        <time>2022-09-04T08:59:00Z</time>
      </trkpt>
      <trkpt lat="43.24673" lon="-1.47293">
        <ele>468.8</ele>
        <time>2022-09-04T08:59:01Z</time>
      </trkpt>
      <trkpt lat="43.24671" lon="-1.47294">
        <ele>468.9</ele>
        <time>2022-09-04T08:59:02Z</time>
      </trkpt>
      <trkpt lat="43.24668" lon="-1.47295">
        <ele>469.1</ele>
        <time>2022-09-04T08:59:03Z</time>
      </trkpt>
      <trkpt lat="43.24665" lon="-1.47297">
        <ele>469.3</ele>
        <time>2022-09-04T08:59:04Z</time>
      </trkpt>
      <trkpt lat="43.24662" lon="-1.47298">
        <ele>469.6</ele>
        <time>2022-09-04T08:59:05Z</time>
      </trkpt>
      <trkpt lat="43.24661" lon="-1.47299">
        <ele>469.7</ele>
        <time>2022-09-04T08:59:06Z</time>
      </trkpt>
      <trkpt lat="43.24657" lon="-1.47301">
        <ele>470</ele>
        <time>2022-09-04T08:59:07Z</time>
      </trkpt>
      <trkpt lat="43.24656" lon="-1.47302">
        <ele>470.1</ele>
        <time>2022-09-04T08:59:08Z</time>
      </trkpt>
      <trkpt lat="43.24653" lon="-1.47303">
        <ele>470.4</ele>
        <time>2022-09-04T08:59:09Z</time>
      </trkpt>
      <trkpt lat="43.24652" lon="-1.47304">
        <ele>470.5</ele>
        <time>2022-09-04T08:59:10Z</time>
      </trkpt>
      <trkpt lat="43.24648" lon="-1.47305">
        <ele>470.8</ele>
        <time>2022-09-04T08:59:11Z</time>
      </trkpt>
      <trkpt lat="43.24647" lon="-1.47306">
        <ele>471</ele>
        <time>2022-09-04T08:59:12Z</time>
      </trkpt>
      <trkpt lat="43.24644" lon="-1.47307">
        <ele>471.4</ele>
        <time>2022-09-04T08:59:13Z</time>
      </trkpt>
      <trkpt lat="43.24642" lon="-1.47307">
        <ele>471.5</ele>
        <time>2022-09-04T08:59:14Z</time>
      </trkpt>
      <trkpt lat="43.2464" lon="-1.47308">
        <ele>471.8</ele>
        <time>2022-09-04T08:59:15Z</time>
      </trkpt>
      <trkpt lat="43.24637" lon="-1.4731">
        <ele>472.2</ele>
        <time>2022-09-04T08:59:16Z</time>
      </trkpt>
      <trkpt lat="43.24634" lon="-1.47312">
        <ele>472.7</ele>
        <time>2022-09-04T08:59:17Z</time>
      </trkpt>
      <trkpt lat="43.24633" lon="-1.47313">
        <ele>472.9</ele>
        <time>2022-09-04T08:59:18Z</time>
      </trkpt>
      <trkpt lat="43.2463" lon="-1.47314">
        <ele>473.3</ele>
        <time>2022-09-04T08:59:19Z</time>
      </trkpt>
      <trkpt lat="43.24629" lon="-1.47315">
        <ele>473.5</ele>
        <time>2022-09-04T08:59:20Z</time>
      </trkpt>
      <trkpt lat="43.24625" lon="-1.47316">
        <ele>473.9</ele>
        <time>2022-09-04T08:59:21Z</time>
      </trkpt>
      <trkpt lat="43.24624" lon="-1.47316">
        <ele>474.1</ele>
        <time>2022-09-04T08:59:22Z</time>
      </trkpt>
      <trkpt lat="43.24621" lon="-1.47318">
        <ele>474.6</ele>
        <time>2022-09-04T08:59:23Z</time>
      </trkpt>
      <trkpt lat="43.2462" lon="-1.47319">
        <ele>474.8</ele>
        <time>2022-09-04T08:59:24Z</time>
      </trkpt>
      <trkpt lat="43.24616" lon="-1.4732">
        <ele>475.3</ele>
        <time>2022-09-04T08:59:25Z</time>
      </trkpt>
      <trkpt lat="43.24615" lon="-1.47321">
        <ele>475.5</ele>
        <time>2022-09-04T08:59:26Z</time>
      </trkpt>
      <trkpt lat="43.24612" lon="-1.47323">
        <ele>476</ele>
        <time>2022-09-04T08:59:27Z</time>
      </trkpt>
      <trkpt lat="43.24611" lon="-1.47323">
        <ele>476.1</ele>
        <time>2022-09-04T08:59:28Z</time>
      </trkpt>
      <trkpt lat="43.24607" lon="-1.47325">
        <ele>476.6</ele>
        <time>2022-09-04T08:59:29Z</time>
      </trkpt>
      <trkpt lat="43.24606" lon="-1.47325">
        <ele>476.8</ele>
        <time>2022-09-04T08:59:30Z</time>
      </trkpt>
      <trkpt lat="43.24603" lon="-1.47328">
        <ele>477.3</ele>
        <time>2022-09-04T08:59:31Z</time>
      </trkpt>
      <trkpt lat="43.24602" lon="-1.47328">
        <ele>477.4</ele>
        <time>2022-09-04T08:59:32Z</time>
      </trkpt>
      <trkpt lat="43.24599" lon="-1.4733">
        <ele>477.8</ele>
        <time>2022-09-04T08:59:33Z</time>
      </trkpt>
      <trkpt lat="43.24598" lon="-1.4733">
        <ele>477.9</ele>
        <time>2022-09-04T08:59:34Z</time>
      </trkpt>
      <trkpt lat="43.24595" lon="-1.47332">
        <ele>478.4</ele>
        <time>2022-09-04T08:59:35Z</time>
      </trkpt>
      <trkpt lat="43.24594" lon="-1.47332">
        <ele>478.5</ele>
        <time>2022-09-04T08:59:36Z</time>
      </trkpt>
      <trkpt lat="43.24593" lon="-1.47333">
        <ele>478.7</ele>
        <time>2022-09-04T08:59:37Z</time>
      </trkpt>
      <trkpt lat="43.24592" lon="-1.47334">
        <ele>478.9</ele>
        <time>2022-09-04T08:59:38Z</time>
      </trkpt>
      <trkpt lat="43.24589" lon="-1.47336">
        <ele>479.3</ele>
        <time>2022-09-04T08:59:39Z</time>
      </trkpt>
      <trkpt lat="43.24588" lon="-1.47337">
        <ele>479.4</ele>
        <time>2022-09-04T08:59:40Z</time>
      </trkpt>
      <trkpt lat="43.24585" lon="-1.47338">
        <ele>479.8</ele>
        <time>2022-09-04T08:59:41Z</time>
      </trkpt>
      <trkpt lat="43.24584" lon="-1.47339">
        <ele>480</ele>
        <time>2022-09-04T08:59:42Z</time>
      </trkpt>
      <trkpt lat="43.24581" lon="-1.4734">
        <ele>480.3</ele>
        <time>2022-09-04T08:59:43Z</time>
      </trkpt>
      <trkpt lat="43.2458" lon="-1.4734">
        <ele>480.4</ele>
        <time>2022-09-04T08:59:44Z</time>
      </trkpt>
      <trkpt lat="43.24576" lon="-1.47341">
        <ele>480.8</ele>
        <time>2022-09-04T08:59:45Z</time>
      </trkpt>
      <trkpt lat="43.24575" lon="-1.47341">
        <ele>480.9</ele>
        <time>2022-09-04T08:59:46Z</time>
      </trkpt>
      <trkpt lat="43.24572" lon="-1.47342">
        <ele>481.2</ele>
        <time>2022-09-04T08:59:47Z</time>
      </trkpt>
      <trkpt lat="43.24569" lon="-1.47344">
        <ele>481.5</ele>
        <time>2022-09-04T08:59:48Z</time>
      </trkpt>
      <trkpt lat="43.24567" lon="-1.47346">
        <ele>481.8</ele>
        <time>2022-09-04T08:59:49Z</time>
      </trkpt>
      <trkpt lat="43.24566" lon="-1.47346">
        <ele>481.9</ele>
        <time>2022-09-04T08:59:50Z</time>
      </trkpt>
      <trkpt lat="43.24565" lon="-1.47347">
        <ele>481.9</ele>
        <time>2022-09-04T08:59:51Z</time>
      </trkpt>
      <trkpt lat="43.24565" lon="-1.47348">
        <ele>482</ele>
        <time>2022-09-04T08:59:52Z</time>
      </trkpt>
      <trkpt lat="43.24563" lon="-1.47349">
        <ele>482.1</ele>
        <time>2022-09-04T08:59:53Z</time>
      </trkpt>
      <trkpt lat="43.2456" lon="-1.47351">
        <ele>482.4</ele>
        <time>2022-09-04T08:59:54Z</time>
      </trkpt>
      <trkpt lat="43.24559" lon="-1.47351">
        <ele>482.5</ele>
        <time>2022-09-04T08:59:55Z</time>
      </trkpt>
      <trkpt lat="43.24557" lon="-1.47353">
        <ele>482.8</ele>
        <time>2022-09-04T08:59:56Z</time>
      </trkpt>
      <trkpt lat="43.24556" lon="-1.47353">
        <ele>482.9</ele>
        <time>2022-09-04T08:59:57Z</time>
      </trkpt>
      <trkpt lat="43.24553" lon="-1.47355">
        <ele>483.1</ele>
        <time>2022-09-04T08:59:58Z</time>
      </trkpt>
      <trkpt lat="43.24552" lon="-1.47355">
        <ele>483.2</ele>
        <time>2022-09-04T08:59:59Z</time>
      </trkpt>
      <trkpt lat="43.24549" lon="-1.47357">
        <ele>483.5</ele>
        <time>2022-09-04T09:00:00Z</time>
      </trkpt>
      <trkpt lat="43.24548" lon="-1.47358">
        <ele>483.6</ele>
        <time>2022-09-04T09:00:01Z</time>
      </trkpt>
      <trkpt lat="43.24546" lon="-1.47359">
        <ele>483.9</ele>
        <time>2022-09-04T09:00:02Z</time>
      </trkpt>
      <trkpt lat="43.24543" lon="-1.47362">
        <ele>484.2</ele>
        <time>2022-09-04T09:00:03Z</time>
      </trkpt>
      <trkpt lat="43.24541" lon="-1.47363">
        <ele>484.6</ele>
        <time>2022-09-04T09:00:04Z</time>
      </trkpt>
      <trkpt lat="43.24537" lon="-1.47365">
        <ele>485.1</ele>
        <time>2022-09-04T09:00:05Z</time>
      </trkpt>
      <trkpt lat="43.24536" lon="-1.47366">
        <ele>485.2</ele>
        <time>2022-09-04T09:00:06Z</time>
      </trkpt>
      <trkpt lat="43.24532" lon="-1.47368">
        <ele>485.8</ele>
        <time>2022-09-04T09:00:07Z</time>
      </trkpt>
      <trkpt lat="43.24531" lon="-1.47369">
        <ele>485.9</ele>
        <time>2022-09-04T09:00:08Z</time>
      </trkpt>
      <trkpt lat="43.24528" lon="-1.47371">
        <ele>486.5</ele>
        <time>2022-09-04T09:00:09Z</time>
      </trkpt>
      <trkpt lat="43.24527" lon="-1.47371">
        <ele>486.7</ele>
        <time>2022-09-04T09:00:10Z</time>
      </trkpt>
      <trkpt lat="43.24524" lon="-1.47373">
        <ele>487.1</ele>
        <time>2022-09-04T09:00:11Z</time>
      </trkpt>
      <trkpt lat="43.2452" lon="-1.47374">
        <ele>487.7</ele>
        <time>2022-09-04T09:00:12Z</time>
      </trkpt>
      <trkpt lat="43.24519" lon="-1.47375">
        <ele>487.8</ele>
        <time>2022-09-04T09:00:13Z</time>
      </trkpt>
      <trkpt lat="43.24516" lon="-1.47377">
        <ele>488.4</ele>
        <time>2022-09-04T09:00:14Z</time>
      </trkpt>
      <trkpt lat="43.24514" lon="-1.47377">
        <ele>488.5</ele>
        <time>2022-09-04T09:00:15Z</time>
      </trkpt>
      <trkpt lat="43.24511" lon="-1.4738">
        <ele>489</ele>
        <time>2022-09-04T09:00:16Z</time>
      </trkpt>
      <trkpt lat="43.2451" lon="-1.47381">
        <ele>489.2</ele>
        <time>2022-09-04T09:00:17Z</time>
      </trkpt>
      <trkpt lat="43.24507" lon="-1.47382">
        <ele>489.6</ele>
        <time>2022-09-04T09:00:18Z</time>
      </trkpt>
      <trkpt lat="43.24505" lon="-1.47384">
        <ele>490</ele>
        <time>2022-09-04T09:00:19Z</time>
      </trkpt>
      <trkpt lat="43.24502" lon="-1.47385">
        <ele>490.4</ele>
        <time>2022-09-04T09:00:20Z</time>
      </trkpt>
      <trkpt lat="43.24498" lon="-1.47387">
        <ele>491</ele>
        <time>2022-09-04T09:00:21Z</time>
      </trkpt>
      <trkpt lat="43.24497" lon="-1.47388">
        <ele>491.2</ele>
        <time>2022-09-04T09:00:22Z</time>
      </trkpt>
      <trkpt lat="43.24494" lon="-1.47389">
        <ele>491.6</ele>
        <time>2022-09-04T09:00:23Z</time>
      </trkpt>
      <trkpt lat="43.24491" lon="-1.47389">
        <ele>491.9</ele>
        <time>2022-09-04T09:00:24Z</time>
      </trkpt>
      <trkpt lat="43.24488" lon="-1.47389">
        <ele>492.2</ele>
        <time>2022-09-04T09:00:25Z</time>
      </trkpt>
      <trkpt lat="43.24486" lon="-1.4739">
        <ele>492.6</ele>
        <time>2022-09-04T09:00:26Z</time>
      </trkpt>
      <trkpt lat="43.24483" lon="-1.4739">
        <ele>492.9</ele>
        <time>2022-09-04T09:00:27Z</time>
      </trkpt>
      <trkpt lat="43.24479" lon="-1.47392">
        <ele>493.3</ele>
        <time>2022-09-04T09:00:28Z</time>
      </trkpt>
      <trkpt lat="43.24478" lon="-1.47392">
        <ele>493.5</ele>
        <time>2022-09-04T09:00:29Z</time>
      </trkpt>
      <trkpt lat="43.24474" lon="-1.47392">
        <ele>493.9</ele>
        <time>2022-09-04T09:00:30Z</time>
      </trkpt>
      <trkpt lat="43.24473" lon="-1.47392">
        <ele>494</ele>
        <time>2022-09-04T09:00:31Z</time>
      </trkpt>
      <trkpt lat="43.24469" lon="-1.47392">
        <ele>494.3</ele>
        <time>2022-09-04T09:00:32Z</time>
      </trkpt>
      <trkpt lat="43.24468" lon="-1.47392">
        <ele>494.4</ele>
        <time>2022-09-04T09:00:33Z</time>
      </trkpt>
      <trkpt lat="43.24464" lon="-1.47392">
        <ele>494.7</ele>
        <time>2022-09-04T09:00:34Z</time>
      </trkpt>
      <trkpt lat="43.24462" lon="-1.47392">
        <ele>494.8</ele>
        <time>2022-09-04T09:00:35Z</time>
      </trkpt>
      <trkpt lat="43.24458" lon="-1.47393">
        <ele>495</ele>
        <time>2022-09-04T09:00:36Z</time>
      </trkpt>
      <trkpt lat="43.24455" lon="-1.47394">
        <ele>495.2</ele>
        <time>2022-09-04T09:00:37Z</time>
      </trkpt>
      <trkpt lat="43.24453" lon="-1.47395">
        <ele>495.4</ele>
        <time>2022-09-04T09:00:38Z</time>
      </trkpt>
      <trkpt lat="43.2445" lon="-1.47397">
        <ele>495.5</ele>
        <time>2022-09-04T09:00:39Z</time>
      </trkpt>
      <trkpt lat="43.24447" lon="-1.47399">
        <ele>495.7</ele>
        <time>2022-09-04T09:00:40Z</time>
      </trkpt>
      <trkpt lat="43.24445" lon="-1.47402">
        <ele>495.9</ele>
        <time>2022-09-04T09:00:41Z</time>
      </trkpt>
      <trkpt lat="43.24442" lon="-1.47405">
        <ele>496.1</ele>
        <time>2022-09-04T09:00:42Z</time>
      </trkpt>
      <trkpt lat="43.2444" lon="-1.47408">
        <ele>496.2</ele>
        <time>2022-09-04T09:00:43Z</time>
      </trkpt>
      <trkpt lat="43.24438" lon="-1.47411">
        <ele>496.3</ele>
        <time>2022-09-04T09:00:44Z</time>
      </trkpt>
      <trkpt lat="43.24436" lon="-1.47415">
        <ele>496.4</ele>
        <time>2022-09-04T09:00:45Z</time>
      </trkpt>
      <trkpt lat="43.24436" lon="-1.47417">
        <ele>496.5</ele>
        <time>2022-09-04T09:00:46Z</time>
      </trkpt>
      <trkpt lat="43.24434" lon="-1.4742">
        <ele>496.6</ele>
        <time>2022-09-04T09:00:47Z</time>
      </trkpt>
      <trkpt lat="43.24433" lon="-1.47422">
        <ele>496.6</ele>
        <time>2022-09-04T09:00:48Z</time>
      </trkpt>
      <trkpt lat="43.24432" lon="-1.47424">
        <ele>496.7</ele>
        <time>2022-09-04T09:00:49Z</time>
      </trkpt>
      <trkpt lat="43.24431" lon="-1.47431">
        <ele>496.9</ele>
        <time>2022-09-04T09:00:51Z</time>
      </trkpt>
      <trkpt lat="43.2443" lon="-1.47434">
        <ele>497.1</ele>
        <time>2022-09-04T09:00:52Z</time>
      </trkpt>
      <trkpt lat="43.24431" lon="-1.47436">
        <ele>497.2</ele>
        <time>2022-09-04T09:00:53Z</time>
      </trkpt>
      <trkpt lat="43.24432" lon="-1.47438">
        <ele>497.3</ele>
        <time>2022-09-04T09:00:54Z</time>
      </trkpt>
      <trkpt lat="43.24433" lon="-1.4744">
        <ele>497.4</ele>
        <time>2022-09-04T09:00:55Z</time>
      </trkpt>
      <trkpt lat="43.24435" lon="-1.47443">
        <ele>497.6</ele>
        <time>2022-09-04T09:00:56Z</time>
      </trkpt>
      <trkpt lat="43.24436" lon="-1.47444">
        <ele>497.7</ele>
        <time>2022-09-04T09:00:57Z</time>
      </trkpt>
      <trkpt lat="43.24439" lon="-1.47448">
        <ele>498</ele>
        <time>2022-09-04T09:00:58Z</time>
      </trkpt>
      <trkpt lat="43.2444" lon="-1.4745">
        <ele>498.1</ele>
        <time>2022-09-04T09:00:59Z</time>
      </trkpt>
      <trkpt lat="43.24443" lon="-1.47454">
        <ele>498.4</ele>
        <time>2022-09-04T09:01:00Z</time>
      </trkpt>
      <trkpt lat="43.24443" lon="-1.47455">
        <ele>498.5</ele>
        <time>2022-09-04T09:01:01Z</time>
      </trkpt>
      <trkpt lat="43.24446" lon="-1.4746">
        <ele>498.8</ele>
        <time>2022-09-04T09:01:02Z</time>
      </trkpt>
      <trkpt lat="43.24447" lon="-1.47461">
        <ele>499</ele>
        <time>2022-09-04T09:01:03Z</time>
      </trkpt>
      <trkpt lat="43.24448" lon="-1.47465">
        <ele>499.3</ele>
        <time>2022-09-04T09:01:04Z</time>
      </trkpt>
      <trkpt lat="43.2445" lon="-1.47469">
        <ele>499.6</ele>
        <time>2022-09-04T09:01:05Z</time>
      </trkpt>
      <trkpt lat="43.24452" lon="-1.47473">
        <ele>500</ele>
        <time>2022-09-04T09:01:06Z</time>
      </trkpt>
      <trkpt lat="43.24453" lon="-1.47477">
        <ele>500.4</ele>
        <time>2022-09-04T09:01:07Z</time>
      </trkpt>
      <trkpt lat="43.24454" lon="-1.47481">
        <ele>500.7</ele>
        <time>2022-09-04T09:01:08Z</time>
      </trkpt>
      <trkpt lat="43.24455" lon="-1.47484">
        <ele>501</ele>
        <time>2022-09-04T09:01:09Z</time>
      </trkpt>
      <trkpt lat="43.24455" lon="-1.47489">
        <ele>501.3</ele>
        <time>2022-09-04T09:01:10Z</time>
      </trkpt>
      <trkpt lat="43.24456" lon="-1.47493">
        <ele>501.6</ele>
        <time>2022-09-04T09:01:11Z</time>
      </trkpt>
      <trkpt lat="43.24457" lon="-1.47496">
        <ele>501.9</ele>
        <time>2022-09-04T09:01:12Z</time>
      </trkpt>
      <trkpt lat="43.24458" lon="-1.475">
        <ele>502.2</ele>
        <time>2022-09-04T09:01:13Z</time>
      </trkpt>
      <trkpt lat="43.24458" lon="-1.47505">
        <ele>502.5</ele>
        <time>2022-09-04T09:01:14Z</time>
      </trkpt>
      <trkpt lat="43.24458" lon="-1.47509">
        <ele>502.8</ele>
        <time>2022-09-04T09:01:15Z</time>
      </trkpt>
      <trkpt lat="43.24459" lon="-1.47512">
        <ele>503</ele>
        <time>2022-09-04T09:01:16Z</time>
      </trkpt>
      <trkpt lat="43.2446" lon="-1.47516">
        <ele>503.3</ele>
        <time>2022-09-04T09:01:17Z</time>
      </trkpt>
      <trkpt lat="43.2446" lon="-1.4752">
        <ele>503.7</ele>
        <time>2022-09-04T09:01:18Z</time>
      </trkpt>
      <trkpt lat="43.24459" lon="-1.47526">
        <ele>504.1</ele>
        <time>2022-09-04T09:01:19Z</time>
      </trkpt>
      <trkpt lat="43.24459" lon="-1.47527">
        <ele>504.3</ele>
        <time>2022-09-04T09:01:20Z</time>
      </trkpt>
      <trkpt lat="43.24457" lon="-1.47531">
        <ele>504.6</ele>
        <time>2022-09-04T09:01:21Z</time>
      </trkpt>
      <trkpt lat="43.24455" lon="-1.47535">
        <ele>505.1</ele>
        <time>2022-09-04T09:01:22Z</time>
      </trkpt>
      <trkpt lat="43.24455" lon="-1.47537">
        <ele>505.2</ele>
        <time>2022-09-04T09:01:23Z</time>
      </trkpt>
      <trkpt lat="43.24452" lon="-1.47539">
        <ele>505.6</ele>
        <time>2022-09-04T09:01:24Z</time>
      </trkpt>
      <trkpt lat="43.2445" lon="-1.47542">
        <ele>505.9</ele>
        <time>2022-09-04T09:01:25Z</time>
      </trkpt>
      <trkpt lat="43.24447" lon="-1.47544">
        <ele>506.3</ele>
        <time>2022-09-04T09:01:26Z</time>
      </trkpt>
      <trkpt lat="43.24445" lon="-1.47547">
        <ele>506.6</ele>
        <time>2022-09-04T09:01:27Z</time>
      </trkpt>
      <trkpt lat="43.24443" lon="-1.47549">
        <ele>507</ele>
        <time>2022-09-04T09:01:28Z</time>
      </trkpt>
      <trkpt lat="43.2444" lon="-1.47553">
        <ele>507.6</ele>
        <time>2022-09-04T09:01:29Z</time>
      </trkpt>
      <trkpt lat="43.24439" lon="-1.47555">
        <ele>507.7</ele>
        <time>2022-09-04T09:01:30Z</time>
      </trkpt>
      <trkpt lat="43.24437" lon="-1.47559">
        <ele>508.2</ele>
        <time>2022-09-04T09:01:31Z</time>
      </trkpt>
      <trkpt lat="43.24436" lon="-1.4756">
        <ele>508.4</ele>
        <time>2022-09-04T09:01:32Z</time>
      </trkpt>
      <trkpt lat="43.24435" lon="-1.47563">
        <ele>508.8</ele>
        <time>2022-09-04T09:01:33Z</time>
      </trkpt>
      <trkpt lat="43.24434" lon="-1.47564">
        <ele>508.9</ele>
        <time>2022-09-04T09:01:34Z</time>
      </trkpt>
      <trkpt lat="43.24433" lon="-1.47569">
        <ele>509.4</ele>
        <time>2022-09-04T09:01:35Z</time>
      </trkpt>
      <trkpt lat="43.24432" lon="-1.4757">
        <ele>509.5</ele>
        <time>2022-09-04T09:01:36Z</time>
      </trkpt>
      <trkpt lat="43.24433" lon="-1.47575">
        <ele>509.9</ele>
        <time>2022-09-04T09:01:37Z</time>
      </trkpt>
      <trkpt lat="43.24433" lon="-1.47576">
        <ele>510</ele>
        <time>2022-09-04T09:01:38Z</time>
      </trkpt>
      <trkpt lat="43.24436" lon="-1.4758">
        <ele>510.4</ele>
        <time>2022-09-04T09:01:39Z</time>
      </trkpt>
      <trkpt lat="43.24436" lon="-1.47581">
        <ele>510.5</ele>
        <time>2022-09-04T09:01:40Z</time>
      </trkpt>
      <trkpt lat="43.24438" lon="-1.47585">
        <ele>510.9</ele>
        <time>2022-09-04T09:01:41Z</time>
      </trkpt>
      <trkpt lat="43.24438" lon="-1.47587">
        <ele>511</ele>
        <time>2022-09-04T09:01:42Z</time>
      </trkpt>
      <trkpt lat="43.24439" lon="-1.47591">
        <ele>511.3</ele>
        <time>2022-09-04T09:01:43Z</time>
      </trkpt>
      <trkpt lat="43.2444" lon="-1.47594">
        <ele>511.7</ele>
        <time>2022-09-04T09:01:44Z</time>
      </trkpt>
      <trkpt lat="43.2444" lon="-1.47598">
        <ele>512</ele>
        <time>2022-09-04T09:01:45Z</time>
      </trkpt>
      <trkpt lat="43.24441" lon="-1.47602">
        <ele>512.4</ele>
        <time>2022-09-04T09:01:46Z</time>
      </trkpt>
      <trkpt lat="43.24441" lon="-1.47606">
        <ele>512.7</ele>
        <time>2022-09-04T09:01:47Z</time>
      </trkpt>
      <trkpt lat="43.24443" lon="-1.47611">
        <ele>513.2</ele>
        <time>2022-09-04T09:01:48Z</time>
      </trkpt>
      <trkpt lat="43.24443" lon="-1.47612">
        <ele>513.3</ele>
        <time>2022-09-04T09:01:49Z</time>
      </trkpt>
      <trkpt lat="43.24445" lon="-1.47616">
        <ele>513.8</ele>
        <time>2022-09-04T09:01:50Z</time>
      </trkpt>
      <trkpt lat="43.24446" lon="-1.47617">
        <ele>513.9</ele>
        <time>2022-09-04T09:01:51Z</time>
      </trkpt>
      <trkpt lat="43.24448" lon="-1.47621">
        <ele>514.3</ele>
        <time>2022-09-04T09:01:52Z</time>
      </trkpt>
      <trkpt lat="43.24449" lon="-1.47622">
        <ele>514.4</ele>
        <time>2022-09-04T09:01:53Z</time>
      </trkpt>
      <trkpt lat="43.2445" lon="-1.47626">
        <ele>514.7</ele>
        <time>2022-09-04T09:01:54Z</time>
      </trkpt>
      <trkpt lat="43.24451" lon="-1.47628">
        <ele>514.8</ele>
        <time>2022-09-04T09:01:55Z</time>
      </trkpt>
      <trkpt lat="43.24452" lon="-1.47632">
        <ele>515.2</ele>
        <time>2022-09-04T09:01:56Z</time>
      </trkpt>
      <trkpt lat="43.24452" lon="-1.47634">
        <ele>515.3</ele>
        <time>2022-09-04T09:01:57Z</time>
      </trkpt>
      <trkpt lat="43.24454" lon="-1.47639">
        <ele>515.7</ele>
        <time>2022-09-04T09:01:58Z</time>
      </trkpt>
      <trkpt lat="43.24454" lon="-1.47641">
        <ele>515.8</ele>
        <time>2022-09-04T09:01:59Z</time>
      </trkpt>
      <trkpt lat="43.24454" lon="-1.47645">
        <ele>516.1</ele>
        <time>2022-09-04T09:02:00Z</time>
      </trkpt>
      <trkpt lat="43.24454" lon="-1.47649">
        <ele>516.4</ele>
        <time>2022-09-04T09:02:01Z</time>
      </trkpt>
      <trkpt lat="43.24453" lon="-1.47652">
        <ele>516.7</ele>
        <time>2022-09-04T09:02:02Z</time>
      </trkpt>
      <trkpt lat="43.24452" lon="-1.47656">
        <ele>517</ele>
        <time>2022-09-04T09:02:03Z</time>
      </trkpt>
      <trkpt lat="43.24451" lon="-1.47659">
        <ele>517.2</ele>
        <time>2022-09-04T09:02:04Z</time>
      </trkpt>
      <trkpt lat="43.24449" lon="-1.47663">
        <ele>517.5</ele>
        <time>2022-09-04T09:02:05Z</time>
      </trkpt>
      <trkpt lat="43.24447" lon="-1.47667">
        <ele>517.9</ele>
        <time>2022-09-04T09:02:06Z</time>
      </trkpt>
      <trkpt lat="43.24447" lon="-1.47668">
        <ele>518.1</ele>
        <time>2022-09-04T09:02:07Z</time>
      </trkpt>
      <trkpt lat="43.24444" lon="-1.47673">
        <ele>518.5</ele>
        <time>2022-09-04T09:02:08Z</time>
      </trkpt>
      <trkpt lat="43.24443" lon="-1.47674">
        <ele>518.7</ele>
        <time>2022-09-04T09:02:09Z</time>
      </trkpt>
      <trkpt lat="43.24441" lon="-1.47677">
        <ele>519</ele>
        <time>2022-09-04T09:02:10Z</time>
      </trkpt>
      <trkpt lat="43.2444" lon="-1.47681">
        <ele>519.3</ele>
        <time>2022-09-04T09:02:11Z</time>
      </trkpt>
      <trkpt lat="43.24439" lon="-1.47684">
        <ele>519.6</ele>
        <time>2022-09-04T09:02:12Z</time>
      </trkpt>
      <trkpt lat="43.24438" lon="-1.4769">
        <ele>520.1</ele>
        <time>2022-09-04T09:02:13Z</time>
      </trkpt>
      <trkpt lat="43.24438" lon="-1.47692">
        <ele>520.3</ele>
        <time>2022-09-04T09:02:14Z</time>
      </trkpt>
      <trkpt lat="43.24439" lon="-1.47697">
        <ele>520.7</ele>
        <time>2022-09-04T09:02:15Z</time>
      </trkpt>
      <trkpt lat="43.24439" lon="-1.47699">
        <ele>520.9</ele>
        <time>2022-09-04T09:02:16Z</time>
      </trkpt>
      <trkpt lat="43.2444" lon="-1.47704">
        <ele>521.4</ele>
        <time>2022-09-04T09:02:17Z</time>
      </trkpt>
      <trkpt lat="43.2444" lon="-1.47706">
        <ele>521.6</ele>
        <time>2022-09-04T09:02:18Z</time>
      </trkpt>
      <trkpt lat="43.24442" lon="-1.4771">
        <ele>522.1</ele>
        <time>2022-09-04T09:02:19Z</time>
      </trkpt>
      <trkpt lat="43.24443" lon="-1.47712">
        <ele>522.2</ele>
        <time>2022-09-04T09:02:20Z</time>
      </trkpt>
      <trkpt lat="43.24445" lon="-1.47717">
        <ele>522.7</ele>
        <time>2022-09-04T09:02:21Z</time>
      </trkpt>
      <trkpt lat="43.24445" lon="-1.47718">
        <ele>522.8</ele>
        <time>2022-09-04T09:02:22Z</time>
      </trkpt>
      <trkpt lat="43.24447" lon="-1.47723">
        <ele>523.2</ele>
        <time>2022-09-04T09:02:23Z</time>
      </trkpt>
      <trkpt lat="43.24447" lon="-1.47725">
        <ele>523.4</ele>
        <time>2022-09-04T09:02:24Z</time>
      </trkpt>
      <trkpt lat="43.24448" lon="-1.47728">
        <ele>523.7</ele>
        <time>2022-09-04T09:02:25Z</time>
      </trkpt>
      <trkpt lat="43.24449" lon="-1.4773">
        <ele>523.8</ele>
        <time>2022-09-04T09:02:26Z</time>
      </trkpt>
      <trkpt lat="43.2445" lon="-1.47734">
        <ele>524.1</ele>
        <time>2022-09-04T09:02:27Z</time>
      </trkpt>
      <trkpt lat="43.24451" lon="-1.47736">
        <ele>524.2</ele>
        <time>2022-09-04T09:02:28Z</time>
      </trkpt>
      <trkpt lat="43.24451" lon="-1.4774">
        <ele>524.5</ele>
        <time>2022-09-04T09:02:29Z</time>
      </trkpt>
      <trkpt lat="43.24451" lon="-1.47742">
        <ele>524.6</ele>
        <time>2022-09-04T09:02:30Z</time>
      </trkpt>
      <trkpt lat="43.24451" lon="-1.47747">
        <ele>524.9</ele>
        <time>2022-09-04T09:02:31Z</time>
      </trkpt>
      <trkpt lat="43.24451" lon="-1.47749">
        <ele>525</ele>
        <time>2022-09-04T09:02:32Z</time>
      </trkpt>
      <trkpt lat="43.24451" lon="-1.47754">
        <ele>525.3</ele>
        <time>2022-09-04T09:02:33Z</time>
      </trkpt>
      <trkpt lat="43.2445" lon="-1.47755">
        <ele>525.4</ele>
        <time>2022-09-04T09:02:34Z</time>
      </trkpt>
      <trkpt lat="43.24449" lon="-1.4776">
        <ele>525.7</ele>
        <time>2022-09-04T09:02:35Z</time>
      </trkpt>
      <trkpt lat="43.24449" lon="-1.47761">
        <ele>525.8</ele>
        <time>2022-09-04T09:02:36Z</time>
      </trkpt>
      <trkpt lat="43.24447" lon="-1.47765">
        <ele>526.1</ele>
        <time>2022-09-04T09:02:37Z</time>
      </trkpt>
      <trkpt lat="43.24447" lon="-1.47767">
        <ele>526.2</ele>
        <time>2022-09-04T09:02:38Z</time>
      </trkpt>
      <trkpt lat="43.24446" lon="-1.47771">
        <ele>526.5</ele>
        <time>2022-09-04T09:02:39Z</time>
      </trkpt>
      <trkpt lat="43.24445" lon="-1.47772">
        <ele>526.6</ele>
        <time>2022-09-04T09:02:40Z</time>
      </trkpt>
      <trkpt lat="43.24444" lon="-1.47776">
        <ele>527</ele>
        <time>2022-09-04T09:02:41Z</time>
      </trkpt>
      <trkpt lat="43.24444" lon="-1.47777">
        <ele>527.1</ele>
        <time>2022-09-04T09:02:42Z</time>
      </trkpt>
      <trkpt lat="43.24442" lon="-1.47781">
        <ele>527.4</ele>
        <time>2022-09-04T09:02:43Z</time>
      </trkpt>
      <trkpt lat="43.24441" lon="-1.47782">
        <ele>527.5</ele>
        <time>2022-09-04T09:02:44Z</time>
      </trkpt>
      <trkpt lat="43.24439" lon="-1.47785">
        <ele>527.9</ele>
        <time>2022-09-04T09:02:45Z</time>
      </trkpt>
      <trkpt lat="43.24439" lon="-1.47786">
        <ele>528</ele>
        <time>2022-09-04T09:02:46Z</time>
      </trkpt>
      <trkpt lat="43.24437" lon="-1.47789">
        <ele>528.3</ele>
        <time>2022-09-04T09:02:47Z</time>
      </trkpt>
      <trkpt lat="43.24436" lon="-1.4779">
        <ele>528.4</ele>
        <time>2022-09-04T09:02:48Z</time>
      </trkpt>
      <trkpt lat="43.24435" lon="-1.47792">
        <ele>528.6</ele>
        <time>2022-09-04T09:02:49Z</time>
      </trkpt>
      <trkpt lat="43.24435" lon="-1.47794">
        <ele>528.9</ele>
        <time>2022-09-04T09:02:50Z</time>
      </trkpt>
      <trkpt lat="43.24437" lon="-1.47797">
        <ele>529.2</ele>
        <time>2022-09-04T09:02:51Z</time>
      </trkpt>
      <trkpt lat="43.24438" lon="-1.47798">
        <ele>529.4</ele>
        <time>2022-09-04T09:02:52Z</time>
      </trkpt>
      <trkpt lat="43.24441" lon="-1.47798">
        <ele>529.8</ele>
        <time>2022-09-04T09:02:53Z</time>
      </trkpt>
      <trkpt lat="43.24444" lon="-1.47797">
        <ele>530.4</ele>
        <time>2022-09-04T09:02:54Z</time>
      </trkpt>
      <trkpt lat="43.24445" lon="-1.47796">
        <ele>530.5</ele>
        <time>2022-09-04T09:02:55Z</time>
      </trkpt>
      <trkpt lat="43.24447" lon="-1.47794">
        <ele>530.9</ele>
        <time>2022-09-04T09:02:56Z</time>
      </trkpt>
      <trkpt lat="43.24448" lon="-1.47793">
        <ele>531.1</ele>
        <time>2022-09-04T09:02:57Z</time>
      </trkpt>
      <trkpt lat="43.2445" lon="-1.47791">
        <ele>531.5</ele>
        <time>2022-09-04T09:02:58Z</time>
      </trkpt>
      <trkpt lat="43.24451" lon="-1.4779">
        <ele>531.7</ele>
        <time>2022-09-04T09:02:59Z</time>
      </trkpt>
      <trkpt lat="43.24453" lon="-1.47789">
        <ele>532</ele>
        <time>2022-09-04T09:03:00Z</time>
      </trkpt>
      <trkpt lat="43.24454" lon="-1.47787">
        <ele>532.2</ele>
        <time>2022-09-04T09:03:01Z</time>
      </trkpt>
      <trkpt lat="43.24453" lon="-1.47783">
        <ele>532.6</ele>
        <time>2022-09-04T09:03:02Z</time>
      </trkpt>
      <trkpt lat="43.24453" lon="-1.47782">
        <ele>532.7</ele>
        <time>2022-09-04T09:03:03Z</time>
      </trkpt>
      <trkpt lat="43.2445" lon="-1.47779">
        <ele>533.1</ele>
        <time>2022-09-04T09:03:04Z</time>
      </trkpt>
      <trkpt lat="43.24447" lon="-1.4778">
        <ele>533.5</ele>
        <time>2022-09-04T09:03:05Z</time>
      </trkpt>
      <trkpt lat="43.24444" lon="-1.47783">
        <ele>533.9</ele>
        <time>2022-09-04T09:03:06Z</time>
      </trkpt>
      <trkpt lat="43.24443" lon="-1.47784">
        <ele>534</ele>
        <time>2022-09-04T09:03:07Z</time>
      </trkpt>
      <trkpt lat="43.2444" lon="-1.47787">
        <ele>534.3</ele>
        <time>2022-09-04T09:03:08Z</time>
      </trkpt>
      <trkpt lat="43.24438" lon="-1.4779">
        <ele>534.5</ele>
        <time>2022-09-04T09:03:09Z</time>
      </trkpt>
      <trkpt lat="43.24437" lon="-1.47792">
        <ele>534.6</ele>
        <time>2022-09-04T09:03:10Z</time>
      </trkpt>
      <trkpt lat="43.24436" lon="-1.47795">
        <ele>534.8</ele>
        <time>2022-09-04T09:03:11Z</time>
      </trkpt>
      <trkpt lat="43.24435" lon="-1.47796">
        <ele>534.8</ele>
        <time>2022-09-04T09:03:12Z</time>
      </trkpt>
      <trkpt lat="43.24434" lon="-1.47798">
        <ele>534.9</ele>
        <time>2022-09-04T09:03:13Z</time>
      </trkpt>
      <trkpt lat="43.24432" lon="-1.47799">
        <ele>535</ele>
        <time>2022-09-04T09:03:14Z</time>
      </trkpt>
      <trkpt lat="43.24431" lon="-1.478">
        <ele>535.1</ele>
        <time>2022-09-04T09:03:15Z</time>
      </trkpt>
      <trkpt lat="43.2443" lon="-1.47802">
        <ele>535.2</ele>
        <time>2022-09-04T09:03:16Z</time>
      </trkpt>
      <trkpt lat="43.24431" lon="-1.47806">
        <ele>535.3</ele>
        <time>2022-09-04T09:03:17Z</time>
      </trkpt>
      <trkpt lat="43.24432" lon="-1.47807">
        <ele>535.4</ele>
        <time>2022-09-04T09:03:18Z</time>
      </trkpt>
      <trkpt lat="43.24435" lon="-1.47809">
        <ele>535.5</ele>
        <time>2022-09-04T09:03:19Z</time>
      </trkpt>
      <trkpt lat="43.24436" lon="-1.47809">
        <ele>535.6</ele>
        <time>2022-09-04T09:03:20Z</time>
      </trkpt>
      <trkpt lat="43.24438" lon="-1.47807">
        <ele>535.7</ele>
        <time>2022-09-04T09:03:21Z</time>
      </trkpt>
      <trkpt lat="43.24439" lon="-1.47805">
        <ele>535.7</ele>
        <time>2022-09-04T09:03:22Z</time>
      </trkpt>
      <trkpt lat="43.24438" lon="-1.47801">
        <ele>535.8</ele>
        <time>2022-09-04T09:03:23Z</time>
      </trkpt>
      <trkpt lat="43.24438" lon="-1.478">
        <ele>535.9</ele>
        <time>2022-09-04T09:03:24Z</time>
      </trkpt>
      <trkpt lat="43.24435" lon="-1.47797">
        <ele>536</ele>
        <time>2022-09-04T09:03:25Z</time>
      </trkpt>
      <trkpt lat="43.24434" lon="-1.47796">
        <ele>536</ele>
        <time>2022-09-04T09:03:26Z</time>
      </trkpt>
      <trkpt lat="43.24433" lon="-1.47796">
        <ele>536.1</ele>
        <time>2022-09-04T09:03:27Z</time>
      </trkpt>
      <trkpt lat="43.24431" lon="-1.47797">
        <ele>536.1</ele>
        <time>2022-09-04T09:03:28Z</time>
      </trkpt>
      <trkpt lat="43.24428" lon="-1.47799">
        <ele>536.2</ele>
        <time>2022-09-04T09:03:29Z</time>
      </trkpt>
      <trkpt lat="43.24427" lon="-1.478">
        <ele>536.3</ele>
        <time>2022-09-04T09:03:30Z</time>
      </trkpt>
      <trkpt lat="43.24423" lon="-1.47803">
        <ele>536.5</ele>
        <time>2022-09-04T09:03:31Z</time>
      </trkpt>
      <trkpt lat="43.24422" lon="-1.47803">
        <ele>536.5</ele>
        <time>2022-09-04T09:03:32Z</time>
      </trkpt>
      <trkpt lat="43.24419" lon="-1.47805">
        <ele>536.6</ele>
        <time>2022-09-04T09:03:33Z</time>
      </trkpt>
      <trkpt lat="43.24416" lon="-1.47806">
        <ele>536.8</ele>
        <time>2022-09-04T09:03:34Z</time>
      </trkpt>
      <trkpt lat="43.24414" lon="-1.47806">
        <ele>536.9</ele>
        <time>2022-09-04T09:03:35Z</time>
      </trkpt>
      <trkpt lat="43.24411" lon="-1.47808">
        <ele>537</ele>
        <time>2022-09-04T09:03:36Z</time>
      </trkpt>
      <trkpt lat="43.24409" lon="-1.47809">
        <ele>537.1</ele>
        <time>2022-09-04T09:03:37Z</time>
      </trkpt>
      <trkpt lat="43.24405" lon="-1.4781">
        <ele>537.2</ele>
        <time>2022-09-04T09:03:38Z</time>
      </trkpt>
      <trkpt lat="43.24404" lon="-1.4781">
        <ele>537.3</ele>
        <time>2022-09-04T09:03:39Z</time>
      </trkpt>
      <trkpt lat="43.24401" lon="-1.47811">
        <ele>537.3</ele>
        <time>2022-09-04T09:03:40Z</time>
      </trkpt>
      <trkpt lat="43.244" lon="-1.47812">
        <ele>537.4</ele>
        <time>2022-09-04T09:03:41Z</time>
      </trkpt>
      <trkpt lat="43.24396" lon="-1.47813">
        <ele>537.4</ele>
        <time>2022-09-04T09:03:42Z</time>
      </trkpt>
      <trkpt lat="43.24395" lon="-1.47813">
        <ele>537.5</ele>
        <time>2022-09-04T09:03:43Z</time>
      </trkpt>
      <trkpt lat="43.24391" lon="-1.47815">
        <ele>537.6</ele>
        <time>2022-09-04T09:03:44Z</time>
      </trkpt>
      <trkpt lat="43.2439" lon="-1.47816">
        <ele>537.6</ele>
        <time>2022-09-04T09:03:45Z</time>
      </trkpt>
      <trkpt lat="43.24387" lon="-1.47817">
        <ele>537.7</ele>
        <time>2022-09-04T09:03:46Z</time>
      </trkpt>
      <trkpt lat="43.24386" lon="-1.47818">
        <ele>537.7</ele>
        <time>2022-09-04T09:03:47Z</time>
      </trkpt>
      <trkpt lat="43.24383" lon="-1.4782">
        <ele>537.8</ele>
        <time>2022-09-04T09:03:48Z</time>
      </trkpt>
      <trkpt lat="43.2438" lon="-1.47822">
        <ele>537.9</ele>
        <time>2022-09-04T09:03:49Z</time>
      </trkpt>
      <trkpt lat="43.24377" lon="-1.47825">
        <ele>538</ele>
        <time>2022-09-04T09:03:50Z</time>
      </trkpt>
      <trkpt lat="43.24375" lon="-1.47827">
        <ele>538.1</ele>
        <time>2022-09-04T09:03:51Z</time>
      </trkpt>
      <trkpt lat="43.24371" lon="-1.4783">
        <ele>538.3</ele>
        <time>2022-09-04T09:03:52Z</time>
      </trkpt>
      <trkpt lat="43.2437" lon="-1.47831">
        <ele>538.3</ele>
        <time>2022-09-04T09:03:53Z</time>
      </trkpt>
      <trkpt lat="43.24368" lon="-1.47834">
        <ele>538.4</ele>
        <time>2022-09-04T09:03:54Z</time>
      </trkpt>
      <trkpt lat="43.24366" lon="-1.47837">
        <ele>538.5</ele>
        <time>2022-09-04T09:03:55Z</time>
      </trkpt>
      <trkpt lat="43.24364" lon="-1.4784">
        <ele>538.6</ele>
        <time>2022-09-04T09:03:56Z</time>
      </trkpt>
      <trkpt lat="43.24361" lon="-1.47843">
        <ele>538.8</ele>
        <time>2022-09-04T09:03:57Z</time>
      </trkpt>
      <trkpt lat="43.2436" lon="-1.47845">
        <ele>538.9</ele>
        <time>2022-09-04T09:03:58Z</time>
      </trkpt>
      <trkpt lat="43.24358" lon="-1.47847">
        <ele>539</ele>
        <time>2022-09-04T09:03:59Z</time>
      </trkpt>
      <trkpt lat="43.24356" lon="-1.4785">
        <ele>539.1</ele>
        <time>2022-09-04T09:04:00Z</time>
      </trkpt>
      <trkpt lat="43.24354" lon="-1.47853">
        <ele>539.3</ele>
        <time>2022-09-04T09:04:01Z</time>
      </trkpt>
      <trkpt lat="43.24351" lon="-1.47855">
        <ele>539.4</ele>
        <time>2022-09-04T09:04:02Z</time>
      </trkpt>
      <trkpt lat="43.24348" lon="-1.47857">
        <ele>539.6</ele>
        <time>2022-09-04T09:04:03Z</time>
      </trkpt>
      <trkpt lat="43.24347" lon="-1.47858">
        <ele>539.7</ele>
        <time>2022-09-04T09:04:04Z</time>
      </trkpt>
      <trkpt lat="43.24344" lon="-1.4786">
        <ele>539.8</ele>
        <time>2022-09-04T09:04:05Z</time>
      </trkpt>
      <trkpt lat="43.24341" lon="-1.47861">
        <ele>539.9</ele>
        <time>2022-09-04T09:04:06Z</time>
      </trkpt>
      <trkpt lat="43.24338" lon="-1.47863">
        <ele>540</ele>
        <time>2022-09-04T09:04:07Z</time>
      </trkpt>
      <trkpt lat="43.24336" lon="-1.47864">
        <ele>540.1</ele>
        <time>2022-09-04T09:04:08Z</time>
      </trkpt>
      <trkpt lat="43.24333" lon="-1.47865">
        <ele>540.1</ele>
        <time>2022-09-04T09:04:09Z</time>
      </trkpt>
      <trkpt lat="43.2433" lon="-1.47867">
        <ele>540.2</ele>
        <time>2022-09-04T09:04:10Z</time>
      </trkpt>
      <trkpt lat="43.24326" lon="-1.47869">
        <ele>540.2</ele>
        <time>2022-09-04T09:04:11Z</time>
      </trkpt>
      <trkpt lat="43.24323" lon="-1.4787">
        <ele>540.3</ele>
        <time>2022-09-04T09:04:12Z</time>
      </trkpt>
      <trkpt lat="43.24319" lon="-1.47871">
        <ele>540.4</ele>
        <time>2022-09-04T09:04:13Z</time>
      </trkpt>
      <trkpt lat="43.24315" lon="-1.47872">
        <ele>540.4</ele>
        <time>2022-09-04T09:04:14Z</time>
      </trkpt>
      <trkpt lat="43.24312" lon="-1.47873">
        <ele>540.5</ele>
        <time>2022-09-04T09:04:15Z</time>
      </trkpt>
      <trkpt lat="43.24309" lon="-1.47873">
        <ele>540.6</ele>
        <time>2022-09-04T09:04:16Z</time>
      </trkpt>
      <trkpt lat="43.24305" lon="-1.47874">
        <ele>540.7</ele>
        <time>2022-09-04T09:04:17Z</time>
      </trkpt>
      <trkpt lat="43.24302" lon="-1.47876">
        <ele>540.8</ele>
        <time>2022-09-04T09:04:18Z</time>
      </trkpt>
      <trkpt lat="43.24299" lon="-1.47878">
        <ele>541</ele>
        <time>2022-09-04T09:04:19Z</time>
      </trkpt>
      <trkpt lat="43.24297" lon="-1.47881">
        <ele>541.2</ele>
        <time>2022-09-04T09:04:20Z</time>
      </trkpt>
      <trkpt lat="43.24295" lon="-1.47885">
        <ele>541.4</ele>
        <time>2022-09-04T09:04:21Z</time>
      </trkpt>
      <trkpt lat="43.24293" lon="-1.47888">
        <ele>541.6</ele>
        <time>2022-09-04T09:04:22Z</time>
      </trkpt>
      <trkpt lat="43.24291" lon="-1.47891">
        <ele>541.9</ele>
        <time>2022-09-04T09:04:23Z</time>
      </trkpt>
      <trkpt lat="43.24289" lon="-1.47894">
        <ele>542.2</ele>
        <time>2022-09-04T09:04:24Z</time>
      </trkpt>
      <trkpt lat="43.24287" lon="-1.47897">
        <ele>542.4</ele>
        <time>2022-09-04T09:04:25Z</time>
      </trkpt>
      <trkpt lat="43.24284" lon="-1.47899">
        <ele>542.8</ele>
        <time>2022-09-04T09:04:26Z</time>
      </trkpt>
      <trkpt lat="43.24281" lon="-1.47902">
        <ele>543.1</ele>
        <time>2022-09-04T09:04:27Z</time>
      </trkpt>
      <trkpt lat="43.24278" lon="-1.47904">
        <ele>543.4</ele>
        <time>2022-09-04T09:04:28Z</time>
      </trkpt>
      <trkpt lat="43.24276" lon="-1.47906">
        <ele>543.8</ele>
        <time>2022-09-04T09:04:29Z</time>
      </trkpt>
      <trkpt lat="43.24273" lon="-1.47908">
        <ele>544.1</ele>
        <time>2022-09-04T09:04:30Z</time>
      </trkpt>
      <trkpt lat="43.2427" lon="-1.47911">
        <ele>544.6</ele>
        <time>2022-09-04T09:04:31Z</time>
      </trkpt>
      <trkpt lat="43.24269" lon="-1.47912">
        <ele>544.7</ele>
        <time>2022-09-04T09:04:32Z</time>
      </trkpt>
      <trkpt lat="43.24266" lon="-1.47914">
        <ele>545.1</ele>
        <time>2022-09-04T09:04:33Z</time>
      </trkpt>
      <trkpt lat="43.24265" lon="-1.47915">
        <ele>545.3</ele>
        <time>2022-09-04T09:04:34Z</time>
      </trkpt>
      <trkpt lat="43.24262" lon="-1.47918">
        <ele>545.8</ele>
        <time>2022-09-04T09:04:35Z</time>
      </trkpt>
      <trkpt lat="43.24261" lon="-1.47919">
        <ele>546</ele>
        <time>2022-09-04T09:04:36Z</time>
      </trkpt>
      <trkpt lat="43.24258" lon="-1.47921">
        <ele>546.4</ele>
        <time>2022-09-04T09:04:37Z</time>
      </trkpt>
      <trkpt lat="43.24256" lon="-1.47924">
        <ele>546.9</ele>
        <time>2022-09-04T09:04:38Z</time>
      </trkpt>
      <trkpt lat="43.24254" lon="-1.47927">
        <ele>547.4</ele>
        <time>2022-09-04T09:04:39Z</time>
      </trkpt>
      <trkpt lat="43.24252" lon="-1.47929">
        <ele>547.8</ele>
        <time>2022-09-04T09:04:40Z</time>
      </trkpt>
      <trkpt lat="43.24249" lon="-1.47932">
        <ele>548.4</ele>
        <time>2022-09-04T09:04:41Z</time>
      </trkpt>
      <trkpt lat="43.24247" lon="-1.47936">
        <ele>549</ele>
        <time>2022-09-04T09:04:42Z</time>
      </trkpt>
      <trkpt lat="43.24246" lon="-1.47937">
        <ele>549.2</ele>
        <time>2022-09-04T09:04:43Z</time>
      </trkpt>
      <trkpt lat="43.24244" lon="-1.47941">
        <ele>549.8</ele>
        <time>2022-09-04T09:04:44Z</time>
      </trkpt>
      <trkpt lat="43.24243" lon="-1.47942">
        <ele>550.1</ele>
        <time>2022-09-04T09:04:45Z</time>
      </trkpt>
      <trkpt lat="43.2424" lon="-1.47945">
        <ele>550.7</ele>
        <time>2022-09-04T09:04:46Z</time>
      </trkpt>
      <trkpt lat="43.2424" lon="-1.47947">
        <ele>550.9</ele>
        <time>2022-09-04T09:04:47Z</time>
      </trkpt>
      <trkpt lat="43.24238" lon="-1.4795">
        <ele>551.5</ele>
        <time>2022-09-04T09:04:48Z</time>
      </trkpt>
      <trkpt lat="43.24237" lon="-1.47952">
        <ele>551.7</ele>
        <time>2022-09-04T09:04:49Z</time>
      </trkpt>
      <trkpt lat="43.24235" lon="-1.47955">
        <ele>552.3</ele>
        <time>2022-09-04T09:04:50Z</time>
      </trkpt>
      <trkpt lat="43.24234" lon="-1.47957">
        <ele>552.6</ele>
        <time>2022-09-04T09:04:51Z</time>
      </trkpt>
      <trkpt lat="43.24232" lon="-1.4796">
        <ele>553.1</ele>
        <time>2022-09-04T09:04:52Z</time>
      </trkpt>
      <trkpt lat="43.24231" lon="-1.4796">
        <ele>553.2</ele>
        <time>2022-09-04T09:04:53Z</time>
      </trkpt>
      <trkpt lat="43.24228" lon="-1.47963">
        <ele>553.8</ele>
        <time>2022-09-04T09:04:54Z</time>
      </trkpt>
      <trkpt lat="43.24227" lon="-1.47964">
        <ele>554.1</ele>
        <time>2022-09-04T09:04:55Z</time>
      </trkpt>
      <trkpt lat="43.24224" lon="-1.47967">
        <ele>554.6</ele>
        <time>2022-09-04T09:04:56Z</time>
      </trkpt>
      <trkpt lat="43.24223" lon="-1.47968">
        <ele>554.8</ele>
        <time>2022-09-04T09:04:57Z</time>
      </trkpt>
      <trkpt lat="43.2422" lon="-1.47971">
        <ele>555.4</ele>
        <time>2022-09-04T09:04:58Z</time>
      </trkpt>
      <trkpt lat="43.24219" lon="-1.47972">
        <ele>555.6</ele>
        <time>2022-09-04T09:04:59Z</time>
      </trkpt>
      <trkpt lat="43.24216" lon="-1.47974">
        <ele>556</ele>
        <time>2022-09-04T09:05:00Z</time>
      </trkpt>
      <trkpt lat="43.24216" lon="-1.47975">
        <ele>556.2</ele>
        <time>2022-09-04T09:05:01Z</time>
      </trkpt>
      <trkpt lat="43.24214" lon="-1.47978">
        <ele>556.6</ele>
        <time>2022-09-04T09:05:02Z</time>
      </trkpt>
      <trkpt lat="43.24213" lon="-1.47979">
        <ele>556.7</ele>
        <time>2022-09-04T09:05:03Z</time>
      </trkpt>
      <trkpt lat="43.24211" lon="-1.47983">
        <ele>557.1</ele>
        <time>2022-09-04T09:05:04Z</time>
      </trkpt>
      <trkpt lat="43.2421" lon="-1.47984">
        <ele>557.3</ele>
        <time>2022-09-04T09:05:05Z</time>
      </trkpt>
      <trkpt lat="43.24208" lon="-1.47988">
        <ele>557.7</ele>
        <time>2022-09-04T09:05:06Z</time>
      </trkpt>
      <trkpt lat="43.24208" lon="-1.4799">
        <ele>557.8</ele>
        <time>2022-09-04T09:05:07Z</time>
      </trkpt>
      <trkpt lat="43.24205" lon="-1.47994">
        <ele>558.3</ele>
        <time>2022-09-04T09:05:08Z</time>
      </trkpt>
      <trkpt lat="43.24204" lon="-1.47995">
        <ele>558.5</ele>
        <time>2022-09-04T09:05:09Z</time>
      </trkpt>
      <trkpt lat="43.24202" lon="-1.47998">
        <ele>559</ele>
        <time>2022-09-04T09:05:10Z</time>
      </trkpt>
      <trkpt lat="43.24201" lon="-1.48">
        <ele>559.2</ele>
        <time>2022-09-04T09:05:11Z</time>
      </trkpt>
      <trkpt lat="43.24198" lon="-1.48002">
        <ele>559.6</ele>
        <time>2022-09-04T09:05:12Z</time>
      </trkpt>
      <trkpt lat="43.24197" lon="-1.48003">
        <ele>559.8</ele>
        <time>2022-09-04T09:05:13Z</time>
      </trkpt>
      <trkpt lat="43.24195" lon="-1.48005">
        <ele>560.2</ele>
        <time>2022-09-04T09:05:14Z</time>
      </trkpt>
      <trkpt lat="43.24194" lon="-1.48006">
        <ele>560.4</ele>
        <time>2022-09-04T09:05:15Z</time>
      </trkpt>
      <trkpt lat="43.24191" lon="-1.48008">
        <ele>560.8</ele>
        <time>2022-09-04T09:05:16Z</time>
      </trkpt>
      <trkpt lat="43.24188" lon="-1.4801">
        <ele>561.4</ele>
        <time>2022-09-04T09:05:17Z</time>
      </trkpt>
      <trkpt lat="43.24186" lon="-1.4801">
        <ele>561.6</ele>
        <time>2022-09-04T09:05:18Z</time>
      </trkpt>
      <trkpt lat="43.24184" lon="-1.48011">
        <ele>562</ele>
        <time>2022-09-04T09:05:19Z</time>
      </trkpt>
      <trkpt lat="43.24181" lon="-1.48012">
        <ele>562.4</ele>
        <time>2022-09-04T09:05:20Z</time>
      </trkpt>
      <trkpt lat="43.24177" lon="-1.48014">
        <ele>562.9</ele>
        <time>2022-09-04T09:05:21Z</time>
      </trkpt>
      <trkpt lat="43.24176" lon="-1.48015">
        <ele>563.1</ele>
        <time>2022-09-04T09:05:22Z</time>
      </trkpt>
      <trkpt lat="43.24173" lon="-1.48016">
        <ele>563.6</ele>
        <time>2022-09-04T09:05:23Z</time>
      </trkpt>
      <trkpt lat="43.24172" lon="-1.48016">
        <ele>563.8</ele>
        <time>2022-09-04T09:05:24Z</time>
      </trkpt>
      <trkpt lat="43.24168" lon="-1.48017">
        <ele>564.4</ele>
        <time>2022-09-04T09:05:25Z</time>
      </trkpt>
      <trkpt lat="43.24167" lon="-1.48017">
        <ele>564.6</ele>
        <time>2022-09-04T09:05:26Z</time>
      </trkpt>
      <trkpt lat="43.24163" lon="-1.48017">
        <ele>565.1</ele>
        <time>2022-09-04T09:05:27Z</time>
      </trkpt>
      <trkpt lat="43.24162" lon="-1.48017">
        <ele>565.3</ele>
        <time>2022-09-04T09:05:28Z</time>
      </trkpt>
      <trkpt lat="43.24158" lon="-1.48017">
        <ele>565.8</ele>
        <time>2022-09-04T09:05:29Z</time>
      </trkpt>
      <trkpt lat="43.24155" lon="-1.48017">
        <ele>566.2</ele>
        <time>2022-09-04T09:05:30Z</time>
      </trkpt>
      <trkpt lat="43.24152" lon="-1.48017">
        <ele>566.5</ele>
        <time>2022-09-04T09:05:31Z</time>
      </trkpt>
      <trkpt lat="43.2415" lon="-1.48017">
        <ele>566.9</ele>
        <time>2022-09-04T09:05:32Z</time>
      </trkpt>
      <trkpt lat="43.24146" lon="-1.48018">
        <ele>567.3</ele>
        <time>2022-09-04T09:05:33Z</time>
      </trkpt>
      <trkpt lat="43.24144" lon="-1.48018">
        <ele>567.6</ele>
        <time>2022-09-04T09:05:34Z</time>
      </trkpt>
      <trkpt lat="43.2414" lon="-1.4802">
        <ele>567.9</ele>
        <time>2022-09-04T09:05:35Z</time>
      </trkpt>
      <trkpt lat="43.24139" lon="-1.4802">
        <ele>568</ele>
        <time>2022-09-04T09:05:36Z</time>
      </trkpt>
      <trkpt lat="43.24136" lon="-1.48022">
        <ele>568.3</ele>
        <time>2022-09-04T09:05:37Z</time>
      </trkpt>
      <trkpt lat="43.24133" lon="-1.48023">
        <ele>568.7</ele>
        <time>2022-09-04T09:05:38Z</time>
      </trkpt>
      <trkpt lat="43.24129" lon="-1.48024">
        <ele>569</ele>
        <time>2022-09-04T09:05:39Z</time>
      </trkpt>
      <trkpt lat="43.24126" lon="-1.48026">
        <ele>569.3</ele>
        <time>2022-09-04T09:05:40Z</time>
      </trkpt>
      <trkpt lat="43.24124" lon="-1.48028">
        <ele>569.6</ele>
        <time>2022-09-04T09:05:41Z</time>
      </trkpt>
      <trkpt lat="43.24121" lon="-1.48029">
        <ele>569.9</ele>
        <time>2022-09-04T09:05:42Z</time>
      </trkpt>
      <trkpt lat="43.24118" lon="-1.48031">
        <ele>570.3</ele>
        <time>2022-09-04T09:05:43Z</time>
      </trkpt>
      <trkpt lat="43.24115" lon="-1.48033">
        <ele>570.6</ele>
        <time>2022-09-04T09:05:44Z</time>
      </trkpt>
      <trkpt lat="43.24112" lon="-1.48034">
        <ele>570.9</ele>
        <time>2022-09-04T09:05:45Z</time>
      </trkpt>
      <trkpt lat="43.24109" lon="-1.48036">
        <ele>571.3</ele>
        <time>2022-09-04T09:05:46Z</time>
      </trkpt>
      <trkpt lat="43.24108" lon="-1.48036">
        <ele>571.4</ele>
        <time>2022-09-04T09:05:47Z</time>
      </trkpt>
      <trkpt lat="43.24105" lon="-1.48039">
        <ele>571.9</ele>
        <time>2022-09-04T09:05:48Z</time>
      </trkpt>
      <trkpt lat="43.24104" lon="-1.4804">
        <ele>572</ele>
        <time>2022-09-04T09:05:49Z</time>
      </trkpt>
      <trkpt lat="43.24101" lon="-1.48044">
        <ele>572.4</ele>
        <time>2022-09-04T09:05:50Z</time>
      </trkpt>
      <trkpt lat="43.241" lon="-1.48045">
        <ele>572.5</ele>
        <time>2022-09-04T09:05:51Z</time>
      </trkpt>
      <trkpt lat="43.24099" lon="-1.4805">
        <ele>572.9</ele>
        <time>2022-09-04T09:05:52Z</time>
      </trkpt>
      <trkpt lat="43.24098" lon="-1.48051">
        <ele>573</ele>
        <time>2022-09-04T09:05:53Z</time>
      </trkpt>
      <trkpt lat="43.24096" lon="-1.48054">
        <ele>573.2</ele>
        <time>2022-09-04T09:05:54Z</time>
      </trkpt>
      <trkpt lat="43.24094" lon="-1.48058">
        <ele>573.5</ele>
        <time>2022-09-04T09:05:55Z</time>
      </trkpt>
      <trkpt lat="43.24093" lon="-1.48062">
        <ele>573.8</ele>
        <time>2022-09-04T09:05:56Z</time>
      </trkpt>
      <trkpt lat="43.24091" lon="-1.48066">
        <ele>574.1</ele>
        <time>2022-09-04T09:05:57Z</time>
      </trkpt>
      <trkpt lat="43.2409" lon="-1.4807">
        <ele>574.4</ele>
        <time>2022-09-04T09:05:58Z</time>
      </trkpt>
      <trkpt lat="43.24089" lon="-1.48074">
        <ele>574.6</ele>
        <time>2022-09-04T09:05:59Z</time>
      </trkpt>
      <trkpt lat="43.24087" lon="-1.48077">
        <ele>574.9</ele>
        <time>2022-09-04T09:06:00Z</time>
      </trkpt>
      <trkpt lat="43.24086" lon="-1.48082">
        <ele>575.1</ele>
        <time>2022-09-04T09:06:01Z</time>
      </trkpt>
      <trkpt lat="43.24085" lon="-1.48083">
        <ele>575.2</ele>
        <time>2022-09-04T09:06:02Z</time>
      </trkpt>
      <trkpt lat="43.24084" lon="-1.48087">
        <ele>575.5</ele>
        <time>2022-09-04T09:06:03Z</time>
      </trkpt>
      <trkpt lat="43.24083" lon="-1.48089">
        <ele>575.7</ele>
        <time>2022-09-04T09:06:04Z</time>
      </trkpt>
      <trkpt lat="43.24081" lon="-1.48094">
        <ele>576</ele>
        <time>2022-09-04T09:06:05Z</time>
      </trkpt>
      <trkpt lat="43.24081" lon="-1.48095">
        <ele>576.1</ele>
        <time>2022-09-04T09:06:06Z</time>
      </trkpt>
      <trkpt lat="43.24079" lon="-1.48099">
        <ele>576.4</ele>
        <time>2022-09-04T09:06:07Z</time>
      </trkpt>
      <trkpt lat="43.24078" lon="-1.48103">
        <ele>576.7</ele>
        <time>2022-09-04T09:06:08Z</time>
      </trkpt>
      <trkpt lat="43.24076" lon="-1.48108">
        <ele>577.1</ele>
        <time>2022-09-04T09:06:09Z</time>
      </trkpt>
      <trkpt lat="43.24076" lon="-1.48109">
        <ele>577.2</ele>
        <time>2022-09-04T09:06:10Z</time>
      </trkpt>
      <trkpt lat="43.24074" lon="-1.48113">
        <ele>577.5</ele>
        <time>2022-09-04T09:06:11Z</time>
      </trkpt>
      <trkpt lat="43.24073" lon="-1.48116">
        <ele>577.8</ele>
        <time>2022-09-04T09:06:12Z</time>
      </trkpt>
      <trkpt lat="43.24071" lon="-1.4812">
        <ele>578</ele>
        <time>2022-09-04T09:06:13Z</time>
      </trkpt>
      <trkpt lat="43.2407" lon="-1.48123">
        <ele>578.3</ele>
        <time>2022-09-04T09:06:14Z</time>
      </trkpt>
      <trkpt lat="43.24069" lon="-1.48127">
        <ele>578.6</ele>
        <time>2022-09-04T09:06:15Z</time>
      </trkpt>
      <trkpt lat="43.24067" lon="-1.4813">
        <ele>578.9</ele>
        <time>2022-09-04T09:06:16Z</time>
      </trkpt>
      <trkpt lat="43.24066" lon="-1.48134">
        <ele>579.2</ele>
        <time>2022-09-04T09:06:17Z</time>
      </trkpt>
      <trkpt lat="43.24065" lon="-1.48138">
        <ele>579.5</ele>
        <time>2022-09-04T09:06:18Z</time>
      </trkpt>
      <trkpt lat="43.24064" lon="-1.48141">
        <ele>579.8</ele>
        <time>2022-09-04T09:06:19Z</time>
      </trkpt>
      <trkpt lat="43.24063" lon="-1.48145">
        <ele>580.2</ele>
        <time>2022-09-04T09:06:20Z</time>
      </trkpt>
      <trkpt lat="43.24061" lon="-1.48148">
        <ele>580.5</ele>
        <time>2022-09-04T09:06:21Z</time>
      </trkpt>
      <trkpt lat="43.24058" lon="-1.48152">
        <ele>581</ele>
        <time>2022-09-04T09:06:22Z</time>
      </trkpt>
      <trkpt lat="43.24058" lon="-1.48154">
        <ele>581.2</ele>
        <time>2022-09-04T09:06:23Z</time>
      </trkpt>
      <trkpt lat="43.24056" lon="-1.48157">
        <ele>581.5</ele>
        <time>2022-09-04T09:06:24Z</time>
      </trkpt>
      <trkpt lat="43.24055" lon="-1.48161">
        <ele>581.9</ele>
        <time>2022-09-04T09:06:25Z</time>
      </trkpt>
      <trkpt lat="43.24053" lon="-1.48164">
        <ele>582.2</ele>
        <time>2022-09-04T09:06:26Z</time>
      </trkpt>
      <trkpt lat="43.24052" lon="-1.48167">
        <ele>582.5</ele>
        <time>2022-09-04T09:06:27Z</time>
      </trkpt>
      <trkpt lat="43.2405" lon="-1.4817">
        <ele>582.8</ele>
        <time>2022-09-04T09:06:28Z</time>
      </trkpt>
      <trkpt lat="43.24048" lon="-1.48173">
        <ele>583.2</ele>
        <time>2022-09-04T09:06:29Z</time>
      </trkpt>
      <trkpt lat="43.24046" lon="-1.48177">
        <ele>583.6</ele>
        <time>2022-09-04T09:06:30Z</time>
      </trkpt>
      <trkpt lat="43.24045" lon="-1.48178">
        <ele>583.7</ele>
        <time>2022-09-04T09:06:31Z</time>
      </trkpt>
      <trkpt lat="43.24042" lon="-1.48183">
        <ele>584.1</ele>
        <time>2022-09-04T09:06:32Z</time>
      </trkpt>
      <trkpt lat="43.24041" lon="-1.48184">
        <ele>584.2</ele>
        <time>2022-09-04T09:06:33Z</time>
      </trkpt>
      <trkpt lat="43.24039" lon="-1.48187">
        <ele>584.5</ele>
        <time>2022-09-04T09:06:34Z</time>
      </trkpt>
      <trkpt lat="43.24037" lon="-1.48189">
        <ele>584.7</ele>
        <time>2022-09-04T09:06:35Z</time>
      </trkpt>
      <trkpt lat="43.24034" lon="-1.48193">
        <ele>585</ele>
        <time>2022-09-04T09:06:36Z</time>
      </trkpt>
      <trkpt lat="43.24034" lon="-1.48195">
        <ele>585.1</ele>
        <time>2022-09-04T09:06:37Z</time>
      </trkpt>
      <trkpt lat="43.24031" lon="-1.48197">
        <ele>585.3</ele>
        <time>2022-09-04T09:06:38Z</time>
      </trkpt>
      <trkpt lat="43.24029" lon="-1.482">
        <ele>585.6</ele>
        <time>2022-09-04T09:06:39Z</time>
      </trkpt>
      <trkpt lat="43.24026" lon="-1.48203">
        <ele>585.8</ele>
        <time>2022-09-04T09:06:40Z</time>
      </trkpt>
      <trkpt lat="43.24023" lon="-1.48205">
        <ele>586</ele>
        <time>2022-09-04T09:06:41Z</time>
      </trkpt>
      <trkpt lat="43.2402" lon="-1.48208">
        <ele>586.2</ele>
        <time>2022-09-04T09:06:42Z</time>
      </trkpt>
      <trkpt lat="43.24018" lon="-1.4821">
        <ele>586.4</ele>
        <time>2022-09-04T09:06:43Z</time>
      </trkpt>
      <trkpt lat="43.24015" lon="-1.48212">
        <ele>586.6</ele>
        <time>2022-09-04T09:06:44Z</time>
      </trkpt>
      <trkpt lat="43.24012" lon="-1.48214">
        <ele>586.8</ele>
        <time>2022-09-04T09:06:45Z</time>
      </trkpt>
      <trkpt lat="43.24009" lon="-1.48216">
        <ele>587</ele>
        <time>2022-09-04T09:06:46Z</time>
      </trkpt>
      <trkpt lat="43.24006" lon="-1.48218">
        <ele>587.2</ele>
        <time>2022-09-04T09:06:47Z</time>
      </trkpt>
      <trkpt lat="43.24003" lon="-1.48219">
        <ele>587.3</ele>
        <time>2022-09-04T09:06:48Z</time>
      </trkpt>
      <trkpt lat="43.23999" lon="-1.4822">
        <ele>587.5</ele>
        <time>2022-09-04T09:06:49Z</time>
      </trkpt>
      <trkpt lat="43.23996" lon="-1.48221">
        <ele>587.7</ele>
        <time>2022-09-04T09:06:50Z</time>
      </trkpt>
      <trkpt lat="43.23993" lon="-1.48222">
        <ele>587.9</ele>
        <time>2022-09-04T09:06:51Z</time>
      </trkpt>
      <trkpt lat="43.2399" lon="-1.48223">
        <ele>588.1</ele>
        <time>2022-09-04T09:06:52Z</time>
      </trkpt>
      <trkpt lat="43.23987" lon="-1.48223">
        <ele>588.3</ele>
        <time>2022-09-04T09:06:53Z</time>
      </trkpt>
      <trkpt lat="43.23983" lon="-1.48224">
        <ele>588.5</ele>
        <time>2022-09-04T09:06:54Z</time>
      </trkpt>
      <trkpt lat="43.2398" lon="-1.48224">
        <ele>588.7</ele>
        <time>2022-09-04T09:06:55Z</time>
      </trkpt>
      <trkpt lat="43.23978" lon="-1.48225">
        <ele>588.9</ele>
        <time>2022-09-04T09:06:56Z</time>
      </trkpt>
      <trkpt lat="43.23974" lon="-1.48226">
        <ele>589.1</ele>
        <time>2022-09-04T09:06:57Z</time>
      </trkpt>
      <trkpt lat="43.23971" lon="-1.48227">
        <ele>589.3</ele>
        <time>2022-09-04T09:06:58Z</time>
      </trkpt>
      <trkpt lat="43.23968" lon="-1.48228">
        <ele>589.5</ele>
        <time>2022-09-04T09:06:59Z</time>
      </trkpt>
      <trkpt lat="43.23965" lon="-1.48229">
        <ele>589.7</ele>
        <time>2022-09-04T09:07:00Z</time>
      </trkpt>
      <trkpt lat="43.23962" lon="-1.4823">
        <ele>590</ele>
        <time>2022-09-04T09:07:01Z</time>
      </trkpt>
      <trkpt lat="43.23958" lon="-1.48231">
        <ele>590.2</ele>
        <time>2022-09-04T09:07:02Z</time>
      </trkpt>
      <trkpt lat="43.23955" lon="-1.48232">
        <ele>590.5</ele>
        <time>2022-09-04T09:07:03Z</time>
      </trkpt>
      <trkpt lat="43.23951" lon="-1.48233">
        <ele>590.6</ele>
        <time>2022-09-04T09:07:04Z</time>
      </trkpt>
      <trkpt lat="43.23948" lon="-1.48234">
        <ele>590.7</ele>
        <time>2022-09-04T09:07:05Z</time>
      </trkpt>
      <trkpt lat="43.23944" lon="-1.48236">
        <ele>590.8</ele>
        <time>2022-09-04T09:07:06Z</time>
      </trkpt>
      <trkpt lat="43.23941" lon="-1.48237">
        <ele>591</ele>
        <time>2022-09-04T09:07:07Z</time>
      </trkpt>
      <trkpt lat="43.23938" lon="-1.48238">
        <ele>591.1</ele>
        <time>2022-09-04T09:07:08Z</time>
      </trkpt>
      <trkpt lat="43.23935" lon="-1.4824">
        <ele>591.2</ele>
        <time>2022-09-04T09:07:09Z</time>
      </trkpt>
      <trkpt lat="43.23932" lon="-1.48241">
        <ele>591.3</ele>
        <time>2022-09-04T09:07:10Z</time>
      </trkpt>
      <trkpt lat="43.23929" lon="-1.48243">
        <ele>591.5</ele>
        <time>2022-09-04T09:07:11Z</time>
      </trkpt>
      <trkpt lat="43.23926" lon="-1.48245">
        <ele>591.6</ele>
        <time>2022-09-04T09:07:12Z</time>
      </trkpt>
      <trkpt lat="43.23923" lon="-1.48247">
        <ele>591.8</ele>
        <time>2022-09-04T09:07:13Z</time>
      </trkpt>
      <trkpt lat="43.23921" lon="-1.48249">
        <ele>591.9</ele>
        <time>2022-09-04T09:07:14Z</time>
      </trkpt>
      <trkpt lat="43.23918" lon="-1.4825">
        <ele>592</ele>
        <time>2022-09-04T09:07:15Z</time>
      </trkpt>
      <trkpt lat="43.23916" lon="-1.48252">
        <ele>592.2</ele>
        <time>2022-09-04T09:07:16Z</time>
      </trkpt>
      <trkpt lat="43.23913" lon="-1.48255">
        <ele>592.4</ele>
        <time>2022-09-04T09:07:17Z</time>
      </trkpt>
      <trkpt lat="43.23911" lon="-1.48258">
        <ele>592.6</ele>
        <time>2022-09-04T09:07:18Z</time>
      </trkpt>
      <trkpt lat="43.23908" lon="-1.4826">
        <ele>592.9</ele>
        <time>2022-09-04T09:07:19Z</time>
      </trkpt>
      <trkpt lat="43.23905" lon="-1.48262">
        <ele>593.1</ele>
        <time>2022-09-04T09:07:20Z</time>
      </trkpt>
      <trkpt lat="43.23903" lon="-1.48265">
        <ele>593.4</ele>
        <time>2022-09-04T09:07:21Z</time>
      </trkpt>
      <trkpt lat="43.239" lon="-1.48267">
        <ele>593.6</ele>
        <time>2022-09-04T09:07:22Z</time>
      </trkpt>
      <trkpt lat="43.23897" lon="-1.4827">
        <ele>594</ele>
        <time>2022-09-04T09:07:23Z</time>
      </trkpt>
      <trkpt lat="43.23896" lon="-1.48271">
        <ele>594.1</ele>
        <time>2022-09-04T09:07:24Z</time>
      </trkpt>
      <trkpt lat="43.23893" lon="-1.48273">
        <ele>594.4</ele>
        <time>2022-09-04T09:07:25Z</time>
      </trkpt>
      <trkpt lat="43.23891" lon="-1.48275">
        <ele>594.7</ele>
        <time>2022-09-04T09:07:26Z</time>
      </trkpt>
      <trkpt lat="43.23889" lon="-1.48277">
        <ele>595</ele>
        <time>2022-09-04T09:07:27Z</time>
      </trkpt>
      <trkpt lat="43.23886" lon="-1.48279">
        <ele>595.3</ele>
        <time>2022-09-04T09:07:28Z</time>
      </trkpt>
      <trkpt lat="43.23884" lon="-1.48281">
        <ele>595.7</ele>
        <time>2022-09-04T09:07:29Z</time>
      </trkpt>
      <trkpt lat="43.23881" lon="-1.48284">
        <ele>596</ele>
        <time>2022-09-04T09:07:30Z</time>
      </trkpt>
      <trkpt lat="43.23878" lon="-1.48286">
        <ele>596.4</ele>
        <time>2022-09-04T09:07:31Z</time>
      </trkpt>
      <trkpt lat="43.23876" lon="-1.48288">
        <ele>596.8</ele>
        <time>2022-09-04T09:07:32Z</time>
      </trkpt>
      <trkpt lat="43.23873" lon="-1.4829">
        <ele>597.1</ele>
        <time>2022-09-04T09:07:33Z</time>
      </trkpt>
      <trkpt lat="43.2387" lon="-1.48292">
        <ele>597.5</ele>
        <time>2022-09-04T09:07:34Z</time>
      </trkpt>
      <trkpt lat="43.23867" lon="-1.48294">
        <ele>597.9</ele>
        <time>2022-09-04T09:07:35Z</time>
      </trkpt>
      <trkpt lat="43.23864" lon="-1.48297">
        <ele>598.3</ele>
        <time>2022-09-04T09:07:36Z</time>
      </trkpt>
      <trkpt lat="43.23862" lon="-1.48299">
        <ele>598.6</ele>
        <time>2022-09-04T09:07:37Z</time>
      </trkpt>
      <trkpt lat="43.23859" lon="-1.48301">
        <ele>599</ele>
        <time>2022-09-04T09:07:38Z</time>
      </trkpt>
      <trkpt lat="43.23856" lon="-1.48303">
        <ele>599.4</ele>
        <time>2022-09-04T09:07:39Z</time>
      </trkpt>
      <trkpt lat="43.23854" lon="-1.48306">
        <ele>599.7</ele>
        <time>2022-09-04T09:07:40Z</time>
      </trkpt>
      <trkpt lat="43.23851" lon="-1.48308">
        <ele>600.1</ele>
        <time>2022-09-04T09:07:41Z</time>
      </trkpt>
      <trkpt lat="43.23849" lon="-1.4831">
        <ele>600.4</ele>
        <time>2022-09-04T09:07:42Z</time>
      </trkpt>
      <trkpt lat="43.23847" lon="-1.48313">
        <ele>600.8</ele>
        <time>2022-09-04T09:07:43Z</time>
      </trkpt>
      <trkpt lat="43.23844" lon="-1.48315">
        <ele>601.2</ele>
        <time>2022-09-04T09:07:44Z</time>
      </trkpt>
      <trkpt lat="43.23842" lon="-1.48318">
        <ele>601.6</ele>
        <time>2022-09-04T09:07:45Z</time>
      </trkpt>
      <trkpt lat="43.23839" lon="-1.48321">
        <ele>602</ele>
        <time>2022-09-04T09:07:46Z</time>
      </trkpt>
      <trkpt lat="43.23837" lon="-1.48322">
        <ele>602.3</ele>
        <time>2022-09-04T09:07:47Z</time>
      </trkpt>
      <trkpt lat="43.23834" lon="-1.48324">
        <ele>602.7</ele>
        <time>2022-09-04T09:07:48Z</time>
      </trkpt>
      <trkpt lat="43.23831" lon="-1.48326">
        <ele>603.1</ele>
        <time>2022-09-04T09:07:49Z</time>
      </trkpt>
      <trkpt lat="43.23828" lon="-1.48328">
        <ele>603.4</ele>
        <time>2022-09-04T09:07:50Z</time>
      </trkpt>
      <trkpt lat="43.23826" lon="-1.4833">
        <ele>603.8</ele>
        <time>2022-09-04T09:07:51Z</time>
      </trkpt>
      <trkpt lat="43.23823" lon="-1.48333">
        <ele>604.2</ele>
        <time>2022-09-04T09:07:52Z</time>
      </trkpt>
      <trkpt lat="43.23822" lon="-1.48334">
        <ele>604.4</ele>
        <time>2022-09-04T09:07:53Z</time>
      </trkpt>
      <trkpt lat="43.23819" lon="-1.48338">
        <ele>604.8</ele>
        <time>2022-09-04T09:07:54Z</time>
      </trkpt>
      <trkpt lat="43.23818" lon="-1.48339">
        <ele>604.9</ele>
        <time>2022-09-04T09:07:55Z</time>
      </trkpt>
      <trkpt lat="43.23816" lon="-1.48343">
        <ele>605.5</ele>
        <time>2022-09-04T09:07:56Z</time>
      </trkpt>
      <trkpt lat="43.23815" lon="-1.48345">
        <ele>605.7</ele>
        <time>2022-09-04T09:07:57Z</time>
      </trkpt>
      <trkpt lat="43.23813" lon="-1.48349">
        <ele>606.3</ele>
        <time>2022-09-04T09:07:58Z</time>
      </trkpt>
      <trkpt lat="43.23812" lon="-1.4835">
        <ele>606.4</ele>
        <time>2022-09-04T09:07:59Z</time>
      </trkpt>
      <trkpt lat="43.2381" lon="-1.48353">
        <ele>606.8</ele>
        <time>2022-09-04T09:08:00Z</time>
      </trkpt>
      <trkpt lat="43.23807" lon="-1.48357">
        <ele>607.4</ele>
        <time>2022-09-04T09:08:01Z</time>
      </trkpt>
      <trkpt lat="43.23806" lon="-1.48358">
        <ele>607.6</ele>
        <time>2022-09-04T09:08:02Z</time>
      </trkpt>
      <trkpt lat="43.23804" lon="-1.48361">
        <ele>608.1</ele>
        <time>2022-09-04T09:08:03Z</time>
      </trkpt>
      <trkpt lat="43.23803" lon="-1.48363">
        <ele>608.3</ele>
        <time>2022-09-04T09:08:04Z</time>
      </trkpt>
      <trkpt lat="43.23799" lon="-1.48364">
        <ele>607.9</ele>
        <time>2022-09-04T09:08:05Z</time>
      </trkpt>
      <trkpt lat="43.23798" lon="-1.48364">
        <ele>607.7</ele>
        <time>2022-09-04T09:08:06Z</time>
      </trkpt>
      <trkpt lat="43.23795" lon="-1.48362">
        <ele>607.2</ele>
        <time>2022-09-04T09:08:07Z</time>
      </trkpt>
      <trkpt lat="43.23793" lon="-1.48361">
        <ele>607</ele>
        <time>2022-09-04T09:08:08Z</time>
      </trkpt>
      <trkpt lat="43.2379" lon="-1.4836">
        <ele>606.3</ele>
        <time>2022-09-04T09:08:09Z</time>
      </trkpt>
      <trkpt lat="43.23788" lon="-1.48359">
        <ele>606.1</ele>
        <time>2022-09-04T09:08:10Z</time>
      </trkpt>
      <trkpt lat="43.23785" lon="-1.48358">
        <ele>605.5</ele>
        <time>2022-09-04T09:08:11Z</time>
      </trkpt>
      <trkpt lat="43.23784" lon="-1.48357">
        <ele>605.3</ele>
        <time>2022-09-04T09:08:12Z</time>
      </trkpt>
      <trkpt lat="43.23782" lon="-1.48355">
        <ele>604.7</ele>
        <time>2022-09-04T09:08:13Z</time>
      </trkpt>
      <trkpt lat="43.23781" lon="-1.48354">
        <ele>604.5</ele>
        <time>2022-09-04T09:08:14Z</time>
      </trkpt>
      <trkpt lat="43.23778" lon="-1.48352">
        <ele>603.9</ele>
        <time>2022-09-04T09:08:15Z</time>
      </trkpt>
      <trkpt lat="43.23778" lon="-1.48352">
        <ele>603.6</ele>
        <time>2022-09-04T09:08:16Z</time>
      </trkpt>
      <trkpt lat="43.23775" lon="-1.4835">
        <ele>602.9</ele>
        <time>2022-09-04T09:08:17Z</time>
      </trkpt>
      <trkpt lat="43.23774" lon="-1.48349">
        <ele>602.6</ele>
        <time>2022-09-04T09:08:18Z</time>
      </trkpt>
      <trkpt lat="43.23771" lon="-1.48347">
        <ele>601.9</ele>
        <time>2022-09-04T09:08:19Z</time>
      </trkpt>
      <trkpt lat="43.2377" lon="-1.48347">
        <ele>601.6</ele>
        <time>2022-09-04T09:08:20Z</time>
      </trkpt>
      <trkpt lat="43.23767" lon="-1.48345">
        <ele>600.7</ele>
        <time>2022-09-04T09:08:21Z</time>
      </trkpt>
      <trkpt lat="43.23765" lon="-1.48345">
        <ele>600.4</ele>
        <time>2022-09-04T09:08:22Z</time>
      </trkpt>
      <trkpt lat="43.23762" lon="-1.48344">
        <ele>599.5</ele>
        <time>2022-09-04T09:08:23Z</time>
      </trkpt>
      <trkpt lat="43.23761" lon="-1.48344">
        <ele>599.2</ele>
        <time>2022-09-04T09:08:24Z</time>
      </trkpt>
      <trkpt lat="43.23757" lon="-1.48344">
        <ele>598.1</ele>
        <time>2022-09-04T09:08:25Z</time>
      </trkpt>
      <trkpt lat="43.23756" lon="-1.48345">
        <ele>597.7</ele>
        <time>2022-09-04T09:08:26Z</time>
      </trkpt>
      <trkpt lat="43.23752" lon="-1.48345">
        <ele>596.6</ele>
        <time>2022-09-04T09:08:27Z</time>
      </trkpt>
      <trkpt lat="43.23751" lon="-1.48345">
        <ele>596.2</ele>
        <time>2022-09-04T09:08:28Z</time>
      </trkpt>
      <trkpt lat="43.23748" lon="-1.48346">
        <ele>595.5</ele>
        <time>2022-09-04T09:08:29Z</time>
      </trkpt>
      <trkpt lat="43.23745" lon="-1.48347">
        <ele>594.6</ele>
        <time>2022-09-04T09:08:30Z</time>
      </trkpt>
      <trkpt lat="43.23742" lon="-1.48347">
        <ele>593.9</ele>
        <time>2022-09-04T09:08:31Z</time>
      </trkpt>
      <trkpt lat="43.23739" lon="-1.48349">
        <ele>593.1</ele>
        <time>2022-09-04T09:08:32Z</time>
      </trkpt>
      <trkpt lat="43.23738" lon="-1.4835">
        <ele>593.1</ele>
        <time>2022-09-04T09:08:33Z</time>
      </trkpt>
      <trkpt lat="43.23738" lon="-1.4835">
        <ele>593.1</ele>
        <time>2022-09-04T09:08:34Z</time>
      </trkpt>
      <trkpt lat="43.23738" lon="-1.48349">
        <ele>593.1</ele>
        <time>2022-09-04T09:08:35Z</time>
      </trkpt>
      <trkpt lat="43.23738" lon="-1.48349">
        <ele>593.1</ele>
        <time>2022-09-04T09:08:36Z</time>
      </trkpt>
      <trkpt lat="43.23738" lon="-1.48349">
        <ele>593.1</ele>
        <time>2022-09-04T09:08:37Z</time>
      </trkpt>
      <trkpt lat="43.23738" lon="-1.4835">
        <ele>593.1</ele>
        <time>2022-09-04T09:08:38Z</time>
      </trkpt>
      <trkpt lat="43.23738" lon="-1.4835">
        <ele>593.1</ele>
        <time>2022-09-04T09:08:39Z</time>
      </trkpt>
      <trkpt lat="43.23738" lon="-1.4835">
        <ele>593.1</ele>
        <time>2022-09-04T09:08:40Z</time>
      </trkpt>
      <trkpt lat="43.23738" lon="-1.4835">
        <ele>593.1</ele>
        <time>2022-09-04T09:08:41Z</time>
      </trkpt>
      <trkpt lat="43.23738" lon="-1.4835">
        <ele>593.1</ele>
        <time>2022-09-04T09:08:42Z</time>
      </trkpt>
      <trkpt lat="43.23739" lon="-1.48351">
        <ele>593.1</ele>
        <time>2022-09-04T09:08:43Z</time>
      </trkpt>
      <trkpt lat="43.23739" lon="-1.48351">
        <ele>593.1</ele>
        <time>2022-09-04T09:08:44Z</time>
      </trkpt>
      <trkpt lat="43.23733" lon="-1.48355">
        <ele>593.2</ele>
        <time>2022-09-04T09:10:56Z</time>
      </trkpt>
      <trkpt lat="43.23732" lon="-1.48356">
        <ele>593.2</ele>
        <time>2022-09-04T09:10:57Z</time>
      </trkpt>
      <trkpt lat="43.23731" lon="-1.48356">
        <ele>593.2</ele>
        <time>2022-09-04T09:10:58Z</time>
      </trkpt>
      <trkpt lat="43.23731" lon="-1.48357">
        <ele>593.2</ele>
        <time>2022-09-04T09:10:59Z</time>
      </trkpt>
      <trkpt lat="43.23731" lon="-1.48357">
        <ele>593.2</ele>
        <time>2022-09-04T09:11:00Z</time>
      </trkpt>
      <trkpt lat="43.2373" lon="-1.48358">
        <ele>593.2</ele>
        <time>2022-09-04T09:11:01Z</time>
      </trkpt>
      <trkpt lat="43.2373" lon="-1.48358">
        <ele>593.2</ele>
        <time>2022-09-04T09:11:02Z</time>
      </trkpt>
      <trkpt lat="43.23729" lon="-1.48359">
        <ele>593.2</ele>
        <time>2022-09-04T09:11:03Z</time>
      </trkpt>
      <trkpt lat="43.23729" lon="-1.4836">
        <ele>593.2</ele>
        <time>2022-09-04T09:11:04Z</time>
      </trkpt>
      <trkpt lat="43.23729" lon="-1.48361">
        <ele>593.1</ele>
        <time>2022-09-04T09:11:05Z</time>
      </trkpt>
      <trkpt lat="43.23728" lon="-1.48362">
        <ele>593.1</ele>
        <time>2022-09-04T09:11:06Z</time>
      </trkpt>
      <trkpt lat="43.23728" lon="-1.48363">
        <ele>593.1</ele>
        <time>2022-09-04T09:11:07Z</time>
      </trkpt>
      <trkpt lat="43.23727" lon="-1.48364">
        <ele>593.1</ele>
        <time>2022-09-04T09:11:08Z</time>
      </trkpt>
      <trkpt lat="43.23727" lon="-1.48365">
        <ele>593.1</ele>
        <time>2022-09-04T09:11:09Z</time>
      </trkpt>
      <trkpt lat="43.23726" lon="-1.48366">
        <ele>593.1</ele>
        <time>2022-09-04T09:11:10Z</time>
      </trkpt>
      <trkpt lat="43.23726" lon="-1.48367">
        <ele>593.1</ele>
        <time>2022-09-04T09:11:11Z</time>
      </trkpt>
      <trkpt lat="43.23725" lon="-1.48367">
        <ele>593.1</ele>
        <time>2022-09-04T09:11:12Z</time>
      </trkpt>
      <trkpt lat="43.23725" lon="-1.48369">
        <ele>593</ele>
        <time>2022-09-04T09:11:13Z</time>
      </trkpt>
      <trkpt lat="43.23724" lon="-1.48371">
        <ele>593</ele>
        <time>2022-09-04T09:11:14Z</time>
      </trkpt>
      <trkpt lat="43.23723" lon="-1.48372">
        <ele>593</ele>
        <time>2022-09-04T09:11:15Z</time>
      </trkpt>
      <trkpt lat="43.23723" lon="-1.48372">
        <ele>593</ele>
        <time>2022-09-04T09:11:16Z</time>
      </trkpt>
      <trkpt lat="43.23723" lon="-1.48373">
        <ele>593</ele>
        <time>2022-09-04T09:11:17Z</time>
      </trkpt>
      <trkpt lat="43.23723" lon="-1.48373">
        <ele>593</ele>
        <time>2022-09-04T09:11:18Z</time>
      </trkpt>
      <trkpt lat="43.23723" lon="-1.48374">
        <ele>593</ele>
        <time>2022-09-04T09:11:19Z</time>
      </trkpt>
      <trkpt lat="43.23722" lon="-1.48375">
        <ele>593</ele>
        <time>2022-09-04T09:11:20Z</time>
      </trkpt>
      <trkpt lat="43.23722" lon="-1.48375">
        <ele>593</ele>
        <time>2022-09-04T09:11:21Z</time>
      </trkpt>
      <trkpt lat="43.23722" lon="-1.48375">
        <ele>593</ele>
        <time>2022-09-04T09:11:22Z</time>
      </trkpt>
      <trkpt lat="43.23722" lon="-1.48375">
        <ele>593</ele>
        <time>2022-09-04T09:11:23Z</time>
      </trkpt>
      <trkpt lat="43.23722" lon="-1.48376">
        <ele>593</ele>
        <time>2022-09-04T09:11:24Z</time>
      </trkpt>
      <trkpt lat="43.23722" lon="-1.48376">
        <ele>593</ele>
        <time>2022-09-04T09:11:25Z</time>
      </trkpt>
      <trkpt lat="43.23722" lon="-1.48378">
        <ele>592.9</ele>
        <time>2022-09-04T09:11:26Z</time>
      </trkpt>
      <trkpt lat="43.23722" lon="-1.4838">
        <ele>592.9</ele>
        <time>2022-09-04T09:11:27Z</time>
      </trkpt>
      <trkpt lat="43.23721" lon="-1.48381">
        <ele>592.9</ele>
        <time>2022-09-04T09:11:28Z</time>
      </trkpt>
      <trkpt lat="43.23721" lon="-1.48383">
        <ele>592.9</ele>
        <time>2022-09-04T09:11:29Z</time>
      </trkpt>
      <trkpt lat="43.2372" lon="-1.48388">
        <ele>592.8</ele>
        <time>2022-09-04T09:11:30Z</time>
      </trkpt>
      <trkpt lat="43.23717" lon="-1.48393">
        <ele>592.8</ele>
        <time>2022-09-04T09:11:31Z</time>
      </trkpt>
      <trkpt lat="43.23715" lon="-1.48398">
        <ele>592.7</ele>
        <time>2022-09-04T09:11:32Z</time>
      </trkpt>
      <trkpt lat="43.23712" lon="-1.48403">
        <ele>592.6</ele>
        <time>2022-09-04T09:11:33Z</time>
      </trkpt>
      <trkpt lat="43.23709" lon="-1.48407">
        <ele>592.6</ele>
        <time>2022-09-04T09:11:34Z</time>
      </trkpt>
      <trkpt lat="43.23706" lon="-1.48411">
        <ele>592.5</ele>
        <time>2022-09-04T09:11:35Z</time>
      </trkpt>
      <trkpt lat="43.23702" lon="-1.48415">
        <ele>592.4</ele>
        <time>2022-09-04T09:11:36Z</time>
      </trkpt>
      <trkpt lat="43.23698" lon="-1.48419">
        <ele>592.4</ele>
        <time>2022-09-04T09:11:37Z</time>
      </trkpt>
      <trkpt lat="43.23694" lon="-1.48423">
        <ele>592.3</ele>
        <time>2022-09-04T09:11:38Z</time>
      </trkpt>
      <trkpt lat="43.23689" lon="-1.48426">
        <ele>592.2</ele>
        <time>2022-09-04T09:11:39Z</time>
      </trkpt>
      <trkpt lat="43.23685" lon="-1.48428">
        <ele>592.2</ele>
        <time>2022-09-04T09:11:40Z</time>
      </trkpt>
      <trkpt lat="43.2368" lon="-1.48431">
        <ele>592.1</ele>
        <time>2022-09-04T09:11:41Z</time>
      </trkpt>
      <trkpt lat="43.23676" lon="-1.48433">
        <ele>592</ele>
        <time>2022-09-04T09:11:42Z</time>
      </trkpt>
      <trkpt lat="43.23671" lon="-1.48436">
        <ele>592</ele>
        <time>2022-09-04T09:11:43Z</time>
      </trkpt>
      <trkpt lat="43.23666" lon="-1.48439">
        <ele>592</ele>
        <time>2022-09-04T09:11:44Z</time>
      </trkpt>
      <trkpt lat="43.23661" lon="-1.48441">
        <ele>592</ele>
        <time>2022-09-04T09:11:45Z</time>
      </trkpt>
      <trkpt lat="43.23657" lon="-1.48444">
        <ele>592</ele>
        <time>2022-09-04T09:11:46Z</time>
      </trkpt>
      <trkpt lat="43.23651" lon="-1.48447">
        <ele>592</ele>
        <time>2022-09-04T09:11:47Z</time>
      </trkpt>
      <trkpt lat="43.23646" lon="-1.48451">
        <ele>591.9</ele>
        <time>2022-09-04T09:11:48Z</time>
      </trkpt>
      <trkpt lat="43.23641" lon="-1.48454">
        <ele>591.9</ele>
        <time>2022-09-04T09:11:49Z</time>
      </trkpt>
      <trkpt lat="43.23637" lon="-1.48458">
        <ele>591.9</ele>
        <time>2022-09-04T09:11:50Z</time>
      </trkpt>
      <trkpt lat="43.23633" lon="-1.48462">
        <ele>591.9</ele>
        <time>2022-09-04T09:11:51Z</time>
      </trkpt>
      <trkpt lat="43.23629" lon="-1.48465">
        <ele>591.9</ele>
        <time>2022-09-04T09:11:52Z</time>
      </trkpt>
      <trkpt lat="43.23625" lon="-1.48469">
        <ele>591.9</ele>
        <time>2022-09-04T09:11:53Z</time>
      </trkpt>
      <trkpt lat="43.23622" lon="-1.48473">
        <ele>591.9</ele>
        <time>2022-09-04T09:11:54Z</time>
      </trkpt>
      <trkpt lat="43.23618" lon="-1.48476">
        <ele>591.9</ele>
        <time>2022-09-04T09:11:55Z</time>
      </trkpt>
      <trkpt lat="43.23615" lon="-1.48481">
        <ele>591.9</ele>
        <time>2022-09-04T09:11:56Z</time>
      </trkpt>
      <trkpt lat="43.23612" lon="-1.48485">
        <ele>591.9</ele>
        <time>2022-09-04T09:11:57Z</time>
      </trkpt>
      <trkpt lat="43.23609" lon="-1.48489">
        <ele>591.9</ele>
        <time>2022-09-04T09:11:58Z</time>
      </trkpt>
      <trkpt lat="43.23606" lon="-1.48493">
        <ele>591.9</ele>
        <time>2022-09-04T09:11:59Z</time>
      </trkpt>
      <trkpt lat="43.23602" lon="-1.48497">
        <ele>591.9</ele>
        <time>2022-09-04T09:12:00Z</time>
      </trkpt>
      <trkpt lat="43.23598" lon="-1.48501">
        <ele>591.9</ele>
        <time>2022-09-04T09:12:01Z</time>
      </trkpt>
      <trkpt lat="43.23594" lon="-1.48504">
        <ele>591.9</ele>
        <time>2022-09-04T09:12:02Z</time>
      </trkpt>
      <trkpt lat="43.2359" lon="-1.48508">
        <ele>591.9</ele>
        <time>2022-09-04T09:12:03Z</time>
      </trkpt>
      <trkpt lat="43.23587" lon="-1.48511">
        <ele>591.9</ele>
        <time>2022-09-04T09:12:04Z</time>
      </trkpt>
      <trkpt lat="43.23583" lon="-1.48515">
        <ele>591.9</ele>
        <time>2022-09-04T09:12:05Z</time>
      </trkpt>
      <trkpt lat="43.2358" lon="-1.48519">
        <ele>591.9</ele>
        <time>2022-09-04T09:12:06Z</time>
      </trkpt>
      <trkpt lat="43.23575" lon="-1.48522">
        <ele>591.9</ele>
        <time>2022-09-04T09:12:07Z</time>
      </trkpt>
      <trkpt lat="43.23572" lon="-1.48526">
        <ele>591.9</ele>
        <time>2022-09-04T09:12:08Z</time>
      </trkpt>
      <trkpt lat="43.23568" lon="-1.48529">
        <ele>591.9</ele>
        <time>2022-09-04T09:12:09Z</time>
      </trkpt>
      <trkpt lat="43.23564" lon="-1.48533">
        <ele>591.9</ele>
        <time>2022-09-04T09:12:10Z</time>
      </trkpt>
      <trkpt lat="43.23561" lon="-1.48536">
        <ele>591.9</ele>
        <time>2022-09-04T09:12:11Z</time>
      </trkpt>
      <trkpt lat="43.23557" lon="-1.4854">
        <ele>591.9</ele>
        <time>2022-09-04T09:12:12Z</time>
      </trkpt>
      <trkpt lat="43.23553" lon="-1.48544">
        <ele>591.9</ele>
        <time>2022-09-04T09:12:13Z</time>
      </trkpt>
      <trkpt lat="43.23549" lon="-1.48548">
        <ele>591.9</ele>
        <time>2022-09-04T09:12:14Z</time>
      </trkpt>
      <trkpt lat="43.23546" lon="-1.48552">
        <ele>591.9</ele>
        <time>2022-09-04T09:12:15Z</time>
      </trkpt>
      <trkpt lat="43.23542" lon="-1.48556">
        <ele>591.9</ele>
        <time>2022-09-04T09:12:16Z</time>
      </trkpt>
      <trkpt lat="43.23539" lon="-1.48561">
        <ele>591.9</ele>
        <time>2022-09-04T09:12:17Z</time>
      </trkpt>
      <trkpt lat="43.23536" lon="-1.48566">
        <ele>591.9</ele>
        <time>2022-09-04T09:12:18Z</time>
      </trkpt>
      <trkpt lat="43.23533" lon="-1.48571">
        <ele>591.9</ele>
        <time>2022-09-04T09:12:19Z</time>
      </trkpt>
      <trkpt lat="43.2353" lon="-1.48576">
        <ele>591.9</ele>
        <time>2022-09-04T09:12:20Z</time>
      </trkpt>
      <trkpt lat="43.23527" lon="-1.48581">
        <ele>591.9</ele>
        <time>2022-09-04T09:12:21Z</time>
      </trkpt>
      <trkpt lat="43.23524" lon="-1.48586">
        <ele>591.9</ele>
        <time>2022-09-04T09:12:22Z</time>
      </trkpt>
      <trkpt lat="43.23522" lon="-1.48592">
        <ele>591.9</ele>
        <time>2022-09-04T09:12:23Z</time>
      </trkpt>
      <trkpt lat="43.23519" lon="-1.48597">
        <ele>591.9</ele>
        <time>2022-09-04T09:12:24Z</time>
      </trkpt>
      <trkpt lat="43.23517" lon="-1.48603">
        <ele>591.8</ele>
        <time>2022-09-04T09:12:25Z</time>
      </trkpt>
      <trkpt lat="43.23515" lon="-1.48608">
        <ele>591.8</ele>
        <time>2022-09-04T09:12:26Z</time>
      </trkpt>
      <trkpt lat="43.23513" lon="-1.48613">
        <ele>591.8</ele>
        <time>2022-09-04T09:12:27Z</time>
      </trkpt>
      <trkpt lat="43.2351" lon="-1.48619">
        <ele>591.8</ele>
        <time>2022-09-04T09:12:28Z</time>
      </trkpt>
      <trkpt lat="43.23508" lon="-1.48624">
        <ele>591.7</ele>
        <time>2022-09-04T09:12:29Z</time>
      </trkpt>
      <trkpt lat="43.23506" lon="-1.4863">
        <ele>591.7</ele>
        <time>2022-09-04T09:12:30Z</time>
      </trkpt>
      <trkpt lat="43.23504" lon="-1.48636">
        <ele>591.6</ele>
        <time>2022-09-04T09:12:31Z</time>
      </trkpt>
      <trkpt lat="43.23502" lon="-1.48641">
        <ele>591.6</ele>
        <time>2022-09-04T09:12:32Z</time>
      </trkpt>
      <trkpt lat="43.235" lon="-1.48647">
        <ele>591.6</ele>
        <time>2022-09-04T09:12:33Z</time>
      </trkpt>
      <trkpt lat="43.23498" lon="-1.48653">
        <ele>591.5</ele>
        <time>2022-09-04T09:12:34Z</time>
      </trkpt>
      <trkpt lat="43.23496" lon="-1.48659">
        <ele>591.5</ele>
        <time>2022-09-04T09:12:35Z</time>
      </trkpt>
      <trkpt lat="43.23494" lon="-1.48665">
        <ele>591.4</ele>
        <time>2022-09-04T09:12:36Z</time>
      </trkpt>
      <trkpt lat="43.23493" lon="-1.48672">
        <ele>591.3</ele>
        <time>2022-09-04T09:12:37Z</time>
      </trkpt>
      <trkpt lat="43.23492" lon="-1.48678">
        <ele>591.3</ele>
        <time>2022-09-04T09:12:38Z</time>
      </trkpt>
      <trkpt lat="43.23491" lon="-1.48685">
        <ele>591.2</ele>
        <time>2022-09-04T09:12:39Z</time>
      </trkpt>
      <trkpt lat="43.2349" lon="-1.48691">
        <ele>591.2</ele>
        <time>2022-09-04T09:12:40Z</time>
      </trkpt>
      <trkpt lat="43.23489" lon="-1.48698">
        <ele>591.1</ele>
        <time>2022-09-04T09:12:41Z</time>
      </trkpt>
      <trkpt lat="43.23488" lon="-1.48705">
        <ele>591.1</ele>
        <time>2022-09-04T09:12:42Z</time>
      </trkpt>
      <trkpt lat="43.23488" lon="-1.48712">
        <ele>591</ele>
        <time>2022-09-04T09:12:43Z</time>
      </trkpt>
      <trkpt lat="43.23487" lon="-1.48719">
        <ele>591</ele>
        <time>2022-09-04T09:12:44Z</time>
      </trkpt>
      <trkpt lat="43.23487" lon="-1.48725">
        <ele>590.9</ele>
        <time>2022-09-04T09:12:45Z</time>
      </trkpt>
      <trkpt lat="43.23486" lon="-1.48732">
        <ele>590.8</ele>
        <time>2022-09-04T09:12:46Z</time>
      </trkpt>
      <trkpt lat="43.23485" lon="-1.48738">
        <ele>590.8</ele>
        <time>2022-09-04T09:12:47Z</time>
      </trkpt>
      <trkpt lat="43.23484" lon="-1.48744">
        <ele>590.7</ele>
        <time>2022-09-04T09:12:48Z</time>
      </trkpt>
      <trkpt lat="43.23483" lon="-1.4875">
        <ele>590.6</ele>
        <time>2022-09-04T09:12:49Z</time>
      </trkpt>
      <trkpt lat="43.23482" lon="-1.48757">
        <ele>590.6</ele>
        <time>2022-09-04T09:12:50Z</time>
      </trkpt>
      <trkpt lat="43.23481" lon="-1.48763">
        <ele>590.5</ele>
        <time>2022-09-04T09:12:51Z</time>
      </trkpt>
      <trkpt lat="43.23479" lon="-1.4877">
        <ele>590.5</ele>
        <time>2022-09-04T09:12:52Z</time>
      </trkpt>
      <trkpt lat="43.23478" lon="-1.48776">
        <ele>590.4</ele>
        <time>2022-09-04T09:12:53Z</time>
      </trkpt>
      <trkpt lat="43.23476" lon="-1.48781">
        <ele>590.4</ele>
        <time>2022-09-04T09:12:54Z</time>
      </trkpt>
      <trkpt lat="43.23474" lon="-1.48787">
        <ele>590.3</ele>
        <time>2022-09-04T09:12:55Z</time>
      </trkpt>
      <trkpt lat="43.23472" lon="-1.48793">
        <ele>590.2</ele>
        <time>2022-09-04T09:12:56Z</time>
      </trkpt>
      <trkpt lat="43.2347" lon="-1.48799">
        <ele>590.1</ele>
        <time>2022-09-04T09:12:57Z</time>
      </trkpt>
      <trkpt lat="43.23468" lon="-1.48805">
        <ele>590</ele>
        <time>2022-09-04T09:12:58Z</time>
      </trkpt>
      <trkpt lat="43.23465" lon="-1.48811">
        <ele>589.9</ele>
        <time>2022-09-04T09:12:59Z</time>
      </trkpt>
      <trkpt lat="43.23463" lon="-1.48817">
        <ele>589.8</ele>
        <time>2022-09-04T09:13:00Z</time>
      </trkpt>
      <trkpt lat="43.2346" lon="-1.48823">
        <ele>589.6</ele>
        <time>2022-09-04T09:13:01Z</time>
      </trkpt>
      <trkpt lat="43.23457" lon="-1.48828">
        <ele>589.4</ele>
        <time>2022-09-04T09:13:02Z</time>
      </trkpt>
      <trkpt lat="43.23453" lon="-1.48834">
        <ele>589.2</ele>
        <time>2022-09-04T09:13:03Z</time>
      </trkpt>
      <trkpt lat="43.2345" lon="-1.48839">
        <ele>589</ele>
        <time>2022-09-04T09:13:04Z</time>
      </trkpt>
      <trkpt lat="43.23447" lon="-1.48845">
        <ele>588.8</ele>
        <time>2022-09-04T09:13:05Z</time>
      </trkpt>
      <trkpt lat="43.23444" lon="-1.48852">
        <ele>588.6</ele>
        <time>2022-09-04T09:13:06Z</time>
      </trkpt>
      <trkpt lat="43.23442" lon="-1.48858">
        <ele>588.4</ele>
        <time>2022-09-04T09:13:07Z</time>
      </trkpt>
      <trkpt lat="43.23439" lon="-1.48865">
        <ele>588.1</ele>
        <time>2022-09-04T09:13:08Z</time>
      </trkpt>
      <trkpt lat="43.23437" lon="-1.48872">
        <ele>587.8</ele>
        <time>2022-09-04T09:13:09Z</time>
      </trkpt>
      <trkpt lat="43.23435" lon="-1.4888">
        <ele>587.6</ele>
        <time>2022-09-04T09:13:10Z</time>
      </trkpt>
      <trkpt lat="43.23433" lon="-1.48887">
        <ele>587.3</ele>
        <time>2022-09-04T09:13:11Z</time>
      </trkpt>
      <trkpt lat="43.23432" lon="-1.48895">
        <ele>587</ele>
        <time>2022-09-04T09:13:12Z</time>
      </trkpt>
      <trkpt lat="43.23431" lon="-1.48903">
        <ele>586.8</ele>
        <time>2022-09-04T09:13:13Z</time>
      </trkpt>
      <trkpt lat="43.2343" lon="-1.48912">
        <ele>586.5</ele>
        <time>2022-09-04T09:13:14Z</time>
      </trkpt>
      <trkpt lat="43.2343" lon="-1.48921">
        <ele>586.2</ele>
        <time>2022-09-04T09:13:15Z</time>
      </trkpt>
      <trkpt lat="43.23431" lon="-1.4893">
        <ele>585.9</ele>
        <time>2022-09-04T09:13:16Z</time>
      </trkpt>
      <trkpt lat="43.23433" lon="-1.4894">
        <ele>585.6</ele>
        <time>2022-09-04T09:13:17Z</time>
      </trkpt>
      <trkpt lat="43.23434" lon="-1.48949">
        <ele>585.3</ele>
        <time>2022-09-04T09:13:18Z</time>
      </trkpt>
      <trkpt lat="43.23436" lon="-1.48959">
        <ele>585</ele>
        <time>2022-09-04T09:13:19Z</time>
      </trkpt>
      <trkpt lat="43.23439" lon="-1.48968">
        <ele>584.7</ele>
        <time>2022-09-04T09:13:20Z</time>
      </trkpt>
      <trkpt lat="43.23441" lon="-1.48977">
        <ele>584.4</ele>
        <time>2022-09-04T09:13:21Z</time>
      </trkpt>
      <trkpt lat="43.23442" lon="-1.48985">
        <ele>584.1</ele>
        <time>2022-09-04T09:13:22Z</time>
      </trkpt>
      <trkpt lat="43.23444" lon="-1.48993">
        <ele>583.9</ele>
        <time>2022-09-04T09:13:23Z</time>
      </trkpt>
      <trkpt lat="43.23445" lon="-1.49001">
        <ele>583.6</ele>
        <time>2022-09-04T09:13:24Z</time>
      </trkpt>
      <trkpt lat="43.23445" lon="-1.4901">
        <ele>583.4</ele>
        <time>2022-09-04T09:13:25Z</time>
      </trkpt>
      <trkpt lat="43.23445" lon="-1.49018">
        <ele>583.1</ele>
        <time>2022-09-04T09:13:26Z</time>
      </trkpt>
      <trkpt lat="43.23445" lon="-1.49027">
        <ele>582.9</ele>
        <time>2022-09-04T09:13:27Z</time>
      </trkpt>
      <trkpt lat="43.23444" lon="-1.49035">
        <ele>582.7</ele>
        <time>2022-09-04T09:13:28Z</time>
      </trkpt>
      <trkpt lat="43.23443" lon="-1.49044">
        <ele>582.4</ele>
        <time>2022-09-04T09:13:29Z</time>
      </trkpt>
      <trkpt lat="43.23442" lon="-1.49052">
        <ele>582.2</ele>
        <time>2022-09-04T09:13:30Z</time>
      </trkpt>
      <trkpt lat="43.23441" lon="-1.49061">
        <ele>582</ele>
        <time>2022-09-04T09:13:31Z</time>
      </trkpt>
      <trkpt lat="43.23442" lon="-1.49069">
        <ele>581.7</ele>
        <time>2022-09-04T09:13:32Z</time>
      </trkpt>
      <trkpt lat="43.23442" lon="-1.49077">
        <ele>581.5</ele>
        <time>2022-09-04T09:13:33Z</time>
      </trkpt>
      <trkpt lat="43.23444" lon="-1.49085">
        <ele>581.2</ele>
        <time>2022-09-04T09:13:34Z</time>
      </trkpt>
      <trkpt lat="43.23447" lon="-1.49094">
        <ele>580.8</ele>
        <time>2022-09-04T09:13:35Z</time>
      </trkpt>
      <trkpt lat="43.23451" lon="-1.49102">
        <ele>580.5</ele>
        <time>2022-09-04T09:13:36Z</time>
      </trkpt>
      <trkpt lat="43.23455" lon="-1.49109">
        <ele>580.2</ele>
        <time>2022-09-04T09:13:37Z</time>
      </trkpt>
      <trkpt lat="43.2346" lon="-1.49117">
        <ele>579.8</ele>
        <time>2022-09-04T09:13:38Z</time>
      </trkpt>
      <trkpt lat="43.23465" lon="-1.49124">
        <ele>579.4</ele>
        <time>2022-09-04T09:13:39Z</time>
      </trkpt>
      <trkpt lat="43.23471" lon="-1.4913">
        <ele>579.1</ele>
        <time>2022-09-04T09:13:40Z</time>
      </trkpt>
      <trkpt lat="43.23476" lon="-1.49137">
        <ele>578.7</ele>
        <time>2022-09-04T09:13:41Z</time>
      </trkpt>
      <trkpt lat="43.23482" lon="-1.49144">
        <ele>578.3</ele>
        <time>2022-09-04T09:13:42Z</time>
      </trkpt>
      <trkpt lat="43.23488" lon="-1.49151">
        <ele>578</ele>
        <time>2022-09-04T09:13:43Z</time>
      </trkpt>
      <trkpt lat="43.23494" lon="-1.49158">
        <ele>577.6</ele>
        <time>2022-09-04T09:13:44Z</time>
      </trkpt>
      <trkpt lat="43.23499" lon="-1.49165">
        <ele>577.2</ele>
        <time>2022-09-04T09:13:45Z</time>
      </trkpt>
      <trkpt lat="43.23505" lon="-1.49172">
        <ele>576.8</ele>
        <time>2022-09-04T09:13:46Z</time>
      </trkpt>
      <trkpt lat="43.2351" lon="-1.4918">
        <ele>576.5</ele>
        <time>2022-09-04T09:13:47Z</time>
      </trkpt>
      <trkpt lat="43.23516" lon="-1.49186">
        <ele>576.1</ele>
        <time>2022-09-04T09:13:48Z</time>
      </trkpt>
      <trkpt lat="43.23522" lon="-1.49193">
        <ele>575.8</ele>
        <time>2022-09-04T09:13:49Z</time>
      </trkpt>
      <trkpt lat="43.23528" lon="-1.49199">
        <ele>575.4</ele>
        <time>2022-09-04T09:13:50Z</time>
      </trkpt>
      <trkpt lat="43.23535" lon="-1.49207">
        <ele>575</ele>
        <time>2022-09-04T09:13:51Z</time>
      </trkpt>
      <trkpt lat="43.23541" lon="-1.49215">
        <ele>574.6</ele>
        <time>2022-09-04T09:13:52Z</time>
      </trkpt>
      <trkpt lat="43.23547" lon="-1.49223">
        <ele>574.1</ele>
        <time>2022-09-04T09:13:53Z</time>
      </trkpt>
      <trkpt lat="43.23553" lon="-1.49231">
        <ele>573.7</ele>
        <time>2022-09-04T09:13:54Z</time>
      </trkpt>
      <trkpt lat="43.23558" lon="-1.49239">
        <ele>573.3</ele>
        <time>2022-09-04T09:13:55Z</time>
      </trkpt>
      <trkpt lat="43.23564" lon="-1.49247">
        <ele>572.9</ele>
        <time>2022-09-04T09:13:56Z</time>
      </trkpt>
      <trkpt lat="43.2357" lon="-1.49255">
        <ele>572.6</ele>
        <time>2022-09-04T09:13:57Z</time>
      </trkpt>
      <trkpt lat="43.23576" lon="-1.49264">
        <ele>572.2</ele>
        <time>2022-09-04T09:13:58Z</time>
      </trkpt>
      <trkpt lat="43.23581" lon="-1.49274">
        <ele>571.8</ele>
        <time>2022-09-04T09:13:59Z</time>
      </trkpt>
      <trkpt lat="43.23587" lon="-1.49284">
        <ele>571.4</ele>
        <time>2022-09-04T09:14:00Z</time>
      </trkpt>
      <trkpt lat="43.23592" lon="-1.49293">
        <ele>571.1</ele>
        <time>2022-09-04T09:14:01Z</time>
      </trkpt>
      <trkpt lat="43.23597" lon="-1.49302">
        <ele>570.8</ele>
        <time>2022-09-04T09:14:02Z</time>
      </trkpt>
      <trkpt lat="43.23602" lon="-1.49312">
        <ele>570.5</ele>
        <time>2022-09-04T09:14:03Z</time>
      </trkpt>
      <trkpt lat="43.23607" lon="-1.49322">
        <ele>570.4</ele>
        <time>2022-09-04T09:14:04Z</time>
      </trkpt>
      <trkpt lat="43.23611" lon="-1.49332">
        <ele>570.2</ele>
        <time>2022-09-04T09:14:05Z</time>
      </trkpt>
      <trkpt lat="43.23615" lon="-1.49341">
        <ele>570.1</ele>
        <time>2022-09-04T09:14:06Z</time>
      </trkpt>
      <trkpt lat="43.23619" lon="-1.4935">
        <ele>569.9</ele>
        <time>2022-09-04T09:14:07Z</time>
      </trkpt>
      <trkpt lat="43.23623" lon="-1.4936">
        <ele>569.8</ele>
        <time>2022-09-04T09:14:08Z</time>
      </trkpt>
      <trkpt lat="43.23627" lon="-1.49368">
        <ele>569.8</ele>
        <time>2022-09-04T09:14:09Z</time>
      </trkpt>
      <trkpt lat="43.2363" lon="-1.49377">
        <ele>569.7</ele>
        <time>2022-09-04T09:14:10Z</time>
      </trkpt>
      <trkpt lat="43.23631" lon="-1.49385">
        <ele>569.3</ele>
        <time>2022-09-04T09:14:11Z</time>
      </trkpt>
      <trkpt lat="43.23633" lon="-1.49393">
        <ele>569</ele>
        <time>2022-09-04T09:14:12Z</time>
      </trkpt>
      <trkpt lat="43.23634" lon="-1.49398">
        <ele>568.7</ele>
        <time>2022-09-04T09:14:13Z</time>
      </trkpt>
      <trkpt lat="43.23635" lon="-1.49403">
        <ele>568.5</ele>
        <time>2022-09-04T09:14:14Z</time>
      </trkpt>
      <trkpt lat="43.23635" lon="-1.49405">
        <ele>568.3</ele>
        <time>2022-09-04T09:14:15Z</time>
      </trkpt>
      <trkpt lat="43.23635" lon="-1.49407">
        <ele>568.2</ele>
        <time>2022-09-04T09:14:16Z</time>
      </trkpt>
      <trkpt lat="43.23636" lon="-1.4941">
        <ele>567.9</ele>
        <time>2022-09-04T09:14:17Z</time>
      </trkpt>
      <trkpt lat="43.23637" lon="-1.49411">
        <ele>567.8</ele>
        <time>2022-09-04T09:14:18Z</time>
      </trkpt>
      <trkpt lat="43.23637" lon="-1.49413">
        <ele>567</ele>
        <time>2022-09-04T09:14:19Z</time>
      </trkpt>
      <trkpt lat="43.23639" lon="-1.49418">
        <ele>567</ele>
        <time>2022-09-04T09:14:20Z</time>
      </trkpt>
      <trkpt lat="43.23641" lon="-1.49425">
        <ele>569.2</ele>
        <time>2022-09-04T09:14:21Z</time>
      </trkpt>
      <trkpt lat="43.23644" lon="-1.49432">
        <ele>571.5</ele>
        <time>2022-09-04T09:14:22Z</time>
      </trkpt>
      <trkpt lat="43.23646" lon="-1.49439">
        <ele>573.6</ele>
        <time>2022-09-04T09:14:23Z</time>
      </trkpt>
      <trkpt lat="43.23648" lon="-1.49443">
        <ele>575.1</ele>
        <time>2022-09-04T09:14:24Z</time>
      </trkpt>
      <trkpt lat="43.23648" lon="-1.49446">
        <ele>576</ele>
        <time>2022-09-04T09:14:25Z</time>
      </trkpt>
      <trkpt lat="43.23649" lon="-1.49447">
        <ele>576</ele>
        <time>2022-09-04T09:14:26Z</time>
      </trkpt>
      <trkpt lat="43.2365" lon="-1.49447">
        <ele>575.9</ele>
        <time>2022-09-04T09:14:27Z</time>
      </trkpt>
      <trkpt lat="43.23651" lon="-1.49447">
        <ele>575.9</ele>
        <time>2022-09-04T09:14:28Z</time>
      </trkpt>
      <trkpt lat="43.23652" lon="-1.49448">
        <ele>575.8</ele>
        <time>2022-09-04T09:14:29Z</time>
      </trkpt>
      <trkpt lat="43.23652" lon="-1.49448">
        <ele>575.8</ele>
        <time>2022-09-04T09:14:30Z</time>
      </trkpt>
      <trkpt lat="43.23653" lon="-1.49448">
        <ele>575.8</ele>
        <time>2022-09-04T09:14:31Z</time>
      </trkpt>
      <trkpt lat="43.23653" lon="-1.49448">
        <ele>575.7</ele>
        <time>2022-09-04T09:14:32Z</time>
      </trkpt>
      <trkpt lat="43.23654" lon="-1.49448">
        <ele>575.7</ele>
        <time>2022-09-04T09:14:33Z</time>
      </trkpt>
      <trkpt lat="43.23655" lon="-1.49448">
        <ele>575.7</ele>
        <time>2022-09-04T09:14:34Z</time>
      </trkpt>
      <trkpt lat="43.23655" lon="-1.49449">
        <ele>575.6</ele>
        <time>2022-09-04T09:14:35Z</time>
      </trkpt>
      <trkpt lat="43.23656" lon="-1.49449">
        <ele>575.6</ele>
        <time>2022-09-04T09:14:36Z</time>
      </trkpt>
      <trkpt lat="43.23656" lon="-1.49449">
        <ele>575.5</ele>
        <time>2022-09-04T09:14:37Z</time>
      </trkpt>
      <trkpt lat="43.23657" lon="-1.49449">
        <ele>575.5</ele>
        <time>2022-09-04T09:17:11Z</time>
      </trkpt>
      <trkpt lat="43.23658" lon="-1.49449">
        <ele>575.4</ele>
        <time>2022-09-04T09:17:12Z</time>
      </trkpt>
      <trkpt lat="43.23658" lon="-1.4945">
        <ele>575.4</ele>
        <time>2022-09-04T09:17:13Z</time>
      </trkpt>
      <trkpt lat="43.23661" lon="-1.49451">
        <ele>575.2</ele>
        <time>2022-09-04T09:17:14Z</time>
      </trkpt>
      <trkpt lat="43.23664" lon="-1.49451">
        <ele>574.9</ele>
        <time>2022-09-04T09:17:15Z</time>
      </trkpt>
      <trkpt lat="43.23667" lon="-1.49452">
        <ele>574.6</ele>
        <time>2022-09-04T09:17:16Z</time>
      </trkpt>
      <trkpt lat="43.2367" lon="-1.49453">
        <ele>574.2</ele>
        <time>2022-09-04T09:17:17Z</time>
      </trkpt>
      <trkpt lat="43.23674" lon="-1.49455">
        <ele>573.8</ele>
        <time>2022-09-04T09:17:18Z</time>
      </trkpt>
      <trkpt lat="43.23675" lon="-1.49455">
        <ele>573.6</ele>
        <time>2022-09-04T09:17:19Z</time>
      </trkpt>
      <trkpt lat="43.23678" lon="-1.49455">
        <ele>573.3</ele>
        <time>2022-09-04T09:17:20Z</time>
      </trkpt>
      <trkpt lat="43.2368" lon="-1.49454">
        <ele>573.2</ele>
        <time>2022-09-04T09:17:21Z</time>
      </trkpt>
      <trkpt lat="43.23683" lon="-1.49453">
        <ele>570.8</ele>
        <time>2022-09-04T09:17:22Z</time>
      </trkpt>
      <trkpt lat="43.23685" lon="-1.49451">
        <ele>570.7</ele>
        <time>2022-09-04T09:17:23Z</time>
      </trkpt>
      <trkpt lat="43.23688" lon="-1.49449">
        <ele>570.6</ele>
        <time>2022-09-04T09:17:24Z</time>
      </trkpt>
      <trkpt lat="43.23692" lon="-1.49448">
        <ele>571.1</ele>
        <time>2022-09-04T09:17:25Z</time>
      </trkpt>
      <trkpt lat="43.23695" lon="-1.49448">
        <ele>568</ele>
        <time>2022-09-04T09:17:26Z</time>
      </trkpt>
      <trkpt lat="43.23699" lon="-1.49447">
        <ele>567.9</ele>
        <time>2022-09-04T09:17:27Z</time>
      </trkpt>
      <trkpt lat="43.23704" lon="-1.49447">
        <ele>567.8</ele>
        <time>2022-09-04T09:17:28Z</time>
      </trkpt>
      <trkpt lat="43.2371" lon="-1.49446">
        <ele>564.9</ele>
        <time>2022-09-04T09:17:29Z</time>
      </trkpt>
      <trkpt lat="43.23715" lon="-1.49444">
        <ele>564.8</ele>
        <time>2022-09-04T09:17:30Z</time>
      </trkpt>
      <trkpt lat="43.23718" lon="-1.49441">
        <ele>564.6</ele>
        <time>2022-09-04T09:17:31Z</time>
      </trkpt>
      <trkpt lat="43.2372" lon="-1.49439">
        <ele>561.2</ele>
        <time>2022-09-04T09:17:32Z</time>
      </trkpt>
      <trkpt lat="43.23721" lon="-1.49437">
        <ele>561.1</ele>
        <time>2022-09-04T09:17:33Z</time>
      </trkpt>
      <trkpt lat="43.23721" lon="-1.49436">
        <ele>561</ele>
        <time>2022-09-04T09:17:34Z</time>
      </trkpt>
      <trkpt lat="43.23722" lon="-1.49436">
        <ele>560.8</ele>
        <time>2022-09-04T09:17:35Z</time>
      </trkpt>
      <trkpt lat="43.23723" lon="-1.49436">
        <ele>560.7</ele>
        <time>2022-09-04T09:17:36Z</time>
      </trkpt>
      <trkpt lat="43.23723" lon="-1.49436">
        <ele>560.6</ele>
        <time>2022-09-04T09:17:37Z</time>
      </trkpt>
      <trkpt lat="43.23723" lon="-1.49436">
        <ele>560.5</ele>
        <time>2022-09-04T09:17:38Z</time>
      </trkpt>
      <trkpt lat="43.23723" lon="-1.49436">
        <ele>560.4</ele>
        <time>2022-09-04T09:17:39Z</time>
      </trkpt>
      <trkpt lat="43.23723" lon="-1.49436">
        <ele>560.3</ele>
        <time>2022-09-04T09:17:40Z</time>
      </trkpt>
      <trkpt lat="43.23723" lon="-1.49436">
        <ele>560.1</ele>
        <time>2022-09-04T09:17:41Z</time>
      </trkpt>
      <trkpt lat="43.23723" lon="-1.49436">
        <ele>560</ele>
        <time>2022-09-04T09:17:42Z</time>
      </trkpt>
      <trkpt lat="43.23723" lon="-1.49436">
        <ele>559.9</ele>
        <time>2022-09-04T09:17:43Z</time>
      </trkpt>
      <trkpt lat="43.23723" lon="-1.49436">
        <ele>559.8</ele>
        <time>2022-09-04T09:17:44Z</time>
      </trkpt>
      <trkpt lat="43.23723" lon="-1.49436">
        <ele>559.7</ele>
        <time>2022-09-04T09:17:45Z</time>
      </trkpt>
      <trkpt lat="43.23723" lon="-1.49436">
        <ele>559.6</ele>
        <time>2022-09-04T09:17:46Z</time>
      </trkpt>
      <trkpt lat="43.23723" lon="-1.49436">
        <ele>559.4</ele>
        <time>2022-09-04T09:17:47Z</time>
      </trkpt>
      <trkpt lat="43.23725" lon="-1.49434">
        <ele>559.3</ele>
        <time>2022-09-04T09:18:19Z</time>
      </trkpt>
      <trkpt lat="43.23726" lon="-1.49433">
        <ele>559.2</ele>
        <time>2022-09-04T09:18:20Z</time>
      </trkpt>
      <trkpt lat="43.23727" lon="-1.49433">
        <ele>559.1</ele>
        <time>2022-09-04T09:18:21Z</time>
      </trkpt>
      <trkpt lat="43.23727" lon="-1.49433">
        <ele>559</ele>
        <time>2022-09-04T09:18:22Z</time>
      </trkpt>
      <trkpt lat="43.23728" lon="-1.49434">
        <ele>558.9</ele>
        <time>2022-09-04T09:18:23Z</time>
      </trkpt>
      <trkpt lat="43.23729" lon="-1.49436">
        <ele>558.7</ele>
        <time>2022-09-04T09:18:24Z</time>
      </trkpt>
      <trkpt lat="43.23729" lon="-1.49437">
        <ele>558.6</ele>
        <time>2022-09-04T09:18:25Z</time>
      </trkpt>
      <trkpt lat="43.23729" lon="-1.49438">
        <ele>558.5</ele>
        <time>2022-09-04T09:18:26Z</time>
      </trkpt>
      <trkpt lat="43.23729" lon="-1.49438">
        <ele>558.4</ele>
        <time>2022-09-04T09:18:27Z</time>
      </trkpt>
      <trkpt lat="43.23731" lon="-1.49438">
        <ele>558.3</ele>
        <time>2022-09-04T09:18:28Z</time>
      </trkpt>
      <trkpt lat="43.23731" lon="-1.49438">
        <ele>558.2</ele>
        <time>2022-09-04T09:18:29Z</time>
      </trkpt>
      <trkpt lat="43.23731" lon="-1.49437">
        <ele>558</ele>
        <time>2022-09-04T09:18:30Z</time>
      </trkpt>
      <trkpt lat="43.23731" lon="-1.49436">
        <ele>557.9</ele>
        <time>2022-09-04T09:18:31Z</time>
      </trkpt>
      <trkpt lat="43.23732" lon="-1.49435">
        <ele>557.8</ele>
        <time>2022-09-04T09:18:32Z</time>
      </trkpt>
      <trkpt lat="43.23732" lon="-1.49435">
        <ele>557.7</ele>
        <time>2022-09-04T09:18:33Z</time>
      </trkpt>
      <trkpt lat="43.23732" lon="-1.49434">
        <ele>557.6</ele>
        <time>2022-09-04T09:18:34Z</time>
      </trkpt>
      <trkpt lat="43.23732" lon="-1.49433">
        <ele>557.5</ele>
        <time>2022-09-04T09:18:35Z</time>
      </trkpt>
      <trkpt lat="43.23733" lon="-1.49432">
        <ele>554.2</ele>
        <time>2022-09-04T09:18:36Z</time>
      </trkpt>
      <trkpt lat="43.23733" lon="-1.49432">
        <ele>554</ele>
        <time>2022-09-04T09:18:37Z</time>
      </trkpt>
      <trkpt lat="43.23733" lon="-1.49431">
        <ele>554.3</ele>
        <time>2022-09-04T09:18:38Z</time>
      </trkpt>
      <trkpt lat="43.23733" lon="-1.4943">
        <ele>554.2</ele>
        <time>2022-09-04T09:18:39Z</time>
      </trkpt>
      <trkpt lat="43.23734" lon="-1.49429">
        <ele>554.1</ele>
        <time>2022-09-04T09:19:31Z</time>
      </trkpt>
      <trkpt lat="43.23734" lon="-1.49429">
        <ele>553.9</ele>
        <time>2022-09-04T09:19:32Z</time>
      </trkpt>
      <trkpt lat="43.23734" lon="-1.49428">
        <ele>553.8</ele>
        <time>2022-09-04T09:19:33Z</time>
      </trkpt>
      <trkpt lat="43.23735" lon="-1.49424">
        <ele>553.7</ele>
        <time>2022-09-04T09:19:34Z</time>
      </trkpt>
      <trkpt lat="43.23736" lon="-1.49418">
        <ele>553.6</ele>
        <time>2022-09-04T09:19:35Z</time>
      </trkpt>
      <trkpt lat="43.2374" lon="-1.49409">
        <ele>554.1</ele>
        <time>2022-09-04T09:19:36Z</time>
      </trkpt>
      <trkpt lat="43.23744" lon="-1.49398">
        <ele>554</ele>
        <time>2022-09-04T09:19:37Z</time>
      </trkpt>
      <trkpt lat="43.23748" lon="-1.49387">
        <ele>551.5</ele>
        <time>2022-09-04T09:19:38Z</time>
      </trkpt>
      <trkpt lat="43.2375" lon="-1.49376">
        <ele>554.3</ele>
        <time>2022-09-04T09:19:39Z</time>
      </trkpt>
      <trkpt lat="43.23752" lon="-1.49369">
        <ele>554.2</ele>
        <time>2022-09-04T09:19:40Z</time>
      </trkpt>
      <trkpt lat="43.23753" lon="-1.49363">
        <ele>554</ele>
        <time>2022-09-04T09:19:41Z</time>
      </trkpt>
      <trkpt lat="43.23754" lon="-1.49359">
        <ele>557.6</ele>
        <time>2022-09-04T09:19:42Z</time>
      </trkpt>
      <trkpt lat="43.23755" lon="-1.49354">
        <ele>557.4</ele>
        <time>2022-09-04T09:19:43Z</time>
      </trkpt>
      <trkpt lat="43.23755" lon="-1.49353">
        <ele>557.3</ele>
        <time>2022-09-04T09:19:44Z</time>
      </trkpt>
      <trkpt lat="43.23755" lon="-1.49351">
        <ele>557.2</ele>
        <time>2022-09-04T09:19:45Z</time>
      </trkpt>
      <trkpt lat="43.23754" lon="-1.4935">
        <ele>557.1</ele>
        <time>2022-09-04T09:19:46Z</time>
      </trkpt>
      <trkpt lat="43.23754" lon="-1.49349">
        <ele>557</ele>
        <time>2022-09-04T09:19:47Z</time>
      </trkpt>
      <trkpt lat="43.23753" lon="-1.49349">
        <ele>556.9</ele>
        <time>2022-09-04T09:19:48Z</time>
      </trkpt>
      <trkpt lat="43.23752" lon="-1.49349">
        <ele>556.7</ele>
        <time>2022-09-04T09:19:49Z</time>
      </trkpt>
      <trkpt lat="43.23751" lon="-1.49349">
        <ele>556.6</ele>
        <time>2022-09-04T09:19:50Z</time>
      </trkpt>
      <trkpt lat="43.23751" lon="-1.49349">
        <ele>556.5</ele>
        <time>2022-09-04T09:19:51Z</time>
      </trkpt>
      <trkpt lat="43.23752" lon="-1.49349">
        <ele>556.4</ele>
        <time>2022-09-04T09:19:52Z</time>
      </trkpt>
      <trkpt lat="43.23752" lon="-1.49349">
        <ele>556.3</ele>
        <time>2022-09-04T09:19:53Z</time>
      </trkpt>
      <trkpt lat="43.23752" lon="-1.49349">
        <ele>556.2</ele>
        <time>2022-09-04T09:19:54Z</time>
      </trkpt>
      <trkpt lat="43.23753" lon="-1.49348">
        <ele>556</ele>
        <time>2022-09-04T09:19:55Z</time>
      </trkpt>
      <trkpt lat="43.23753" lon="-1.49347">
        <ele>555.9</ele>
        <time>2022-09-04T09:19:56Z</time>
      </trkpt>
      <trkpt lat="43.23753" lon="-1.49346">
        <ele>555.8</ele>
        <time>2022-09-04T09:19:57Z</time>
      </trkpt>
      <trkpt lat="43.23753" lon="-1.49346">
        <ele>555.7</ele>
        <time>2022-09-04T09:19:58Z</time>
      </trkpt>
      <trkpt lat="43.23753" lon="-1.49345">
        <ele>557.3</ele>
        <time>2022-09-04T09:19:59Z</time>
      </trkpt>
      <trkpt lat="43.23753" lon="-1.49345">
        <ele>557.2</ele>
        <time>2022-09-04T09:20:00Z</time>
      </trkpt>
      <trkpt lat="43.23756" lon="-1.49342">
        <ele>557.1</ele>
        <time>2022-09-04T09:20:04Z</time>
      </trkpt>
      <trkpt lat="43.23759" lon="-1.4934">
        <ele>552.9</ele>
        <time>2022-09-04T09:20:05Z</time>
      </trkpt>
      <trkpt lat="43.23762" lon="-1.49338">
        <ele>552.8</ele>
        <time>2022-09-04T09:20:06Z</time>
      </trkpt>
      <trkpt lat="43.23763" lon="-1.49338">
        <ele>552.7</ele>
        <time>2022-09-04T09:20:07Z</time>
      </trkpt>
      <trkpt lat="43.23765" lon="-1.49337">
        <ele>552.6</ele>
        <time>2022-09-04T09:20:08Z</time>
      </trkpt>
      <trkpt lat="43.23766" lon="-1.49336">
        <ele>552.5</ele>
        <time>2022-09-04T09:20:09Z</time>
      </trkpt>
      <trkpt lat="43.23767" lon="-1.49334">
        <ele>552.4</ele>
        <time>2022-09-04T09:20:10Z</time>
      </trkpt>
      <trkpt lat="43.23766" lon="-1.49332">
        <ele>552.2</ele>
        <time>2022-09-04T09:20:11Z</time>
      </trkpt>
      <trkpt lat="43.23766" lon="-1.49331">
        <ele>552.1</ele>
        <time>2022-09-04T09:20:12Z</time>
      </trkpt>
      <trkpt lat="43.23765" lon="-1.49327">
        <ele>552.5</ele>
        <time>2022-09-04T09:20:13Z</time>
      </trkpt>
      <trkpt lat="43.23765" lon="-1.49325">
        <ele>552.4</ele>
        <time>2022-09-04T09:20:14Z</time>
      </trkpt>
      <trkpt lat="43.23764" lon="-1.49321">
        <ele>552.3</ele>
        <time>2022-09-04T09:20:15Z</time>
      </trkpt>
      <trkpt lat="43.23764" lon="-1.49319">
        <ele>552.2</ele>
        <time>2022-09-04T09:20:16Z</time>
      </trkpt>
      <trkpt lat="43.23762" lon="-1.49315">
        <ele>552.1</ele>
        <time>2022-09-04T09:20:17Z</time>
      </trkpt>
      <trkpt lat="43.23762" lon="-1.49314">
        <ele>552</ele>
        <time>2022-09-04T09:20:18Z</time>
      </trkpt>
      <trkpt lat="43.23764" lon="-1.4931">
        <ele>552.9</ele>
        <time>2022-09-04T09:20:19Z</time>
      </trkpt>
      <trkpt lat="43.23765" lon="-1.49309">
        <ele>552.8</ele>
        <time>2022-09-04T09:20:20Z</time>
      </trkpt>
      <trkpt lat="43.23768" lon="-1.49306">
        <ele>552.7</ele>
        <time>2022-09-04T09:20:21Z</time>
      </trkpt>
      <trkpt lat="43.23773" lon="-1.49303">
        <ele>548.8</ele>
        <time>2022-09-04T09:20:22Z</time>
      </trkpt>
      <trkpt lat="43.23777" lon="-1.493">
        <ele>548.7</ele>
        <time>2022-09-04T09:20:23Z</time>
      </trkpt>
      <trkpt lat="43.2378" lon="-1.49296">
        <ele>548.6</ele>
        <time>2022-09-04T09:20:24Z</time>
      </trkpt>
      <trkpt lat="43.23784" lon="-1.49294">
        <ele>544</ele>
        <time>2022-09-04T09:20:25Z</time>
      </trkpt>
      <trkpt lat="43.23788" lon="-1.49292">
        <ele>545.6</ele>
        <time>2022-09-04T09:20:26Z</time>
      </trkpt>
      <trkpt lat="43.23792" lon="-1.49289">
        <ele>545.4</ele>
        <time>2022-09-04T09:20:27Z</time>
      </trkpt>
      <trkpt lat="43.23795" lon="-1.49287">
        <ele>540.7</ele>
        <time>2022-09-04T09:20:28Z</time>
      </trkpt>
      <trkpt lat="43.23799" lon="-1.49284">
        <ele>540.6</ele>
        <time>2022-09-04T09:20:29Z</time>
      </trkpt>
      <trkpt lat="43.23802" lon="-1.49282">
        <ele>540.5</ele>
        <time>2022-09-04T09:20:30Z</time>
      </trkpt>
      <trkpt lat="43.23805" lon="-1.4928">
        <ele>540.4</ele>
        <time>2022-09-04T09:20:31Z</time>
      </trkpt>
      <trkpt lat="43.23809" lon="-1.49278">
        <ele>534.4</ele>
        <time>2022-09-04T09:20:32Z</time>
      </trkpt>
      <trkpt lat="43.2381" lon="-1.49277">
        <ele>534.2</ele>
        <time>2022-09-04T09:20:33Z</time>
      </trkpt>
      <trkpt lat="43.23813" lon="-1.49275">
        <ele>535.6</ele>
        <time>2022-09-04T09:20:34Z</time>
      </trkpt>
      <trkpt lat="43.23815" lon="-1.49272">
        <ele>535.5</ele>
        <time>2022-09-04T09:20:35Z</time>
      </trkpt>
      <trkpt lat="43.23818" lon="-1.4927">
        <ele>535.4</ele>
        <time>2022-09-04T09:20:36Z</time>
      </trkpt>
      <trkpt lat="43.23821" lon="-1.49267">
        <ele>529.6</ele>
        <time>2022-09-04T09:20:37Z</time>
      </trkpt>
      <trkpt lat="43.23821" lon="-1.49266">
        <ele>529.5</ele>
        <time>2022-09-04T09:20:38Z</time>
      </trkpt>
      <trkpt lat="43.23824" lon="-1.49263">
        <ele>529.4</ele>
        <time>2022-09-04T09:20:39Z</time>
      </trkpt>
      <trkpt lat="43.23826" lon="-1.49261">
        <ele>529.3</ele>
        <time>2022-09-04T09:20:40Z</time>
      </trkpt>
      <trkpt lat="43.23829" lon="-1.4926">
        <ele>529.1</ele>
        <time>2022-09-04T09:20:41Z</time>
      </trkpt>
      <trkpt lat="43.23831" lon="-1.49258">
        <ele>530.2</ele>
        <time>2022-09-04T09:20:42Z</time>
      </trkpt>
      <trkpt lat="43.23834" lon="-1.49257">
        <ele>523.4</ele>
        <time>2022-09-04T09:20:43Z</time>
      </trkpt>
      <trkpt lat="43.23837" lon="-1.49257">
        <ele>523.3</ele>
        <time>2022-09-04T09:20:44Z</time>
      </trkpt>
      <trkpt lat="43.23838" lon="-1.49257">
        <ele>523.2</ele>
        <time>2022-09-04T09:20:45Z</time>
      </trkpt>
      <trkpt lat="43.23839" lon="-1.49259">
        <ele>523.1</ele>
        <time>2022-09-04T09:20:46Z</time>
      </trkpt>
      <trkpt lat="43.2384" lon="-1.49261">
        <ele>522.2</ele>
        <time>2022-09-04T09:20:47Z</time>
      </trkpt>
      <trkpt lat="43.23843" lon="-1.49263">
        <ele>522</ele>
        <time>2022-09-04T09:20:48Z</time>
      </trkpt>
      <trkpt lat="43.23844" lon="-1.49264">
        <ele>521.9</ele>
        <time>2022-09-04T09:20:49Z</time>
      </trkpt>
      <trkpt lat="43.23848" lon="-1.49265">
        <ele>516.6</ele>
        <time>2022-09-04T09:20:50Z</time>
      </trkpt>
      <trkpt lat="43.23849" lon="-1.49265">
        <ele>516.4</ele>
        <time>2022-09-04T09:20:51Z</time>
      </trkpt>
      <trkpt lat="43.23851" lon="-1.49265">
        <ele>516.3</ele>
        <time>2022-09-04T09:20:52Z</time>
      </trkpt>
      <trkpt lat="43.23852" lon="-1.49265">
        <ele>516.2</ele>
        <time>2022-09-04T09:20:53Z</time>
      </trkpt>
      <trkpt lat="43.23856" lon="-1.49264">
        <ele>516.1</ele>
        <time>2022-09-04T09:20:54Z</time>
      </trkpt>
      <trkpt lat="43.23858" lon="-1.49263">
        <ele>510.1</ele>
        <time>2022-09-04T09:20:55Z</time>
      </trkpt>
      <trkpt lat="43.23861" lon="-1.49263">
        <ele>510</ele>
        <time>2022-09-04T09:20:56Z</time>
      </trkpt>
      <trkpt lat="43.23863" lon="-1.49263">
        <ele>509.9</ele>
        <time>2022-09-04T09:20:57Z</time>
      </trkpt>
      <trkpt lat="43.23867" lon="-1.49264">
        <ele>509.8</ele>
        <time>2022-09-04T09:20:58Z</time>
      </trkpt>
      <trkpt lat="43.23868" lon="-1.49265">
        <ele>509.7</ele>
        <time>2022-09-04T09:20:59Z</time>
      </trkpt>
      <trkpt lat="43.23871" lon="-1.49265">
        <ele>504.5</ele>
        <time>2022-09-04T09:21:00Z</time>
      </trkpt>
      <trkpt lat="43.23872" lon="-1.49266">
        <ele>504.4</ele>
        <time>2022-09-04T09:21:01Z</time>
      </trkpt>
      <trkpt lat="43.23875" lon="-1.49266">
        <ele>504.2</ele>
        <time>2022-09-04T09:21:02Z</time>
      </trkpt>
      <trkpt lat="43.23876" lon="-1.49266">
        <ele>504.1</ele>
        <time>2022-09-04T09:21:03Z</time>
      </trkpt>
      <trkpt lat="43.23878" lon="-1.49267">
        <ele>504</ele>
        <time>2022-09-04T09:21:04Z</time>
      </trkpt>
      <trkpt lat="43.23879" lon="-1.49268">
        <ele>503.9</ele>
        <time>2022-09-04T09:21:05Z</time>
      </trkpt>
      <trkpt lat="43.23882" lon="-1.4927">
        <ele>503.8</ele>
        <time>2022-09-04T09:21:06Z</time>
      </trkpt>
      <trkpt lat="43.23883" lon="-1.4927">
        <ele>498.3</ele>
        <time>2022-09-04T09:21:07Z</time>
      </trkpt>
      <trkpt lat="43.23884" lon="-1.49271">
        <ele>498.2</ele>
        <time>2022-09-04T09:21:08Z</time>
      </trkpt>
      <trkpt lat="43.23886" lon="-1.49272">
        <ele>498</ele>
        <time>2022-09-04T09:21:09Z</time>
      </trkpt>
      <trkpt lat="43.23888" lon="-1.4927">
        <ele>497.9</ele>
        <time>2022-09-04T09:21:10Z</time>
      </trkpt>
      <trkpt lat="43.23889" lon="-1.4927">
        <ele>497.8</ele>
        <time>2022-09-04T09:21:11Z</time>
      </trkpt>
      <trkpt lat="43.2389" lon="-1.49268">
        <ele>497.7</ele>
        <time>2022-09-04T09:21:12Z</time>
      </trkpt>
      <trkpt lat="43.2389" lon="-1.49267">
        <ele>497.6</ele>
        <time>2022-09-04T09:21:13Z</time>
      </trkpt>
      <trkpt lat="43.2389" lon="-1.49265">
        <ele>497.5</ele>
        <time>2022-09-04T09:21:14Z</time>
      </trkpt>
      <trkpt lat="43.2389" lon="-1.49264">
        <ele>497.3</ele>
        <time>2022-09-04T09:21:15Z</time>
      </trkpt>
      <trkpt lat="43.23889" lon="-1.49261">
        <ele>497.2</ele>
        <time>2022-09-04T09:21:16Z</time>
      </trkpt>
      <trkpt lat="43.23888" lon="-1.49256">
        <ele>496.6</ele>
        <time>2022-09-04T09:21:17Z</time>
      </trkpt>
      <trkpt lat="43.23887" lon="-1.49254">
        <ele>496.5</ele>
        <time>2022-09-04T09:21:18Z</time>
      </trkpt>
      <trkpt lat="43.23887" lon="-1.4925">
        <ele>496.4</ele>
        <time>2022-09-04T09:21:19Z</time>
      </trkpt>
      <trkpt lat="43.23886" lon="-1.49247">
        <ele>496.2</ele>
        <time>2022-09-04T09:21:20Z</time>
      </trkpt>
      <trkpt lat="43.23885" lon="-1.49242">
        <ele>495.4</ele>
        <time>2022-09-04T09:21:21Z</time>
      </trkpt>
      <trkpt lat="43.23884" lon="-1.49241">
        <ele>495.3</ele>
        <time>2022-09-04T09:21:22Z</time>
      </trkpt>
      <trkpt lat="43.23884" lon="-1.4924">
        <ele>495.2</ele>
        <time>2022-09-04T09:21:23Z</time>
      </trkpt>
      <trkpt lat="43.23884" lon="-1.49238">
        <ele>495</ele>
        <time>2022-09-04T09:21:24Z</time>
      </trkpt>
      <trkpt lat="43.23884" lon="-1.49238">
        <ele>494.9</ele>
        <time>2022-09-04T09:21:25Z</time>
      </trkpt>
      <trkpt lat="43.23882" lon="-1.49232">
        <ele>500.8</ele>
        <time>2022-09-04T09:21:26Z</time>
      </trkpt>
      <trkpt lat="43.23881" lon="-1.4923">
        <ele>500.7</ele>
        <time>2022-09-04T09:21:27Z</time>
      </trkpt>
      <trkpt lat="43.23878" lon="-1.49223">
        <ele>500.3</ele>
        <time>2022-09-04T09:21:28Z</time>
      </trkpt>
      <trkpt lat="43.23876" lon="-1.49216">
        <ele>499.9</ele>
        <time>2022-09-04T09:21:29Z</time>
      </trkpt>
      <trkpt lat="43.23874" lon="-1.4921">
        <ele>499.5</ele>
        <time>2022-09-04T09:21:30Z</time>
      </trkpt>
      <trkpt lat="43.23875" lon="-1.49205">
        <ele>499.1</ele>
        <time>2022-09-04T09:21:31Z</time>
      </trkpt>
      <trkpt lat="43.23876" lon="-1.492">
        <ele>498.7</ele>
        <time>2022-09-04T09:21:32Z</time>
      </trkpt>
      <trkpt lat="43.23878" lon="-1.49195">
        <ele>498.2</ele>
        <time>2022-09-04T09:21:33Z</time>
      </trkpt>
      <trkpt lat="43.2388" lon="-1.49191">
        <ele>497.7</ele>
        <time>2022-09-04T09:21:34Z</time>
      </trkpt>
      <trkpt lat="43.23882" lon="-1.49186">
        <ele>497.2</ele>
        <time>2022-09-04T09:21:35Z</time>
      </trkpt>
      <trkpt lat="43.23883" lon="-1.4918">
        <ele>496.6</ele>
        <time>2022-09-04T09:21:36Z</time>
      </trkpt>
      <trkpt lat="43.23884" lon="-1.49174">
        <ele>495.8</ele>
        <time>2022-09-04T09:21:37Z</time>
      </trkpt>
      <trkpt lat="43.23886" lon="-1.49168">
        <ele>495</ele>
        <time>2022-09-04T09:21:38Z</time>
      </trkpt>
      <trkpt lat="43.23888" lon="-1.49162">
        <ele>494</ele>
        <time>2022-09-04T09:21:39Z</time>
      </trkpt>
      <trkpt lat="43.23889" lon="-1.49155">
        <ele>493</ele>
        <time>2022-09-04T09:21:40Z</time>
      </trkpt>
      <trkpt lat="43.23891" lon="-1.49149">
        <ele>491.9</ele>
        <time>2022-09-04T09:21:41Z</time>
      </trkpt>
      <trkpt lat="43.23893" lon="-1.49144">
        <ele>490.9</ele>
        <time>2022-09-04T09:21:42Z</time>
      </trkpt>
      <trkpt lat="43.23896" lon="-1.4914">
        <ele>490.1</ele>
        <time>2022-09-04T09:21:43Z</time>
      </trkpt>
      <trkpt lat="43.23898" lon="-1.49141">
        <ele>489.7</ele>
        <time>2022-09-04T09:21:44Z</time>
      </trkpt>
      <trkpt lat="43.23899" lon="-1.49142">
        <ele>489.6</ele>
        <time>2022-09-04T09:21:45Z</time>
      </trkpt>
      <trkpt lat="43.23901" lon="-1.49144">
        <ele>489.3</ele>
        <time>2022-09-04T09:21:46Z</time>
      </trkpt>
      <trkpt lat="43.23901" lon="-1.49145">
        <ele>489.2</ele>
        <time>2022-09-04T09:21:47Z</time>
      </trkpt>
      <trkpt lat="43.23902" lon="-1.49146">
        <ele>489.1</ele>
        <time>2022-09-04T09:21:48Z</time>
      </trkpt>
      <trkpt lat="43.23903" lon="-1.49147">
        <ele>488.9</ele>
        <time>2022-09-04T09:21:49Z</time>
      </trkpt>
      <trkpt lat="43.23903" lon="-1.49148">
        <ele>488.7</ele>
        <time>2022-09-04T09:21:50Z</time>
      </trkpt>
      <trkpt lat="43.23904" lon="-1.49148">
        <ele>488.6</ele>
        <time>2022-09-04T09:21:51Z</time>
      </trkpt>
      <trkpt lat="43.23904" lon="-1.49148">
        <ele>488.5</ele>
        <time>2022-09-04T09:21:52Z</time>
      </trkpt>
      <trkpt lat="43.23905" lon="-1.49148">
        <ele>488.4</ele>
        <time>2022-09-04T09:21:53Z</time>
      </trkpt>
      <trkpt lat="43.23906" lon="-1.49148">
        <ele>488.3</ele>
        <time>2022-09-04T09:21:54Z</time>
      </trkpt>
      <trkpt lat="43.23906" lon="-1.49149">
        <ele>488.2</ele>
        <time>2022-09-04T09:21:55Z</time>
      </trkpt>
      <trkpt lat="43.23906" lon="-1.49149">
        <ele>488.2</ele>
        <time>2022-09-04T09:21:56Z</time>
      </trkpt>
      <trkpt lat="43.23906" lon="-1.49149">
        <ele>488.2</ele>
        <time>2022-09-04T09:21:57Z</time>
      </trkpt>
      <trkpt lat="43.23906" lon="-1.49149">
        <ele>488.2</ele>
        <time>2022-09-04T09:21:58Z</time>
      </trkpt>
      <trkpt lat="43.23906" lon="-1.49149">
        <ele>488.2</ele>
        <time>2022-09-04T09:21:59Z</time>
      </trkpt>
      <trkpt lat="43.23906" lon="-1.49149">
        <ele>488.2</ele>
        <time>2022-09-04T09:22:00Z</time>
      </trkpt>
      <trkpt lat="43.23906" lon="-1.49149">
        <ele>488.2</ele>
        <time>2022-09-04T09:22:01Z</time>
      </trkpt>
      <trkpt lat="43.23906" lon="-1.49149">
        <ele>488.2</ele>
        <time>2022-09-04T09:22:02Z</time>
      </trkpt>
      <trkpt lat="43.23906" lon="-1.49149">
        <ele>488.2</ele>
        <time>2022-09-04T09:22:03Z</time>
      </trkpt>
      <trkpt lat="43.23906" lon="-1.49149">
        <ele>488.2</ele>
        <time>2022-09-04T09:22:04Z</time>
      </trkpt>
      <trkpt lat="43.23906" lon="-1.49149">
        <ele>488.2</ele>
        <time>2022-09-04T09:22:05Z</time>
      </trkpt>
      <trkpt lat="43.23906" lon="-1.49151">
        <ele>487.9</ele>
        <time>2022-09-04T09:22:56Z</time>
      </trkpt>
      <trkpt lat="43.23907" lon="-1.49151">
        <ele>487.7</ele>
        <time>2022-09-04T09:22:57Z</time>
      </trkpt>
      <trkpt lat="43.23909" lon="-1.49151">
        <ele>487.4</ele>
        <time>2022-09-04T09:22:58Z</time>
      </trkpt>
      <trkpt lat="43.23911" lon="-1.49151">
        <ele>487.1</ele>
        <time>2022-09-04T09:22:59Z</time>
      </trkpt>
      <trkpt lat="43.23912" lon="-1.49151">
        <ele>486.7</ele>
        <time>2022-09-04T09:23:00Z</time>
      </trkpt>
      <trkpt lat="43.23913" lon="-1.49149">
        <ele>486.4</ele>
        <time>2022-09-04T09:23:01Z</time>
      </trkpt>
      <trkpt lat="43.23912" lon="-1.49147">
        <ele>486.2</ele>
        <time>2022-09-04T09:23:02Z</time>
      </trkpt>
      <trkpt lat="43.23912" lon="-1.49146">
        <ele>486</ele>
        <time>2022-09-04T09:23:03Z</time>
      </trkpt>
      <trkpt lat="43.23911" lon="-1.49144">
        <ele>485.7</ele>
        <time>2022-09-04T09:23:04Z</time>
      </trkpt>
      <trkpt lat="43.2391" lon="-1.49139">
        <ele>484.9</ele>
        <time>2022-09-04T09:23:05Z</time>
      </trkpt>
      <trkpt lat="43.23909" lon="-1.49137">
        <ele>484.6</ele>
        <time>2022-09-04T09:23:06Z</time>
      </trkpt>
      <trkpt lat="43.23909" lon="-1.49133">
        <ele>484.1</ele>
        <time>2022-09-04T09:23:07Z</time>
      </trkpt>
      <trkpt lat="43.23907" lon="-1.49128">
        <ele>483.5</ele>
        <time>2022-09-04T09:23:08Z</time>
      </trkpt>
      <trkpt lat="43.23907" lon="-1.49127">
        <ele>483.3</ele>
        <time>2022-09-04T09:23:09Z</time>
      </trkpt>
      <trkpt lat="43.23905" lon="-1.49122">
        <ele>482.8</ele>
        <time>2022-09-04T09:23:10Z</time>
      </trkpt>
      <trkpt lat="43.23904" lon="-1.4912">
        <ele>482.6</ele>
        <time>2022-09-04T09:23:11Z</time>
      </trkpt>
      <trkpt lat="43.23902" lon="-1.49115">
        <ele>482.2</ele>
        <time>2022-09-04T09:23:12Z</time>
      </trkpt>
      <trkpt lat="43.239" lon="-1.49111">
        <ele>481.8</ele>
        <time>2022-09-04T09:23:13Z</time>
      </trkpt>
      <trkpt lat="43.23897" lon="-1.49108">
        <ele>481.4</ele>
        <time>2022-09-04T09:23:14Z</time>
      </trkpt>
      <trkpt lat="43.23895" lon="-1.49105">
        <ele>481.2</ele>
        <time>2022-09-04T09:23:15Z</time>
      </trkpt>
      <trkpt lat="43.23893" lon="-1.49102">
        <ele>481</ele>
        <time>2022-09-04T09:23:16Z</time>
      </trkpt>
      <trkpt lat="43.23891" lon="-1.49098">
        <ele>480.7</ele>
        <time>2022-09-04T09:23:17Z</time>
      </trkpt>
      <trkpt lat="43.2389" lon="-1.49097">
        <ele>480.6</ele>
        <time>2022-09-04T09:23:18Z</time>
      </trkpt>
      <trkpt lat="43.23889" lon="-1.49095">
        <ele>480.5</ele>
        <time>2022-09-04T09:23:19Z</time>
      </trkpt>
      <trkpt lat="43.23889" lon="-1.49093">
        <ele>480.4</ele>
        <time>2022-09-04T09:23:20Z</time>
      </trkpt>
      <trkpt lat="43.23892" lon="-1.49091">
        <ele>480.3</ele>
        <time>2022-09-04T09:23:21Z</time>
      </trkpt>
      <trkpt lat="43.23892" lon="-1.4909">
        <ele>480.2</ele>
        <time>2022-09-04T09:23:22Z</time>
      </trkpt>
      <trkpt lat="43.23895" lon="-1.49088">
        <ele>480</ele>
        <time>2022-09-04T09:23:23Z</time>
      </trkpt>
      <trkpt lat="43.23899" lon="-1.49086">
        <ele>479.8</ele>
        <time>2022-09-04T09:23:24Z</time>
      </trkpt>
      <trkpt lat="43.23904" lon="-1.49083">
        <ele>479.4</ele>
        <time>2022-09-04T09:23:25Z</time>
      </trkpt>
      <trkpt lat="43.23909" lon="-1.4908">
        <ele>478.9</ele>
        <time>2022-09-04T09:23:26Z</time>
      </trkpt>
      <trkpt lat="43.23914" lon="-1.49076">
        <ele>478.4</ele>
        <time>2022-09-04T09:23:27Z</time>
      </trkpt>
      <trkpt lat="43.2392" lon="-1.49072">
        <ele>477.7</ele>
        <time>2022-09-04T09:23:28Z</time>
      </trkpt>
      <trkpt lat="43.23925" lon="-1.4907">
        <ele>477.2</ele>
        <time>2022-09-04T09:23:29Z</time>
      </trkpt>
      <trkpt lat="43.23931" lon="-1.49068">
        <ele>476.7</ele>
        <time>2022-09-04T09:23:30Z</time>
      </trkpt>
      <trkpt lat="43.23935" lon="-1.49068">
        <ele>476.4</ele>
        <time>2022-09-04T09:23:31Z</time>
      </trkpt>
      <trkpt lat="43.2394" lon="-1.49068">
        <ele>476</ele>
        <time>2022-09-04T09:23:32Z</time>
      </trkpt>
      <trkpt lat="43.23946" lon="-1.49069">
        <ele>475.6</ele>
        <time>2022-09-04T09:23:33Z</time>
      </trkpt>
      <trkpt lat="43.23951" lon="-1.49071">
        <ele>475.3</ele>
        <time>2022-09-04T09:23:34Z</time>
      </trkpt>
      <trkpt lat="43.23956" lon="-1.49073">
        <ele>474.9</ele>
        <time>2022-09-04T09:23:35Z</time>
      </trkpt>
      <trkpt lat="43.2396" lon="-1.49076">
        <ele>474.7</ele>
        <time>2022-09-04T09:23:36Z</time>
      </trkpt>
      <trkpt lat="43.23963" lon="-1.49078">
        <ele>474.4</ele>
        <time>2022-09-04T09:23:37Z</time>
      </trkpt>
      <trkpt lat="43.23965" lon="-1.49081">
        <ele>474.2</ele>
        <time>2022-09-04T09:23:38Z</time>
      </trkpt>
      <trkpt lat="43.23969" lon="-1.49085">
        <ele>473.9</ele>
        <time>2022-09-04T09:23:39Z</time>
      </trkpt>
      <trkpt lat="43.2397" lon="-1.49087">
        <ele>473.8</ele>
        <time>2022-09-04T09:23:40Z</time>
      </trkpt>
      <trkpt lat="43.23973" lon="-1.49091">
        <ele>473.5</ele>
        <time>2022-09-04T09:23:41Z</time>
      </trkpt>
      <trkpt lat="43.23976" lon="-1.49094">
        <ele>473.1</ele>
        <time>2022-09-04T09:23:42Z</time>
      </trkpt>
      <trkpt lat="43.23979" lon="-1.49097">
        <ele>472.7</ele>
        <time>2022-09-04T09:23:43Z</time>
      </trkpt>
      <trkpt lat="43.23982" lon="-1.49101">
        <ele>472.4</ele>
        <time>2022-09-04T09:23:44Z</time>
      </trkpt>
      <trkpt lat="43.23986" lon="-1.49104">
        <ele>471.9</ele>
        <time>2022-09-04T09:23:45Z</time>
      </trkpt>
      <trkpt lat="43.23989" lon="-1.49108">
        <ele>471.5</ele>
        <time>2022-09-04T09:23:46Z</time>
      </trkpt>
      <trkpt lat="43.23992" lon="-1.49112">
        <ele>471</ele>
        <time>2022-09-04T09:23:47Z</time>
      </trkpt>
      <trkpt lat="43.23996" lon="-1.49115">
        <ele>470.5</ele>
        <time>2022-09-04T09:23:48Z</time>
      </trkpt>
      <trkpt lat="43.24" lon="-1.49119">
        <ele>470</ele>
        <time>2022-09-04T09:23:49Z</time>
      </trkpt>
      <trkpt lat="43.24005" lon="-1.49122">
        <ele>469.4</ele>
        <time>2022-09-04T09:23:50Z</time>
      </trkpt>
      <trkpt lat="43.24009" lon="-1.49126">
        <ele>468.8</ele>
        <time>2022-09-04T09:23:51Z</time>
      </trkpt>
      <trkpt lat="43.24014" lon="-1.4913">
        <ele>468.3</ele>
        <time>2022-09-04T09:23:52Z</time>
      </trkpt>
      <trkpt lat="43.24019" lon="-1.49134">
        <ele>467.7</ele>
        <time>2022-09-04T09:23:53Z</time>
      </trkpt>
      <trkpt lat="43.24023" lon="-1.49139">
        <ele>467.1</ele>
        <time>2022-09-04T09:23:54Z</time>
      </trkpt>
      <trkpt lat="43.24028" lon="-1.49143">
        <ele>466.6</ele>
        <time>2022-09-04T09:23:55Z</time>
      </trkpt>
      <trkpt lat="43.24033" lon="-1.49146">
        <ele>466.1</ele>
        <time>2022-09-04T09:23:56Z</time>
      </trkpt>
      <trkpt lat="43.24038" lon="-1.49147">
        <ele>465.7</ele>
        <time>2022-09-04T09:23:57Z</time>
      </trkpt>
      <trkpt lat="43.24044" lon="-1.49146">
        <ele>465.1</ele>
        <time>2022-09-04T09:23:58Z</time>
      </trkpt>
      <trkpt lat="43.2405" lon="-1.49145">
        <ele>464.5</ele>
        <time>2022-09-04T09:23:59Z</time>
      </trkpt>
      <trkpt lat="43.24057" lon="-1.49145">
        <ele>463.8</ele>
        <time>2022-09-04T09:24:00Z</time>
      </trkpt>
      <trkpt lat="43.24064" lon="-1.49146">
        <ele>463.1</ele>
        <time>2022-09-04T09:24:01Z</time>
      </trkpt>
      <trkpt lat="43.24071" lon="-1.49147">
        <ele>462.5</ele>
        <time>2022-09-04T09:24:02Z</time>
      </trkpt>
      <trkpt lat="43.24078" lon="-1.49147">
        <ele>461.9</ele>
        <time>2022-09-04T09:24:03Z</time>
      </trkpt>
      <trkpt lat="43.24085" lon="-1.49148">
        <ele>461.4</ele>
        <time>2022-09-04T09:24:04Z</time>
      </trkpt>
      <trkpt lat="43.24091" lon="-1.49149">
        <ele>461</ele>
        <time>2022-09-04T09:24:05Z</time>
      </trkpt>
      <trkpt lat="43.24096" lon="-1.49149">
        <ele>460.6</ele>
        <time>2022-09-04T09:24:06Z</time>
      </trkpt>
      <trkpt lat="43.24102" lon="-1.49148">
        <ele>460.3</ele>
        <time>2022-09-04T09:24:07Z</time>
      </trkpt>
      <trkpt lat="43.24106" lon="-1.49147">
        <ele>460</ele>
        <time>2022-09-04T09:24:08Z</time>
      </trkpt>
      <trkpt lat="43.24111" lon="-1.49146">
        <ele>459.6</ele>
        <time>2022-09-04T09:24:09Z</time>
      </trkpt>
      <trkpt lat="43.24114" lon="-1.49145">
        <ele>459.4</ele>
        <time>2022-09-04T09:24:10Z</time>
      </trkpt>
      <trkpt lat="43.24117" lon="-1.49144">
        <ele>459.1</ele>
        <time>2022-09-04T09:24:11Z</time>
      </trkpt>
      <trkpt lat="43.24119" lon="-1.49144">
        <ele>459</ele>
        <time>2022-09-04T09:24:12Z</time>
      </trkpt>
      <trkpt lat="43.24119" lon="-1.49146">
        <ele>458.9</ele>
        <time>2022-09-04T09:24:14Z</time>
      </trkpt>
      <trkpt lat="43.24118" lon="-1.49146">
        <ele>458.8</ele>
        <time>2022-09-04T09:24:15Z</time>
      </trkpt>
      <trkpt lat="43.24118" lon="-1.49147">
        <ele>458.8</ele>
        <time>2022-09-04T09:24:16Z</time>
      </trkpt>
      <trkpt lat="43.24118" lon="-1.49147">
        <ele>458.7</ele>
        <time>2022-09-04T09:24:17Z</time>
      </trkpt>
      <trkpt lat="43.24118" lon="-1.49148">
        <ele>458.7</ele>
        <time>2022-09-04T09:24:18Z</time>
      </trkpt>
      <trkpt lat="43.24119" lon="-1.49148">
        <ele>458.6</ele>
        <time>2022-09-04T09:24:19Z</time>
      </trkpt>
      <trkpt lat="43.24119" lon="-1.49148">
        <ele>458.6</ele>
        <time>2022-09-04T09:24:20Z</time>
      </trkpt>
      <trkpt lat="43.24119" lon="-1.49148">
        <ele>458.6</ele>
        <time>2022-09-04T09:24:21Z</time>
      </trkpt>
      <trkpt lat="43.24119" lon="-1.49148">
        <ele>458.6</ele>
        <time>2022-09-04T09:24:22Z</time>
      </trkpt>
      <trkpt lat="43.24119" lon="-1.49148">
        <ele>458.6</ele>
        <time>2022-09-04T09:24:23Z</time>
      </trkpt>
      <trkpt lat="43.2412" lon="-1.49148">
        <ele>458.5</ele>
        <time>2022-09-04T09:24:24Z</time>
      </trkpt>
      <trkpt lat="43.2412" lon="-1.49148">
        <ele>458.5</ele>
        <time>2022-09-04T09:24:25Z</time>
      </trkpt>
      <trkpt lat="43.2412" lon="-1.49149">
        <ele>458.5</ele>
        <time>2022-09-04T09:24:26Z</time>
      </trkpt>
      <trkpt lat="43.2412" lon="-1.49149">
        <ele>458.5</ele>
        <time>2022-09-04T09:24:27Z</time>
      </trkpt>
      <trkpt lat="43.2412" lon="-1.49149">
        <ele>458.5</ele>
        <time>2022-09-04T09:24:28Z</time>
      </trkpt>
      <trkpt lat="43.24121" lon="-1.49149">
        <ele>458.4</ele>
        <time>2022-09-04T09:24:29Z</time>
      </trkpt>
      <trkpt lat="43.24121" lon="-1.49149">
        <ele>458.4</ele>
        <time>2022-09-04T09:24:30Z</time>
      </trkpt>
      <trkpt lat="43.24121" lon="-1.49149">
        <ele>458.4</ele>
        <time>2022-09-04T09:24:31Z</time>
      </trkpt>
      <trkpt lat="43.24121" lon="-1.49149">
        <ele>458.4</ele>
        <time>2022-09-04T09:24:32Z</time>
      </trkpt>
      <trkpt lat="43.24121" lon="-1.49149">
        <ele>458.4</ele>
        <time>2022-09-04T09:24:33Z</time>
      </trkpt>
      <trkpt lat="43.24122" lon="-1.49149">
        <ele>458.3</ele>
        <time>2022-09-04T09:24:34Z</time>
      </trkpt>
      <trkpt lat="43.24122" lon="-1.49149">
        <ele>458.3</ele>
        <time>2022-09-04T09:24:35Z</time>
      </trkpt>
      <trkpt lat="43.24126" lon="-1.49149">
        <ele>457.9</ele>
        <time>2022-09-04T09:24:36Z</time>
      </trkpt>
      <trkpt lat="43.24128" lon="-1.49148">
        <ele>457.7</ele>
        <time>2022-09-04T09:24:37Z</time>
      </trkpt>
      <trkpt lat="43.24131" lon="-1.49147">
        <ele>457.4</ele>
        <time>2022-09-04T09:24:38Z</time>
      </trkpt>
      <trkpt lat="43.24135" lon="-1.49144">
        <ele>456.9</ele>
        <time>2022-09-04T09:24:39Z</time>
      </trkpt>
      <trkpt lat="43.24139" lon="-1.49141">
        <ele>456.4</ele>
        <time>2022-09-04T09:24:40Z</time>
      </trkpt>
      <trkpt lat="43.24142" lon="-1.49138">
        <ele>455.9</ele>
        <time>2022-09-04T09:24:41Z</time>
      </trkpt>
      <trkpt lat="43.24146" lon="-1.49135">
        <ele>455.5</ele>
        <time>2022-09-04T09:24:42Z</time>
      </trkpt>
      <trkpt lat="43.24149" lon="-1.49131">
        <ele>455.1</ele>
        <time>2022-09-04T09:24:43Z</time>
      </trkpt>
      <trkpt lat="43.24152" lon="-1.49128">
        <ele>454.7</ele>
        <time>2022-09-04T09:24:44Z</time>
      </trkpt>
      <trkpt lat="43.24155" lon="-1.49124">
        <ele>454.4</ele>
        <time>2022-09-04T09:24:45Z</time>
      </trkpt>
      <trkpt lat="43.24158" lon="-1.49121">
        <ele>454</ele>
        <time>2022-09-04T09:24:46Z</time>
      </trkpt>
      <trkpt lat="43.24161" lon="-1.49117">
        <ele>453.6</ele>
        <time>2022-09-04T09:24:47Z</time>
      </trkpt>
      <trkpt lat="43.24163" lon="-1.49114">
        <ele>453.3</ele>
        <time>2022-09-04T09:24:48Z</time>
      </trkpt>
      <trkpt lat="43.24166" lon="-1.49112">
        <ele>453.1</ele>
        <time>2022-09-04T09:24:49Z</time>
      </trkpt>
      <trkpt lat="43.24168" lon="-1.4911">
        <ele>452.8</ele>
        <time>2022-09-04T09:24:50Z</time>
      </trkpt>
      <trkpt lat="43.24171" lon="-1.49109">
        <ele>452.5</ele>
        <time>2022-09-04T09:24:51Z</time>
      </trkpt>
      <trkpt lat="43.24175" lon="-1.49108">
        <ele>452.2</ele>
        <time>2022-09-04T09:24:52Z</time>
      </trkpt>
      <trkpt lat="43.24178" lon="-1.49108">
        <ele>451.9</ele>
        <time>2022-09-04T09:24:53Z</time>
      </trkpt>
      <trkpt lat="43.24182" lon="-1.49108">
        <ele>451.6</ele>
        <time>2022-09-04T09:24:54Z</time>
      </trkpt>
      <trkpt lat="43.24186" lon="-1.49108">
        <ele>451.3</ele>
        <time>2022-09-04T09:24:55Z</time>
      </trkpt>
      <trkpt lat="43.2419" lon="-1.49109">
        <ele>451.1</ele>
        <time>2022-09-04T09:24:56Z</time>
      </trkpt>
      <trkpt lat="43.24194" lon="-1.49108">
        <ele>450.9</ele>
        <time>2022-09-04T09:24:57Z</time>
      </trkpt>
      <trkpt lat="43.24198" lon="-1.49107">
        <ele>450.7</ele>
        <time>2022-09-04T09:24:58Z</time>
      </trkpt>
      <trkpt lat="43.24201" lon="-1.49106">
        <ele>450.6</ele>
        <time>2022-09-04T09:24:59Z</time>
      </trkpt>
      <trkpt lat="43.24205" lon="-1.49107">
        <ele>450.6</ele>
        <time>2022-09-04T09:25:00Z</time>
      </trkpt>
      <trkpt lat="43.24206" lon="-1.49107">
        <ele>450.6</ele>
        <time>2022-09-04T09:25:01Z</time>
      </trkpt>
      <trkpt lat="43.24207" lon="-1.49108">
        <ele>450.5</ele>
        <time>2022-09-04T09:25:02Z</time>
      </trkpt>
      <trkpt lat="43.24207" lon="-1.49109">
        <ele>450.5</ele>
        <time>2022-09-04T09:25:03Z</time>
      </trkpt>
      <trkpt lat="43.24208" lon="-1.4911">
        <ele>450.5</ele>
        <time>2022-09-04T09:25:04Z</time>
      </trkpt>
      <trkpt lat="43.24208" lon="-1.4911">
        <ele>450.5</ele>
        <time>2022-09-04T09:25:05Z</time>
      </trkpt>
      <trkpt lat="43.24209" lon="-1.49111">
        <ele>450.5</ele>
        <time>2022-09-04T09:25:06Z</time>
      </trkpt>
      <trkpt lat="43.24209" lon="-1.49111">
        <ele>450.5</ele>
        <time>2022-09-04T09:25:07Z</time>
      </trkpt>
      <trkpt lat="43.2421" lon="-1.49111">
        <ele>450.5</ele>
        <time>2022-09-04T09:25:08Z</time>
      </trkpt>
      <trkpt lat="43.2421" lon="-1.49111">
        <ele>450.5</ele>
        <time>2022-09-04T09:25:09Z</time>
      </trkpt>
      <trkpt lat="43.2421" lon="-1.49112">
        <ele>450.5</ele>
        <time>2022-09-04T09:25:10Z</time>
      </trkpt>
      <trkpt lat="43.24211" lon="-1.49112">
        <ele>450.5</ele>
        <time>2022-09-04T09:25:11Z</time>
      </trkpt>
      <trkpt lat="43.24211" lon="-1.49112">
        <ele>450.5</ele>
        <time>2022-09-04T09:25:13Z</time>
      </trkpt>
      <trkpt lat="43.24211" lon="-1.49112">
        <ele>450.5</ele>
        <time>2022-09-04T09:25:14Z</time>
      </trkpt>
      <trkpt lat="43.24212" lon="-1.49113">
        <ele>450.5</ele>
        <time>2022-09-04T09:25:15Z</time>
      </trkpt>
      <trkpt lat="43.24212" lon="-1.49113">
        <ele>450.5</ele>
        <time>2022-09-04T09:25:16Z</time>
      </trkpt>
      <trkpt lat="43.24214" lon="-1.49115">
        <ele>450.5</ele>
        <time>2022-09-04T09:25:17Z</time>
      </trkpt>
      <trkpt lat="43.24216" lon="-1.49118">
        <ele>450.5</ele>
        <time>2022-09-04T09:25:18Z</time>
      </trkpt>
      <trkpt lat="43.24218" lon="-1.49122">
        <ele>450.4</ele>
        <time>2022-09-04T09:25:19Z</time>
      </trkpt>
      <trkpt lat="43.2422" lon="-1.49126">
        <ele>450.3</ele>
        <time>2022-09-04T09:25:20Z</time>
      </trkpt>
      <trkpt lat="43.24221" lon="-1.4913">
        <ele>450.3</ele>
        <time>2022-09-04T09:25:21Z</time>
      </trkpt>
      <trkpt lat="43.24223" lon="-1.49135">
        <ele>450.2</ele>
        <time>2022-09-04T09:25:22Z</time>
      </trkpt>
      <trkpt lat="43.24224" lon="-1.49137">
        <ele>450.2</ele>
        <time>2022-09-04T09:25:23Z</time>
      </trkpt>
      <trkpt lat="43.24226" lon="-1.49142">
        <ele>450.2</ele>
        <time>2022-09-04T09:25:24Z</time>
      </trkpt>
      <trkpt lat="43.24227" lon="-1.49143">
        <ele>450.2</ele>
        <time>2022-09-04T09:25:25Z</time>
      </trkpt>
      <trkpt lat="43.24229" lon="-1.49148">
        <ele>450.1</ele>
        <time>2022-09-04T09:25:26Z</time>
      </trkpt>
      <trkpt lat="43.24231" lon="-1.49153">
        <ele>450.2</ele>
        <time>2022-09-04T09:25:27Z</time>
      </trkpt>
      <trkpt lat="43.24233" lon="-1.49158">
        <ele>450.4</ele>
        <time>2022-09-04T09:25:28Z</time>
      </trkpt>
      <trkpt lat="43.24234" lon="-1.49165">
        <ele>450.6</ele>
        <time>2022-09-04T09:25:29Z</time>
      </trkpt>
      <trkpt lat="43.24234" lon="-1.49171">
        <ele>450.9</ele>
        <time>2022-09-04T09:25:30Z</time>
      </trkpt>
      <trkpt lat="43.24235" lon="-1.49177">
        <ele>451.1</ele>
        <time>2022-09-04T09:25:31Z</time>
      </trkpt>
      <trkpt lat="43.24235" lon="-1.49182">
        <ele>451.4</ele>
        <time>2022-09-04T09:25:32Z</time>
      </trkpt>
      <trkpt lat="43.24235" lon="-1.49187">
        <ele>451.6</ele>
        <time>2022-09-04T09:25:33Z</time>
      </trkpt>
      <trkpt lat="43.24235" lon="-1.49193">
        <ele>451.9</ele>
        <time>2022-09-04T09:25:34Z</time>
      </trkpt>
      <trkpt lat="43.24235" lon="-1.49197">
        <ele>452.2</ele>
        <time>2022-09-04T09:25:35Z</time>
      </trkpt>
      <trkpt lat="43.24235" lon="-1.49202">
        <ele>452.5</ele>
        <time>2022-09-04T09:25:36Z</time>
      </trkpt>
      <trkpt lat="43.24235" lon="-1.49211">
        <ele>452.9</ele>
        <time>2022-09-04T09:25:38Z</time>
      </trkpt>
      <trkpt lat="43.24236" lon="-1.49215">
        <ele>453.1</ele>
        <time>2022-09-04T09:25:39Z</time>
      </trkpt>
      <trkpt lat="43.24237" lon="-1.4922">
        <ele>453.4</ele>
        <time>2022-09-04T09:25:40Z</time>
      </trkpt>
      <trkpt lat="43.24237" lon="-1.49222">
        <ele>453.5</ele>
        <time>2022-09-04T09:25:41Z</time>
      </trkpt>
      <trkpt lat="43.24237" lon="-1.49226">
        <ele>453.7</ele>
        <time>2022-09-04T09:25:42Z</time>
      </trkpt>
      <trkpt lat="43.24237" lon="-1.4923">
        <ele>453.9</ele>
        <time>2022-09-04T09:25:43Z</time>
      </trkpt>
      <trkpt lat="43.24238" lon="-1.49235">
        <ele>454.1</ele>
        <time>2022-09-04T09:25:44Z</time>
      </trkpt>
      <trkpt lat="43.24239" lon="-1.49237">
        <ele>454.2</ele>
        <time>2022-09-04T09:25:45Z</time>
      </trkpt>
      <trkpt lat="43.2424" lon="-1.49241">
        <ele>454.4</ele>
        <time>2022-09-04T09:25:46Z</time>
      </trkpt>
      <trkpt lat="43.2424" lon="-1.49245">
        <ele>454.6</ele>
        <time>2022-09-04T09:25:47Z</time>
      </trkpt>
      <trkpt lat="43.24242" lon="-1.49248">
        <ele>454.7</ele>
        <time>2022-09-04T09:25:48Z</time>
      </trkpt>
      <trkpt lat="43.24243" lon="-1.49249">
        <ele>454.8</ele>
        <time>2022-09-04T09:25:49Z</time>
      </trkpt>
      <trkpt lat="43.24245" lon="-1.49252">
        <ele>455</ele>
        <time>2022-09-04T09:25:50Z</time>
      </trkpt>
      <trkpt lat="43.24246" lon="-1.49253">
        <ele>455</ele>
        <time>2022-09-04T09:25:51Z</time>
      </trkpt>
      <trkpt lat="43.24249" lon="-1.49255">
        <ele>455.2</ele>
        <time>2022-09-04T09:25:52Z</time>
      </trkpt>
      <trkpt lat="43.2425" lon="-1.49256">
        <ele>455.2</ele>
        <time>2022-09-04T09:25:53Z</time>
      </trkpt>
      <trkpt lat="43.24252" lon="-1.49259">
        <ele>455.4</ele>
        <time>2022-09-04T09:25:54Z</time>
      </trkpt>
      <trkpt lat="43.24253" lon="-1.4926">
        <ele>455.5</ele>
        <time>2022-09-04T09:25:55Z</time>
      </trkpt>
      <trkpt lat="43.24256" lon="-1.49262">
        <ele>455.6</ele>
        <time>2022-09-04T09:25:56Z</time>
      </trkpt>
      <trkpt lat="43.24257" lon="-1.49262">
        <ele>455.7</ele>
        <time>2022-09-04T09:25:57Z</time>
      </trkpt>
      <trkpt lat="43.2426" lon="-1.49264">
        <ele>455.9</ele>
        <time>2022-09-04T09:25:58Z</time>
      </trkpt>
      <trkpt lat="43.24261" lon="-1.49265">
        <ele>456</ele>
        <time>2022-09-04T09:25:59Z</time>
      </trkpt>
      <trkpt lat="43.24263" lon="-1.49267">
        <ele>456.1</ele>
        <time>2022-09-04T09:26:00Z</time>
      </trkpt>
      <trkpt lat="43.24267" lon="-1.4927">
        <ele>456.4</ele>
        <time>2022-09-04T09:26:01Z</time>
      </trkpt>
      <trkpt lat="43.24268" lon="-1.4927">
        <ele>456.5</ele>
        <time>2022-09-04T09:26:02Z</time>
      </trkpt>
      <trkpt lat="43.24272" lon="-1.49272">
        <ele>456.7</ele>
        <time>2022-09-04T09:26:03Z</time>
      </trkpt>
      <trkpt lat="43.24273" lon="-1.49273">
        <ele>456.8</ele>
        <time>2022-09-04T09:26:04Z</time>
      </trkpt>
      <trkpt lat="43.24275" lon="-1.49275">
        <ele>457</ele>
        <time>2022-09-04T09:26:05Z</time>
      </trkpt>
      <trkpt lat="43.24277" lon="-1.49277">
        <ele>457.3</ele>
        <time>2022-09-04T09:26:06Z</time>
      </trkpt>
      <trkpt lat="43.24279" lon="-1.49281">
        <ele>457.5</ele>
        <time>2022-09-04T09:26:07Z</time>
      </trkpt>
      <trkpt lat="43.24282" lon="-1.49288">
        <ele>458.1</ele>
        <time>2022-09-04T09:26:09Z</time>
      </trkpt>
      <trkpt lat="43.24283" lon="-1.49293">
        <ele>458.5</ele>
        <time>2022-09-04T09:26:10Z</time>
      </trkpt>
      <trkpt lat="43.24283" lon="-1.49295">
        <ele>458.7</ele>
        <time>2022-09-04T09:26:11Z</time>
      </trkpt>
      <trkpt lat="43.24283" lon="-1.49299">
        <ele>459</ele>
        <time>2022-09-04T09:26:12Z</time>
      </trkpt>
      <trkpt lat="43.24283" lon="-1.49303">
        <ele>459.4</ele>
        <time>2022-09-04T09:26:13Z</time>
      </trkpt>
      <trkpt lat="43.24282" lon="-1.49306">
        <ele>459.8</ele>
        <time>2022-09-04T09:26:14Z</time>
      </trkpt>
      <trkpt lat="43.24282" lon="-1.49315">
        <ele>460.6</ele>
        <time>2022-09-04T09:26:16Z</time>
      </trkpt>
      <trkpt lat="43.24282" lon="-1.49316">
        <ele>460.8</ele>
        <time>2022-09-04T09:26:17Z</time>
      </trkpt>
      <trkpt lat="43.24282" lon="-1.49322">
        <ele>461.4</ele>
        <time>2022-09-04T09:26:19Z</time>
      </trkpt>
      <trkpt lat="43.24281" lon="-1.49328">
        <ele>462</ele>
        <time>2022-09-04T09:26:20Z</time>
      </trkpt>
      <trkpt lat="43.24281" lon="-1.4933">
        <ele>462.2</ele>
        <time>2022-09-04T09:26:21Z</time>
      </trkpt>
      <trkpt lat="43.2428" lon="-1.49334">
        <ele>462.6</ele>
        <time>2022-09-04T09:26:22Z</time>
      </trkpt>
      <trkpt lat="43.2428" lon="-1.49337">
        <ele>463</ele>
        <time>2022-09-04T09:26:23Z</time>
      </trkpt>
      <trkpt lat="43.24281" lon="-1.49342">
        <ele>463.5</ele>
        <time>2022-09-04T09:26:25Z</time>
      </trkpt>
      <trkpt lat="43.24281" lon="-1.49344">
        <ele>463.8</ele>
        <time>2022-09-04T09:26:26Z</time>
      </trkpt>
      <trkpt lat="43.24281" lon="-1.49345">
        <ele>463.9</ele>
        <time>2022-09-04T09:26:27Z</time>
      </trkpt>
      <trkpt lat="43.24281" lon="-1.49346">
        <ele>464</ele>
        <time>2022-09-04T09:26:28Z</time>
      </trkpt>
      <trkpt lat="43.2428" lon="-1.49347">
        <ele>464.1</ele>
        <time>2022-09-04T09:26:29Z</time>
      </trkpt>
      <trkpt lat="43.24279" lon="-1.49347">
        <ele>464.2</ele>
        <time>2022-09-04T09:26:30Z</time>
      </trkpt>
      <trkpt lat="43.24279" lon="-1.49346">
        <ele>464.3</ele>
        <time>2022-09-04T09:26:31Z</time>
      </trkpt>
      <trkpt lat="43.24279" lon="-1.49345">
        <ele>464.4</ele>
        <time>2022-09-04T09:26:32Z</time>
      </trkpt>
      <trkpt lat="43.24279" lon="-1.49344">
        <ele>464.5</ele>
        <time>2022-09-04T09:26:33Z</time>
      </trkpt>
      <trkpt lat="43.2428" lon="-1.49343">
        <ele>464.6</ele>
        <time>2022-09-04T09:26:34Z</time>
      </trkpt>
      <trkpt lat="43.24281" lon="-1.49342">
        <ele>464.8</ele>
        <time>2022-09-04T09:26:35Z</time>
      </trkpt>
      <trkpt lat="43.24282" lon="-1.49341">
        <ele>465</ele>
        <time>2022-09-04T09:26:36Z</time>
      </trkpt>
      <trkpt lat="43.24283" lon="-1.4934">
        <ele>465.1</ele>
        <time>2022-09-04T09:26:37Z</time>
      </trkpt>
      <trkpt lat="43.24285" lon="-1.49338">
        <ele>465.3</ele>
        <time>2022-09-04T09:26:38Z</time>
      </trkpt>
      <trkpt lat="43.24286" lon="-1.49336">
        <ele>465.6</ele>
        <time>2022-09-04T09:26:39Z</time>
      </trkpt>
      <trkpt lat="43.24287" lon="-1.49335">
        <ele>465.7</ele>
        <time>2022-09-04T09:26:40Z</time>
      </trkpt>
      <trkpt lat="43.24288" lon="-1.49334">
        <ele>465.8</ele>
        <time>2022-09-04T09:26:41Z</time>
      </trkpt>
      <trkpt lat="43.24288" lon="-1.49333">
        <ele>465.9</ele>
        <time>2022-09-04T09:26:42Z</time>
      </trkpt>
      <trkpt lat="43.24289" lon="-1.49332">
        <ele>466</ele>
        <time>2022-09-04T09:26:43Z</time>
      </trkpt>
      <trkpt lat="43.2429" lon="-1.4933">
        <ele>466.2</ele>
        <time>2022-09-04T09:26:44Z</time>
      </trkpt>
      <trkpt lat="43.2429" lon="-1.49328">
        <ele>466.3</ele>
        <time>2022-09-04T09:26:45Z</time>
      </trkpt>
      <trkpt lat="43.24292" lon="-1.49326">
        <ele>466.6</ele>
        <time>2022-09-04T09:26:46Z</time>
      </trkpt>
      <trkpt lat="43.24293" lon="-1.49325">
        <ele>466.7</ele>
        <time>2022-09-04T09:26:47Z</time>
      </trkpt>
      <trkpt lat="43.24293" lon="-1.49324">
        <ele>466.8</ele>
        <time>2022-09-04T09:26:48Z</time>
      </trkpt>
      <trkpt lat="43.24294" lon="-1.49324">
        <ele>466.9</ele>
        <time>2022-09-04T09:26:49Z</time>
      </trkpt>
      <trkpt lat="43.24296" lon="-1.4932">
        <ele>467.3</ele>
        <time>2022-09-04T09:26:50Z</time>
      </trkpt>
      <trkpt lat="43.24297" lon="-1.49318">
        <ele>467.4</ele>
        <time>2022-09-04T09:26:51Z</time>
      </trkpt>
      <trkpt lat="43.24299" lon="-1.49314">
        <ele>467.8</ele>
        <time>2022-09-04T09:26:52Z</time>
      </trkpt>
      <trkpt lat="43.243" lon="-1.49313">
        <ele>468</ele>
        <time>2022-09-04T09:26:53Z</time>
      </trkpt>
      <trkpt lat="43.24302" lon="-1.49311">
        <ele>468.3</ele>
        <time>2022-09-04T09:26:54Z</time>
      </trkpt>
      <trkpt lat="43.24303" lon="-1.4931">
        <ele>468.5</ele>
        <time>2022-09-04T09:26:55Z</time>
      </trkpt>
      <trkpt lat="43.24306" lon="-1.49308">
        <ele>468.8</ele>
        <time>2022-09-04T09:26:56Z</time>
      </trkpt>
      <trkpt lat="43.24308" lon="-1.49304">
        <ele>469.2</ele>
        <time>2022-09-04T09:26:57Z</time>
      </trkpt>
      <trkpt lat="43.24309" lon="-1.49303">
        <ele>469.3</ele>
        <time>2022-09-04T09:26:58Z</time>
      </trkpt>
      <trkpt lat="43.24312" lon="-1.493">
        <ele>469.7</ele>
        <time>2022-09-04T09:26:59Z</time>
      </trkpt>
      <trkpt lat="43.24313" lon="-1.49298">
        <ele>469.8</ele>
        <time>2022-09-04T09:27:00Z</time>
      </trkpt>
      <trkpt lat="43.24315" lon="-1.49296">
        <ele>470.1</ele>
        <time>2022-09-04T09:27:01Z</time>
      </trkpt>
      <trkpt lat="43.24318" lon="-1.49292">
        <ele>470.4</ele>
        <time>2022-09-04T09:27:02Z</time>
      </trkpt>
      <trkpt lat="43.24318" lon="-1.4929">
        <ele>470.5</ele>
        <time>2022-09-04T09:27:03Z</time>
      </trkpt>
      <trkpt lat="43.2432" lon="-1.49288">
        <ele>470.7</ele>
        <time>2022-09-04T09:27:04Z</time>
      </trkpt>
      <trkpt lat="43.2432" lon="-1.49286">
        <ele>470.8</ele>
        <time>2022-09-04T09:27:05Z</time>
      </trkpt>
      <trkpt lat="43.2432" lon="-1.49284">
        <ele>470.9</ele>
        <time>2022-09-04T09:27:06Z</time>
      </trkpt>
      <trkpt lat="43.24322" lon="-1.49282">
        <ele>471.1</ele>
        <time>2022-09-04T09:27:07Z</time>
      </trkpt>
      <trkpt lat="43.24322" lon="-1.4928">
        <ele>471.2</ele>
        <time>2022-09-04T09:27:08Z</time>
      </trkpt>
      <trkpt lat="43.24323" lon="-1.49278">
        <ele>471.4</ele>
        <time>2022-09-04T09:27:09Z</time>
      </trkpt>
      <trkpt lat="43.24325" lon="-1.49275">
        <ele>471.6</ele>
        <time>2022-09-04T09:27:10Z</time>
      </trkpt>
      <trkpt lat="43.24325" lon="-1.49274">
        <ele>471.7</ele>
        <time>2022-09-04T09:27:11Z</time>
      </trkpt>
      <trkpt lat="43.24326" lon="-1.49273">
        <ele>471.8</ele>
        <time>2022-09-04T09:27:12Z</time>
      </trkpt>
      <trkpt lat="43.24326" lon="-1.49272">
        <ele>471.9</ele>
        <time>2022-09-04T09:27:13Z</time>
      </trkpt>
      <trkpt lat="43.24328" lon="-1.49267">
        <ele>472.3</ele>
        <time>2022-09-04T09:27:14Z</time>
      </trkpt>
      <trkpt lat="43.24329" lon="-1.49265">
        <ele>472.4</ele>
        <time>2022-09-04T09:27:15Z</time>
      </trkpt>
      <trkpt lat="43.2433" lon="-1.4926">
        <ele>472.8</ele>
        <time>2022-09-04T09:27:16Z</time>
      </trkpt>
      <trkpt lat="43.2433" lon="-1.49258">
        <ele>473</ele>
        <time>2022-09-04T09:27:17Z</time>
      </trkpt>
      <trkpt lat="43.24331" lon="-1.49254">
        <ele>473.4</ele>
        <time>2022-09-04T09:27:18Z</time>
      </trkpt>
      <trkpt lat="43.24331" lon="-1.49252">
        <ele>473.6</ele>
        <time>2022-09-04T09:27:19Z</time>
      </trkpt>
      <trkpt lat="43.24333" lon="-1.49248">
        <ele>474</ele>
        <time>2022-09-04T09:27:20Z</time>
      </trkpt>
      <trkpt lat="43.24334" lon="-1.49247">
        <ele>474.2</ele>
        <time>2022-09-04T09:27:21Z</time>
      </trkpt>
      <trkpt lat="43.24336" lon="-1.49244">
        <ele>474.6</ele>
        <time>2022-09-04T09:27:22Z</time>
      </trkpt>
      <trkpt lat="43.24338" lon="-1.49241">
        <ele>475</ele>
        <time>2022-09-04T09:27:23Z</time>
      </trkpt>
      <trkpt lat="43.2434" lon="-1.49239">
        <ele>475.4</ele>
        <time>2022-09-04T09:27:24Z</time>
      </trkpt>
      <trkpt lat="43.24343" lon="-1.49236">
        <ele>475.7</ele>
        <time>2022-09-04T09:27:25Z</time>
      </trkpt>
      <trkpt lat="43.24345" lon="-1.49233">
        <ele>476.1</ele>
        <time>2022-09-04T09:27:26Z</time>
      </trkpt>
      <trkpt lat="43.24347" lon="-1.4923">
        <ele>476.4</ele>
        <time>2022-09-04T09:27:27Z</time>
      </trkpt>
      <trkpt lat="43.24348" lon="-1.49227">
        <ele>476.8</ele>
        <time>2022-09-04T09:27:28Z</time>
      </trkpt>
      <trkpt lat="43.2435" lon="-1.49224">
        <ele>477.1</ele>
        <time>2022-09-04T09:27:29Z</time>
      </trkpt>
      <trkpt lat="43.24353" lon="-1.49223">
        <ele>477.3</ele>
        <time>2022-09-04T09:27:30Z</time>
      </trkpt>
      <trkpt lat="43.24356" lon="-1.49221">
        <ele>477.6</ele>
        <time>2022-09-04T09:27:31Z</time>
      </trkpt>
      <trkpt lat="43.2436" lon="-1.4922">
        <ele>477.9</ele>
        <time>2022-09-04T09:27:32Z</time>
      </trkpt>
      <trkpt lat="43.24363" lon="-1.49219">
        <ele>478.1</ele>
        <time>2022-09-04T09:27:33Z</time>
      </trkpt>
      <trkpt lat="43.24366" lon="-1.49217">
        <ele>478.3</ele>
        <time>2022-09-04T09:27:34Z</time>
      </trkpt>
      <trkpt lat="43.24369" lon="-1.49215">
        <ele>478.6</ele>
        <time>2022-09-04T09:27:35Z</time>
      </trkpt>
      <trkpt lat="43.24372" lon="-1.49214">
        <ele>478.8</ele>
        <time>2022-09-04T09:27:36Z</time>
      </trkpt>
      <trkpt lat="43.24375" lon="-1.49212">
        <ele>479</ele>
        <time>2022-09-04T09:27:37Z</time>
      </trkpt>
      <trkpt lat="43.24379" lon="-1.4921">
        <ele>479.2</ele>
        <time>2022-09-04T09:27:38Z</time>
      </trkpt>
      <trkpt lat="43.24381" lon="-1.49209">
        <ele>479.4</ele>
        <time>2022-09-04T09:27:39Z</time>
      </trkpt>
      <trkpt lat="43.24385" lon="-1.49208">
        <ele>479.6</ele>
        <time>2022-09-04T09:27:40Z</time>
      </trkpt>
      <trkpt lat="43.24388" lon="-1.49206">
        <ele>479.8</ele>
        <time>2022-09-04T09:27:41Z</time>
      </trkpt>
      <trkpt lat="43.24391" lon="-1.49206">
        <ele>480</ele>
        <time>2022-09-04T09:27:42Z</time>
      </trkpt>
      <trkpt lat="43.24394" lon="-1.49205">
        <ele>480.1</ele>
        <time>2022-09-04T09:27:43Z</time>
      </trkpt>
      <trkpt lat="43.24396" lon="-1.49204">
        <ele>480.3</ele>
        <time>2022-09-04T09:27:44Z</time>
      </trkpt>
      <trkpt lat="43.244" lon="-1.49204">
        <ele>480.5</ele>
        <time>2022-09-04T09:27:45Z</time>
      </trkpt>
      <trkpt lat="43.24401" lon="-1.49204">
        <ele>480.6</ele>
        <time>2022-09-04T09:27:46Z</time>
      </trkpt>
      <trkpt lat="43.24404" lon="-1.49202">
        <ele>480.7</ele>
        <time>2022-09-04T09:27:47Z</time>
      </trkpt>
      <trkpt lat="43.24405" lon="-1.49201">
        <ele>480.8</ele>
        <time>2022-09-04T09:27:48Z</time>
      </trkpt>
      <trkpt lat="43.24407" lon="-1.49198">
        <ele>480.9</ele>
        <time>2022-09-04T09:27:49Z</time>
      </trkpt>
      <trkpt lat="43.2441" lon="-1.49195">
        <ele>481.1</ele>
        <time>2022-09-04T09:27:50Z</time>
      </trkpt>
      <trkpt lat="43.24411" lon="-1.49195">
        <ele>481.1</ele>
        <time>2022-09-04T09:27:51Z</time>
      </trkpt>
      <trkpt lat="43.24415" lon="-1.49192">
        <ele>481.3</ele>
        <time>2022-09-04T09:27:52Z</time>
      </trkpt>
      <trkpt lat="43.24416" lon="-1.49192">
        <ele>481.3</ele>
        <time>2022-09-04T09:27:53Z</time>
      </trkpt>
      <trkpt lat="43.24419" lon="-1.4919">
        <ele>481.4</ele>
        <time>2022-09-04T09:27:54Z</time>
      </trkpt>
      <trkpt lat="43.24422" lon="-1.49189">
        <ele>481.5</ele>
        <time>2022-09-04T09:27:55Z</time>
      </trkpt>
      <trkpt lat="43.24426" lon="-1.49188">
        <ele>481.7</ele>
        <time>2022-09-04T09:27:56Z</time>
      </trkpt>
      <trkpt lat="43.24427" lon="-1.49187">
        <ele>481.7</ele>
        <time>2022-09-04T09:27:57Z</time>
      </trkpt>
      <trkpt lat="43.2443" lon="-1.49185">
        <ele>481.8</ele>
        <time>2022-09-04T09:27:58Z</time>
      </trkpt>
      <trkpt lat="43.24433" lon="-1.49183">
        <ele>481.9</ele>
        <time>2022-09-04T09:27:59Z</time>
      </trkpt>
      <trkpt lat="43.24436" lon="-1.49181">
        <ele>482</ele>
        <time>2022-09-04T09:28:00Z</time>
      </trkpt>
      <trkpt lat="43.2444" lon="-1.49179">
        <ele>482.1</ele>
        <time>2022-09-04T09:28:01Z</time>
      </trkpt>
      <trkpt lat="43.24442" lon="-1.49178">
        <ele>482.2</ele>
        <time>2022-09-04T09:28:02Z</time>
      </trkpt>
      <trkpt lat="43.24445" lon="-1.49176">
        <ele>482.3</ele>
        <time>2022-09-04T09:28:03Z</time>
      </trkpt>
      <trkpt lat="43.24449" lon="-1.49175">
        <ele>482.4</ele>
        <time>2022-09-04T09:28:04Z</time>
      </trkpt>
      <trkpt lat="43.24451" lon="-1.49173">
        <ele>482.4</ele>
        <time>2022-09-04T09:28:05Z</time>
      </trkpt>
      <trkpt lat="43.24454" lon="-1.49171">
        <ele>482.5</ele>
        <time>2022-09-04T09:28:06Z</time>
      </trkpt>
      <trkpt lat="43.24455" lon="-1.49171">
        <ele>482.6</ele>
        <time>2022-09-04T09:28:07Z</time>
      </trkpt>
      <trkpt lat="43.24459" lon="-1.49169">
        <ele>482.7</ele>
        <time>2022-09-04T09:28:08Z</time>
      </trkpt>
      <trkpt lat="43.2446" lon="-1.49169">
        <ele>482.7</ele>
        <time>2022-09-04T09:28:09Z</time>
      </trkpt>
      <trkpt lat="43.24463" lon="-1.49168">
        <ele>482.8</ele>
        <time>2022-09-04T09:28:10Z</time>
      </trkpt>
      <trkpt lat="43.24466" lon="-1.49166">
        <ele>483</ele>
        <time>2022-09-04T09:28:11Z</time>
      </trkpt>
      <trkpt lat="43.24468" lon="-1.49164">
        <ele>483.1</ele>
        <time>2022-09-04T09:28:12Z</time>
      </trkpt>
      <trkpt lat="43.24471" lon="-1.49162">
        <ele>483.2</ele>
        <time>2022-09-04T09:28:13Z</time>
      </trkpt>
      <trkpt lat="43.24472" lon="-1.4916">
        <ele>483.3</ele>
        <time>2022-09-04T09:28:14Z</time>
      </trkpt>
      <trkpt lat="43.24477" lon="-1.49156">
        <ele>483.7</ele>
        <time>2022-09-04T09:28:16Z</time>
      </trkpt>
      <trkpt lat="43.24479" lon="-1.49153">
        <ele>483.9</ele>
        <time>2022-09-04T09:28:17Z</time>
      </trkpt>
      <trkpt lat="43.2448" lon="-1.49152">
        <ele>483.9</ele>
        <time>2022-09-04T09:28:18Z</time>
      </trkpt>
      <trkpt lat="43.24484" lon="-1.49149">
        <ele>484.2</ele>
        <time>2022-09-04T09:28:19Z</time>
      </trkpt>
      <trkpt lat="43.24485" lon="-1.49148">
        <ele>484.3</ele>
        <time>2022-09-04T09:28:20Z</time>
      </trkpt>
      <trkpt lat="43.24487" lon="-1.49146">
        <ele>484.5</ele>
        <time>2022-09-04T09:28:21Z</time>
      </trkpt>
      <trkpt lat="43.24491" lon="-1.49143">
        <ele>484.8</ele>
        <time>2022-09-04T09:28:22Z</time>
      </trkpt>
      <trkpt lat="43.24492" lon="-1.49142">
        <ele>484.9</ele>
        <time>2022-09-04T09:28:23Z</time>
      </trkpt>
      <trkpt lat="43.24494" lon="-1.4914">
        <ele>485.1</ele>
        <time>2022-09-04T09:28:24Z</time>
      </trkpt>
      <trkpt lat="43.24497" lon="-1.49139">
        <ele>485.3</ele>
        <time>2022-09-04T09:28:25Z</time>
      </trkpt>
      <trkpt lat="43.245" lon="-1.49137">
        <ele>485.5</ele>
        <time>2022-09-04T09:28:26Z</time>
      </trkpt>
      <trkpt lat="43.24501" lon="-1.49136">
        <ele>485.5</ele>
        <time>2022-09-04T09:28:27Z</time>
      </trkpt>
      <trkpt lat="43.24503" lon="-1.49133">
        <ele>485.7</ele>
        <time>2022-09-04T09:28:28Z</time>
      </trkpt>
      <trkpt lat="43.24504" lon="-1.49132">
        <ele>485.8</ele>
        <time>2022-09-04T09:28:29Z</time>
      </trkpt>
      <trkpt lat="43.24506" lon="-1.49131">
        <ele>485.9</ele>
        <time>2022-09-04T09:28:30Z</time>
      </trkpt>
      <trkpt lat="43.24508" lon="-1.49131">
        <ele>485.9</ele>
        <time>2022-09-04T09:28:31Z</time>
      </trkpt>
      <trkpt lat="43.2451" lon="-1.4913">
        <ele>486</ele>
        <time>2022-09-04T09:28:32Z</time>
      </trkpt>
      <trkpt lat="43.24511" lon="-1.4913">
        <ele>486.1</ele>
        <time>2022-09-04T09:28:33Z</time>
      </trkpt>
      <trkpt lat="43.24515" lon="-1.49129">
        <ele>486.2</ele>
        <time>2022-09-04T09:28:34Z</time>
      </trkpt>
      <trkpt lat="43.24516" lon="-1.49129">
        <ele>486.2</ele>
        <time>2022-09-04T09:28:35Z</time>
      </trkpt>
      <trkpt lat="43.2452" lon="-1.49128">
        <ele>486.4</ele>
        <time>2022-09-04T09:28:36Z</time>
      </trkpt>
      <trkpt lat="43.24521" lon="-1.49127">
        <ele>486.4</ele>
        <time>2022-09-04T09:28:37Z</time>
      </trkpt>
      <trkpt lat="43.24524" lon="-1.49126">
        <ele>486.5</ele>
        <time>2022-09-04T09:28:38Z</time>
      </trkpt>
      <trkpt lat="43.24525" lon="-1.49125">
        <ele>486.5</ele>
        <time>2022-09-04T09:28:39Z</time>
      </trkpt>
      <trkpt lat="43.24529" lon="-1.49125">
        <ele>486.6</ele>
        <time>2022-09-04T09:28:40Z</time>
      </trkpt>
      <trkpt lat="43.2453" lon="-1.49126">
        <ele>486.7</ele>
        <time>2022-09-04T09:28:41Z</time>
      </trkpt>
      <trkpt lat="43.24534" lon="-1.49126">
        <ele>486.8</ele>
        <time>2022-09-04T09:28:42Z</time>
      </trkpt>
      <trkpt lat="43.24535" lon="-1.49126">
        <ele>486.8</ele>
        <time>2022-09-04T09:28:43Z</time>
      </trkpt>
      <trkpt lat="43.24537" lon="-1.49125">
        <ele>486.9</ele>
        <time>2022-09-04T09:28:44Z</time>
      </trkpt>
      <trkpt lat="43.24538" lon="-1.49124">
        <ele>486.9</ele>
        <time>2022-09-04T09:28:45Z</time>
      </trkpt>
      <trkpt lat="43.24539" lon="-1.49124">
        <ele>486.9</ele>
        <time>2022-09-04T09:28:46Z</time>
      </trkpt>
      <trkpt lat="43.2454" lon="-1.49124">
        <ele>486.9</ele>
        <time>2022-09-04T09:28:47Z</time>
      </trkpt>
      <trkpt lat="43.24541" lon="-1.49123">
        <ele>487</ele>
        <time>2022-09-04T09:28:48Z</time>
      </trkpt>
      <trkpt lat="43.24543" lon="-1.49123">
        <ele>487</ele>
        <time>2022-09-04T09:28:49Z</time>
      </trkpt>
      <trkpt lat="43.24544" lon="-1.49122">
        <ele>487.1</ele>
        <time>2022-09-04T09:28:50Z</time>
      </trkpt>
      <trkpt lat="43.24546" lon="-1.49122">
        <ele>487.1</ele>
        <time>2022-09-04T09:28:51Z</time>
      </trkpt>
      <trkpt lat="43.24546" lon="-1.49122">
        <ele>487.1</ele>
        <time>2022-09-04T09:28:52Z</time>
      </trkpt>
      <trkpt lat="43.24546" lon="-1.49122">
        <ele>487.1</ele>
        <time>2022-09-04T09:28:53Z</time>
      </trkpt>
      <trkpt lat="43.24546" lon="-1.49122">
        <ele>487.1</ele>
        <time>2022-09-04T09:28:54Z</time>
      </trkpt>
      <trkpt lat="43.24546" lon="-1.49122">
        <ele>487.1</ele>
        <time>2022-09-04T09:28:55Z</time>
      </trkpt>
      <trkpt lat="43.24547" lon="-1.49122">
        <ele>487.1</ele>
        <time>2022-09-04T09:28:56Z</time>
      </trkpt>
      <trkpt lat="43.24547" lon="-1.49122">
        <ele>487.1</ele>
        <time>2022-09-04T09:28:57Z</time>
      </trkpt>
      <trkpt lat="43.24547" lon="-1.49122">
        <ele>487.1</ele>
        <time>2022-09-04T09:28:58Z</time>
      </trkpt>
      <trkpt lat="43.24547" lon="-1.49122">
        <ele>487.1</ele>
        <time>2022-09-04T09:28:59Z</time>
      </trkpt>
      <trkpt lat="43.24547" lon="-1.49122">
        <ele>487.1</ele>
        <time>2022-09-04T09:29:00Z</time>
      </trkpt>
      <trkpt lat="43.24548" lon="-1.49122">
        <ele>487.1</ele>
        <time>2022-09-04T09:29:01Z</time>
      </trkpt>
      <trkpt lat="43.24548" lon="-1.49122">
        <ele>487.1</ele>
        <time>2022-09-04T09:29:02Z</time>
      </trkpt>
      <trkpt lat="43.24548" lon="-1.49122">
        <ele>487.1</ele>
        <time>2022-09-04T09:29:03Z</time>
      </trkpt>
      <trkpt lat="43.24548" lon="-1.49122">
        <ele>487.1</ele>
        <time>2022-09-04T09:30:05Z</time>
      </trkpt>
      <trkpt lat="43.24549" lon="-1.49122">
        <ele>487.2</ele>
        <time>2022-09-04T09:30:06Z</time>
      </trkpt>
      <trkpt lat="43.24549" lon="-1.49122">
        <ele>487.2</ele>
        <time>2022-09-04T09:30:07Z</time>
      </trkpt>
      <trkpt lat="43.24549" lon="-1.49122">
        <ele>487.2</ele>
        <time>2022-09-04T09:30:08Z</time>
      </trkpt>
      <trkpt lat="43.24549" lon="-1.49122">
        <ele>487.2</ele>
        <time>2022-09-04T09:30:09Z</time>
      </trkpt>
      <trkpt lat="43.24549" lon="-1.49122">
        <ele>487.2</ele>
        <time>2022-09-04T09:30:10Z</time>
      </trkpt>
      <trkpt lat="43.2455" lon="-1.49122">
        <ele>487.2</ele>
        <time>2022-09-04T09:30:11Z</time>
      </trkpt>
      <trkpt lat="43.2455" lon="-1.49122">
        <ele>487.2</ele>
        <time>2022-09-04T09:30:12Z</time>
      </trkpt>
      <trkpt lat="43.2455" lon="-1.49122">
        <ele>487.2</ele>
        <time>2022-09-04T09:30:13Z</time>
      </trkpt>
      <trkpt lat="43.2455" lon="-1.49122">
        <ele>487.2</ele>
        <time>2022-09-04T09:30:14Z</time>
      </trkpt>
      <trkpt lat="43.2455" lon="-1.49122">
        <ele>487.2</ele>
        <time>2022-09-04T09:30:15Z</time>
      </trkpt>
      <trkpt lat="43.24551" lon="-1.49122">
        <ele>487.2</ele>
        <time>2022-09-04T09:30:16Z</time>
      </trkpt>
      <trkpt lat="43.24551" lon="-1.49122">
        <ele>487.2</ele>
        <time>2022-09-04T09:30:17Z</time>
      </trkpt>
      <trkpt lat="43.24551" lon="-1.49122">
        <ele>487.2</ele>
        <time>2022-09-04T09:30:18Z</time>
      </trkpt>
      <trkpt lat="43.24551" lon="-1.49122">
        <ele>487.2</ele>
        <time>2022-09-04T09:30:19Z</time>
      </trkpt>
      <trkpt lat="43.24552" lon="-1.49122">
        <ele>487.2</ele>
        <time>2022-09-04T09:30:20Z</time>
      </trkpt>
      <trkpt lat="43.24552" lon="-1.49122">
        <ele>487.2</ele>
        <time>2022-09-04T09:30:21Z</time>
      </trkpt>
      <trkpt lat="43.24552" lon="-1.49122">
        <ele>487.2</ele>
        <time>2022-09-04T09:30:22Z</time>
      </trkpt>
      <trkpt lat="43.24552" lon="-1.49122">
        <ele>487.2</ele>
        <time>2022-09-04T09:30:23Z</time>
      </trkpt>
      <trkpt lat="43.24552" lon="-1.49122">
        <ele>487.2</ele>
        <time>2022-09-04T09:30:24Z</time>
      </trkpt>
      <trkpt lat="43.24553" lon="-1.49122">
        <ele>487.2</ele>
        <time>2022-09-04T09:30:25Z</time>
      </trkpt>
      <trkpt lat="43.24553" lon="-1.49122">
        <ele>487.2</ele>
        <time>2022-09-04T09:30:26Z</time>
      </trkpt>
      <trkpt lat="43.24553" lon="-1.49122">
        <ele>487.2</ele>
        <time>2022-09-04T09:30:27Z</time>
      </trkpt>
      <trkpt lat="43.24553" lon="-1.49122">
        <ele>487.2</ele>
        <time>2022-09-04T09:30:28Z</time>
      </trkpt>
      <trkpt lat="43.24554" lon="-1.49122">
        <ele>487.3</ele>
        <time>2022-09-04T09:31:08Z</time>
      </trkpt>
      <trkpt lat="43.24554" lon="-1.49122">
        <ele>487.3</ele>
        <time>2022-09-04T09:31:09Z</time>
      </trkpt>
      <trkpt lat="43.24554" lon="-1.49122">
        <ele>487.3</ele>
        <time>2022-09-04T09:31:10Z</time>
      </trkpt>
      <trkpt lat="43.24558" lon="-1.4912">
        <ele>487.3</ele>
        <time>2022-09-04T09:31:11Z</time>
      </trkpt>
      <trkpt lat="43.24559" lon="-1.4912">
        <ele>487.3</ele>
        <time>2022-09-04T09:31:12Z</time>
      </trkpt>
      <trkpt lat="43.24563" lon="-1.4912">
        <ele>487.4</ele>
        <time>2022-09-04T09:31:13Z</time>
      </trkpt>
      <trkpt lat="43.24564" lon="-1.4912">
        <ele>487.4</ele>
        <time>2022-09-04T09:31:14Z</time>
      </trkpt>
      <trkpt lat="43.24568" lon="-1.49119">
        <ele>487.4</ele>
        <time>2022-09-04T09:31:15Z</time>
      </trkpt>
      <trkpt lat="43.24571" lon="-1.4912">
        <ele>487.5</ele>
        <time>2022-09-04T09:31:16Z</time>
      </trkpt>
      <trkpt lat="43.24574" lon="-1.4912">
        <ele>487.5</ele>
        <time>2022-09-04T09:31:17Z</time>
      </trkpt>
      <trkpt lat="43.24578" lon="-1.49121">
        <ele>487.5</ele>
        <time>2022-09-04T09:31:18Z</time>
      </trkpt>
      <trkpt lat="43.24581" lon="-1.49122">
        <ele>487.5</ele>
        <time>2022-09-04T09:31:19Z</time>
      </trkpt>
      <trkpt lat="43.24585" lon="-1.49124">
        <ele>487.5</ele>
        <time>2022-09-04T09:31:20Z</time>
      </trkpt>
      <trkpt lat="43.24589" lon="-1.49125">
        <ele>487.5</ele>
        <time>2022-09-04T09:31:21Z</time>
      </trkpt>
      <trkpt lat="43.24593" lon="-1.49127">
        <ele>487.5</ele>
        <time>2022-09-04T09:31:22Z</time>
      </trkpt>
      <trkpt lat="43.24596" lon="-1.49128">
        <ele>487.5</ele>
        <time>2022-09-04T09:31:23Z</time>
      </trkpt>
      <trkpt lat="43.246" lon="-1.4913">
        <ele>487.5</ele>
        <time>2022-09-04T09:31:24Z</time>
      </trkpt>
      <trkpt lat="43.24604" lon="-1.49132">
        <ele>487.5</ele>
        <time>2022-09-04T09:31:25Z</time>
      </trkpt>
      <trkpt lat="43.24607" lon="-1.49135">
        <ele>487.5</ele>
        <time>2022-09-04T09:31:26Z</time>
      </trkpt>
      <trkpt lat="43.2461" lon="-1.49137">
        <ele>487.4</ele>
        <time>2022-09-04T09:31:27Z</time>
      </trkpt>
      <trkpt lat="43.24613" lon="-1.4914">
        <ele>487.4</ele>
        <time>2022-09-04T09:31:28Z</time>
      </trkpt>
      <trkpt lat="43.24617" lon="-1.49142">
        <ele>487.4</ele>
        <time>2022-09-04T09:31:29Z</time>
      </trkpt>
      <trkpt lat="43.2462" lon="-1.49145">
        <ele>487.4</ele>
        <time>2022-09-04T09:31:30Z</time>
      </trkpt>
      <trkpt lat="43.24624" lon="-1.49149">
        <ele>487.3</ele>
        <time>2022-09-04T09:31:31Z</time>
      </trkpt>
      <trkpt lat="43.24627" lon="-1.49153">
        <ele>487.3</ele>
        <time>2022-09-04T09:31:32Z</time>
      </trkpt>
      <trkpt lat="43.2463" lon="-1.49156">
        <ele>487.3</ele>
        <time>2022-09-04T09:31:33Z</time>
      </trkpt>
      <trkpt lat="43.24634" lon="-1.4916">
        <ele>487.2</ele>
        <time>2022-09-04T09:31:34Z</time>
      </trkpt>
      <trkpt lat="43.24637" lon="-1.49165">
        <ele>487.1</ele>
        <time>2022-09-04T09:31:35Z</time>
      </trkpt>
      <trkpt lat="43.24641" lon="-1.4917">
        <ele>487</ele>
        <time>2022-09-04T09:31:36Z</time>
      </trkpt>
      <trkpt lat="43.24644" lon="-1.49175">
        <ele>486.8</ele>
        <time>2022-09-04T09:31:37Z</time>
      </trkpt>
      <trkpt lat="43.24647" lon="-1.49181">
        <ele>486.6</ele>
        <time>2022-09-04T09:31:38Z</time>
      </trkpt>
      <trkpt lat="43.2465" lon="-1.49187">
        <ele>486.4</ele>
        <time>2022-09-04T09:31:39Z</time>
      </trkpt>
      <trkpt lat="43.24653" lon="-1.49193">
        <ele>486.2</ele>
        <time>2022-09-04T09:31:40Z</time>
      </trkpt>
      <trkpt lat="43.24655" lon="-1.49198">
        <ele>486</ele>
        <time>2022-09-04T09:31:41Z</time>
      </trkpt>
      <trkpt lat="43.24658" lon="-1.49204">
        <ele>485.7</ele>
        <time>2022-09-04T09:31:42Z</time>
      </trkpt>
      <trkpt lat="43.24661" lon="-1.4921">
        <ele>485.5</ele>
        <time>2022-09-04T09:31:43Z</time>
      </trkpt>
      <trkpt lat="43.24664" lon="-1.49215">
        <ele>485.2</ele>
        <time>2022-09-04T09:31:44Z</time>
      </trkpt>
      <trkpt lat="43.24667" lon="-1.4922">
        <ele>484.9</ele>
        <time>2022-09-04T09:31:45Z</time>
      </trkpt>
      <trkpt lat="43.24671" lon="-1.49224">
        <ele>484.6</ele>
        <time>2022-09-04T09:31:46Z</time>
      </trkpt>
      <trkpt lat="43.24677" lon="-1.49227">
        <ele>484.3</ele>
        <time>2022-09-04T09:31:47Z</time>
      </trkpt>
      <trkpt lat="43.24683" lon="-1.49227">
        <ele>484</ele>
        <time>2022-09-04T09:31:48Z</time>
      </trkpt>
      <trkpt lat="43.24689" lon="-1.49227">
        <ele>483.7</ele>
        <time>2022-09-04T09:31:49Z</time>
      </trkpt>
      <trkpt lat="43.24696" lon="-1.49229">
        <ele>483.3</ele>
        <time>2022-09-04T09:31:50Z</time>
      </trkpt>
      <trkpt lat="43.24703" lon="-1.49232">
        <ele>482.9</ele>
        <time>2022-09-04T09:31:51Z</time>
      </trkpt>
      <trkpt lat="43.24709" lon="-1.49235">
        <ele>482.5</ele>
        <time>2022-09-04T09:31:52Z</time>
      </trkpt>
      <trkpt lat="43.24716" lon="-1.49237">
        <ele>482</ele>
        <time>2022-09-04T09:31:53Z</time>
      </trkpt>
      <trkpt lat="43.24722" lon="-1.4924">
        <ele>481.5</ele>
        <time>2022-09-04T09:31:54Z</time>
      </trkpt>
      <trkpt lat="43.24727" lon="-1.49242">
        <ele>481</ele>
        <time>2022-09-04T09:31:55Z</time>
      </trkpt>
      <trkpt lat="43.24734" lon="-1.49243">
        <ele>480.5</ele>
        <time>2022-09-04T09:31:56Z</time>
      </trkpt>
      <trkpt lat="43.2474" lon="-1.49245">
        <ele>479.9</ele>
        <time>2022-09-04T09:31:57Z</time>
      </trkpt>
      <trkpt lat="43.24746" lon="-1.49247">
        <ele>479.4</ele>
        <time>2022-09-04T09:31:58Z</time>
      </trkpt>
      <trkpt lat="43.24752" lon="-1.49248">
        <ele>478.8</ele>
        <time>2022-09-04T09:31:59Z</time>
      </trkpt>
      <trkpt lat="43.24759" lon="-1.4925">
        <ele>478.2</ele>
        <time>2022-09-04T09:32:00Z</time>
      </trkpt>
      <trkpt lat="43.24766" lon="-1.49252">
        <ele>477.6</ele>
        <time>2022-09-04T09:32:01Z</time>
      </trkpt>
      <trkpt lat="43.24773" lon="-1.49256">
        <ele>476.9</ele>
        <time>2022-09-04T09:32:02Z</time>
      </trkpt>
      <trkpt lat="43.24779" lon="-1.4926">
        <ele>476.3</ele>
        <time>2022-09-04T09:32:03Z</time>
      </trkpt>
      <trkpt lat="43.24786" lon="-1.49264">
        <ele>475.7</ele>
        <time>2022-09-04T09:32:04Z</time>
      </trkpt>
      <trkpt lat="43.24792" lon="-1.49268">
        <ele>475.1</ele>
        <time>2022-09-04T09:32:05Z</time>
      </trkpt>
      <trkpt lat="43.24799" lon="-1.49272">
        <ele>474.4</ele>
        <time>2022-09-04T09:32:06Z</time>
      </trkpt>
      <trkpt lat="43.24805" lon="-1.49275">
        <ele>473.8</ele>
        <time>2022-09-04T09:32:07Z</time>
      </trkpt>
      <trkpt lat="43.24812" lon="-1.4928">
        <ele>473.1</ele>
        <time>2022-09-04T09:32:08Z</time>
      </trkpt>
      <trkpt lat="43.24819" lon="-1.49284">
        <ele>472.5</ele>
        <time>2022-09-04T09:32:09Z</time>
      </trkpt>
      <trkpt lat="43.24826" lon="-1.49288">
        <ele>471.8</ele>
        <time>2022-09-04T09:32:10Z</time>
      </trkpt>
      <trkpt lat="43.24833" lon="-1.49293">
        <ele>471.1</ele>
        <time>2022-09-04T09:32:11Z</time>
      </trkpt>
      <trkpt lat="43.24841" lon="-1.49297">
        <ele>470.3</ele>
        <time>2022-09-04T09:32:12Z</time>
      </trkpt>
      <trkpt lat="43.2485" lon="-1.49301">
        <ele>469.5</ele>
        <time>2022-09-04T09:32:13Z</time>
      </trkpt>
      <trkpt lat="43.24859" lon="-1.49303">
        <ele>468.7</ele>
        <time>2022-09-04T09:32:14Z</time>
      </trkpt>
      <trkpt lat="43.24867" lon="-1.49305">
        <ele>467.9</ele>
        <time>2022-09-04T09:32:15Z</time>
      </trkpt>
      <trkpt lat="43.24876" lon="-1.49308">
        <ele>467</ele>
        <time>2022-09-04T09:32:16Z</time>
      </trkpt>
      <trkpt lat="43.24884" lon="-1.4931">
        <ele>466.2</ele>
        <time>2022-09-04T09:32:17Z</time>
      </trkpt>
      <trkpt lat="43.24892" lon="-1.49314">
        <ele>465.3</ele>
        <time>2022-09-04T09:32:18Z</time>
      </trkpt>
      <trkpt lat="43.249" lon="-1.49317">
        <ele>464.5</ele>
        <time>2022-09-04T09:32:19Z</time>
      </trkpt>
      <trkpt lat="43.24908" lon="-1.49322">
        <ele>463.6</ele>
        <time>2022-09-04T09:32:20Z</time>
      </trkpt>
      <trkpt lat="43.24915" lon="-1.49328">
        <ele>462.6</ele>
        <time>2022-09-04T09:32:21Z</time>
      </trkpt>
      <trkpt lat="43.24923" lon="-1.49334">
        <ele>461.7</ele>
        <time>2022-09-04T09:32:22Z</time>
      </trkpt>
      <trkpt lat="43.24931" lon="-1.49338">
        <ele>460.7</ele>
        <time>2022-09-04T09:32:23Z</time>
      </trkpt>
      <trkpt lat="43.2494" lon="-1.49341">
        <ele>459.8</ele>
        <time>2022-09-04T09:32:24Z</time>
      </trkpt>
      <trkpt lat="43.24948" lon="-1.49345">
        <ele>458.9</ele>
        <time>2022-09-04T09:32:25Z</time>
      </trkpt>
      <trkpt lat="43.24965" lon="-1.49351">
        <ele>457.7</ele>
        <time>2022-09-04T09:32:27Z</time>
      </trkpt>
      <trkpt lat="43.24973" lon="-1.49353">
        <ele>457.1</ele>
        <time>2022-09-04T09:32:28Z</time>
      </trkpt>
      <trkpt lat="43.24981" lon="-1.49355">
        <ele>456.5</ele>
        <time>2022-09-04T09:32:29Z</time>
      </trkpt>
      <trkpt lat="43.2499" lon="-1.49358">
        <ele>455.9</ele>
        <time>2022-09-04T09:32:30Z</time>
      </trkpt>
      <trkpt lat="43.24997" lon="-1.4936">
        <ele>455.3</ele>
        <time>2022-09-04T09:32:31Z</time>
      </trkpt>
      <trkpt lat="43.25005" lon="-1.49362">
        <ele>454.8</ele>
        <time>2022-09-04T09:32:32Z</time>
      </trkpt>
      <trkpt lat="43.25012" lon="-1.49364">
        <ele>454.3</ele>
        <time>2022-09-04T09:32:33Z</time>
      </trkpt>
      <trkpt lat="43.2502" lon="-1.49369">
        <ele>453.9</ele>
        <time>2022-09-04T09:32:34Z</time>
      </trkpt>
      <trkpt lat="43.25027" lon="-1.49374">
        <ele>453.7</ele>
        <time>2022-09-04T09:32:35Z</time>
      </trkpt>
      <trkpt lat="43.25034" lon="-1.49378">
        <ele>453.4</ele>
        <time>2022-09-04T09:32:36Z</time>
      </trkpt>
      <trkpt lat="43.25041" lon="-1.49383">
        <ele>453</ele>
        <time>2022-09-04T09:32:37Z</time>
      </trkpt>
      <trkpt lat="43.25046" lon="-1.49386">
        <ele>452.6</ele>
        <time>2022-09-04T09:32:38Z</time>
      </trkpt>
      <trkpt lat="43.2505" lon="-1.49389">
        <ele>452.1</ele>
        <time>2022-09-04T09:32:39Z</time>
      </trkpt>
      <trkpt lat="43.25054" lon="-1.49393">
        <ele>451.4</ele>
        <time>2022-09-04T09:32:40Z</time>
      </trkpt>
      <trkpt lat="43.25058" lon="-1.49396">
        <ele>450.6</ele>
        <time>2022-09-04T09:32:41Z</time>
      </trkpt>
      <trkpt lat="43.25063" lon="-1.49399">
        <ele>449.6</ele>
        <time>2022-09-04T09:32:42Z</time>
      </trkpt>
      <trkpt lat="43.25067" lon="-1.49402">
        <ele>448.6</ele>
        <time>2022-09-04T09:32:43Z</time>
      </trkpt>
      <trkpt lat="43.25071" lon="-1.49405">
        <ele>447.7</ele>
        <time>2022-09-04T09:32:44Z</time>
      </trkpt>
      <trkpt lat="43.25074" lon="-1.49408">
        <ele>446.8</ele>
        <time>2022-09-04T09:32:45Z</time>
      </trkpt>
      <trkpt lat="43.25077" lon="-1.49411">
        <ele>445.9</ele>
        <time>2022-09-04T09:32:46Z</time>
      </trkpt>
      <trkpt lat="43.25082" lon="-1.49414">
        <ele>444.7</ele>
        <time>2022-09-04T09:32:47Z</time>
      </trkpt>
      <trkpt lat="43.25087" lon="-1.49416">
        <ele>443.4</ele>
        <time>2022-09-04T09:32:48Z</time>
      </trkpt>
      <trkpt lat="43.25092" lon="-1.49418">
        <ele>442.2</ele>
        <time>2022-09-04T09:32:49Z</time>
      </trkpt>
      <trkpt lat="43.25097" lon="-1.49421">
        <ele>441.1</ele>
        <time>2022-09-04T09:32:50Z</time>
      </trkpt>
      <trkpt lat="43.25101" lon="-1.49424">
        <ele>439.9</ele>
        <time>2022-09-04T09:32:51Z</time>
      </trkpt>
      <trkpt lat="43.25105" lon="-1.49428">
        <ele>438.7</ele>
        <time>2022-09-04T09:32:52Z</time>
      </trkpt>
      <trkpt lat="43.25109" lon="-1.49433">
        <ele>437.5</ele>
        <time>2022-09-04T09:32:53Z</time>
      </trkpt>
      <trkpt lat="43.25113" lon="-1.49437">
        <ele>436.2</ele>
        <time>2022-09-04T09:32:54Z</time>
      </trkpt>
      <trkpt lat="43.25117" lon="-1.49442">
        <ele>434.9</ele>
        <time>2022-09-04T09:32:55Z</time>
      </trkpt>
      <trkpt lat="43.25121" lon="-1.49446">
        <ele>433.7</ele>
        <time>2022-09-04T09:32:56Z</time>
      </trkpt>
      <trkpt lat="43.25124" lon="-1.4945">
        <ele>432.6</ele>
        <time>2022-09-04T09:32:57Z</time>
      </trkpt>
      <trkpt lat="43.25129" lon="-1.49456">
        <ele>431.4</ele>
        <time>2022-09-04T09:32:58Z</time>
      </trkpt>
      <trkpt lat="43.25133" lon="-1.4946">
        <ele>430.2</ele>
        <time>2022-09-04T09:32:59Z</time>
      </trkpt>
      <trkpt lat="43.25138" lon="-1.49465">
        <ele>429</ele>
        <time>2022-09-04T09:33:00Z</time>
      </trkpt>
      <trkpt lat="43.25142" lon="-1.4947">
        <ele>428</ele>
        <time>2022-09-04T09:33:01Z</time>
      </trkpt>
      <trkpt lat="43.25147" lon="-1.49474">
        <ele>427</ele>
        <time>2022-09-04T09:33:02Z</time>
      </trkpt>
      <trkpt lat="43.25153" lon="-1.49477">
        <ele>426.1</ele>
        <time>2022-09-04T09:33:03Z</time>
      </trkpt>
      <trkpt lat="43.2516" lon="-1.49482">
        <ele>424.9</ele>
        <time>2022-09-04T09:33:04Z</time>
      </trkpt>
      <trkpt lat="43.25168" lon="-1.49487">
        <ele>423.7</ele>
        <time>2022-09-04T09:33:05Z</time>
      </trkpt>
      <trkpt lat="43.25175" lon="-1.49491">
        <ele>422.5</ele>
        <time>2022-09-04T09:33:06Z</time>
      </trkpt>
      <trkpt lat="43.25182" lon="-1.49495">
        <ele>421.4</ele>
        <time>2022-09-04T09:33:07Z</time>
      </trkpt>
      <trkpt lat="43.25188" lon="-1.49499">
        <ele>420.5</ele>
        <time>2022-09-04T09:33:08Z</time>
      </trkpt>
      <trkpt lat="43.25195" lon="-1.49504">
        <ele>419.6</ele>
        <time>2022-09-04T09:33:09Z</time>
      </trkpt>
      <trkpt lat="43.25201" lon="-1.4951">
        <ele>418.6</ele>
        <time>2022-09-04T09:33:10Z</time>
      </trkpt>
      <trkpt lat="43.25206" lon="-1.49515">
        <ele>417.8</ele>
        <time>2022-09-04T09:33:11Z</time>
      </trkpt>
      <trkpt lat="43.25211" lon="-1.4952">
        <ele>416.9</ele>
        <time>2022-09-04T09:33:12Z</time>
      </trkpt>
      <trkpt lat="43.25216" lon="-1.49524">
        <ele>416.2</ele>
        <time>2022-09-04T09:33:13Z</time>
      </trkpt>
      <trkpt lat="43.2522" lon="-1.49525">
        <ele>415.6</ele>
        <time>2022-09-04T09:33:14Z</time>
      </trkpt>
      <trkpt lat="43.25224" lon="-1.49524">
        <ele>415.2</ele>
        <time>2022-09-04T09:33:15Z</time>
      </trkpt>
      <trkpt lat="43.25227" lon="-1.49524">
        <ele>414.8</ele>
        <time>2022-09-04T09:33:16Z</time>
      </trkpt>
      <trkpt lat="43.25233" lon="-1.49525">
        <ele>414.2</ele>
        <time>2022-09-04T09:33:17Z</time>
      </trkpt>
      <trkpt lat="43.25239" lon="-1.4953">
        <ele>413.4</ele>
        <time>2022-09-04T09:33:18Z</time>
      </trkpt>
      <trkpt lat="43.25244" lon="-1.49537">
        <ele>412.6</ele>
        <time>2022-09-04T09:33:19Z</time>
      </trkpt>
      <trkpt lat="43.25248" lon="-1.49545">
        <ele>411.8</ele>
        <time>2022-09-04T09:33:20Z</time>
      </trkpt>
      <trkpt lat="43.25253" lon="-1.49552">
        <ele>410.9</ele>
        <time>2022-09-04T09:33:21Z</time>
      </trkpt>
      <trkpt lat="43.25258" lon="-1.49559">
        <ele>410</ele>
        <time>2022-09-04T09:33:22Z</time>
      </trkpt>
      <trkpt lat="43.25263" lon="-1.49565">
        <ele>409</ele>
        <time>2022-09-04T09:33:23Z</time>
      </trkpt>
      <trkpt lat="43.25268" lon="-1.49571">
        <ele>408.4</ele>
        <time>2022-09-04T09:33:24Z</time>
      </trkpt>
      <trkpt lat="43.25274" lon="-1.49577">
        <ele>407.6</ele>
        <time>2022-09-04T09:33:25Z</time>
      </trkpt>
      <trkpt lat="43.25279" lon="-1.49583">
        <ele>406.8</ele>
        <time>2022-09-04T09:33:26Z</time>
      </trkpt>
      <trkpt lat="43.25284" lon="-1.49589">
        <ele>406</ele>
        <time>2022-09-04T09:33:27Z</time>
      </trkpt>
      <trkpt lat="43.25288" lon="-1.49595">
        <ele>405.2</ele>
        <time>2022-09-04T09:33:28Z</time>
      </trkpt>
      <trkpt lat="43.25293" lon="-1.49602">
        <ele>404.4</ele>
        <time>2022-09-04T09:33:29Z</time>
      </trkpt>
      <trkpt lat="43.25297" lon="-1.4961">
        <ele>403.6</ele>
        <time>2022-09-04T09:33:30Z</time>
      </trkpt>
      <trkpt lat="43.25301" lon="-1.49617">
        <ele>402.8</ele>
        <time>2022-09-04T09:33:31Z</time>
      </trkpt>
      <trkpt lat="43.25304" lon="-1.49625">
        <ele>401.9</ele>
        <time>2022-09-04T09:33:32Z</time>
      </trkpt>
      <trkpt lat="43.25307" lon="-1.49633">
        <ele>401</ele>
        <time>2022-09-04T09:33:33Z</time>
      </trkpt>
      <trkpt lat="43.2531" lon="-1.49641">
        <ele>400</ele>
        <time>2022-09-04T09:33:34Z</time>
      </trkpt>
      <trkpt lat="43.25314" lon="-1.49648">
        <ele>399.1</ele>
        <time>2022-09-04T09:33:35Z</time>
      </trkpt>
      <trkpt lat="43.25318" lon="-1.49654">
        <ele>398.3</ele>
        <time>2022-09-04T09:33:36Z</time>
      </trkpt>
      <trkpt lat="43.25323" lon="-1.49658">
        <ele>397.4</ele>
        <time>2022-09-04T09:33:37Z</time>
      </trkpt>
      <trkpt lat="43.25327" lon="-1.49661">
        <ele>396.6</ele>
        <time>2022-09-04T09:33:38Z</time>
      </trkpt>
      <trkpt lat="43.2533" lon="-1.49663">
        <ele>395.9</ele>
        <time>2022-09-04T09:33:39Z</time>
      </trkpt>
      <trkpt lat="43.25333" lon="-1.49666">
        <ele>395.2</ele>
        <time>2022-09-04T09:33:40Z</time>
      </trkpt>
      <trkpt lat="43.25334" lon="-1.49667">
        <ele>394.9</ele>
        <time>2022-09-04T09:33:41Z</time>
      </trkpt>
      <trkpt lat="43.25337" lon="-1.4967">
        <ele>394.3</ele>
        <time>2022-09-04T09:33:42Z</time>
      </trkpt>
      <trkpt lat="43.2534" lon="-1.49674">
        <ele>393.4</ele>
        <time>2022-09-04T09:33:43Z</time>
      </trkpt>
      <trkpt lat="43.25343" lon="-1.49678">
        <ele>392.5</ele>
        <time>2022-09-04T09:33:44Z</time>
      </trkpt>
      <trkpt lat="43.25347" lon="-1.49683">
        <ele>391.4</ele>
        <time>2022-09-04T09:33:45Z</time>
      </trkpt>
      <trkpt lat="43.25351" lon="-1.49687">
        <ele>390.4</ele>
        <time>2022-09-04T09:33:46Z</time>
      </trkpt>
      <trkpt lat="43.25357" lon="-1.49694">
        <ele>388.7</ele>
        <time>2022-09-04T09:33:48Z</time>
      </trkpt>
      <trkpt lat="43.2536" lon="-1.49698">
        <ele>388.1</ele>
        <time>2022-09-04T09:33:49Z</time>
      </trkpt>
      <trkpt lat="43.25363" lon="-1.49701">
        <ele>387.4</ele>
        <time>2022-09-04T09:33:50Z</time>
      </trkpt>
      <trkpt lat="43.25366" lon="-1.49703">
        <ele>386.7</ele>
        <time>2022-09-04T09:33:51Z</time>
      </trkpt>
      <trkpt lat="43.25371" lon="-1.49705">
        <ele>385.9</ele>
        <time>2022-09-04T09:33:52Z</time>
      </trkpt>
      <trkpt lat="43.25376" lon="-1.49708">
        <ele>385.1</ele>
        <time>2022-09-04T09:33:53Z</time>
      </trkpt>
      <trkpt lat="43.2538" lon="-1.4971">
        <ele>384.4</ele>
        <time>2022-09-04T09:33:54Z</time>
      </trkpt>
      <trkpt lat="43.25384" lon="-1.49713">
        <ele>383.8</ele>
        <time>2022-09-04T09:33:55Z</time>
      </trkpt>
      <trkpt lat="43.25389" lon="-1.49715">
        <ele>383.1</ele>
        <time>2022-09-04T09:33:56Z</time>
      </trkpt>
      <trkpt lat="43.25395" lon="-1.49718">
        <ele>382.3</ele>
        <time>2022-09-04T09:33:57Z</time>
      </trkpt>
      <trkpt lat="43.254" lon="-1.49721">
        <ele>381.4</ele>
        <time>2022-09-04T09:33:58Z</time>
      </trkpt>
      <trkpt lat="43.25406" lon="-1.49724">
        <ele>380.7</ele>
        <time>2022-09-04T09:33:59Z</time>
      </trkpt>
      <trkpt lat="43.25411" lon="-1.49727">
        <ele>379.9</ele>
        <time>2022-09-04T09:34:00Z</time>
      </trkpt>
      <trkpt lat="43.25415" lon="-1.4973">
        <ele>379.1</ele>
        <time>2022-09-04T09:34:01Z</time>
      </trkpt>
      <trkpt lat="43.2542" lon="-1.49733">
        <ele>378.3</ele>
        <time>2022-09-04T09:34:02Z</time>
      </trkpt>
      <trkpt lat="43.25425" lon="-1.49736">
        <ele>377.5</ele>
        <time>2022-09-04T09:34:03Z</time>
      </trkpt>
      <trkpt lat="43.25429" lon="-1.49738">
        <ele>376.8</ele>
        <time>2022-09-04T09:34:04Z</time>
      </trkpt>
      <trkpt lat="43.25433" lon="-1.4974">
        <ele>376.2</ele>
        <time>2022-09-04T09:34:05Z</time>
      </trkpt>
      <trkpt lat="43.25437" lon="-1.49742">
        <ele>375.4</ele>
        <time>2022-09-04T09:34:06Z</time>
      </trkpt>
      <trkpt lat="43.25442" lon="-1.49745">
        <ele>374.5</ele>
        <time>2022-09-04T09:34:07Z</time>
      </trkpt>
      <trkpt lat="43.25448" lon="-1.49749">
        <ele>373.5</ele>
        <time>2022-09-04T09:34:08Z</time>
      </trkpt>
      <trkpt lat="43.25453" lon="-1.49753">
        <ele>372.4</ele>
        <time>2022-09-04T09:34:09Z</time>
      </trkpt>
      <trkpt lat="43.25458" lon="-1.49755">
        <ele>371.5</ele>
        <time>2022-09-04T09:34:10Z</time>
      </trkpt>
      <trkpt lat="43.25462" lon="-1.49756">
        <ele>370.8</ele>
        <time>2022-09-04T09:34:11Z</time>
      </trkpt>
      <trkpt lat="43.25466" lon="-1.49755">
        <ele>370.2</ele>
        <time>2022-09-04T09:34:12Z</time>
      </trkpt>
      <trkpt lat="43.25469" lon="-1.49753">
        <ele>369.4</ele>
        <time>2022-09-04T09:34:13Z</time>
      </trkpt>
      <trkpt lat="43.25475" lon="-1.49751">
        <ele>368.4</ele>
        <time>2022-09-04T09:34:14Z</time>
      </trkpt>
      <trkpt lat="43.25481" lon="-1.4975">
        <ele>367.3</ele>
        <time>2022-09-04T09:34:15Z</time>
      </trkpt>
      <trkpt lat="43.25486" lon="-1.49753">
        <ele>366.4</ele>
        <time>2022-09-04T09:34:16Z</time>
      </trkpt>
      <trkpt lat="43.2549" lon="-1.49756">
        <ele>365.6</ele>
        <time>2022-09-04T09:34:17Z</time>
      </trkpt>
      <trkpt lat="43.25493" lon="-1.4976">
        <ele>364.9</ele>
        <time>2022-09-04T09:34:18Z</time>
      </trkpt>
      <trkpt lat="43.25496" lon="-1.49763">
        <ele>364.2</ele>
        <time>2022-09-04T09:34:19Z</time>
      </trkpt>
      <trkpt lat="43.25498" lon="-1.49768">
        <ele>363.6</ele>
        <time>2022-09-04T09:34:20Z</time>
      </trkpt>
      <trkpt lat="43.25498" lon="-1.49769">
        <ele>363.5</ele>
        <time>2022-09-04T09:34:21Z</time>
      </trkpt>
      <trkpt lat="43.255" lon="-1.49774">
        <ele>362.7</ele>
        <time>2022-09-04T09:34:22Z</time>
      </trkpt>
      <trkpt lat="43.25501" lon="-1.49776">
        <ele>362.5</ele>
        <time>2022-09-04T09:34:23Z</time>
      </trkpt>
      <trkpt lat="43.25504" lon="-1.49779">
        <ele>361.8</ele>
        <time>2022-09-04T09:34:24Z</time>
      </trkpt>
      <trkpt lat="43.25505" lon="-1.49779">
        <ele>361.6</ele>
        <time>2022-09-04T09:34:25Z</time>
      </trkpt>
      <trkpt lat="43.25508" lon="-1.49782">
        <ele>361</ele>
        <time>2022-09-04T09:34:26Z</time>
      </trkpt>
      <trkpt lat="43.25509" lon="-1.49783">
        <ele>360.7</ele>
        <time>2022-09-04T09:34:27Z</time>
      </trkpt>
      <trkpt lat="43.25511" lon="-1.49786">
        <ele>360.2</ele>
        <time>2022-09-04T09:34:28Z</time>
      </trkpt>
      <trkpt lat="43.25513" lon="-1.4979">
        <ele>359.6</ele>
        <time>2022-09-04T09:34:29Z</time>
      </trkpt>
      <trkpt lat="43.25515" lon="-1.49794">
        <ele>359</ele>
        <time>2022-09-04T09:34:30Z</time>
      </trkpt>
      <trkpt lat="43.25515" lon="-1.49795">
        <ele>358.9</ele>
        <time>2022-09-04T09:34:31Z</time>
      </trkpt>
      <trkpt lat="43.25515" lon="-1.49795">
        <ele>358.7</ele>
        <time>2022-09-04T09:34:32Z</time>
      </trkpt>
      <trkpt lat="43.25515" lon="-1.49796">
        <ele>358.6</ele>
        <time>2022-09-04T09:34:33Z</time>
      </trkpt>
      <trkpt lat="43.25516" lon="-1.49797">
        <ele>358.5</ele>
        <time>2022-09-04T09:34:34Z</time>
      </trkpt>
      <trkpt lat="43.25516" lon="-1.49798">
        <ele>358.4</ele>
        <time>2022-09-04T09:34:35Z</time>
      </trkpt>
      <trkpt lat="43.25516" lon="-1.49799">
        <ele>358.2</ele>
        <time>2022-09-04T09:34:36Z</time>
      </trkpt>
      <trkpt lat="43.25517" lon="-1.498">
        <ele>358.1</ele>
        <time>2022-09-04T09:34:37Z</time>
      </trkpt>
      <trkpt lat="43.25517" lon="-1.498">
        <ele>358</ele>
        <time>2022-09-04T09:34:38Z</time>
      </trkpt>
      <trkpt lat="43.25517" lon="-1.49801">
        <ele>357.8</ele>
        <time>2022-09-04T09:34:39Z</time>
      </trkpt>
      <trkpt lat="43.25517" lon="-1.49802">
        <ele>357.7</ele>
        <time>2022-09-04T09:34:40Z</time>
      </trkpt>
      <trkpt lat="43.25518" lon="-1.49803">
        <ele>357.6</ele>
        <time>2022-09-04T09:34:41Z</time>
      </trkpt>
      <trkpt lat="43.25518" lon="-1.49804">
        <ele>357.4</ele>
        <time>2022-09-04T09:34:42Z</time>
      </trkpt>
      <trkpt lat="43.25518" lon="-1.49805">
        <ele>357.3</ele>
        <time>2022-09-04T09:34:48Z</time>
      </trkpt>
      <trkpt lat="43.25519" lon="-1.49805">
        <ele>357.2</ele>
        <time>2022-09-04T09:34:49Z</time>
      </trkpt>
      <trkpt lat="43.25519" lon="-1.49806">
        <ele>359.7</ele>
        <time>2022-09-04T09:34:50Z</time>
      </trkpt>
      <trkpt lat="43.25517" lon="-1.49811">
        <ele>359.9</ele>
        <time>2022-09-04T09:34:51Z</time>
      </trkpt>
      <trkpt lat="43.25515" lon="-1.49817">
        <ele>360.3</ele>
        <time>2022-09-04T09:34:52Z</time>
      </trkpt>
      <trkpt lat="43.25513" lon="-1.49822">
        <ele>358.1</ele>
        <time>2022-09-04T09:34:53Z</time>
      </trkpt>
      <trkpt lat="43.25512" lon="-1.49827">
        <ele>357.3</ele>
        <time>2022-09-04T09:34:54Z</time>
      </trkpt>
      <trkpt lat="43.2551" lon="-1.49832">
        <ele>356.4</ele>
        <time>2022-09-04T09:34:55Z</time>
      </trkpt>
      <trkpt lat="43.25508" lon="-1.49836">
        <ele>355.5</ele>
        <time>2022-09-04T09:34:56Z</time>
      </trkpt>
      <trkpt lat="43.25507" lon="-1.49838">
        <ele>355.2</ele>
        <time>2022-09-04T09:34:57Z</time>
      </trkpt>
      <trkpt lat="43.25506" lon="-1.49842">
        <ele>354.3</ele>
        <time>2022-09-04T09:34:58Z</time>
      </trkpt>
      <trkpt lat="43.25506" lon="-1.49844">
        <ele>354</ele>
        <time>2022-09-04T09:34:59Z</time>
      </trkpt>
      <trkpt lat="43.25507" lon="-1.49845">
        <ele>353.7</ele>
        <time>2022-09-04T09:35:00Z</time>
      </trkpt>
      <trkpt lat="43.2551" lon="-1.49844">
        <ele>353.1</ele>
        <time>2022-09-04T09:35:01Z</time>
      </trkpt>
      <trkpt lat="43.25512" lon="-1.49843">
        <ele>352.2</ele>
        <time>2022-09-04T09:35:02Z</time>
      </trkpt>
      <trkpt lat="43.25516" lon="-1.49844">
        <ele>351.3</ele>
        <time>2022-09-04T09:35:03Z</time>
      </trkpt>
      <trkpt lat="43.25516" lon="-1.49844">
        <ele>351.1</ele>
        <time>2022-09-04T09:35:04Z</time>
      </trkpt>
      <trkpt lat="43.25518" lon="-1.49846">
        <ele>350.5</ele>
        <time>2022-09-04T09:35:05Z</time>
      </trkpt>
      <trkpt lat="43.25519" lon="-1.49847">
        <ele>350.3</ele>
        <time>2022-09-04T09:35:06Z</time>
      </trkpt>
      <trkpt lat="43.2552" lon="-1.49848">
        <ele>350</ele>
        <time>2022-09-04T09:35:07Z</time>
      </trkpt>
      <trkpt lat="43.25522" lon="-1.49852">
        <ele>349</ele>
        <time>2022-09-04T09:35:08Z</time>
      </trkpt>
      <trkpt lat="43.25523" lon="-1.49853">
        <ele>348.7</ele>
        <time>2022-09-04T09:35:09Z</time>
      </trkpt>
      <trkpt lat="43.25525" lon="-1.49855">
        <ele>348</ele>
        <time>2022-09-04T09:35:10Z</time>
      </trkpt>
      <trkpt lat="43.25528" lon="-1.49856">
        <ele>347.2</ele>
        <time>2022-09-04T09:35:11Z</time>
      </trkpt>
      <trkpt lat="43.2553" lon="-1.49857">
        <ele>346.6</ele>
        <time>2022-09-04T09:35:12Z</time>
      </trkpt>
      <trkpt lat="43.2553" lon="-1.49858">
        <ele>346.4</ele>
        <time>2022-09-04T09:35:13Z</time>
      </trkpt>
      <trkpt lat="43.2553" lon="-1.49859">
        <ele>346.2</ele>
        <time>2022-09-04T09:35:14Z</time>
      </trkpt>
      <trkpt lat="43.2553" lon="-1.49862">
        <ele>345.7</ele>
        <time>2022-09-04T09:35:15Z</time>
      </trkpt>
      <trkpt lat="43.25531" lon="-1.49863">
        <ele>345.5</ele>
        <time>2022-09-04T09:35:16Z</time>
      </trkpt>
      <trkpt lat="43.25531" lon="-1.49864">
        <ele>345.3</ele>
        <time>2022-09-04T09:35:17Z</time>
      </trkpt>
      <trkpt lat="43.25531" lon="-1.49865">
        <ele>345.1</ele>
        <time>2022-09-04T09:35:18Z</time>
      </trkpt>
      <trkpt lat="43.2553" lon="-1.49866">
        <ele>344.9</ele>
        <time>2022-09-04T09:35:19Z</time>
      </trkpt>
      <trkpt lat="43.2553" lon="-1.49867">
        <ele>344.8</ele>
        <time>2022-09-04T09:35:20Z</time>
      </trkpt>
      <trkpt lat="43.2553" lon="-1.49867">
        <ele>344.7</ele>
        <time>2022-09-04T09:35:21Z</time>
      </trkpt>
      <trkpt lat="43.2553" lon="-1.49867">
        <ele>344.7</ele>
        <time>2022-09-04T09:35:22Z</time>
      </trkpt>
      <trkpt lat="43.2553" lon="-1.49867">
        <ele>344.7</ele>
        <time>2022-09-04T09:35:23Z</time>
      </trkpt>
      <trkpt lat="43.2553" lon="-1.49867">
        <ele>344.7</ele>
        <time>2022-09-04T09:35:24Z</time>
      </trkpt>
      <trkpt lat="43.2553" lon="-1.49867">
        <ele>344.7</ele>
        <time>2022-09-04T09:35:25Z</time>
      </trkpt>
      <trkpt lat="43.2553" lon="-1.49868">
        <ele>344.6</ele>
        <time>2022-09-04T09:35:26Z</time>
      </trkpt>
      <trkpt lat="43.25531" lon="-1.49868">
        <ele>344.4</ele>
        <time>2022-09-04T09:35:27Z</time>
      </trkpt>
      <trkpt lat="43.25532" lon="-1.4987">
        <ele>344</ele>
        <time>2022-09-04T09:35:29Z</time>
      </trkpt>
      <trkpt lat="43.25533" lon="-1.49871">
        <ele>343.9</ele>
        <time>2022-09-04T09:35:30Z</time>
      </trkpt>
      <trkpt lat="43.25533" lon="-1.49871">
        <ele>343.7</ele>
        <time>2022-09-04T09:35:31Z</time>
      </trkpt>
      <trkpt lat="43.25533" lon="-1.49871">
        <ele>343.6</ele>
        <time>2022-09-04T09:35:32Z</time>
      </trkpt>
      <trkpt lat="43.25534" lon="-1.49872">
        <ele>343.5</ele>
        <time>2022-09-04T09:35:33Z</time>
      </trkpt>
      <trkpt lat="43.25534" lon="-1.49872">
        <ele>343.4</ele>
        <time>2022-09-04T09:35:34Z</time>
      </trkpt>
      <trkpt lat="43.25535" lon="-1.49872">
        <ele>343.3</ele>
        <time>2022-09-04T09:35:35Z</time>
      </trkpt>
      <trkpt lat="43.25535" lon="-1.49873">
        <ele>343.2</ele>
        <time>2022-09-04T09:35:36Z</time>
      </trkpt>
      <trkpt lat="43.25535" lon="-1.49873">
        <ele>343</ele>
        <time>2022-09-04T09:35:37Z</time>
      </trkpt>
      <trkpt lat="43.25536" lon="-1.49874">
        <ele>342.9</ele>
        <time>2022-09-04T09:35:38Z</time>
      </trkpt>
      <trkpt lat="43.25536" lon="-1.49874">
        <ele>342.8</ele>
        <time>2022-09-04T09:35:39Z</time>
      </trkpt>
      <trkpt lat="43.25536" lon="-1.49874">
        <ele>342.7</ele>
        <time>2022-09-04T09:35:44Z</time>
      </trkpt>
      <trkpt lat="43.25537" lon="-1.49875">
        <ele>342.6</ele>
        <time>2022-09-04T09:35:45Z</time>
      </trkpt>
      <trkpt lat="43.25537" lon="-1.49875">
        <ele>342.5</ele>
        <time>2022-09-04T09:35:46Z</time>
      </trkpt>
      <trkpt lat="43.25541" lon="-1.49877">
        <ele>341.5</ele>
        <time>2022-09-04T09:35:47Z</time>
      </trkpt>
      <trkpt lat="43.25542" lon="-1.49877">
        <ele>341.3</ele>
        <time>2022-09-04T09:35:48Z</time>
      </trkpt>
      <trkpt lat="43.25545" lon="-1.49879">
        <ele>340.5</ele>
        <time>2022-09-04T09:35:49Z</time>
      </trkpt>
      <trkpt lat="43.25546" lon="-1.4988">
        <ele>340.3</ele>
        <time>2022-09-04T09:35:50Z</time>
      </trkpt>
      <trkpt lat="43.25549" lon="-1.49883">
        <ele>339.7</ele>
        <time>2022-09-04T09:35:51Z</time>
      </trkpt>
      <trkpt lat="43.25554" lon="-1.49885">
        <ele>338.8</ele>
        <time>2022-09-04T09:35:52Z</time>
      </trkpt>
      <trkpt lat="43.25559" lon="-1.49887">
        <ele>337.9</ele>
        <time>2022-09-04T09:35:53Z</time>
      </trkpt>
      <trkpt lat="43.25565" lon="-1.49889">
        <ele>337.1</ele>
        <time>2022-09-04T09:35:54Z</time>
      </trkpt>
      <trkpt lat="43.25571" lon="-1.49891">
        <ele>336.3</ele>
        <time>2022-09-04T09:35:55Z</time>
      </trkpt>
      <trkpt lat="43.25576" lon="-1.49893">
        <ele>335.7</ele>
        <time>2022-09-04T09:35:56Z</time>
      </trkpt>
      <trkpt lat="43.25582" lon="-1.49895">
        <ele>335.2</ele>
        <time>2022-09-04T09:35:57Z</time>
      </trkpt>
      <trkpt lat="43.25587" lon="-1.49897">
        <ele>334.8</ele>
        <time>2022-09-04T09:35:58Z</time>
      </trkpt>
      <trkpt lat="43.25592" lon="-1.49899">
        <ele>334.6</ele>
        <time>2022-09-04T09:35:59Z</time>
      </trkpt>
      <trkpt lat="43.25597" lon="-1.49901">
        <ele>334.4</ele>
        <time>2022-09-04T09:36:00Z</time>
      </trkpt>
      <trkpt lat="43.25601" lon="-1.49902">
        <ele>334.2</ele>
        <time>2022-09-04T09:36:01Z</time>
      </trkpt>
      <trkpt lat="43.25605" lon="-1.49903">
        <ele>333.9</ele>
        <time>2022-09-04T09:36:02Z</time>
      </trkpt>
      <trkpt lat="43.25609" lon="-1.49902">
        <ele>333.5</ele>
        <time>2022-09-04T09:36:03Z</time>
      </trkpt>
      <trkpt lat="43.25613" lon="-1.49901">
        <ele>332.9</ele>
        <time>2022-09-04T09:36:04Z</time>
      </trkpt>
      <trkpt lat="43.25616" lon="-1.499">
        <ele>332.4</ele>
        <time>2022-09-04T09:36:05Z</time>
      </trkpt>
      <trkpt lat="43.2562" lon="-1.49899">
        <ele>331.8</ele>
        <time>2022-09-04T09:36:06Z</time>
      </trkpt>
      <trkpt lat="43.25624" lon="-1.49899">
        <ele>331.3</ele>
        <time>2022-09-04T09:36:07Z</time>
      </trkpt>
      <trkpt lat="43.25627" lon="-1.49899">
        <ele>330.7</ele>
        <time>2022-09-04T09:36:08Z</time>
      </trkpt>
      <trkpt lat="43.2563" lon="-1.499">
        <ele>330.2</ele>
        <time>2022-09-04T09:36:09Z</time>
      </trkpt>
      <trkpt lat="43.25633" lon="-1.49902">
        <ele>329.7</ele>
        <time>2022-09-04T09:36:10Z</time>
      </trkpt>
      <trkpt lat="43.25634" lon="-1.49903">
        <ele>329.5</ele>
        <time>2022-09-04T09:36:11Z</time>
      </trkpt>
      <trkpt lat="43.25636" lon="-1.49907">
        <ele>329</ele>
        <time>2022-09-04T09:36:12Z</time>
      </trkpt>
      <trkpt lat="43.2564" lon="-1.4991">
        <ele>328.3</ele>
        <time>2022-09-04T09:36:13Z</time>
      </trkpt>
      <trkpt lat="43.25646" lon="-1.49912">
        <ele>327.7</ele>
        <time>2022-09-04T09:36:14Z</time>
      </trkpt>
      <trkpt lat="43.25651" lon="-1.49913">
        <ele>327.1</ele>
        <time>2022-09-04T09:36:15Z</time>
      </trkpt>
      <trkpt lat="43.25657" lon="-1.49914">
        <ele>326.4</ele>
        <time>2022-09-04T09:36:16Z</time>
      </trkpt>
      <trkpt lat="43.2566" lon="-1.49915">
        <ele>325.9</ele>
        <time>2022-09-04T09:36:17Z</time>
      </trkpt>
      <trkpt lat="43.25663" lon="-1.49915">
        <ele>325.5</ele>
        <time>2022-09-04T09:36:18Z</time>
      </trkpt>
      <trkpt lat="43.25667" lon="-1.49915">
        <ele>324.9</ele>
        <time>2022-09-04T09:36:19Z</time>
      </trkpt>
      <trkpt lat="43.25668" lon="-1.49915">
        <ele>324.7</ele>
        <time>2022-09-04T09:36:20Z</time>
      </trkpt>
      <trkpt lat="43.25672" lon="-1.49915">
        <ele>324.1</ele>
        <time>2022-09-04T09:36:21Z</time>
      </trkpt>
      <trkpt lat="43.25673" lon="-1.49915">
        <ele>323.8</ele>
        <time>2022-09-04T09:36:22Z</time>
      </trkpt>
      <trkpt lat="43.25676" lon="-1.49914">
        <ele>323.3</ele>
        <time>2022-09-04T09:36:23Z</time>
      </trkpt>
      <trkpt lat="43.25679" lon="-1.49912">
        <ele>322.6</ele>
        <time>2022-09-04T09:36:24Z</time>
      </trkpt>
      <trkpt lat="43.25683" lon="-1.4991">
        <ele>321.9</ele>
        <time>2022-09-04T09:36:25Z</time>
      </trkpt>
      <trkpt lat="43.25686" lon="-1.49909">
        <ele>321.2</ele>
        <time>2022-09-04T09:36:26Z</time>
      </trkpt>
      <trkpt lat="43.25689" lon="-1.4991">
        <ele>320.7</ele>
        <time>2022-09-04T09:36:27Z</time>
      </trkpt>
      <trkpt lat="43.25692" lon="-1.49911">
        <ele>320.2</ele>
        <time>2022-09-04T09:36:28Z</time>
      </trkpt>
      <trkpt lat="43.25694" lon="-1.49914">
        <ele>319.8</ele>
        <time>2022-09-04T09:36:29Z</time>
      </trkpt>
      <trkpt lat="43.25697" lon="-1.49917">
        <ele>319.2</ele>
        <time>2022-09-04T09:36:30Z</time>
      </trkpt>
      <trkpt lat="43.257" lon="-1.49919">
        <ele>318.7</ele>
        <time>2022-09-04T09:36:31Z</time>
      </trkpt>
      <trkpt lat="43.25703" lon="-1.49921">
        <ele>318</ele>
        <time>2022-09-04T09:36:32Z</time>
      </trkpt>
      <trkpt lat="43.25707" lon="-1.49923">
        <ele>317.4</ele>
        <time>2022-09-04T09:36:33Z</time>
      </trkpt>
      <trkpt lat="43.25712" lon="-1.49926">
        <ele>316.5</ele>
        <time>2022-09-04T09:36:34Z</time>
      </trkpt>
      <trkpt lat="43.25719" lon="-1.49928">
        <ele>315.5</ele>
        <time>2022-09-04T09:36:35Z</time>
      </trkpt>
      <trkpt lat="43.25725" lon="-1.4993">
        <ele>314.7</ele>
        <time>2022-09-04T09:36:36Z</time>
      </trkpt>
      <trkpt lat="43.25731" lon="-1.49932">
        <ele>314.1</ele>
        <time>2022-09-04T09:36:37Z</time>
      </trkpt>
      <trkpt lat="43.25735" lon="-1.49934">
        <ele>313.5</ele>
        <time>2022-09-04T09:36:38Z</time>
      </trkpt>
      <trkpt lat="43.25739" lon="-1.49937">
        <ele>313.1</ele>
        <time>2022-09-04T09:36:39Z</time>
      </trkpt>
      <trkpt lat="43.25743" lon="-1.49939">
        <ele>312.6</ele>
        <time>2022-09-04T09:36:40Z</time>
      </trkpt>
      <trkpt lat="43.25748" lon="-1.49942">
        <ele>312</ele>
        <time>2022-09-04T09:36:41Z</time>
      </trkpt>
      <trkpt lat="43.25754" lon="-1.49944">
        <ele>311</ele>
        <time>2022-09-04T09:36:42Z</time>
      </trkpt>
      <trkpt lat="43.25762" lon="-1.49947">
        <ele>309.8</ele>
        <time>2022-09-04T09:36:43Z</time>
      </trkpt>
      <trkpt lat="43.25768" lon="-1.49949">
        <ele>308.8</ele>
        <time>2022-09-04T09:36:44Z</time>
      </trkpt>
      <trkpt lat="43.25772" lon="-1.49951">
        <ele>308</ele>
        <time>2022-09-04T09:36:45Z</time>
      </trkpt>
      <trkpt lat="43.25776" lon="-1.49952">
        <ele>307.4</ele>
        <time>2022-09-04T09:36:46Z</time>
      </trkpt>
      <trkpt lat="43.2578" lon="-1.49954">
        <ele>306.9</ele>
        <time>2022-09-04T09:36:47Z</time>
      </trkpt>
      <trkpt lat="43.25783" lon="-1.49956">
        <ele>306.5</ele>
        <time>2022-09-04T09:36:48Z</time>
      </trkpt>
      <trkpt lat="43.25786" lon="-1.49957">
        <ele>306.1</ele>
        <time>2022-09-04T09:36:49Z</time>
      </trkpt>
      <trkpt lat="43.25789" lon="-1.49957">
        <ele>305.7</ele>
        <time>2022-09-04T09:36:50Z</time>
      </trkpt>
      <trkpt lat="43.25793" lon="-1.49957">
        <ele>305.4</ele>
        <time>2022-09-04T09:36:51Z</time>
      </trkpt>
      <trkpt lat="43.25797" lon="-1.49958">
        <ele>305.1</ele>
        <time>2022-09-04T09:36:52Z</time>
      </trkpt>
      <trkpt lat="43.258" lon="-1.4996">
        <ele>304.9</ele>
        <time>2022-09-04T09:36:53Z</time>
      </trkpt>
      <trkpt lat="43.25804" lon="-1.49964">
        <ele>304.6</ele>
        <time>2022-09-04T09:36:54Z</time>
      </trkpt>
      <trkpt lat="43.25809" lon="-1.49969">
        <ele>304.2</ele>
        <time>2022-09-04T09:36:55Z</time>
      </trkpt>
      <trkpt lat="43.25815" lon="-1.49974">
        <ele>303.6</ele>
        <time>2022-09-04T09:36:56Z</time>
      </trkpt>
      <trkpt lat="43.25822" lon="-1.49978">
        <ele>302.9</ele>
        <time>2022-09-04T09:36:57Z</time>
      </trkpt>
      <trkpt lat="43.25828" lon="-1.4998">
        <ele>302</ele>
        <time>2022-09-04T09:36:58Z</time>
      </trkpt>
      <trkpt lat="43.25833" lon="-1.49983">
        <ele>301</ele>
        <time>2022-09-04T09:36:59Z</time>
      </trkpt>
      <trkpt lat="43.25838" lon="-1.49987">
        <ele>299.9</ele>
        <time>2022-09-04T09:37:00Z</time>
      </trkpt>
      <trkpt lat="43.25843" lon="-1.49991">
        <ele>298.9</ele>
        <time>2022-09-04T09:37:01Z</time>
      </trkpt>
      <trkpt lat="43.25848" lon="-1.49996">
        <ele>297.9</ele>
        <time>2022-09-04T09:37:02Z</time>
      </trkpt>
      <trkpt lat="43.25853" lon="-1.5">
        <ele>297</ele>
        <time>2022-09-04T09:37:03Z</time>
      </trkpt>
      <trkpt lat="43.25857" lon="-1.50003">
        <ele>296.1</ele>
        <time>2022-09-04T09:37:04Z</time>
      </trkpt>
      <trkpt lat="43.25861" lon="-1.50005">
        <ele>295.3</ele>
        <time>2022-09-04T09:37:05Z</time>
      </trkpt>
      <trkpt lat="43.25866" lon="-1.50007">
        <ele>294.4</ele>
        <time>2022-09-04T09:37:06Z</time>
      </trkpt>
      <trkpt lat="43.2587" lon="-1.50009">
        <ele>293.6</ele>
        <time>2022-09-04T09:37:07Z</time>
      </trkpt>
      <trkpt lat="43.25873" lon="-1.5001">
        <ele>293</ele>
        <time>2022-09-04T09:37:08Z</time>
      </trkpt>
      <trkpt lat="43.25875" lon="-1.50011">
        <ele>292.6</ele>
        <time>2022-09-04T09:37:09Z</time>
      </trkpt>
      <trkpt lat="43.25876" lon="-1.50012">
        <ele>292.3</ele>
        <time>2022-09-04T09:37:10Z</time>
      </trkpt>
      <trkpt lat="43.25876" lon="-1.50012">
        <ele>292.2</ele>
        <time>2022-09-04T09:37:11Z</time>
      </trkpt>
      <trkpt lat="43.25877" lon="-1.50012">
        <ele>292.1</ele>
        <time>2022-09-04T09:37:12Z</time>
      </trkpt>
      <trkpt lat="43.25876" lon="-1.50012">
        <ele>292.1</ele>
        <time>2022-09-04T09:37:13Z</time>
      </trkpt>
      <trkpt lat="43.25876" lon="-1.50011">
        <ele>292</ele>
        <time>2022-09-04T09:37:14Z</time>
      </trkpt>
      <trkpt lat="43.25876" lon="-1.50011">
        <ele>291.9</ele>
        <time>2022-09-04T09:37:15Z</time>
      </trkpt>
      <trkpt lat="43.25876" lon="-1.5001">
        <ele>291.9</ele>
        <time>2022-09-04T09:37:16Z</time>
      </trkpt>
      <trkpt lat="43.25876" lon="-1.5001">
        <ele>291.9</ele>
        <time>2022-09-04T09:37:17Z</time>
      </trkpt>
      <trkpt lat="43.25876" lon="-1.5001">
        <ele>291.8</ele>
        <time>2022-09-04T09:37:18Z</time>
      </trkpt>
      <trkpt lat="43.25877" lon="-1.50011">
        <ele>291.7</ele>
        <time>2022-09-04T09:37:19Z</time>
      </trkpt>
      <trkpt lat="43.25878" lon="-1.50011">
        <ele>291.5</ele>
        <time>2022-09-04T09:37:20Z</time>
      </trkpt>
      <trkpt lat="43.25879" lon="-1.50012">
        <ele>291.3</ele>
        <time>2022-09-04T09:37:21Z</time>
      </trkpt>
      <trkpt lat="43.25879" lon="-1.50012">
        <ele>291.3</ele>
        <time>2022-09-04T09:37:22Z</time>
      </trkpt>
      <trkpt lat="43.25879" lon="-1.50012">
        <ele>291.2</ele>
        <time>2022-09-04T09:37:23Z</time>
      </trkpt>
      <trkpt lat="43.25879" lon="-1.50013">
        <ele>291.1</ele>
        <time>2022-09-04T09:37:24Z</time>
      </trkpt>
      <trkpt lat="43.25879" lon="-1.50014">
        <ele>291</ele>
        <time>2022-09-04T09:37:25Z</time>
      </trkpt>
      <trkpt lat="43.2588" lon="-1.50014">
        <ele>290.9</ele>
        <time>2022-09-04T09:37:26Z</time>
      </trkpt>
      <trkpt lat="43.2588" lon="-1.50014">
        <ele>290.9</ele>
        <time>2022-09-04T09:37:27Z</time>
      </trkpt>
      <trkpt lat="43.25879" lon="-1.50014">
        <ele>290.7</ele>
        <time>2022-09-04T09:37:28Z</time>
      </trkpt>
      <trkpt lat="43.25878" lon="-1.50015">
        <ele>290.4</ele>
        <time>2022-09-04T09:37:29Z</time>
      </trkpt>
      <trkpt lat="43.25878" lon="-1.50015">
        <ele>290.4</ele>
        <time>2022-09-04T09:37:30Z</time>
      </trkpt>
      <trkpt lat="43.25877" lon="-1.50016">
        <ele>290.3</ele>
        <time>2022-09-04T09:37:31Z</time>
      </trkpt>
      <trkpt lat="43.25878" lon="-1.50015">
        <ele>290.3</ele>
        <time>2022-09-04T09:37:32Z</time>
      </trkpt>
      <trkpt lat="43.25878" lon="-1.50015">
        <ele>290.2</ele>
        <time>2022-09-04T09:37:33Z</time>
      </trkpt>
      <trkpt lat="43.25878" lon="-1.50015">
        <ele>290.2</ele>
        <time>2022-09-04T09:37:34Z</time>
      </trkpt>
      <trkpt lat="43.25878" lon="-1.50015">
        <ele>290.2</ele>
        <time>2022-09-04T09:37:35Z</time>
      </trkpt>
      <trkpt lat="43.25878" lon="-1.50015">
        <ele>290.2</ele>
        <time>2022-09-04T09:37:36Z</time>
      </trkpt>
      <trkpt lat="43.25878" lon="-1.50015">
        <ele>290.2</ele>
        <time>2022-09-04T09:37:37Z</time>
      </trkpt>
      <trkpt lat="43.25878" lon="-1.50015">
        <ele>290.2</ele>
        <time>2022-09-04T09:37:38Z</time>
      </trkpt>
      <trkpt lat="43.25878" lon="-1.50015">
        <ele>290.2</ele>
        <time>2022-09-04T09:37:39Z</time>
      </trkpt>
      <trkpt lat="43.25878" lon="-1.50014">
        <ele>290</ele>
        <time>2022-09-04T09:37:40Z</time>
      </trkpt>
      <trkpt lat="43.25881" lon="-1.50015">
        <ele>289.5</ele>
        <time>2022-09-04T09:37:42Z</time>
      </trkpt>
      <trkpt lat="43.25881" lon="-1.50014">
        <ele>289.4</ele>
        <time>2022-09-04T09:37:43Z</time>
      </trkpt>
      <trkpt lat="43.25882" lon="-1.50013">
        <ele>289.2</ele>
        <time>2022-09-04T09:37:44Z</time>
      </trkpt>
      <trkpt lat="43.25883" lon="-1.50013">
        <ele>289</ele>
        <time>2022-09-04T09:37:45Z</time>
      </trkpt>
      <trkpt lat="43.25883" lon="-1.50012">
        <ele>288.8</ele>
        <time>2022-09-04T09:37:46Z</time>
      </trkpt>
      <trkpt lat="43.25884" lon="-1.50011">
        <ele>288.6</ele>
        <time>2022-09-04T09:37:47Z</time>
      </trkpt>
      <trkpt lat="43.25885" lon="-1.50011">
        <ele>288.5</ele>
        <time>2022-09-04T09:37:48Z</time>
      </trkpt>
      <trkpt lat="43.25886" lon="-1.50012">
        <ele>288.2</ele>
        <time>2022-09-04T09:37:49Z</time>
      </trkpt>
      <trkpt lat="43.25889" lon="-1.50017">
        <ele>287.3</ele>
        <time>2022-09-04T09:37:51Z</time>
      </trkpt>
      <trkpt lat="43.2589" lon="-1.5002">
        <ele>286.6</ele>
        <time>2022-09-04T09:37:52Z</time>
      </trkpt>
      <trkpt lat="43.25893" lon="-1.50026">
        <ele>285.7</ele>
        <time>2022-09-04T09:37:54Z</time>
      </trkpt>
      <trkpt lat="43.25894" lon="-1.50029">
        <ele>285.3</ele>
        <time>2022-09-04T09:37:55Z</time>
      </trkpt>
      <trkpt lat="43.25895" lon="-1.5003">
        <ele>285.1</ele>
        <time>2022-09-04T09:37:56Z</time>
      </trkpt>
      <trkpt lat="43.25895" lon="-1.50033">
        <ele>284.8</ele>
        <time>2022-09-04T09:37:57Z</time>
      </trkpt>
      <trkpt lat="43.25895" lon="-1.50034">
        <ele>284.6</ele>
        <time>2022-09-04T09:37:58Z</time>
      </trkpt>
      <trkpt lat="43.25895" lon="-1.50036">
        <ele>284.5</ele>
        <time>2022-09-04T09:37:59Z</time>
      </trkpt>
      <trkpt lat="43.25897" lon="-1.5004">
        <ele>283.9</ele>
        <time>2022-09-04T09:38:00Z</time>
      </trkpt>
      <trkpt lat="43.25898" lon="-1.50042">
        <ele>283.6</ele>
        <time>2022-09-04T09:38:01Z</time>
      </trkpt>
      <trkpt lat="43.25901" lon="-1.50046">
        <ele>283</ele>
        <time>2022-09-04T09:38:02Z</time>
      </trkpt>
      <trkpt lat="43.25905" lon="-1.5005">
        <ele>282.3</ele>
        <time>2022-09-04T09:38:03Z</time>
      </trkpt>
      <trkpt lat="43.25911" lon="-1.50055">
        <ele>281.3</ele>
        <time>2022-09-04T09:38:04Z</time>
      </trkpt>
      <trkpt lat="43.25917" lon="-1.50059">
        <ele>280.3</ele>
        <time>2022-09-04T09:38:05Z</time>
      </trkpt>
      <trkpt lat="43.25922" lon="-1.50063">
        <ele>279.6</ele>
        <time>2022-09-04T09:38:06Z</time>
      </trkpt>
      <trkpt lat="43.25927" lon="-1.50065">
        <ele>278.8</ele>
        <time>2022-09-04T09:38:07Z</time>
      </trkpt>
      <trkpt lat="43.25933" lon="-1.50067">
        <ele>278.1</ele>
        <time>2022-09-04T09:38:08Z</time>
      </trkpt>
      <trkpt lat="43.25939" lon="-1.50068">
        <ele>277.4</ele>
        <time>2022-09-04T09:38:09Z</time>
      </trkpt>
      <trkpt lat="43.25942" lon="-1.50069">
        <ele>276.8</ele>
        <time>2022-09-04T09:38:10Z</time>
      </trkpt>
      <trkpt lat="43.2595" lon="-1.50073">
        <ele>275.7</ele>
        <time>2022-09-04T09:38:12Z</time>
      </trkpt>
      <trkpt lat="43.25956" lon="-1.50074">
        <ele>275</ele>
        <time>2022-09-04T09:38:13Z</time>
      </trkpt>
      <trkpt lat="43.2596" lon="-1.50075">
        <ele>274.5</ele>
        <time>2022-09-04T09:38:14Z</time>
      </trkpt>
      <trkpt lat="43.25964" lon="-1.50075">
        <ele>274.1</ele>
        <time>2022-09-04T09:38:15Z</time>
      </trkpt>
      <trkpt lat="43.25968" lon="-1.50074">
        <ele>273.7</ele>
        <time>2022-09-04T09:38:16Z</time>
      </trkpt>
      <trkpt lat="43.25971" lon="-1.50074">
        <ele>273.3</ele>
        <time>2022-09-04T09:38:17Z</time>
      </trkpt>
      <trkpt lat="43.25976" lon="-1.50073">
        <ele>272.9</ele>
        <time>2022-09-04T09:38:18Z</time>
      </trkpt>
      <trkpt lat="43.25981" lon="-1.50072">
        <ele>272.4</ele>
        <time>2022-09-04T09:38:19Z</time>
      </trkpt>
      <trkpt lat="43.25985" lon="-1.50072">
        <ele>272.1</ele>
        <time>2022-09-04T09:38:20Z</time>
      </trkpt>
      <trkpt lat="43.25989" lon="-1.50072">
        <ele>271.7</ele>
        <time>2022-09-04T09:38:21Z</time>
      </trkpt>
      <trkpt lat="43.25993" lon="-1.50071">
        <ele>271.5</ele>
        <time>2022-09-04T09:38:22Z</time>
      </trkpt>
      <trkpt lat="43.25997" lon="-1.50071">
        <ele>271.2</ele>
        <time>2022-09-04T09:38:23Z</time>
      </trkpt>
      <trkpt lat="43.26001" lon="-1.5007">
        <ele>271</ele>
        <time>2022-09-04T09:38:24Z</time>
      </trkpt>
      <trkpt lat="43.26007" lon="-1.50069">
        <ele>270.7</ele>
        <time>2022-09-04T09:38:25Z</time>
      </trkpt>
      <trkpt lat="43.26012" lon="-1.5007">
        <ele>270.5</ele>
        <time>2022-09-04T09:38:26Z</time>
      </trkpt>
      <trkpt lat="43.26016" lon="-1.5007">
        <ele>270.4</ele>
        <time>2022-09-04T09:38:27Z</time>
      </trkpt>
      <trkpt lat="43.26019" lon="-1.50069">
        <ele>270.4</ele>
        <time>2022-09-04T09:38:28Z</time>
      </trkpt>
      <trkpt lat="43.26023" lon="-1.50068">
        <ele>270.3</ele>
        <time>2022-09-04T09:38:29Z</time>
      </trkpt>
      <trkpt lat="43.26029" lon="-1.50066">
        <ele>270.2</ele>
        <time>2022-09-04T09:38:30Z</time>
      </trkpt>
      <trkpt lat="43.26035" lon="-1.50064">
        <ele>270</ele>
        <time>2022-09-04T09:38:31Z</time>
      </trkpt>
      <trkpt lat="43.2604" lon="-1.50061">
        <ele>269.8</ele>
        <time>2022-09-04T09:38:32Z</time>
      </trkpt>
      <trkpt lat="43.26044" lon="-1.50059">
        <ele>269.7</ele>
        <time>2022-09-04T09:38:33Z</time>
      </trkpt>
      <trkpt lat="43.26047" lon="-1.50057">
        <ele>269.6</ele>
        <time>2022-09-04T09:38:34Z</time>
      </trkpt>
      <trkpt lat="43.26049" lon="-1.50055">
        <ele>269.4</ele>
        <time>2022-09-04T09:38:35Z</time>
      </trkpt>
      <trkpt lat="43.26052" lon="-1.50052">
        <ele>269.3</ele>
        <time>2022-09-04T09:38:36Z</time>
      </trkpt>
      <trkpt lat="43.26054" lon="-1.50049">
        <ele>269.1</ele>
        <time>2022-09-04T09:38:37Z</time>
      </trkpt>
      <trkpt lat="43.26057" lon="-1.50046">
        <ele>268.9</ele>
        <time>2022-09-04T09:38:38Z</time>
      </trkpt>
      <trkpt lat="43.2606" lon="-1.50043">
        <ele>268.7</ele>
        <time>2022-09-04T09:38:39Z</time>
      </trkpt>
      <trkpt lat="43.26063" lon="-1.5004">
        <ele>268.5</ele>
        <time>2022-09-04T09:38:40Z</time>
      </trkpt>
      <trkpt lat="43.26066" lon="-1.50037">
        <ele>268.3</ele>
        <time>2022-09-04T09:38:41Z</time>
      </trkpt>
      <trkpt lat="43.26069" lon="-1.50034">
        <ele>268.1</ele>
        <time>2022-09-04T09:38:42Z</time>
      </trkpt>
      <trkpt lat="43.26072" lon="-1.50031">
        <ele>267.9</ele>
        <time>2022-09-04T09:38:43Z</time>
      </trkpt>
      <trkpt lat="43.26075" lon="-1.50028">
        <ele>267.7</ele>
        <time>2022-09-04T09:38:44Z</time>
      </trkpt>
      <trkpt lat="43.26077" lon="-1.50025">
        <ele>267.5</ele>
        <time>2022-09-04T09:38:45Z</time>
      </trkpt>
      <trkpt lat="43.26079" lon="-1.50022">
        <ele>267.3</ele>
        <time>2022-09-04T09:38:46Z</time>
      </trkpt>
      <trkpt lat="43.26081" lon="-1.50019">
        <ele>267.1</ele>
        <time>2022-09-04T09:38:47Z</time>
      </trkpt>
      <trkpt lat="43.26082" lon="-1.50015">
        <ele>267</ele>
        <time>2022-09-04T09:38:48Z</time>
      </trkpt>
      <trkpt lat="43.26083" lon="-1.50014">
        <ele>266.9</ele>
        <time>2022-09-04T09:38:49Z</time>
      </trkpt>
      <trkpt lat="43.26083" lon="-1.50011">
        <ele>266.8</ele>
        <time>2022-09-04T09:38:50Z</time>
      </trkpt>
      <trkpt lat="43.26084" lon="-1.50011">
        <ele>266.8</ele>
        <time>2022-09-04T09:38:51Z</time>
      </trkpt>
      <trkpt lat="43.26086" lon="-1.50011">
        <ele>266.7</ele>
        <time>2022-09-04T09:38:52Z</time>
      </trkpt>
      <trkpt lat="43.26089" lon="-1.50012">
        <ele>266.6</ele>
        <time>2022-09-04T09:38:53Z</time>
      </trkpt>
      <trkpt lat="43.2609" lon="-1.50013">
        <ele>266.5</ele>
        <time>2022-09-04T09:38:54Z</time>
      </trkpt>
      <trkpt lat="43.26092" lon="-1.50013">
        <ele>266.5</ele>
        <time>2022-09-04T09:38:55Z</time>
      </trkpt>
      <trkpt lat="43.26092" lon="-1.50013">
        <ele>266.5</ele>
        <time>2022-09-04T09:38:56Z</time>
      </trkpt>
      <trkpt lat="43.26092" lon="-1.50012">
        <ele>266.5</ele>
        <time>2022-09-04T09:38:57Z</time>
      </trkpt>
      <trkpt lat="43.26092" lon="-1.50012">
        <ele>266.5</ele>
        <time>2022-09-04T09:38:58Z</time>
      </trkpt>
      <trkpt lat="43.26092" lon="-1.50012">
        <ele>266.5</ele>
        <time>2022-09-04T09:38:59Z</time>
      </trkpt>
      <trkpt lat="43.26092" lon="-1.50012">
        <ele>266.5</ele>
        <time>2022-09-04T09:39:00Z</time>
      </trkpt>
      <trkpt lat="43.26092" lon="-1.50012">
        <ele>266.5</ele>
        <time>2022-09-04T09:39:01Z</time>
      </trkpt>
      <trkpt lat="43.26092" lon="-1.50012">
        <ele>266.5</ele>
        <time>2022-09-04T09:39:02Z</time>
      </trkpt>
      <trkpt lat="43.26092" lon="-1.50012">
        <ele>266.5</ele>
        <time>2022-09-04T09:39:03Z</time>
      </trkpt>
      <trkpt lat="43.26092" lon="-1.50012">
        <ele>266.5</ele>
        <time>2022-09-04T09:39:04Z</time>
      </trkpt>
      <trkpt lat="43.26092" lon="-1.50012">
        <ele>266.5</ele>
        <time>2022-09-04T09:39:05Z</time>
      </trkpt>
      <trkpt lat="43.26092" lon="-1.50012">
        <ele>266.5</ele>
        <time>2022-09-04T09:39:06Z</time>
      </trkpt>
      <trkpt lat="43.26092" lon="-1.50012">
        <ele>266.5</ele>
        <time>2022-09-04T09:39:07Z</time>
      </trkpt>
      <trkpt lat="43.26093" lon="-1.5001">
        <ele>266.4</ele>
        <time>2022-09-04T09:39:08Z</time>
      </trkpt>
      <trkpt lat="43.26095" lon="-1.50008">
        <ele>266.4</ele>
        <time>2022-09-04T09:39:09Z</time>
      </trkpt>
      <trkpt lat="43.26099" lon="-1.50005">
        <ele>266.4</ele>
        <time>2022-09-04T09:39:10Z</time>
      </trkpt>
      <trkpt lat="43.26102" lon="-1.50002">
        <ele>268.2</ele>
        <time>2022-09-04T09:39:11Z</time>
      </trkpt>
      <trkpt lat="43.26105" lon="-1.49998">
        <ele>269.8</ele>
        <time>2022-09-04T09:39:12Z</time>
      </trkpt>
      <trkpt lat="43.26107" lon="-1.49995">
        <ele>271.2</ele>
        <time>2022-09-04T09:39:13Z</time>
      </trkpt>
      <trkpt lat="43.2611" lon="-1.49991">
        <ele>270.9</ele>
        <time>2022-09-04T09:39:14Z</time>
      </trkpt>
      <trkpt lat="43.26113" lon="-1.49987">
        <ele>270.4</ele>
        <time>2022-09-04T09:39:15Z</time>
      </trkpt>
      <trkpt lat="43.26115" lon="-1.49982">
        <ele>270</ele>
        <time>2022-09-04T09:39:16Z</time>
      </trkpt>
      <trkpt lat="43.26116" lon="-1.49977">
        <ele>269.6</ele>
        <time>2022-09-04T09:39:17Z</time>
      </trkpt>
      <trkpt lat="43.26115" lon="-1.49972">
        <ele>269.1</ele>
        <time>2022-09-04T09:39:18Z</time>
      </trkpt>
      <trkpt lat="43.26112" lon="-1.49967">
        <ele>268.7</ele>
        <time>2022-09-04T09:39:19Z</time>
      </trkpt>
      <trkpt lat="43.26109" lon="-1.49962">
        <ele>268.1</ele>
        <time>2022-09-04T09:39:20Z</time>
      </trkpt>
      <trkpt lat="43.26104" lon="-1.49959">
        <ele>267.5</ele>
        <time>2022-09-04T09:39:21Z</time>
      </trkpt>
      <trkpt lat="43.26099" lon="-1.49956">
        <ele>266.9</ele>
        <time>2022-09-04T09:39:22Z</time>
      </trkpt>
      <trkpt lat="43.26095" lon="-1.49953">
        <ele>266.4</ele>
        <time>2022-09-04T09:39:23Z</time>
      </trkpt>
      <trkpt lat="43.26091" lon="-1.4995">
        <ele>265.9</ele>
        <time>2022-09-04T09:39:24Z</time>
      </trkpt>
      <trkpt lat="43.26089" lon="-1.49947">
        <ele>265.6</ele>
        <time>2022-09-04T09:39:25Z</time>
      </trkpt>
      <trkpt lat="43.26087" lon="-1.49943">
        <ele>265.2</ele>
        <time>2022-09-04T09:39:26Z</time>
      </trkpt>
      <trkpt lat="43.26087" lon="-1.49938">
        <ele>264.9</ele>
        <time>2022-09-04T09:39:27Z</time>
      </trkpt>
      <trkpt lat="43.26088" lon="-1.49934">
        <ele>264.6</ele>
        <time>2022-09-04T09:39:28Z</time>
      </trkpt>
      <trkpt lat="43.26089" lon="-1.49931">
        <ele>264.3</ele>
        <time>2022-09-04T09:39:29Z</time>
      </trkpt>
      <trkpt lat="43.26092" lon="-1.49929">
        <ele>264</ele>
        <time>2022-09-04T09:39:30Z</time>
      </trkpt>
      <trkpt lat="43.26097" lon="-1.49929">
        <ele>263.3</ele>
        <time>2022-09-04T09:39:31Z</time>
      </trkpt>
      <trkpt lat="43.26106" lon="-1.49928">
        <ele>256.6</ele>
        <time>2022-09-04T09:39:32Z</time>
      </trkpt>
      <trkpt lat="43.26114" lon="-1.49927">
        <ele>254.7</ele>
        <time>2022-09-04T09:39:33Z</time>
      </trkpt>
      <trkpt lat="43.26122" lon="-1.49927">
        <ele>253.1</ele>
        <time>2022-09-04T09:39:34Z</time>
      </trkpt>
      <trkpt lat="43.26129" lon="-1.49929">
        <ele>251.6</ele>
        <time>2022-09-04T09:39:35Z</time>
      </trkpt>
      <trkpt lat="43.26137" lon="-1.49931">
        <ele>250.1</ele>
        <time>2022-09-04T09:39:36Z</time>
      </trkpt>
      <trkpt lat="43.26144" lon="-1.49934">
        <ele>248.7</ele>
        <time>2022-09-04T09:39:37Z</time>
      </trkpt>
      <trkpt lat="43.2615" lon="-1.49937">
        <ele>247.3</ele>
        <time>2022-09-04T09:39:38Z</time>
      </trkpt>
      <trkpt lat="43.26155" lon="-1.49939">
        <ele>246.2</ele>
        <time>2022-09-04T09:39:39Z</time>
      </trkpt>
      <trkpt lat="43.26165" lon="-1.49943">
        <ele>244</ele>
        <time>2022-09-04T09:39:41Z</time>
      </trkpt>
      <trkpt lat="43.2617" lon="-1.49945">
        <ele>242.8</ele>
        <time>2022-09-04T09:39:42Z</time>
      </trkpt>
      <trkpt lat="43.26175" lon="-1.49949">
        <ele>241.3</ele>
        <time>2022-09-04T09:39:43Z</time>
      </trkpt>
      <trkpt lat="43.2618" lon="-1.49954">
        <ele>239.9</ele>
        <time>2022-09-04T09:39:44Z</time>
      </trkpt>
      <trkpt lat="43.26183" lon="-1.49959">
        <ele>238.7</ele>
        <time>2022-09-04T09:39:45Z</time>
      </trkpt>
      <trkpt lat="43.26187" lon="-1.49965">
        <ele>237.2</ele>
        <time>2022-09-04T09:39:46Z</time>
      </trkpt>
      <trkpt lat="43.26192" lon="-1.49973">
        <ele>235.2</ele>
        <time>2022-09-04T09:39:47Z</time>
      </trkpt>
      <trkpt lat="43.26198" lon="-1.49982">
        <ele>232.8</ele>
        <time>2022-09-04T09:39:48Z</time>
      </trkpt>
      <trkpt lat="43.26205" lon="-1.4999">
        <ele>230.3</ele>
        <time>2022-09-04T09:39:49Z</time>
      </trkpt>
      <trkpt lat="43.26211" lon="-1.49998">
        <ele>228.1</ele>
        <time>2022-09-04T09:39:50Z</time>
      </trkpt>
      <trkpt lat="43.26218" lon="-1.50004">
        <ele>226.1</ele>
        <time>2022-09-04T09:39:51Z</time>
      </trkpt>
      <trkpt lat="43.26224" lon="-1.50009">
        <ele>224.1</ele>
        <time>2022-09-04T09:39:52Z</time>
      </trkpt>
      <trkpt lat="43.26231" lon="-1.50013">
        <ele>222.2</ele>
        <time>2022-09-04T09:39:53Z</time>
      </trkpt>
      <trkpt lat="43.26238" lon="-1.50015">
        <ele>221.1</ele>
        <time>2022-09-04T09:39:54Z</time>
      </trkpt>
      <trkpt lat="43.26245" lon="-1.50014">
        <ele>220.2</ele>
        <time>2022-09-04T09:39:55Z</time>
      </trkpt>
      <trkpt lat="43.26251" lon="-1.50013">
        <ele>219.4</ele>
        <time>2022-09-04T09:39:56Z</time>
      </trkpt>
      <trkpt lat="43.26257" lon="-1.50013">
        <ele>218.7</ele>
        <time>2022-09-04T09:39:57Z</time>
      </trkpt>
      <trkpt lat="43.26262" lon="-1.50013">
        <ele>215.2</ele>
        <time>2022-09-04T09:39:58Z</time>
      </trkpt>
      <trkpt lat="43.26266" lon="-1.50013">
        <ele>215.3</ele>
        <time>2022-09-04T09:39:59Z</time>
      </trkpt>
      <trkpt lat="43.26269" lon="-1.50012">
        <ele>215.3</ele>
        <time>2022-09-04T09:40:00Z</time>
      </trkpt>
      <trkpt lat="43.26271" lon="-1.50012">
        <ele>211.8</ele>
        <time>2022-09-04T09:40:01Z</time>
      </trkpt>
      <trkpt lat="43.26272" lon="-1.50011">
        <ele>211.8</ele>
        <time>2022-09-04T09:40:02Z</time>
      </trkpt>
      <trkpt lat="43.2627" lon="-1.50009">
        <ele>215.4</ele>
        <time>2022-09-04T09:40:03Z</time>
      </trkpt>
      <trkpt lat="43.26269" lon="-1.50008">
        <ele>215.4</ele>
        <time>2022-09-04T09:40:04Z</time>
      </trkpt>
      <trkpt lat="43.26269" lon="-1.50007">
        <ele>215.4</ele>
        <time>2022-09-04T09:40:05Z</time>
      </trkpt>
      <trkpt lat="43.26268" lon="-1.50007">
        <ele>215.4</ele>
        <time>2022-09-04T09:40:06Z</time>
      </trkpt>
      <trkpt lat="43.26268" lon="-1.50007">
        <ele>215.5</ele>
        <time>2022-09-04T09:40:07Z</time>
      </trkpt>
      <trkpt lat="43.26268" lon="-1.50007">
        <ele>215.5</ele>
        <time>2022-09-04T09:40:08Z</time>
      </trkpt>
      <trkpt lat="43.26268" lon="-1.50007">
        <ele>215.5</ele>
        <time>2022-09-04T09:40:09Z</time>
      </trkpt>
      <trkpt lat="43.26268" lon="-1.50007">
        <ele>215.5</ele>
        <time>2022-09-04T09:40:10Z</time>
      </trkpt>
      <trkpt lat="43.26268" lon="-1.50007">
        <ele>215.6</ele>
        <time>2022-09-04T09:40:11Z</time>
      </trkpt>
      <trkpt lat="43.26268" lon="-1.50007">
        <ele>215.6</ele>
        <time>2022-09-04T09:40:12Z</time>
      </trkpt>
      <trkpt lat="43.26268" lon="-1.50007">
        <ele>215.6</ele>
        <time>2022-09-04T09:40:13Z</time>
      </trkpt>
      <trkpt lat="43.26268" lon="-1.50007">
        <ele>215.6</ele>
        <time>2022-09-04T09:40:14Z</time>
      </trkpt>
      <trkpt lat="43.26269" lon="-1.50007">
        <ele>215.7</ele>
        <time>2022-09-04T09:40:15Z</time>
      </trkpt>
      <trkpt lat="43.2627" lon="-1.50007">
        <ele>215.7</ele>
        <time>2022-09-04T09:40:16Z</time>
      </trkpt>
      <trkpt lat="43.26271" lon="-1.50007">
        <ele>212.1</ele>
        <time>2022-09-04T09:40:22Z</time>
      </trkpt>
      <trkpt lat="43.26272" lon="-1.50007">
        <ele>212.2</ele>
        <time>2022-09-04T09:40:23Z</time>
      </trkpt>
      <trkpt lat="43.26273" lon="-1.50007">
        <ele>212.2</ele>
        <time>2022-09-04T09:40:24Z</time>
      </trkpt>
      <trkpt lat="43.26274" lon="-1.50007">
        <ele>212.2</ele>
        <time>2022-09-04T09:40:25Z</time>
      </trkpt>
      <trkpt lat="43.26277" lon="-1.50008">
        <ele>212.2</ele>
        <time>2022-09-04T09:40:26Z</time>
      </trkpt>
      <trkpt lat="43.26279" lon="-1.50009">
        <ele>212.3</ele>
        <time>2022-09-04T09:40:27Z</time>
      </trkpt>
      <trkpt lat="43.26281" lon="-1.50011">
        <ele>212.3</ele>
        <time>2022-09-04T09:40:28Z</time>
      </trkpt>
      <trkpt lat="43.26283" lon="-1.50014">
        <ele>208.5</ele>
        <time>2022-09-04T09:40:29Z</time>
      </trkpt>
      <trkpt lat="43.26286" lon="-1.50018">
        <ele>208</ele>
        <time>2022-09-04T09:40:30Z</time>
      </trkpt>
      <trkpt lat="43.26288" lon="-1.50022">
        <ele>208</ele>
        <time>2022-09-04T09:40:31Z</time>
      </trkpt>
      <trkpt lat="43.2629" lon="-1.50027">
        <ele>208</ele>
        <time>2022-09-04T09:40:32Z</time>
      </trkpt>
      <trkpt lat="43.26291" lon="-1.50031">
        <ele>208</ele>
        <time>2022-09-04T09:40:33Z</time>
      </trkpt>
      <trkpt lat="43.26292" lon="-1.50036">
        <ele>207</ele>
        <time>2022-09-04T09:40:34Z</time>
      </trkpt>
      <trkpt lat="43.26293" lon="-1.50041">
        <ele>207</ele>
        <time>2022-09-04T09:40:35Z</time>
      </trkpt>
      <trkpt lat="43.26295" lon="-1.50046">
        <ele>207</ele>
        <time>2022-09-04T09:40:36Z</time>
      </trkpt>
      <trkpt lat="43.26297" lon="-1.5005">
        <ele>201.7</ele>
        <time>2022-09-04T09:40:37Z</time>
      </trkpt>
      <trkpt lat="43.26299" lon="-1.50052">
        <ele>201.7</ele>
        <time>2022-09-04T09:40:38Z</time>
      </trkpt>
      <trkpt lat="43.263" lon="-1.50052">
        <ele>201.8</ele>
        <time>2022-09-04T09:40:39Z</time>
      </trkpt>
      <trkpt lat="43.26303" lon="-1.50054">
        <ele>201.8</ele>
        <time>2022-09-04T09:40:40Z</time>
      </trkpt>
      <trkpt lat="43.26304" lon="-1.50054">
        <ele>201.8</ele>
        <time>2022-09-04T09:40:41Z</time>
      </trkpt>
      <trkpt lat="43.26308" lon="-1.50058">
        <ele>201.8</ele>
        <time>2022-09-04T09:40:42Z</time>
      </trkpt>
      <trkpt lat="43.26309" lon="-1.50059">
        <ele>197.4</ele>
        <time>2022-09-04T09:40:43Z</time>
      </trkpt>
      <trkpt lat="43.26309" lon="-1.50063">
        <ele>197.4</ele>
        <time>2022-09-04T09:40:44Z</time>
      </trkpt>
      <trkpt lat="43.26308" lon="-1.50069">
        <ele>199.6</ele>
        <time>2022-09-04T09:40:45Z</time>
      </trkpt>
      <trkpt lat="43.26306" lon="-1.50074">
        <ele>199.7</ele>
        <time>2022-09-04T09:40:46Z</time>
      </trkpt>
      <trkpt lat="43.26305" lon="-1.50079">
        <ele>199.7</ele>
        <time>2022-09-04T09:40:47Z</time>
      </trkpt>
      <trkpt lat="43.26302" lon="-1.50084">
        <ele>196.2</ele>
        <time>2022-09-04T09:40:48Z</time>
      </trkpt>
      <trkpt lat="43.26299" lon="-1.50087">
        <ele>196.2</ele>
        <time>2022-09-04T09:40:49Z</time>
      </trkpt>
      <trkpt lat="43.26296" lon="-1.5009">
        <ele>196.3</ele>
        <time>2022-09-04T09:40:50Z</time>
      </trkpt>
      <trkpt lat="43.26293" lon="-1.50093">
        <ele>200</ele>
        <time>2022-09-04T09:40:51Z</time>
      </trkpt>
      <trkpt lat="43.2629" lon="-1.50096">
        <ele>200</ele>
        <time>2022-09-04T09:40:52Z</time>
      </trkpt>
      <trkpt lat="43.26287" lon="-1.50099">
        <ele>200</ele>
        <time>2022-09-04T09:40:53Z</time>
      </trkpt>
      <trkpt lat="43.26284" lon="-1.50102">
        <ele>196</ele>
        <time>2022-09-04T09:40:54Z</time>
      </trkpt>
      <trkpt lat="43.26282" lon="-1.50105">
        <ele>199.9</ele>
        <time>2022-09-04T09:40:55Z</time>
      </trkpt>
      <trkpt lat="43.26278" lon="-1.50108">
        <ele>199.9</ele>
        <time>2022-09-04T09:40:56Z</time>
      </trkpt>
      <trkpt lat="43.26275" lon="-1.50112">
        <ele>200</ele>
        <time>2022-09-04T09:40:57Z</time>
      </trkpt>
      <trkpt lat="43.26272" lon="-1.50116">
        <ele>200</ele>
        <time>2022-09-04T09:40:58Z</time>
      </trkpt>
      <trkpt lat="43.26269" lon="-1.5012">
        <ele>199</ele>
        <time>2022-09-04T09:40:59Z</time>
      </trkpt>
      <trkpt lat="43.26266" lon="-1.50126">
        <ele>199.1</ele>
        <time>2022-09-04T09:41:00Z</time>
      </trkpt>
      <trkpt lat="43.26263" lon="-1.50132">
        <ele>199.1</ele>
        <time>2022-09-04T09:41:01Z</time>
      </trkpt>
      <trkpt lat="43.2626" lon="-1.50137">
        <ele>194.3</ele>
        <time>2022-09-04T09:41:02Z</time>
      </trkpt>
      <trkpt lat="43.26257" lon="-1.50141">
        <ele>197.6</ele>
        <time>2022-09-04T09:41:03Z</time>
      </trkpt>
      <trkpt lat="43.26253" lon="-1.50145">
        <ele>197.6</ele>
        <time>2022-09-04T09:41:04Z</time>
      </trkpt>
      <trkpt lat="43.26249" lon="-1.50147">
        <ele>198.1</ele>
        <time>2022-09-04T09:41:05Z</time>
      </trkpt>
      <trkpt lat="43.26246" lon="-1.50148">
        <ele>198.5</ele>
        <time>2022-09-04T09:41:06Z</time>
      </trkpt>
      <trkpt lat="43.26243" lon="-1.50149">
        <ele>198.8</ele>
        <time>2022-09-04T09:41:07Z</time>
      </trkpt>
      <trkpt lat="43.2624" lon="-1.5015">
        <ele>199.2</ele>
        <time>2022-09-04T09:41:08Z</time>
      </trkpt>
      <trkpt lat="43.26236" lon="-1.5015">
        <ele>199.6</ele>
        <time>2022-09-04T09:41:09Z</time>
      </trkpt>
      <trkpt lat="43.26233" lon="-1.50151">
        <ele>200.1</ele>
        <time>2022-09-04T09:41:10Z</time>
      </trkpt>
      <trkpt lat="43.26229" lon="-1.50151">
        <ele>200.6</ele>
        <time>2022-09-04T09:41:11Z</time>
      </trkpt>
      <trkpt lat="43.26224" lon="-1.50153">
        <ele>201.2</ele>
        <time>2022-09-04T09:41:12Z</time>
      </trkpt>
      <trkpt lat="43.2622" lon="-1.50154">
        <ele>201.9</ele>
        <time>2022-09-04T09:41:13Z</time>
      </trkpt>
      <trkpt lat="43.26215" lon="-1.50156">
        <ele>202.6</ele>
        <time>2022-09-04T09:41:14Z</time>
      </trkpt>
      <trkpt lat="43.26211" lon="-1.50157">
        <ele>203.3</ele>
        <time>2022-09-04T09:41:15Z</time>
      </trkpt>
      <trkpt lat="43.26206" lon="-1.50158">
        <ele>204</ele>
        <time>2022-09-04T09:41:16Z</time>
      </trkpt>
      <trkpt lat="43.26201" lon="-1.5016">
        <ele>204.7</ele>
        <time>2022-09-04T09:41:17Z</time>
      </trkpt>
      <trkpt lat="43.26197" lon="-1.50161">
        <ele>205.4</ele>
        <time>2022-09-04T09:41:18Z</time>
      </trkpt>
      <trkpt lat="43.26192" lon="-1.50163">
        <ele>206.1</ele>
        <time>2022-09-04T09:41:19Z</time>
      </trkpt>
      <trkpt lat="43.26187" lon="-1.50164">
        <ele>206.9</ele>
        <time>2022-09-04T09:41:20Z</time>
      </trkpt>
      <trkpt lat="43.26183" lon="-1.50165">
        <ele>207.7</ele>
        <time>2022-09-04T09:41:21Z</time>
      </trkpt>
      <trkpt lat="43.26179" lon="-1.50167">
        <ele>208.4</ele>
        <time>2022-09-04T09:41:22Z</time>
      </trkpt>
      <trkpt lat="43.26176" lon="-1.50168">
        <ele>209</ele>
        <time>2022-09-04T09:41:23Z</time>
      </trkpt>
      <trkpt lat="43.26173" lon="-1.50169">
        <ele>209.7</ele>
        <time>2022-09-04T09:41:24Z</time>
      </trkpt>
      <trkpt lat="43.26172" lon="-1.5017">
        <ele>209.9</ele>
        <time>2022-09-04T09:41:25Z</time>
      </trkpt>
      <trkpt lat="43.26171" lon="-1.50171">
        <ele>210.1</ele>
        <time>2022-09-04T09:41:26Z</time>
      </trkpt>
      <trkpt lat="43.26171" lon="-1.50171">
        <ele>210.2</ele>
        <time>2022-09-04T09:41:27Z</time>
      </trkpt>
      <trkpt lat="43.2617" lon="-1.50171">
        <ele>210.3</ele>
        <time>2022-09-04T09:41:28Z</time>
      </trkpt>
      <trkpt lat="43.2617" lon="-1.50172">
        <ele>210.3</ele>
        <time>2022-09-04T09:41:29Z</time>
      </trkpt>
      <trkpt lat="43.2617" lon="-1.50172">
        <ele>210.4</ele>
        <time>2022-09-04T09:41:30Z</time>
      </trkpt>
      <trkpt lat="43.2617" lon="-1.50172">
        <ele>210.4</ele>
        <time>2022-09-04T09:41:31Z</time>
      </trkpt>
      <trkpt lat="43.2617" lon="-1.50172">
        <ele>210.5</ele>
        <time>2022-09-04T09:41:32Z</time>
      </trkpt>
      <trkpt lat="43.26169" lon="-1.50172">
        <ele>210.5</ele>
        <time>2022-09-04T09:41:33Z</time>
      </trkpt>
      <trkpt lat="43.26169" lon="-1.50173">
        <ele>210.6</ele>
        <time>2022-09-04T09:41:34Z</time>
      </trkpt>
      <trkpt lat="43.26169" lon="-1.50173">
        <ele>210.7</ele>
        <time>2022-09-04T09:41:35Z</time>
      </trkpt>
      <trkpt lat="43.26168" lon="-1.50175">
        <ele>211.1</ele>
        <time>2022-09-04T09:41:36Z</time>
      </trkpt>
      <trkpt lat="43.26168" lon="-1.50177">
        <ele>211.3</ele>
        <time>2022-09-04T09:41:37Z</time>
      </trkpt>
      <trkpt lat="43.26168" lon="-1.50178">
        <ele>211.5</ele>
        <time>2022-09-04T09:41:38Z</time>
      </trkpt>
      <trkpt lat="43.2617" lon="-1.50181">
        <ele>212.4</ele>
        <time>2022-09-04T09:41:39Z</time>
      </trkpt>
      <trkpt lat="43.26172" lon="-1.50182">
        <ele>211.8</ele>
        <time>2022-09-04T09:41:40Z</time>
      </trkpt>
      <trkpt lat="43.26175" lon="-1.50183">
        <ele>210.9</ele>
        <time>2022-09-04T09:41:41Z</time>
      </trkpt>
      <trkpt lat="43.2618" lon="-1.50183">
        <ele>209.9</ele>
        <time>2022-09-04T09:41:42Z</time>
      </trkpt>
      <trkpt lat="43.26185" lon="-1.50183">
        <ele>208.7</ele>
        <time>2022-09-04T09:41:43Z</time>
      </trkpt>
      <trkpt lat="43.2619" lon="-1.50183">
        <ele>207.6</ele>
        <time>2022-09-04T09:41:44Z</time>
      </trkpt>
      <trkpt lat="43.26196" lon="-1.50184">
        <ele>206.5</ele>
        <time>2022-09-04T09:41:45Z</time>
      </trkpt>
      <trkpt lat="43.26202" lon="-1.50185">
        <ele>205.5</ele>
        <time>2022-09-04T09:41:46Z</time>
      </trkpt>
      <trkpt lat="43.26208" lon="-1.50186">
        <ele>204.6</ele>
        <time>2022-09-04T09:41:47Z</time>
      </trkpt>
      <trkpt lat="43.26213" lon="-1.50186">
        <ele>203.7</ele>
        <time>2022-09-04T09:41:48Z</time>
      </trkpt>
      <trkpt lat="43.26218" lon="-1.50185">
        <ele>202.9</ele>
        <time>2022-09-04T09:41:49Z</time>
      </trkpt>
      <trkpt lat="43.26223" lon="-1.50185">
        <ele>202.2</ele>
        <time>2022-09-04T09:41:50Z</time>
      </trkpt>
      <trkpt lat="43.26227" lon="-1.50185">
        <ele>201.5</ele>
        <time>2022-09-04T09:41:51Z</time>
      </trkpt>
      <trkpt lat="43.26231" lon="-1.50185">
        <ele>200.8</ele>
        <time>2022-09-04T09:41:52Z</time>
      </trkpt>
      <trkpt lat="43.26234" lon="-1.50184">
        <ele>200.3</ele>
        <time>2022-09-04T09:41:53Z</time>
      </trkpt>
      <trkpt lat="43.26238" lon="-1.50182">
        <ele>199.8</ele>
        <time>2022-09-04T09:41:54Z</time>
      </trkpt>
      <trkpt lat="43.26241" lon="-1.50181">
        <ele>199.3</ele>
        <time>2022-09-04T09:41:55Z</time>
      </trkpt>
      <trkpt lat="43.26245" lon="-1.5018">
        <ele>198.8</ele>
        <time>2022-09-04T09:41:56Z</time>
      </trkpt>
      <trkpt lat="43.26249" lon="-1.50179">
        <ele>198.4</ele>
        <time>2022-09-04T09:41:57Z</time>
      </trkpt>
      <trkpt lat="43.26252" lon="-1.50178">
        <ele>197.9</ele>
        <time>2022-09-04T09:41:58Z</time>
      </trkpt>
      <trkpt lat="43.26256" lon="-1.50176">
        <ele>197.4</ele>
        <time>2022-09-04T09:41:59Z</time>
      </trkpt>
      <trkpt lat="43.2626" lon="-1.50175">
        <ele>196.9</ele>
        <time>2022-09-04T09:42:00Z</time>
      </trkpt>
      <trkpt lat="43.26265" lon="-1.50174">
        <ele>196.3</ele>
        <time>2022-09-04T09:42:01Z</time>
      </trkpt>
      <trkpt lat="43.2627" lon="-1.50172">
        <ele>195.6</ele>
        <time>2022-09-04T09:42:02Z</time>
      </trkpt>
      <trkpt lat="43.26275" lon="-1.50171">
        <ele>194.9</ele>
        <time>2022-09-04T09:42:03Z</time>
      </trkpt>
      <trkpt lat="43.26281" lon="-1.50168">
        <ele>194.1</ele>
        <time>2022-09-04T09:42:04Z</time>
      </trkpt>
      <trkpt lat="43.26286" lon="-1.50166">
        <ele>193.2</ele>
        <time>2022-09-04T09:42:05Z</time>
      </trkpt>
      <trkpt lat="43.26291" lon="-1.50164">
        <ele>192.4</ele>
        <time>2022-09-04T09:42:06Z</time>
      </trkpt>
      <trkpt lat="43.26295" lon="-1.50164">
        <ele>191.7</ele>
        <time>2022-09-04T09:42:07Z</time>
      </trkpt>
      <trkpt lat="43.26299" lon="-1.50163">
        <ele>190.9</ele>
        <time>2022-09-04T09:42:08Z</time>
      </trkpt>
      <trkpt lat="43.26302" lon="-1.50163">
        <ele>190.3</ele>
        <time>2022-09-04T09:42:09Z</time>
      </trkpt>
      <trkpt lat="43.26305" lon="-1.50163">
        <ele>189.6</ele>
        <time>2022-09-04T09:42:10Z</time>
      </trkpt>
      <trkpt lat="43.26309" lon="-1.50162">
        <ele>188.8</ele>
        <time>2022-09-04T09:42:11Z</time>
      </trkpt>
      <trkpt lat="43.26314" lon="-1.50161">
        <ele>187.7</ele>
        <time>2022-09-04T09:42:12Z</time>
      </trkpt>
      <trkpt lat="43.26319" lon="-1.5016">
        <ele>186.5</ele>
        <time>2022-09-04T09:42:13Z</time>
      </trkpt>
      <trkpt lat="43.26323" lon="-1.50158">
        <ele>185.2</ele>
        <time>2022-09-04T09:42:14Z</time>
      </trkpt>
      <trkpt lat="43.26328" lon="-1.50156">
        <ele>183.7</ele>
        <time>2022-09-04T09:42:15Z</time>
      </trkpt>
      <trkpt lat="43.26331" lon="-1.50154">
        <ele>182.3</ele>
        <time>2022-09-04T09:42:16Z</time>
      </trkpt>
      <trkpt lat="43.26335" lon="-1.50152">
        <ele>181</ele>
        <time>2022-09-04T09:42:17Z</time>
      </trkpt>
      <trkpt lat="43.26338" lon="-1.5015">
        <ele>180</ele>
        <time>2022-09-04T09:42:18Z</time>
      </trkpt>
      <trkpt lat="43.2634" lon="-1.50148">
        <ele>180.6</ele>
        <time>2022-09-04T09:42:19Z</time>
      </trkpt>
      <trkpt lat="43.26341" lon="-1.50148">
        <ele>180.8</ele>
        <time>2022-09-04T09:42:20Z</time>
      </trkpt>
      <trkpt lat="43.26341" lon="-1.50147">
        <ele>180.9</ele>
        <time>2022-09-04T09:42:21Z</time>
      </trkpt>
      <trkpt lat="43.26341" lon="-1.50146">
        <ele>181</ele>
        <time>2022-09-04T09:42:22Z</time>
      </trkpt>
      <trkpt lat="43.26342" lon="-1.50145">
        <ele>181.2</ele>
        <time>2022-09-04T09:42:23Z</time>
      </trkpt>
      <trkpt lat="43.26342" lon="-1.50144">
        <ele>181.3</ele>
        <time>2022-09-04T09:42:24Z</time>
      </trkpt>
      <trkpt lat="43.26342" lon="-1.50143">
        <ele>181.4</ele>
        <time>2022-09-04T09:42:25Z</time>
      </trkpt>
      <trkpt lat="43.26342" lon="-1.50142">
        <ele>181.6</ele>
        <time>2022-09-04T09:42:26Z</time>
      </trkpt>
      <trkpt lat="43.26342" lon="-1.50142">
        <ele>181.7</ele>
        <time>2022-09-04T09:42:27Z</time>
      </trkpt>
      <trkpt lat="43.26342" lon="-1.50141">
        <ele>181.8</ele>
        <time>2022-09-04T09:42:28Z</time>
      </trkpt>
      <trkpt lat="43.26342" lon="-1.5014">
        <ele>181.9</ele>
        <time>2022-09-04T09:42:29Z</time>
      </trkpt>
      <trkpt lat="43.26342" lon="-1.50139">
        <ele>182.1</ele>
        <time>2022-09-04T09:42:30Z</time>
      </trkpt>
      <trkpt lat="43.26342" lon="-1.50138">
        <ele>182.2</ele>
        <time>2022-09-04T09:42:31Z</time>
      </trkpt>
      <trkpt lat="43.26342" lon="-1.50137">
        <ele>182.3</ele>
        <time>2022-09-04T09:42:32Z</time>
      </trkpt>
      <trkpt lat="43.26343" lon="-1.50136">
        <ele>182.4</ele>
        <time>2022-09-04T09:42:33Z</time>
      </trkpt>
      <trkpt lat="43.26343" lon="-1.50136">
        <ele>182.5</ele>
        <time>2022-09-04T09:42:51Z</time>
      </trkpt>
      <trkpt lat="43.26343" lon="-1.50135">
        <ele>182.7</ele>
        <time>2022-09-04T09:42:52Z</time>
      </trkpt>
      <trkpt lat="43.26343" lon="-1.50134">
        <ele>182.8</ele>
        <time>2022-09-04T09:42:53Z</time>
      </trkpt>
      <trkpt lat="43.26345" lon="-1.50131">
        <ele>183.3</ele>
        <time>2022-09-04T09:42:54Z</time>
      </trkpt>
      <trkpt lat="43.26348" lon="-1.50127">
        <ele>184</ele>
        <time>2022-09-04T09:42:55Z</time>
      </trkpt>
      <trkpt lat="43.26349" lon="-1.50126">
        <ele>184.2</ele>
        <time>2022-09-04T09:42:56Z</time>
      </trkpt>
      <trkpt lat="43.2635" lon="-1.50123">
        <ele>184.7</ele>
        <time>2022-09-04T09:42:57Z</time>
      </trkpt>
      <trkpt lat="43.26352" lon="-1.50119">
        <ele>185.2</ele>
        <time>2022-09-04T09:42:58Z</time>
      </trkpt>
      <trkpt lat="43.26354" lon="-1.50115">
        <ele>185.8</ele>
        <time>2022-09-04T09:42:59Z</time>
      </trkpt>
      <trkpt lat="43.26354" lon="-1.50114">
        <ele>186</ele>
        <time>2022-09-04T09:43:00Z</time>
      </trkpt>
      <trkpt lat="43.26356" lon="-1.50109">
        <ele>186.6</ele>
        <time>2022-09-04T09:43:01Z</time>
      </trkpt>
      <trkpt lat="43.26357" lon="-1.50108">
        <ele>186.9</ele>
        <time>2022-09-04T09:43:02Z</time>
      </trkpt>
      <trkpt lat="43.26359" lon="-1.50104">
        <ele>187.4</ele>
        <time>2022-09-04T09:43:03Z</time>
      </trkpt>
      <trkpt lat="43.2636" lon="-1.50103">
        <ele>187.6</ele>
        <time>2022-09-04T09:43:04Z</time>
      </trkpt>
      <trkpt lat="43.26361" lon="-1.50098">
        <ele>188.1</ele>
        <time>2022-09-04T09:43:05Z</time>
      </trkpt>
      <trkpt lat="43.26361" lon="-1.50096">
        <ele>188.3</ele>
        <time>2022-09-04T09:43:06Z</time>
      </trkpt>
      <trkpt lat="43.26362" lon="-1.50091">
        <ele>188.8</ele>
        <time>2022-09-04T09:43:07Z</time>
      </trkpt>
      <trkpt lat="43.26362" lon="-1.5009">
        <ele>188.9</ele>
        <time>2022-09-04T09:43:08Z</time>
      </trkpt>
      <trkpt lat="43.26362" lon="-1.50085">
        <ele>189.3</ele>
        <time>2022-09-04T09:43:09Z</time>
      </trkpt>
      <trkpt lat="43.26361" lon="-1.50083">
        <ele>189.5</ele>
        <time>2022-09-04T09:43:10Z</time>
      </trkpt>
      <trkpt lat="43.26361" lon="-1.50078">
        <ele>189.8</ele>
        <time>2022-09-04T09:43:11Z</time>
      </trkpt>
      <trkpt lat="43.26361" lon="-1.50074">
        <ele>190.2</ele>
        <time>2022-09-04T09:43:12Z</time>
      </trkpt>
      <trkpt lat="43.26361" lon="-1.50069">
        <ele>190.6</ele>
        <time>2022-09-04T09:43:13Z</time>
      </trkpt>
      <trkpt lat="43.26361" lon="-1.50064">
        <ele>191</ele>
        <time>2022-09-04T09:43:14Z</time>
      </trkpt>
      <trkpt lat="43.26361" lon="-1.5006">
        <ele>191.4</ele>
        <time>2022-09-04T09:43:15Z</time>
      </trkpt>
      <trkpt lat="43.26362" lon="-1.50055">
        <ele>191.9</ele>
        <time>2022-09-04T09:43:16Z</time>
      </trkpt>
      <trkpt lat="43.26362" lon="-1.50051">
        <ele>192.3</ele>
        <time>2022-09-04T09:43:17Z</time>
      </trkpt>
      <trkpt lat="43.26363" lon="-1.50047">
        <ele>192.7</ele>
        <time>2022-09-04T09:43:18Z</time>
      </trkpt>
      <trkpt lat="43.26363" lon="-1.50041">
        <ele>193.2</ele>
        <time>2022-09-04T09:43:19Z</time>
      </trkpt>
      <trkpt lat="43.26363" lon="-1.5004">
        <ele>193.4</ele>
        <time>2022-09-04T09:43:20Z</time>
      </trkpt>
      <trkpt lat="43.26363" lon="-1.50035">
        <ele>193.9</ele>
        <time>2022-09-04T09:43:21Z</time>
      </trkpt>
      <trkpt lat="43.26363" lon="-1.50034">
        <ele>194</ele>
        <time>2022-09-04T09:43:22Z</time>
      </trkpt>
      <trkpt lat="43.26363" lon="-1.50029">
        <ele>194.5</ele>
        <time>2022-09-04T09:43:23Z</time>
      </trkpt>
      <trkpt lat="43.26363" lon="-1.50028">
        <ele>194.6</ele>
        <time>2022-09-04T09:43:24Z</time>
      </trkpt>
      <trkpt lat="43.26363" lon="-1.50024">
        <ele>195</ele>
        <time>2022-09-04T09:43:25Z</time>
      </trkpt>
      <trkpt lat="43.26363" lon="-1.50022">
        <ele>195.2</ele>
        <time>2022-09-04T09:43:26Z</time>
      </trkpt>
      <trkpt lat="43.26362" lon="-1.50017">
        <ele>195.7</ele>
        <time>2022-09-04T09:43:27Z</time>
      </trkpt>
      <trkpt lat="43.26362" lon="-1.50015">
        <ele>195.9</ele>
        <time>2022-09-04T09:43:28Z</time>
      </trkpt>
      <trkpt lat="43.2636" lon="-1.50011">
        <ele>196.3</ele>
        <time>2022-09-04T09:43:29Z</time>
      </trkpt>
      <trkpt lat="43.26359" lon="-1.50008">
        <ele>196.6</ele>
        <time>2022-09-04T09:43:30Z</time>
      </trkpt>
      <trkpt lat="43.26357" lon="-1.50004">
        <ele>197</ele>
        <time>2022-09-04T09:43:31Z</time>
      </trkpt>
      <trkpt lat="43.26355" lon="-1.5">
        <ele>197.4</ele>
        <time>2022-09-04T09:43:32Z</time>
      </trkpt>
      <trkpt lat="43.26354" lon="-1.49999">
        <ele>197.6</ele>
        <time>2022-09-04T09:43:33Z</time>
      </trkpt>
      <trkpt lat="43.26352" lon="-1.49995">
        <ele>198</ele>
        <time>2022-09-04T09:43:34Z</time>
      </trkpt>
      <trkpt lat="43.26351" lon="-1.49994">
        <ele>198.1</ele>
        <time>2022-09-04T09:43:35Z</time>
      </trkpt>
      <trkpt lat="43.26348" lon="-1.4999">
        <ele>198.6</ele>
        <time>2022-09-04T09:43:36Z</time>
      </trkpt>
      <trkpt lat="43.26347" lon="-1.49989">
        <ele>198.7</ele>
        <time>2022-09-04T09:43:37Z</time>
      </trkpt>
      <trkpt lat="43.26345" lon="-1.49986">
        <ele>199.2</ele>
        <time>2022-09-04T09:43:38Z</time>
      </trkpt>
      <trkpt lat="43.26344" lon="-1.49984">
        <ele>199.3</ele>
        <time>2022-09-04T09:43:39Z</time>
      </trkpt>
      <trkpt lat="43.26342" lon="-1.49982">
        <ele>199.6</ele>
        <time>2022-09-04T09:43:40Z</time>
      </trkpt>
      <trkpt lat="43.26339" lon="-1.4998">
        <ele>200</ele>
        <time>2022-09-04T09:43:41Z</time>
      </trkpt>
      <trkpt lat="43.26338" lon="-1.49979">
        <ele>200.1</ele>
        <time>2022-09-04T09:43:42Z</time>
      </trkpt>
      <trkpt lat="43.26335" lon="-1.49977">
        <ele>200.4</ele>
        <time>2022-09-04T09:43:43Z</time>
      </trkpt>
      <trkpt lat="43.26334" lon="-1.49976">
        <ele>200.5</ele>
        <time>2022-09-04T09:43:44Z</time>
      </trkpt>
      <trkpt lat="43.26332" lon="-1.49974">
        <ele>200.7</ele>
        <time>2022-09-04T09:43:45Z</time>
      </trkpt>
      <trkpt lat="43.26329" lon="-1.49973">
        <ele>201</ele>
        <time>2022-09-04T09:43:46Z</time>
      </trkpt>
      <trkpt lat="43.26326" lon="-1.49971">
        <ele>201.2</ele>
        <time>2022-09-04T09:43:47Z</time>
      </trkpt>
      <trkpt lat="43.26323" lon="-1.49969">
        <ele>201.3</ele>
        <time>2022-09-04T09:43:48Z</time>
      </trkpt>
      <trkpt lat="43.26321" lon="-1.49968">
        <ele>201.4</ele>
        <time>2022-09-04T09:43:49Z</time>
      </trkpt>
      <trkpt lat="43.26318" lon="-1.49965">
        <ele>201.5</ele>
        <time>2022-09-04T09:43:50Z</time>
      </trkpt>
      <trkpt lat="43.26317" lon="-1.49964">
        <ele>201.5</ele>
        <time>2022-09-04T09:43:51Z</time>
      </trkpt>
      <trkpt lat="43.26314" lon="-1.49962">
        <ele>201.5</ele>
        <time>2022-09-04T09:43:52Z</time>
      </trkpt>
      <trkpt lat="43.26311" lon="-1.49958">
        <ele>201.5</ele>
        <time>2022-09-04T09:43:53Z</time>
      </trkpt>
      <trkpt lat="43.26308" lon="-1.49954">
        <ele>201.5</ele>
        <time>2022-09-04T09:43:54Z</time>
      </trkpt>
      <trkpt lat="43.26305" lon="-1.49949">
        <ele>201.5</ele>
        <time>2022-09-04T09:43:55Z</time>
      </trkpt>
      <trkpt lat="43.26303" lon="-1.49944">
        <ele>201.5</ele>
        <time>2022-09-04T09:43:56Z</time>
      </trkpt>
      <trkpt lat="43.263" lon="-1.49941">
        <ele>201.5</ele>
        <time>2022-09-04T09:43:57Z</time>
      </trkpt>
      <trkpt lat="43.26298" lon="-1.49937">
        <ele>201.6</ele>
        <time>2022-09-04T09:43:58Z</time>
      </trkpt>
      <trkpt lat="43.26296" lon="-1.49933">
        <ele>201.7</ele>
        <time>2022-09-04T09:43:59Z</time>
      </trkpt>
      <trkpt lat="43.26294" lon="-1.49929">
        <ele>201.8</ele>
        <time>2022-09-04T09:44:00Z</time>
      </trkpt>
      <trkpt lat="43.26292" lon="-1.49926">
        <ele>201.9</ele>
        <time>2022-09-04T09:44:01Z</time>
      </trkpt>
      <trkpt lat="43.2629" lon="-1.49923">
        <ele>202</ele>
        <time>2022-09-04T09:44:02Z</time>
      </trkpt>
      <trkpt lat="43.26286" lon="-1.4992">
        <ele>202.1</ele>
        <time>2022-09-04T09:44:03Z</time>
      </trkpt>
      <trkpt lat="43.26285" lon="-1.49919">
        <ele>202.1</ele>
        <time>2022-09-04T09:44:04Z</time>
      </trkpt>
      <trkpt lat="43.26282" lon="-1.49916">
        <ele>202.3</ele>
        <time>2022-09-04T09:44:05Z</time>
      </trkpt>
      <trkpt lat="43.26281" lon="-1.49915">
        <ele>202.3</ele>
        <time>2022-09-04T09:44:06Z</time>
      </trkpt>
      <trkpt lat="43.26279" lon="-1.49913">
        <ele>202.4</ele>
        <time>2022-09-04T09:44:07Z</time>
      </trkpt>
      <trkpt lat="43.26276" lon="-1.49911">
        <ele>202.5</ele>
        <time>2022-09-04T09:44:08Z</time>
      </trkpt>
      <trkpt lat="43.26273" lon="-1.49908">
        <ele>202.6</ele>
        <time>2022-09-04T09:44:09Z</time>
      </trkpt>
      <trkpt lat="43.26272" lon="-1.49907">
        <ele>202.7</ele>
        <time>2022-09-04T09:44:10Z</time>
      </trkpt>
      <trkpt lat="43.26269" lon="-1.49903">
        <ele>202.8</ele>
        <time>2022-09-04T09:44:11Z</time>
      </trkpt>
      <trkpt lat="43.26268" lon="-1.49902">
        <ele>202.8</ele>
        <time>2022-09-04T09:44:12Z</time>
      </trkpt>
      <trkpt lat="43.26265" lon="-1.49899">
        <ele>203</ele>
        <time>2022-09-04T09:44:13Z</time>
      </trkpt>
      <trkpt lat="43.26264" lon="-1.49898">
        <ele>203</ele>
        <time>2022-09-04T09:44:14Z</time>
      </trkpt>
      <trkpt lat="43.26262" lon="-1.49895">
        <ele>203.1</ele>
        <time>2022-09-04T09:44:15Z</time>
      </trkpt>
      <trkpt lat="43.26259" lon="-1.49892">
        <ele>203.2</ele>
        <time>2022-09-04T09:44:16Z</time>
      </trkpt>
      <trkpt lat="43.26256" lon="-1.49889">
        <ele>203.3</ele>
        <time>2022-09-04T09:44:17Z</time>
      </trkpt>
      <trkpt lat="43.26253" lon="-1.49886">
        <ele>203.3</ele>
        <time>2022-09-04T09:44:18Z</time>
      </trkpt>
      <trkpt lat="43.26251" lon="-1.49883">
        <ele>203.4</ele>
        <time>2022-09-04T09:44:19Z</time>
      </trkpt>
      <trkpt lat="43.26248" lon="-1.49879">
        <ele>203.5</ele>
        <time>2022-09-04T09:44:20Z</time>
      </trkpt>
      <trkpt lat="43.26247" lon="-1.49878">
        <ele>203.5</ele>
        <time>2022-09-04T09:44:21Z</time>
      </trkpt>
      <trkpt lat="43.26244" lon="-1.49877">
        <ele>203.6</ele>
        <time>2022-09-04T09:44:22Z</time>
      </trkpt>
      <trkpt lat="43.26242" lon="-1.49876">
        <ele>203.6</ele>
        <time>2022-09-04T09:44:23Z</time>
      </trkpt>
      <trkpt lat="43.2624" lon="-1.49874">
        <ele>203.7</ele>
        <time>2022-09-04T09:44:24Z</time>
      </trkpt>
      <trkpt lat="43.26239" lon="-1.49874">
        <ele>203.7</ele>
        <time>2022-09-04T09:44:26Z</time>
      </trkpt>
      <trkpt lat="43.2624" lon="-1.49874">
        <ele>203.7</ele>
        <time>2022-09-04T09:44:27Z</time>
      </trkpt>
      <trkpt lat="43.2624" lon="-1.49874">
        <ele>203.7</ele>
        <time>2022-09-04T09:44:28Z</time>
      </trkpt>
      <trkpt lat="43.2624" lon="-1.49874">
        <ele>203.7</ele>
        <time>2022-09-04T09:44:29Z</time>
      </trkpt>
      <trkpt lat="43.2624" lon="-1.49874">
        <ele>203.7</ele>
        <time>2022-09-04T09:44:31Z</time>
      </trkpt>
      <trkpt lat="43.2624" lon="-1.49874">
        <ele>203.7</ele>
        <time>2022-09-04T09:44:32Z</time>
      </trkpt>
      <trkpt lat="43.2624" lon="-1.49874">
        <ele>203.7</ele>
        <time>2022-09-04T09:44:33Z</time>
      </trkpt>
      <trkpt lat="43.2624" lon="-1.49874">
        <ele>203.7</ele>
        <time>2022-09-04T09:44:34Z</time>
      </trkpt>
      <trkpt lat="43.2624" lon="-1.49874">
        <ele>203.7</ele>
        <time>2022-09-04T09:44:35Z</time>
      </trkpt>
      <trkpt lat="43.26239" lon="-1.49874">
        <ele>203.7</ele>
        <time>2022-09-04T09:44:36Z</time>
      </trkpt>
      <trkpt lat="43.26235" lon="-1.4987">
        <ele>203.2</ele>
        <time>2022-09-04T09:44:38Z</time>
      </trkpt>
      <trkpt lat="43.26233" lon="-1.49871">
        <ele>202.9</ele>
        <time>2022-09-04T09:44:39Z</time>
      </trkpt>
      <trkpt lat="43.26233" lon="-1.49872">
        <ele>202.5</ele>
        <time>2022-09-04T09:44:40Z</time>
      </trkpt>
      <trkpt lat="43.26234" lon="-1.49874">
        <ele>202.2</ele>
        <time>2022-09-04T09:44:41Z</time>
      </trkpt>
      <trkpt lat="43.26236" lon="-1.49873">
        <ele>201.8</ele>
        <time>2022-09-04T09:44:42Z</time>
      </trkpt>
      <trkpt lat="43.26238" lon="-1.49871">
        <ele>201.1</ele>
        <time>2022-09-04T09:44:43Z</time>
      </trkpt>
      <trkpt lat="43.26239" lon="-1.4987">
        <ele>200.9</ele>
        <time>2022-09-04T09:44:44Z</time>
      </trkpt>
      <trkpt lat="43.2624" lon="-1.49868">
        <ele>200.5</ele>
        <time>2022-09-04T09:44:45Z</time>
      </trkpt>
      <trkpt lat="43.26241" lon="-1.49867">
        <ele>200</ele>
        <time>2022-09-04T09:44:46Z</time>
      </trkpt>
      <trkpt lat="43.26243" lon="-1.49865">
        <ele>199.5</ele>
        <time>2022-09-04T09:44:47Z</time>
      </trkpt>
      <trkpt lat="43.26244" lon="-1.49864">
        <ele>199.1</ele>
        <time>2022-09-04T09:44:48Z</time>
      </trkpt>
      <trkpt lat="43.26245" lon="-1.49863">
        <ele>198.8</ele>
        <time>2022-09-04T09:44:49Z</time>
      </trkpt>
      <trkpt lat="43.26246" lon="-1.49862">
        <ele>198.3</ele>
        <time>2022-09-04T09:44:50Z</time>
      </trkpt>
      <trkpt lat="43.26248" lon="-1.49859">
        <ele>197.5</ele>
        <time>2022-09-04T09:44:51Z</time>
      </trkpt>
      <trkpt lat="43.26249" lon="-1.49859">
        <ele>197.3</ele>
        <time>2022-09-04T09:44:52Z</time>
      </trkpt>
      <trkpt lat="43.26251" lon="-1.49856">
        <ele>196.5</ele>
        <time>2022-09-04T09:44:53Z</time>
      </trkpt>
      <trkpt lat="43.26252" lon="-1.49855">
        <ele>196.2</ele>
        <time>2022-09-04T09:44:54Z</time>
      </trkpt>
      <trkpt lat="43.26255" lon="-1.49853">
        <ele>195.3</ele>
        <time>2022-09-04T09:44:55Z</time>
      </trkpt>
      <trkpt lat="43.26258" lon="-1.49852">
        <ele>194.4</ele>
        <time>2022-09-04T09:44:56Z</time>
      </trkpt>
      <trkpt lat="43.26262" lon="-1.49851">
        <ele>193.5</ele>
        <time>2022-09-04T09:44:57Z</time>
      </trkpt>
      <trkpt lat="43.26266" lon="-1.49849">
        <ele>192.7</ele>
        <time>2022-09-04T09:44:58Z</time>
      </trkpt>
      <trkpt lat="43.26269" lon="-1.49847">
        <ele>191.9</ele>
        <time>2022-09-04T09:44:59Z</time>
      </trkpt>
      <trkpt lat="43.26272" lon="-1.49844">
        <ele>191.1</ele>
        <time>2022-09-04T09:45:00Z</time>
      </trkpt>
      <trkpt lat="43.26276" lon="-1.49843">
        <ele>190.4</ele>
        <time>2022-09-04T09:45:01Z</time>
      </trkpt>
      <trkpt lat="43.26279" lon="-1.49841">
        <ele>189.7</ele>
        <time>2022-09-04T09:45:02Z</time>
      </trkpt>
      <trkpt lat="43.26283" lon="-1.4984">
        <ele>188.9</ele>
        <time>2022-09-04T09:45:03Z</time>
      </trkpt>
      <trkpt lat="43.26287" lon="-1.49838">
        <ele>188.1</ele>
        <time>2022-09-04T09:45:04Z</time>
      </trkpt>
      <trkpt lat="43.26291" lon="-1.49838">
        <ele>187.4</ele>
        <time>2022-09-04T09:45:05Z</time>
      </trkpt>
      <trkpt lat="43.26295" lon="-1.49839">
        <ele>186.5</ele>
        <time>2022-09-04T09:45:06Z</time>
      </trkpt>
      <trkpt lat="43.26299" lon="-1.4984">
        <ele>185.7</ele>
        <time>2022-09-04T09:45:07Z</time>
      </trkpt>
      <trkpt lat="43.26303" lon="-1.49841">
        <ele>184.7</ele>
        <time>2022-09-04T09:45:08Z</time>
      </trkpt>
      <trkpt lat="43.26307" lon="-1.49843">
        <ele>183.7</ele>
        <time>2022-09-04T09:45:09Z</time>
      </trkpt>
      <trkpt lat="43.26313" lon="-1.49845">
        <ele>182.4</ele>
        <time>2022-09-04T09:45:10Z</time>
      </trkpt>
      <trkpt lat="43.26319" lon="-1.49847">
        <ele>181</ele>
        <time>2022-09-04T09:45:11Z</time>
      </trkpt>
      <trkpt lat="43.26324" lon="-1.49849">
        <ele>179.9</ele>
        <time>2022-09-04T09:45:12Z</time>
      </trkpt>
      <trkpt lat="43.2633" lon="-1.49851">
        <ele>178.5</ele>
        <time>2022-09-04T09:45:13Z</time>
      </trkpt>
      <trkpt lat="43.26338" lon="-1.49855">
        <ele>177.1</ele>
        <time>2022-09-04T09:45:14Z</time>
      </trkpt>
      <trkpt lat="43.26343" lon="-1.49859">
        <ele>176</ele>
        <time>2022-09-04T09:45:15Z</time>
      </trkpt>
      <trkpt lat="43.26348" lon="-1.49863">
        <ele>175</ele>
        <time>2022-09-04T09:45:16Z</time>
      </trkpt>
      <trkpt lat="43.26353" lon="-1.49866">
        <ele>174.1</ele>
        <time>2022-09-04T09:45:17Z</time>
      </trkpt>
      <trkpt lat="43.26357" lon="-1.49868">
        <ele>173.2</ele>
        <time>2022-09-04T09:45:18Z</time>
      </trkpt>
      <trkpt lat="43.26362" lon="-1.49871">
        <ele>172.3</ele>
        <time>2022-09-04T09:45:19Z</time>
      </trkpt>
      <trkpt lat="43.26366" lon="-1.49874">
        <ele>171.4</ele>
        <time>2022-09-04T09:45:20Z</time>
      </trkpt>
      <trkpt lat="43.2637" lon="-1.49875">
        <ele>170.7</ele>
        <time>2022-09-04T09:45:21Z</time>
      </trkpt>
      <trkpt lat="43.26374" lon="-1.49877">
        <ele>169.9</ele>
        <time>2022-09-04T09:45:22Z</time>
      </trkpt>
      <trkpt lat="43.26377" lon="-1.49877">
        <ele>169.2</ele>
        <time>2022-09-04T09:45:23Z</time>
      </trkpt>
      <trkpt lat="43.26381" lon="-1.49877">
        <ele>168.4</ele>
        <time>2022-09-04T09:45:24Z</time>
      </trkpt>
      <trkpt lat="43.26384" lon="-1.49877">
        <ele>167.6</ele>
        <time>2022-09-04T09:45:25Z</time>
      </trkpt>
      <trkpt lat="43.26388" lon="-1.49877">
        <ele>166.8</ele>
        <time>2022-09-04T09:45:26Z</time>
      </trkpt>
      <trkpt lat="43.26391" lon="-1.49876">
        <ele>166</ele>
        <time>2022-09-04T09:45:27Z</time>
      </trkpt>
      <trkpt lat="43.26394" lon="-1.49876">
        <ele>165.3</ele>
        <time>2022-09-04T09:45:28Z</time>
      </trkpt>
      <trkpt lat="43.26396" lon="-1.49874">
        <ele>164.5</ele>
        <time>2022-09-04T09:45:29Z</time>
      </trkpt>
      <trkpt lat="43.26399" lon="-1.49873">
        <ele>163.8</ele>
        <time>2022-09-04T09:45:30Z</time>
      </trkpt>
      <trkpt lat="43.26402" lon="-1.49872">
        <ele>162.9</ele>
        <time>2022-09-04T09:45:31Z</time>
      </trkpt>
      <trkpt lat="43.26406" lon="-1.49873">
        <ele>161.9</ele>
        <time>2022-09-04T09:45:32Z</time>
      </trkpt>
      <trkpt lat="43.2641" lon="-1.49875">
        <ele>160.8</ele>
        <time>2022-09-04T09:45:33Z</time>
      </trkpt>
      <trkpt lat="43.26414" lon="-1.49879">
        <ele>159.6</ele>
        <time>2022-09-04T09:45:34Z</time>
      </trkpt>
      <trkpt lat="43.26417" lon="-1.49885">
        <ele>158.5</ele>
        <time>2022-09-04T09:45:35Z</time>
      </trkpt>
      <trkpt lat="43.2642" lon="-1.49891">
        <ele>157.2</ele>
        <time>2022-09-04T09:45:36Z</time>
      </trkpt>
      <trkpt lat="43.26422" lon="-1.49896">
        <ele>156.4</ele>
        <time>2022-09-04T09:45:37Z</time>
      </trkpt>
      <trkpt lat="43.26424" lon="-1.49901">
        <ele>155.6</ele>
        <time>2022-09-04T09:45:38Z</time>
      </trkpt>
      <trkpt lat="43.26426" lon="-1.49905">
        <ele>154.8</ele>
        <time>2022-09-04T09:45:39Z</time>
      </trkpt>
      <trkpt lat="43.26428" lon="-1.4991">
        <ele>153.9</ele>
        <time>2022-09-04T09:45:40Z</time>
      </trkpt>
      <trkpt lat="43.26431" lon="-1.49915">
        <ele>152.9</ele>
        <time>2022-09-04T09:45:41Z</time>
      </trkpt>
      <trkpt lat="43.26433" lon="-1.49919">
        <ele>152.1</ele>
        <time>2022-09-04T09:45:42Z</time>
      </trkpt>
      <trkpt lat="43.26436" lon="-1.49922">
        <ele>151.3</ele>
        <time>2022-09-04T09:45:43Z</time>
      </trkpt>
      <trkpt lat="43.26438" lon="-1.49926">
        <ele>150.6</ele>
        <time>2022-09-04T09:45:44Z</time>
      </trkpt>
      <trkpt lat="43.2644" lon="-1.49928">
        <ele>149.9</ele>
        <time>2022-09-04T09:45:45Z</time>
      </trkpt>
      <trkpt lat="43.26442" lon="-1.49931">
        <ele>149.1</ele>
        <time>2022-09-04T09:45:46Z</time>
      </trkpt>
      <trkpt lat="43.26445" lon="-1.49934">
        <ele>148.3</ele>
        <time>2022-09-04T09:45:47Z</time>
      </trkpt>
      <trkpt lat="43.26448" lon="-1.49936">
        <ele>147.5</ele>
        <time>2022-09-04T09:45:48Z</time>
      </trkpt>
      <trkpt lat="43.26451" lon="-1.49939">
        <ele>146.6</ele>
        <time>2022-09-04T09:45:49Z</time>
      </trkpt>
      <trkpt lat="43.26454" lon="-1.49943">
        <ele>145.6</ele>
        <time>2022-09-04T09:45:50Z</time>
      </trkpt>
      <trkpt lat="43.26456" lon="-1.49946">
        <ele>144.7</ele>
        <time>2022-09-04T09:45:51Z</time>
      </trkpt>
      <trkpt lat="43.26458" lon="-1.49949">
        <ele>143.9</ele>
        <time>2022-09-04T09:45:52Z</time>
      </trkpt>
      <trkpt lat="43.2646" lon="-1.49953">
        <ele>142.9</ele>
        <time>2022-09-04T09:45:53Z</time>
      </trkpt>
      <trkpt lat="43.2646" lon="-1.49955">
        <ele>142.6</ele>
        <time>2022-09-04T09:45:54Z</time>
      </trkpt>
      <trkpt lat="43.26461" lon="-1.4996">
        <ele>141.4</ele>
        <time>2022-09-04T09:45:55Z</time>
      </trkpt>
      <trkpt lat="43.26462" lon="-1.49962">
        <ele>140.9</ele>
        <time>2022-09-04T09:45:56Z</time>
      </trkpt>
      <trkpt lat="43.26463" lon="-1.49966">
        <ele>140</ele>
        <time>2022-09-04T09:45:57Z</time>
      </trkpt>
      <trkpt lat="43.26464" lon="-1.4997">
        <ele>139</ele>
        <time>2022-09-04T09:45:58Z</time>
      </trkpt>
      <trkpt lat="43.26464" lon="-1.49973">
        <ele>138</ele>
        <time>2022-09-04T09:45:59Z</time>
      </trkpt>
      <trkpt lat="43.26465" lon="-1.49978">
        <ele>136.9</ele>
        <time>2022-09-04T09:46:00Z</time>
      </trkpt>
      <trkpt lat="43.26465" lon="-1.49982">
        <ele>135.8</ele>
        <time>2022-09-04T09:46:01Z</time>
      </trkpt>
      <trkpt lat="43.26466" lon="-1.49987">
        <ele>134.6</ele>
        <time>2022-09-04T09:46:02Z</time>
      </trkpt>
      <trkpt lat="43.26466" lon="-1.49992">
        <ele>133.2</ele>
        <time>2022-09-04T09:46:03Z</time>
      </trkpt>
      <trkpt lat="43.26466" lon="-1.49993">
        <ele>132.8</ele>
        <time>2022-09-04T09:46:04Z</time>
      </trkpt>
      <trkpt lat="43.26465" lon="-1.49995">
        <ele>132.4</ele>
        <time>2022-09-04T09:46:05Z</time>
      </trkpt>
      <trkpt lat="43.26465" lon="-1.49995">
        <ele>132.2</ele>
        <time>2022-09-04T09:46:06Z</time>
      </trkpt>
      <trkpt lat="43.26465" lon="-1.49996">
        <ele>131.9</ele>
        <time>2022-09-04T09:46:07Z</time>
      </trkpt>
      <trkpt lat="43.26465" lon="-1.49997">
        <ele>131.9</ele>
        <time>2022-09-04T09:46:08Z</time>
      </trkpt>
      <trkpt lat="43.26465" lon="-1.49997">
        <ele>131.9</ele>
        <time>2022-09-04T09:46:09Z</time>
      </trkpt>
      <trkpt lat="43.26465" lon="-1.49997">
        <ele>131.9</ele>
        <time>2022-09-04T09:46:10Z</time>
      </trkpt>
      <trkpt lat="43.26465" lon="-1.49997">
        <ele>131.8</ele>
        <time>2022-09-04T09:46:11Z</time>
      </trkpt>
      <trkpt lat="43.26465" lon="-1.49997">
        <ele>131.8</ele>
        <time>2022-09-04T09:46:12Z</time>
      </trkpt>
      <trkpt lat="43.26465" lon="-1.49997">
        <ele>131.7</ele>
        <time>2022-09-04T09:46:13Z</time>
      </trkpt>
      <trkpt lat="43.26466" lon="-1.49998">
        <ele>131.5</ele>
        <time>2022-09-04T09:46:14Z</time>
      </trkpt>
      <trkpt lat="43.26466" lon="-1.49999">
        <ele>131.1</ele>
        <time>2022-09-04T09:46:15Z</time>
      </trkpt>
      <trkpt lat="43.26467" lon="-1.49999">
        <ele>130.9</ele>
        <time>2022-09-04T09:46:16Z</time>
      </trkpt>
      <trkpt lat="43.26467" lon="-1.5">
        <ele>130.7</ele>
        <time>2022-09-04T09:46:17Z</time>
      </trkpt>
      <trkpt lat="43.26468" lon="-1.5">
        <ele>130.5</ele>
        <time>2022-09-04T09:46:18Z</time>
      </trkpt>
      <trkpt lat="43.26468" lon="-1.50001">
        <ele>130.3</ele>
        <time>2022-09-04T09:46:19Z</time>
      </trkpt>
      <trkpt lat="43.26468" lon="-1.50001">
        <ele>130.1</ele>
        <time>2022-09-04T09:46:20Z</time>
      </trkpt>
      <trkpt lat="43.26471" lon="-1.50004">
        <ele>129</ele>
        <time>2022-09-04T09:46:21Z</time>
      </trkpt>
      <trkpt lat="43.26472" lon="-1.50006">
        <ele>128.6</ele>
        <time>2022-09-04T09:46:22Z</time>
      </trkpt>
      <trkpt lat="43.26473" lon="-1.50009">
        <ele>127.6</ele>
        <time>2022-09-04T09:46:23Z</time>
      </trkpt>
      <trkpt lat="43.26475" lon="-1.50013">
        <ele>126.6</ele>
        <time>2022-09-04T09:46:24Z</time>
      </trkpt>
      <trkpt lat="43.26476" lon="-1.50017">
        <ele>125.6</ele>
        <time>2022-09-04T09:46:25Z</time>
      </trkpt>
      <trkpt lat="43.26479" lon="-1.5002">
        <ele>124.6</ele>
        <time>2022-09-04T09:46:26Z</time>
      </trkpt>
      <trkpt lat="43.26481" lon="-1.50024">
        <ele>123.6</ele>
        <time>2022-09-04T09:46:27Z</time>
      </trkpt>
      <trkpt lat="43.26482" lon="-1.50028">
        <ele>122.7</ele>
        <time>2022-09-04T09:46:28Z</time>
      </trkpt>
      <trkpt lat="43.26485" lon="-1.50032">
        <ele>121.8</ele>
        <time>2022-09-04T09:46:29Z</time>
      </trkpt>
      <trkpt lat="43.26487" lon="-1.50036">
        <ele>121</ele>
        <time>2022-09-04T09:46:30Z</time>
      </trkpt>
      <trkpt lat="43.26489" lon="-1.5004">
        <ele>120.1</ele>
        <time>2022-09-04T09:46:31Z</time>
      </trkpt>
      <trkpt lat="43.26491" lon="-1.50044">
        <ele>119.2</ele>
        <time>2022-09-04T09:46:32Z</time>
      </trkpt>
      <trkpt lat="43.26494" lon="-1.5005">
        <ele>118</ele>
        <time>2022-09-04T09:46:33Z</time>
      </trkpt>
      <trkpt lat="43.26497" lon="-1.50056">
        <ele>116.7</ele>
        <time>2022-09-04T09:46:34Z</time>
      </trkpt>
      <trkpt lat="43.26501" lon="-1.50062">
        <ele>115.3</ele>
        <time>2022-09-04T09:46:35Z</time>
      </trkpt>
      <trkpt lat="43.26506" lon="-1.50068">
        <ele>113.7</ele>
        <time>2022-09-04T09:46:36Z</time>
      </trkpt>
      <trkpt lat="43.26511" lon="-1.50073">
        <ele>112.5</ele>
        <time>2022-09-04T09:46:37Z</time>
      </trkpt>
      <trkpt lat="43.26515" lon="-1.50077">
        <ele>111.5</ele>
        <time>2022-09-04T09:46:38Z</time>
      </trkpt>
      <trkpt lat="43.26519" lon="-1.5008">
        <ele>110.6</ele>
        <time>2022-09-04T09:46:39Z</time>
      </trkpt>
      <trkpt lat="43.26524" lon="-1.50085">
        <ele>109.6</ele>
        <time>2022-09-04T09:46:40Z</time>
      </trkpt>
      <trkpt lat="43.26529" lon="-1.50091">
        <ele>108.6</ele>
        <time>2022-09-04T09:46:41Z</time>
      </trkpt>
      <trkpt lat="43.26533" lon="-1.50097">
        <ele>107.8</ele>
        <time>2022-09-04T09:46:42Z</time>
      </trkpt>
      <trkpt lat="43.26537" lon="-1.50103">
        <ele>107</ele>
        <time>2022-09-04T09:46:43Z</time>
      </trkpt>
      <trkpt lat="43.26541" lon="-1.50108">
        <ele>106.4</ele>
        <time>2022-09-04T09:46:44Z</time>
      </trkpt>
      <trkpt lat="43.26543" lon="-1.50113">
        <ele>105.9</ele>
        <time>2022-09-04T09:46:45Z</time>
      </trkpt>
      <trkpt lat="43.26545" lon="-1.50116">
        <ele>105.6</ele>
        <time>2022-09-04T09:46:46Z</time>
      </trkpt>
      <trkpt lat="43.26548" lon="-1.5012">
        <ele>105.3</ele>
        <time>2022-09-04T09:46:47Z</time>
      </trkpt>
      <trkpt lat="43.26549" lon="-1.50122">
        <ele>105.2</ele>
        <time>2022-09-04T09:46:48Z</time>
      </trkpt>
      <trkpt lat="43.2655" lon="-1.50126">
        <ele>104.9</ele>
        <time>2022-09-04T09:46:49Z</time>
      </trkpt>
      <trkpt lat="43.26551" lon="-1.50127">
        <ele>104.8</ele>
        <time>2022-09-04T09:46:50Z</time>
      </trkpt>
      <trkpt lat="43.26552" lon="-1.50131">
        <ele>104.6</ele>
        <time>2022-09-04T09:46:51Z</time>
      </trkpt>
      <trkpt lat="43.26553" lon="-1.50132">
        <ele>104.5</ele>
        <time>2022-09-04T09:46:52Z</time>
      </trkpt>
      <trkpt lat="43.26554" lon="-1.50137">
        <ele>104.2</ele>
        <time>2022-09-04T09:46:53Z</time>
      </trkpt>
      <trkpt lat="43.26555" lon="-1.50138">
        <ele>104.1</ele>
        <time>2022-09-04T09:46:54Z</time>
      </trkpt>
      <trkpt lat="43.26556" lon="-1.50143">
        <ele>103.9</ele>
        <time>2022-09-04T09:46:55Z</time>
      </trkpt>
      <trkpt lat="43.26557" lon="-1.50144">
        <ele>103.9</ele>
        <time>2022-09-04T09:46:56Z</time>
      </trkpt>
      <trkpt lat="43.26558" lon="-1.50146">
        <ele>103.8</ele>
        <time>2022-09-04T09:46:57Z</time>
      </trkpt>
      <trkpt lat="43.26559" lon="-1.50147">
        <ele>103.7</ele>
        <time>2022-09-04T09:46:58Z</time>
      </trkpt>
      <trkpt lat="43.26561" lon="-1.50149">
        <ele>103.5</ele>
        <time>2022-09-04T09:46:59Z</time>
      </trkpt>
      <trkpt lat="43.26562" lon="-1.50149">
        <ele>103.4</ele>
        <time>2022-09-04T09:47:00Z</time>
      </trkpt>
      <trkpt lat="43.26563" lon="-1.50149">
        <ele>103.4</ele>
        <time>2022-09-04T09:47:01Z</time>
      </trkpt>
      <trkpt lat="43.26567" lon="-1.50147">
        <ele>102.5</ele>
        <time>2022-09-04T09:47:02Z</time>
      </trkpt>
      <trkpt lat="43.26569" lon="-1.50146">
        <ele>102.4</ele>
        <time>2022-09-04T09:47:03Z</time>
      </trkpt>
      <trkpt lat="43.26573" lon="-1.50145">
        <ele>102.1</ele>
        <time>2022-09-04T09:47:04Z</time>
      </trkpt>
      <trkpt lat="43.26576" lon="-1.50145">
        <ele>101.9</ele>
        <time>2022-09-04T09:47:05Z</time>
      </trkpt>
      <trkpt lat="43.2658" lon="-1.50144">
        <ele>101.7</ele>
        <time>2022-09-04T09:47:06Z</time>
      </trkpt>
      <trkpt lat="43.26584" lon="-1.50145">
        <ele>101.5</ele>
        <time>2022-09-04T09:47:07Z</time>
      </trkpt>
      <trkpt lat="43.26587" lon="-1.50147">
        <ele>101.3</ele>
        <time>2022-09-04T09:47:08Z</time>
      </trkpt>
      <trkpt lat="43.2659" lon="-1.50149">
        <ele>101.1</ele>
        <time>2022-09-04T09:47:09Z</time>
      </trkpt>
      <trkpt lat="43.26594" lon="-1.50152">
        <ele>100.9</ele>
        <time>2022-09-04T09:47:10Z</time>
      </trkpt>
      <trkpt lat="43.26599" lon="-1.50156">
        <ele>100.7</ele>
        <time>2022-09-04T09:47:11Z</time>
      </trkpt>
      <trkpt lat="43.26603" lon="-1.50159">
        <ele>100.5</ele>
        <time>2022-09-04T09:47:12Z</time>
      </trkpt>
      <trkpt lat="43.26606" lon="-1.50163">
        <ele>100.4</ele>
        <time>2022-09-04T09:47:13Z</time>
      </trkpt>
      <trkpt lat="43.2661" lon="-1.50166">
        <ele>100.2</ele>
        <time>2022-09-04T09:47:14Z</time>
      </trkpt>
      <trkpt lat="43.26613" lon="-1.50169">
        <ele>100</ele>
        <time>2022-09-04T09:47:15Z</time>
      </trkpt>
      <trkpt lat="43.26616" lon="-1.50173">
        <ele>99.9</ele>
        <time>2022-09-04T09:47:16Z</time>
      </trkpt>
      <trkpt lat="43.2662" lon="-1.50177">
        <ele>99.7</ele>
        <time>2022-09-04T09:47:17Z</time>
      </trkpt>
      <trkpt lat="43.26623" lon="-1.50181">
        <ele>99.5</ele>
        <time>2022-09-04T09:47:18Z</time>
      </trkpt>
      <trkpt lat="43.26628" lon="-1.50187">
        <ele>99.2</ele>
        <time>2022-09-04T09:47:19Z</time>
      </trkpt>
      <trkpt lat="43.26632" lon="-1.50194">
        <ele>98.9</ele>
        <time>2022-09-04T09:47:20Z</time>
      </trkpt>
      <trkpt lat="43.26636" lon="-1.502">
        <ele>98.6</ele>
        <time>2022-09-04T09:47:21Z</time>
      </trkpt>
      <trkpt lat="43.26641" lon="-1.50206">
        <ele>98.3</ele>
        <time>2022-09-04T09:47:22Z</time>
      </trkpt>
      <trkpt lat="43.26646" lon="-1.50213">
        <ele>98</ele>
        <time>2022-09-04T09:47:23Z</time>
      </trkpt>
      <trkpt lat="43.2665" lon="-1.50219">
        <ele>97.8</ele>
        <time>2022-09-04T09:47:24Z</time>
      </trkpt>
      <trkpt lat="43.26654" lon="-1.50226">
        <ele>97.5</ele>
        <time>2022-09-04T09:47:25Z</time>
      </trkpt>
      <trkpt lat="43.26658" lon="-1.50233">
        <ele>97.3</ele>
        <time>2022-09-04T09:47:26Z</time>
      </trkpt>
      <trkpt lat="43.26662" lon="-1.50239">
        <ele>97.1</ele>
        <time>2022-09-04T09:47:27Z</time>
      </trkpt>
      <trkpt lat="43.26668" lon="-1.50244">
        <ele>96.8</ele>
        <time>2022-09-04T09:47:28Z</time>
      </trkpt>
      <trkpt lat="43.26674" lon="-1.50248">
        <ele>96.6</ele>
        <time>2022-09-04T09:47:29Z</time>
      </trkpt>
      <trkpt lat="43.2668" lon="-1.50252">
        <ele>96.4</ele>
        <time>2022-09-04T09:47:30Z</time>
      </trkpt>
      <trkpt lat="43.26687" lon="-1.50255">
        <ele>96.4</ele>
        <time>2022-09-04T09:47:31Z</time>
      </trkpt>
      <trkpt lat="43.26693" lon="-1.50257">
        <ele>96.4</ele>
        <time>2022-09-04T09:47:32Z</time>
      </trkpt>
      <trkpt lat="43.26698" lon="-1.50257">
        <ele>96.5</ele>
        <time>2022-09-04T09:47:33Z</time>
      </trkpt>
      <trkpt lat="43.26702" lon="-1.50256">
        <ele>95.4</ele>
        <time>2022-09-04T09:47:34Z</time>
      </trkpt>
      <trkpt lat="43.26706" lon="-1.50256">
        <ele>95.4</ele>
        <time>2022-09-04T09:47:35Z</time>
      </trkpt>
      <trkpt lat="43.26711" lon="-1.50257">
        <ele>95.4</ele>
        <time>2022-09-04T09:47:36Z</time>
      </trkpt>
      <trkpt lat="43.26716" lon="-1.50259">
        <ele>95.2</ele>
        <time>2022-09-04T09:47:37Z</time>
      </trkpt>
      <trkpt lat="43.26721" lon="-1.50261">
        <ele>95</ele>
        <time>2022-09-04T09:47:38Z</time>
      </trkpt>
      <trkpt lat="43.26726" lon="-1.50263">
        <ele>94.9</ele>
        <time>2022-09-04T09:47:39Z</time>
      </trkpt>
      <trkpt lat="43.2673" lon="-1.50264">
        <ele>94.7</ele>
        <time>2022-09-04T09:47:40Z</time>
      </trkpt>
      <trkpt lat="43.26735" lon="-1.50263">
        <ele>94.6</ele>
        <time>2022-09-04T09:47:41Z</time>
      </trkpt>
      <trkpt lat="43.2674" lon="-1.50263">
        <ele>94.4</ele>
        <time>2022-09-04T09:47:42Z</time>
      </trkpt>
      <trkpt lat="43.26745" lon="-1.50263">
        <ele>94.2</ele>
        <time>2022-09-04T09:47:43Z</time>
      </trkpt>
      <trkpt lat="43.2675" lon="-1.50263">
        <ele>94.1</ele>
        <time>2022-09-04T09:47:44Z</time>
      </trkpt>
      <trkpt lat="43.26755" lon="-1.50263">
        <ele>93.9</ele>
        <time>2022-09-04T09:47:45Z</time>
      </trkpt>
      <trkpt lat="43.2676" lon="-1.50262">
        <ele>93.8</ele>
        <time>2022-09-04T09:47:46Z</time>
      </trkpt>
      <trkpt lat="43.26765" lon="-1.50262">
        <ele>93.6</ele>
        <time>2022-09-04T09:47:47Z</time>
      </trkpt>
      <trkpt lat="43.26771" lon="-1.5026">
        <ele>93.4</ele>
        <time>2022-09-04T09:47:48Z</time>
      </trkpt>
      <trkpt lat="43.26776" lon="-1.50259">
        <ele>93.3</ele>
        <time>2022-09-04T09:47:49Z</time>
      </trkpt>
      <trkpt lat="43.2678" lon="-1.50256">
        <ele>93.2</ele>
        <time>2022-09-04T09:47:50Z</time>
      </trkpt>
      <trkpt lat="43.26784" lon="-1.50252">
        <ele>93.1</ele>
        <time>2022-09-04T09:47:51Z</time>
      </trkpt>
      <trkpt lat="43.26787" lon="-1.50246">
        <ele>93</ele>
        <time>2022-09-04T09:47:52Z</time>
      </trkpt>
      <trkpt lat="43.2679" lon="-1.5024">
        <ele>92.9</ele>
        <time>2022-09-04T09:47:53Z</time>
      </trkpt>
      <trkpt lat="43.26792" lon="-1.50233">
        <ele>92.9</ele>
        <time>2022-09-04T09:47:54Z</time>
      </trkpt>
      <trkpt lat="43.26795" lon="-1.50227">
        <ele>93</ele>
        <time>2022-09-04T09:47:55Z</time>
      </trkpt>
      <trkpt lat="43.26798" lon="-1.50221">
        <ele>93</ele>
        <time>2022-09-04T09:47:56Z</time>
      </trkpt>
      <trkpt lat="43.26801" lon="-1.50216">
        <ele>93.2</ele>
        <time>2022-09-04T09:47:57Z</time>
      </trkpt>
      <trkpt lat="43.26805" lon="-1.50211">
        <ele>93.4</ele>
        <time>2022-09-04T09:47:58Z</time>
      </trkpt>
      <trkpt lat="43.26808" lon="-1.50207">
        <ele>93.6</ele>
        <time>2022-09-04T09:47:59Z</time>
      </trkpt>
      <trkpt lat="43.26811" lon="-1.50204">
        <ele>93.9</ele>
        <time>2022-09-04T09:48:00Z</time>
      </trkpt>
      <trkpt lat="43.26815" lon="-1.50202">
        <ele>94.2</ele>
        <time>2022-09-04T09:48:01Z</time>
      </trkpt>
      <trkpt lat="43.26818" lon="-1.50199">
        <ele>94.5</ele>
        <time>2022-09-04T09:48:02Z</time>
      </trkpt>
      <trkpt lat="43.2682" lon="-1.50197">
        <ele>94.8</ele>
        <time>2022-09-04T09:48:03Z</time>
      </trkpt>
      <trkpt lat="43.26822" lon="-1.50195">
        <ele>95</ele>
        <time>2022-09-04T09:48:04Z</time>
      </trkpt>
      <trkpt lat="43.26824" lon="-1.50194">
        <ele>95.1</ele>
        <time>2022-09-04T09:48:05Z</time>
      </trkpt>
      <trkpt lat="43.26826" lon="-1.50192">
        <ele>95.4</ele>
        <time>2022-09-04T09:48:06Z</time>
      </trkpt>
      <trkpt lat="43.26829" lon="-1.5019">
        <ele>95.8</ele>
        <time>2022-09-04T09:48:07Z</time>
      </trkpt>
      <trkpt lat="43.26831" lon="-1.50188">
        <ele>96.1</ele>
        <time>2022-09-04T09:48:08Z</time>
      </trkpt>
      <trkpt lat="43.26835" lon="-1.50184">
        <ele>96.7</ele>
        <time>2022-09-04T09:48:09Z</time>
      </trkpt>
      <trkpt lat="43.26836" lon="-1.50183">
        <ele>96.9</ele>
        <time>2022-09-04T09:48:10Z</time>
      </trkpt>
      <trkpt lat="43.26839" lon="-1.50181">
        <ele>97.2</ele>
        <time>2022-09-04T09:48:11Z</time>
      </trkpt>
      <trkpt lat="43.26842" lon="-1.50178">
        <ele>97.6</ele>
        <time>2022-09-04T09:48:12Z</time>
      </trkpt>
      <trkpt lat="43.26844" lon="-1.50176">
        <ele>98</ele>
        <time>2022-09-04T09:48:13Z</time>
      </trkpt>
      <trkpt lat="43.26847" lon="-1.50174">
        <ele>98.3</ele>
        <time>2022-09-04T09:48:14Z</time>
      </trkpt>
      <trkpt lat="43.26851" lon="-1.50171">
        <ele>98.7</ele>
        <time>2022-09-04T09:48:15Z</time>
      </trkpt>
      <trkpt lat="43.26854" lon="-1.50169">
        <ele>99</ele>
        <time>2022-09-04T09:48:16Z</time>
      </trkpt>
      <trkpt lat="43.26857" lon="-1.50166">
        <ele>99.3</ele>
        <time>2022-09-04T09:48:17Z</time>
      </trkpt>
      <trkpt lat="43.2686" lon="-1.50163">
        <ele>99.6</ele>
        <time>2022-09-04T09:48:18Z</time>
      </trkpt>
      <trkpt lat="43.26864" lon="-1.50161">
        <ele>99.8</ele>
        <time>2022-09-04T09:48:19Z</time>
      </trkpt>
      <trkpt lat="43.26868" lon="-1.50158">
        <ele>100.1</ele>
        <time>2022-09-04T09:48:20Z</time>
      </trkpt>
      <trkpt lat="43.26873" lon="-1.50155">
        <ele>100.3</ele>
        <time>2022-09-04T09:48:21Z</time>
      </trkpt>
      <trkpt lat="43.26876" lon="-1.50151">
        <ele>100.4</ele>
        <time>2022-09-04T09:48:22Z</time>
      </trkpt>
      <trkpt lat="43.26879" lon="-1.50148">
        <ele>100.5</ele>
        <time>2022-09-04T09:48:23Z</time>
      </trkpt>
      <trkpt lat="43.26883" lon="-1.50145">
        <ele>100.6</ele>
        <time>2022-09-04T09:48:24Z</time>
      </trkpt>
      <trkpt lat="43.26886" lon="-1.50143">
        <ele>100.6</ele>
        <time>2022-09-04T09:48:25Z</time>
      </trkpt>
      <trkpt lat="43.2689" lon="-1.5014">
        <ele>100.7</ele>
        <time>2022-09-04T09:48:26Z</time>
      </trkpt>
      <trkpt lat="43.26896" lon="-1.50137">
        <ele>100.8</ele>
        <time>2022-09-04T09:48:27Z</time>
      </trkpt>
      <trkpt lat="43.26902" lon="-1.50135">
        <ele>100.9</ele>
        <time>2022-09-04T09:48:28Z</time>
      </trkpt>
      <trkpt lat="43.26907" lon="-1.50133">
        <ele>100.9</ele>
        <time>2022-09-04T09:48:29Z</time>
      </trkpt>
      <trkpt lat="43.26913" lon="-1.50132">
        <ele>101.1</ele>
        <time>2022-09-04T09:48:30Z</time>
      </trkpt>
      <trkpt lat="43.26918" lon="-1.5013">
        <ele>101.3</ele>
        <time>2022-09-04T09:48:31Z</time>
      </trkpt>
      <trkpt lat="43.26923" lon="-1.50129">
        <ele>101.5</ele>
        <time>2022-09-04T09:48:32Z</time>
      </trkpt>
      <trkpt lat="43.26927" lon="-1.50128">
        <ele>101.7</ele>
        <time>2022-09-04T09:48:33Z</time>
      </trkpt>
      <trkpt lat="43.2693" lon="-1.50127">
        <ele>101.9</ele>
        <time>2022-09-04T09:48:34Z</time>
      </trkpt>
      <trkpt lat="43.26933" lon="-1.50127">
        <ele>102</ele>
        <time>2022-09-04T09:48:35Z</time>
      </trkpt>
      <trkpt lat="43.26937" lon="-1.50126">
        <ele>102.2</ele>
        <time>2022-09-04T09:48:36Z</time>
      </trkpt>
      <trkpt lat="43.2694" lon="-1.50126">
        <ele>102.3</ele>
        <time>2022-09-04T09:48:37Z</time>
      </trkpt>
      <trkpt lat="43.26944" lon="-1.50125">
        <ele>102.4</ele>
        <time>2022-09-04T09:48:38Z</time>
      </trkpt>
      <trkpt lat="43.26947" lon="-1.50124">
        <ele>102.5</ele>
        <time>2022-09-04T09:48:39Z</time>
      </trkpt>
      <trkpt lat="43.2695" lon="-1.50123">
        <ele>102.5</ele>
        <time>2022-09-04T09:48:40Z</time>
      </trkpt>
      <trkpt lat="43.26953" lon="-1.50121">
        <ele>102.4</ele>
        <time>2022-09-04T09:48:41Z</time>
      </trkpt>
      <trkpt lat="43.26957" lon="-1.5012">
        <ele>102.4</ele>
        <time>2022-09-04T09:48:42Z</time>
      </trkpt>
      <trkpt lat="43.2696" lon="-1.50118">
        <ele>102.3</ele>
        <time>2022-09-04T09:48:43Z</time>
      </trkpt>
      <trkpt lat="43.26965" lon="-1.50117">
        <ele>102</ele>
        <time>2022-09-04T09:48:44Z</time>
      </trkpt>
      <trkpt lat="43.26971" lon="-1.50116">
        <ele>101.8</ele>
        <time>2022-09-04T09:48:45Z</time>
      </trkpt>
      <trkpt lat="43.26977" lon="-1.50116">
        <ele>101.4</ele>
        <time>2022-09-04T09:48:46Z</time>
      </trkpt>
      <trkpt lat="43.26984" lon="-1.50117">
        <ele>100.9</ele>
        <time>2022-09-04T09:48:47Z</time>
      </trkpt>
      <trkpt lat="43.26991" lon="-1.50118">
        <ele>100.5</ele>
        <time>2022-09-04T09:48:48Z</time>
      </trkpt>
      <trkpt lat="43.26998" lon="-1.50118">
        <ele>100.1</ele>
        <time>2022-09-04T09:48:49Z</time>
      </trkpt>
      <trkpt lat="43.27005" lon="-1.50118">
        <ele>99.8</ele>
        <time>2022-09-04T09:48:50Z</time>
      </trkpt>
      <trkpt lat="43.27011" lon="-1.50119">
        <ele>99.5</ele>
        <time>2022-09-04T09:48:51Z</time>
      </trkpt>
      <trkpt lat="43.27017" lon="-1.50122">
        <ele>99.1</ele>
        <time>2022-09-04T09:48:52Z</time>
      </trkpt>
      <trkpt lat="43.27025" lon="-1.50128">
        <ele>98.6</ele>
        <time>2022-09-04T09:48:53Z</time>
      </trkpt>
      <trkpt lat="43.27033" lon="-1.50133">
        <ele>97.8</ele>
        <time>2022-09-04T09:48:54Z</time>
      </trkpt>
      <trkpt lat="43.27043" lon="-1.50138">
        <ele>96.9</ele>
        <time>2022-09-04T09:48:55Z</time>
      </trkpt>
      <trkpt lat="43.27051" lon="-1.50142">
        <ele>96</ele>
        <time>2022-09-04T09:48:56Z</time>
      </trkpt>
      <trkpt lat="43.27061" lon="-1.50145">
        <ele>95</ele>
        <time>2022-09-04T09:48:57Z</time>
      </trkpt>
      <trkpt lat="43.2707" lon="-1.50147">
        <ele>94.4</ele>
        <time>2022-09-04T09:48:58Z</time>
      </trkpt>
      <trkpt lat="43.27077" lon="-1.50148">
        <ele>94</ele>
        <time>2022-09-04T09:48:59Z</time>
      </trkpt>
      <trkpt lat="43.27084" lon="-1.50147">
        <ele>93.9</ele>
        <time>2022-09-04T09:49:00Z</time>
      </trkpt>
      <trkpt lat="43.27091" lon="-1.50143">
        <ele>93.9</ele>
        <time>2022-09-04T09:49:01Z</time>
      </trkpt>
      <trkpt lat="43.27097" lon="-1.50139">
        <ele>94</ele>
        <time>2022-09-04T09:49:02Z</time>
      </trkpt>
      <trkpt lat="43.27104" lon="-1.50135">
        <ele>94.1</ele>
        <time>2022-09-04T09:49:03Z</time>
      </trkpt>
      <trkpt lat="43.2711" lon="-1.50131">
        <ele>94.1</ele>
        <time>2022-09-04T09:49:04Z</time>
      </trkpt>
      <trkpt lat="43.27116" lon="-1.50127">
        <ele>94</ele>
        <time>2022-09-04T09:49:05Z</time>
      </trkpt>
      <trkpt lat="43.27122" lon="-1.50123">
        <ele>93.9</ele>
        <time>2022-09-04T09:49:06Z</time>
      </trkpt>
      <trkpt lat="43.27127" lon="-1.5012">
        <ele>93.8</ele>
        <time>2022-09-04T09:49:07Z</time>
      </trkpt>
      <trkpt lat="43.27132" lon="-1.50116">
        <ele>93.7</ele>
        <time>2022-09-04T09:49:08Z</time>
      </trkpt>
      <trkpt lat="43.27137" lon="-1.50112">
        <ele>93.6</ele>
        <time>2022-09-04T09:49:09Z</time>
      </trkpt>
      <trkpt lat="43.27143" lon="-1.50108">
        <ele>93.5</ele>
        <time>2022-09-04T09:49:10Z</time>
      </trkpt>
      <trkpt lat="43.27148" lon="-1.50105">
        <ele>93.4</ele>
        <time>2022-09-04T09:49:11Z</time>
      </trkpt>
      <trkpt lat="43.27154" lon="-1.50101">
        <ele>93.3</ele>
        <time>2022-09-04T09:49:12Z</time>
      </trkpt>
      <trkpt lat="43.2716" lon="-1.50098">
        <ele>93.2</ele>
        <time>2022-09-04T09:49:13Z</time>
      </trkpt>
      <trkpt lat="43.27166" lon="-1.50095">
        <ele>93.1</ele>
        <time>2022-09-04T09:49:14Z</time>
      </trkpt>
      <trkpt lat="43.27174" lon="-1.50093">
        <ele>92.9</ele>
        <time>2022-09-04T09:49:15Z</time>
      </trkpt>
      <trkpt lat="43.2718" lon="-1.50093">
        <ele>92.8</ele>
        <time>2022-09-04T09:49:16Z</time>
      </trkpt>
      <trkpt lat="43.27189" lon="-1.50094">
        <ele>92.6</ele>
        <time>2022-09-04T09:49:17Z</time>
      </trkpt>
      <trkpt lat="43.272" lon="-1.50097">
        <ele>92.2</ele>
        <time>2022-09-04T09:49:18Z</time>
      </trkpt>
      <trkpt lat="43.27209" lon="-1.50098">
        <ele>92.1</ele>
        <time>2022-09-04T09:49:19Z</time>
      </trkpt>
      <trkpt lat="43.27217" lon="-1.501">
        <ele>92.1</ele>
        <time>2022-09-04T09:49:20Z</time>
      </trkpt>
      <trkpt lat="43.27223" lon="-1.50104">
        <ele>92.1</ele>
        <time>2022-09-04T09:49:21Z</time>
      </trkpt>
      <trkpt lat="43.27229" lon="-1.50108">
        <ele>92.2</ele>
        <time>2022-09-04T09:49:22Z</time>
      </trkpt>
      <trkpt lat="43.27232" lon="-1.50114">
        <ele>92.2</ele>
        <time>2022-09-04T09:49:23Z</time>
      </trkpt>
      <trkpt lat="43.27234" lon="-1.50122">
        <ele>92.1</ele>
        <time>2022-09-04T09:49:24Z</time>
      </trkpt>
      <trkpt lat="43.27235" lon="-1.50132">
        <ele>92</ele>
        <time>2022-09-04T09:49:25Z</time>
      </trkpt>
      <trkpt lat="43.27235" lon="-1.50142">
        <ele>91.8</ele>
        <time>2022-09-04T09:49:26Z</time>
      </trkpt>
      <trkpt lat="43.27237" lon="-1.50151">
        <ele>91.6</ele>
        <time>2022-09-04T09:49:27Z</time>
      </trkpt>
      <trkpt lat="43.2724" lon="-1.50159">
        <ele>91.4</ele>
        <time>2022-09-04T09:49:28Z</time>
      </trkpt>
      <trkpt lat="43.27244" lon="-1.50164">
        <ele>91.2</ele>
        <time>2022-09-04T09:49:29Z</time>
      </trkpt>
      <trkpt lat="43.27249" lon="-1.50167">
        <ele>91.1</ele>
        <time>2022-09-04T09:49:30Z</time>
      </trkpt>
      <trkpt lat="43.27255" lon="-1.50169">
        <ele>91</ele>
        <time>2022-09-04T09:49:31Z</time>
      </trkpt>
      <trkpt lat="43.2726" lon="-1.5017">
        <ele>91</ele>
        <time>2022-09-04T09:49:32Z</time>
      </trkpt>
      <trkpt lat="43.27265" lon="-1.50169">
        <ele>91</ele>
        <time>2022-09-04T09:49:33Z</time>
      </trkpt>
      <trkpt lat="43.2727" lon="-1.50167">
        <ele>91</ele>
        <time>2022-09-04T09:49:34Z</time>
      </trkpt>
      <trkpt lat="43.27276" lon="-1.50164">
        <ele>91.2</ele>
        <time>2022-09-04T09:49:35Z</time>
      </trkpt>
      <trkpt lat="43.27281" lon="-1.50161">
        <ele>91.3</ele>
        <time>2022-09-04T09:49:36Z</time>
      </trkpt>
      <trkpt lat="43.27286" lon="-1.50159">
        <ele>91.7</ele>
        <time>2022-09-04T09:49:37Z</time>
      </trkpt>
      <trkpt lat="43.27292" lon="-1.50161">
        <ele>92</ele>
        <time>2022-09-04T09:49:38Z</time>
      </trkpt>
      <trkpt lat="43.27297" lon="-1.50164">
        <ele>92.2</ele>
        <time>2022-09-04T09:49:39Z</time>
      </trkpt>
      <trkpt lat="43.27302" lon="-1.50169">
        <ele>92.2</ele>
        <time>2022-09-04T09:49:40Z</time>
      </trkpt>
      <trkpt lat="43.27307" lon="-1.50174">
        <ele>92.2</ele>
        <time>2022-09-04T09:49:41Z</time>
      </trkpt>
      <trkpt lat="43.27311" lon="-1.50181">
        <ele>92</ele>
        <time>2022-09-04T09:49:42Z</time>
      </trkpt>
      <trkpt lat="43.27315" lon="-1.50189">
        <ele>91.8</ele>
        <time>2022-09-04T09:49:43Z</time>
      </trkpt>
      <trkpt lat="43.27319" lon="-1.50196">
        <ele>91.6</ele>
        <time>2022-09-04T09:49:44Z</time>
      </trkpt>
      <trkpt lat="43.27324" lon="-1.50203">
        <ele>91.4</ele>
        <time>2022-09-04T09:49:45Z</time>
      </trkpt>
      <trkpt lat="43.27327" lon="-1.50211">
        <ele>91.3</ele>
        <time>2022-09-04T09:49:46Z</time>
      </trkpt>
      <trkpt lat="43.2733" lon="-1.50219">
        <ele>91.2</ele>
        <time>2022-09-04T09:49:47Z</time>
      </trkpt>
      <trkpt lat="43.27332" lon="-1.50227">
        <ele>91.1</ele>
        <time>2022-09-04T09:49:48Z</time>
      </trkpt>
      <trkpt lat="43.27334" lon="-1.50236">
        <ele>91</ele>
        <time>2022-09-04T09:49:49Z</time>
      </trkpt>
      <trkpt lat="43.27336" lon="-1.50245">
        <ele>90.9</ele>
        <time>2022-09-04T09:49:50Z</time>
      </trkpt>
      <trkpt lat="43.27337" lon="-1.50253">
        <ele>90.9</ele>
        <time>2022-09-04T09:49:51Z</time>
      </trkpt>
      <trkpt lat="43.27337" lon="-1.50262">
        <ele>91</ele>
        <time>2022-09-04T09:49:52Z</time>
      </trkpt>
      <trkpt lat="43.27337" lon="-1.50271">
        <ele>91</ele>
        <time>2022-09-04T09:49:53Z</time>
      </trkpt>
      <trkpt lat="43.27337" lon="-1.50279">
        <ele>91</ele>
        <time>2022-09-04T09:49:54Z</time>
      </trkpt>
      <trkpt lat="43.27337" lon="-1.50286">
        <ele>91</ele>
        <time>2022-09-04T09:49:55Z</time>
      </trkpt>
      <trkpt lat="43.27338" lon="-1.50293">
        <ele>91</ele>
        <time>2022-09-04T09:49:56Z</time>
      </trkpt>
      <trkpt lat="43.2734" lon="-1.50301">
        <ele>90.9</ele>
        <time>2022-09-04T09:49:57Z</time>
      </trkpt>
      <trkpt lat="43.27342" lon="-1.50308">
        <ele>90.8</ele>
        <time>2022-09-04T09:49:58Z</time>
      </trkpt>
      <trkpt lat="43.27344" lon="-1.50316">
        <ele>90.7</ele>
        <time>2022-09-04T09:49:59Z</time>
      </trkpt>
      <trkpt lat="43.27345" lon="-1.50323">
        <ele>90.5</ele>
        <time>2022-09-04T09:50:00Z</time>
      </trkpt>
      <trkpt lat="43.27346" lon="-1.50331">
        <ele>90.3</ele>
        <time>2022-09-04T09:50:01Z</time>
      </trkpt>
      <trkpt lat="43.27347" lon="-1.50339">
        <ele>90.1</ele>
        <time>2022-09-04T09:50:02Z</time>
      </trkpt>
      <trkpt lat="43.27348" lon="-1.50346">
        <ele>90</ele>
        <time>2022-09-04T09:50:03Z</time>
      </trkpt>
      <trkpt lat="43.27349" lon="-1.50353">
        <ele>89.9</ele>
        <time>2022-09-04T09:50:04Z</time>
      </trkpt>
      <trkpt lat="43.2735" lon="-1.5036">
        <ele>89.8</ele>
        <time>2022-09-04T09:50:05Z</time>
      </trkpt>
      <trkpt lat="43.27351" lon="-1.50368">
        <ele>89.7</ele>
        <time>2022-09-04T09:50:06Z</time>
      </trkpt>
      <trkpt lat="43.27353" lon="-1.50374">
        <ele>89.6</ele>
        <time>2022-09-04T09:50:07Z</time>
      </trkpt>
      <trkpt lat="43.27355" lon="-1.5038">
        <ele>89.6</ele>
        <time>2022-09-04T09:50:08Z</time>
      </trkpt>
      <trkpt lat="43.27357" lon="-1.50386">
        <ele>89.5</ele>
        <time>2022-09-04T09:50:09Z</time>
      </trkpt>
      <trkpt lat="43.2736" lon="-1.50392">
        <ele>89.4</ele>
        <time>2022-09-04T09:50:10Z</time>
      </trkpt>
      <trkpt lat="43.27363" lon="-1.50399">
        <ele>89.1</ele>
        <time>2022-09-04T09:50:11Z</time>
      </trkpt>
      <trkpt lat="43.27364" lon="-1.50406">
        <ele>88.8</ele>
        <time>2022-09-04T09:50:12Z</time>
      </trkpt>
      <trkpt lat="43.27366" lon="-1.50414">
        <ele>88.5</ele>
        <time>2022-09-04T09:50:13Z</time>
      </trkpt>
      <trkpt lat="43.27367" lon="-1.50422">
        <ele>88.2</ele>
        <time>2022-09-04T09:50:14Z</time>
      </trkpt>
      <trkpt lat="43.27369" lon="-1.50429">
        <ele>87.9</ele>
        <time>2022-09-04T09:50:15Z</time>
      </trkpt>
      <trkpt lat="43.2737" lon="-1.50436">
        <ele>87.6</ele>
        <time>2022-09-04T09:50:16Z</time>
      </trkpt>
      <trkpt lat="43.2737" lon="-1.50442">
        <ele>87.4</ele>
        <time>2022-09-04T09:50:17Z</time>
      </trkpt>
      <trkpt lat="43.27372" lon="-1.50449">
        <ele>87.1</ele>
        <time>2022-09-04T09:50:18Z</time>
      </trkpt>
      <trkpt lat="43.27373" lon="-1.50455">
        <ele>87</ele>
        <time>2022-09-04T09:50:19Z</time>
      </trkpt>
      <trkpt lat="43.27376" lon="-1.50459">
        <ele>87</ele>
        <time>2022-09-04T09:50:20Z</time>
      </trkpt>
      <trkpt lat="43.2738" lon="-1.50462">
        <ele>87.2</ele>
        <time>2022-09-04T09:50:21Z</time>
      </trkpt>
      <trkpt lat="43.27383" lon="-1.50464">
        <ele>87.4</ele>
        <time>2022-09-04T09:50:22Z</time>
      </trkpt>
      <trkpt lat="43.27387" lon="-1.50466">
        <ele>87.6</ele>
        <time>2022-09-04T09:50:23Z</time>
      </trkpt>
      <trkpt lat="43.2739" lon="-1.50468">
        <ele>87.8</ele>
        <time>2022-09-04T09:50:24Z</time>
      </trkpt>
      <trkpt lat="43.27393" lon="-1.50471">
        <ele>88</ele>
        <time>2022-09-04T09:50:25Z</time>
      </trkpt>
      <trkpt lat="43.27395" lon="-1.50474">
        <ele>88.2</ele>
        <time>2022-09-04T09:50:26Z</time>
      </trkpt>
      <trkpt lat="43.27398" lon="-1.50476">
        <ele>88.5</ele>
        <time>2022-09-04T09:50:27Z</time>
      </trkpt>
      <trkpt lat="43.274" lon="-1.50478">
        <ele>88.7</ele>
        <time>2022-09-04T09:50:28Z</time>
      </trkpt>
      <trkpt lat="43.27403" lon="-1.5048">
        <ele>89</ele>
        <time>2022-09-04T09:50:29Z</time>
      </trkpt>
      <trkpt lat="43.27406" lon="-1.50483">
        <ele>89.2</ele>
        <time>2022-09-04T09:50:30Z</time>
      </trkpt>
      <trkpt lat="43.27409" lon="-1.50484">
        <ele>89.5</ele>
        <time>2022-09-04T09:50:31Z</time>
      </trkpt>
      <trkpt lat="43.27412" lon="-1.50487">
        <ele>89.8</ele>
        <time>2022-09-04T09:50:32Z</time>
      </trkpt>
      <trkpt lat="43.27415" lon="-1.50489">
        <ele>90.1</ele>
        <time>2022-09-04T09:50:33Z</time>
      </trkpt>
      <trkpt lat="43.27417" lon="-1.50492">
        <ele>90.5</ele>
        <time>2022-09-04T09:50:34Z</time>
      </trkpt>
      <trkpt lat="43.27421" lon="-1.50495">
        <ele>90.8</ele>
        <time>2022-09-04T09:50:35Z</time>
      </trkpt>
      <trkpt lat="43.27424" lon="-1.50498">
        <ele>91.2</ele>
        <time>2022-09-04T09:50:36Z</time>
      </trkpt>
      <trkpt lat="43.27428" lon="-1.505">
        <ele>91.6</ele>
        <time>2022-09-04T09:50:37Z</time>
      </trkpt>
      <trkpt lat="43.27431" lon="-1.50502">
        <ele>92</ele>
        <time>2022-09-04T09:50:38Z</time>
      </trkpt>
      <trkpt lat="43.27435" lon="-1.50504">
        <ele>92.4</ele>
        <time>2022-09-04T09:50:39Z</time>
      </trkpt>
      <trkpt lat="43.27438" lon="-1.50506">
        <ele>92.8</ele>
        <time>2022-09-04T09:50:40Z</time>
      </trkpt>
      <trkpt lat="43.27442" lon="-1.50508">
        <ele>93.2</ele>
        <time>2022-09-04T09:50:41Z</time>
      </trkpt>
      <trkpt lat="43.27446" lon="-1.5051">
        <ele>93.6</ele>
        <time>2022-09-04T09:50:42Z</time>
      </trkpt>
      <trkpt lat="43.27449" lon="-1.50512">
        <ele>94</ele>
        <time>2022-09-04T09:50:43Z</time>
      </trkpt>
      <trkpt lat="43.27453" lon="-1.50515">
        <ele>94.3</ele>
        <time>2022-09-04T09:50:44Z</time>
      </trkpt>
      <trkpt lat="43.27456" lon="-1.50518">
        <ele>94.7</ele>
        <time>2022-09-04T09:50:45Z</time>
      </trkpt>
      <trkpt lat="43.2746" lon="-1.5052">
        <ele>95</ele>
        <time>2022-09-04T09:50:46Z</time>
      </trkpt>
      <trkpt lat="43.27464" lon="-1.50523">
        <ele>95.4</ele>
        <time>2022-09-04T09:50:47Z</time>
      </trkpt>
      <trkpt lat="43.27468" lon="-1.50525">
        <ele>95.7</ele>
        <time>2022-09-04T09:50:48Z</time>
      </trkpt>
      <trkpt lat="43.27472" lon="-1.50526">
        <ele>96</ele>
        <time>2022-09-04T09:50:49Z</time>
      </trkpt>
      <trkpt lat="43.27476" lon="-1.50528">
        <ele>96.3</ele>
        <time>2022-09-04T09:50:50Z</time>
      </trkpt>
      <trkpt lat="43.27481" lon="-1.50529">
        <ele>96.6</ele>
        <time>2022-09-04T09:50:51Z</time>
      </trkpt>
      <trkpt lat="43.27485" lon="-1.50531">
        <ele>97</ele>
        <time>2022-09-04T09:50:52Z</time>
      </trkpt>
      <trkpt lat="43.27489" lon="-1.50531">
        <ele>97.4</ele>
        <time>2022-09-04T09:50:53Z</time>
      </trkpt>
      <trkpt lat="43.27494" lon="-1.50532">
        <ele>97.8</ele>
        <time>2022-09-04T09:50:54Z</time>
      </trkpt>
      <trkpt lat="43.27499" lon="-1.50532">
        <ele>98.1</ele>
        <time>2022-09-04T09:50:55Z</time>
      </trkpt>
      <trkpt lat="43.27503" lon="-1.50533">
        <ele>98.5</ele>
        <time>2022-09-04T09:50:56Z</time>
      </trkpt>
      <trkpt lat="43.27507" lon="-1.50533">
        <ele>98.8</ele>
        <time>2022-09-04T09:50:57Z</time>
      </trkpt>
      <trkpt lat="43.27512" lon="-1.50533">
        <ele>99.1</ele>
        <time>2022-09-04T09:50:58Z</time>
      </trkpt>
      <trkpt lat="43.27517" lon="-1.50534">
        <ele>99.5</ele>
        <time>2022-09-04T09:50:59Z</time>
      </trkpt>
      <trkpt lat="43.27522" lon="-1.50534">
        <ele>99.9</ele>
        <time>2022-09-04T09:51:00Z</time>
      </trkpt>
      <trkpt lat="43.27527" lon="-1.50534">
        <ele>100.2</ele>
        <time>2022-09-04T09:51:01Z</time>
      </trkpt>
      <trkpt lat="43.2753" lon="-1.50533">
        <ele>100.5</ele>
        <time>2022-09-04T09:51:02Z</time>
      </trkpt>
      <trkpt lat="43.27534" lon="-1.50532">
        <ele>100.7</ele>
        <time>2022-09-04T09:51:03Z</time>
      </trkpt>
      <trkpt lat="43.27537" lon="-1.50531">
        <ele>100.9</ele>
        <time>2022-09-04T09:51:04Z</time>
      </trkpt>
      <trkpt lat="43.2754" lon="-1.50531">
        <ele>101</ele>
        <time>2022-09-04T09:51:05Z</time>
      </trkpt>
      <trkpt lat="43.27543" lon="-1.50532">
        <ele>101.1</ele>
        <time>2022-09-04T09:51:06Z</time>
      </trkpt>
      <trkpt lat="43.27544" lon="-1.50532">
        <ele>101.2</ele>
        <time>2022-09-04T09:51:07Z</time>
      </trkpt>
      <trkpt lat="43.27547" lon="-1.50533">
        <ele>101.2</ele>
        <time>2022-09-04T09:51:08Z</time>
      </trkpt>
      <trkpt lat="43.27548" lon="-1.50533">
        <ele>101.2</ele>
        <time>2022-09-04T09:51:09Z</time>
      </trkpt>
      <trkpt lat="43.27551" lon="-1.50534">
        <ele>101.1</ele>
        <time>2022-09-04T09:51:10Z</time>
      </trkpt>
      <trkpt lat="43.27555" lon="-1.50535">
        <ele>100.8</ele>
        <time>2022-09-04T09:51:11Z</time>
      </trkpt>
      <trkpt lat="43.2756" lon="-1.50536">
        <ele>100.4</ele>
        <time>2022-09-04T09:51:12Z</time>
      </trkpt>
      <trkpt lat="43.27567" lon="-1.50538">
        <ele>99.8</ele>
        <time>2022-09-04T09:51:13Z</time>
      </trkpt>
      <trkpt lat="43.27573" lon="-1.5054">
        <ele>99.2</ele>
        <time>2022-09-04T09:51:14Z</time>
      </trkpt>
      <trkpt lat="43.2758" lon="-1.50542">
        <ele>98.4</ele>
        <time>2022-09-04T09:51:15Z</time>
      </trkpt>
      <trkpt lat="43.27587" lon="-1.50543">
        <ele>97.7</ele>
        <time>2022-09-04T09:51:16Z</time>
      </trkpt>
      <trkpt lat="43.27593" lon="-1.50543">
        <ele>97.1</ele>
        <time>2022-09-04T09:51:17Z</time>
      </trkpt>
      <trkpt lat="43.27599" lon="-1.50544">
        <ele>96.6</ele>
        <time>2022-09-04T09:51:18Z</time>
      </trkpt>
      <trkpt lat="43.27604" lon="-1.50545">
        <ele>96.1</ele>
        <time>2022-09-04T09:51:19Z</time>
      </trkpt>
      <trkpt lat="43.27607" lon="-1.50547">
        <ele>95.7</ele>
        <time>2022-09-04T09:51:20Z</time>
      </trkpt>
      <trkpt lat="43.27609" lon="-1.5055">
        <ele>95.4</ele>
        <time>2022-09-04T09:51:21Z</time>
      </trkpt>
      <trkpt lat="43.27611" lon="-1.50553">
        <ele>94.8</ele>
        <time>2022-09-04T09:51:22Z</time>
      </trkpt>
      <trkpt lat="43.27614" lon="-1.50557">
        <ele>94.2</ele>
        <time>2022-09-04T09:51:23Z</time>
      </trkpt>
      <trkpt lat="43.27615" lon="-1.50558">
        <ele>94</ele>
        <time>2022-09-04T09:51:24Z</time>
      </trkpt>
      <trkpt lat="43.27617" lon="-1.50562">
        <ele>93.4</ele>
        <time>2022-09-04T09:51:25Z</time>
      </trkpt>
      <trkpt lat="43.27618" lon="-1.50563">
        <ele>93.1</ele>
        <time>2022-09-04T09:51:26Z</time>
      </trkpt>
      <trkpt lat="43.27621" lon="-1.50567">
        <ele>92.4</ele>
        <time>2022-09-04T09:51:27Z</time>
      </trkpt>
      <trkpt lat="43.27626" lon="-1.5057">
        <ele>91.4</ele>
        <time>2022-09-04T09:51:28Z</time>
      </trkpt>
      <trkpt lat="43.27632" lon="-1.50572">
        <ele>90.6</ele>
        <time>2022-09-04T09:51:29Z</time>
      </trkpt>
      <trkpt lat="43.27637" lon="-1.50575">
        <ele>89.9</ele>
        <time>2022-09-04T09:51:30Z</time>
      </trkpt>
      <trkpt lat="43.27642" lon="-1.50579">
        <ele>89.4</ele>
        <time>2022-09-04T09:51:31Z</time>
      </trkpt>
      <trkpt lat="43.27647" lon="-1.50583">
        <ele>88.8</ele>
        <time>2022-09-04T09:51:32Z</time>
      </trkpt>
      <trkpt lat="43.27654" lon="-1.50587">
        <ele>88.2</ele>
        <time>2022-09-04T09:51:33Z</time>
      </trkpt>
      <trkpt lat="43.27659" lon="-1.50591">
        <ele>87.6</ele>
        <time>2022-09-04T09:51:34Z</time>
      </trkpt>
      <trkpt lat="43.27665" lon="-1.50596">
        <ele>87.1</ele>
        <time>2022-09-04T09:51:35Z</time>
      </trkpt>
      <trkpt lat="43.27671" lon="-1.50602">
        <ele>86.6</ele>
        <time>2022-09-04T09:51:36Z</time>
      </trkpt>
      <trkpt lat="43.27678" lon="-1.50609">
        <ele>86</ele>
        <time>2022-09-04T09:51:37Z</time>
      </trkpt>
      <trkpt lat="43.27684" lon="-1.50617">
        <ele>85.3</ele>
        <time>2022-09-04T09:51:38Z</time>
      </trkpt>
      <trkpt lat="43.2769" lon="-1.50623">
        <ele>84.6</ele>
        <time>2022-09-04T09:51:39Z</time>
      </trkpt>
      <trkpt lat="43.27696" lon="-1.50629">
        <ele>84.1</ele>
        <time>2022-09-04T09:51:40Z</time>
      </trkpt>
      <trkpt lat="43.27704" lon="-1.50634">
        <ele>83.5</ele>
        <time>2022-09-04T09:51:41Z</time>
      </trkpt>
      <trkpt lat="43.27712" lon="-1.50639">
        <ele>83</ele>
        <time>2022-09-04T09:51:42Z</time>
      </trkpt>
      <trkpt lat="43.27721" lon="-1.50643">
        <ele>82.6</ele>
        <time>2022-09-04T09:51:43Z</time>
      </trkpt>
      <trkpt lat="43.2773" lon="-1.50648">
        <ele>82.2</ele>
        <time>2022-09-04T09:51:44Z</time>
      </trkpt>
      <trkpt lat="43.27739" lon="-1.50654">
        <ele>82</ele>
        <time>2022-09-04T09:51:45Z</time>
      </trkpt>
      <trkpt lat="43.27747" lon="-1.50659">
        <ele>81.7</ele>
        <time>2022-09-04T09:51:46Z</time>
      </trkpt>
      <trkpt lat="43.27753" lon="-1.50662">
        <ele>81.7</ele>
        <time>2022-09-04T09:51:47Z</time>
      </trkpt>
      <trkpt lat="43.27759" lon="-1.50664">
        <ele>81.6</ele>
        <time>2022-09-04T09:51:48Z</time>
      </trkpt>
      <trkpt lat="43.27765" lon="-1.50665">
        <ele>81.6</ele>
        <time>2022-09-04T09:51:49Z</time>
      </trkpt>
      <trkpt lat="43.2777" lon="-1.50666">
        <ele>81.6</ele>
        <time>2022-09-04T09:51:50Z</time>
      </trkpt>
      <trkpt lat="43.27776" lon="-1.50668">
        <ele>81.6</ele>
        <time>2022-09-04T09:51:51Z</time>
      </trkpt>
      <trkpt lat="43.27781" lon="-1.5067">
        <ele>81.6</ele>
        <time>2022-09-04T09:51:52Z</time>
      </trkpt>
      <trkpt lat="43.27787" lon="-1.50671">
        <ele>81.5</ele>
        <time>2022-09-04T09:51:53Z</time>
      </trkpt>
      <trkpt lat="43.27793" lon="-1.5067">
        <ele>81.4</ele>
        <time>2022-09-04T09:51:54Z</time>
      </trkpt>
      <trkpt lat="43.27798" lon="-1.5067">
        <ele>81.3</ele>
        <time>2022-09-04T09:51:55Z</time>
      </trkpt>
      <trkpt lat="43.27804" lon="-1.50669">
        <ele>81.1</ele>
        <time>2022-09-04T09:51:56Z</time>
      </trkpt>
      <trkpt lat="43.27811" lon="-1.5067">
        <ele>80.9</ele>
        <time>2022-09-04T09:51:57Z</time>
      </trkpt>
      <trkpt lat="43.27817" lon="-1.5067">
        <ele>80.7</ele>
        <time>2022-09-04T09:51:58Z</time>
      </trkpt>
      <trkpt lat="43.27824" lon="-1.5067">
        <ele>80.4</ele>
        <time>2022-09-04T09:51:59Z</time>
      </trkpt>
      <trkpt lat="43.27831" lon="-1.50671">
        <ele>80.2</ele>
        <time>2022-09-04T09:52:00Z</time>
      </trkpt>
      <trkpt lat="43.27837" lon="-1.50671">
        <ele>80.1</ele>
        <time>2022-09-04T09:52:01Z</time>
      </trkpt>
      <trkpt lat="43.27843" lon="-1.50672">
        <ele>80</ele>
        <time>2022-09-04T09:52:02Z</time>
      </trkpt>
      <trkpt lat="43.27849" lon="-1.50674">
        <ele>80</ele>
        <time>2022-09-04T09:52:03Z</time>
      </trkpt>
      <trkpt lat="43.27854" lon="-1.50677">
        <ele>80</ele>
        <time>2022-09-04T09:52:04Z</time>
      </trkpt>
      <trkpt lat="43.27857" lon="-1.50679">
        <ele>80</ele>
        <time>2022-09-04T09:52:05Z</time>
      </trkpt>
      <trkpt lat="43.2786" lon="-1.5068">
        <ele>80</ele>
        <time>2022-09-04T09:52:06Z</time>
      </trkpt>
      <trkpt lat="43.27863" lon="-1.50681">
        <ele>80</ele>
        <time>2022-09-04T09:52:07Z</time>
      </trkpt>
      <trkpt lat="43.27866" lon="-1.50681">
        <ele>80</ele>
        <time>2022-09-04T09:52:08Z</time>
      </trkpt>
      <trkpt lat="43.2787" lon="-1.50681">
        <ele>80</ele>
        <time>2022-09-04T09:52:09Z</time>
      </trkpt>
      <trkpt lat="43.27877" lon="-1.50681">
        <ele>80</ele>
        <time>2022-09-04T09:52:10Z</time>
      </trkpt>
      <trkpt lat="43.27884" lon="-1.50681">
        <ele>80</ele>
        <time>2022-09-04T09:52:11Z</time>
      </trkpt>
      <trkpt lat="43.2789" lon="-1.50682">
        <ele>80</ele>
        <time>2022-09-04T09:52:12Z</time>
      </trkpt>
      <trkpt lat="43.27895" lon="-1.50682">
        <ele>80.1</ele>
        <time>2022-09-04T09:52:13Z</time>
      </trkpt>
      <trkpt lat="43.27899" lon="-1.50683">
        <ele>80.1</ele>
        <time>2022-09-04T09:52:14Z</time>
      </trkpt>
      <trkpt lat="43.27903" lon="-1.50683">
        <ele>80.1</ele>
        <time>2022-09-04T09:52:15Z</time>
      </trkpt>
      <trkpt lat="43.27909" lon="-1.50683">
        <ele>80.2</ele>
        <time>2022-09-04T09:52:16Z</time>
      </trkpt>
      <trkpt lat="43.27914" lon="-1.50684">
        <ele>80.3</ele>
        <time>2022-09-04T09:52:17Z</time>
      </trkpt>
      <trkpt lat="43.27919" lon="-1.50685">
        <ele>80.4</ele>
        <time>2022-09-04T09:52:18Z</time>
      </trkpt>
      <trkpt lat="43.27923" lon="-1.50685">
        <ele>80.5</ele>
        <time>2022-09-04T09:52:19Z</time>
      </trkpt>
      <trkpt lat="43.27926" lon="-1.50685">
        <ele>80.6</ele>
        <time>2022-09-04T09:52:20Z</time>
      </trkpt>
      <trkpt lat="43.27929" lon="-1.50685">
        <ele>80.7</ele>
        <time>2022-09-04T09:52:21Z</time>
      </trkpt>
      <trkpt lat="43.27932" lon="-1.50685">
        <ele>80.8</ele>
        <time>2022-09-04T09:52:22Z</time>
      </trkpt>
      <trkpt lat="43.27936" lon="-1.50684">
        <ele>80.9</ele>
        <time>2022-09-04T09:52:23Z</time>
      </trkpt>
      <trkpt lat="43.27938" lon="-1.50683">
        <ele>81</ele>
        <time>2022-09-04T09:52:24Z</time>
      </trkpt>
      <trkpt lat="43.27942" lon="-1.50683">
        <ele>81.1</ele>
        <time>2022-09-04T09:52:25Z</time>
      </trkpt>
      <trkpt lat="43.27947" lon="-1.50683">
        <ele>81.3</ele>
        <time>2022-09-04T09:52:26Z</time>
      </trkpt>
      <trkpt lat="43.27952" lon="-1.50683">
        <ele>81.5</ele>
        <time>2022-09-04T09:52:27Z</time>
      </trkpt>
      <trkpt lat="43.27957" lon="-1.50684">
        <ele>81.8</ele>
        <time>2022-09-04T09:52:28Z</time>
      </trkpt>
      <trkpt lat="43.27962" lon="-1.50684">
        <ele>82.1</ele>
        <time>2022-09-04T09:52:29Z</time>
      </trkpt>
      <trkpt lat="43.27966" lon="-1.50685">
        <ele>82.5</ele>
        <time>2022-09-04T09:52:30Z</time>
      </trkpt>
      <trkpt lat="43.2797" lon="-1.50685">
        <ele>82.9</ele>
        <time>2022-09-04T09:52:31Z</time>
      </trkpt>
      <trkpt lat="43.27974" lon="-1.50685">
        <ele>83.3</ele>
        <time>2022-09-04T09:52:32Z</time>
      </trkpt>
      <trkpt lat="43.27978" lon="-1.50686">
        <ele>83.7</ele>
        <time>2022-09-04T09:52:33Z</time>
      </trkpt>
      <trkpt lat="43.27983" lon="-1.50686">
        <ele>84.2</ele>
        <time>2022-09-04T09:52:34Z</time>
      </trkpt>
      <trkpt lat="43.27988" lon="-1.50685">
        <ele>84.8</ele>
        <time>2022-09-04T09:52:35Z</time>
      </trkpt>
      <trkpt lat="43.27992" lon="-1.50685">
        <ele>85.4</ele>
        <time>2022-09-04T09:52:36Z</time>
      </trkpt>
      <trkpt lat="43.27997" lon="-1.50685">
        <ele>86</ele>
        <time>2022-09-04T09:52:37Z</time>
      </trkpt>
      <trkpt lat="43.28002" lon="-1.50686">
        <ele>86.7</ele>
        <time>2022-09-04T09:52:38Z</time>
      </trkpt>
      <trkpt lat="43.28006" lon="-1.50687">
        <ele>87.2</ele>
        <time>2022-09-04T09:52:39Z</time>
      </trkpt>
      <trkpt lat="43.28011" lon="-1.50689">
        <ele>87.8</ele>
        <time>2022-09-04T09:52:40Z</time>
      </trkpt>
      <trkpt lat="43.28016" lon="-1.50692">
        <ele>88.3</ele>
        <time>2022-09-04T09:52:41Z</time>
      </trkpt>
      <trkpt lat="43.28021" lon="-1.50695">
        <ele>88.6</ele>
        <time>2022-09-04T09:52:42Z</time>
      </trkpt>
      <trkpt lat="43.28026" lon="-1.50698">
        <ele>88.8</ele>
        <time>2022-09-04T09:52:43Z</time>
      </trkpt>
      <trkpt lat="43.28031" lon="-1.507">
        <ele>88.9</ele>
        <time>2022-09-04T09:52:44Z</time>
      </trkpt>
      <trkpt lat="43.28036" lon="-1.50701">
        <ele>88.9</ele>
        <time>2022-09-04T09:52:45Z</time>
      </trkpt>
      <trkpt lat="43.2804" lon="-1.50702">
        <ele>88.9</ele>
        <time>2022-09-04T09:52:46Z</time>
      </trkpt>
      <trkpt lat="43.28044" lon="-1.50703">
        <ele>88.8</ele>
        <time>2022-09-04T09:52:47Z</time>
      </trkpt>
      <trkpt lat="43.28048" lon="-1.50703">
        <ele>88.8</ele>
        <time>2022-09-04T09:52:48Z</time>
      </trkpt>
      <trkpt lat="43.28052" lon="-1.50703">
        <ele>88.9</ele>
        <time>2022-09-04T09:52:49Z</time>
      </trkpt>
      <trkpt lat="43.28056" lon="-1.50702">
        <ele>88.9</ele>
        <time>2022-09-04T09:52:50Z</time>
      </trkpt>
      <trkpt lat="43.28061" lon="-1.50699">
        <ele>88.9</ele>
        <time>2022-09-04T09:52:51Z</time>
      </trkpt>
      <trkpt lat="43.28067" lon="-1.50697">
        <ele>89</ele>
        <time>2022-09-04T09:52:52Z</time>
      </trkpt>
      <trkpt lat="43.28073" lon="-1.50694">
        <ele>89.1</ele>
        <time>2022-09-04T09:52:53Z</time>
      </trkpt>
      <trkpt lat="43.2808" lon="-1.50689">
        <ele>89.1</ele>
        <time>2022-09-04T09:52:54Z</time>
      </trkpt>
      <trkpt lat="43.28087" lon="-1.50683">
        <ele>89.3</ele>
        <time>2022-09-04T09:52:55Z</time>
      </trkpt>
      <trkpt lat="43.28094" lon="-1.50677">
        <ele>89.4</ele>
        <time>2022-09-04T09:52:56Z</time>
      </trkpt>
      <trkpt lat="43.28101" lon="-1.5067">
        <ele>89.6</ele>
        <time>2022-09-04T09:52:57Z</time>
      </trkpt>
      <trkpt lat="43.28108" lon="-1.50664">
        <ele>89.8</ele>
        <time>2022-09-04T09:52:58Z</time>
      </trkpt>
      <trkpt lat="43.28115" lon="-1.50659">
        <ele>90.1</ele>
        <time>2022-09-04T09:52:59Z</time>
      </trkpt>
      <trkpt lat="43.28121" lon="-1.50655">
        <ele>90.3</ele>
        <time>2022-09-04T09:53:00Z</time>
      </trkpt>
      <trkpt lat="43.28126" lon="-1.50651">
        <ele>90.5</ele>
        <time>2022-09-04T09:53:01Z</time>
      </trkpt>
      <trkpt lat="43.28132" lon="-1.50647">
        <ele>90.8</ele>
        <time>2022-09-04T09:53:02Z</time>
      </trkpt>
      <trkpt lat="43.28137" lon="-1.50644">
        <ele>91</ele>
        <time>2022-09-04T09:53:03Z</time>
      </trkpt>
      <trkpt lat="43.28141" lon="-1.5064">
        <ele>91.3</ele>
        <time>2022-09-04T09:53:04Z</time>
      </trkpt>
      <trkpt lat="43.28146" lon="-1.50637">
        <ele>91.6</ele>
        <time>2022-09-04T09:53:05Z</time>
      </trkpt>
      <trkpt lat="43.2815" lon="-1.50633">
        <ele>91.9</ele>
        <time>2022-09-04T09:53:06Z</time>
      </trkpt>
      <trkpt lat="43.28153" lon="-1.5063">
        <ele>92.2</ele>
        <time>2022-09-04T09:53:07Z</time>
      </trkpt>
      <trkpt lat="43.28156" lon="-1.50627">
        <ele>92.4</ele>
        <time>2022-09-04T09:53:08Z</time>
      </trkpt>
      <trkpt lat="43.28158" lon="-1.50625">
        <ele>92.7</ele>
        <time>2022-09-04T09:53:09Z</time>
      </trkpt>
      <trkpt lat="43.28161" lon="-1.50623">
        <ele>93</ele>
        <time>2022-09-04T09:53:10Z</time>
      </trkpt>
      <trkpt lat="43.28162" lon="-1.50622">
        <ele>93.1</ele>
        <time>2022-09-04T09:53:11Z</time>
      </trkpt>
      <trkpt lat="43.28164" lon="-1.50621">
        <ele>93.2</ele>
        <time>2022-09-04T09:53:12Z</time>
      </trkpt>
      <trkpt lat="43.28165" lon="-1.5062">
        <ele>93.3</ele>
        <time>2022-09-04T09:53:13Z</time>
      </trkpt>
      <trkpt lat="43.28166" lon="-1.5062">
        <ele>93.4</ele>
        <time>2022-09-04T09:53:14Z</time>
      </trkpt>
      <trkpt lat="43.28166" lon="-1.50619">
        <ele>93.5</ele>
        <time>2022-09-04T09:53:15Z</time>
      </trkpt>
      <trkpt lat="43.28167" lon="-1.50618">
        <ele>93.6</ele>
        <time>2022-09-04T09:53:16Z</time>
      </trkpt>
      <trkpt lat="43.28167" lon="-1.50615">
        <ele>93.8</ele>
        <time>2022-09-04T09:53:17Z</time>
      </trkpt>
      <trkpt lat="43.28167" lon="-1.50614">
        <ele>93.9</ele>
        <time>2022-09-04T09:53:18Z</time>
      </trkpt>
      <trkpt lat="43.28167" lon="-1.50613">
        <ele>94</ele>
        <time>2022-09-04T09:53:19Z</time>
      </trkpt>
      <trkpt lat="43.28165" lon="-1.50613">
        <ele>94.2</ele>
        <time>2022-09-04T09:53:20Z</time>
      </trkpt>
      <trkpt lat="43.28164" lon="-1.50613">
        <ele>94.3</ele>
        <time>2022-09-04T09:53:21Z</time>
      </trkpt>
      <trkpt lat="43.28163" lon="-1.50613">
        <ele>97</ele>
        <time>2022-09-04T09:53:22Z</time>
      </trkpt>
      <trkpt lat="43.28162" lon="-1.50612">
        <ele>97.1</ele>
        <time>2022-09-04T09:53:23Z</time>
      </trkpt>
      <trkpt lat="43.28162" lon="-1.50612">
        <ele>97.1</ele>
        <time>2022-09-04T09:53:24Z</time>
      </trkpt>
      <trkpt lat="43.28161" lon="-1.50611">
        <ele>97.2</ele>
        <time>2022-09-04T09:53:25Z</time>
      </trkpt>
      <trkpt lat="43.28161" lon="-1.50611">
        <ele>97.2</ele>
        <time>2022-09-04T09:53:26Z</time>
      </trkpt>
      <trkpt lat="43.2816" lon="-1.5061">
        <ele>97.3</ele>
        <time>2022-09-04T09:53:27Z</time>
      </trkpt>
      <trkpt lat="43.2816" lon="-1.5061">
        <ele>97.3</ele>
        <time>2022-09-04T09:53:28Z</time>
      </trkpt>
      <trkpt lat="43.2816" lon="-1.50609">
        <ele>97.4</ele>
        <time>2022-09-04T09:53:29Z</time>
      </trkpt>
      <trkpt lat="43.28159" lon="-1.50609">
        <ele>97.4</ele>
        <time>2022-09-04T09:53:30Z</time>
      </trkpt>
      <trkpt lat="43.28159" lon="-1.50608">
        <ele>97.4</ele>
        <time>2022-09-04T09:53:31Z</time>
      </trkpt>
      <trkpt lat="43.28158" lon="-1.50608">
        <ele>97.5</ele>
        <time>2022-09-04T09:53:32Z</time>
      </trkpt>
      <trkpt lat="43.28158" lon="-1.50608">
        <ele>97.5</ele>
        <time>2022-09-04T09:53:33Z</time>
      </trkpt>
      <trkpt lat="43.28158" lon="-1.50607">
        <ele>97.6</ele>
        <time>2022-09-04T09:53:34Z</time>
      </trkpt>
      <trkpt lat="43.28157" lon="-1.50607">
        <ele>97.6</ele>
        <time>2022-09-04T09:53:35Z</time>
      </trkpt>
      <trkpt lat="43.28157" lon="-1.50606">
        <ele>97.7</ele>
        <time>2022-09-04T09:55:51Z</time>
      </trkpt>
      <trkpt lat="43.28156" lon="-1.50606">
        <ele>97.7</ele>
        <time>2022-09-04T09:55:52Z</time>
      </trkpt>
      <trkpt lat="43.2815" lon="-1.50599">
        <ele>98.3</ele>
        <time>2022-09-04T09:55:54Z</time>
      </trkpt>
      <trkpt lat="43.28151" lon="-1.50594">
        <ele>98.7</ele>
        <time>2022-09-04T09:55:55Z</time>
      </trkpt>
      <trkpt lat="43.28152" lon="-1.50589">
        <ele>99</ele>
        <time>2022-09-04T09:55:56Z</time>
      </trkpt>
      <trkpt lat="43.28154" lon="-1.50585">
        <ele>99.3</ele>
        <time>2022-09-04T09:55:57Z</time>
      </trkpt>
      <trkpt lat="43.28156" lon="-1.5058">
        <ele>99.7</ele>
        <time>2022-09-04T09:55:58Z</time>
      </trkpt>
      <trkpt lat="43.28159" lon="-1.50576">
        <ele>100</ele>
        <time>2022-09-04T09:55:59Z</time>
      </trkpt>
      <trkpt lat="43.28161" lon="-1.50571">
        <ele>100.3</ele>
        <time>2022-09-04T09:56:00Z</time>
      </trkpt>
      <trkpt lat="43.28162" lon="-1.50568">
        <ele>100.6</ele>
        <time>2022-09-04T09:56:01Z</time>
      </trkpt>
      <trkpt lat="43.28165" lon="-1.50564">
        <ele>100.9</ele>
        <time>2022-09-04T09:56:02Z</time>
      </trkpt>
      <trkpt lat="43.28166" lon="-1.5056">
        <ele>101.2</ele>
        <time>2022-09-04T09:56:03Z</time>
      </trkpt>
      <trkpt lat="43.28168" lon="-1.50556">
        <ele>101.5</ele>
        <time>2022-09-04T09:56:04Z</time>
      </trkpt>
      <trkpt lat="43.2817" lon="-1.50552">
        <ele>101.9</ele>
        <time>2022-09-04T09:56:05Z</time>
      </trkpt>
      <trkpt lat="43.28172" lon="-1.50549">
        <ele>102.2</ele>
        <time>2022-09-04T09:56:06Z</time>
      </trkpt>
      <trkpt lat="43.28174" lon="-1.50544">
        <ele>102.6</ele>
        <time>2022-09-04T09:56:07Z</time>
      </trkpt>
      <trkpt lat="43.28174" lon="-1.50543">
        <ele>102.8</ele>
        <time>2022-09-04T09:56:08Z</time>
      </trkpt>
      <trkpt lat="43.28176" lon="-1.50539">
        <ele>103.1</ele>
        <time>2022-09-04T09:56:09Z</time>
      </trkpt>
      <trkpt lat="43.28177" lon="-1.50538">
        <ele>103.2</ele>
        <time>2022-09-04T09:56:10Z</time>
      </trkpt>
      <trkpt lat="43.28178" lon="-1.50536">
        <ele>103.4</ele>
        <time>2022-09-04T09:56:11Z</time>
      </trkpt>
      <trkpt lat="43.28178" lon="-1.50534">
        <ele>103.5</ele>
        <time>2022-09-04T09:56:12Z</time>
      </trkpt>
      <trkpt lat="43.28179" lon="-1.5053">
        <ele>103.8</ele>
        <time>2022-09-04T09:56:13Z</time>
      </trkpt>
      <trkpt lat="43.2818" lon="-1.50529">
        <ele>103.9</ele>
        <time>2022-09-04T09:56:14Z</time>
      </trkpt>
      <trkpt lat="43.28181" lon="-1.50526">
        <ele>104</ele>
        <time>2022-09-04T09:56:15Z</time>
      </trkpt>
      <trkpt lat="43.28183" lon="-1.50523">
        <ele>104.3</ele>
        <time>2022-09-04T09:56:16Z</time>
      </trkpt>
      <trkpt lat="43.28185" lon="-1.5052">
        <ele>104.6</ele>
        <time>2022-09-04T09:56:17Z</time>
      </trkpt>
      <trkpt lat="43.28187" lon="-1.50517">
        <ele>104.9</ele>
        <time>2022-09-04T09:56:18Z</time>
      </trkpt>
      <trkpt lat="43.2819" lon="-1.50514">
        <ele>105.3</ele>
        <time>2022-09-04T09:56:19Z</time>
      </trkpt>
      <trkpt lat="43.28192" lon="-1.5051">
        <ele>105.7</ele>
        <time>2022-09-04T09:56:20Z</time>
      </trkpt>
      <trkpt lat="43.28194" lon="-1.50505">
        <ele>106.2</ele>
        <time>2022-09-04T09:56:21Z</time>
      </trkpt>
      <trkpt lat="43.28196" lon="-1.50499">
        <ele>106.6</ele>
        <time>2022-09-04T09:56:22Z</time>
      </trkpt>
      <trkpt lat="43.28198" lon="-1.50495">
        <ele>107.1</ele>
        <time>2022-09-04T09:56:23Z</time>
      </trkpt>
      <trkpt lat="43.282" lon="-1.5049">
        <ele>107.5</ele>
        <time>2022-09-04T09:56:24Z</time>
      </trkpt>
      <trkpt lat="43.28202" lon="-1.50486">
        <ele>108</ele>
        <time>2022-09-04T09:56:25Z</time>
      </trkpt>
      <trkpt lat="43.28204" lon="-1.50482">
        <ele>108.4</ele>
        <time>2022-09-04T09:56:26Z</time>
      </trkpt>
      <trkpt lat="43.28206" lon="-1.50479">
        <ele>108.8</ele>
        <time>2022-09-04T09:56:27Z</time>
      </trkpt>
      <trkpt lat="43.28209" lon="-1.50476">
        <ele>109.2</ele>
        <time>2022-09-04T09:56:28Z</time>
      </trkpt>
      <trkpt lat="43.28211" lon="-1.50472">
        <ele>109.6</ele>
        <time>2022-09-04T09:56:29Z</time>
      </trkpt>
      <trkpt lat="43.28214" lon="-1.50469">
        <ele>110</ele>
        <time>2022-09-04T09:56:30Z</time>
      </trkpt>
      <trkpt lat="43.28216" lon="-1.50467">
        <ele>110.3</ele>
        <time>2022-09-04T09:56:31Z</time>
      </trkpt>
      <trkpt lat="43.2822" lon="-1.50465">
        <ele>110.7</ele>
        <time>2022-09-04T09:56:32Z</time>
      </trkpt>
      <trkpt lat="43.28222" lon="-1.50462">
        <ele>111.1</ele>
        <time>2022-09-04T09:56:33Z</time>
      </trkpt>
      <trkpt lat="43.28225" lon="-1.50459">
        <ele>111.4</ele>
        <time>2022-09-04T09:56:34Z</time>
      </trkpt>
      <trkpt lat="43.28228" lon="-1.50456">
        <ele>111.8</ele>
        <time>2022-09-04T09:56:35Z</time>
      </trkpt>
      <trkpt lat="43.28231" lon="-1.50453">
        <ele>112.1</ele>
        <time>2022-09-04T09:56:36Z</time>
      </trkpt>
      <trkpt lat="43.28234" lon="-1.5045">
        <ele>112.4</ele>
        <time>2022-09-04T09:56:37Z</time>
      </trkpt>
      <trkpt lat="43.28237" lon="-1.50447">
        <ele>112.8</ele>
        <time>2022-09-04T09:56:38Z</time>
      </trkpt>
      <trkpt lat="43.2824" lon="-1.50442">
        <ele>113.2</ele>
        <time>2022-09-04T09:56:39Z</time>
      </trkpt>
      <trkpt lat="43.28242" lon="-1.50438">
        <ele>113.6</ele>
        <time>2022-09-04T09:56:40Z</time>
      </trkpt>
      <trkpt lat="43.28244" lon="-1.50434">
        <ele>114</ele>
        <time>2022-09-04T09:56:41Z</time>
      </trkpt>
      <trkpt lat="43.28246" lon="-1.50431">
        <ele>114.3</ele>
        <time>2022-09-04T09:56:42Z</time>
      </trkpt>
      <trkpt lat="43.28248" lon="-1.50426">
        <ele>114.6</ele>
        <time>2022-09-04T09:56:43Z</time>
      </trkpt>
      <trkpt lat="43.2825" lon="-1.50422">
        <ele>115</ele>
        <time>2022-09-04T09:56:44Z</time>
      </trkpt>
      <trkpt lat="43.28252" lon="-1.50418">
        <ele>115.4</ele>
        <time>2022-09-04T09:56:45Z</time>
      </trkpt>
      <trkpt lat="43.28253" lon="-1.50413">
        <ele>115.7</ele>
        <time>2022-09-04T09:56:46Z</time>
      </trkpt>
      <trkpt lat="43.28255" lon="-1.50409">
        <ele>116.1</ele>
        <time>2022-09-04T09:56:47Z</time>
      </trkpt>
      <trkpt lat="43.28256" lon="-1.50404">
        <ele>116.5</ele>
        <time>2022-09-04T09:56:48Z</time>
      </trkpt>
      <trkpt lat="43.28257" lon="-1.504">
        <ele>116.9</ele>
        <time>2022-09-04T09:56:49Z</time>
      </trkpt>
      <trkpt lat="43.28259" lon="-1.50395">
        <ele>117.3</ele>
        <time>2022-09-04T09:56:50Z</time>
      </trkpt>
      <trkpt lat="43.28261" lon="-1.50391">
        <ele>117.7</ele>
        <time>2022-09-04T09:56:51Z</time>
      </trkpt>
      <trkpt lat="43.28263" lon="-1.50387">
        <ele>118.1</ele>
        <time>2022-09-04T09:56:52Z</time>
      </trkpt>
      <trkpt lat="43.28265" lon="-1.50383">
        <ele>118.5</ele>
        <time>2022-09-04T09:56:53Z</time>
      </trkpt>
      <trkpt lat="43.28266" lon="-1.50378">
        <ele>118.9</ele>
        <time>2022-09-04T09:56:54Z</time>
      </trkpt>
      <trkpt lat="43.28267" lon="-1.50374">
        <ele>119.3</ele>
        <time>2022-09-04T09:56:55Z</time>
      </trkpt>
      <trkpt lat="43.28269" lon="-1.50369">
        <ele>119.7</ele>
        <time>2022-09-04T09:56:56Z</time>
      </trkpt>
      <trkpt lat="43.2827" lon="-1.50365">
        <ele>120.2</ele>
        <time>2022-09-04T09:56:57Z</time>
      </trkpt>
      <trkpt lat="43.28271" lon="-1.5036">
        <ele>120.6</ele>
        <time>2022-09-04T09:56:58Z</time>
      </trkpt>
      <trkpt lat="43.28272" lon="-1.50356">
        <ele>121</ele>
        <time>2022-09-04T09:56:59Z</time>
      </trkpt>
      <trkpt lat="43.28273" lon="-1.50351">
        <ele>121.5</ele>
        <time>2022-09-04T09:57:00Z</time>
      </trkpt>
      <trkpt lat="43.28273" lon="-1.50347">
        <ele>121.9</ele>
        <time>2022-09-04T09:57:01Z</time>
      </trkpt>
      <trkpt lat="43.28273" lon="-1.50342">
        <ele>122.3</ele>
        <time>2022-09-04T09:57:02Z</time>
      </trkpt>
      <trkpt lat="43.28271" lon="-1.50337">
        <ele>122.7</ele>
        <time>2022-09-04T09:57:03Z</time>
      </trkpt>
      <trkpt lat="43.28269" lon="-1.50333">
        <ele>123.1</ele>
        <time>2022-09-04T09:57:04Z</time>
      </trkpt>
      <trkpt lat="43.28267" lon="-1.50329">
        <ele>123.4</ele>
        <time>2022-09-04T09:57:05Z</time>
      </trkpt>
      <trkpt lat="43.28265" lon="-1.50325">
        <ele>123.8</ele>
        <time>2022-09-04T09:57:06Z</time>
      </trkpt>
      <trkpt lat="43.28263" lon="-1.50322">
        <ele>124</ele>
        <time>2022-09-04T09:57:07Z</time>
      </trkpt>
      <trkpt lat="43.28261" lon="-1.50319">
        <ele>124.3</ele>
        <time>2022-09-04T09:57:08Z</time>
      </trkpt>
      <trkpt lat="43.28258" lon="-1.50316">
        <ele>124.6</ele>
        <time>2022-09-04T09:57:09Z</time>
      </trkpt>
      <trkpt lat="43.28257" lon="-1.50315">
        <ele>124.7</ele>
        <time>2022-09-04T09:57:10Z</time>
      </trkpt>
      <trkpt lat="43.28254" lon="-1.50312">
        <ele>125.3</ele>
        <time>2022-09-04T09:57:11Z</time>
      </trkpt>
      <trkpt lat="43.28252" lon="-1.50311">
        <ele>125.4</ele>
        <time>2022-09-04T09:57:12Z</time>
      </trkpt>
      <trkpt lat="43.2825" lon="-1.5031">
        <ele>125.6</ele>
        <time>2022-09-04T09:57:13Z</time>
      </trkpt>
      <trkpt lat="43.28246" lon="-1.50309">
        <ele>125.8</ele>
        <time>2022-09-04T09:57:14Z</time>
      </trkpt>
      <trkpt lat="43.28243" lon="-1.50308">
        <ele>126</ele>
        <time>2022-09-04T09:57:15Z</time>
      </trkpt>
      <trkpt lat="43.28241" lon="-1.50306">
        <ele>126.2</ele>
        <time>2022-09-04T09:57:16Z</time>
      </trkpt>
      <trkpt lat="43.28238" lon="-1.50304">
        <ele>126.3</ele>
        <time>2022-09-04T09:57:17Z</time>
      </trkpt>
      <trkpt lat="43.28235" lon="-1.50303">
        <ele>126.4</ele>
        <time>2022-09-04T09:57:18Z</time>
      </trkpt>
      <trkpt lat="43.28232" lon="-1.50302">
        <ele>126.5</ele>
        <time>2022-09-04T09:57:19Z</time>
      </trkpt>
      <trkpt lat="43.28228" lon="-1.503">
        <ele>126.5</ele>
        <time>2022-09-04T09:57:20Z</time>
      </trkpt>
      <trkpt lat="43.28225" lon="-1.50298">
        <ele>126.5</ele>
        <time>2022-09-04T09:57:21Z</time>
      </trkpt>
      <trkpt lat="43.28221" lon="-1.50295">
        <ele>126.5</ele>
        <time>2022-09-04T09:57:22Z</time>
      </trkpt>
      <trkpt lat="43.28218" lon="-1.50292">
        <ele>126.4</ele>
        <time>2022-09-04T09:57:23Z</time>
      </trkpt>
      <trkpt lat="43.28215" lon="-1.50288">
        <ele>126.4</ele>
        <time>2022-09-04T09:57:24Z</time>
      </trkpt>
      <trkpt lat="43.28212" lon="-1.50283">
        <ele>126.4</ele>
        <time>2022-09-04T09:57:25Z</time>
      </trkpt>
      <trkpt lat="43.28208" lon="-1.50277">
        <ele>126.4</ele>
        <time>2022-09-04T09:57:26Z</time>
      </trkpt>
      <trkpt lat="43.28206" lon="-1.50271">
        <ele>126.4</ele>
        <time>2022-09-04T09:57:27Z</time>
      </trkpt>
      <trkpt lat="43.28206" lon="-1.50265">
        <ele>126.4</ele>
        <time>2022-09-04T09:57:28Z</time>
      </trkpt>
      <trkpt lat="43.28205" lon="-1.50259">
        <ele>126.4</ele>
        <time>2022-09-04T09:57:29Z</time>
      </trkpt>
      <trkpt lat="43.28205" lon="-1.50252">
        <ele>126.4</ele>
        <time>2022-09-04T09:57:30Z</time>
      </trkpt>
      <trkpt lat="43.28206" lon="-1.50246">
        <ele>126.5</ele>
        <time>2022-09-04T09:57:31Z</time>
      </trkpt>
      <trkpt lat="43.28206" lon="-1.5024">
        <ele>126.5</ele>
        <time>2022-09-04T09:57:32Z</time>
      </trkpt>
      <trkpt lat="43.28206" lon="-1.50236">
        <ele>126.6</ele>
        <time>2022-09-04T09:57:33Z</time>
      </trkpt>
      <trkpt lat="43.28206" lon="-1.50232">
        <ele>126.6</ele>
        <time>2022-09-04T09:57:34Z</time>
      </trkpt>
      <trkpt lat="43.28207" lon="-1.50228">
        <ele>126.6</ele>
        <time>2022-09-04T09:57:35Z</time>
      </trkpt>
      <trkpt lat="43.28208" lon="-1.50223">
        <ele>126.6</ele>
        <time>2022-09-04T09:57:36Z</time>
      </trkpt>
      <trkpt lat="43.2821" lon="-1.50219">
        <ele>126.7</ele>
        <time>2022-09-04T09:57:37Z</time>
      </trkpt>
      <trkpt lat="43.28214" lon="-1.50214">
        <ele>126.7</ele>
        <time>2022-09-04T09:57:38Z</time>
      </trkpt>
      <trkpt lat="43.2822" lon="-1.50211">
        <ele>126.7</ele>
        <time>2022-09-04T09:57:39Z</time>
      </trkpt>
      <trkpt lat="43.28225" lon="-1.50209">
        <ele>126.7</ele>
        <time>2022-09-04T09:57:40Z</time>
      </trkpt>
      <trkpt lat="43.28231" lon="-1.50209">
        <ele>126.8</ele>
        <time>2022-09-04T09:57:41Z</time>
      </trkpt>
      <trkpt lat="43.28237" lon="-1.50209">
        <ele>126.9</ele>
        <time>2022-09-04T09:57:42Z</time>
      </trkpt>
      <trkpt lat="43.28244" lon="-1.50211">
        <ele>127.2</ele>
        <time>2022-09-04T09:57:43Z</time>
      </trkpt>
      <trkpt lat="43.28249" lon="-1.50214">
        <ele>127.4</ele>
        <time>2022-09-04T09:57:44Z</time>
      </trkpt>
      <trkpt lat="43.28255" lon="-1.50217">
        <ele>127.6</ele>
        <time>2022-09-04T09:57:45Z</time>
      </trkpt>
      <trkpt lat="43.2826" lon="-1.50219">
        <ele>127.8</ele>
        <time>2022-09-04T09:57:46Z</time>
      </trkpt>
      <trkpt lat="43.28265" lon="-1.5022">
        <ele>128</ele>
        <time>2022-09-04T09:57:47Z</time>
      </trkpt>
      <trkpt lat="43.2827" lon="-1.50219">
        <ele>128.1</ele>
        <time>2022-09-04T09:57:48Z</time>
      </trkpt>
      <trkpt lat="43.28275" lon="-1.50218">
        <ele>128.2</ele>
        <time>2022-09-04T09:57:49Z</time>
      </trkpt>
      <trkpt lat="43.2828" lon="-1.50216">
        <ele>128.2</ele>
        <time>2022-09-04T09:57:50Z</time>
      </trkpt>
      <trkpt lat="43.28285" lon="-1.50214">
        <ele>128.3</ele>
        <time>2022-09-04T09:57:51Z</time>
      </trkpt>
      <trkpt lat="43.28288" lon="-1.50212">
        <ele>128.3</ele>
        <time>2022-09-04T09:57:52Z</time>
      </trkpt>
      <trkpt lat="43.28291" lon="-1.5021">
        <ele>128.2</ele>
        <time>2022-09-04T09:57:53Z</time>
      </trkpt>
      <trkpt lat="43.28293" lon="-1.50207">
        <ele>128.2</ele>
        <time>2022-09-04T09:57:54Z</time>
      </trkpt>
      <trkpt lat="43.28296" lon="-1.50204">
        <ele>128</ele>
        <time>2022-09-04T09:57:55Z</time>
      </trkpt>
      <trkpt lat="43.28298" lon="-1.502">
        <ele>127.7</ele>
        <time>2022-09-04T09:57:56Z</time>
      </trkpt>
      <trkpt lat="43.28301" lon="-1.50197">
        <ele>127.4</ele>
        <time>2022-09-04T09:57:57Z</time>
      </trkpt>
      <trkpt lat="43.28305" lon="-1.50193">
        <ele>126.8</ele>
        <time>2022-09-04T09:57:58Z</time>
      </trkpt>
      <trkpt lat="43.28311" lon="-1.50188">
        <ele>125.9</ele>
        <time>2022-09-04T09:57:59Z</time>
      </trkpt>
      <trkpt lat="43.28318" lon="-1.50182">
        <ele>124.9</ele>
        <time>2022-09-04T09:58:00Z</time>
      </trkpt>
      <trkpt lat="43.28326" lon="-1.50176">
        <ele>123.8</ele>
        <time>2022-09-04T09:58:01Z</time>
      </trkpt>
      <trkpt lat="43.28334" lon="-1.50171">
        <ele>122.9</ele>
        <time>2022-09-04T09:58:02Z</time>
      </trkpt>
      <trkpt lat="43.28342" lon="-1.50168">
        <ele>122.1</ele>
        <time>2022-09-04T09:58:03Z</time>
      </trkpt>
      <trkpt lat="43.2835" lon="-1.50166">
        <ele>121.4</ele>
        <time>2022-09-04T09:58:04Z</time>
      </trkpt>
      <trkpt lat="43.28358" lon="-1.50163">
        <ele>120.7</ele>
        <time>2022-09-04T09:58:05Z</time>
      </trkpt>
      <trkpt lat="43.28365" lon="-1.5016">
        <ele>120</ele>
        <time>2022-09-04T09:58:06Z</time>
      </trkpt>
      <trkpt lat="43.28372" lon="-1.50157">
        <ele>119.2</ele>
        <time>2022-09-04T09:58:07Z</time>
      </trkpt>
      <trkpt lat="43.28379" lon="-1.50155">
        <ele>118.4</ele>
        <time>2022-09-04T09:58:08Z</time>
      </trkpt>
      <trkpt lat="43.28387" lon="-1.50153">
        <ele>117.5</ele>
        <time>2022-09-04T09:58:09Z</time>
      </trkpt>
      <trkpt lat="43.28394" lon="-1.50151">
        <ele>116.5</ele>
        <time>2022-09-04T09:58:10Z</time>
      </trkpt>
      <trkpt lat="43.28402" lon="-1.50151">
        <ele>115.5</ele>
        <time>2022-09-04T09:58:11Z</time>
      </trkpt>
      <trkpt lat="43.28411" lon="-1.50152">
        <ele>114.5</ele>
        <time>2022-09-04T09:58:12Z</time>
      </trkpt>
      <trkpt lat="43.28418" lon="-1.50152">
        <ele>113.5</ele>
        <time>2022-09-04T09:58:13Z</time>
      </trkpt>
      <trkpt lat="43.28425" lon="-1.5015">
        <ele>112.7</ele>
        <time>2022-09-04T09:58:14Z</time>
      </trkpt>
      <trkpt lat="43.2843" lon="-1.50145">
        <ele>111.8</ele>
        <time>2022-09-04T09:58:15Z</time>
      </trkpt>
      <trkpt lat="43.28434" lon="-1.50136">
        <ele>110.8</ele>
        <time>2022-09-04T09:58:16Z</time>
      </trkpt>
      <trkpt lat="43.28439" lon="-1.50128">
        <ele>109.8</ele>
        <time>2022-09-04T09:58:17Z</time>
      </trkpt>
      <trkpt lat="43.28444" lon="-1.5012">
        <ele>108.7</ele>
        <time>2022-09-04T09:58:18Z</time>
      </trkpt>
      <trkpt lat="43.28449" lon="-1.50112">
        <ele>107.5</ele>
        <time>2022-09-04T09:58:19Z</time>
      </trkpt>
      <trkpt lat="43.28453" lon="-1.50102">
        <ele>106.4</ele>
        <time>2022-09-04T09:58:20Z</time>
      </trkpt>
      <trkpt lat="43.28457" lon="-1.50093">
        <ele>105.3</ele>
        <time>2022-09-04T09:58:21Z</time>
      </trkpt>
      <trkpt lat="43.2846" lon="-1.50084">
        <ele>104.3</ele>
        <time>2022-09-04T09:58:22Z</time>
      </trkpt>
      <trkpt lat="43.28464" lon="-1.50075">
        <ele>103.3</ele>
        <time>2022-09-04T09:58:23Z</time>
      </trkpt>
      <trkpt lat="43.28467" lon="-1.50067">
        <ele>102.4</ele>
        <time>2022-09-04T09:58:24Z</time>
      </trkpt>
      <trkpt lat="43.2847" lon="-1.50059">
        <ele>101.4</ele>
        <time>2022-09-04T09:58:25Z</time>
      </trkpt>
      <trkpt lat="43.28474" lon="-1.50052">
        <ele>100.6</ele>
        <time>2022-09-04T09:58:26Z</time>
      </trkpt>
      <trkpt lat="43.28477" lon="-1.50046">
        <ele>99.9</ele>
        <time>2022-09-04T09:58:27Z</time>
      </trkpt>
      <trkpt lat="43.2848" lon="-1.50041">
        <ele>99.3</ele>
        <time>2022-09-04T09:58:28Z</time>
      </trkpt>
      <trkpt lat="43.28484" lon="-1.50037">
        <ele>98.7</ele>
        <time>2022-09-04T09:58:29Z</time>
      </trkpt>
      <trkpt lat="43.28488" lon="-1.5003">
        <ele>98</ele>
        <time>2022-09-04T09:58:30Z</time>
      </trkpt>
      <trkpt lat="43.2849" lon="-1.50022">
        <ele>97.2</ele>
        <time>2022-09-04T09:58:31Z</time>
      </trkpt>
      <trkpt lat="43.28492" lon="-1.50012">
        <ele>96.4</ele>
        <time>2022-09-04T09:58:32Z</time>
      </trkpt>
      <trkpt lat="43.28494" lon="-1.50002">
        <ele>95.6</ele>
        <time>2022-09-04T09:58:33Z</time>
      </trkpt>
      <trkpt lat="43.28496" lon="-1.49993">
        <ele>94.7</ele>
        <time>2022-09-04T09:58:34Z</time>
      </trkpt>
      <trkpt lat="43.28497" lon="-1.49984">
        <ele>93.8</ele>
        <time>2022-09-04T09:58:35Z</time>
      </trkpt>
      <trkpt lat="43.28498" lon="-1.49973">
        <ele>92.8</ele>
        <time>2022-09-04T09:58:36Z</time>
      </trkpt>
      <trkpt lat="43.285" lon="-1.49961">
        <ele>91.5</ele>
        <time>2022-09-04T09:58:37Z</time>
      </trkpt>
      <trkpt lat="43.28504" lon="-1.49947">
        <ele>90.3</ele>
        <time>2022-09-04T09:58:38Z</time>
      </trkpt>
      <trkpt lat="43.28509" lon="-1.49935">
        <ele>89.4</ele>
        <time>2022-09-04T09:58:39Z</time>
      </trkpt>
      <trkpt lat="43.28514" lon="-1.49924">
        <ele>88.7</ele>
        <time>2022-09-04T09:58:40Z</time>
      </trkpt>
      <trkpt lat="43.2852" lon="-1.49916">
        <ele>88.2</ele>
        <time>2022-09-04T09:58:41Z</time>
      </trkpt>
      <trkpt lat="43.28527" lon="-1.49911">
        <ele>87.9</ele>
        <time>2022-09-04T09:58:42Z</time>
      </trkpt>
      <trkpt lat="43.28535" lon="-1.49908">
        <ele>87.7</ele>
        <time>2022-09-04T09:58:43Z</time>
      </trkpt>
      <trkpt lat="43.28542" lon="-1.49906">
        <ele>87.4</ele>
        <time>2022-09-04T09:58:44Z</time>
      </trkpt>
      <trkpt lat="43.28549" lon="-1.49907">
        <ele>87.4</ele>
        <time>2022-09-04T09:58:45Z</time>
      </trkpt>
      <trkpt lat="43.28554" lon="-1.49911">
        <ele>87.4</ele>
        <time>2022-09-04T09:58:46Z</time>
      </trkpt>
      <trkpt lat="43.28558" lon="-1.49918">
        <ele>87.4</ele>
        <time>2022-09-04T09:58:47Z</time>
      </trkpt>
      <trkpt lat="43.28563" lon="-1.49924">
        <ele>87.4</ele>
        <time>2022-09-04T09:58:48Z</time>
      </trkpt>
      <trkpt lat="43.28567" lon="-1.49931">
        <ele>87.4</ele>
        <time>2022-09-04T09:58:49Z</time>
      </trkpt>
      <trkpt lat="43.28572" lon="-1.49937">
        <ele>87.4</ele>
        <time>2022-09-04T09:58:50Z</time>
      </trkpt>
      <trkpt lat="43.28577" lon="-1.49942">
        <ele>87.4</ele>
        <time>2022-09-04T09:58:51Z</time>
      </trkpt>
      <trkpt lat="43.28582" lon="-1.49946">
        <ele>87.4</ele>
        <time>2022-09-04T09:58:52Z</time>
      </trkpt>
      <trkpt lat="43.28587" lon="-1.49952">
        <ele>87.4</ele>
        <time>2022-09-04T09:58:53Z</time>
      </trkpt>
      <trkpt lat="43.28591" lon="-1.4996">
        <ele>87.3</ele>
        <time>2022-09-04T09:58:54Z</time>
      </trkpt>
      <trkpt lat="43.28595" lon="-1.49967">
        <ele>87.2</ele>
        <time>2022-09-04T09:58:55Z</time>
      </trkpt>
      <trkpt lat="43.28599" lon="-1.49975">
        <ele>87.1</ele>
        <time>2022-09-04T09:58:56Z</time>
      </trkpt>
      <trkpt lat="43.28603" lon="-1.49982">
        <ele>87</ele>
        <time>2022-09-04T09:58:57Z</time>
      </trkpt>
      <trkpt lat="43.28607" lon="-1.4999">
        <ele>87</ele>
        <time>2022-09-04T09:58:58Z</time>
      </trkpt>
      <trkpt lat="43.28611" lon="-1.49997">
        <ele>86.9</ele>
        <time>2022-09-04T09:58:59Z</time>
      </trkpt>
      <trkpt lat="43.28615" lon="-1.50004">
        <ele>86.9</ele>
        <time>2022-09-04T09:59:00Z</time>
      </trkpt>
      <trkpt lat="43.28619" lon="-1.50011">
        <ele>86.9</ele>
        <time>2022-09-04T09:59:01Z</time>
      </trkpt>
      <trkpt lat="43.28622" lon="-1.50018">
        <ele>86.9</ele>
        <time>2022-09-04T09:59:02Z</time>
      </trkpt>
      <trkpt lat="43.28626" lon="-1.50024">
        <ele>86.9</ele>
        <time>2022-09-04T09:59:03Z</time>
      </trkpt>
      <trkpt lat="43.28629" lon="-1.50031">
        <ele>87</ele>
        <time>2022-09-04T09:59:04Z</time>
      </trkpt>
      <trkpt lat="43.28633" lon="-1.50037">
        <ele>87</ele>
        <time>2022-09-04T09:59:05Z</time>
      </trkpt>
      <trkpt lat="43.28636" lon="-1.50043">
        <ele>87</ele>
        <time>2022-09-04T09:59:06Z</time>
      </trkpt>
      <trkpt lat="43.2864" lon="-1.50048">
        <ele>87.1</ele>
        <time>2022-09-04T09:59:07Z</time>
      </trkpt>
      <trkpt lat="43.28643" lon="-1.50053">
        <ele>87</ele>
        <time>2022-09-04T09:59:08Z</time>
      </trkpt>
      <trkpt lat="43.28647" lon="-1.50058">
        <ele>87</ele>
        <time>2022-09-04T09:59:09Z</time>
      </trkpt>
      <trkpt lat="43.28652" lon="-1.50063">
        <ele>86.9</ele>
        <time>2022-09-04T09:59:10Z</time>
      </trkpt>
      <trkpt lat="43.28656" lon="-1.50068">
        <ele>86.6</ele>
        <time>2022-09-04T09:59:11Z</time>
      </trkpt>
      <trkpt lat="43.28661" lon="-1.50074">
        <ele>86.3</ele>
        <time>2022-09-04T09:59:12Z</time>
      </trkpt>
      <trkpt lat="43.28665" lon="-1.5008">
        <ele>85.9</ele>
        <time>2022-09-04T09:59:13Z</time>
      </trkpt>
      <trkpt lat="43.28671" lon="-1.50085">
        <ele>85.4</ele>
        <time>2022-09-04T09:59:14Z</time>
      </trkpt>
      <trkpt lat="43.28677" lon="-1.5009">
        <ele>85</ele>
        <time>2022-09-04T09:59:15Z</time>
      </trkpt>
      <trkpt lat="43.28683" lon="-1.50098">
        <ele>84.4</ele>
        <time>2022-09-04T09:59:16Z</time>
      </trkpt>
      <trkpt lat="43.28689" lon="-1.50105">
        <ele>83.9</ele>
        <time>2022-09-04T09:59:17Z</time>
      </trkpt>
      <trkpt lat="43.28695" lon="-1.50113">
        <ele>83.2</ele>
        <time>2022-09-04T09:59:18Z</time>
      </trkpt>
      <trkpt lat="43.28702" lon="-1.50121">
        <ele>82.6</ele>
        <time>2022-09-04T09:59:19Z</time>
      </trkpt>
      <trkpt lat="43.28709" lon="-1.50128">
        <ele>81.9</ele>
        <time>2022-09-04T09:59:20Z</time>
      </trkpt>
      <trkpt lat="43.28717" lon="-1.50135">
        <ele>81.2</ele>
        <time>2022-09-04T09:59:21Z</time>
      </trkpt>
      <trkpt lat="43.28724" lon="-1.50142">
        <ele>80.5</ele>
        <time>2022-09-04T09:59:22Z</time>
      </trkpt>
      <trkpt lat="43.28739" lon="-1.50161">
        <ele>78.9</ele>
        <time>2022-09-04T09:59:24Z</time>
      </trkpt>
      <trkpt lat="43.28746" lon="-1.50172">
        <ele>78.2</ele>
        <time>2022-09-04T09:59:25Z</time>
      </trkpt>
      <trkpt lat="43.28753" lon="-1.50182">
        <ele>77.6</ele>
        <time>2022-09-04T09:59:26Z</time>
      </trkpt>
      <trkpt lat="43.2876" lon="-1.50192">
        <ele>77.1</ele>
        <time>2022-09-04T09:59:27Z</time>
      </trkpt>
      <trkpt lat="43.28768" lon="-1.50201">
        <ele>76.6</ele>
        <time>2022-09-04T09:59:28Z</time>
      </trkpt>
      <trkpt lat="43.28775" lon="-1.50211">
        <ele>76.2</ele>
        <time>2022-09-04T09:59:29Z</time>
      </trkpt>
      <trkpt lat="43.28782" lon="-1.50219">
        <ele>75.9</ele>
        <time>2022-09-04T09:59:30Z</time>
      </trkpt>
      <trkpt lat="43.28789" lon="-1.50228">
        <ele>75.5</ele>
        <time>2022-09-04T09:59:31Z</time>
      </trkpt>
      <trkpt lat="43.28796" lon="-1.50236">
        <ele>75.3</ele>
        <time>2022-09-04T09:59:32Z</time>
      </trkpt>
      <trkpt lat="43.28804" lon="-1.50244">
        <ele>75.2</ele>
        <time>2022-09-04T09:59:33Z</time>
      </trkpt>
      <trkpt lat="43.28811" lon="-1.50251">
        <ele>75.1</ele>
        <time>2022-09-04T09:59:34Z</time>
      </trkpt>
      <trkpt lat="43.28818" lon="-1.50258">
        <ele>75</ele>
        <time>2022-09-04T09:59:35Z</time>
      </trkpt>
      <trkpt lat="43.28825" lon="-1.50264">
        <ele>74.9</ele>
        <time>2022-09-04T09:59:36Z</time>
      </trkpt>
      <trkpt lat="43.28832" lon="-1.50271">
        <ele>74.8</ele>
        <time>2022-09-04T09:59:37Z</time>
      </trkpt>
      <trkpt lat="43.28839" lon="-1.50277">
        <ele>74.8</ele>
        <time>2022-09-04T09:59:38Z</time>
      </trkpt>
      <trkpt lat="43.28845" lon="-1.50284">
        <ele>74.9</ele>
        <time>2022-09-04T09:59:39Z</time>
      </trkpt>
      <trkpt lat="43.28852" lon="-1.50292">
        <ele>75.1</ele>
        <time>2022-09-04T09:59:40Z</time>
      </trkpt>
      <trkpt lat="43.28858" lon="-1.503">
        <ele>75.4</ele>
        <time>2022-09-04T09:59:41Z</time>
      </trkpt>
      <trkpt lat="43.28863" lon="-1.50307">
        <ele>75.8</ele>
        <time>2022-09-04T09:59:42Z</time>
      </trkpt>
      <trkpt lat="43.28868" lon="-1.50313">
        <ele>76</ele>
        <time>2022-09-04T09:59:43Z</time>
      </trkpt>
      <trkpt lat="43.28872" lon="-1.50317">
        <ele>76.3</ele>
        <time>2022-09-04T09:59:44Z</time>
      </trkpt>
      <trkpt lat="43.28877" lon="-1.50321">
        <ele>76.4</ele>
        <time>2022-09-04T09:59:45Z</time>
      </trkpt>
      <trkpt lat="43.28882" lon="-1.50324">
        <ele>76.6</ele>
        <time>2022-09-04T09:59:46Z</time>
      </trkpt>
      <trkpt lat="43.28887" lon="-1.50326">
        <ele>76.7</ele>
        <time>2022-09-04T09:59:47Z</time>
      </trkpt>
      <trkpt lat="43.28892" lon="-1.50329">
        <ele>76.9</ele>
        <time>2022-09-04T09:59:48Z</time>
      </trkpt>
      <trkpt lat="43.28897" lon="-1.50332">
        <ele>77</ele>
        <time>2022-09-04T09:59:49Z</time>
      </trkpt>
      <trkpt lat="43.28902" lon="-1.50335">
        <ele>77.2</ele>
        <time>2022-09-04T09:59:50Z</time>
      </trkpt>
      <trkpt lat="43.28907" lon="-1.50339">
        <ele>77.3</ele>
        <time>2022-09-04T09:59:51Z</time>
      </trkpt>
      <trkpt lat="43.28913" lon="-1.50343">
        <ele>77.5</ele>
        <time>2022-09-04T09:59:52Z</time>
      </trkpt>
      <trkpt lat="43.28918" lon="-1.50346">
        <ele>77.6</ele>
        <time>2022-09-04T09:59:53Z</time>
      </trkpt>
      <trkpt lat="43.28924" lon="-1.5035">
        <ele>77.8</ele>
        <time>2022-09-04T09:59:54Z</time>
      </trkpt>
      <trkpt lat="43.28929" lon="-1.50354">
        <ele>77.8</ele>
        <time>2022-09-04T09:59:55Z</time>
      </trkpt>
      <trkpt lat="43.28934" lon="-1.50359">
        <ele>78</ele>
        <time>2022-09-04T09:59:56Z</time>
      </trkpt>
      <trkpt lat="43.2894" lon="-1.50364">
        <ele>78.1</ele>
        <time>2022-09-04T09:59:57Z</time>
      </trkpt>
      <trkpt lat="43.28945" lon="-1.50369">
        <ele>78.2</ele>
        <time>2022-09-04T09:59:58Z</time>
      </trkpt>
      <trkpt lat="43.2895" lon="-1.50375">
        <ele>78.4</ele>
        <time>2022-09-04T09:59:59Z</time>
      </trkpt>
      <trkpt lat="43.28954" lon="-1.50382">
        <ele>78.7</ele>
        <time>2022-09-04T10:00:00Z</time>
      </trkpt>
      <trkpt lat="43.28956" lon="-1.50389">
        <ele>78.9</ele>
        <time>2022-09-04T10:00:01Z</time>
      </trkpt>
      <trkpt lat="43.28958" lon="-1.50397">
        <ele>79.1</ele>
        <time>2022-09-04T10:00:02Z</time>
      </trkpt>
      <trkpt lat="43.2896" lon="-1.50405">
        <ele>79.3</ele>
        <time>2022-09-04T10:00:03Z</time>
      </trkpt>
      <trkpt lat="43.2896" lon="-1.50412">
        <ele>79.5</ele>
        <time>2022-09-04T10:00:04Z</time>
      </trkpt>
      <trkpt lat="43.28962" lon="-1.50419">
        <ele>79.6</ele>
        <time>2022-09-04T10:00:05Z</time>
      </trkpt>
      <trkpt lat="43.28964" lon="-1.50424">
        <ele>79.8</ele>
        <time>2022-09-04T10:00:06Z</time>
      </trkpt>
      <trkpt lat="43.28966" lon="-1.50428">
        <ele>79.8</ele>
        <time>2022-09-04T10:00:07Z</time>
      </trkpt>
      <trkpt lat="43.2897" lon="-1.5043">
        <ele>79.8</ele>
        <time>2022-09-04T10:00:08Z</time>
      </trkpt>
      <trkpt lat="43.28974" lon="-1.50432">
        <ele>79.7</ele>
        <time>2022-09-04T10:00:09Z</time>
      </trkpt>
      <trkpt lat="43.28979" lon="-1.50432">
        <ele>79.6</ele>
        <time>2022-09-04T10:00:10Z</time>
      </trkpt>
      <trkpt lat="43.28984" lon="-1.50433">
        <ele>79.6</ele>
        <time>2022-09-04T10:00:11Z</time>
      </trkpt>
      <trkpt lat="43.28988" lon="-1.50433">
        <ele>79.5</ele>
        <time>2022-09-04T10:00:12Z</time>
      </trkpt>
      <trkpt lat="43.28992" lon="-1.50434">
        <ele>79.5</ele>
        <time>2022-09-04T10:00:13Z</time>
      </trkpt>
      <trkpt lat="43.28996" lon="-1.50433">
        <ele>79.4</ele>
        <time>2022-09-04T10:00:14Z</time>
      </trkpt>
      <trkpt lat="43.29" lon="-1.50432">
        <ele>79.3</ele>
        <time>2022-09-04T10:00:15Z</time>
      </trkpt>
      <trkpt lat="43.29005" lon="-1.50431">
        <ele>79.2</ele>
        <time>2022-09-04T10:00:16Z</time>
      </trkpt>
      <trkpt lat="43.29009" lon="-1.50431">
        <ele>79.2</ele>
        <time>2022-09-04T10:00:17Z</time>
      </trkpt>
      <trkpt lat="43.29012" lon="-1.50432">
        <ele>79.1</ele>
        <time>2022-09-04T10:00:18Z</time>
      </trkpt>
      <trkpt lat="43.29015" lon="-1.50435">
        <ele>79</ele>
        <time>2022-09-04T10:00:19Z</time>
      </trkpt>
      <trkpt lat="43.29016" lon="-1.50438">
        <ele>79</ele>
        <time>2022-09-04T10:00:20Z</time>
      </trkpt>
      <trkpt lat="43.29015" lon="-1.50444">
        <ele>78.9</ele>
        <time>2022-09-04T10:00:21Z</time>
      </trkpt>
      <trkpt lat="43.29012" lon="-1.50449">
        <ele>78.8</ele>
        <time>2022-09-04T10:00:22Z</time>
      </trkpt>
      <trkpt lat="43.2901" lon="-1.50453">
        <ele>78.7</ele>
        <time>2022-09-04T10:00:23Z</time>
      </trkpt>
      <trkpt lat="43.29009" lon="-1.50457">
        <ele>78.6</ele>
        <time>2022-09-04T10:00:24Z</time>
      </trkpt>
      <trkpt lat="43.29011" lon="-1.50462">
        <ele>78.5</ele>
        <time>2022-09-04T10:00:25Z</time>
      </trkpt>
      <trkpt lat="43.29014" lon="-1.50466">
        <ele>78.4</ele>
        <time>2022-09-04T10:00:26Z</time>
      </trkpt>
      <trkpt lat="43.29018" lon="-1.50469">
        <ele>78.3</ele>
        <time>2022-09-04T10:00:27Z</time>
      </trkpt>
      <trkpt lat="43.29022" lon="-1.50472">
        <ele>78.2</ele>
        <time>2022-09-04T10:00:28Z</time>
      </trkpt>
      <trkpt lat="43.29025" lon="-1.50474">
        <ele>78.1</ele>
        <time>2022-09-04T10:00:29Z</time>
      </trkpt>
      <trkpt lat="43.29029" lon="-1.50477">
        <ele>78</ele>
        <time>2022-09-04T10:00:30Z</time>
      </trkpt>
      <trkpt lat="43.29031" lon="-1.50479">
        <ele>77.9</ele>
        <time>2022-09-04T10:00:31Z</time>
      </trkpt>
      <trkpt lat="43.29034" lon="-1.50481">
        <ele>77.8</ele>
        <time>2022-09-04T10:00:32Z</time>
      </trkpt>
      <trkpt lat="43.29036" lon="-1.50483">
        <ele>77.7</ele>
        <time>2022-09-04T10:00:33Z</time>
      </trkpt>
      <trkpt lat="43.29039" lon="-1.50486">
        <ele>77.7</ele>
        <time>2022-09-04T10:00:34Z</time>
      </trkpt>
      <trkpt lat="43.29039" lon="-1.50487">
        <ele>77.6</ele>
        <time>2022-09-04T10:00:35Z</time>
      </trkpt>
      <trkpt lat="43.29039" lon="-1.50487">
        <ele>77.6</ele>
        <time>2022-09-04T10:00:36Z</time>
      </trkpt>
      <trkpt lat="43.29039" lon="-1.50487">
        <ele>77.6</ele>
        <time>2022-09-04T10:00:37Z</time>
      </trkpt>
      <trkpt lat="43.29039" lon="-1.50486">
        <ele>77.6</ele>
        <time>2022-09-04T10:00:38Z</time>
      </trkpt>
      <trkpt lat="43.29038" lon="-1.50486">
        <ele>77.6</ele>
        <time>2022-09-04T10:00:39Z</time>
      </trkpt>
      <trkpt lat="43.29038" lon="-1.50486">
        <ele>77.6</ele>
        <time>2022-09-04T10:00:40Z</time>
      </trkpt>
      <trkpt lat="43.29038" lon="-1.50486">
        <ele>77.6</ele>
        <time>2022-09-04T10:00:41Z</time>
      </trkpt>
      <trkpt lat="43.29038" lon="-1.50487">
        <ele>77.6</ele>
        <time>2022-09-04T10:00:42Z</time>
      </trkpt>
      <trkpt lat="43.29038" lon="-1.50487">
        <ele>77.6</ele>
        <time>2022-09-04T10:00:43Z</time>
      </trkpt>
      <trkpt lat="43.29038" lon="-1.50487">
        <ele>77.6</ele>
        <time>2022-09-04T10:00:44Z</time>
      </trkpt>
      <trkpt lat="43.29038" lon="-1.50487">
        <ele>77.6</ele>
        <time>2022-09-04T10:00:45Z</time>
      </trkpt>
      <trkpt lat="43.29038" lon="-1.50487">
        <ele>77.6</ele>
        <time>2022-09-04T10:00:46Z</time>
      </trkpt>
      <trkpt lat="43.29037" lon="-1.50491">
        <ele>77.5</ele>
        <time>2022-09-04T10:02:06Z</time>
      </trkpt>
      <trkpt lat="43.29037" lon="-1.50493">
        <ele>77.4</ele>
        <time>2022-09-04T10:02:07Z</time>
      </trkpt>
      <trkpt lat="43.29037" lon="-1.50494">
        <ele>77.4</ele>
        <time>2022-09-04T10:02:08Z</time>
      </trkpt>
      <trkpt lat="43.29038" lon="-1.50495">
        <ele>77.4</ele>
        <time>2022-09-04T10:02:09Z</time>
      </trkpt>
      <trkpt lat="43.29039" lon="-1.50495">
        <ele>77.4</ele>
        <time>2022-09-04T10:02:10Z</time>
      </trkpt>
      <trkpt lat="43.29039" lon="-1.50496">
        <ele>77.4</ele>
        <time>2022-09-04T10:02:11Z</time>
      </trkpt>
      <trkpt lat="43.2904" lon="-1.50496">
        <ele>77.3</ele>
        <time>2022-09-04T10:02:12Z</time>
      </trkpt>
      <trkpt lat="43.2904" lon="-1.50496">
        <ele>77.3</ele>
        <time>2022-09-04T10:02:13Z</time>
      </trkpt>
      <trkpt lat="43.2904" lon="-1.50496">
        <ele>77.3</ele>
        <time>2022-09-04T10:02:14Z</time>
      </trkpt>
      <trkpt lat="43.2904" lon="-1.50496">
        <ele>77.3</ele>
        <time>2022-09-04T10:02:15Z</time>
      </trkpt>
      <trkpt lat="43.2904" lon="-1.50496">
        <ele>77.3</ele>
        <time>2022-09-04T10:02:16Z</time>
      </trkpt>
      <trkpt lat="43.2904" lon="-1.50496">
        <ele>77.3</ele>
        <time>2022-09-04T10:02:17Z</time>
      </trkpt>
      <trkpt lat="43.2904" lon="-1.50496">
        <ele>77.3</ele>
        <time>2022-09-04T10:02:18Z</time>
      </trkpt>
      <trkpt lat="43.2904" lon="-1.50496">
        <ele>77.3</ele>
        <time>2022-09-04T10:02:19Z</time>
      </trkpt>
      <trkpt lat="43.29041" lon="-1.50496">
        <ele>77.3</ele>
        <time>2022-09-04T10:02:20Z</time>
      </trkpt>
      <trkpt lat="43.29041" lon="-1.50497">
        <ele>77.3</ele>
        <time>2022-09-04T10:02:21Z</time>
      </trkpt>
      <trkpt lat="43.29041" lon="-1.50497">
        <ele>77.3</ele>
        <time>2022-09-04T10:02:22Z</time>
      </trkpt>
      <trkpt lat="43.29041" lon="-1.50498">
        <ele>77.3</ele>
        <time>2022-09-04T10:02:23Z</time>
      </trkpt>
      <trkpt lat="43.29041" lon="-1.50498">
        <ele>77.3</ele>
        <time>2022-09-04T10:02:24Z</time>
      </trkpt>
      <trkpt lat="43.29041" lon="-1.50498">
        <ele>77.3</ele>
        <time>2022-09-04T10:02:25Z</time>
      </trkpt>
      <trkpt lat="43.29041" lon="-1.50499">
        <ele>77.3</ele>
        <time>2022-09-04T10:02:26Z</time>
      </trkpt>
      <trkpt lat="43.29041" lon="-1.50499">
        <ele>77.3</ele>
        <time>2022-09-04T10:02:27Z</time>
      </trkpt>
      <trkpt lat="43.29041" lon="-1.50499">
        <ele>77.3</ele>
        <time>2022-09-04T10:02:28Z</time>
      </trkpt>
      <trkpt lat="43.29041" lon="-1.50499">
        <ele>77.3</ele>
        <time>2022-09-04T10:02:29Z</time>
      </trkpt>
      <trkpt lat="43.29041" lon="-1.50499">
        <ele>77.3</ele>
        <time>2022-09-04T10:02:30Z</time>
      </trkpt>
      <trkpt lat="43.29041" lon="-1.50499">
        <ele>77.3</ele>
        <time>2022-09-04T10:02:31Z</time>
      </trkpt>
      <trkpt lat="43.29041" lon="-1.50499">
        <ele>77.3</ele>
        <time>2022-09-04T10:02:32Z</time>
      </trkpt>
      <trkpt lat="43.29041" lon="-1.50499">
        <ele>77.3</ele>
        <time>2022-09-04T10:02:33Z</time>
      </trkpt>
      <trkpt lat="43.29043" lon="-1.50497">
        <ele>77.2</ele>
        <time>2022-09-04T10:08:39Z</time>
      </trkpt>
      <trkpt lat="43.29043" lon="-1.50497">
        <ele>77.2</ele>
        <time>2022-09-04T10:08:40Z</time>
      </trkpt>
      <trkpt lat="43.29044" lon="-1.50497">
        <ele>77.2</ele>
        <time>2022-09-04T10:08:41Z</time>
      </trkpt>
      <trkpt lat="43.29044" lon="-1.50498">
        <ele>77.2</ele>
        <time>2022-09-04T10:08:42Z</time>
      </trkpt>
      <trkpt lat="43.29044" lon="-1.50498">
        <ele>77.2</ele>
        <time>2022-09-04T10:08:43Z</time>
      </trkpt>
      <trkpt lat="43.29044" lon="-1.50498">
        <ele>77.2</ele>
        <time>2022-09-04T10:08:44Z</time>
      </trkpt>
      <trkpt lat="43.29044" lon="-1.50497">
        <ele>77.2</ele>
        <time>2022-09-04T10:08:45Z</time>
      </trkpt>
      <trkpt lat="43.29044" lon="-1.50497">
        <ele>77.2</ele>
        <time>2022-09-04T10:08:46Z</time>
      </trkpt>
      <trkpt lat="43.29043" lon="-1.50497">
        <ele>77.1</ele>
        <time>2022-09-04T10:08:47Z</time>
      </trkpt>
      <trkpt lat="43.29043" lon="-1.50496">
        <ele>77.1</ele>
        <time>2022-09-04T10:08:48Z</time>
      </trkpt>
      <trkpt lat="43.29043" lon="-1.50496">
        <ele>77.1</ele>
        <time>2022-09-04T10:08:49Z</time>
      </trkpt>
      <trkpt lat="43.29043" lon="-1.50496">
        <ele>77.1</ele>
        <time>2022-09-04T10:08:50Z</time>
      </trkpt>
      <trkpt lat="43.29043" lon="-1.50497">
        <ele>77.1</ele>
        <time>2022-09-04T10:08:51Z</time>
      </trkpt>
      <trkpt lat="43.29043" lon="-1.50497">
        <ele>77.1</ele>
        <time>2022-09-04T10:08:52Z</time>
      </trkpt>
      <trkpt lat="43.29043" lon="-1.50497">
        <ele>77.1</ele>
        <time>2022-09-04T10:08:53Z</time>
      </trkpt>
      <trkpt lat="43.29043" lon="-1.50497">
        <ele>77.1</ele>
        <time>2022-09-04T10:08:54Z</time>
      </trkpt>
      <trkpt lat="43.29042" lon="-1.50496">
        <ele>77.1</ele>
        <time>2022-09-04T10:08:55Z</time>
      </trkpt>
      <trkpt lat="43.29042" lon="-1.50496">
        <ele>77.1</ele>
        <time>2022-09-04T10:08:56Z</time>
      </trkpt>
      <trkpt lat="43.29042" lon="-1.50496">
        <ele>77.1</ele>
        <time>2022-09-04T10:08:57Z</time>
      </trkpt>
      <trkpt lat="43.29042" lon="-1.50496">
        <ele>77.1</ele>
        <time>2022-09-04T10:08:58Z</time>
      </trkpt>
      <trkpt lat="43.29043" lon="-1.50497">
        <ele>77.1</ele>
        <time>2022-09-04T10:08:59Z</time>
      </trkpt>
      <trkpt lat="43.29043" lon="-1.50497">
        <ele>77</ele>
        <time>2022-09-04T10:09:00Z</time>
      </trkpt>
      <trkpt lat="43.29043" lon="-1.50498">
        <ele>77</ele>
        <time>2022-09-04T10:09:01Z</time>
      </trkpt>
      <trkpt lat="43.29043" lon="-1.50498">
        <ele>77</ele>
        <time>2022-09-04T10:09:02Z</time>
      </trkpt>
      <trkpt lat="43.29043" lon="-1.50498">
        <ele>77</ele>
        <time>2022-09-04T10:09:03Z</time>
      </trkpt>
      <trkpt lat="43.29043" lon="-1.50498">
        <ele>77</ele>
        <time>2022-09-04T10:09:04Z</time>
      </trkpt>
      <trkpt lat="43.29043" lon="-1.50498">
        <ele>77</ele>
        <time>2022-09-04T10:09:05Z</time>
      </trkpt>
      <trkpt lat="43.29043" lon="-1.50498">
        <ele>77</ele>
        <time>2022-09-04T10:09:06Z</time>
      </trkpt>
      <trkpt lat="43.29043" lon="-1.50498">
        <ele>77</ele>
        <time>2022-09-04T10:09:07Z</time>
      </trkpt>
      <trkpt lat="43.29043" lon="-1.50498">
        <ele>77</ele>
        <time>2022-09-04T10:09:09Z</time>
      </trkpt>
      <trkpt lat="43.29043" lon="-1.50498">
        <ele>77</ele>
        <time>2022-09-04T10:09:10Z</time>
      </trkpt>
      <trkpt lat="43.29043" lon="-1.50498">
        <ele>77</ele>
        <time>2022-09-04T10:09:11Z</time>
      </trkpt>
      <trkpt lat="43.29043" lon="-1.50498">
        <ele>77</ele>
        <time>2022-09-04T10:09:12Z</time>
      </trkpt>
      <trkpt lat="43.29043" lon="-1.50498">
        <ele>77</ele>
        <time>2022-09-04T10:09:13Z</time>
      </trkpt>
    </trkseg>
  </trk>
</gpx>